<?xml version="1.0" encoding="UTF-8"?><gpx xmlns="http://www.topografix.com/GPX/1/1" version="1.1" creator="iOrient"><trk><name>ММБ-2020-virtual</name><trkseg><trkpt lat="55.6498230" lon="38.1746350"><time>2020-10-31T00:24:56.253</time></trkpt><trkpt lat="55.6497900" lon="38.1747200"><time>2020-10-31T00:24:57.243</time></trkpt><trkpt lat="55.6497580" lon="38.1747770"><time>2020-10-31T00:25:01.250</time></trkpt><trkpt lat="55.6497280" lon="38.1748370"><time>2020-10-31T00:25:03.243</time></trkpt><trkpt lat="55.6496930" lon="38.1748920"><time>2020-10-31T00:25:07.243</time></trkpt><trkpt lat="55.6496970" lon="38.1749820"><time>2020-10-31T00:25:13.243</time></trkpt><trkpt lat="55.6497420" lon="38.1750080"><time>2020-10-31T00:25:17.247</time></trkpt><trkpt lat="55.6498000" lon="38.1750570"><time>2020-10-31T00:25:21.247</time></trkpt><trkpt lat="55.6498380" lon="38.1751030"><time>2020-10-31T00:25:24.243</time></trkpt><trkpt lat="55.6498920" lon="38.1751470"><time>2020-10-31T00:25:27.243</time></trkpt><trkpt lat="55.6499470" lon="38.1751770"><time>2020-10-31T00:25:30.487</time></trkpt><trkpt lat="55.6499600" lon="38.1752820"><time>2020-10-31T00:25:33.243</time></trkpt><trkpt lat="55.6499920" lon="38.1753420"><time>2020-10-31T00:25:37.253</time></trkpt><trkpt lat="55.6500200" lon="38.1754120"><time>2020-10-31T00:25:42.247</time></trkpt><trkpt lat="55.6500500" lon="38.1754930"><time>2020-10-31T00:25:45.243</time></trkpt><trkpt lat="55.6500600" lon="38.1755870"><time>2020-10-31T00:25:51.247</time></trkpt><trkpt lat="55.6500280" lon="38.1756580"><time>2020-10-31T00:25:54.243</time></trkpt><trkpt lat="55.6499920" lon="38.1757150"><time>2020-10-31T00:25:58.250</time></trkpt><trkpt lat="55.6499600" lon="38.1757830"><time>2020-10-31T00:26:02.257</time></trkpt><trkpt lat="55.6499200" lon="38.1757420"><time>2020-10-31T00:26:12.313</time></trkpt><trkpt lat="55.6498750" lon="38.1758000"><time>2020-10-31T00:26:18.313</time></trkpt><trkpt lat="55.6498300" lon="38.1758480"><time>2020-10-31T00:26:35.317</time></trkpt><trkpt lat="55.6497870" lon="38.1758270"><time>2020-10-31T00:26:41.317</time></trkpt><trkpt lat="55.6497550" lon="38.1758950"><time>2020-10-31T00:26:45.313</time></trkpt><trkpt lat="55.6497180" lon="38.1759580"><time>2020-10-31T00:26:50.317</time></trkpt><trkpt lat="55.6496650" lon="38.1760200"><time>2020-10-31T00:26:55.320</time></trkpt><trkpt lat="55.6496380" lon="38.1760920"><time>2020-10-31T00:27:01.313</time></trkpt><trkpt lat="55.6496380" lon="38.1761750"><time>2020-10-31T00:27:09.320</time></trkpt><trkpt lat="55.6496500" lon="38.1762620"><time>2020-10-31T00:27:15.317</time></trkpt><trkpt lat="55.6496830" lon="38.1763280"><time>2020-10-31T00:27:19.320</time></trkpt><trkpt lat="55.6497130" lon="38.1763930"><time>2020-10-31T00:27:23.320</time></trkpt><trkpt lat="55.6497250" lon="38.1764850"><time>2020-10-31T00:27:27.317</time></trkpt><trkpt lat="55.6497150" lon="38.1765670"><time>2020-10-31T00:27:30.313</time></trkpt><trkpt lat="55.6497220" lon="38.1766600"><time>2020-10-31T00:27:35.320</time></trkpt><trkpt lat="55.6497420" lon="38.1767470"><time>2020-10-31T00:27:40.313</time></trkpt><trkpt lat="55.6497850" lon="38.1767780"><time>2020-10-31T00:27:45.313</time></trkpt><trkpt lat="55.6498320" lon="38.1767850"><time>2020-10-31T00:27:47.317</time></trkpt><trkpt lat="55.6498750" lon="38.1768150"><time>2020-10-31T00:27:50.317</time></trkpt><trkpt lat="55.6499170" lon="38.1768520"><time>2020-10-31T00:27:56.313</time></trkpt><trkpt lat="55.6499270" lon="38.1769470"><time>2020-10-31T00:28:02.313</time></trkpt><trkpt lat="55.6499270" lon="38.1770470"><time>2020-10-31T00:28:06.317</time></trkpt><trkpt lat="55.6498870" lon="38.1771000"><time>2020-10-31T00:28:08.317</time></trkpt><trkpt lat="55.6498870" lon="38.1771830"><time>2020-10-31T00:28:10.317</time></trkpt><trkpt lat="55.6498770" lon="38.1772900"><time>2020-10-31T00:28:14.317</time></trkpt><trkpt lat="55.6498200" lon="38.1774180"><time>2020-10-31T00:28:16.320</time></trkpt><trkpt lat="55.6498070" lon="38.1774950"><time>2020-10-31T00:28:20.317</time></trkpt><trkpt lat="55.6497980" lon="38.1775950"><time>2020-10-31T00:28:28.317</time></trkpt><trkpt lat="55.6497580" lon="38.1776580"><time>2020-10-31T00:28:32.313</time></trkpt><trkpt lat="55.6497280" lon="38.1777220"><time>2020-10-31T00:28:39.317</time></trkpt><trkpt lat="55.6496970" lon="38.1777850"><time>2020-10-31T00:28:42.313</time></trkpt><trkpt lat="55.6496780" lon="38.1778600"><time>2020-10-31T00:28:48.313</time></trkpt><trkpt lat="55.6496730" lon="38.1779430"><time>2020-10-31T00:28:57.320</time></trkpt><trkpt lat="55.6497120" lon="38.1779920"><time>2020-10-31T00:29:02.313</time></trkpt><trkpt lat="55.6497330" lon="38.1780670"><time>2020-10-31T00:29:05.310</time></trkpt><trkpt lat="55.6497280" lon="38.1781530"><time>2020-10-31T00:29:09.313</time></trkpt><trkpt lat="55.6497230" lon="38.1782330"><time>2020-10-31T00:29:12.317</time></trkpt><trkpt lat="55.6497170" lon="38.1783200"><time>2020-10-31T00:29:20.317</time></trkpt><trkpt lat="55.6496900" lon="38.1783920"><time>2020-10-31T00:29:24.317</time></trkpt><trkpt lat="55.6496880" lon="38.1784800"><time>2020-10-31T00:29:30.317</time></trkpt><trkpt lat="55.6496970" lon="38.1785720"><time>2020-10-31T00:29:34.320</time></trkpt><trkpt lat="55.6496880" lon="38.1786630"><time>2020-10-31T00:29:37.317</time></trkpt><trkpt lat="55.6496750" lon="38.1787680"><time>2020-10-31T00:29:40.320</time></trkpt><trkpt lat="55.6496620" lon="38.1788500"><time>2020-10-31T00:29:44.317</time></trkpt><trkpt lat="55.6496420" lon="38.1789320"><time>2020-10-31T00:29:48.317</time></trkpt><trkpt lat="55.6496430" lon="38.1790380"><time>2020-10-31T00:29:54.313</time></trkpt><trkpt lat="55.6495980" lon="38.1791180"><time>2020-10-31T00:29:57.323</time></trkpt><trkpt lat="55.6496180" lon="38.1792000"><time>2020-10-31T00:30:04.320</time></trkpt><trkpt lat="55.6496620" lon="38.1792470"><time>2020-10-31T00:30:09.317</time></trkpt><trkpt lat="55.6497050" lon="38.1792850"><time>2020-10-31T00:30:16.317</time></trkpt><trkpt lat="55.6497500" lon="38.1793000"><time>2020-10-31T00:30:20.320</time></trkpt><trkpt lat="55.6497880" lon="38.1793470"><time>2020-10-31T00:30:23.317</time></trkpt><trkpt lat="55.6498280" lon="38.1793980"><time>2020-10-31T00:30:29.313</time></trkpt><trkpt lat="55.6498520" lon="38.1794820"><time>2020-10-31T00:30:34.317</time></trkpt><trkpt lat="55.6498970" lon="38.1795200"><time>2020-10-31T00:30:42.320</time></trkpt><trkpt lat="55.6499420" lon="38.1795730"><time>2020-10-31T00:30:49.317</time></trkpt><trkpt lat="55.6499900" lon="38.1795900"><time>2020-10-31T00:30:53.313</time></trkpt><trkpt lat="55.6500130" lon="38.1796670"><time>2020-10-31T00:30:59.317</time></trkpt><trkpt lat="55.6500550" lon="38.1797330"><time>2020-10-31T00:31:06.313</time></trkpt><trkpt lat="55.6500920" lon="38.1798550"><time>2020-10-31T00:31:10.307</time></trkpt><trkpt lat="55.6501150" lon="38.1799370"><time>2020-10-31T00:31:16.317</time></trkpt><trkpt lat="55.6501420" lon="38.1800120"><time>2020-10-31T00:31:21.313</time></trkpt><trkpt lat="55.6501750" lon="38.1800730"><time>2020-10-31T00:31:27.313</time></trkpt><trkpt lat="55.6501750" lon="38.1801580"><time>2020-10-31T00:31:31.313</time></trkpt><trkpt lat="55.6502170" lon="38.1802130"><time>2020-10-31T00:31:37.317</time></trkpt><trkpt lat="55.6502620" lon="38.1802550"><time>2020-10-31T00:31:42.317</time></trkpt><trkpt lat="55.6503220" lon="38.1803100"><time>2020-10-31T00:31:45.313</time></trkpt><trkpt lat="55.6503670" lon="38.1803320"><time>2020-10-31T00:31:47.317</time></trkpt><trkpt lat="55.6504180" lon="38.1803420"><time>2020-10-31T00:31:50.317</time></trkpt><trkpt lat="55.6504750" lon="38.1803120"><time>2020-10-31T00:31:54.313</time></trkpt><trkpt lat="55.6505270" lon="38.1802780"><time>2020-10-31T00:31:56.317</time></trkpt><trkpt lat="55.6505720" lon="38.1802150"><time>2020-10-31T00:31:59.313</time></trkpt><trkpt lat="55.6506250" lon="38.1802020"><time>2020-10-31T00:32:01.313</time></trkpt><trkpt lat="55.6506770" lon="38.1801780"><time>2020-10-31T00:32:04.317</time></trkpt><trkpt lat="55.6507380" lon="38.1801470"><time>2020-10-31T00:32:07.313</time></trkpt><trkpt lat="55.6507970" lon="38.1801080"><time>2020-10-31T00:32:10.317</time></trkpt><trkpt lat="55.6508600" lon="38.1800900"><time>2020-10-31T00:32:13.320</time></trkpt><trkpt lat="55.6509170" lon="38.1800750"><time>2020-10-31T00:32:15.317</time></trkpt><trkpt lat="55.6509680" lon="38.1800580"><time>2020-10-31T00:32:18.317</time></trkpt><trkpt lat="55.6510230" lon="38.1800630"><time>2020-10-31T00:32:21.317</time></trkpt><trkpt lat="55.6510770" lon="38.1800620"><time>2020-10-31T00:32:25.320</time></trkpt><trkpt lat="55.6511220" lon="38.1800570"><time>2020-10-31T00:32:29.317</time></trkpt><trkpt lat="55.6511850" lon="38.1800600"><time>2020-10-31T00:32:35.317</time></trkpt><trkpt lat="55.6512420" lon="38.1800480"><time>2020-10-31T00:32:39.317</time></trkpt><trkpt lat="55.6513080" lon="38.1800430"><time>2020-10-31T00:32:42.320</time></trkpt><trkpt lat="55.6513620" lon="38.1800430"><time>2020-10-31T00:32:46.320</time></trkpt><trkpt lat="55.6514050" lon="38.1800850"><time>2020-10-31T00:32:50.313</time></trkpt><trkpt lat="55.6514550" lon="38.1800980"><time>2020-10-31T00:32:52.317</time></trkpt><trkpt lat="55.6515130" lon="38.1801150"><time>2020-10-31T00:32:54.317</time></trkpt><trkpt lat="55.6515800" lon="38.1801330"><time>2020-10-31T00:32:56.313</time></trkpt><trkpt lat="55.6516320" lon="38.1801400"><time>2020-10-31T00:32:58.313</time></trkpt><trkpt lat="55.6516930" lon="38.1801430"><time>2020-10-31T00:33:00.317</time></trkpt><trkpt lat="55.6517650" lon="38.1801280"><time>2020-10-31T00:33:02.317</time></trkpt><trkpt lat="55.6518350" lon="38.1801170"><time>2020-10-31T00:33:04.317</time></trkpt><trkpt lat="55.6518830" lon="38.1801120"><time>2020-10-31T00:33:06.320</time></trkpt><trkpt lat="55.6519430" lon="38.1801150"><time>2020-10-31T00:33:08.320</time></trkpt><trkpt lat="55.6519920" lon="38.1801180"><time>2020-10-31T00:33:10.313</time></trkpt><trkpt lat="55.6520450" lon="38.1801200"><time>2020-10-31T00:33:13.317</time></trkpt><trkpt lat="55.6520930" lon="38.1801120"><time>2020-10-31T00:33:15.323</time></trkpt><trkpt lat="55.6521600" lon="38.1800930"><time>2020-10-31T00:33:18.317</time></trkpt><trkpt lat="55.6522050" lon="38.1800800"><time>2020-10-31T00:33:20.320</time></trkpt><trkpt lat="55.6522700" lon="38.1800820"><time>2020-10-31T00:33:23.317</time></trkpt><trkpt lat="55.6523320" lon="38.1800870"><time>2020-10-31T00:33:26.320</time></trkpt><trkpt lat="55.6523980" lon="38.1801180"><time>2020-10-31T00:33:32.320</time></trkpt><trkpt lat="55.6524520" lon="38.1801200"><time>2020-10-31T00:33:34.317</time></trkpt><trkpt lat="55.6525020" lon="38.1801320"><time>2020-10-31T00:33:37.313</time></trkpt><trkpt lat="55.6525550" lon="38.1801370"><time>2020-10-31T00:33:42.313</time></trkpt><trkpt lat="55.6525630" lon="38.1802170"><time>2020-10-31T00:33:48.317</time></trkpt><trkpt lat="55.6525600" lon="38.1802970"><time>2020-10-31T00:33:54.317</time></trkpt><trkpt lat="55.6525530" lon="38.1803770"><time>2020-10-31T00:34:02.317</time></trkpt><trkpt lat="55.6525650" lon="38.1804570"><time>2020-10-31T00:34:08.317</time></trkpt><trkpt lat="55.6526000" lon="38.1805070"><time>2020-10-31T00:34:11.317</time></trkpt><trkpt lat="55.6526170" lon="38.1805900"><time>2020-10-31T00:34:17.313</time></trkpt><trkpt lat="55.6526130" lon="38.1806880"><time>2020-10-31T00:34:22.317</time></trkpt><trkpt lat="55.6526130" lon="38.1807770"><time>2020-10-31T00:34:27.317</time></trkpt><trkpt lat="55.6526020" lon="38.1808670"><time>2020-10-31T00:34:33.293</time></trkpt><trkpt lat="55.6525830" lon="38.1809520"><time>2020-10-31T00:34:37.320</time></trkpt><trkpt lat="55.6525550" lon="38.1810150"><time>2020-10-31T00:34:40.317</time></trkpt><trkpt lat="55.6525250" lon="38.1810970"><time>2020-10-31T00:34:43.310</time></trkpt><trkpt lat="55.6525020" lon="38.1812000"><time>2020-10-31T00:34:46.320</time></trkpt><trkpt lat="55.6525050" lon="38.1813000"><time>2020-10-31T00:34:49.323</time></trkpt><trkpt lat="55.6525530" lon="38.1813720"><time>2020-10-31T00:34:53.313</time></trkpt><trkpt lat="55.6525620" lon="38.1814780"><time>2020-10-31T00:34:56.317</time></trkpt><trkpt lat="55.6525220" lon="38.1815380"><time>2020-10-31T00:35:01.317</time></trkpt><trkpt lat="55.6524850" lon="38.1815880"><time>2020-10-31T00:35:03.317</time></trkpt><trkpt lat="55.6524600" lon="38.1816850"><time>2020-10-31T00:35:06.313</time></trkpt><trkpt lat="55.6524200" lon="38.1817470"><time>2020-10-31T00:35:08.303</time></trkpt><trkpt lat="55.6523820" lon="38.1818070"><time>2020-10-31T00:35:10.313</time></trkpt><trkpt lat="55.6523380" lon="38.1818630"><time>2020-10-31T00:35:12.317</time></trkpt><trkpt lat="55.6523070" lon="38.1819520"><time>2020-10-31T00:35:15.320</time></trkpt><trkpt lat="55.6522720" lon="38.1820280"><time>2020-10-31T00:35:19.317</time></trkpt><trkpt lat="55.6522420" lon="38.1821250"><time>2020-10-31T00:35:22.317</time></trkpt><trkpt lat="55.6522270" lon="38.1822330"><time>2020-10-31T00:35:27.313</time></trkpt><trkpt lat="55.6521970" lon="38.1823400"><time>2020-10-31T00:35:31.317</time></trkpt><trkpt lat="55.6521700" lon="38.1824330"><time>2020-10-31T00:35:35.323</time></trkpt><trkpt lat="55.6521400" lon="38.1825380"><time>2020-10-31T00:35:38.317</time></trkpt><trkpt lat="55.6521230" lon="38.1826230"><time>2020-10-31T00:35:41.317</time></trkpt><trkpt lat="55.6521230" lon="38.1827100"><time>2020-10-31T00:35:43.320</time></trkpt><trkpt lat="55.6521030" lon="38.1827880"><time>2020-10-31T00:35:45.313</time></trkpt><trkpt lat="55.6520870" lon="38.1829020"><time>2020-10-31T00:35:47.317</time></trkpt><trkpt lat="55.6520570" lon="38.1829800"><time>2020-10-31T00:35:49.320</time></trkpt><trkpt lat="55.6520230" lon="38.1830780"><time>2020-10-31T00:35:51.317</time></trkpt><trkpt lat="55.6520080" lon="38.1831620"><time>2020-10-31T00:35:54.313</time></trkpt><trkpt lat="55.6519670" lon="38.1832530"><time>2020-10-31T00:35:56.317</time></trkpt><trkpt lat="55.6519200" lon="38.1833550"><time>2020-10-31T00:35:58.313</time></trkpt><trkpt lat="55.6518700" lon="38.1834300"><time>2020-10-31T00:36:01.317</time></trkpt><trkpt lat="55.6518270" lon="38.1835030"><time>2020-10-31T00:36:03.320</time></trkpt><trkpt lat="55.6517670" lon="38.1835970"><time>2020-10-31T00:36:06.323</time></trkpt><trkpt lat="55.6517370" lon="38.1836750"><time>2020-10-31T00:36:09.317</time></trkpt><trkpt lat="55.6517030" lon="38.1837480"><time>2020-10-31T00:36:12.317</time></trkpt><trkpt lat="55.6516800" lon="38.1838480"><time>2020-10-31T00:36:14.317</time></trkpt><trkpt lat="55.6516620" lon="38.1839320"><time>2020-10-31T00:36:16.317</time></trkpt><trkpt lat="55.6516420" lon="38.1840100"><time>2020-10-31T00:36:18.317</time></trkpt><trkpt lat="55.6516230" lon="38.1840970"><time>2020-10-31T00:36:20.317</time></trkpt><trkpt lat="55.6516030" lon="38.1841970"><time>2020-10-31T00:36:22.323</time></trkpt><trkpt lat="55.6515620" lon="38.1842800"><time>2020-10-31T00:36:24.323</time></trkpt><trkpt lat="55.6515180" lon="38.1843820"><time>2020-10-31T00:36:27.317</time></trkpt><trkpt lat="55.6515120" lon="38.1844620"><time>2020-10-31T00:36:29.317</time></trkpt><trkpt lat="55.6514770" lon="38.1845430"><time>2020-10-31T00:36:31.323</time></trkpt><trkpt lat="55.6514270" lon="38.1845970"><time>2020-10-31T00:36:34.317</time></trkpt><trkpt lat="55.6513830" lon="38.1846530"><time>2020-10-31T00:36:36.320</time></trkpt><trkpt lat="55.6513380" lon="38.1847480"><time>2020-10-31T00:36:39.313</time></trkpt><trkpt lat="55.6512700" lon="38.1848700"><time>2020-10-31T00:36:42.317</time></trkpt><trkpt lat="55.6512130" lon="38.1849830"><time>2020-10-31T00:36:44.317</time></trkpt><trkpt lat="55.6511570" lon="38.1850720"><time>2020-10-31T00:36:46.317</time></trkpt><trkpt lat="55.6510930" lon="38.1851800"><time>2020-10-31T00:36:48.317</time></trkpt><trkpt lat="55.6510580" lon="38.1852320"><time>2020-10-31T00:36:49.320</time></trkpt><trkpt lat="55.6510230" lon="38.1852830"><time>2020-10-31T00:36:50.317</time></trkpt><trkpt lat="55.6509620" lon="38.1853800"><time>2020-10-31T00:36:52.323</time></trkpt><trkpt lat="55.6509270" lon="38.1854670"><time>2020-10-31T00:36:54.317</time></trkpt><trkpt lat="55.6508650" lon="38.1855980"><time>2020-10-31T00:36:56.317</time></trkpt><trkpt lat="55.6508350" lon="38.1856670"><time>2020-10-31T00:36:57.320</time></trkpt><trkpt lat="55.6507950" lon="38.1857330"><time>2020-10-31T00:36:58.323</time></trkpt><trkpt lat="55.6507550" lon="38.1857950"><time>2020-10-31T00:36:59.317</time></trkpt><trkpt lat="55.6507230" lon="38.1858630"><time>2020-10-31T00:37:00.320</time></trkpt><trkpt lat="55.6506920" lon="38.1859700"><time>2020-10-31T00:37:02.317</time></trkpt><trkpt lat="55.6506430" lon="38.1860650"><time>2020-10-31T00:37:04.317</time></trkpt><trkpt lat="55.6506030" lon="38.1861800"><time>2020-10-31T00:37:06.317</time></trkpt><trkpt lat="55.6505720" lon="38.1862730"><time>2020-10-31T00:37:08.317</time></trkpt><trkpt lat="55.6505500" lon="38.1863530"><time>2020-10-31T00:37:10.320</time></trkpt><trkpt lat="55.6505220" lon="38.1864800"><time>2020-10-31T00:37:12.323</time></trkpt><trkpt lat="55.6504850" lon="38.1865880"><time>2020-10-31T00:37:14.320</time></trkpt><trkpt lat="55.6504550" lon="38.1867170"><time>2020-10-31T00:37:17.320</time></trkpt><trkpt lat="55.6504270" lon="38.1868020"><time>2020-10-31T00:37:19.327</time></trkpt><trkpt lat="55.6503980" lon="38.1869080"><time>2020-10-31T00:37:21.317</time></trkpt><trkpt lat="55.6503680" lon="38.1870050"><time>2020-10-31T00:37:23.317</time></trkpt><trkpt lat="55.6503200" lon="38.1871080"><time>2020-10-31T00:37:25.327</time></trkpt><trkpt lat="55.6502630" lon="38.1872080"><time>2020-10-31T00:37:27.320</time></trkpt><trkpt lat="55.6502120" lon="38.1873020"><time>2020-10-31T00:37:29.317</time></trkpt><trkpt lat="55.6501580" lon="38.1874050"><time>2020-10-31T00:37:31.317</time></trkpt><trkpt lat="55.6501200" lon="38.1874980"><time>2020-10-31T00:37:33.317</time></trkpt><trkpt lat="55.6500750" lon="38.1876000"><time>2020-10-31T00:37:35.327</time></trkpt><trkpt lat="55.6500550" lon="38.1876770"><time>2020-10-31T00:37:37.323</time></trkpt><trkpt lat="55.6500270" lon="38.1877800"><time>2020-10-31T00:37:40.293</time></trkpt><trkpt lat="55.6500020" lon="38.1878830"><time>2020-10-31T00:37:43.317</time></trkpt><trkpt lat="55.6499750" lon="38.1879830"><time>2020-10-31T00:37:46.317</time></trkpt><trkpt lat="55.6499650" lon="38.1880670"><time>2020-10-31T00:37:48.317</time></trkpt><trkpt lat="55.6499580" lon="38.1881520"><time>2020-10-31T00:37:53.317</time></trkpt><trkpt lat="55.6499850" lon="38.1883120"><time>2020-10-31T00:37:59.320</time></trkpt><trkpt lat="55.6499920" lon="38.1884130"><time>2020-10-31T00:38:02.320</time></trkpt><trkpt lat="55.6500050" lon="38.1884920"><time>2020-10-31T00:38:05.320</time></trkpt><trkpt lat="55.6500380" lon="38.1885650"><time>2020-10-31T00:38:09.320</time></trkpt><trkpt lat="55.6500750" lon="38.1886250"><time>2020-10-31T00:38:12.323</time></trkpt><trkpt lat="55.6501020" lon="38.1887000"><time>2020-10-31T00:38:15.323</time></trkpt><trkpt lat="55.6501450" lon="38.1887470"><time>2020-10-31T00:38:18.320</time></trkpt><trkpt lat="55.6501530" lon="38.1888280"><time>2020-10-31T00:38:20.320</time></trkpt><trkpt lat="55.6501950" lon="38.1888870"><time>2020-10-31T00:38:23.323</time></trkpt><trkpt lat="55.6502330" lon="38.1889280"><time>2020-10-31T00:38:26.323</time></trkpt><trkpt lat="55.6502670" lon="38.1889830"><time>2020-10-31T00:38:29.323</time></trkpt><trkpt lat="55.6502800" lon="38.1891000"><time>2020-10-31T00:38:32.323</time></trkpt><trkpt lat="55.6502900" lon="38.1891850"><time>2020-10-31T00:38:34.323</time></trkpt><trkpt lat="55.6503170" lon="38.1892530"><time>2020-10-31T00:38:36.327</time></trkpt><trkpt lat="55.6503450" lon="38.1893200"><time>2020-10-31T00:38:38.323</time></trkpt><trkpt lat="55.6503850" lon="38.1893630"><time>2020-10-31T00:38:40.323</time></trkpt><trkpt lat="55.6504220" lon="38.1894100"><time>2020-10-31T00:38:43.327</time></trkpt><trkpt lat="55.6504580" lon="38.1894570"><time>2020-10-31T00:38:46.320</time></trkpt><trkpt lat="55.6505150" lon="38.1894930"><time>2020-10-31T00:38:49.320</time></trkpt><trkpt lat="55.6505570" lon="38.1895270"><time>2020-10-31T00:38:51.320</time></trkpt><trkpt lat="55.6506080" lon="38.1895920"><time>2020-10-31T00:38:54.317</time></trkpt><trkpt lat="55.6506420" lon="38.1896600"><time>2020-10-31T00:38:58.320</time></trkpt><trkpt lat="55.6506730" lon="38.1897220"><time>2020-10-31T00:39:01.323</time></trkpt><trkpt lat="55.6507150" lon="38.1897750"><time>2020-10-31T00:39:05.323</time></trkpt><trkpt lat="55.6507770" lon="38.1898030"><time>2020-10-31T00:39:08.320</time></trkpt><trkpt lat="55.6508230" lon="38.1898630"><time>2020-10-31T00:39:11.320</time></trkpt><trkpt lat="55.6508500" lon="38.1899350"><time>2020-10-31T00:39:14.323</time></trkpt><trkpt lat="55.6508850" lon="38.1899950"><time>2020-10-31T00:39:17.323</time></trkpt><trkpt lat="55.6509420" lon="38.1900580"><time>2020-10-31T00:39:21.320</time></trkpt><trkpt lat="55.6509680" lon="38.1901330"><time>2020-10-31T00:39:24.320</time></trkpt><trkpt lat="55.6510170" lon="38.1901900"><time>2020-10-31T00:39:27.320</time></trkpt><trkpt lat="55.6510670" lon="38.1902130"><time>2020-10-31T00:39:29.323</time></trkpt><trkpt lat="55.6511400" lon="38.1902350"><time>2020-10-31T00:39:31.320</time></trkpt><trkpt lat="55.6511670" lon="38.1903080"><time>2020-10-31T00:39:36.320</time></trkpt><trkpt lat="55.6511620" lon="38.1903930"><time>2020-10-31T00:39:44.317</time></trkpt><trkpt lat="55.6512230" lon="38.1904230"><time>2020-10-31T00:39:48.327</time></trkpt><trkpt lat="55.6512680" lon="38.1904700"><time>2020-10-31T00:39:50.320</time></trkpt><trkpt lat="55.6513270" lon="38.1905180"><time>2020-10-31T00:39:54.320</time></trkpt><trkpt lat="55.6513600" lon="38.1906170"><time>2020-10-31T00:39:57.317</time></trkpt><trkpt lat="55.6513630" lon="38.1907200"><time>2020-10-31T00:40:00.317</time></trkpt><trkpt lat="55.6513780" lon="38.1908220"><time>2020-10-31T00:40:02.320</time></trkpt><trkpt lat="55.6514230" lon="38.1909070"><time>2020-10-31T00:40:04.317</time></trkpt><trkpt lat="55.6514680" lon="38.1909280"><time>2020-10-31T00:40:05.320</time></trkpt><trkpt lat="55.6515520" lon="38.1910100"><time>2020-10-31T00:40:07.323</time></trkpt><trkpt lat="55.6515900" lon="38.1910820"><time>2020-10-31T00:40:09.323</time></trkpt><trkpt lat="55.6515970" lon="38.1911980"><time>2020-10-31T00:40:11.320</time></trkpt><trkpt lat="55.6516170" lon="38.1912830"><time>2020-10-31T00:40:13.323</time></trkpt><trkpt lat="55.6516220" lon="38.1914030"><time>2020-10-31T00:40:15.327</time></trkpt><trkpt lat="55.6516570" lon="38.1914580"><time>2020-10-31T00:40:18.317</time></trkpt><trkpt lat="55.6516700" lon="38.1915530"><time>2020-10-31T00:40:21.320</time></trkpt><trkpt lat="55.6516900" lon="38.1916300"><time>2020-10-31T00:40:24.320</time></trkpt><trkpt lat="55.6517180" lon="38.1917180"><time>2020-10-31T00:40:27.320</time></trkpt><trkpt lat="55.6517470" lon="38.1918030"><time>2020-10-31T00:40:31.320</time></trkpt><trkpt lat="55.6517620" lon="38.1918780"><time>2020-10-31T00:40:34.320</time></trkpt><trkpt lat="55.6517900" lon="38.1919450"><time>2020-10-31T00:40:37.323</time></trkpt><trkpt lat="55.6518070" lon="38.1920280"><time>2020-10-31T00:40:40.320</time></trkpt><trkpt lat="55.6518370" lon="38.1920980"><time>2020-10-31T00:40:43.320</time></trkpt><trkpt lat="55.6519030" lon="38.1923080"><time>2020-10-31T00:40:54.320</time></trkpt><trkpt lat="55.6519820" lon="38.1924080"><time>2020-10-31T00:41:00.320</time></trkpt><trkpt lat="55.6520270" lon="38.1924250"><time>2020-10-31T00:41:05.320</time></trkpt><trkpt lat="55.6520980" lon="38.1924930"><time>2020-10-31T00:41:08.320</time></trkpt><trkpt lat="55.6521400" lon="38.1925330"><time>2020-10-31T00:41:11.317</time></trkpt><trkpt lat="55.6521850" lon="38.1925370"><time>2020-10-31T00:41:13.320</time></trkpt><trkpt lat="55.6522920" lon="38.1925720"><time>2020-10-31T00:41:15.317</time></trkpt><trkpt lat="55.6523470" lon="38.1926220"><time>2020-10-31T00:41:16.320</time></trkpt><trkpt lat="55.6523770" lon="38.1927150"><time>2020-10-31T00:41:18.320</time></trkpt><trkpt lat="55.6524100" lon="38.1927850"><time>2020-10-31T00:41:20.317</time></trkpt><trkpt lat="55.6524770" lon="38.1928380"><time>2020-10-31T00:41:22.317</time></trkpt><trkpt lat="55.6525380" lon="38.1928780"><time>2020-10-31T00:41:24.323</time></trkpt><trkpt lat="55.6525870" lon="38.1929520"><time>2020-10-31T00:41:26.287</time></trkpt><trkpt lat="55.6526020" lon="38.1930380"><time>2020-10-31T00:41:28.277</time></trkpt><trkpt lat="55.6526020" lon="38.1931470"><time>2020-10-31T00:41:31.290</time></trkpt><trkpt lat="55.6526320" lon="38.1932350"><time>2020-10-31T00:41:33.323</time></trkpt><trkpt lat="55.6526850" lon="38.1932830"><time>2020-10-31T00:41:35.320</time></trkpt><trkpt lat="55.6527830" lon="38.1932950"><time>2020-10-31T00:41:37.323</time></trkpt><trkpt lat="55.6528570" lon="38.1933380"><time>2020-10-31T00:41:38.320</time></trkpt><trkpt lat="55.6529250" lon="38.1934220"><time>2020-10-31T00:41:40.323</time></trkpt><trkpt lat="55.6529580" lon="38.1934870"><time>2020-10-31T00:41:42.320</time></trkpt><trkpt lat="55.6529930" lon="38.1935780"><time>2020-10-31T00:41:45.317</time></trkpt><trkpt lat="55.6530120" lon="38.1936850"><time>2020-10-31T00:41:49.320</time></trkpt><trkpt lat="55.6530400" lon="38.1937630"><time>2020-10-31T00:41:52.323</time></trkpt><trkpt lat="55.6530720" lon="38.1938200"><time>2020-10-31T00:41:55.403</time></trkpt><trkpt lat="55.6530980" lon="38.1938970"><time>2020-10-31T00:41:58.327</time></trkpt><trkpt lat="55.6531200" lon="38.1939870"><time>2020-10-31T00:42:01.320</time></trkpt><trkpt lat="55.6531400" lon="38.1940870"><time>2020-10-31T00:42:05.317</time></trkpt><trkpt lat="55.6531820" lon="38.1941180"><time>2020-10-31T00:42:09.317</time></trkpt><trkpt lat="55.6532330" lon="38.1941550"><time>2020-10-31T00:42:12.320</time></trkpt><trkpt lat="55.6532820" lon="38.1942050"><time>2020-10-31T00:42:14.323</time></trkpt><trkpt lat="55.6533450" lon="38.1942500"><time>2020-10-31T00:42:17.320</time></trkpt><trkpt lat="55.6533870" lon="38.1942800"><time>2020-10-31T00:42:18.320</time></trkpt><trkpt lat="55.6534280" lon="38.1943270"><time>2020-10-31T00:42:22.323</time></trkpt><trkpt lat="55.6534570" lon="38.1943970"><time>2020-10-31T00:42:26.323</time></trkpt><trkpt lat="55.6535220" lon="38.1944080"><time>2020-10-31T00:42:28.317</time></trkpt><trkpt lat="55.6535900" lon="38.1944070"><time>2020-10-31T00:42:30.327</time></trkpt><trkpt lat="55.6536630" lon="38.1943920"><time>2020-10-31T00:42:33.320</time></trkpt><trkpt lat="55.6538300" lon="38.1944130"><time>2020-10-31T00:42:35.320</time></trkpt><trkpt lat="55.6538970" lon="38.1944280"><time>2020-10-31T00:42:36.320</time></trkpt><trkpt lat="55.6539630" lon="38.1944600"><time>2020-10-31T00:42:37.320</time></trkpt><trkpt lat="55.6540220" lon="38.1944980"><time>2020-10-31T00:42:40.320</time></trkpt><trkpt lat="55.6540900" lon="38.1945520"><time>2020-10-31T00:42:42.320</time></trkpt><trkpt lat="55.6541180" lon="38.1946130"><time>2020-10-31T00:42:44.320</time></trkpt><trkpt lat="55.6541550" lon="38.1946820"><time>2020-10-31T00:42:46.323</time></trkpt><trkpt lat="55.6542050" lon="38.1947330"><time>2020-10-31T00:42:49.317</time></trkpt><trkpt lat="55.6542520" lon="38.1947920"><time>2020-10-31T00:42:51.320</time></trkpt><trkpt lat="55.6542930" lon="38.1948280"><time>2020-10-31T00:42:53.317</time></trkpt><trkpt lat="55.6543530" lon="38.1948780"><time>2020-10-31T00:42:55.320</time></trkpt><trkpt lat="55.6544180" lon="38.1949170"><time>2020-10-31T00:43:00.340</time></trkpt><trkpt lat="55.6544620" lon="38.1949530"><time>2020-10-31T00:43:02.320</time></trkpt><trkpt lat="55.6545150" lon="38.1949900"><time>2020-10-31T00:43:05.320</time></trkpt><trkpt lat="55.6545650" lon="38.1950730"><time>2020-10-31T00:43:08.317</time></trkpt><trkpt lat="55.6546000" lon="38.1951370"><time>2020-10-31T00:43:10.313</time></trkpt><trkpt lat="55.6546200" lon="38.1952280"><time>2020-10-31T00:43:13.320</time></trkpt><trkpt lat="55.6546480" lon="38.1953320"><time>2020-10-31T00:43:16.320</time></trkpt><trkpt lat="55.6546830" lon="38.1954000"><time>2020-10-31T00:43:18.323</time></trkpt><trkpt lat="55.6547230" lon="38.1954550"><time>2020-10-31T00:43:20.323</time></trkpt><trkpt lat="55.6547650" lon="38.1955070"><time>2020-10-31T00:43:22.323</time></trkpt><trkpt lat="55.6548350" lon="38.1955700"><time>2020-10-31T00:43:25.317</time></trkpt><trkpt lat="55.6548750" lon="38.1956380"><time>2020-10-31T00:43:27.323</time></trkpt><trkpt lat="55.6548970" lon="38.1957280"><time>2020-10-31T00:43:29.323</time></trkpt><trkpt lat="55.6549320" lon="38.1958030"><time>2020-10-31T00:43:31.323</time></trkpt><trkpt lat="55.6549680" lon="38.1958580"><time>2020-10-31T00:43:33.317</time></trkpt><trkpt lat="55.6550230" lon="38.1959300"><time>2020-10-31T00:43:36.320</time></trkpt><trkpt lat="55.6550750" lon="38.1959620"><time>2020-10-31T00:43:38.320</time></trkpt><trkpt lat="55.6551270" lon="38.1960350"><time>2020-10-31T00:43:41.313</time></trkpt><trkpt lat="55.6551520" lon="38.1961300"><time>2020-10-31T00:43:44.323</time></trkpt><trkpt lat="55.6551920" lon="38.1962400"><time>2020-10-31T00:43:47.320</time></trkpt><trkpt lat="55.6552100" lon="38.1963470"><time>2020-10-31T00:43:49.323</time></trkpt><trkpt lat="55.6552670" lon="38.1964030"><time>2020-10-31T00:43:52.323</time></trkpt><trkpt lat="55.6553300" lon="38.1964450"><time>2020-10-31T00:43:54.320</time></trkpt><trkpt lat="55.6553850" lon="38.1965430"><time>2020-10-31T00:43:56.320</time></trkpt><trkpt lat="55.6554200" lon="38.1966100"><time>2020-10-31T00:43:58.320</time></trkpt><trkpt lat="55.6554520" lon="38.1966780"><time>2020-10-31T00:44:00.323</time></trkpt><trkpt lat="55.6554750" lon="38.1967550"><time>2020-10-31T00:44:02.320</time></trkpt><trkpt lat="55.6555180" lon="38.1968320"><time>2020-10-31T00:44:04.320</time></trkpt><trkpt lat="55.6555630" lon="38.1968330"><time>2020-10-31T00:44:05.320</time></trkpt><trkpt lat="55.6556200" lon="38.1968650"><time>2020-10-31T00:44:07.323</time></trkpt><trkpt lat="55.6556650" lon="38.1968720"><time>2020-10-31T00:44:09.320</time></trkpt><trkpt lat="55.6557150" lon="38.1968850"><time>2020-10-31T00:44:11.320</time></trkpt><trkpt lat="55.6557730" lon="38.1969070"><time>2020-10-31T00:44:14.317</time></trkpt><trkpt lat="55.6558220" lon="38.1969770"><time>2020-10-31T00:44:17.317</time></trkpt><trkpt lat="55.6558770" lon="38.1970520"><time>2020-10-31T00:44:19.323</time></trkpt><trkpt lat="55.6559180" lon="38.1971400"><time>2020-10-31T00:44:22.323</time></trkpt><trkpt lat="55.6559600" lon="38.1972280"><time>2020-10-31T00:44:25.320</time></trkpt><trkpt lat="55.6560050" lon="38.1972670"><time>2020-10-31T00:44:27.320</time></trkpt><trkpt lat="55.6560630" lon="38.1973050"><time>2020-10-31T00:44:29.320</time></trkpt><trkpt lat="55.6561220" lon="38.1973400"><time>2020-10-31T00:44:31.323</time></trkpt><trkpt lat="55.6562050" lon="38.1973600"><time>2020-10-31T00:44:33.317</time></trkpt><trkpt lat="55.6562780" lon="38.1973920"><time>2020-10-31T00:44:35.320</time></trkpt><trkpt lat="55.6563280" lon="38.1974350"><time>2020-10-31T00:44:37.323</time></trkpt><trkpt lat="55.6563880" lon="38.1975000"><time>2020-10-31T00:44:39.323</time></trkpt><trkpt lat="55.6564450" lon="38.1975300"><time>2020-10-31T00:44:41.317</time></trkpt><trkpt lat="55.6564920" lon="38.1976070"><time>2020-10-31T00:44:44.320</time></trkpt><trkpt lat="55.6565430" lon="38.1976570"><time>2020-10-31T00:44:47.320</time></trkpt><trkpt lat="55.6565780" lon="38.1977280"><time>2020-10-31T00:44:49.317</time></trkpt><trkpt lat="55.6566420" lon="38.1978130"><time>2020-10-31T00:44:52.323</time></trkpt><trkpt lat="55.6566880" lon="38.1978500"><time>2020-10-31T00:44:54.323</time></trkpt><trkpt lat="55.6567350" lon="38.1979120"><time>2020-10-31T00:44:57.317</time></trkpt><trkpt lat="55.6567630" lon="38.1980020"><time>2020-10-31T00:45:00.327</time></trkpt><trkpt lat="55.6567870" lon="38.1980980"><time>2020-10-31T00:45:03.293</time></trkpt><trkpt lat="55.6568270" lon="38.1981450"><time>2020-10-31T00:45:05.320</time></trkpt><trkpt lat="55.6568670" lon="38.1982050"><time>2020-10-31T00:45:07.317</time></trkpt><trkpt lat="55.6569220" lon="38.1982050"><time>2020-10-31T00:45:09.320</time></trkpt><trkpt lat="55.6569630" lon="38.1982520"><time>2020-10-31T00:45:13.323</time></trkpt><trkpt lat="55.6570250" lon="38.1982630"><time>2020-10-31T00:45:16.323</time></trkpt><trkpt lat="55.6570750" lon="38.1983100"><time>2020-10-31T00:45:19.320</time></trkpt><trkpt lat="55.6570930" lon="38.1983980"><time>2020-10-31T00:45:22.317</time></trkpt><trkpt lat="55.6571220" lon="38.1984730"><time>2020-10-31T00:45:25.323</time></trkpt><trkpt lat="55.6571570" lon="38.1985300"><time>2020-10-31T00:45:28.327</time></trkpt><trkpt lat="55.6571970" lon="38.1985700"><time>2020-10-31T00:45:30.320</time></trkpt><trkpt lat="55.6572470" lon="38.1986370"><time>2020-10-31T00:45:32.317</time></trkpt><trkpt lat="55.6572870" lon="38.1987220"><time>2020-10-31T00:45:35.320</time></trkpt><trkpt lat="55.6573280" lon="38.1987600"><time>2020-10-31T00:45:38.323</time></trkpt><trkpt lat="55.6573850" lon="38.1988150"><time>2020-10-31T00:45:41.317</time></trkpt><trkpt lat="55.6574270" lon="38.1988800"><time>2020-10-31T00:45:44.323</time></trkpt><trkpt lat="55.6574520" lon="38.1989670"><time>2020-10-31T00:45:47.320</time></trkpt><trkpt lat="55.6574830" lon="38.1990300"><time>2020-10-31T00:45:52.317</time></trkpt><trkpt lat="55.6575250" lon="38.1990920"><time>2020-10-31T00:45:55.317</time></trkpt><trkpt lat="55.6575950" lon="38.1991450"><time>2020-10-31T00:46:01.323</time></trkpt><trkpt lat="55.6576530" lon="38.1991170"><time>2020-10-31T00:46:02.320</time></trkpt><trkpt lat="55.6577000" lon="38.1991050"><time>2020-10-31T00:46:04.320</time></trkpt><trkpt lat="55.6577430" lon="38.1991450"><time>2020-10-31T00:46:10.317</time></trkpt><trkpt lat="55.6577830" lon="38.1990970"><time>2020-10-31T00:46:23.323</time></trkpt><trkpt lat="55.6578350" lon="38.1990750"><time>2020-10-31T00:46:31.317</time></trkpt><trkpt lat="55.6578900" lon="38.1990550"><time>2020-10-31T00:46:34.323</time></trkpt><trkpt lat="55.6579420" lon="38.1990100"><time>2020-10-31T00:46:37.323</time></trkpt><trkpt lat="55.6580070" lon="38.1990150"><time>2020-10-31T00:46:39.320</time></trkpt><trkpt lat="55.6580580" lon="38.1990350"><time>2020-10-31T00:46:44.323</time></trkpt><trkpt lat="55.6581050" lon="38.1989980"><time>2020-10-31T00:46:46.323</time></trkpt><trkpt lat="55.6581500" lon="38.1989450"><time>2020-10-31T00:46:48.320</time></trkpt><trkpt lat="55.6581980" lon="38.1989080"><time>2020-10-31T00:46:53.320</time></trkpt><trkpt lat="55.6582530" lon="38.1989220"><time>2020-10-31T00:46:54.320</time></trkpt><trkpt lat="55.6583180" lon="38.1989070"><time>2020-10-31T00:46:55.323</time></trkpt><trkpt lat="55.6583620" lon="38.1989680"><time>2020-10-31T00:47:01.323</time></trkpt><trkpt lat="55.6584200" lon="38.1990120"><time>2020-10-31T00:47:04.323</time></trkpt><trkpt lat="55.6584650" lon="38.1990330"><time>2020-10-31T00:47:07.317</time></trkpt><trkpt lat="55.6585070" lon="38.1990680"><time>2020-10-31T00:47:11.320</time></trkpt><trkpt lat="55.6585920" lon="38.1990450"><time>2020-10-31T00:47:14.320</time></trkpt><trkpt lat="55.6586350" lon="38.1990120"><time>2020-10-31T00:47:15.320</time></trkpt><trkpt lat="55.6586800" lon="38.1990280"><time>2020-10-31T00:47:20.320</time></trkpt><trkpt lat="55.6587370" lon="38.1990220"><time>2020-10-31T00:47:23.317</time></trkpt><trkpt lat="55.6587850" lon="38.1990350"><time>2020-10-31T00:47:27.317</time></trkpt><trkpt lat="55.6588270" lon="38.1990820"><time>2020-10-31T00:47:45.317</time></trkpt><trkpt lat="55.6588820" lon="38.1991150"><time>2020-10-31T00:47:49.327</time></trkpt><trkpt lat="55.6589300" lon="38.1991350"><time>2020-10-31T00:47:54.317</time></trkpt><trkpt lat="55.6589900" lon="38.1991000"><time>2020-10-31T00:47:57.320</time></trkpt><trkpt lat="55.6590380" lon="38.1990680"><time>2020-10-31T00:48:02.320</time></trkpt><trkpt lat="55.6591120" lon="38.1990150"><time>2020-10-31T00:48:05.317</time></trkpt><trkpt lat="55.6591620" lon="38.1989780"><time>2020-10-31T00:48:06.320</time></trkpt><trkpt lat="55.6592280" lon="38.1990150"><time>2020-10-31T00:48:07.327</time></trkpt><trkpt lat="55.6593650" lon="38.1989530"><time>2020-10-31T00:48:10.323</time></trkpt><trkpt lat="55.6593980" lon="38.1990220"><time>2020-10-31T00:48:13.317</time></trkpt><trkpt lat="55.6594580" lon="38.1990420"><time>2020-10-31T00:48:17.320</time></trkpt><trkpt lat="55.6595030" lon="38.1991050"><time>2020-10-31T00:48:19.320</time></trkpt><trkpt lat="55.6595650" lon="38.1991730"><time>2020-10-31T00:48:24.320</time></trkpt><trkpt lat="55.6596200" lon="38.1991630"><time>2020-10-31T00:48:28.320</time></trkpt><trkpt lat="55.6596700" lon="38.1992130"><time>2020-10-31T00:48:35.323</time></trkpt><trkpt lat="55.6596980" lon="38.1992900"><time>2020-10-31T00:48:43.320</time></trkpt><trkpt lat="55.6596720" lon="38.1993680"><time>2020-10-31T00:48:48.320</time></trkpt><trkpt lat="55.6596680" lon="38.1994570"><time>2020-10-31T00:48:51.317</time></trkpt><trkpt lat="55.6596130" lon="38.1995420"><time>2020-10-31T00:48:53.320</time></trkpt><trkpt lat="55.6595830" lon="38.1996070"><time>2020-10-31T00:48:56.320</time></trkpt><trkpt lat="55.6595650" lon="38.1996830"><time>2020-10-31T00:48:58.320</time></trkpt><trkpt lat="55.6595220" lon="38.1997700"><time>2020-10-31T00:49:01.320</time></trkpt><trkpt lat="55.6594630" lon="38.1998200"><time>2020-10-31T00:49:05.320</time></trkpt><trkpt lat="55.6594180" lon="38.1998300"><time>2020-10-31T00:49:10.320</time></trkpt><trkpt lat="55.6594020" lon="38.1999080"><time>2020-10-31T00:49:17.323</time></trkpt><trkpt lat="55.6593620" lon="38.1999930"><time>2020-10-31T00:49:21.327</time></trkpt><trkpt lat="55.6593170" lon="38.2000220"><time>2020-10-31T00:49:23.317</time></trkpt><trkpt lat="55.6593020" lon="38.2000980"><time>2020-10-31T00:49:27.320</time></trkpt><trkpt lat="55.6592630" lon="38.2001520"><time>2020-10-31T00:49:33.320</time></trkpt><trkpt lat="55.6592270" lon="38.2002370"><time>2020-10-31T00:49:36.317</time></trkpt><trkpt lat="55.6591950" lon="38.2003070"><time>2020-10-31T00:49:40.320</time></trkpt><trkpt lat="55.6591620" lon="38.2003800"><time>2020-10-31T00:49:43.327</time></trkpt><trkpt lat="55.6591400" lon="38.2004550"><time>2020-10-31T00:49:51.320</time></trkpt><trkpt lat="55.6591120" lon="38.2005230"><time>2020-10-31T00:49:53.317</time></trkpt><trkpt lat="55.6591200" lon="38.2006080"><time>2020-10-31T00:50:01.357</time></trkpt><trkpt lat="55.6591520" lon="38.2006970"><time>2020-10-31T00:50:04.323</time></trkpt><trkpt lat="55.6591830" lon="38.2007620"><time>2020-10-31T00:50:09.323</time></trkpt><trkpt lat="55.6591820" lon="38.2008470"><time>2020-10-31T00:50:13.323</time></trkpt><trkpt lat="55.6591280" lon="38.2008920"><time>2020-10-31T00:50:16.323</time></trkpt><trkpt lat="55.6590850" lon="38.2009250"><time>2020-10-31T00:50:18.327</time></trkpt><trkpt lat="55.6590820" lon="38.2010130"><time>2020-10-31T00:50:23.320</time></trkpt><trkpt lat="55.6590670" lon="38.2010920"><time>2020-10-31T00:50:25.317</time></trkpt><trkpt lat="55.6590530" lon="38.2011820"><time>2020-10-31T00:50:29.320</time></trkpt><trkpt lat="55.6590370" lon="38.2012570"><time>2020-10-31T00:50:32.320</time></trkpt><trkpt lat="55.6589950" lon="38.2013050"><time>2020-10-31T00:50:36.320</time></trkpt><trkpt lat="55.6589520" lon="38.2013670"><time>2020-10-31T00:50:40.323</time></trkpt><trkpt lat="55.6589230" lon="38.2014580"><time>2020-10-31T00:50:45.320</time></trkpt><trkpt lat="55.6589070" lon="38.2015450"><time>2020-10-31T00:50:47.317</time></trkpt><trkpt lat="55.6588830" lon="38.2016180"><time>2020-10-31T00:50:49.323</time></trkpt><trkpt lat="55.6588570" lon="38.2017130"><time>2020-10-31T00:50:54.320</time></trkpt><trkpt lat="55.6588180" lon="38.2018070"><time>2020-10-31T00:50:56.323</time></trkpt><trkpt lat="55.6587780" lon="38.2018680"><time>2020-10-31T00:50:59.317</time></trkpt><trkpt lat="55.6587430" lon="38.2019250"><time>2020-10-31T00:51:03.320</time></trkpt><trkpt lat="55.6587150" lon="38.2019880"><time>2020-10-31T00:51:05.317</time></trkpt><trkpt lat="55.6586770" lon="38.2020580"><time>2020-10-31T00:51:07.320</time></trkpt><trkpt lat="55.6586280" lon="38.2021050"><time>2020-10-31T00:51:09.323</time></trkpt><trkpt lat="55.6585830" lon="38.2021480"><time>2020-10-31T00:51:11.320</time></trkpt><trkpt lat="55.6585520" lon="38.2022180"><time>2020-10-31T00:51:13.323</time></trkpt><trkpt lat="55.6585320" lon="38.2023020"><time>2020-10-31T00:51:16.320</time></trkpt><trkpt lat="55.6584870" lon="38.2023420"><time>2020-10-31T00:51:21.323</time></trkpt><trkpt lat="55.6584300" lon="38.2024130"><time>2020-10-31T00:51:26.317</time></trkpt><trkpt lat="55.6584280" lon="38.2025030"><time>2020-10-31T00:51:40.320</time></trkpt><trkpt lat="55.6583900" lon="38.2025880"><time>2020-10-31T00:51:52.320</time></trkpt><trkpt lat="55.6583780" lon="38.2026830"><time>2020-10-31T00:52:02.323</time></trkpt><trkpt lat="55.6583750" lon="38.2027780"><time>2020-10-31T00:52:10.323</time></trkpt><trkpt lat="55.6583780" lon="38.2028670"><time>2020-10-31T00:52:14.320</time></trkpt><trkpt lat="55.6583730" lon="38.2029550"><time>2020-10-31T00:52:21.320</time></trkpt><trkpt lat="55.6583230" lon="38.2030270"><time>2020-10-31T00:52:24.667</time></trkpt><trkpt lat="55.6582630" lon="38.2031100"><time>2020-10-31T00:52:32.280</time></trkpt><trkpt lat="55.6582480" lon="38.2031520"><time>2020-10-31T00:52:33.797</time></trkpt><trkpt lat="55.6582980" lon="38.2031880"><time>2020-10-31T00:52:36.277</time></trkpt><trkpt lat="55.6583670" lon="38.2031870"><time>2020-10-31T00:52:38.270</time></trkpt><trkpt lat="55.6584220" lon="38.2030970"><time>2020-10-31T00:52:40.270</time></trkpt><trkpt lat="55.6584170" lon="38.2031770"><time>2020-10-31T00:52:46.273</time></trkpt><trkpt lat="55.6583750" lon="38.2032080"><time>2020-10-31T00:52:48.270</time></trkpt><trkpt lat="55.6583480" lon="38.2032770"><time>2020-10-31T00:52:55.270</time></trkpt><trkpt lat="55.6583550" lon="38.2033720"><time>2020-10-31T00:52:59.273</time></trkpt><trkpt lat="55.6583850" lon="38.2034320"><time>2020-10-31T00:53:02.313</time></trkpt><trkpt lat="55.6584580" lon="38.2034750"><time>2020-10-31T00:53:13.317</time></trkpt><trkpt lat="55.6584950" lon="38.2034220"><time>2020-10-31T00:53:25.323</time></trkpt><trkpt lat="55.6585400" lon="38.2034320"><time>2020-10-31T00:53:28.323</time></trkpt><trkpt lat="55.6585800" lon="38.2034880"><time>2020-10-31T00:53:35.327</time></trkpt><trkpt lat="55.6586280" lon="38.2035250"><time>2020-10-31T00:53:39.323</time></trkpt><trkpt lat="55.6586570" lon="38.2035930"><time>2020-10-31T00:53:42.323</time></trkpt><trkpt lat="55.6587050" lon="38.2036280"><time>2020-10-31T00:53:48.323</time></trkpt><trkpt lat="55.6587500" lon="38.2036580"><time>2020-10-31T00:53:51.320</time></trkpt><trkpt lat="55.6587970" lon="38.2036820"><time>2020-10-31T00:53:55.327</time></trkpt><trkpt lat="55.6588380" lon="38.2037370"><time>2020-10-31T00:54:01.323</time></trkpt><trkpt lat="55.6588600" lon="38.2038300"><time>2020-10-31T00:54:12.320</time></trkpt><trkpt lat="55.6588830" lon="38.2039000"><time>2020-10-31T00:54:17.353</time></trkpt><trkpt lat="55.6589330" lon="38.2038800"><time>2020-10-31T00:54:21.317</time></trkpt><trkpt lat="55.6589830" lon="38.2039500"><time>2020-10-31T00:54:26.323</time></trkpt><trkpt lat="55.6590300" lon="38.2039580"><time>2020-10-31T00:54:29.323</time></trkpt><trkpt lat="55.6590270" lon="38.2040380"><time>2020-10-31T00:54:33.323</time></trkpt><trkpt lat="55.6590500" lon="38.2041270"><time>2020-10-31T00:54:39.323</time></trkpt><trkpt lat="55.6590470" lon="38.2042150"><time>2020-10-31T00:54:43.317</time></trkpt><trkpt lat="55.6590480" lon="38.2042970"><time>2020-10-31T00:54:49.320</time></trkpt><trkpt lat="55.6590520" lon="38.2043920"><time>2020-10-31T00:54:52.323</time></trkpt><trkpt lat="55.6590050" lon="38.2044850"><time>2020-10-31T00:54:54.320</time></trkpt><trkpt lat="55.6589570" lon="38.2045720"><time>2020-10-31T00:54:56.323</time></trkpt><trkpt lat="55.6589580" lon="38.2046620"><time>2020-10-31T00:54:59.320</time></trkpt><trkpt lat="55.6589330" lon="38.2047320"><time>2020-10-31T00:55:05.323</time></trkpt><trkpt lat="55.6589320" lon="38.2048130"><time>2020-10-31T00:55:10.323</time></trkpt><trkpt lat="55.6589180" lon="38.2048950"><time>2020-10-31T00:55:15.327</time></trkpt><trkpt lat="55.6589170" lon="38.2049900"><time>2020-10-31T00:55:21.320</time></trkpt><trkpt lat="55.6589520" lon="38.2050600"><time>2020-10-31T00:55:26.320</time></trkpt><trkpt lat="55.6589970" lon="38.2050970"><time>2020-10-31T00:55:30.323</time></trkpt><trkpt lat="55.6590170" lon="38.2051800"><time>2020-10-31T00:55:36.327</time></trkpt><trkpt lat="55.6590620" lon="38.2051600"><time>2020-10-31T00:55:47.323</time></trkpt><trkpt lat="55.6591320" lon="38.2050980"><time>2020-10-31T00:55:53.317</time></trkpt><trkpt lat="55.6591880" lon="38.2052280"><time>2020-10-31T00:56:04.323</time></trkpt><trkpt lat="55.6592300" lon="38.2052730"><time>2020-10-31T00:56:08.320</time></trkpt><trkpt lat="55.6592600" lon="38.2053500"><time>2020-10-31T00:56:13.323</time></trkpt><trkpt lat="55.6592550" lon="38.2054370"><time>2020-10-31T00:56:16.317</time></trkpt><trkpt lat="55.6592280" lon="38.2055170"><time>2020-10-31T00:56:18.323</time></trkpt><trkpt lat="55.6591880" lon="38.2055770"><time>2020-10-31T00:56:23.320</time></trkpt><trkpt lat="55.6591500" lon="38.2056200"><time>2020-10-31T00:56:28.317</time></trkpt><trkpt lat="55.6590950" lon="38.2056450"><time>2020-10-31T00:56:34.320</time></trkpt><trkpt lat="55.6590470" lon="38.2056620"><time>2020-10-31T00:56:37.323</time></trkpt><trkpt lat="55.6590070" lon="38.2057220"><time>2020-10-31T00:56:43.287</time></trkpt><trkpt lat="55.6589730" lon="38.2057780"><time>2020-10-31T00:56:46.323</time></trkpt><trkpt lat="55.6589200" lon="38.2058800"><time>2020-10-31T00:56:49.323</time></trkpt><trkpt lat="55.6588850" lon="38.2059470"><time>2020-10-31T00:56:51.320</time></trkpt><trkpt lat="55.6588450" lon="38.2060100"><time>2020-10-31T00:56:54.327</time></trkpt><trkpt lat="55.6588120" lon="38.2060650"><time>2020-10-31T00:56:59.323</time></trkpt><trkpt lat="55.6587670" lon="38.2061400"><time>2020-10-31T00:57:03.320</time></trkpt><trkpt lat="55.6587200" lon="38.2061730"><time>2020-10-31T00:57:12.327</time></trkpt><trkpt lat="55.6586880" lon="38.2062480"><time>2020-10-31T00:57:19.323</time></trkpt><trkpt lat="55.6586430" lon="38.2062770"><time>2020-10-31T00:57:23.320</time></trkpt><trkpt lat="55.6586070" lon="38.2063300"><time>2020-10-31T00:57:27.327</time></trkpt><trkpt lat="55.6585630" lon="38.2063630"><time>2020-10-31T00:57:32.327</time></trkpt><trkpt lat="55.6585180" lon="38.2063750"><time>2020-10-31T00:57:36.323</time></trkpt><trkpt lat="55.6584750" lon="38.2064050"><time>2020-10-31T00:57:42.320</time></trkpt><trkpt lat="55.6584200" lon="38.2063230"><time>2020-10-31T00:57:44.320</time></trkpt><trkpt lat="55.6583730" lon="38.2062520"><time>2020-10-31T00:57:45.320</time></trkpt><trkpt lat="55.6583250" lon="38.2062820"><time>2020-10-31T00:57:50.323</time></trkpt><trkpt lat="55.6582320" lon="38.2063150"><time>2020-10-31T00:57:55.323</time></trkpt><trkpt lat="55.6581770" lon="38.2063520"><time>2020-10-31T00:57:57.323</time></trkpt><trkpt lat="55.6581430" lon="38.2064130"><time>2020-10-31T00:58:01.327</time></trkpt><trkpt lat="55.6581470" lon="38.2065080"><time>2020-10-31T00:58:08.323</time></trkpt><trkpt lat="55.6581300" lon="38.2066080"><time>2020-10-31T00:58:15.320</time></trkpt><trkpt lat="55.6581650" lon="38.2066700"><time>2020-10-31T00:58:22.323</time></trkpt><trkpt lat="55.6582080" lon="38.2067030"><time>2020-10-31T00:58:27.320</time></trkpt><trkpt lat="55.6582430" lon="38.2067850"><time>2020-10-31T00:58:32.323</time></trkpt><trkpt lat="55.6583030" lon="38.2068230"><time>2020-10-31T00:58:35.320</time></trkpt><trkpt lat="55.6583420" lon="38.2068800"><time>2020-10-31T00:58:38.320</time></trkpt><trkpt lat="55.6583920" lon="38.2069550"><time>2020-10-31T00:58:42.327</time></trkpt><trkpt lat="55.6584580" lon="38.2070250"><time>2020-10-31T00:58:45.320</time></trkpt><trkpt lat="55.6584680" lon="38.2071080"><time>2020-10-31T00:58:49.323</time></trkpt><trkpt lat="55.6584930" lon="38.2072070"><time>2020-10-31T00:58:56.323</time></trkpt><trkpt lat="55.6585250" lon="38.2072820"><time>2020-10-31T00:59:01.313</time></trkpt><trkpt lat="55.6585600" lon="38.2073520"><time>2020-10-31T00:59:04.320</time></trkpt><trkpt lat="55.6586050" lon="38.2074120"><time>2020-10-31T00:59:07.323</time></trkpt><trkpt lat="55.6586670" lon="38.2074330"><time>2020-10-31T00:59:11.323</time></trkpt><trkpt lat="55.6587070" lon="38.2074700"><time>2020-10-31T00:59:13.327</time></trkpt><trkpt lat="55.6587130" lon="38.2075700"><time>2020-10-31T00:59:15.323</time></trkpt><trkpt lat="55.6587580" lon="38.2075980"><time>2020-10-31T00:59:20.323</time></trkpt><trkpt lat="55.6588250" lon="38.2076120"><time>2020-10-31T00:59:23.323</time></trkpt><trkpt lat="55.6588730" lon="38.2076700"><time>2020-10-31T00:59:26.320</time></trkpt><trkpt lat="55.6589320" lon="38.2077120"><time>2020-10-31T00:59:28.323</time></trkpt><trkpt lat="55.6589700" lon="38.2078070"><time>2020-10-31T00:59:30.327</time></trkpt><trkpt lat="55.6590250" lon="38.2078700"><time>2020-10-31T00:59:33.323</time></trkpt><trkpt lat="55.6590550" lon="38.2079520"><time>2020-10-31T00:59:38.323</time></trkpt><trkpt lat="55.6591350" lon="38.2081030"><time>2020-10-31T00:59:41.327</time></trkpt><trkpt lat="55.6591730" lon="38.2081980"><time>2020-10-31T00:59:44.327</time></trkpt><trkpt lat="55.6592380" lon="38.2082130"><time>2020-10-31T00:59:46.310</time></trkpt><trkpt lat="55.6592950" lon="38.2082570"><time>2020-10-31T00:59:48.327</time></trkpt><trkpt lat="55.6593400" lon="38.2082870"><time>2020-10-31T00:59:50.327</time></trkpt><trkpt lat="55.6593800" lon="38.2083400"><time>2020-10-31T00:59:52.320</time></trkpt><trkpt lat="55.6594050" lon="38.2084180"><time>2020-10-31T00:59:54.323</time></trkpt><trkpt lat="55.6594420" lon="38.2085020"><time>2020-10-31T00:59:56.317</time></trkpt><trkpt lat="55.6594750" lon="38.2085950"><time>2020-10-31T00:59:59.317</time></trkpt><trkpt lat="55.6595250" lon="38.2086630"><time>2020-10-31T01:00:01.323</time></trkpt><trkpt lat="55.6595800" lon="38.2087300"><time>2020-10-31T01:00:03.327</time></trkpt><trkpt lat="55.6596250" lon="38.2088150"><time>2020-10-31T01:00:05.323</time></trkpt><trkpt lat="55.6596570" lon="38.2089130"><time>2020-10-31T01:00:07.327</time></trkpt><trkpt lat="55.6597130" lon="38.2089970"><time>2020-10-31T01:00:09.320</time></trkpt><trkpt lat="55.6597470" lon="38.2090770"><time>2020-10-31T01:00:11.327</time></trkpt><trkpt lat="55.6598000" lon="38.2091350"><time>2020-10-31T01:00:13.330</time></trkpt><trkpt lat="55.6598620" lon="38.2091780"><time>2020-10-31T01:00:15.320</time></trkpt><trkpt lat="55.6598980" lon="38.2092370"><time>2020-10-31T01:00:17.320</time></trkpt><trkpt lat="55.6599230" lon="38.2093230"><time>2020-10-31T01:00:19.323</time></trkpt><trkpt lat="55.6599770" lon="38.2094100"><time>2020-10-31T01:00:21.310</time></trkpt><trkpt lat="55.6600180" lon="38.2094720"><time>2020-10-31T01:00:23.320</time></trkpt><trkpt lat="55.6600620" lon="38.2095380"><time>2020-10-31T01:00:25.323</time></trkpt><trkpt lat="55.6601170" lon="38.2096320"><time>2020-10-31T01:00:28.317</time></trkpt><trkpt lat="55.6601630" lon="38.2096780"><time>2020-10-31T01:00:30.327</time></trkpt><trkpt lat="55.6601950" lon="38.2097580"><time>2020-10-31T01:00:32.327</time></trkpt><trkpt lat="55.6602220" lon="38.2098320"><time>2020-10-31T01:00:34.320</time></trkpt><trkpt lat="55.6602720" lon="38.2098870"><time>2020-10-31T01:00:37.327</time></trkpt><trkpt lat="55.6603080" lon="38.2099330"><time>2020-10-31T01:00:39.317</time></trkpt><trkpt lat="55.6603920" lon="38.2099480"><time>2020-10-31T01:00:41.323</time></trkpt><trkpt lat="55.6604470" lon="38.2099700"><time>2020-10-31T01:00:42.323</time></trkpt><trkpt lat="55.6605220" lon="38.2100280"><time>2020-10-31T01:00:44.323</time></trkpt><trkpt lat="55.6605720" lon="38.2100800"><time>2020-10-31T01:00:46.323</time></trkpt><trkpt lat="55.6606180" lon="38.2100720"><time>2020-10-31T01:01:01.323</time></trkpt><trkpt lat="55.6606500" lon="38.2101330"><time>2020-10-31T01:01:07.327</time></trkpt><trkpt lat="55.6606780" lon="38.2101970"><time>2020-10-31T01:01:12.327</time></trkpt><trkpt lat="55.6607070" lon="38.2102580"><time>2020-10-31T01:01:17.323</time></trkpt><trkpt lat="55.6607830" lon="38.2104200"><time>2020-10-31T01:01:41.320</time></trkpt><trkpt lat="55.6608320" lon="38.2104670"><time>2020-10-31T01:01:44.320</time></trkpt><trkpt lat="55.6608650" lon="38.2105220"><time>2020-10-31T01:01:47.320</time></trkpt><trkpt lat="55.6608930" lon="38.2106130"><time>2020-10-31T01:01:51.320</time></trkpt><trkpt lat="55.6609200" lon="38.2106930"><time>2020-10-31T01:01:55.297</time></trkpt><trkpt lat="55.6609400" lon="38.2107800"><time>2020-10-31T01:01:58.317</time></trkpt><trkpt lat="55.6609750" lon="38.2108550"><time>2020-10-31T01:02:02.317</time></trkpt><trkpt lat="55.6610250" lon="38.2109220"><time>2020-10-31T01:02:05.313</time></trkpt><trkpt lat="55.6610700" lon="38.2109780"><time>2020-10-31T01:02:08.323</time></trkpt><trkpt lat="55.6611050" lon="38.2110630"><time>2020-10-31T01:02:12.327</time></trkpt><trkpt lat="55.6611570" lon="38.2111330"><time>2020-10-31T01:02:15.323</time></trkpt><trkpt lat="55.6611970" lon="38.2111730"><time>2020-10-31T01:02:17.323</time></trkpt><trkpt lat="55.6612250" lon="38.2112420"><time>2020-10-31T01:02:19.327</time></trkpt><trkpt lat="55.6612580" lon="38.2113050"><time>2020-10-31T01:02:21.323</time></trkpt><trkpt lat="55.6612870" lon="38.2113750"><time>2020-10-31T01:02:23.323</time></trkpt><trkpt lat="55.6613350" lon="38.2114220"><time>2020-10-31T01:02:25.320</time></trkpt><trkpt lat="55.6613850" lon="38.2114720"><time>2020-10-31T01:02:27.323</time></trkpt><trkpt lat="55.6614380" lon="38.2115070"><time>2020-10-31T01:02:29.323</time></trkpt><trkpt lat="55.6614820" lon="38.2115530"><time>2020-10-31T01:02:31.320</time></trkpt><trkpt lat="55.6615470" lon="38.2116050"><time>2020-10-31T01:02:34.330</time></trkpt><trkpt lat="55.6615920" lon="38.2116520"><time>2020-10-31T01:02:36.323</time></trkpt><trkpt lat="55.6616380" lon="38.2117400"><time>2020-10-31T01:02:39.323</time></trkpt><trkpt lat="55.6616800" lon="38.2117930"><time>2020-10-31T01:02:43.323</time></trkpt><trkpt lat="55.6617230" lon="38.2118530"><time>2020-10-31T01:02:47.327</time></trkpt><trkpt lat="55.6617720" lon="38.2119270"><time>2020-10-31T01:02:50.323</time></trkpt><trkpt lat="55.6618020" lon="38.2120100"><time>2020-10-31T01:02:53.320</time></trkpt><trkpt lat="55.6618580" lon="38.2120500"><time>2020-10-31T01:02:56.323</time></trkpt><trkpt lat="55.6619180" lon="38.2120750"><time>2020-10-31T01:02:58.320</time></trkpt><trkpt lat="55.6619680" lon="38.2121380"><time>2020-10-31T01:03:01.320</time></trkpt><trkpt lat="55.6620100" lon="38.2121770"><time>2020-10-31T01:03:04.320</time></trkpt><trkpt lat="55.6620630" lon="38.2122130"><time>2020-10-31T01:03:07.323</time></trkpt><trkpt lat="55.6621180" lon="38.2122870"><time>2020-10-31T01:03:10.323</time></trkpt><trkpt lat="55.6621600" lon="38.2123320"><time>2020-10-31T01:03:12.323</time></trkpt><trkpt lat="55.6622120" lon="38.2123750"><time>2020-10-31T01:03:14.323</time></trkpt><trkpt lat="55.6622650" lon="38.2124070"><time>2020-10-31T01:03:16.323</time></trkpt><trkpt lat="55.6623030" lon="38.2124500"><time>2020-10-31T01:03:18.323</time></trkpt><trkpt lat="55.6623600" lon="38.2124970"><time>2020-10-31T01:03:20.327</time></trkpt><trkpt lat="55.6623950" lon="38.2125500"><time>2020-10-31T01:03:22.323</time></trkpt><trkpt lat="55.6624430" lon="38.2126250"><time>2020-10-31T01:03:25.323</time></trkpt><trkpt lat="55.6624750" lon="38.2126920"><time>2020-10-31T01:03:27.323</time></trkpt><trkpt lat="55.6625200" lon="38.2127380"><time>2020-10-31T01:03:29.330</time></trkpt><trkpt lat="55.6625600" lon="38.2127920"><time>2020-10-31T01:03:31.323</time></trkpt><trkpt lat="55.6626180" lon="38.2128350"><time>2020-10-31T01:03:33.327</time></trkpt><trkpt lat="55.6626630" lon="38.2128750"><time>2020-10-31T01:03:35.323</time></trkpt><trkpt lat="55.6627050" lon="38.2129230"><time>2020-10-31T01:03:37.320</time></trkpt><trkpt lat="55.6627520" lon="38.2129650"><time>2020-10-31T01:03:39.327</time></trkpt><trkpt lat="55.6628080" lon="38.2130080"><time>2020-10-31T01:03:41.327</time></trkpt><trkpt lat="55.6628750" lon="38.2130350"><time>2020-10-31T01:03:43.323</time></trkpt><trkpt lat="55.6629280" lon="38.2130850"><time>2020-10-31T01:03:45.323</time></trkpt><trkpt lat="55.6629700" lon="38.2131500"><time>2020-10-31T01:03:47.310</time></trkpt><trkpt lat="55.6630100" lon="38.2131870"><time>2020-10-31T01:03:49.320</time></trkpt><trkpt lat="55.6630550" lon="38.2132350"><time>2020-10-31T01:03:51.320</time></trkpt><trkpt lat="55.6631120" lon="38.2132780"><time>2020-10-31T01:03:54.323</time></trkpt><trkpt lat="55.6631480" lon="38.2133370"><time>2020-10-31T01:03:56.323</time></trkpt><trkpt lat="55.6631900" lon="38.2133780"><time>2020-10-31T01:03:58.327</time></trkpt><trkpt lat="55.6632300" lon="38.2134380"><time>2020-10-31T01:04:00.323</time></trkpt><trkpt lat="55.6632870" lon="38.2134820"><time>2020-10-31T01:04:03.327</time></trkpt><trkpt lat="55.6633230" lon="38.2135530"><time>2020-10-31T01:04:07.327</time></trkpt><trkpt lat="55.6633720" lon="38.2135800"><time>2020-10-31T01:04:09.323</time></trkpt><trkpt lat="55.6634080" lon="38.2136270"><time>2020-10-31T01:04:11.323</time></trkpt><trkpt lat="55.6634430" lon="38.2137170"><time>2020-10-31T01:04:15.323</time></trkpt><trkpt lat="55.6634880" lon="38.2137500"><time>2020-10-31T01:04:18.323</time></trkpt><trkpt lat="55.6635350" lon="38.2137700"><time>2020-10-31T01:04:22.327</time></trkpt><trkpt lat="55.6636430" lon="38.2138320"><time>2020-10-31T01:04:31.323</time></trkpt><trkpt lat="55.6636870" lon="38.2138900"><time>2020-10-31T01:04:34.327</time></trkpt><trkpt lat="55.6638550" lon="38.2149550"><time>2020-10-31T01:04:43.323</time></trkpt><trkpt lat="55.6638420" lon="38.2151320"><time>2020-10-31T01:04:44.323</time></trkpt><trkpt lat="55.6638070" lon="38.2152350"><time>2020-10-31T01:04:45.323</time></trkpt><trkpt lat="55.6637980" lon="38.2153330"><time>2020-10-31T01:04:46.323</time></trkpt><trkpt lat="55.6639070" lon="38.2154130"><time>2020-10-31T01:04:48.320</time></trkpt><trkpt lat="55.6640730" lon="38.2155030"><time>2020-10-31T01:04:49.323</time></trkpt><trkpt lat="55.6641220" lon="38.2155180"><time>2020-10-31T01:04:50.327</time></trkpt><trkpt lat="55.6641630" lon="38.2156000"><time>2020-10-31T01:04:51.320</time></trkpt><trkpt lat="55.6642880" lon="38.2155170"><time>2020-10-31T01:04:55.323</time></trkpt><trkpt lat="55.6643450" lon="38.2154670"><time>2020-10-31T01:04:57.317</time></trkpt><trkpt lat="55.6643530" lon="38.2155530"><time>2020-10-31T01:05:01.320</time></trkpt><trkpt lat="55.6644000" lon="38.2155980"><time>2020-10-31T01:05:11.320</time></trkpt><trkpt lat="55.6644070" lon="38.2157000"><time>2020-10-31T01:05:19.327</time></trkpt><trkpt lat="55.6643730" lon="38.2157750"><time>2020-10-31T01:05:23.323</time></trkpt><trkpt lat="55.6643270" lon="38.2158170"><time>2020-10-31T01:05:33.320</time></trkpt><trkpt lat="55.6642850" lon="38.2158520"><time>2020-10-31T01:05:39.317</time></trkpt><trkpt lat="55.6642380" lon="38.2158480"><time>2020-10-31T01:05:45.323</time></trkpt><trkpt lat="55.6641900" lon="38.2159070"><time>2020-10-31T01:05:50.327</time></trkpt><trkpt lat="55.6641450" lon="38.2159420"><time>2020-10-31T01:05:54.327</time></trkpt><trkpt lat="55.6641530" lon="38.2160200"><time>2020-10-31T01:06:02.330</time></trkpt><trkpt lat="55.6641470" lon="38.2161150"><time>2020-10-31T01:06:07.323</time></trkpt><trkpt lat="55.6641270" lon="38.2161880"><time>2020-10-31T01:06:11.327</time></trkpt><trkpt lat="55.6641320" lon="38.2162820"><time>2020-10-31T01:06:15.320</time></trkpt><trkpt lat="55.6641150" lon="38.2163670"><time>2020-10-31T01:06:19.323</time></trkpt><trkpt lat="55.6641280" lon="38.2164520"><time>2020-10-31T01:06:23.323</time></trkpt><trkpt lat="55.6641180" lon="38.2165480"><time>2020-10-31T01:06:26.327</time></trkpt><trkpt lat="55.6641300" lon="38.2166400"><time>2020-10-31T01:06:30.330</time></trkpt><trkpt lat="55.6641330" lon="38.2167230"><time>2020-10-31T01:06:33.320</time></trkpt><trkpt lat="55.6641150" lon="38.2168270"><time>2020-10-31T01:06:36.327</time></trkpt><trkpt lat="55.6641030" lon="38.2169070"><time>2020-10-31T01:06:39.327</time></trkpt><trkpt lat="55.6640970" lon="38.2170070"><time>2020-10-31T01:06:42.323</time></trkpt><trkpt lat="55.6640800" lon="38.2170830"><time>2020-10-31T01:06:44.323</time></trkpt><trkpt lat="55.6640830" lon="38.2171680"><time>2020-10-31T01:06:47.327</time></trkpt><trkpt lat="55.6640770" lon="38.2172780"><time>2020-10-31T01:06:50.327</time></trkpt><trkpt lat="55.6640630" lon="38.2173580"><time>2020-10-31T01:06:52.320</time></trkpt><trkpt lat="55.6640520" lon="38.2174370"><time>2020-10-31T01:06:54.323</time></trkpt><trkpt lat="55.6640620" lon="38.2175180"><time>2020-10-31T01:06:56.320</time></trkpt><trkpt lat="55.6640800" lon="38.2176070"><time>2020-10-31T01:06:59.327</time></trkpt><trkpt lat="55.6640850" lon="38.2176950"><time>2020-10-31T01:07:01.330</time></trkpt><trkpt lat="55.6640900" lon="38.2178000"><time>2020-10-31T01:07:04.323</time></trkpt><trkpt lat="55.6641100" lon="38.2179180"><time>2020-10-31T01:07:08.323</time></trkpt><trkpt lat="55.6641250" lon="38.2180000"><time>2020-10-31T01:07:11.297</time></trkpt><trkpt lat="55.6641320" lon="38.2181080"><time>2020-10-31T01:07:15.320</time></trkpt><trkpt lat="55.6641230" lon="38.2182020"><time>2020-10-31T01:07:18.323</time></trkpt><trkpt lat="55.6641170" lon="38.2182820"><time>2020-10-31T01:07:20.323</time></trkpt><trkpt lat="55.6641300" lon="38.2183580"><time>2020-10-31T01:07:23.323</time></trkpt><trkpt lat="55.6641320" lon="38.2184580"><time>2020-10-31T01:07:26.323</time></trkpt><trkpt lat="55.6641200" lon="38.2185730"><time>2020-10-31T01:07:29.323</time></trkpt><trkpt lat="55.6641130" lon="38.2186600"><time>2020-10-31T01:07:32.330</time></trkpt><trkpt lat="55.6640900" lon="38.2187520"><time>2020-10-31T01:07:35.323</time></trkpt><trkpt lat="55.6640920" lon="38.2188380"><time>2020-10-31T01:07:37.327</time></trkpt><trkpt lat="55.6640820" lon="38.2189380"><time>2020-10-31T01:07:40.297</time></trkpt><trkpt lat="55.6640720" lon="38.2190380"><time>2020-10-31T01:07:44.330</time></trkpt><trkpt lat="55.6640570" lon="38.2191150"><time>2020-10-31T01:07:47.323</time></trkpt><trkpt lat="55.6640420" lon="38.2192120"><time>2020-10-31T01:07:50.320</time></trkpt><trkpt lat="55.6640280" lon="38.2192980"><time>2020-10-31T01:07:53.323</time></trkpt><trkpt lat="55.6640250" lon="38.2193920"><time>2020-10-31T01:07:55.320</time></trkpt><trkpt lat="55.6640320" lon="38.2194950"><time>2020-10-31T01:07:58.323</time></trkpt><trkpt lat="55.6640120" lon="38.2195820"><time>2020-10-31T01:08:01.323</time></trkpt><trkpt lat="55.6640380" lon="38.2196530"><time>2020-10-31T01:08:04.300</time></trkpt><trkpt lat="55.6640400" lon="38.2197350"><time>2020-10-31T01:08:07.327</time></trkpt><trkpt lat="55.6640530" lon="38.2198120"><time>2020-10-31T01:08:10.333</time></trkpt><trkpt lat="55.6640250" lon="38.2198880"><time>2020-10-31T01:08:12.327</time></trkpt><trkpt lat="55.6639980" lon="38.2199730"><time>2020-10-31T01:08:14.323</time></trkpt><trkpt lat="55.6639770" lon="38.2200450"><time>2020-10-31T01:08:18.327</time></trkpt><trkpt lat="55.6639850" lon="38.2201280"><time>2020-10-31T01:08:21.320</time></trkpt><trkpt lat="55.6639720" lon="38.2202130"><time>2020-10-31T01:08:23.313</time></trkpt><trkpt lat="55.6639550" lon="38.2202920"><time>2020-10-31T01:08:25.323</time></trkpt><trkpt lat="55.6639580" lon="38.2204130"><time>2020-10-31T01:08:28.323</time></trkpt><trkpt lat="55.6639480" lon="38.2205100"><time>2020-10-31T01:08:30.320</time></trkpt><trkpt lat="55.6639300" lon="38.2205870"><time>2020-10-31T01:08:32.313</time></trkpt><trkpt lat="55.6639230" lon="38.2207050"><time>2020-10-31T01:08:35.327</time></trkpt><trkpt lat="55.6639130" lon="38.2207850"><time>2020-10-31T01:08:37.320</time></trkpt><trkpt lat="55.6639150" lon="38.2208880"><time>2020-10-31T01:08:40.320</time></trkpt><trkpt lat="55.6639100" lon="38.2210100"><time>2020-10-31T01:08:44.323</time></trkpt><trkpt lat="55.6639350" lon="38.2210780"><time>2020-10-31T01:08:48.297</time></trkpt><trkpt lat="55.6639670" lon="38.2211620"><time>2020-10-31T01:08:52.323</time></trkpt><trkpt lat="55.6639800" lon="38.2212400"><time>2020-10-31T01:08:54.330</time></trkpt><trkpt lat="55.6639850" lon="38.2213420"><time>2020-10-31T01:08:57.327</time></trkpt><trkpt lat="55.6639930" lon="38.2214400"><time>2020-10-31T01:09:01.323</time></trkpt><trkpt lat="55.6639930" lon="38.2215420"><time>2020-10-31T01:09:03.323</time></trkpt><trkpt lat="55.6640080" lon="38.2216300"><time>2020-10-31T01:09:05.327</time></trkpt><trkpt lat="55.6640220" lon="38.2217520"><time>2020-10-31T01:09:08.320</time></trkpt><trkpt lat="55.6640420" lon="38.2218800"><time>2020-10-31T01:09:11.323</time></trkpt><trkpt lat="55.6640550" lon="38.2219870"><time>2020-10-31T01:09:14.320</time></trkpt><trkpt lat="55.6640820" lon="38.2220870"><time>2020-10-31T01:09:16.323</time></trkpt><trkpt lat="55.6640830" lon="38.2221930"><time>2020-10-31T01:09:18.320</time></trkpt><trkpt lat="55.6640970" lon="38.2222850"><time>2020-10-31T01:09:20.330</time></trkpt><trkpt lat="55.6641200" lon="38.2223920"><time>2020-10-31T01:09:22.323</time></trkpt><trkpt lat="55.6641400" lon="38.2225070"><time>2020-10-31T01:09:24.323</time></trkpt><trkpt lat="55.6641530" lon="38.2226050"><time>2020-10-31T01:09:27.323</time></trkpt><trkpt lat="55.6641920" lon="38.2226670"><time>2020-10-31T01:09:29.320</time></trkpt><trkpt lat="55.6642270" lon="38.2227820"><time>2020-10-31T01:09:32.320</time></trkpt><trkpt lat="55.6642320" lon="38.2228750"><time>2020-10-31T01:09:34.283</time></trkpt><trkpt lat="55.6642470" lon="38.2229720"><time>2020-10-31T01:09:38.317</time></trkpt><trkpt lat="55.6642480" lon="38.2230830"><time>2020-10-31T01:09:41.327</time></trkpt><trkpt lat="55.6642580" lon="38.2231620"><time>2020-10-31T01:09:45.327</time></trkpt><trkpt lat="55.6642550" lon="38.2232420"><time>2020-10-31T01:09:48.327</time></trkpt><trkpt lat="55.6642480" lon="38.2233700"><time>2020-10-31T01:09:51.323</time></trkpt><trkpt lat="55.6642570" lon="38.2234620"><time>2020-10-31T01:09:54.323</time></trkpt><trkpt lat="55.6642620" lon="38.2235550"><time>2020-10-31T01:09:57.317</time></trkpt><trkpt lat="55.6642680" lon="38.2236370"><time>2020-10-31T01:10:00.323</time></trkpt><trkpt lat="55.6642670" lon="38.2237430"><time>2020-10-31T01:10:04.323</time></trkpt><trkpt lat="55.6642670" lon="38.2238350"><time>2020-10-31T01:10:07.320</time></trkpt><trkpt lat="55.6643100" lon="38.2239220"><time>2020-10-31T01:10:10.317</time></trkpt><trkpt lat="55.6643050" lon="38.2240120"><time>2020-10-31T01:10:12.320</time></trkpt><trkpt lat="55.6643080" lon="38.2241270"><time>2020-10-31T01:10:15.327</time></trkpt><trkpt lat="55.6642900" lon="38.2242170"><time>2020-10-31T01:10:17.327</time></trkpt><trkpt lat="55.6642470" lon="38.2243100"><time>2020-10-31T01:10:20.323</time></trkpt><trkpt lat="55.6642330" lon="38.2244080"><time>2020-10-31T01:10:24.323</time></trkpt><trkpt lat="55.6642600" lon="38.2245100"><time>2020-10-31T01:10:27.320</time></trkpt><trkpt lat="55.6642620" lon="38.2245930"><time>2020-10-31T01:10:30.327</time></trkpt><trkpt lat="55.6642650" lon="38.2246730"><time>2020-10-31T01:10:39.320</time></trkpt><trkpt lat="55.6642600" lon="38.2247570"><time>2020-10-31T01:10:44.327</time></trkpt><trkpt lat="55.6642720" lon="38.2248480"><time>2020-10-31T01:10:48.323</time></trkpt><trkpt lat="55.6642650" lon="38.2249370"><time>2020-10-31T01:10:52.323</time></trkpt><trkpt lat="55.6642470" lon="38.2250180"><time>2020-10-31T01:10:57.327</time></trkpt><trkpt lat="55.6642350" lon="38.2251320"><time>2020-10-31T01:11:01.320</time></trkpt><trkpt lat="55.6641970" lon="38.2251980"><time>2020-10-31T01:11:02.323</time></trkpt><trkpt lat="55.6641650" lon="38.2252850"><time>2020-10-31T01:11:04.327</time></trkpt><trkpt lat="55.6641750" lon="38.2253850"><time>2020-10-31T01:11:08.320</time></trkpt><trkpt lat="55.6641200" lon="38.2255880"><time>2020-10-31T01:11:11.327</time></trkpt><trkpt lat="55.6641050" lon="38.2257350"><time>2020-10-31T01:11:12.327</time></trkpt><trkpt lat="55.6640920" lon="38.2258380"><time>2020-10-31T01:11:13.327</time></trkpt><trkpt lat="55.6640900" lon="38.2259280"><time>2020-10-31T01:11:14.323</time></trkpt><trkpt lat="55.6640920" lon="38.2260180"><time>2020-10-31T01:11:18.327</time></trkpt><trkpt lat="55.6641430" lon="38.2260970"><time>2020-10-31T01:11:22.323</time></trkpt><trkpt lat="55.6641750" lon="38.2261720"><time>2020-10-31T01:11:26.327</time></trkpt><trkpt lat="55.6641750" lon="38.2262570"><time>2020-10-31T01:11:30.323</time></trkpt><trkpt lat="55.6641600" lon="38.2263480"><time>2020-10-31T01:11:33.323</time></trkpt><trkpt lat="55.6641870" lon="38.2264430"><time>2020-10-31T01:11:37.323</time></trkpt><trkpt lat="55.6642320" lon="38.2265080"><time>2020-10-31T01:11:39.327</time></trkpt><trkpt lat="55.6642450" lon="38.2266120"><time>2020-10-31T01:11:42.320</time></trkpt><trkpt lat="55.6642670" lon="38.2266920"><time>2020-10-31T01:11:44.317</time></trkpt><trkpt lat="55.6642520" lon="38.2267900"><time>2020-10-31T01:11:46.320</time></trkpt><trkpt lat="55.6642450" lon="38.2268980"><time>2020-10-31T01:11:49.283</time></trkpt><trkpt lat="55.6642630" lon="38.2269780"><time>2020-10-31T01:11:52.313</time></trkpt><trkpt lat="55.6642570" lon="38.2271100"><time>2020-10-31T01:11:56.323</time></trkpt><trkpt lat="55.6643030" lon="38.2271780"><time>2020-10-31T01:11:58.327</time></trkpt><trkpt lat="55.6643480" lon="38.2272820"><time>2020-10-31T01:12:00.323</time></trkpt><trkpt lat="55.6643880" lon="38.2273630"><time>2020-10-31T01:12:02.323</time></trkpt><trkpt lat="55.6643900" lon="38.2274700"><time>2020-10-31T01:12:04.323</time></trkpt><trkpt lat="55.6643920" lon="38.2275580"><time>2020-10-31T01:12:06.323</time></trkpt><trkpt lat="55.6643900" lon="38.2276800"><time>2020-10-31T01:12:08.327</time></trkpt><trkpt lat="55.6643750" lon="38.2277720"><time>2020-10-31T01:12:10.320</time></trkpt><trkpt lat="55.6643580" lon="38.2278700"><time>2020-10-31T01:12:13.323</time></trkpt><trkpt lat="55.6643530" lon="38.2279680"><time>2020-10-31T01:12:17.327</time></trkpt><trkpt lat="55.6643350" lon="38.2280650"><time>2020-10-31T01:12:19.323</time></trkpt><trkpt lat="55.6642970" lon="38.2282020"><time>2020-10-31T01:12:21.323</time></trkpt><trkpt lat="55.6642480" lon="38.2282520"><time>2020-10-31T01:12:23.323</time></trkpt><trkpt lat="55.6642070" lon="38.2283600"><time>2020-10-31T01:12:26.323</time></trkpt><trkpt lat="55.6641830" lon="38.2284300"><time>2020-10-31T01:12:27.323</time></trkpt><trkpt lat="55.6641420" lon="38.2285030"><time>2020-10-31T01:12:29.323</time></trkpt><trkpt lat="55.6640950" lon="38.2285950"><time>2020-10-31T01:12:31.323</time></trkpt><trkpt lat="55.6640670" lon="38.2286930"><time>2020-10-31T01:12:33.323</time></trkpt><trkpt lat="55.6640250" lon="38.2287580"><time>2020-10-31T01:12:36.327</time></trkpt><trkpt lat="55.6639650" lon="38.2288370"><time>2020-10-31T01:12:38.323</time></trkpt><trkpt lat="55.6639170" lon="38.2289080"><time>2020-10-31T01:12:40.327</time></trkpt><trkpt lat="55.6638680" lon="38.2289530"><time>2020-10-31T01:12:43.327</time></trkpt><trkpt lat="55.6638380" lon="38.2290220"><time>2020-10-31T01:12:45.327</time></trkpt><trkpt lat="55.6638020" lon="38.2290720"><time>2020-10-31T01:12:47.327</time></trkpt><trkpt lat="55.6637630" lon="38.2291270"><time>2020-10-31T01:12:49.323</time></trkpt><trkpt lat="55.6637370" lon="38.2292080"><time>2020-10-31T01:12:52.327</time></trkpt><trkpt lat="55.6637000" lon="38.2292880"><time>2020-10-31T01:12:55.323</time></trkpt><trkpt lat="55.6636750" lon="38.2293750"><time>2020-10-31T01:12:57.323</time></trkpt><trkpt lat="55.6636230" lon="38.2294180"><time>2020-10-31T01:13:00.330</time></trkpt><trkpt lat="55.6635770" lon="38.2294970"><time>2020-10-31T01:13:02.327</time></trkpt><trkpt lat="55.6635450" lon="38.2295800"><time>2020-10-31T01:13:04.317</time></trkpt><trkpt lat="55.6635270" lon="38.2296750"><time>2020-10-31T01:13:06.277</time></trkpt><trkpt lat="55.6634830" lon="38.2297300"><time>2020-10-31T01:13:08.323</time></trkpt><trkpt lat="55.6634670" lon="38.2298180"><time>2020-10-31T01:13:10.327</time></trkpt><trkpt lat="55.6634280" lon="38.2299000"><time>2020-10-31T01:13:12.323</time></trkpt><trkpt lat="55.6633980" lon="38.2300080"><time>2020-10-31T01:13:14.323</time></trkpt><trkpt lat="55.6633780" lon="38.2300830"><time>2020-10-31T01:13:15.323</time></trkpt><trkpt lat="55.6633520" lon="38.2301970"><time>2020-10-31T01:13:17.323</time></trkpt><trkpt lat="55.6633330" lon="38.2303180"><time>2020-10-31T01:13:19.330</time></trkpt><trkpt lat="55.6633230" lon="38.2304650"><time>2020-10-31T01:13:21.327</time></trkpt><trkpt lat="55.6633050" lon="38.2305420"><time>2020-10-31T01:13:23.327</time></trkpt><trkpt lat="55.6633000" lon="38.2306320"><time>2020-10-31T01:13:27.327</time></trkpt><trkpt lat="55.6632900" lon="38.2307270"><time>2020-10-31T01:13:30.327</time></trkpt><trkpt lat="55.6633020" lon="38.2308250"><time>2020-10-31T01:13:33.323</time></trkpt><trkpt lat="55.6633170" lon="38.2309420"><time>2020-10-31T01:13:35.323</time></trkpt><trkpt lat="55.6633150" lon="38.2310470"><time>2020-10-31T01:13:37.327</time></trkpt><trkpt lat="55.6633150" lon="38.2311270"><time>2020-10-31T01:13:39.323</time></trkpt><trkpt lat="55.6633000" lon="38.2312080"><time>2020-10-31T01:13:41.327</time></trkpt><trkpt lat="55.6632870" lon="38.2313020"><time>2020-10-31T01:13:44.303</time></trkpt><trkpt lat="55.6632970" lon="38.2314230"><time>2020-10-31T01:13:47.327</time></trkpt><trkpt lat="55.6632970" lon="38.2315500"><time>2020-10-31T01:13:50.323</time></trkpt><trkpt lat="55.6633000" lon="38.2316650"><time>2020-10-31T01:13:52.327</time></trkpt><trkpt lat="55.6633080" lon="38.2317670"><time>2020-10-31T01:13:54.327</time></trkpt><trkpt lat="55.6632980" lon="38.2318600"><time>2020-10-31T01:13:56.323</time></trkpt><trkpt lat="55.6632600" lon="38.2319030"><time>2020-10-31T01:14:07.327</time></trkpt><trkpt lat="55.6632250" lon="38.2319680"><time>2020-10-31T01:14:14.327</time></trkpt><trkpt lat="55.6631880" lon="38.2320230"><time>2020-10-31T01:14:18.323</time></trkpt><trkpt lat="55.6631400" lon="38.2320750"><time>2020-10-31T01:14:22.327</time></trkpt><trkpt lat="55.6630980" lon="38.2321180"><time>2020-10-31T01:14:25.327</time></trkpt><trkpt lat="55.6630520" lon="38.2321600"><time>2020-10-31T01:14:29.323</time></trkpt><trkpt lat="55.6630120" lon="38.2322300"><time>2020-10-31T01:14:31.323</time></trkpt><trkpt lat="55.6629500" lon="38.2322580"><time>2020-10-31T01:14:35.323</time></trkpt><trkpt lat="55.6628950" lon="38.2322470"><time>2020-10-31T01:14:38.327</time></trkpt><trkpt lat="55.6628420" lon="38.2322330"><time>2020-10-31T01:14:41.327</time></trkpt><trkpt lat="55.6627870" lon="38.2322670"><time>2020-10-31T01:14:43.323</time></trkpt><trkpt lat="55.6627430" lon="38.2323330"><time>2020-10-31T01:14:45.323</time></trkpt><trkpt lat="55.6626880" lon="38.2323930"><time>2020-10-31T01:14:47.327</time></trkpt><trkpt lat="55.6626350" lon="38.2323920"><time>2020-10-31T01:14:50.327</time></trkpt><trkpt lat="55.6625780" lon="38.2323770"><time>2020-10-31T01:14:53.323</time></trkpt><trkpt lat="55.6625200" lon="38.2324170"><time>2020-10-31T01:14:56.327</time></trkpt><trkpt lat="55.6624750" lon="38.2324330"><time>2020-10-31T01:14:59.323</time></trkpt><trkpt lat="55.6624220" lon="38.2324230"><time>2020-10-31T01:15:01.323</time></trkpt><trkpt lat="55.6623700" lon="38.2324570"><time>2020-10-31T01:15:03.323</time></trkpt><trkpt lat="55.6623150" lon="38.2324480"><time>2020-10-31T01:15:07.327</time></trkpt><trkpt lat="55.6622620" lon="38.2324470"><time>2020-10-31T01:15:09.327</time></trkpt><trkpt lat="55.6622200" lon="38.2324130"><time>2020-10-31T01:15:12.323</time></trkpt><trkpt lat="55.6621630" lon="38.2324430"><time>2020-10-31T01:15:15.323</time></trkpt><trkpt lat="55.6621170" lon="38.2324380"><time>2020-10-31T01:15:19.323</time></trkpt><trkpt lat="55.6620680" lon="38.2323980"><time>2020-10-31T01:15:22.327</time></trkpt><trkpt lat="55.6620200" lon="38.2323880"><time>2020-10-31T01:15:26.327</time></trkpt><trkpt lat="55.6619830" lon="38.2322970"><time>2020-10-31T01:15:30.327</time></trkpt><trkpt lat="55.6619220" lon="38.2322720"><time>2020-10-31T01:15:34.323</time></trkpt><trkpt lat="55.6618720" lon="38.2323700"><time>2020-10-31T01:15:37.327</time></trkpt><trkpt lat="55.6618150" lon="38.2324230"><time>2020-10-31T01:15:40.323</time></trkpt><trkpt lat="55.6617800" lon="38.2324970"><time>2020-10-31T01:15:42.327</time></trkpt><trkpt lat="55.6617230" lon="38.2325820"><time>2020-10-31T01:15:46.327</time></trkpt><trkpt lat="55.6616630" lon="38.2326300"><time>2020-10-31T01:15:50.323</time></trkpt><trkpt lat="55.6616120" lon="38.2326770"><time>2020-10-31T01:15:55.333</time></trkpt><trkpt lat="55.6615820" lon="38.2327600"><time>2020-10-31T01:15:57.323</time></trkpt><trkpt lat="55.6615330" lon="38.2327550"><time>2020-10-31T01:16:03.327</time></trkpt><trkpt lat="55.6614630" lon="38.2327580"><time>2020-10-31T01:16:06.327</time></trkpt><trkpt lat="55.6614170" lon="38.2328100"><time>2020-10-31T01:16:08.327</time></trkpt><trkpt lat="55.6613780" lon="38.2327620"><time>2020-10-31T01:16:12.327</time></trkpt><trkpt lat="55.6613400" lon="38.2327030"><time>2020-10-31T01:16:15.323</time></trkpt><trkpt lat="55.6612980" lon="38.2326580"><time>2020-10-31T01:16:19.327</time></trkpt><trkpt lat="55.6612500" lon="38.2326120"><time>2020-10-31T01:16:23.327</time></trkpt><trkpt lat="55.6612050" lon="38.2325720"><time>2020-10-31T01:16:28.327</time></trkpt><trkpt lat="55.6611580" lon="38.2326050"><time>2020-10-31T01:16:32.327</time></trkpt><trkpt lat="55.6610720" lon="38.2325600"><time>2020-10-31T01:16:35.323</time></trkpt><trkpt lat="55.6610330" lon="38.2325100"><time>2020-10-31T01:16:37.327</time></trkpt><trkpt lat="55.6609950" lon="38.2324430"><time>2020-10-31T01:16:39.323</time></trkpt><trkpt lat="55.6609420" lon="38.2323680"><time>2020-10-31T01:16:42.327</time></trkpt><trkpt lat="55.6609000" lon="38.2323070"><time>2020-10-31T01:16:44.327</time></trkpt><trkpt lat="55.6608550" lon="38.2322520"><time>2020-10-31T01:16:47.327</time></trkpt><trkpt lat="55.6607970" lon="38.2321920"><time>2020-10-31T01:16:51.323</time></trkpt><trkpt lat="55.6606830" lon="38.2322100"><time>2020-10-31T01:17:07.327</time></trkpt><trkpt lat="55.6606500" lon="38.2322670"><time>2020-10-31T01:17:13.327</time></trkpt><trkpt lat="55.6605300" lon="38.2323470"><time>2020-10-31T01:17:26.323</time></trkpt><trkpt lat="55.6604830" lon="38.2323720"><time>2020-10-31T01:17:29.327</time></trkpt><trkpt lat="55.6604200" lon="38.2324050"><time>2020-10-31T01:17:34.327</time></trkpt><trkpt lat="55.6603770" lon="38.2324770"><time>2020-10-31T01:17:35.323</time></trkpt><trkpt lat="55.6603450" lon="38.2325720"><time>2020-10-31T01:17:38.327</time></trkpt><trkpt lat="55.6603180" lon="38.2326500"><time>2020-10-31T01:17:43.323</time></trkpt><trkpt lat="55.6602930" lon="38.2327200"><time>2020-10-31T01:17:46.327</time></trkpt><trkpt lat="55.6602950" lon="38.2328430"><time>2020-10-31T01:17:49.323</time></trkpt><trkpt lat="55.6602630" lon="38.2329250"><time>2020-10-31T01:17:50.323</time></trkpt><trkpt lat="55.6602300" lon="38.2329950"><time>2020-10-31T01:17:53.323</time></trkpt><trkpt lat="55.6601980" lon="38.2330580"><time>2020-10-31T01:17:55.327</time></trkpt><trkpt lat="55.6601870" lon="38.2331570"><time>2020-10-31T01:17:58.327</time></trkpt><trkpt lat="55.6601180" lon="38.2331120"><time>2020-10-31T01:18:01.323</time></trkpt><trkpt lat="55.6601220" lon="38.2332100"><time>2020-10-31T01:18:04.327</time></trkpt><trkpt lat="55.6600330" lon="38.2333470"><time>2020-10-31T01:18:10.323</time></trkpt><trkpt lat="55.6600030" lon="38.2334580"><time>2020-10-31T01:18:11.323</time></trkpt><trkpt lat="55.6599520" lon="38.2336880"><time>2020-10-31T01:18:19.327</time></trkpt><trkpt lat="55.6599480" lon="38.2337700"><time>2020-10-31T01:18:21.323</time></trkpt><trkpt lat="55.6599570" lon="38.2338520"><time>2020-10-31T01:18:24.327</time></trkpt><trkpt lat="55.6599200" lon="38.2339320"><time>2020-10-31T01:18:27.327</time></trkpt><trkpt lat="55.6598350" lon="38.2340170"><time>2020-10-31T01:18:29.323</time></trkpt><trkpt lat="55.6598170" lon="38.2341520"><time>2020-10-31T01:18:31.327</time></trkpt><trkpt lat="55.6597850" lon="38.2342080"><time>2020-10-31T01:18:33.323</time></trkpt><trkpt lat="55.6597450" lon="38.2342520"><time>2020-10-31T01:18:37.327</time></trkpt><trkpt lat="55.6596220" lon="38.2343770"><time>2020-10-31T01:18:48.323</time></trkpt><trkpt lat="55.6595620" lon="38.2344370"><time>2020-10-31T01:18:49.323</time></trkpt><trkpt lat="55.6595130" lon="38.2344820"><time>2020-10-31T01:18:51.323</time></trkpt><trkpt lat="55.6594650" lon="38.2345450"><time>2020-10-31T01:18:53.323</time></trkpt><trkpt lat="55.6594230" lon="38.2345800"><time>2020-10-31T01:18:55.327</time></trkpt><trkpt lat="55.6593500" lon="38.2346680"><time>2020-10-31T01:18:58.323</time></trkpt><trkpt lat="55.6593000" lon="38.2347080"><time>2020-10-31T01:19:01.327</time></trkpt><trkpt lat="55.6592580" lon="38.2347480"><time>2020-10-31T01:19:03.323</time></trkpt><trkpt lat="55.6592180" lon="38.2348080"><time>2020-10-31T01:19:06.330</time></trkpt><trkpt lat="55.6592180" lon="38.2348950"><time>2020-10-31T01:19:10.323</time></trkpt><trkpt lat="55.6592150" lon="38.2349800"><time>2020-10-31T01:19:22.323</time></trkpt><trkpt lat="55.6592320" lon="38.2350750"><time>2020-10-31T01:19:26.323</time></trkpt><trkpt lat="55.6592280" lon="38.2351600"><time>2020-10-31T01:19:29.327</time></trkpt><trkpt lat="55.6592100" lon="38.2352400"><time>2020-10-31T01:19:32.323</time></trkpt><trkpt lat="55.6591970" lon="38.2353420"><time>2020-10-31T01:19:35.307</time></trkpt><trkpt lat="55.6591630" lon="38.2354170"><time>2020-10-31T01:19:37.327</time></trkpt><trkpt lat="55.6591270" lon="38.2355030"><time>2020-10-31T01:19:40.320</time></trkpt><trkpt lat="55.6590920" lon="38.2355780"><time>2020-10-31T01:19:42.320</time></trkpt><trkpt lat="55.6590470" lon="38.2356320"><time>2020-10-31T01:19:45.327</time></trkpt><trkpt lat="55.6589800" lon="38.2356430"><time>2020-10-31T01:19:48.327</time></trkpt><trkpt lat="55.6589280" lon="38.2356620"><time>2020-10-31T01:19:50.323</time></trkpt><trkpt lat="55.6588900" lon="38.2357120"><time>2020-10-31T01:19:53.327</time></trkpt><trkpt lat="55.6588550" lon="38.2357630"><time>2020-10-31T01:19:57.323</time></trkpt><trkpt lat="55.6588000" lon="38.2358330"><time>2020-10-31T01:20:01.330</time></trkpt><trkpt lat="55.6587720" lon="38.2359050"><time>2020-10-31T01:20:03.327</time></trkpt><trkpt lat="55.6587250" lon="38.2359500"><time>2020-10-31T01:20:06.320</time></trkpt><trkpt lat="55.6586650" lon="38.2359850"><time>2020-10-31T01:20:10.327</time></trkpt><trkpt lat="55.6585920" lon="38.2360400"><time>2020-10-31T01:20:12.327</time></trkpt><trkpt lat="55.6585180" lon="38.2360820"><time>2020-10-31T01:20:15.327</time></trkpt><trkpt lat="55.6584630" lon="38.2360930"><time>2020-10-31T01:20:17.327</time></trkpt><trkpt lat="55.6583970" lon="38.2360670"><time>2020-10-31T01:20:20.327</time></trkpt><trkpt lat="55.6583450" lon="38.2360430"><time>2020-10-31T01:20:22.323</time></trkpt><trkpt lat="55.6582850" lon="38.2360450"><time>2020-10-31T01:20:24.323</time></trkpt><trkpt lat="55.6582320" lon="38.2360680"><time>2020-10-31T01:20:26.323</time></trkpt><trkpt lat="55.6581820" lon="38.2360950"><time>2020-10-31T01:20:30.327</time></trkpt><trkpt lat="55.6581200" lon="38.2361180"><time>2020-10-31T01:20:34.330</time></trkpt><trkpt lat="55.6580750" lon="38.2361980"><time>2020-10-31T01:20:36.320</time></trkpt><trkpt lat="55.6580320" lon="38.2362530"><time>2020-10-31T01:20:40.323</time></trkpt><trkpt lat="55.6580000" lon="38.2363530"><time>2020-10-31T01:20:43.323</time></trkpt><trkpt lat="55.6579580" lon="38.2363970"><time>2020-10-31T01:20:46.327</time></trkpt><trkpt lat="55.6578870" lon="38.2364380"><time>2020-10-31T01:20:49.333</time></trkpt><trkpt lat="55.6578420" lon="38.2364480"><time>2020-10-31T01:20:52.327</time></trkpt><trkpt lat="55.6577750" lon="38.2364680"><time>2020-10-31T01:20:55.330</time></trkpt><trkpt lat="55.6577280" lon="38.2364580"><time>2020-10-31T01:20:57.327</time></trkpt><trkpt lat="55.6576680" lon="38.2364800"><time>2020-10-31T01:20:59.330</time></trkpt><trkpt lat="55.6576250" lon="38.2365380"><time>2020-10-31T01:21:01.327</time></trkpt><trkpt lat="55.6575880" lon="38.2365930"><time>2020-10-31T01:21:03.327</time></trkpt><trkpt lat="55.6575550" lon="38.2366630"><time>2020-10-31T01:21:06.327</time></trkpt><trkpt lat="55.6575220" lon="38.2367230"><time>2020-10-31T01:21:09.323</time></trkpt><trkpt lat="55.6574700" lon="38.2367430"><time>2020-10-31T01:21:17.327</time></trkpt><trkpt lat="55.6574080" lon="38.2367730"><time>2020-10-31T01:21:21.327</time></trkpt><trkpt lat="55.6573580" lon="38.2367980"><time>2020-10-31T01:21:25.327</time></trkpt><trkpt lat="55.6573150" lon="38.2368250"><time>2020-10-31T01:21:28.320</time></trkpt><trkpt lat="55.6572770" lon="38.2368870"><time>2020-10-31T01:21:31.323</time></trkpt><trkpt lat="55.6572300" lon="38.2369220"><time>2020-10-31T01:21:34.323</time></trkpt><trkpt lat="55.6571850" lon="38.2369830"><time>2020-10-31T01:21:37.327</time></trkpt><trkpt lat="55.6571470" lon="38.2370380"><time>2020-10-31T01:21:39.320</time></trkpt><trkpt lat="55.6571120" lon="38.2371230"><time>2020-10-31T01:21:42.327</time></trkpt><trkpt lat="55.6570730" lon="38.2371920"><time>2020-10-31T01:21:45.327</time></trkpt><trkpt lat="55.6570050" lon="38.2372370"><time>2020-10-31T01:21:48.330</time></trkpt><trkpt lat="55.6569600" lon="38.2372880"><time>2020-10-31T01:21:50.327</time></trkpt><trkpt lat="55.6569080" lon="38.2372570"><time>2020-10-31T01:21:53.327</time></trkpt><trkpt lat="55.6568620" lon="38.2372670"><time>2020-10-31T01:21:57.327</time></trkpt><trkpt lat="55.6568130" lon="38.2372600"><time>2020-10-31T01:22:09.327</time></trkpt><trkpt lat="55.6567570" lon="38.2372800"><time>2020-10-31T01:22:18.323</time></trkpt><trkpt lat="55.6566820" lon="38.2372580"><time>2020-10-31T01:22:25.333</time></trkpt><trkpt lat="55.6566370" lon="38.2372300"><time>2020-10-31T01:22:30.330</time></trkpt><trkpt lat="55.6565920" lon="38.2372180"><time>2020-10-31T01:22:34.327</time></trkpt><trkpt lat="55.6565400" lon="38.2371620"><time>2020-10-31T01:22:38.320</time></trkpt><trkpt lat="55.6565150" lon="38.2370900"><time>2020-10-31T01:22:41.323</time></trkpt><trkpt lat="55.6564750" lon="38.2370330"><time>2020-10-31T01:22:45.320</time></trkpt><trkpt lat="55.6564250" lon="38.2370230"><time>2020-10-31T01:22:48.330</time></trkpt><trkpt lat="55.6563780" lon="38.2370320"><time>2020-10-31T01:22:54.287</time></trkpt><trkpt lat="55.6563630" lon="38.2369500"><time>2020-10-31T01:22:58.327</time></trkpt><trkpt lat="55.6563550" lon="38.2368630"><time>2020-10-31T01:23:02.330</time></trkpt><trkpt lat="55.6563200" lon="38.2367980"><time>2020-10-31T01:23:07.343</time></trkpt><trkpt lat="55.6562700" lon="38.2367730"><time>2020-10-31T01:23:11.327</time></trkpt><trkpt lat="55.6562220" lon="38.2367200"><time>2020-10-31T01:23:13.327</time></trkpt><trkpt lat="55.6561850" lon="38.2366630"><time>2020-10-31T01:23:15.327</time></trkpt><trkpt lat="55.6561380" lon="38.2366250"><time>2020-10-31T01:23:17.327</time></trkpt><trkpt lat="55.6560900" lon="38.2366050"><time>2020-10-31T01:23:20.327</time></trkpt><trkpt lat="55.6560420" lon="38.2366050"><time>2020-10-31T01:23:24.327</time></trkpt><trkpt lat="55.6559930" lon="38.2365980"><time>2020-10-31T01:23:29.327</time></trkpt><trkpt lat="55.6559430" lon="38.2365880"><time>2020-10-31T01:23:38.287</time></trkpt><trkpt lat="55.6559020" lon="38.2365550"><time>2020-10-31T01:23:40.290</time></trkpt><trkpt lat="55.6558800" lon="38.2364770"><time>2020-10-31T01:23:48.327</time></trkpt><trkpt lat="55.6558330" lon="38.2363900"><time>2020-10-31T01:24:01.330</time></trkpt><trkpt lat="55.6557920" lon="38.2364330"><time>2020-10-31T01:24:07.327</time></trkpt><trkpt lat="55.6557470" lon="38.2364630"><time>2020-10-31T01:24:12.323</time></trkpt><trkpt lat="55.6556870" lon="38.2364520"><time>2020-10-31T01:24:22.327</time></trkpt><trkpt lat="55.6556320" lon="38.2364770"><time>2020-10-31T01:24:27.323</time></trkpt><trkpt lat="55.6556080" lon="38.2365580"><time>2020-10-31T01:24:36.327</time></trkpt><trkpt lat="55.6555850" lon="38.2366270"><time>2020-10-31T01:24:40.327</time></trkpt><trkpt lat="55.6555950" lon="38.2367320"><time>2020-10-31T01:24:45.317</time></trkpt><trkpt lat="55.6556170" lon="38.2368030"><time>2020-10-31T01:24:56.327</time></trkpt><trkpt lat="55.6556150" lon="38.2368930"><time>2020-10-31T01:25:01.323</time></trkpt><trkpt lat="55.6555730" lon="38.2369600"><time>2020-10-31T01:25:05.327</time></trkpt><trkpt lat="55.6555330" lon="38.2370100"><time>2020-10-31T01:25:08.323</time></trkpt><trkpt lat="55.6554930" lon="38.2370680"><time>2020-10-31T01:25:11.323</time></trkpt><trkpt lat="55.6554470" lon="38.2371080"><time>2020-10-31T01:25:18.323</time></trkpt><trkpt lat="55.6553950" lon="38.2371680"><time>2020-10-31T01:25:22.327</time></trkpt><trkpt lat="55.6553450" lon="38.2372000"><time>2020-10-31T01:25:28.330</time></trkpt><trkpt lat="55.6552970" lon="38.2371570"><time>2020-10-31T01:25:35.330</time></trkpt><trkpt lat="55.6552550" lon="38.2371170"><time>2020-10-31T01:25:41.327</time></trkpt><trkpt lat="55.6552080" lon="38.2370670"><time>2020-10-31T01:25:45.323</time></trkpt><trkpt lat="55.6551570" lon="38.2370330"><time>2020-10-31T01:25:48.323</time></trkpt><trkpt lat="55.6551000" lon="38.2370030"><time>2020-10-31T01:25:52.327</time></trkpt><trkpt lat="55.6551050" lon="38.2369180"><time>2020-10-31T01:25:57.323</time></trkpt><trkpt lat="55.6551030" lon="38.2368180"><time>2020-10-31T01:26:01.327</time></trkpt><trkpt lat="55.6550600" lon="38.2367730"><time>2020-10-31T01:26:04.327</time></trkpt><trkpt lat="55.6550150" lon="38.2367550"><time>2020-10-31T01:26:11.327</time></trkpt><trkpt lat="55.6549550" lon="38.2367050"><time>2020-10-31T01:26:14.327</time></trkpt><trkpt lat="55.6549100" lon="38.2366930"><time>2020-10-31T01:26:17.327</time></trkpt><trkpt lat="55.6548670" lon="38.2366330"><time>2020-10-31T01:26:20.323</time></trkpt><trkpt lat="55.6548530" lon="38.2365550"><time>2020-10-31T01:26:23.327</time></trkpt><trkpt lat="55.6548100" lon="38.2366070"><time>2020-10-31T01:26:28.320</time></trkpt><trkpt lat="55.6548220" lon="38.2367520"><time>2020-10-31T01:26:34.623</time></trkpt><trkpt lat="55.6548600" lon="38.2368230"><time>2020-10-31T01:26:36.287</time></trkpt><trkpt lat="55.6548600" lon="38.2368230"><time>2020-10-31T01:26:36.527</time></trkpt><trkpt lat="55.6548150" lon="38.2367180"><time>2020-10-31T01:26:40.280</time></trkpt><trkpt lat="55.6547150" lon="38.2367320"><time>2020-10-31T01:26:41.320</time></trkpt><trkpt lat="55.6547680" lon="38.2368080"><time>2020-10-31T01:27:07.290</time></trkpt><trkpt lat="55.6548080" lon="38.2369370"><time>2020-10-31T01:27:17.327</time></trkpt><trkpt lat="55.6548270" lon="38.2370200"><time>2020-10-31T01:27:20.327</time></trkpt><trkpt lat="55.6548550" lon="38.2370920"><time>2020-10-31T01:27:28.327</time></trkpt><trkpt lat="55.6549150" lon="38.2371970"><time>2020-10-31T01:27:51.327</time></trkpt><trkpt lat="55.6549180" lon="38.2372770"><time>2020-10-31T01:28:13.333</time></trkpt><trkpt lat="55.6549000" lon="38.2372030"><time>2020-10-31T01:28:27.327</time></trkpt><trkpt lat="55.6548450" lon="38.2371800"><time>2020-10-31T01:28:33.333</time></trkpt><trkpt lat="55.6548730" lon="38.2372500"><time>2020-10-31T01:28:40.327</time></trkpt><trkpt lat="55.6548230" lon="38.2372380"><time>2020-10-31T01:28:48.327</time></trkpt><trkpt lat="55.6548130" lon="38.2373370"><time>2020-10-31T01:28:53.327</time></trkpt><trkpt lat="55.6548530" lon="38.2373920"><time>2020-10-31T01:29:09.330</time></trkpt><trkpt lat="55.6548900" lon="38.2374400"><time>2020-10-31T01:29:15.333</time></trkpt><trkpt lat="55.6548430" lon="38.2375420"><time>2020-10-31T01:29:34.327</time></trkpt><trkpt lat="55.6547880" lon="38.2375620"><time>2020-10-31T01:29:44.327</time></trkpt><trkpt lat="55.6548170" lon="38.2376280"><time>2020-10-31T01:29:53.327</time></trkpt><trkpt lat="55.6548330" lon="38.2377370"><time>2020-10-31T01:30:14.327</time></trkpt><trkpt lat="55.6548350" lon="38.2378980"><time>2020-10-31T01:30:28.327</time></trkpt><trkpt lat="55.6548430" lon="38.2379920"><time>2020-10-31T01:30:39.330</time></trkpt><trkpt lat="55.6548780" lon="38.2381600"><time>2020-10-31T01:30:49.333</time></trkpt><trkpt lat="55.6549050" lon="38.2382430"><time>2020-10-31T01:30:53.327</time></trkpt><trkpt lat="55.6549350" lon="38.2383070"><time>2020-10-31T01:30:56.333</time></trkpt><trkpt lat="55.6549450" lon="38.2383920"><time>2020-10-31T01:31:00.327</time></trkpt><trkpt lat="55.6549720" lon="38.2384800"><time>2020-10-31T01:31:03.337</time></trkpt><trkpt lat="55.6549750" lon="38.2385820"><time>2020-10-31T01:31:06.327</time></trkpt><trkpt lat="55.6549570" lon="38.2386630"><time>2020-10-31T01:31:11.327</time></trkpt><trkpt lat="55.6549570" lon="38.2387480"><time>2020-10-31T01:31:16.330</time></trkpt><trkpt lat="55.6549700" lon="38.2388250"><time>2020-10-31T01:31:20.330</time></trkpt><trkpt lat="55.6549880" lon="38.2389000"><time>2020-10-31T01:31:33.333</time></trkpt><trkpt lat="55.6550020" lon="38.2389820"><time>2020-10-31T01:31:38.327</time></trkpt><trkpt lat="55.6550080" lon="38.2390670"><time>2020-10-31T01:31:41.327</time></trkpt><trkpt lat="55.6550220" lon="38.2391470"><time>2020-10-31T01:31:44.330</time></trkpt><trkpt lat="55.6550480" lon="38.2392270"><time>2020-10-31T01:31:47.330</time></trkpt><trkpt lat="55.6550630" lon="38.2393080"><time>2020-10-31T01:31:50.323</time></trkpt><trkpt lat="55.6550800" lon="38.2393880"><time>2020-10-31T01:31:53.327</time></trkpt><trkpt lat="55.6550950" lon="38.2394750"><time>2020-10-31T01:31:57.330</time></trkpt><trkpt lat="55.6551080" lon="38.2395750"><time>2020-10-31T01:32:01.327</time></trkpt><trkpt lat="55.6551030" lon="38.2396670"><time>2020-10-31T01:32:04.330</time></trkpt><trkpt lat="55.6550930" lon="38.2397520"><time>2020-10-31T01:32:07.323</time></trkpt><trkpt lat="55.6550820" lon="38.2398520"><time>2020-10-31T01:32:10.290</time></trkpt><trkpt lat="55.6550520" lon="38.2399430"><time>2020-10-31T01:32:14.330</time></trkpt><trkpt lat="55.6550400" lon="38.2400380"><time>2020-10-31T01:32:17.330</time></trkpt><trkpt lat="55.6550650" lon="38.2401150"><time>2020-10-31T01:32:20.327</time></trkpt><trkpt lat="55.6550780" lon="38.2402020"><time>2020-10-31T01:32:25.333</time></trkpt><trkpt lat="55.6550750" lon="38.2402820"><time>2020-10-31T01:32:29.327</time></trkpt><trkpt lat="55.6550730" lon="38.2403650"><time>2020-10-31T01:32:32.323</time></trkpt><trkpt lat="55.6550680" lon="38.2404600"><time>2020-10-31T01:32:36.323</time></trkpt><trkpt lat="55.6551200" lon="38.2404930"><time>2020-10-31T01:32:45.323</time></trkpt><trkpt lat="55.6551600" lon="38.2405370"><time>2020-10-31T01:32:49.327</time></trkpt><trkpt lat="55.6551580" lon="38.2406370"><time>2020-10-31T01:32:56.330</time></trkpt><trkpt lat="55.6551780" lon="38.2407080"><time>2020-10-31T01:33:03.327</time></trkpt><trkpt lat="55.6552030" lon="38.2408350"><time>2020-10-31T01:33:07.330</time></trkpt><trkpt lat="55.6552320" lon="38.2409130"><time>2020-10-31T01:33:10.323</time></trkpt><trkpt lat="55.6552370" lon="38.2409930"><time>2020-10-31T01:33:13.327</time></trkpt><trkpt lat="55.6552670" lon="38.2410920"><time>2020-10-31T01:33:19.327</time></trkpt><trkpt lat="55.6552870" lon="38.2411750"><time>2020-10-31T01:33:22.327</time></trkpt><trkpt lat="55.6553020" lon="38.2412500"><time>2020-10-31T01:33:25.323</time></trkpt><trkpt lat="55.6553270" lon="38.2413200"><time>2020-10-31T01:33:28.327</time></trkpt><trkpt lat="55.6553570" lon="38.2413950"><time>2020-10-31T01:33:31.333</time></trkpt><trkpt lat="55.6554020" lon="38.2414530"><time>2020-10-31T01:33:34.323</time></trkpt><trkpt lat="55.6554480" lon="38.2415470"><time>2020-10-31T01:33:37.327</time></trkpt><trkpt lat="55.6554800" lon="38.2416050"><time>2020-10-31T01:33:39.333</time></trkpt><trkpt lat="55.6555130" lon="38.2416800"><time>2020-10-31T01:33:42.327</time></trkpt><trkpt lat="55.6555470" lon="38.2417470"><time>2020-10-31T01:33:44.327</time></trkpt><trkpt lat="55.6555850" lon="38.2418050"><time>2020-10-31T01:33:46.333</time></trkpt><trkpt lat="55.6556400" lon="38.2418450"><time>2020-10-31T01:33:49.330</time></trkpt><trkpt lat="55.6556870" lon="38.2418600"><time>2020-10-31T01:33:51.327</time></trkpt><trkpt lat="55.6557520" lon="38.2418720"><time>2020-10-31T01:33:54.327</time></trkpt><trkpt lat="55.6557980" lon="38.2418950"><time>2020-10-31T01:33:57.330</time></trkpt><trkpt lat="55.6558380" lon="38.2419370"><time>2020-10-31T01:34:09.330</time></trkpt><trkpt lat="55.6558780" lon="38.2419870"><time>2020-10-31T01:34:12.337</time></trkpt><trkpt lat="55.6559280" lon="38.2420300"><time>2020-10-31T01:34:15.327</time></trkpt><trkpt lat="55.6559720" lon="38.2420880"><time>2020-10-31T01:34:18.330</time></trkpt><trkpt lat="55.6560220" lon="38.2421380"><time>2020-10-31T01:34:21.327</time></trkpt><trkpt lat="55.6560700" lon="38.2422020"><time>2020-10-31T01:34:24.323</time></trkpt><trkpt lat="55.6561250" lon="38.2422620"><time>2020-10-31T01:34:27.323</time></trkpt><trkpt lat="55.6561670" lon="38.2423250"><time>2020-10-31T01:34:29.323</time></trkpt><trkpt lat="55.6562230" lon="38.2423870"><time>2020-10-31T01:34:32.323</time></trkpt><trkpt lat="55.6562620" lon="38.2424320"><time>2020-10-31T01:34:34.330</time></trkpt><trkpt lat="55.6563250" lon="38.2425050"><time>2020-10-31T01:34:36.327</time></trkpt><trkpt lat="55.6563700" lon="38.2425770"><time>2020-10-31T01:34:38.327</time></trkpt><trkpt lat="55.6564170" lon="38.2426250"><time>2020-10-31T01:34:40.323</time></trkpt><trkpt lat="55.6564520" lon="38.2426750"><time>2020-10-31T01:34:42.327</time></trkpt><trkpt lat="55.6565000" lon="38.2427250"><time>2020-10-31T01:34:45.330</time></trkpt><trkpt lat="55.6565480" lon="38.2427750"><time>2020-10-31T01:34:47.320</time></trkpt><trkpt lat="55.6566030" lon="38.2428670"><time>2020-10-31T01:34:49.327</time></trkpt><trkpt lat="55.6566630" lon="38.2429530"><time>2020-10-31T01:34:51.327</time></trkpt><trkpt lat="55.6567180" lon="38.2430100"><time>2020-10-31T01:34:53.323</time></trkpt><trkpt lat="55.6567580" lon="38.2430550"><time>2020-10-31T01:34:55.327</time></trkpt><trkpt lat="55.6568050" lon="38.2431180"><time>2020-10-31T01:34:57.330</time></trkpt><trkpt lat="55.6568470" lon="38.2431870"><time>2020-10-31T01:34:59.323</time></trkpt><trkpt lat="55.6569020" lon="38.2432670"><time>2020-10-31T01:35:01.327</time></trkpt><trkpt lat="55.6569420" lon="38.2433330"><time>2020-10-31T01:35:03.327</time></trkpt><trkpt lat="55.6569750" lon="38.2434330"><time>2020-10-31T01:35:05.330</time></trkpt><trkpt lat="55.6570150" lon="38.2434950"><time>2020-10-31T01:35:07.327</time></trkpt><trkpt lat="55.6570650" lon="38.2435520"><time>2020-10-31T01:35:09.330</time></trkpt><trkpt lat="55.6571230" lon="38.2436070"><time>2020-10-31T01:35:11.327</time></trkpt><trkpt lat="55.6571650" lon="38.2437050"><time>2020-10-31T01:35:14.330</time></trkpt><trkpt lat="55.6572080" lon="38.2437800"><time>2020-10-31T01:35:17.327</time></trkpt><trkpt lat="55.6572630" lon="38.2438520"><time>2020-10-31T01:35:20.330</time></trkpt><trkpt lat="55.6573100" lon="38.2439080"><time>2020-10-31T01:35:22.327</time></trkpt><trkpt lat="55.6573450" lon="38.2439580"><time>2020-10-31T01:35:24.330</time></trkpt><trkpt lat="55.6573870" lon="38.2440100"><time>2020-10-31T01:35:26.330</time></trkpt><trkpt lat="55.6574380" lon="38.2440420"><time>2020-10-31T01:35:29.327</time></trkpt><trkpt lat="55.6574720" lon="38.2441300"><time>2020-10-31T01:35:32.327</time></trkpt><trkpt lat="55.6575250" lon="38.2441820"><time>2020-10-31T01:35:34.323</time></trkpt><trkpt lat="55.6575650" lon="38.2442670"><time>2020-10-31T01:35:36.327</time></trkpt><trkpt lat="55.6576050" lon="38.2443180"><time>2020-10-31T01:35:38.327</time></trkpt><trkpt lat="55.6576480" lon="38.2443720"><time>2020-10-31T01:35:40.330</time></trkpt><trkpt lat="55.6577000" lon="38.2444380"><time>2020-10-31T01:35:43.327</time></trkpt><trkpt lat="55.6577450" lon="38.2445220"><time>2020-10-31T01:35:46.327</time></trkpt><trkpt lat="55.6578080" lon="38.2445630"><time>2020-10-31T01:35:48.327</time></trkpt><trkpt lat="55.6578680" lon="38.2446020"><time>2020-10-31T01:35:50.330</time></trkpt><trkpt lat="55.6579270" lon="38.2446680"><time>2020-10-31T01:35:52.330</time></trkpt><trkpt lat="55.6579730" lon="38.2447180"><time>2020-10-31T01:35:54.323</time></trkpt><trkpt lat="55.6580020" lon="38.2447850"><time>2020-10-31T01:35:56.327</time></trkpt><trkpt lat="55.6580420" lon="38.2448700"><time>2020-10-31T01:35:58.333</time></trkpt><trkpt lat="55.6580720" lon="38.2449350"><time>2020-10-31T01:36:00.330</time></trkpt><trkpt lat="55.6581180" lon="38.2450050"><time>2020-10-31T01:36:03.330</time></trkpt><trkpt lat="55.6581980" lon="38.2450500"><time>2020-10-31T01:36:06.327</time></trkpt><trkpt lat="55.6582670" lon="38.2450720"><time>2020-10-31T01:36:08.323</time></trkpt><trkpt lat="55.6583250" lon="38.2450970"><time>2020-10-31T01:36:10.327</time></trkpt><trkpt lat="55.6583820" lon="38.2451320"><time>2020-10-31T01:36:12.337</time></trkpt><trkpt lat="55.6584420" lon="38.2451780"><time>2020-10-31T01:36:14.330</time></trkpt><trkpt lat="55.6585100" lon="38.2452280"><time>2020-10-31T01:36:16.330</time></trkpt><trkpt lat="55.6585470" lon="38.2452870"><time>2020-10-31T01:36:18.327</time></trkpt><trkpt lat="55.6586120" lon="38.2453580"><time>2020-10-31T01:36:21.330</time></trkpt><trkpt lat="55.6586680" lon="38.2454180"><time>2020-10-31T01:36:23.327</time></trkpt><trkpt lat="55.6587030" lon="38.2454830"><time>2020-10-31T01:36:26.330</time></trkpt><trkpt lat="55.6587300" lon="38.2455780"><time>2020-10-31T01:36:28.330</time></trkpt><trkpt lat="55.6587550" lon="38.2456530"><time>2020-10-31T01:36:31.327</time></trkpt><trkpt lat="55.6587630" lon="38.2457470"><time>2020-10-31T01:36:34.333</time></trkpt><trkpt lat="55.6587200" lon="38.2458030"><time>2020-10-31T01:36:38.287</time></trkpt><trkpt lat="55.6586930" lon="38.2458730"><time>2020-10-31T01:36:41.327</time></trkpt><trkpt lat="55.6586620" lon="38.2459520"><time>2020-10-31T01:36:45.330</time></trkpt><trkpt lat="55.6586500" lon="38.2460330"><time>2020-10-31T01:36:51.333</time></trkpt><trkpt lat="55.6586400" lon="38.2461150"><time>2020-10-31T01:36:53.330</time></trkpt><trkpt lat="55.6586020" lon="38.2461820"><time>2020-10-31T01:36:57.330</time></trkpt><trkpt lat="55.6585520" lon="38.2461950"><time>2020-10-31T01:37:00.320</time></trkpt><trkpt lat="55.6585220" lon="38.2462700"><time>2020-10-31T01:37:07.327</time></trkpt><trkpt lat="55.6584730" lon="38.2464080"><time>2020-10-31T01:37:17.327</time></trkpt><trkpt lat="55.6584350" lon="38.2464700"><time>2020-10-31T01:37:21.327</time></trkpt><trkpt lat="55.6583980" lon="38.2465520"><time>2020-10-31T01:37:27.330</time></trkpt><trkpt lat="55.6583280" lon="38.2467600"><time>2020-10-31T01:37:35.327</time></trkpt><trkpt lat="55.6583570" lon="38.2468470"><time>2020-10-31T01:37:41.327</time></trkpt><trkpt lat="55.6583180" lon="38.2469300"><time>2020-10-31T01:37:47.330</time></trkpt><trkpt lat="55.6582680" lon="38.2470070"><time>2020-10-31T01:37:52.327</time></trkpt><trkpt lat="55.6582300" lon="38.2470950"><time>2020-10-31T01:37:54.330</time></trkpt><trkpt lat="55.6582100" lon="38.2471700"><time>2020-10-31T01:37:57.330</time></trkpt><trkpt lat="55.6581850" lon="38.2472380"><time>2020-10-31T01:38:00.333</time></trkpt><trkpt lat="55.6581380" lon="38.2472950"><time>2020-10-31T01:38:04.330</time></trkpt><trkpt lat="55.6580920" lon="38.2473780"><time>2020-10-31T01:38:08.330</time></trkpt><trkpt lat="55.6580580" lon="38.2474380"><time>2020-10-31T01:38:10.327</time></trkpt><trkpt lat="55.6580180" lon="38.2475030"><time>2020-10-31T01:38:12.330</time></trkpt><trkpt lat="55.6579870" lon="38.2475630"><time>2020-10-31T01:38:13.330</time></trkpt><trkpt lat="55.6579630" lon="38.2476400"><time>2020-10-31T01:38:15.333</time></trkpt><trkpt lat="55.6579280" lon="38.2476980"><time>2020-10-31T01:38:18.327</time></trkpt><trkpt lat="55.6578980" lon="38.2477730"><time>2020-10-31T01:38:21.330</time></trkpt><trkpt lat="55.6578720" lon="38.2478600"><time>2020-10-31T01:38:27.330</time></trkpt><trkpt lat="55.6578900" lon="38.2479380"><time>2020-10-31T01:38:32.327</time></trkpt><trkpt lat="55.6578720" lon="38.2480220"><time>2020-10-31T01:38:37.330</time></trkpt><trkpt lat="55.6577530" lon="38.2480850"><time>2020-10-31T01:38:50.327</time></trkpt><trkpt lat="55.6577300" lon="38.2481530"><time>2020-10-31T01:38:53.327</time></trkpt><trkpt lat="55.6576580" lon="38.2482800"><time>2020-10-31T01:38:59.327</time></trkpt><trkpt lat="55.6576530" lon="38.2483600"><time>2020-10-31T01:39:05.327</time></trkpt><trkpt lat="55.6576050" lon="38.2484070"><time>2020-10-31T01:39:10.327</time></trkpt><trkpt lat="55.6575600" lon="38.2483850"><time>2020-10-31T01:39:20.327</time></trkpt><trkpt lat="55.6575130" lon="38.2484300"><time>2020-10-31T01:39:23.330</time></trkpt><trkpt lat="55.6574700" lon="38.2484570"><time>2020-10-31T01:39:29.330</time></trkpt><trkpt lat="55.6574580" lon="38.2485520"><time>2020-10-31T01:39:37.327</time></trkpt><trkpt lat="55.6574370" lon="38.2486400"><time>2020-10-31T01:39:42.327</time></trkpt><trkpt lat="55.6574000" lon="38.2487130"><time>2020-10-31T01:39:48.330</time></trkpt><trkpt lat="55.6573850" lon="38.2488070"><time>2020-10-31T01:39:52.323</time></trkpt><trkpt lat="55.6573820" lon="38.2489000"><time>2020-10-31T01:39:56.330</time></trkpt><trkpt lat="55.6573770" lon="38.2489800"><time>2020-10-31T01:40:02.327</time></trkpt><trkpt lat="55.6574030" lon="38.2490830"><time>2020-10-31T01:40:12.327</time></trkpt><trkpt lat="55.6573970" lon="38.2491800"><time>2020-10-31T01:40:16.327</time></trkpt><trkpt lat="55.6574130" lon="38.2492620"><time>2020-10-31T01:40:20.327</time></trkpt><trkpt lat="55.6574120" lon="38.2493620"><time>2020-10-31T01:40:23.327</time></trkpt><trkpt lat="55.6574180" lon="38.2494820"><time>2020-10-31T01:40:25.327</time></trkpt><trkpt lat="55.6573680" lon="38.2494780"><time>2020-10-31T01:40:35.327</time></trkpt><trkpt lat="55.6573230" lon="38.2494720"><time>2020-10-31T01:40:41.327</time></trkpt><trkpt lat="55.6573620" lon="38.2495200"><time>2020-10-31T01:40:45.327</time></trkpt><trkpt lat="55.6573170" lon="38.2495650"><time>2020-10-31T01:40:50.327</time></trkpt><trkpt lat="55.6572730" lon="38.2496100"><time>2020-10-31T01:40:58.327</time></trkpt><trkpt lat="55.6572170" lon="38.2496630"><time>2020-10-31T01:41:06.327</time></trkpt><trkpt lat="55.6571680" lon="38.2497200"><time>2020-10-31T01:41:09.327</time></trkpt><trkpt lat="55.6571330" lon="38.2498250"><time>2020-10-31T01:41:13.330</time></trkpt><trkpt lat="55.6571170" lon="38.2499070"><time>2020-10-31T01:41:16.327</time></trkpt><trkpt lat="55.6571200" lon="38.2499930"><time>2020-10-31T01:41:21.330</time></trkpt><trkpt lat="55.6571050" lon="38.2500680"><time>2020-10-31T01:41:24.327</time></trkpt><trkpt lat="55.6571050" lon="38.2501530"><time>2020-10-31T01:41:31.330</time></trkpt><trkpt lat="55.6570580" lon="38.2502120"><time>2020-10-31T01:41:37.330</time></trkpt><trkpt lat="55.6570100" lon="38.2502820"><time>2020-10-31T01:41:41.330</time></trkpt><trkpt lat="55.6569550" lon="38.2503250"><time>2020-10-31T01:41:44.333</time></trkpt><trkpt lat="55.6569220" lon="38.2503980"><time>2020-10-31T01:41:46.327</time></trkpt><trkpt lat="55.6568880" lon="38.2504900"><time>2020-10-31T01:41:50.323</time></trkpt><trkpt lat="55.6568500" lon="38.2505400"><time>2020-10-31T01:41:55.640</time></trkpt><trkpt lat="55.6568200" lon="38.2506050"><time>2020-10-31T01:41:58.330</time></trkpt><trkpt lat="55.6567970" lon="38.2506730"><time>2020-10-31T01:42:02.323</time></trkpt><trkpt lat="55.6567880" lon="38.2507570"><time>2020-10-31T01:42:06.330</time></trkpt><trkpt lat="55.6567480" lon="38.2508180"><time>2020-10-31T01:42:08.333</time></trkpt><trkpt lat="55.6566980" lon="38.2508820"><time>2020-10-31T01:42:12.327</time></trkpt><trkpt lat="55.6566580" lon="38.2509370"><time>2020-10-31T01:42:14.330</time></trkpt><trkpt lat="55.6566000" lon="38.2509620"><time>2020-10-31T01:42:17.330</time></trkpt><trkpt lat="55.6565480" lon="38.2509870"><time>2020-10-31T01:42:21.330</time></trkpt><trkpt lat="55.6565330" lon="38.2510700"><time>2020-10-31T01:42:25.330</time></trkpt><trkpt lat="55.6565050" lon="38.2511600"><time>2020-10-31T01:42:28.330</time></trkpt><trkpt lat="55.6565130" lon="38.2512520"><time>2020-10-31T01:42:33.330</time></trkpt><trkpt lat="55.6564920" lon="38.2513220"><time>2020-10-31T01:42:39.327</time></trkpt><trkpt lat="55.6564680" lon="38.2514050"><time>2020-10-31T01:42:43.333</time></trkpt><trkpt lat="55.6564270" lon="38.2514380"><time>2020-10-31T01:42:46.330</time></trkpt><trkpt lat="55.6563820" lon="38.2514630"><time>2020-10-31T01:42:54.330</time></trkpt><trkpt lat="55.6563550" lon="38.2515400"><time>2020-10-31T01:43:02.327</time></trkpt><trkpt lat="55.6563330" lon="38.2516370"><time>2020-10-31T01:43:06.287</time></trkpt><trkpt lat="55.6563230" lon="38.2517230"><time>2020-10-31T01:43:10.330</time></trkpt><trkpt lat="55.6562800" lon="38.2518070"><time>2020-10-31T01:43:14.310</time></trkpt><trkpt lat="55.6562220" lon="38.2518850"><time>2020-10-31T01:43:20.697</time></trkpt><trkpt lat="55.6562420" lon="38.2518420"><time>2020-10-31T01:44:03.193</time></trkpt><trkpt lat="55.6563500" lon="38.2520770"><time>2020-10-31T01:44:13.327</time></trkpt><trkpt lat="55.6564020" lon="38.2520030"><time>2020-10-31T01:44:17.307</time></trkpt><trkpt lat="55.6564450" lon="38.2519750"><time>2020-10-31T01:44:19.313</time></trkpt><trkpt lat="55.6564950" lon="38.2520420"><time>2020-10-31T01:44:22.327</time></trkpt><trkpt lat="55.6564580" lon="38.2519630"><time>2020-10-31T01:44:25.327</time></trkpt><trkpt lat="55.6564700" lon="38.2520570"><time>2020-10-31T01:44:39.323</time></trkpt><trkpt lat="55.6564900" lon="38.2521420"><time>2020-10-31T01:44:42.327</time></trkpt><trkpt lat="55.6565970" lon="38.2522150"><time>2020-10-31T01:44:47.327</time></trkpt><trkpt lat="55.6566430" lon="38.2521980"><time>2020-10-31T01:44:51.327</time></trkpt><trkpt lat="55.6566530" lon="38.2522980"><time>2020-10-31T01:45:01.333</time></trkpt><trkpt lat="55.6567270" lon="38.2522950"><time>2020-10-31T01:45:18.327</time></trkpt><trkpt lat="55.6567730" lon="38.2523650"><time>2020-10-31T01:45:20.327</time></trkpt><trkpt lat="55.6568300" lon="38.2524230"><time>2020-10-31T01:45:45.327</time></trkpt><trkpt lat="55.6568770" lon="38.2523380"><time>2020-10-31T01:45:58.327</time></trkpt><trkpt lat="55.6569250" lon="38.2523370"><time>2020-10-31T01:46:01.327</time></trkpt><trkpt lat="55.6569820" lon="38.2524650"><time>2020-10-31T01:46:15.330</time></trkpt><trkpt lat="55.6570350" lon="38.2526400"><time>2020-10-31T01:46:25.327</time></trkpt><trkpt lat="55.6570570" lon="38.2527280"><time>2020-10-31T01:46:28.330</time></trkpt><trkpt lat="55.6571300" lon="38.2528500"><time>2020-10-31T01:46:34.327</time></trkpt><trkpt lat="55.6572020" lon="38.2530300"><time>2020-10-31T01:46:52.330</time></trkpt><trkpt lat="55.6572580" lon="38.2531950"><time>2020-10-31T01:47:07.327</time></trkpt><trkpt lat="55.6573170" lon="38.2532220"><time>2020-10-31T01:47:08.333</time></trkpt><trkpt lat="55.6573820" lon="38.2532700"><time>2020-10-31T01:47:09.330</time></trkpt><trkpt lat="55.6574320" lon="38.2533220"><time>2020-10-31T01:47:10.330</time></trkpt><trkpt lat="55.6574920" lon="38.2534180"><time>2020-10-31T01:47:11.323</time></trkpt><trkpt lat="55.6575680" lon="38.2535520"><time>2020-10-31T01:47:12.327</time></trkpt><trkpt lat="55.6576120" lon="38.2536030"><time>2020-10-31T01:47:13.327</time></trkpt><trkpt lat="55.6576720" lon="38.2536500"><time>2020-10-31T01:47:15.327</time></trkpt><trkpt lat="55.6577720" lon="38.2536750"><time>2020-10-31T01:47:46.330</time></trkpt><trkpt lat="55.6578270" lon="38.2537050"><time>2020-10-31T01:47:48.327</time></trkpt><trkpt lat="55.6578750" lon="38.2537070"><time>2020-10-31T01:47:50.327</time></trkpt><trkpt lat="55.6579000" lon="38.2537830"><time>2020-10-31T01:47:59.327</time></trkpt><trkpt lat="55.6579900" lon="38.2538450"><time>2020-10-31T01:48:01.327</time></trkpt><trkpt lat="55.6580330" lon="38.2539030"><time>2020-10-31T01:48:03.327</time></trkpt><trkpt lat="55.6580730" lon="38.2541400"><time>2020-10-31T01:48:23.333</time></trkpt><trkpt lat="55.6581750" lon="38.2541800"><time>2020-10-31T01:48:36.330</time></trkpt><trkpt lat="55.6583070" lon="38.2541370"><time>2020-10-31T01:48:45.337</time></trkpt><trkpt lat="55.6583680" lon="38.2541280"><time>2020-10-31T01:48:48.330</time></trkpt><trkpt lat="55.6584430" lon="38.2540320"><time>2020-10-31T01:48:55.330</time></trkpt><trkpt lat="55.6584880" lon="38.2540350"><time>2020-10-31T01:48:57.327</time></trkpt><trkpt lat="55.6586280" lon="38.2539200"><time>2020-10-31T01:49:03.337</time></trkpt><trkpt lat="55.6586780" lon="38.2538780"><time>2020-10-31T01:49:04.333</time></trkpt><trkpt lat="55.6587420" lon="38.2538100"><time>2020-10-31T01:49:06.327</time></trkpt><trkpt lat="55.6588080" lon="38.2538020"><time>2020-10-31T01:49:08.330</time></trkpt><trkpt lat="55.6588950" lon="38.2537920"><time>2020-10-31T01:49:10.330</time></trkpt><trkpt lat="55.6589450" lon="38.2537930"><time>2020-10-31T01:49:11.330</time></trkpt><trkpt lat="55.6589930" lon="38.2537900"><time>2020-10-31T01:49:12.333</time></trkpt><trkpt lat="55.6590700" lon="38.2537850"><time>2020-10-31T01:49:14.333</time></trkpt><trkpt lat="55.6591470" lon="38.2537920"><time>2020-10-31T01:49:16.330</time></trkpt><trkpt lat="55.6591950" lon="38.2537820"><time>2020-10-31T01:49:18.330</time></trkpt><trkpt lat="55.6593030" lon="38.2537270"><time>2020-10-31T01:49:26.333</time></trkpt><trkpt lat="55.6593450" lon="38.2536950"><time>2020-10-31T01:49:29.330</time></trkpt><trkpt lat="55.6594420" lon="38.2536520"><time>2020-10-31T01:49:34.330</time></trkpt><trkpt lat="55.6594880" lon="38.2536470"><time>2020-10-31T01:49:35.313</time></trkpt><trkpt lat="55.6595630" lon="38.2536650"><time>2020-10-31T01:49:37.330</time></trkpt><trkpt lat="55.6596230" lon="38.2536230"><time>2020-10-31T01:49:39.330</time></trkpt><trkpt lat="55.6596680" lon="38.2535500"><time>2020-10-31T01:49:41.327</time></trkpt><trkpt lat="55.6597950" lon="38.2535420"><time>2020-10-31T01:49:48.327</time></trkpt><trkpt lat="55.6599200" lon="38.2535350"><time>2020-10-31T01:49:59.330</time></trkpt><trkpt lat="55.6599900" lon="38.2535550"><time>2020-10-31T01:50:02.330</time></trkpt><trkpt lat="55.6600870" lon="38.2535950"><time>2020-10-31T01:50:06.330</time></trkpt><trkpt lat="55.6601950" lon="38.2537400"><time>2020-10-31T01:50:16.330</time></trkpt><trkpt lat="55.6603180" lon="38.2538320"><time>2020-10-31T01:50:31.330</time></trkpt><trkpt lat="55.6603650" lon="38.2538480"><time>2020-10-31T01:50:34.327</time></trkpt><trkpt lat="55.6604680" lon="38.2539280"><time>2020-10-31T01:50:36.330</time></trkpt><trkpt lat="55.6605330" lon="38.2539870"><time>2020-10-31T01:50:38.330</time></trkpt><trkpt lat="55.6606050" lon="38.2540220"><time>2020-10-31T01:50:40.330</time></trkpt><trkpt lat="55.6606950" lon="38.2540700"><time>2020-10-31T01:50:42.327</time></trkpt><trkpt lat="55.6607500" lon="38.2540780"><time>2020-10-31T01:50:43.330</time></trkpt><trkpt lat="55.6607970" lon="38.2540880"><time>2020-10-31T01:50:45.330</time></trkpt><trkpt lat="55.6608930" lon="38.2541570"><time>2020-10-31T01:50:54.330</time></trkpt><trkpt lat="55.6609320" lon="38.2542250"><time>2020-10-31T01:50:57.333</time></trkpt><trkpt lat="55.6610220" lon="38.2543120"><time>2020-10-31T01:51:07.333</time></trkpt><trkpt lat="55.6610730" lon="38.2543920"><time>2020-10-31T01:51:09.330</time></trkpt><trkpt lat="55.6611200" lon="38.2544400"><time>2020-10-31T01:51:10.337</time></trkpt><trkpt lat="55.6611670" lon="38.2544480"><time>2020-10-31T01:51:11.330</time></trkpt><trkpt lat="55.6612120" lon="38.2544630"><time>2020-10-31T01:51:12.333</time></trkpt><trkpt lat="55.6612900" lon="38.2544980"><time>2020-10-31T01:51:14.327</time></trkpt><trkpt lat="55.6613600" lon="38.2544720"><time>2020-10-31T01:51:17.333</time></trkpt><trkpt lat="55.6614080" lon="38.2544850"><time>2020-10-31T01:51:19.330</time></trkpt><trkpt lat="55.6614700" lon="38.2545170"><time>2020-10-31T01:51:21.330</time></trkpt><trkpt lat="55.6615450" lon="38.2546100"><time>2020-10-31T01:51:28.333</time></trkpt><trkpt lat="55.6615780" lon="38.2546630"><time>2020-10-31T01:51:29.327</time></trkpt><trkpt lat="55.6616030" lon="38.2547530"><time>2020-10-31T01:51:30.330</time></trkpt><trkpt lat="55.6616130" lon="38.2548330"><time>2020-10-31T01:51:31.330</time></trkpt><trkpt lat="55.6616530" lon="38.2549220"><time>2020-10-31T01:51:32.333</time></trkpt><trkpt lat="55.6616920" lon="38.2550230"><time>2020-10-31T01:51:34.330</time></trkpt><trkpt lat="55.6617400" lon="38.2550670"><time>2020-10-31T01:51:36.330</time></trkpt><trkpt lat="55.6618430" lon="38.2551770"><time>2020-10-31T01:51:51.330</time></trkpt><trkpt lat="55.6619680" lon="38.2552050"><time>2020-10-31T01:52:00.330</time></trkpt><trkpt lat="55.6620620" lon="38.2553680"><time>2020-10-31T01:52:13.333</time></trkpt><trkpt lat="55.6621570" lon="38.2554450"><time>2020-10-31T01:52:16.333</time></trkpt><trkpt lat="55.6622220" lon="38.2555800"><time>2020-10-31T01:52:22.330</time></trkpt><trkpt lat="55.6623020" lon="38.2557770"><time>2020-10-31T01:52:31.333</time></trkpt><trkpt lat="55.6623480" lon="38.2559680"><time>2020-10-31T01:52:44.333</time></trkpt><trkpt lat="55.6624230" lon="38.2561500"><time>2020-10-31T01:52:57.337</time></trkpt><trkpt lat="55.6624080" lon="38.2563830"><time>2020-10-31T01:53:11.330</time></trkpt><trkpt lat="55.6623750" lon="38.2566070"><time>2020-10-31T01:53:22.330</time></trkpt><trkpt lat="55.6623670" lon="38.2568580"><time>2020-10-31T01:53:33.337</time></trkpt><trkpt lat="55.6623570" lon="38.2569530"><time>2020-10-31T01:53:36.333</time></trkpt><trkpt lat="55.6623630" lon="38.2571230"><time>2020-10-31T01:53:43.333</time></trkpt><trkpt lat="55.6623730" lon="38.2571670"><time>2020-10-31T01:54:01.033</time></trkpt><trkpt lat="55.6624820" lon="38.2573900"><time>2020-10-31T01:54:11.327</time></trkpt><trkpt lat="55.6625650" lon="38.2572380"><time>2020-10-31T01:54:20.327</time></trkpt><trkpt lat="55.6625320" lon="38.2573380"><time>2020-10-31T01:54:21.333</time></trkpt><trkpt lat="55.6624850" lon="38.2575650"><time>2020-10-31T01:54:30.333</time></trkpt><trkpt lat="55.6624180" lon="38.2577530"><time>2020-10-31T01:54:49.337</time></trkpt><trkpt lat="55.6624000" lon="38.2579400"><time>2020-10-31T01:55:08.337</time></trkpt><trkpt lat="55.6624400" lon="38.2581320"><time>2020-10-31T01:55:28.333</time></trkpt><trkpt lat="55.6624820" lon="38.2581800"><time>2020-10-31T01:55:31.333</time></trkpt><trkpt lat="55.6625920" lon="38.2582370"><time>2020-10-31T01:55:38.333</time></trkpt><trkpt lat="55.6626020" lon="38.2584330"><time>2020-10-31T01:55:50.333</time></trkpt><trkpt lat="55.6626230" lon="38.2586550"><time>2020-10-31T01:56:01.337</time></trkpt><trkpt lat="55.6626350" lon="38.2587800"><time>2020-10-31T01:56:03.330</time></trkpt><trkpt lat="55.6626530" lon="38.2588980"><time>2020-10-31T01:56:05.330</time></trkpt><trkpt lat="55.6626700" lon="38.2590030"><time>2020-10-31T01:56:08.333</time></trkpt><trkpt lat="55.6626850" lon="38.2592050"><time>2020-10-31T01:56:21.330</time></trkpt><trkpt lat="55.6627500" lon="38.2593820"><time>2020-10-31T01:56:39.333</time></trkpt><trkpt lat="55.6627380" lon="38.2595920"><time>2020-10-31T01:56:51.333</time></trkpt><trkpt lat="55.6627770" lon="38.2597870"><time>2020-10-31T01:57:02.333</time></trkpt><trkpt lat="55.6628180" lon="38.2600000"><time>2020-10-31T01:57:13.333</time></trkpt><trkpt lat="55.6628270" lon="38.2600820"><time>2020-10-31T01:57:14.333</time></trkpt><trkpt lat="55.6628220" lon="38.2601980"><time>2020-10-31T01:57:16.333</time></trkpt><trkpt lat="55.6628620" lon="38.2604070"><time>2020-10-31T01:57:31.333</time></trkpt><trkpt lat="55.6628270" lon="38.2606200"><time>2020-10-31T01:57:47.333</time></trkpt><trkpt lat="55.6628270" lon="38.2607000"><time>2020-10-31T01:57:50.330</time></trkpt><trkpt lat="55.6628080" lon="38.2608750"><time>2020-10-31T01:57:59.330</time></trkpt><trkpt lat="55.6627200" lon="38.2610380"><time>2020-10-31T01:58:13.330</time></trkpt><trkpt lat="55.6627000" lon="38.2611170"><time>2020-10-31T01:58:16.330</time></trkpt><trkpt lat="55.6626620" lon="38.2612620"><time>2020-10-31T01:58:21.330</time></trkpt><trkpt lat="55.6626580" lon="38.2613480"><time>2020-10-31T01:58:24.333</time></trkpt><trkpt lat="55.6626480" lon="38.2615100"><time>2020-10-31T01:58:30.337</time></trkpt><trkpt lat="55.6626420" lon="38.2617400"><time>2020-10-31T01:58:41.330</time></trkpt><trkpt lat="55.6626500" lon="38.2618280"><time>2020-10-31T01:58:44.333</time></trkpt><trkpt lat="55.6626480" lon="38.2620030"><time>2020-10-31T01:58:50.333</time></trkpt><trkpt lat="55.6626700" lon="38.2621020"><time>2020-10-31T01:58:53.330</time></trkpt><trkpt lat="55.6626370" lon="38.2622670"><time>2020-10-31T01:59:06.337</time></trkpt><trkpt lat="55.6626970" lon="38.2624550"><time>2020-10-31T01:59:19.333</time></trkpt><trkpt lat="55.6627480" lon="38.2626700"><time>2020-10-31T01:59:33.333</time></trkpt><trkpt lat="55.6627980" lon="38.2628450"><time>2020-10-31T01:59:48.333</time></trkpt><trkpt lat="55.6628420" lon="38.2630520"><time>2020-10-31T02:00:00.333</time></trkpt><trkpt lat="55.6628330" lon="38.2631600"><time>2020-10-31T02:00:03.333</time></trkpt><trkpt lat="55.6628230" lon="38.2633030"><time>2020-10-31T02:00:05.333</time></trkpt><trkpt lat="55.6627370" lon="38.2633620"><time>2020-10-31T02:00:07.333</time></trkpt><trkpt lat="55.6627020" lon="38.2634120"><time>2020-10-31T02:00:09.333</time></trkpt><trkpt lat="55.6626350" lon="38.2634970"><time>2020-10-31T02:00:11.330</time></trkpt><trkpt lat="55.6626330" lon="38.2636320"><time>2020-10-31T02:00:15.333</time></trkpt><trkpt lat="55.6625930" lon="38.2636800"><time>2020-10-31T02:00:17.300</time></trkpt><trkpt lat="55.6625630" lon="38.2638370"><time>2020-10-31T02:00:18.317</time></trkpt><trkpt lat="55.6625230" lon="38.2638870"><time>2020-10-31T02:00:19.307</time></trkpt><trkpt lat="55.6625100" lon="38.2641600"><time>2020-10-31T02:00:20.307</time></trkpt><trkpt lat="55.6625180" lon="38.2642450"><time>2020-10-31T02:00:21.313</time></trkpt><trkpt lat="55.6624350" lon="38.2644100"><time>2020-10-31T02:00:23.287</time></trkpt><trkpt lat="55.6623400" lon="38.2643770"><time>2020-10-31T02:00:24.327</time></trkpt><trkpt lat="55.6624330" lon="38.2644720"><time>2020-10-31T02:00:25.287</time></trkpt><trkpt lat="55.6625500" lon="38.2645230"><time>2020-10-31T02:00:26.333</time></trkpt><trkpt lat="55.6626180" lon="38.2644200"><time>2020-10-31T02:00:27.333</time></trkpt><trkpt lat="55.6626800" lon="38.2642450"><time>2020-10-31T02:00:28.323</time></trkpt><trkpt lat="55.6627500" lon="38.2640780"><time>2020-10-31T02:00:29.337</time></trkpt><trkpt lat="55.6627930" lon="38.2639150"><time>2020-10-31T02:00:33.327</time></trkpt><trkpt lat="55.6627650" lon="38.2638330"><time>2020-10-31T02:00:34.333</time></trkpt><trkpt lat="55.6627520" lon="38.2637380"><time>2020-10-31T02:00:36.330</time></trkpt><trkpt lat="55.6627300" lon="38.2638380"><time>2020-10-31T02:00:41.333</time></trkpt><trkpt lat="55.6627600" lon="38.2639620"><time>2020-10-31T02:00:42.333</time></trkpt><trkpt lat="55.6627850" lon="38.2640320"><time>2020-10-31T02:00:44.330</time></trkpt><trkpt lat="55.6627700" lon="38.2641350"><time>2020-10-31T02:00:46.337</time></trkpt><trkpt lat="55.6627400" lon="38.2643420"><time>2020-10-31T02:01:26.330</time></trkpt><trkpt lat="55.6627300" lon="38.2644220"><time>2020-10-31T02:01:28.337</time></trkpt><trkpt lat="55.6626520" lon="38.2645170"><time>2020-10-31T02:01:30.320</time></trkpt><trkpt lat="55.6626230" lon="38.2645820"><time>2020-10-31T02:01:31.337</time></trkpt><trkpt lat="55.6625800" lon="38.2646430"><time>2020-10-31T02:01:32.333</time></trkpt><trkpt lat="55.6626050" lon="38.2647230"><time>2020-10-31T02:01:35.333</time></trkpt><trkpt lat="55.6627030" lon="38.2648480"><time>2020-10-31T02:02:00.333</time></trkpt><trkpt lat="55.6627700" lon="38.2650350"><time>2020-10-31T02:02:11.337</time></trkpt><trkpt lat="55.6628170" lon="38.2652420"><time>2020-10-31T02:02:23.333</time></trkpt><trkpt lat="55.6629250" lon="38.2654050"><time>2020-10-31T02:02:34.333</time></trkpt><trkpt lat="55.6629650" lon="38.2654530"><time>2020-10-31T02:02:37.333</time></trkpt><trkpt lat="55.6630770" lon="38.2655430"><time>2020-10-31T02:02:40.330</time></trkpt><trkpt lat="55.6631150" lon="38.2656550"><time>2020-10-31T02:02:46.337</time></trkpt><trkpt lat="55.6631650" lon="38.2657020"><time>2020-10-31T02:02:48.333</time></trkpt><trkpt lat="55.6632230" lon="38.2657630"><time>2020-10-31T02:02:51.327</time></trkpt><trkpt lat="55.6632620" lon="38.2658370"><time>2020-10-31T02:02:52.333</time></trkpt><trkpt lat="55.6633380" lon="38.2659170"><time>2020-10-31T02:02:53.313</time></trkpt><trkpt lat="55.6634080" lon="38.2660100"><time>2020-10-31T02:02:54.317</time></trkpt><trkpt lat="55.6634530" lon="38.2660370"><time>2020-10-31T02:02:55.333</time></trkpt><trkpt lat="55.6635270" lon="38.2660830"><time>2020-10-31T02:02:57.333</time></trkpt><trkpt lat="55.6635720" lon="38.2660920"><time>2020-10-31T02:03:04.337</time></trkpt><trkpt lat="55.6636770" lon="38.2660950"><time>2020-10-31T02:03:15.337</time></trkpt><trkpt lat="55.6637400" lon="38.2661370"><time>2020-10-31T02:03:17.330</time></trkpt><trkpt lat="55.6637850" lon="38.2661670"><time>2020-10-31T02:03:19.340</time></trkpt><trkpt lat="55.6638120" lon="38.2662630"><time>2020-10-31T02:03:22.330</time></trkpt><trkpt lat="55.6638480" lon="38.2663430"><time>2020-10-31T02:03:27.330</time></trkpt><trkpt lat="55.6639000" lon="38.2664080"><time>2020-10-31T02:03:30.333</time></trkpt><trkpt lat="55.6639500" lon="38.2664980"><time>2020-10-31T02:03:41.337</time></trkpt><trkpt lat="55.6639780" lon="38.2665720"><time>2020-10-31T02:03:44.337</time></trkpt><trkpt lat="55.6640120" lon="38.2666350"><time>2020-10-31T02:03:47.337</time></trkpt><trkpt lat="55.6640430" lon="38.2667030"><time>2020-10-31T02:03:50.337</time></trkpt><trkpt lat="55.6640650" lon="38.2667830"><time>2020-10-31T02:03:53.333</time></trkpt><trkpt lat="55.6641470" lon="38.2669380"><time>2020-10-31T02:04:06.337</time></trkpt><trkpt lat="55.6642580" lon="38.2670570"><time>2020-10-31T02:04:13.340</time></trkpt><trkpt lat="55.6643100" lon="38.2670830"><time>2020-10-31T02:04:14.333</time></trkpt><trkpt lat="55.6643580" lon="38.2671370"><time>2020-10-31T02:04:17.333</time></trkpt><trkpt lat="55.6643920" lon="38.2672330"><time>2020-10-31T02:04:20.340</time></trkpt><trkpt lat="55.6644300" lon="38.2673030"><time>2020-10-31T02:04:25.337</time></trkpt><trkpt lat="55.6645350" lon="38.2674480"><time>2020-10-31T02:04:36.337</time></trkpt><trkpt lat="55.6646350" lon="38.2675650"><time>2020-10-31T02:04:44.337</time></trkpt><trkpt lat="55.6647250" lon="38.2676120"><time>2020-10-31T02:04:45.337</time></trkpt><trkpt lat="55.6647720" lon="38.2676620"><time>2020-10-31T02:04:47.333</time></trkpt><trkpt lat="55.6647970" lon="38.2677480"><time>2020-10-31T02:04:50.337</time></trkpt><trkpt lat="55.6648400" lon="38.2678420"><time>2020-10-31T02:04:53.333</time></trkpt><trkpt lat="55.6648800" lon="38.2678880"><time>2020-10-31T02:04:55.337</time></trkpt><trkpt lat="55.6649280" lon="38.2679550"><time>2020-10-31T02:04:59.337</time></trkpt><trkpt lat="55.6649620" lon="38.2680280"><time>2020-10-31T02:05:03.333</time></trkpt><trkpt lat="55.6650420" lon="38.2681030"><time>2020-10-31T02:05:15.333</time></trkpt><trkpt lat="55.6652200" lon="38.2681320"><time>2020-10-31T02:05:23.333</time></trkpt><trkpt lat="55.6652720" lon="38.2681670"><time>2020-10-31T02:05:25.330</time></trkpt><trkpt lat="55.6653200" lon="38.2683000"><time>2020-10-31T02:05:27.333</time></trkpt><trkpt lat="55.6653620" lon="38.2684030"><time>2020-10-31T02:05:28.337</time></trkpt><trkpt lat="55.6653980" lon="38.2684570"><time>2020-10-31T02:05:29.337</time></trkpt><trkpt lat="55.6654350" lon="38.2685220"><time>2020-10-31T02:05:30.333</time></trkpt><trkpt lat="55.6654680" lon="38.2685880"><time>2020-10-31T02:05:31.337</time></trkpt><trkpt lat="55.6655250" lon="38.2687000"><time>2020-10-31T02:05:33.337</time></trkpt><trkpt lat="55.6656070" lon="38.2688400"><time>2020-10-31T02:05:35.333</time></trkpt><trkpt lat="55.6656470" lon="38.2688900"><time>2020-10-31T02:05:36.333</time></trkpt><trkpt lat="55.6657400" lon="38.2690180"><time>2020-10-31T02:05:37.337</time></trkpt><trkpt lat="55.6657800" lon="38.2691330"><time>2020-10-31T02:05:39.337</time></trkpt><trkpt lat="55.6658430" lon="38.2691870"><time>2020-10-31T02:05:42.337</time></trkpt><trkpt lat="55.6658930" lon="38.2691730"><time>2020-10-31T02:05:44.337</time></trkpt><trkpt lat="55.6659420" lon="38.2692120"><time>2020-10-31T02:05:47.337</time></trkpt><trkpt lat="55.6659870" lon="38.2692180"><time>2020-10-31T02:05:51.337</time></trkpt><trkpt lat="55.6660270" lon="38.2693050"><time>2020-10-31T02:05:56.337</time></trkpt><trkpt lat="55.6660880" lon="38.2693020"><time>2020-10-31T02:06:00.333</time></trkpt><trkpt lat="55.6661480" lon="38.2693370"><time>2020-10-31T02:06:03.337</time></trkpt><trkpt lat="55.6661930" lon="38.2693980"><time>2020-10-31T02:06:05.333</time></trkpt><trkpt lat="55.6662380" lon="38.2694480"><time>2020-10-31T02:06:09.333</time></trkpt><trkpt lat="55.6662830" lon="38.2694800"><time>2020-10-31T02:06:13.333</time></trkpt><trkpt lat="55.6663050" lon="38.2695620"><time>2020-10-31T02:06:15.337</time></trkpt><trkpt lat="55.6663480" lon="38.2696420"><time>2020-10-31T02:06:17.330</time></trkpt><trkpt lat="55.6663700" lon="38.2697120"><time>2020-10-31T02:06:19.333</time></trkpt><trkpt lat="55.6663980" lon="38.2698050"><time>2020-10-31T02:06:22.333</time></trkpt><trkpt lat="55.6664500" lon="38.2698680"><time>2020-10-31T02:06:25.330</time></trkpt><trkpt lat="55.6665020" lon="38.2699370"><time>2020-10-31T02:06:27.333</time></trkpt><trkpt lat="55.6666180" lon="38.2700970"><time>2020-10-31T02:06:29.327</time></trkpt><trkpt lat="55.6666720" lon="38.2702520"><time>2020-10-31T02:06:30.337</time></trkpt><trkpt lat="55.6667880" lon="38.2704170"><time>2020-10-31T02:06:31.333</time></trkpt><trkpt lat="55.6668600" lon="38.2705770"><time>2020-10-31T02:06:32.337</time></trkpt><trkpt lat="55.6669200" lon="38.2706320"><time>2020-10-31T02:06:33.333</time></trkpt><trkpt lat="55.6669020" lon="38.2705150"><time>2020-10-31T02:06:36.333</time></trkpt><trkpt lat="55.6668620" lon="38.2704630"><time>2020-10-31T02:06:38.333</time></trkpt><trkpt lat="55.6669150" lon="38.2704170"><time>2020-10-31T02:06:44.330</time></trkpt><trkpt lat="55.6669620" lon="38.2704570"><time>2020-10-31T02:06:47.333</time></trkpt><trkpt lat="55.6670020" lon="38.2705180"><time>2020-10-31T02:06:49.330</time></trkpt><trkpt lat="55.6670520" lon="38.2705770"><time>2020-10-31T02:06:51.333</time></trkpt><trkpt lat="55.6670950" lon="38.2706250"><time>2020-10-31T02:06:52.333</time></trkpt><trkpt lat="55.6671300" lon="38.2706920"><time>2020-10-31T02:06:53.330</time></trkpt><trkpt lat="55.6671630" lon="38.2707800"><time>2020-10-31T02:06:54.333</time></trkpt><trkpt lat="55.6671930" lon="38.2708400"><time>2020-10-31T02:06:55.333</time></trkpt><trkpt lat="55.6672300" lon="38.2708880"><time>2020-10-31T02:06:58.333</time></trkpt><trkpt lat="55.6672700" lon="38.2710320"><time>2020-10-31T02:07:06.337</time></trkpt><trkpt lat="55.6673020" lon="38.2708870"><time>2020-10-31T02:07:10.337</time></trkpt><trkpt lat="55.6673550" lon="38.2710030"><time>2020-10-31T02:07:12.337</time></trkpt><trkpt lat="55.6673830" lon="38.2710930"><time>2020-10-31T02:07:13.337</time></trkpt><trkpt lat="55.6674200" lon="38.2711450"><time>2020-10-31T02:07:14.337</time></trkpt><trkpt lat="55.6674500" lon="38.2712100"><time>2020-10-31T02:07:16.333</time></trkpt><trkpt lat="55.6674950" lon="38.2713200"><time>2020-10-31T02:07:19.333</time></trkpt><trkpt lat="55.6675420" lon="38.2714200"><time>2020-10-31T02:07:21.333</time></trkpt><trkpt lat="55.6675870" lon="38.2714820"><time>2020-10-31T02:07:23.330</time></trkpt><trkpt lat="55.6676470" lon="38.2715220"><time>2020-10-31T02:07:26.337</time></trkpt><trkpt lat="55.6676950" lon="38.2715480"><time>2020-10-31T02:07:31.333</time></trkpt><trkpt lat="55.6677480" lon="38.2715930"><time>2020-10-31T02:07:35.333</time></trkpt><trkpt lat="55.6677950" lon="38.2716450"><time>2020-10-31T02:07:38.333</time></trkpt><trkpt lat="55.6678450" lon="38.2716700"><time>2020-10-31T02:07:46.333</time></trkpt><trkpt lat="55.6679350" lon="38.2717300"><time>2020-10-31T02:07:48.333</time></trkpt><trkpt lat="55.6679820" lon="38.2717920"><time>2020-10-31T02:07:50.337</time></trkpt><trkpt lat="55.6680280" lon="38.2718280"><time>2020-10-31T02:07:53.327</time></trkpt><trkpt lat="55.6680650" lon="38.2719350"><time>2020-10-31T02:07:56.330</time></trkpt><trkpt lat="55.6681130" lon="38.2719880"><time>2020-10-31T02:07:58.333</time></trkpt><trkpt lat="55.6681470" lon="38.2720600"><time>2020-10-31T02:08:00.330</time></trkpt><trkpt lat="55.6681850" lon="38.2721700"><time>2020-10-31T02:08:02.333</time></trkpt><trkpt lat="55.6682480" lon="38.2722730"><time>2020-10-31T02:08:04.333</time></trkpt><trkpt lat="55.6682880" lon="38.2723400"><time>2020-10-31T02:08:06.333</time></trkpt><trkpt lat="55.6683550" lon="38.2724200"><time>2020-10-31T02:08:11.333</time></trkpt><trkpt lat="55.6684080" lon="38.2724830"><time>2020-10-31T02:08:13.333</time></trkpt><trkpt lat="55.6684530" lon="38.2725280"><time>2020-10-31T02:08:16.333</time></trkpt><trkpt lat="55.6685330" lon="38.2726450"><time>2020-10-31T02:08:24.330</time></trkpt><trkpt lat="55.6686070" lon="38.2726770"><time>2020-10-31T02:08:28.333</time></trkpt><trkpt lat="55.6686600" lon="38.2726970"><time>2020-10-31T02:08:29.333</time></trkpt><trkpt lat="55.6687000" lon="38.2727770"><time>2020-10-31T02:08:31.333</time></trkpt><trkpt lat="55.6687400" lon="38.2728230"><time>2020-10-31T02:08:33.327</time></trkpt><trkpt lat="55.6687970" lon="38.2728950"><time>2020-10-31T02:08:36.330</time></trkpt><trkpt lat="55.6688420" lon="38.2729930"><time>2020-10-31T02:08:47.337</time></trkpt><trkpt lat="55.6688880" lon="38.2730730"><time>2020-10-31T02:08:49.337</time></trkpt><trkpt lat="55.6688720" lon="38.2731980"><time>2020-10-31T02:08:51.333</time></trkpt><trkpt lat="55.6688630" lon="38.2732930"><time>2020-10-31T02:08:53.330</time></trkpt><trkpt lat="55.6688750" lon="38.2734120"><time>2020-10-31T02:08:55.337</time></trkpt><trkpt lat="55.6688830" lon="38.2735150"><time>2020-10-31T02:08:58.337</time></trkpt><trkpt lat="55.6689300" lon="38.2735320"><time>2020-10-31T02:09:03.337</time></trkpt><trkpt lat="55.6690080" lon="38.2736800"><time>2020-10-31T02:09:20.333</time></trkpt><trkpt lat="55.6690630" lon="38.2738320"><time>2020-10-31T02:09:32.337</time></trkpt><trkpt lat="55.6691670" lon="38.2739330"><time>2020-10-31T02:09:40.330</time></trkpt><trkpt lat="55.6692980" lon="38.2740900"><time>2020-10-31T02:09:49.333</time></trkpt><trkpt lat="55.6693570" lon="38.2740830"><time>2020-10-31T02:09:50.337</time></trkpt><trkpt lat="55.6693830" lon="38.2742420"><time>2020-10-31T02:09:52.337</time></trkpt><trkpt lat="55.6694480" lon="38.2742470"><time>2020-10-31T02:09:53.333</time></trkpt><trkpt lat="55.6695130" lon="38.2742620"><time>2020-10-31T02:09:54.330</time></trkpt><trkpt lat="55.6695950" lon="38.2743930"><time>2020-10-31T02:09:56.333</time></trkpt><trkpt lat="55.6696280" lon="38.2744970"><time>2020-10-31T02:09:57.333</time></trkpt><trkpt lat="55.6696650" lon="38.2745600"><time>2020-10-31T02:09:58.330</time></trkpt><trkpt lat="55.6697220" lon="38.2745520"><time>2020-10-31T02:09:59.337</time></trkpt><trkpt lat="55.6697900" lon="38.2745620"><time>2020-10-31T02:10:01.333</time></trkpt><trkpt lat="55.6698420" lon="38.2745550"><time>2020-10-31T02:10:03.330</time></trkpt><trkpt lat="55.6699080" lon="38.2745270"><time>2020-10-31T02:10:04.333</time></trkpt><trkpt lat="55.6699650" lon="38.2745350"><time>2020-10-31T02:10:06.330</time></trkpt><trkpt lat="55.6700200" lon="38.2745820"><time>2020-10-31T02:10:09.333</time></trkpt><trkpt lat="55.6700770" lon="38.2746300"><time>2020-10-31T02:10:12.333</time></trkpt><trkpt lat="55.6701270" lon="38.2746570"><time>2020-10-31T02:10:14.333</time></trkpt><trkpt lat="55.6701900" lon="38.2746580"><time>2020-10-31T02:10:16.333</time></trkpt><trkpt lat="55.6702300" lon="38.2747250"><time>2020-10-31T02:10:19.337</time></trkpt><trkpt lat="55.6702850" lon="38.2749130"><time>2020-10-31T02:10:30.337</time></trkpt><trkpt lat="55.6703020" lon="38.2750470"><time>2020-10-31T02:10:34.333</time></trkpt><trkpt lat="55.6703370" lon="38.2751720"><time>2020-10-31T02:10:36.330</time></trkpt><trkpt lat="55.6703630" lon="38.2752450"><time>2020-10-31T02:10:37.337</time></trkpt><trkpt lat="55.6704170" lon="38.2753370"><time>2020-10-31T02:10:38.333</time></trkpt><trkpt lat="55.6704670" lon="38.2753750"><time>2020-10-31T02:10:40.337</time></trkpt><trkpt lat="55.6705030" lon="38.2754370"><time>2020-10-31T02:10:43.337</time></trkpt><trkpt lat="55.6705780" lon="38.2755830"><time>2020-10-31T02:10:57.353</time></trkpt><trkpt lat="55.6706320" lon="38.2756030"><time>2020-10-31T02:11:00.333</time></trkpt><trkpt lat="55.6707330" lon="38.2756850"><time>2020-10-31T02:11:02.333</time></trkpt><trkpt lat="55.6707820" lon="38.2757200"><time>2020-10-31T02:11:03.303</time></trkpt><trkpt lat="55.6708230" lon="38.2758230"><time>2020-10-31T02:11:05.327</time></trkpt><trkpt lat="55.6708530" lon="38.2759000"><time>2020-10-31T02:11:08.337</time></trkpt><trkpt lat="55.6709200" lon="38.2760770"><time>2020-10-31T02:11:23.337</time></trkpt><trkpt lat="55.6710120" lon="38.2762470"><time>2020-10-31T02:11:43.330</time></trkpt><trkpt lat="55.6710870" lon="38.2763700"><time>2020-10-31T02:11:57.337</time></trkpt><trkpt lat="55.6711180" lon="38.2764350"><time>2020-10-31T02:12:01.333</time></trkpt><trkpt lat="55.6712280" lon="38.2764780"><time>2020-10-31T02:12:08.333</time></trkpt><trkpt lat="55.6712820" lon="38.2765130"><time>2020-10-31T02:12:11.333</time></trkpt><trkpt lat="55.6713630" lon="38.2766070"><time>2020-10-31T02:12:17.333</time></trkpt><trkpt lat="55.6714050" lon="38.2767780"><time>2020-10-31T02:12:29.333</time></trkpt><trkpt lat="55.6714520" lon="38.2768020"><time>2020-10-31T02:12:31.337</time></trkpt><trkpt lat="55.6715000" lon="38.2768180"><time>2020-10-31T02:12:33.337</time></trkpt><trkpt lat="55.6715750" lon="38.2769320"><time>2020-10-31T02:12:51.337</time></trkpt><trkpt lat="55.6716780" lon="38.2770280"><time>2020-10-31T02:13:03.333</time></trkpt><trkpt lat="55.6717370" lon="38.2772270"><time>2020-10-31T02:13:15.333</time></trkpt><trkpt lat="55.6718250" lon="38.2773980"><time>2020-10-31T02:13:23.337</time></trkpt><trkpt lat="55.6718580" lon="38.2774550"><time>2020-10-31T02:13:26.333</time></trkpt><trkpt lat="55.6719270" lon="38.2775780"><time>2020-10-31T02:13:34.337</time></trkpt><trkpt lat="55.6719650" lon="38.2776250"><time>2020-10-31T02:13:37.333</time></trkpt><trkpt lat="55.6720280" lon="38.2777450"><time>2020-10-31T02:13:53.337</time></trkpt><trkpt lat="55.6720630" lon="38.2778820"><time>2020-10-31T02:13:56.337</time></trkpt><trkpt lat="55.6720670" lon="38.2780080"><time>2020-10-31T02:13:58.337</time></trkpt><trkpt lat="55.6720680" lon="38.2781020"><time>2020-10-31T02:14:01.337</time></trkpt><trkpt lat="55.6720800" lon="38.2783250"><time>2020-10-31T02:14:21.330</time></trkpt><trkpt lat="55.6720500" lon="38.2785180"><time>2020-10-31T02:14:43.337</time></trkpt><trkpt lat="55.6719620" lon="38.2786820"><time>2020-10-31T02:15:01.333</time></trkpt><trkpt lat="55.6719430" lon="38.2788920"><time>2020-10-31T02:15:25.333</time></trkpt><trkpt lat="55.6719050" lon="38.2790620"><time>2020-10-31T02:15:48.337</time></trkpt><trkpt lat="55.6718980" lon="38.2792550"><time>2020-10-31T02:16:03.333</time></trkpt><trkpt lat="55.6718820" lon="38.2793370"><time>2020-10-31T02:16:04.333</time></trkpt><trkpt lat="55.6718800" lon="38.2794220"><time>2020-10-31T02:16:06.333</time></trkpt><trkpt lat="55.6718950" lon="38.2795030"><time>2020-10-31T02:16:08.330</time></trkpt><trkpt lat="55.6719470" lon="38.2795200"><time>2020-10-31T02:16:12.333</time></trkpt><trkpt lat="55.6720020" lon="38.2794400"><time>2020-10-31T02:16:15.330</time></trkpt><trkpt lat="55.6720220" lon="38.2793330"><time>2020-10-31T02:16:18.330</time></trkpt><trkpt lat="55.6720670" lon="38.2793680"><time>2020-10-31T02:16:25.340</time></trkpt><trkpt lat="55.6720730" lon="38.2794530"><time>2020-10-31T02:16:26.297</time></trkpt><trkpt lat="55.6720350" lon="38.2797500"><time>2020-10-31T02:16:27.300</time></trkpt><trkpt lat="55.6720350" lon="38.2797500"><time>2020-10-31T02:16:27.673</time></trkpt><trkpt lat="55.6720000" lon="38.2801620"><time>2020-10-31T02:16:28.297</time></trkpt><trkpt lat="55.6719120" lon="38.2803750"><time>2020-10-31T02:16:29.287</time></trkpt><trkpt lat="55.6718720" lon="38.2813230"><time>2020-10-31T02:16:32.327</time></trkpt><trkpt lat="55.6718650" lon="38.2811120"><time>2020-10-31T02:16:33.327</time></trkpt><trkpt lat="55.6718580" lon="38.2809800"><time>2020-10-31T02:16:34.287</time></trkpt><trkpt lat="55.6718720" lon="38.2805100"><time>2020-10-31T02:16:35.323</time></trkpt><trkpt lat="55.6718680" lon="38.2801900"><time>2020-10-31T02:16:36.327</time></trkpt><trkpt lat="55.6718720" lon="38.2800480"><time>2020-10-31T02:16:37.327</time></trkpt><trkpt lat="55.6718320" lon="38.2796450"><time>2020-10-31T02:16:38.330</time></trkpt><trkpt lat="55.6718330" lon="38.2795170"><time>2020-10-31T02:16:40.330</time></trkpt><trkpt lat="55.6718750" lon="38.2794450"><time>2020-10-31T02:16:46.333</time></trkpt><trkpt lat="55.6717750" lon="38.2794030"><time>2020-10-31T02:17:03.330</time></trkpt><trkpt lat="55.6716970" lon="38.2793150"><time>2020-10-31T02:17:22.303</time></trkpt><trkpt lat="55.6716450" lon="38.2792770"><time>2020-10-31T02:17:25.343</time></trkpt><trkpt lat="55.6715980" lon="38.2792630"><time>2020-10-31T02:17:27.333</time></trkpt><trkpt lat="55.6714880" lon="38.2793270"><time>2020-10-31T02:17:37.333</time></trkpt><trkpt lat="55.6713870" lon="38.2792670"><time>2020-10-31T02:17:43.330</time></trkpt><trkpt lat="55.6713370" lon="38.2792520"><time>2020-10-31T02:17:45.333</time></trkpt><trkpt lat="55.6712880" lon="38.2792300"><time>2020-10-31T02:17:47.333</time></trkpt><trkpt lat="55.6712380" lon="38.2792200"><time>2020-10-31T02:17:50.333</time></trkpt><trkpt lat="55.6711200" lon="38.2792250"><time>2020-10-31T02:18:03.333</time></trkpt><trkpt lat="55.6710520" lon="38.2790830"><time>2020-10-31T02:18:28.330</time></trkpt><trkpt lat="55.6710130" lon="38.2790130"><time>2020-10-31T02:18:31.337</time></trkpt><trkpt lat="55.6709770" lon="38.2789530"><time>2020-10-31T02:18:33.333</time></trkpt><trkpt lat="55.6708930" lon="38.2787700"><time>2020-10-31T02:18:46.333</time></trkpt><trkpt lat="55.6708320" lon="38.2785270"><time>2020-10-31T02:18:58.337</time></trkpt><trkpt lat="55.6707920" lon="38.2783430"><time>2020-10-31T02:19:00.333</time></trkpt><trkpt lat="55.6707620" lon="38.2782720"><time>2020-10-31T02:19:02.333</time></trkpt><trkpt lat="55.6707170" lon="38.2781770"><time>2020-10-31T02:19:04.330</time></trkpt><trkpt lat="55.6706680" lon="38.2781100"><time>2020-10-31T02:19:07.337</time></trkpt><trkpt lat="55.6706220" lon="38.2781350"><time>2020-10-31T02:19:11.333</time></trkpt><trkpt lat="55.6705700" lon="38.2781650"><time>2020-10-31T02:19:15.323</time></trkpt><trkpt lat="55.6705300" lon="38.2782170"><time>2020-10-31T02:19:17.333</time></trkpt><trkpt lat="55.6704970" lon="38.2782730"><time>2020-10-31T02:19:20.340</time></trkpt><trkpt lat="55.6704520" lon="38.2782800"><time>2020-10-31T02:19:22.337</time></trkpt><trkpt lat="55.6703150" lon="38.2782480"><time>2020-10-31T02:19:35.330</time></trkpt><trkpt lat="55.6702680" lon="38.2782700"><time>2020-10-31T02:19:38.337</time></trkpt><trkpt lat="55.6701450" lon="38.2782750"><time>2020-10-31T02:19:51.333</time></trkpt><trkpt lat="55.6700320" lon="38.2782870"><time>2020-10-31T02:20:05.330</time></trkpt><trkpt lat="55.6698880" lon="38.2782880"><time>2020-10-31T02:20:18.337</time></trkpt><trkpt lat="55.6698220" lon="38.2783050"><time>2020-10-31T02:20:21.337</time></trkpt><trkpt lat="55.6697400" lon="38.2783620"><time>2020-10-31T02:20:24.333</time></trkpt><trkpt lat="55.6696850" lon="38.2783670"><time>2020-10-31T02:20:27.327</time></trkpt><trkpt lat="55.6696300" lon="38.2783500"><time>2020-10-31T02:20:31.337</time></trkpt><trkpt lat="55.6695220" lon="38.2783850"><time>2020-10-31T02:20:44.330</time></trkpt><trkpt lat="55.6694280" lon="38.2785050"><time>2020-10-31T02:20:54.333</time></trkpt><trkpt lat="55.6693670" lon="38.2785500"><time>2020-10-31T02:20:58.327</time></trkpt><trkpt lat="55.6692550" lon="38.2786250"><time>2020-10-31T02:21:19.337</time></trkpt><trkpt lat="55.6691680" lon="38.2787370"><time>2020-10-31T02:21:35.333</time></trkpt><trkpt lat="55.6690600" lon="38.2788600"><time>2020-10-31T02:21:47.333</time></trkpt><trkpt lat="55.6689980" lon="38.2788730"><time>2020-10-31T02:21:51.330</time></trkpt><trkpt lat="55.6689380" lon="38.2788580"><time>2020-10-31T02:21:54.333</time></trkpt><trkpt lat="55.6688670" lon="38.2789030"><time>2020-10-31T02:21:59.333</time></trkpt><trkpt lat="55.6687470" lon="38.2788550"><time>2020-10-31T02:22:11.333</time></trkpt><trkpt lat="55.6686150" lon="38.2788680"><time>2020-10-31T02:22:28.333</time></trkpt><trkpt lat="55.6685300" lon="38.2788950"><time>2020-10-31T02:22:41.333</time></trkpt><trkpt lat="55.6684580" lon="38.2788750"><time>2020-10-31T02:22:46.333</time></trkpt><trkpt lat="55.6684080" lon="38.2788870"><time>2020-10-31T02:22:50.333</time></trkpt><trkpt lat="55.6683150" lon="38.2789100"><time>2020-10-31T02:23:01.330</time></trkpt><trkpt lat="55.6681870" lon="38.2789570"><time>2020-10-31T02:23:17.330</time></trkpt><trkpt lat="55.6681430" lon="38.2791580"><time>2020-10-31T02:23:31.330</time></trkpt><trkpt lat="55.6680950" lon="38.2793530"><time>2020-10-31T02:23:43.337</time></trkpt><trkpt lat="55.6680850" lon="38.2794420"><time>2020-10-31T02:23:46.333</time></trkpt><trkpt lat="55.6680570" lon="38.2795270"><time>2020-10-31T02:23:48.330</time></trkpt><trkpt lat="55.6680330" lon="38.2796330"><time>2020-10-31T02:23:52.333</time></trkpt><trkpt lat="55.6680200" lon="38.2797550"><time>2020-10-31T02:23:55.340</time></trkpt><trkpt lat="55.6680050" lon="38.2798570"><time>2020-10-31T02:23:58.333</time></trkpt><trkpt lat="55.6679780" lon="38.2799520"><time>2020-10-31T02:24:00.337</time></trkpt><trkpt lat="55.6679600" lon="38.2800430"><time>2020-10-31T02:24:03.337</time></trkpt><trkpt lat="55.6679370" lon="38.2801280"><time>2020-10-31T02:24:05.333</time></trkpt><trkpt lat="55.6679120" lon="38.2802280"><time>2020-10-31T02:24:08.337</time></trkpt><trkpt lat="55.6678900" lon="38.2803200"><time>2020-10-31T02:24:12.337</time></trkpt><trkpt lat="55.6678570" lon="38.2804720"><time>2020-10-31T02:24:19.333</time></trkpt><trkpt lat="55.6678550" lon="38.2805930"><time>2020-10-31T02:24:23.337</time></trkpt><trkpt lat="55.6678600" lon="38.2806850"><time>2020-10-31T02:24:25.337</time></trkpt><trkpt lat="55.6678350" lon="38.2809230"><time>2020-10-31T02:24:38.337</time></trkpt><trkpt lat="55.6678170" lon="38.2810200"><time>2020-10-31T02:24:42.337</time></trkpt><trkpt lat="55.6678120" lon="38.2811180"><time>2020-10-31T02:24:45.330</time></trkpt><trkpt lat="55.6678180" lon="38.2812120"><time>2020-10-31T02:24:50.330</time></trkpt><trkpt lat="55.6678450" lon="38.2813670"><time>2020-10-31T02:24:59.333</time></trkpt><trkpt lat="55.6678830" lon="38.2815780"><time>2020-10-31T02:25:18.333</time></trkpt><trkpt lat="55.6678580" lon="38.2817030"><time>2020-10-31T02:25:21.337</time></trkpt><trkpt lat="55.6678180" lon="38.2817430"><time>2020-10-31T02:25:23.337</time></trkpt><trkpt lat="55.6677650" lon="38.2817900"><time>2020-10-31T02:25:25.333</time></trkpt><trkpt lat="55.6677200" lon="38.2817780"><time>2020-10-31T02:25:28.337</time></trkpt><trkpt lat="55.6676730" lon="38.2817480"><time>2020-10-31T02:25:31.340</time></trkpt><trkpt lat="55.6676230" lon="38.2817130"><time>2020-10-31T02:25:33.337</time></trkpt><trkpt lat="55.6675380" lon="38.2816450"><time>2020-10-31T02:25:39.337</time></trkpt><trkpt lat="55.6674920" lon="38.2816270"><time>2020-10-31T02:25:40.340</time></trkpt><trkpt lat="55.6674500" lon="38.2815970"><time>2020-10-31T02:25:43.337</time></trkpt><trkpt lat="55.6673230" lon="38.2814980"><time>2020-10-31T02:25:51.333</time></trkpt><trkpt lat="55.6672580" lon="38.2814270"><time>2020-10-31T02:25:53.337</time></trkpt><trkpt lat="55.6671970" lon="38.2813820"><time>2020-10-31T02:25:55.343</time></trkpt><trkpt lat="55.6671400" lon="38.2813380"><time>2020-10-31T02:25:57.340</time></trkpt><trkpt lat="55.6671000" lon="38.2812880"><time>2020-10-31T02:25:59.333</time></trkpt><trkpt lat="55.6670400" lon="38.2812280"><time>2020-10-31T02:26:01.337</time></trkpt><trkpt lat="55.6669900" lon="38.2811820"><time>2020-10-31T02:26:03.337</time></trkpt><trkpt lat="55.6669470" lon="38.2811350"><time>2020-10-31T02:26:05.337</time></trkpt><trkpt lat="55.6668880" lon="38.2810730"><time>2020-10-31T02:26:07.340</time></trkpt><trkpt lat="55.6667850" lon="38.2809850"><time>2020-10-31T02:26:14.340</time></trkpt><trkpt lat="55.6667400" lon="38.2809720"><time>2020-10-31T02:26:15.337</time></trkpt><trkpt lat="55.6666820" lon="38.2809050"><time>2020-10-31T02:26:17.333</time></trkpt><trkpt lat="55.6666330" lon="38.2808480"><time>2020-10-31T02:26:19.343</time></trkpt><trkpt lat="55.6665680" lon="38.2808180"><time>2020-10-31T02:26:22.337</time></trkpt><trkpt lat="55.6665320" lon="38.2807680"><time>2020-10-31T02:26:24.337</time></trkpt><trkpt lat="55.6664600" lon="38.2806320"><time>2020-10-31T02:26:31.330</time></trkpt><trkpt lat="55.6664170" lon="38.2805380"><time>2020-10-31T02:26:33.337</time></trkpt><trkpt lat="55.6663320" lon="38.2804020"><time>2020-10-31T02:26:45.337</time></trkpt><trkpt lat="55.6662930" lon="38.2803500"><time>2020-10-31T02:26:48.340</time></trkpt><trkpt lat="55.6662200" lon="38.2802530"><time>2020-10-31T02:26:57.337</time></trkpt><trkpt lat="55.6661030" lon="38.2801380"><time>2020-10-31T02:27:04.340</time></trkpt><trkpt lat="55.6660570" lon="38.2801120"><time>2020-10-31T02:27:06.337</time></trkpt><trkpt lat="55.6659720" lon="38.2800320"><time>2020-10-31T02:27:09.333</time></trkpt><trkpt lat="55.6659300" lon="38.2799700"><time>2020-10-31T02:27:10.333</time></trkpt><trkpt lat="55.6658770" lon="38.2798700"><time>2020-10-31T02:27:12.337</time></trkpt><trkpt lat="55.6658370" lon="38.2798050"><time>2020-10-31T02:27:14.337</time></trkpt><trkpt lat="55.6657870" lon="38.2797200"><time>2020-10-31T02:27:17.337</time></trkpt><trkpt lat="55.6657530" lon="38.2796550"><time>2020-10-31T02:27:19.337</time></trkpt><trkpt lat="55.6657180" lon="38.2795520"><time>2020-10-31T02:27:21.337</time></trkpt><trkpt lat="55.6656770" lon="38.2794950"><time>2020-10-31T02:27:23.337</time></trkpt><trkpt lat="55.6656280" lon="38.2794600"><time>2020-10-31T02:27:26.337</time></trkpt><trkpt lat="55.6655830" lon="38.2794550"><time>2020-10-31T02:27:29.337</time></trkpt><trkpt lat="55.6655430" lon="38.2794120"><time>2020-10-31T02:27:31.337</time></trkpt><trkpt lat="55.6655050" lon="38.2793500"><time>2020-10-31T02:27:33.337</time></trkpt><trkpt lat="55.6654780" lon="38.2792470"><time>2020-10-31T02:27:35.333</time></trkpt><trkpt lat="55.6654320" lon="38.2792050"><time>2020-10-31T02:27:37.337</time></trkpt><trkpt lat="55.6653820" lon="38.2792030"><time>2020-10-31T02:27:39.333</time></trkpt><trkpt lat="55.6653170" lon="38.2791950"><time>2020-10-31T02:27:41.337</time></trkpt><trkpt lat="55.6652580" lon="38.2791820"><time>2020-10-31T02:27:44.337</time></trkpt><trkpt lat="55.6652080" lon="38.2791700"><time>2020-10-31T02:27:48.337</time></trkpt><trkpt lat="55.6651100" lon="38.2791680"><time>2020-10-31T02:27:53.357</time></trkpt><trkpt lat="55.6650180" lon="38.2791470"><time>2020-10-31T02:27:54.333</time></trkpt><trkpt lat="55.6649480" lon="38.2791200"><time>2020-10-31T02:27:55.343</time></trkpt><trkpt lat="55.6648320" lon="38.2791030"><time>2020-10-31T02:27:56.320</time></trkpt><trkpt lat="55.6648520" lon="38.2791750"><time>2020-10-31T02:27:57.337</time></trkpt><trkpt lat="55.6647950" lon="38.2792150"><time>2020-10-31T02:28:00.337</time></trkpt><trkpt lat="55.6647430" lon="38.2791930"><time>2020-10-31T02:28:05.330</time></trkpt><trkpt lat="55.6646870" lon="38.2791530"><time>2020-10-31T02:28:10.337</time></trkpt><trkpt lat="55.6646450" lon="38.2791050"><time>2020-10-31T02:28:12.333</time></trkpt><trkpt lat="55.6645820" lon="38.2790250"><time>2020-10-31T02:28:14.337</time></trkpt><trkpt lat="55.6645450" lon="38.2789730"><time>2020-10-31T02:28:16.337</time></trkpt><trkpt lat="55.6644780" lon="38.2789850"><time>2020-10-31T02:28:20.333</time></trkpt><trkpt lat="55.6644380" lon="38.2790450"><time>2020-10-31T02:28:22.333</time></trkpt><trkpt lat="55.6643850" lon="38.2790270"><time>2020-10-31T02:28:25.340</time></trkpt><trkpt lat="55.6643220" lon="38.2790070"><time>2020-10-31T02:28:29.337</time></trkpt><trkpt lat="55.6642770" lon="38.2789770"><time>2020-10-31T02:28:32.333</time></trkpt><trkpt lat="55.6642430" lon="38.2789150"><time>2020-10-31T02:28:49.337</time></trkpt><trkpt lat="55.6642730" lon="38.2788320"><time>2020-10-31T02:28:52.333</time></trkpt><trkpt lat="55.6643080" lon="38.2786580"><time>2020-10-31T02:29:08.337</time></trkpt><trkpt lat="55.6641720" lon="38.2786770"><time>2020-10-31T02:29:23.673</time></trkpt><trkpt lat="55.6641650" lon="38.2783730"><time>2020-10-31T02:29:25.307</time></trkpt><trkpt lat="55.6641650" lon="38.2783730"><time>2020-10-31T02:29:36.577</time></trkpt><trkpt lat="55.6642480" lon="38.2786680"><time>2020-10-31T02:29:48.327</time></trkpt><trkpt lat="55.6642050" lon="38.2787220"><time>2020-10-31T02:29:49.330</time></trkpt><trkpt lat="55.6642480" lon="38.2785630"><time>2020-10-31T02:29:56.330</time></trkpt><trkpt lat="55.6642500" lon="38.2784400"><time>2020-10-31T02:30:11.337</time></trkpt><trkpt lat="55.6642870" lon="38.2783750"><time>2020-10-31T02:30:22.337</time></trkpt><trkpt lat="55.6642900" lon="38.2781850"><time>2020-10-31T02:30:43.337</time></trkpt><trkpt lat="55.6643770" lon="38.2780580"><time>2020-10-31T02:30:55.343</time></trkpt><trkpt lat="55.6644700" lon="38.2778980"><time>2020-10-31T02:31:18.330</time></trkpt><trkpt lat="55.6644130" lon="38.2777620"><time>2020-10-31T02:31:40.333</time></trkpt><trkpt lat="55.6643020" lon="38.2776850"><time>2020-10-31T02:31:53.337</time></trkpt><trkpt lat="55.6642570" lon="38.2776280"><time>2020-10-31T02:31:54.337</time></trkpt><trkpt lat="55.6641980" lon="38.2775400"><time>2020-10-31T02:31:55.427</time></trkpt><trkpt lat="55.6641680" lon="38.2774320"><time>2020-10-31T02:31:56.340</time></trkpt><trkpt lat="55.6641380" lon="38.2773400"><time>2020-10-31T02:31:57.337</time></trkpt><trkpt lat="55.6641150" lon="38.2772450"><time>2020-10-31T02:31:59.340</time></trkpt><trkpt lat="55.6640750" lon="38.2771820"><time>2020-10-31T02:32:01.337</time></trkpt><trkpt lat="55.6640380" lon="38.2771250"><time>2020-10-31T02:32:03.337</time></trkpt><trkpt lat="55.6639800" lon="38.2770900"><time>2020-10-31T02:32:06.337</time></trkpt><trkpt lat="55.6639350" lon="38.2770850"><time>2020-10-31T02:32:09.337</time></trkpt><trkpt lat="55.6638300" lon="38.2769950"><time>2020-10-31T02:32:22.337</time></trkpt><trkpt lat="55.6636950" lon="38.2768980"><time>2020-10-31T02:32:37.343</time></trkpt><trkpt lat="55.6635920" lon="38.2767480"><time>2020-10-31T02:32:46.337</time></trkpt><trkpt lat="55.6634700" lon="38.2766820"><time>2020-10-31T02:32:59.333</time></trkpt><trkpt lat="55.6633670" lon="38.2765580"><time>2020-10-31T02:33:09.337</time></trkpt><trkpt lat="55.6633180" lon="38.2764820"><time>2020-10-31T02:33:10.340</time></trkpt><trkpt lat="55.6632450" lon="38.2763330"><time>2020-10-31T02:33:11.333</time></trkpt><trkpt lat="55.6631970" lon="38.2762050"><time>2020-10-31T02:33:12.343</time></trkpt><trkpt lat="55.6631500" lon="38.2761300"><time>2020-10-31T02:33:13.340</time></trkpt><trkpt lat="55.6630830" lon="38.2760530"><time>2020-10-31T02:33:16.330</time></trkpt><trkpt lat="55.6630070" lon="38.2758620"><time>2020-10-31T02:33:27.337</time></trkpt><trkpt lat="55.6629000" lon="38.2757470"><time>2020-10-31T02:33:37.310</time></trkpt><trkpt lat="55.6627780" lon="38.2756400"><time>2020-10-31T02:33:48.340</time></trkpt><trkpt lat="55.6626680" lon="38.2754970"><time>2020-10-31T02:33:59.340</time></trkpt><trkpt lat="55.6625630" lon="38.2753950"><time>2020-10-31T02:34:08.337</time></trkpt><trkpt lat="55.6625170" lon="38.2753480"><time>2020-10-31T02:34:11.337</time></trkpt><trkpt lat="55.6624300" lon="38.2752750"><time>2020-10-31T02:34:18.333</time></trkpt><trkpt lat="55.6622950" lon="38.2752630"><time>2020-10-31T02:34:26.333</time></trkpt><trkpt lat="55.6622380" lon="38.2752330"><time>2020-10-31T02:34:29.337</time></trkpt><trkpt lat="55.6621550" lon="38.2751520"><time>2020-10-31T02:34:34.333</time></trkpt><trkpt lat="55.6620380" lon="38.2750470"><time>2020-10-31T02:34:44.337</time></trkpt><trkpt lat="55.6619980" lon="38.2749930"><time>2020-10-31T02:34:47.337</time></trkpt><trkpt lat="55.6619280" lon="38.2748880"><time>2020-10-31T02:34:52.337</time></trkpt><trkpt lat="55.6619000" lon="38.2747250"><time>2020-10-31T02:34:54.337</time></trkpt><trkpt lat="55.6618230" lon="38.2745820"><time>2020-10-31T02:35:04.337</time></trkpt><trkpt lat="55.6618120" lon="38.2744700"><time>2020-10-31T02:35:07.337</time></trkpt><trkpt lat="55.6617050" lon="38.2744330"><time>2020-10-31T02:35:17.337</time></trkpt><trkpt lat="55.6616550" lon="38.2744470"><time>2020-10-31T02:35:20.337</time></trkpt><trkpt lat="55.6616070" lon="38.2744430"><time>2020-10-31T02:35:25.337</time></trkpt><trkpt lat="55.6615350" lon="38.2745420"><time>2020-10-31T02:35:33.337</time></trkpt><trkpt lat="55.6614970" lon="38.2745970"><time>2020-10-31T02:35:35.340</time></trkpt><trkpt lat="55.6614550" lon="38.2746600"><time>2020-10-31T02:35:37.337</time></trkpt><trkpt lat="55.6613950" lon="38.2747720"><time>2020-10-31T02:35:40.337</time></trkpt><trkpt lat="55.6613480" lon="38.2748350"><time>2020-10-31T02:35:42.330</time></trkpt><trkpt lat="55.6613080" lon="38.2749050"><time>2020-10-31T02:35:44.333</time></trkpt><trkpt lat="55.6612620" lon="38.2749520"><time>2020-10-31T02:35:46.333</time></trkpt><trkpt lat="55.6612220" lon="38.2750030"><time>2020-10-31T02:35:48.333</time></trkpt><trkpt lat="55.6611970" lon="38.2750700"><time>2020-10-31T02:35:51.327</time></trkpt><trkpt lat="55.6611470" lon="38.2752780"><time>2020-10-31T02:36:08.337</time></trkpt><trkpt lat="55.6610850" lon="38.2753430"><time>2020-10-31T02:36:09.333</time></trkpt><trkpt lat="55.6610270" lon="38.2753950"><time>2020-10-31T02:36:11.337</time></trkpt><trkpt lat="55.6609980" lon="38.2754750"><time>2020-10-31T02:36:14.333</time></trkpt><trkpt lat="55.6609630" lon="38.2755770"><time>2020-10-31T02:36:17.337</time></trkpt><trkpt lat="55.6609350" lon="38.2756520"><time>2020-10-31T02:36:19.343</time></trkpt><trkpt lat="55.6609050" lon="38.2757480"><time>2020-10-31T02:36:21.337</time></trkpt><trkpt lat="55.6608720" lon="38.2758420"><time>2020-10-31T02:36:24.337</time></trkpt><trkpt lat="55.6608420" lon="38.2759130"><time>2020-10-31T02:36:28.333</time></trkpt><trkpt lat="55.6607980" lon="38.2759820"><time>2020-10-31T02:36:32.307</time></trkpt><trkpt lat="55.6607430" lon="38.2760380"><time>2020-10-31T02:36:34.333</time></trkpt><trkpt lat="55.6606950" lon="38.2761120"><time>2020-10-31T02:36:36.337</time></trkpt><trkpt lat="55.6606520" lon="38.2761970"><time>2020-10-31T02:36:38.337</time></trkpt><trkpt lat="55.6606250" lon="38.2762770"><time>2020-10-31T02:36:40.337</time></trkpt><trkpt lat="55.6605920" lon="38.2763380"><time>2020-10-31T02:36:42.340</time></trkpt><trkpt lat="55.6605750" lon="38.2764570"><time>2020-10-31T02:36:49.340</time></trkpt><trkpt lat="55.6605350" lon="38.2765650"><time>2020-10-31T02:36:52.337</time></trkpt><trkpt lat="55.6605050" lon="38.2766300"><time>2020-10-31T02:36:53.337</time></trkpt><trkpt lat="55.6604800" lon="38.2767320"><time>2020-10-31T02:36:56.337</time></trkpt><trkpt lat="55.6604550" lon="38.2769500"><time>2020-10-31T02:37:10.333</time></trkpt><trkpt lat="55.6603820" lon="38.2771520"><time>2020-10-31T02:37:23.310</time></trkpt><trkpt lat="55.6603470" lon="38.2772520"><time>2020-10-31T02:37:26.333</time></trkpt><trkpt lat="55.6602920" lon="38.2773170"><time>2020-10-31T02:37:29.340</time></trkpt><trkpt lat="55.6602650" lon="38.2773970"><time>2020-10-31T02:37:31.337</time></trkpt><trkpt lat="55.6602300" lon="38.2774870"><time>2020-10-31T02:37:33.337</time></trkpt><trkpt lat="55.6602050" lon="38.2775800"><time>2020-10-31T02:37:35.337</time></trkpt><trkpt lat="55.6601700" lon="38.2776580"><time>2020-10-31T02:37:38.333</time></trkpt><trkpt lat="55.6601350" lon="38.2777500"><time>2020-10-31T02:37:41.333</time></trkpt><trkpt lat="55.6600480" lon="38.2779630"><time>2020-10-31T02:37:57.333</time></trkpt><trkpt lat="55.6599450" lon="38.2781550"><time>2020-10-31T02:37:59.303</time></trkpt><trkpt lat="55.6598950" lon="38.2782100"><time>2020-10-31T02:38:00.337</time></trkpt><trkpt lat="55.6598530" lon="38.2782830"><time>2020-10-31T02:38:02.340</time></trkpt><trkpt lat="55.6598250" lon="38.2783450"><time>2020-10-31T02:38:03.333</time></trkpt><trkpt lat="55.6597730" lon="38.2784370"><time>2020-10-31T02:38:05.337</time></trkpt><trkpt lat="55.6597270" lon="38.2785270"><time>2020-10-31T02:38:08.337</time></trkpt><trkpt lat="55.6596800" lon="38.2787400"><time>2020-10-31T02:38:24.337</time></trkpt><trkpt lat="55.6596420" lon="38.2789700"><time>2020-10-31T02:38:43.340</time></trkpt><trkpt lat="55.6596180" lon="38.2791630"><time>2020-10-31T02:39:07.337</time></trkpt><trkpt lat="55.6596120" lon="38.2792520"><time>2020-10-31T02:39:10.337</time></trkpt><trkpt lat="55.6595780" lon="38.2794230"><time>2020-10-31T02:39:17.340</time></trkpt><trkpt lat="55.6595620" lon="38.2795070"><time>2020-10-31T02:39:23.337</time></trkpt><trkpt lat="55.6595130" lon="38.2796600"><time>2020-10-31T02:39:33.337</time></trkpt><trkpt lat="55.6594450" lon="38.2798070"><time>2020-10-31T02:39:44.337</time></trkpt><trkpt lat="55.6593630" lon="38.2800330"><time>2020-10-31T02:39:54.337</time></trkpt><trkpt lat="55.6593270" lon="38.2800900"><time>2020-10-31T02:39:56.340</time></trkpt><trkpt lat="55.6592350" lon="38.2802480"><time>2020-10-31T02:40:03.340</time></trkpt><trkpt lat="55.6591800" lon="38.2803470"><time>2020-10-31T02:40:07.337</time></trkpt><trkpt lat="55.6591200" lon="38.2804150"><time>2020-10-31T02:40:09.340</time></trkpt><trkpt lat="55.6590550" lon="38.2804950"><time>2020-10-31T02:40:11.337</time></trkpt><trkpt lat="55.6590180" lon="38.2805650"><time>2020-10-31T02:40:14.297</time></trkpt><trkpt lat="55.6589730" lon="38.2805870"><time>2020-10-31T02:40:16.337</time></trkpt><trkpt lat="55.6589370" lon="38.2805320"><time>2020-10-31T02:40:19.340</time></trkpt><trkpt lat="55.6588900" lon="38.2805320"><time>2020-10-31T02:40:25.340</time></trkpt><trkpt lat="55.6588030" lon="38.2806980"><time>2020-10-31T02:40:32.340</time></trkpt><trkpt lat="55.6587670" lon="38.2807820"><time>2020-10-31T02:40:33.340</time></trkpt><trkpt lat="55.6587300" lon="38.2808650"><time>2020-10-31T02:40:34.337</time></trkpt><trkpt lat="55.6586730" lon="38.2810680"><time>2020-10-31T02:41:09.337</time></trkpt><trkpt lat="55.6586120" lon="38.2812680"><time>2020-10-31T02:41:22.333</time></trkpt><trkpt lat="55.6585480" lon="38.2814650"><time>2020-10-31T02:41:33.333</time></trkpt><trkpt lat="55.6585130" lon="38.2815250"><time>2020-10-31T02:41:37.343</time></trkpt><trkpt lat="55.6584350" lon="38.2816070"><time>2020-10-31T02:41:56.337</time></trkpt><trkpt lat="55.6585420" lon="38.2815520"><time>2020-10-31T02:42:26.337</time></trkpt><trkpt lat="55.6586370" lon="38.2814280"><time>2020-10-31T02:42:37.333</time></trkpt><trkpt lat="55.6586950" lon="38.2813630"><time>2020-10-31T02:42:40.337</time></trkpt><trkpt lat="55.6587480" lon="38.2813270"><time>2020-10-31T02:42:43.343</time></trkpt><trkpt lat="55.6588030" lon="38.2813270"><time>2020-10-31T02:42:46.340</time></trkpt><trkpt lat="55.6588670" lon="38.2811870"><time>2020-10-31T02:43:11.337</time></trkpt><trkpt lat="55.6589780" lon="38.2810830"><time>2020-10-31T02:43:28.340</time></trkpt><trkpt lat="55.6590130" lon="38.2810300"><time>2020-10-31T02:43:30.337</time></trkpt><trkpt lat="55.6590620" lon="38.2809780"><time>2020-10-31T02:43:32.333</time></trkpt><trkpt lat="55.6590480" lon="38.2809000"><time>2020-10-31T02:43:36.337</time></trkpt><trkpt lat="55.6589700" lon="38.2808170"><time>2020-10-31T02:43:57.347</time></trkpt><trkpt lat="55.6588630" lon="38.2808700"><time>2020-10-31T02:44:12.343</time></trkpt><trkpt lat="55.6588070" lon="38.2809130"><time>2020-10-31T02:44:20.340</time></trkpt><trkpt lat="55.6587670" lon="38.2809700"><time>2020-10-31T02:44:22.337</time></trkpt><trkpt lat="55.6587080" lon="38.2811420"><time>2020-10-31T02:44:32.340</time></trkpt><trkpt lat="55.6586680" lon="38.2813220"><time>2020-10-31T02:44:42.340</time></trkpt><trkpt lat="55.6586000" lon="38.2814880"><time>2020-10-31T02:45:00.337</time></trkpt><trkpt lat="55.6585400" lon="38.2816500"><time>2020-10-31T02:45:11.340</time></trkpt><trkpt lat="55.6584950" lon="38.2817870"><time>2020-10-31T02:45:18.340</time></trkpt><trkpt lat="55.6584430" lon="38.2818920"><time>2020-10-31T02:45:21.343</time></trkpt><trkpt lat="55.6583950" lon="38.2819630"><time>2020-10-31T02:45:22.340</time></trkpt><trkpt lat="55.6583520" lon="38.2820300"><time>2020-10-31T02:45:24.340</time></trkpt><trkpt lat="55.6583050" lon="38.2821030"><time>2020-10-31T02:45:26.340</time></trkpt><trkpt lat="55.6582730" lon="38.2821680"><time>2020-10-31T02:45:28.337</time></trkpt><trkpt lat="55.6582280" lon="38.2822550"><time>2020-10-31T02:45:32.340</time></trkpt><trkpt lat="55.6581980" lon="38.2823280"><time>2020-10-31T02:45:35.337</time></trkpt><trkpt lat="55.6581580" lon="38.2823670"><time>2020-10-31T02:45:37.343</time></trkpt><trkpt lat="55.6581120" lon="38.2824180"><time>2020-10-31T02:45:41.337</time></trkpt><trkpt lat="55.6580670" lon="38.2823430"><time>2020-10-31T02:45:51.340</time></trkpt><trkpt lat="55.6580280" lon="38.2822850"><time>2020-10-31T02:45:53.340</time></trkpt><trkpt lat="55.6579780" lon="38.2822550"><time>2020-10-31T02:45:57.337</time></trkpt><trkpt lat="55.6578630" lon="38.2821920"><time>2020-10-31T02:46:10.340</time></trkpt><trkpt lat="55.6577320" lon="38.2821780"><time>2020-10-31T02:46:22.337</time></trkpt><trkpt lat="55.6577030" lon="38.2821020"><time>2020-10-31T02:46:23.337</time></trkpt><trkpt lat="55.6576430" lon="38.2820650"><time>2020-10-31T02:46:26.340</time></trkpt><trkpt lat="55.6575920" lon="38.2819770"><time>2020-10-31T02:46:28.337</time></trkpt><trkpt lat="55.6575420" lon="38.2819100"><time>2020-10-31T02:46:31.343</time></trkpt><trkpt lat="55.6575050" lon="38.2818630"><time>2020-10-31T02:46:34.340</time></trkpt><trkpt lat="55.6574350" lon="38.2817450"><time>2020-10-31T02:46:40.340</time></trkpt><trkpt lat="55.6573850" lon="38.2816950"><time>2020-10-31T02:46:42.340</time></trkpt><trkpt lat="55.6573250" lon="38.2816050"><time>2020-10-31T02:46:45.340</time></trkpt><trkpt lat="55.6572700" lon="38.2815580"><time>2020-10-31T02:46:48.340</time></trkpt><trkpt lat="55.6572280" lon="38.2815130"><time>2020-10-31T02:46:50.340</time></trkpt><trkpt lat="55.6571780" lon="38.2814430"><time>2020-10-31T02:46:53.340</time></trkpt><trkpt lat="55.6570750" lon="38.2813200"><time>2020-10-31T02:47:02.340</time></trkpt><trkpt lat="55.6570180" lon="38.2812100"><time>2020-10-31T02:47:10.340</time></trkpt><trkpt lat="55.6569570" lon="38.2811900"><time>2020-10-31T02:47:13.337</time></trkpt><trkpt lat="55.6569100" lon="38.2811100"><time>2020-10-31T02:47:18.340</time></trkpt><trkpt lat="55.6568150" lon="38.2810350"><time>2020-10-31T02:47:23.337</time></trkpt><trkpt lat="55.6567650" lon="38.2810130"><time>2020-10-31T02:47:25.340</time></trkpt><trkpt lat="55.6567180" lon="38.2809700"><time>2020-10-31T02:47:27.340</time></trkpt><trkpt lat="55.6566750" lon="38.2809100"><time>2020-10-31T02:47:29.340</time></trkpt><trkpt lat="55.6565600" lon="38.2808100"><time>2020-10-31T02:47:38.340</time></trkpt><trkpt lat="55.6565030" lon="38.2806380"><time>2020-10-31T02:47:54.340</time></trkpt><trkpt lat="55.6564250" lon="38.2805130"><time>2020-10-31T02:48:10.343</time></trkpt><trkpt lat="55.6565080" lon="38.2803670"><time>2020-10-31T02:48:29.340</time></trkpt><trkpt lat="55.6565700" lon="38.2801700"><time>2020-10-31T02:48:39.333</time></trkpt><trkpt lat="55.6565400" lon="38.2801000"><time>2020-10-31T02:48:41.343</time></trkpt><trkpt lat="55.6565480" lon="38.2799830"><time>2020-10-31T02:48:42.333</time></trkpt><trkpt lat="55.6565600" lon="38.2797770"><time>2020-10-31T02:48:43.340</time></trkpt><trkpt lat="55.6565500" lon="38.2796050"><time>2020-10-31T02:48:44.347</time></trkpt><trkpt lat="55.6565030" lon="38.2792850"><time>2020-10-31T02:48:45.337</time></trkpt><trkpt lat="55.6564300" lon="38.2789830"><time>2020-10-31T02:48:46.340</time></trkpt><trkpt lat="55.6563600" lon="38.2787750"><time>2020-10-31T02:48:47.340</time></trkpt><trkpt lat="55.6563180" lon="38.2786380"><time>2020-10-31T02:48:48.320</time></trkpt><trkpt lat="55.6563000" lon="38.2785570"><time>2020-10-31T02:48:49.323</time></trkpt><trkpt lat="55.6562730" lon="38.2784750"><time>2020-10-31T02:48:58.337</time></trkpt><trkpt lat="55.6562920" lon="38.2785580"><time>2020-10-31T02:49:00.337</time></trkpt><trkpt lat="55.6563800" lon="38.2783930"><time>2020-10-31T02:49:46.340</time></trkpt><trkpt lat="55.6564250" lon="38.2782220"><time>2020-10-31T02:50:06.337</time></trkpt><trkpt lat="55.6564220" lon="38.2779870"><time>2020-10-31T02:50:14.340</time></trkpt><trkpt lat="55.6563380" lon="38.2777980"><time>2020-10-31T02:50:16.340</time></trkpt><trkpt lat="55.6562870" lon="38.2776350"><time>2020-10-31T02:50:23.343</time></trkpt><trkpt lat="55.6562830" lon="38.2774950"><time>2020-10-31T02:50:25.343</time></trkpt><trkpt lat="55.6562680" lon="38.2774130"><time>2020-10-31T02:50:27.337</time></trkpt><trkpt lat="55.6561980" lon="38.2772670"><time>2020-10-31T02:50:42.363</time></trkpt><trkpt lat="55.6560730" lon="38.2770150"><time>2020-10-31T02:50:43.313</time></trkpt><trkpt lat="55.6560280" lon="38.2767350"><time>2020-10-31T02:50:44.303</time></trkpt><trkpt lat="55.6560380" lon="38.2766950"><time>2020-10-31T02:50:45.690</time></trkpt><trkpt lat="55.6560230" lon="38.2764870"><time>2020-10-31T02:50:46.293</time></trkpt><trkpt lat="55.6560480" lon="38.2763800"><time>2020-10-31T02:50:48.327</time></trkpt><trkpt lat="55.6560570" lon="38.2764580"><time>2020-10-31T02:50:49.290</time></trkpt><trkpt lat="55.6560470" lon="38.2765570"><time>2020-10-31T02:50:50.330</time></trkpt><trkpt lat="55.6560880" lon="38.2768320"><time>2020-10-31T02:50:52.300</time></trkpt><trkpt lat="55.6560800" lon="38.2767370"><time>2020-10-31T02:50:53.333</time></trkpt><trkpt lat="55.6561080" lon="38.2767980"><time>2020-10-31T02:50:58.343</time></trkpt><trkpt lat="55.6561100" lon="38.2769680"><time>2020-10-31T02:51:04.340</time></trkpt><trkpt lat="55.6561020" lon="38.2770500"><time>2020-10-31T02:51:07.350</time></trkpt><trkpt lat="55.6561080" lon="38.2772130"><time>2020-10-31T02:51:17.340</time></trkpt><trkpt lat="55.6561980" lon="38.2773550"><time>2020-10-31T02:51:28.337</time></trkpt><trkpt lat="55.6562250" lon="38.2775680"><time>2020-10-31T02:51:40.340</time></trkpt><trkpt lat="55.6562420" lon="38.2777800"><time>2020-10-31T02:51:57.337</time></trkpt><trkpt lat="55.6561920" lon="38.2779880"><time>2020-10-31T02:52:09.337</time></trkpt><trkpt lat="55.6561570" lon="38.2781800"><time>2020-10-31T02:52:27.340</time></trkpt><trkpt lat="55.6561230" lon="38.2783050"><time>2020-10-31T02:52:31.340</time></trkpt><trkpt lat="55.6561050" lon="38.2784020"><time>2020-10-31T02:52:35.343</time></trkpt><trkpt lat="55.6560580" lon="38.2785720"><time>2020-10-31T02:52:51.333</time></trkpt><trkpt lat="55.6560470" lon="38.2787800"><time>2020-10-31T02:53:05.340</time></trkpt><trkpt lat="55.6560520" lon="38.2790150"><time>2020-10-31T02:53:14.340</time></trkpt><trkpt lat="55.6560130" lon="38.2792100"><time>2020-10-31T02:53:27.340</time></trkpt><trkpt lat="55.6559870" lon="38.2792750"><time>2020-10-31T02:53:29.340</time></trkpt><trkpt lat="55.6559970" lon="38.2793630"><time>2020-10-31T02:53:32.340</time></trkpt><trkpt lat="55.6560120" lon="38.2794580"><time>2020-10-31T02:53:34.340</time></trkpt><trkpt lat="55.6560450" lon="38.2795220"><time>2020-10-31T02:53:36.340</time></trkpt><trkpt lat="55.6560830" lon="38.2795770"><time>2020-10-31T02:53:38.340</time></trkpt><trkpt lat="55.6561200" lon="38.2796630"><time>2020-10-31T02:53:40.340</time></trkpt><trkpt lat="55.6561450" lon="38.2797320"><time>2020-10-31T02:53:42.337</time></trkpt><trkpt lat="55.6561820" lon="38.2797900"><time>2020-10-31T02:53:44.340</time></trkpt><trkpt lat="55.6562170" lon="38.2798430"><time>2020-10-31T02:53:46.340</time></trkpt><trkpt lat="55.6562570" lon="38.2799200"><time>2020-10-31T02:53:49.343</time></trkpt><trkpt lat="55.6563050" lon="38.2799630"><time>2020-10-31T02:53:51.340</time></trkpt><trkpt lat="55.6563550" lon="38.2799930"><time>2020-10-31T02:53:53.343</time></trkpt><trkpt lat="55.6563880" lon="38.2800500"><time>2020-10-31T02:53:55.343</time></trkpt><trkpt lat="55.6564380" lon="38.2800850"><time>2020-10-31T02:53:58.343</time></trkpt><trkpt lat="55.6564820" lon="38.2801720"><time>2020-10-31T02:54:00.337</time></trkpt><trkpt lat="55.6565230" lon="38.2802600"><time>2020-10-31T02:54:02.337</time></trkpt><trkpt lat="55.6565650" lon="38.2803330"><time>2020-10-31T02:54:04.343</time></trkpt><trkpt lat="55.6566120" lon="38.2803900"><time>2020-10-31T02:54:07.337</time></trkpt><trkpt lat="55.6566570" lon="38.2804630"><time>2020-10-31T02:54:10.343</time></trkpt><trkpt lat="55.6566930" lon="38.2805420"><time>2020-10-31T02:54:14.300</time></trkpt><trkpt lat="55.6567320" lon="38.2805880"><time>2020-10-31T02:54:17.340</time></trkpt><trkpt lat="55.6567730" lon="38.2806430"><time>2020-10-31T02:54:19.340</time></trkpt><trkpt lat="55.6568130" lon="38.2807220"><time>2020-10-31T02:54:21.340</time></trkpt><trkpt lat="55.6568570" lon="38.2807550"><time>2020-10-31T02:54:24.340</time></trkpt><trkpt lat="55.6569030" lon="38.2807780"><time>2020-10-31T02:54:27.340</time></trkpt><trkpt lat="55.6569430" lon="38.2808200"><time>2020-10-31T02:54:29.337</time></trkpt><trkpt lat="55.6570080" lon="38.2808670"><time>2020-10-31T02:54:32.343</time></trkpt><trkpt lat="55.6570630" lon="38.2808980"><time>2020-10-31T02:54:34.337</time></trkpt><trkpt lat="55.6571180" lon="38.2809320"><time>2020-10-31T02:54:36.340</time></trkpt><trkpt lat="55.6571800" lon="38.2809920"><time>2020-10-31T02:54:38.340</time></trkpt><trkpt lat="55.6572330" lon="38.2810420"><time>2020-10-31T02:54:40.343</time></trkpt><trkpt lat="55.6572850" lon="38.2811000"><time>2020-10-31T02:54:42.340</time></trkpt><trkpt lat="55.6573450" lon="38.2811600"><time>2020-10-31T02:54:44.337</time></trkpt><trkpt lat="55.6573750" lon="38.2812530"><time>2020-10-31T02:54:46.337</time></trkpt><trkpt lat="55.6574220" lon="38.2813000"><time>2020-10-31T02:54:48.340</time></trkpt><trkpt lat="55.6574550" lon="38.2813620"><time>2020-10-31T02:54:50.340</time></trkpt><trkpt lat="55.6575080" lon="38.2814180"><time>2020-10-31T02:54:54.343</time></trkpt><trkpt lat="55.6575530" lon="38.2814580"><time>2020-10-31T02:54:56.343</time></trkpt><trkpt lat="55.6575930" lon="38.2815130"><time>2020-10-31T02:54:57.347</time></trkpt><trkpt lat="55.6576470" lon="38.2815770"><time>2020-10-31T02:54:59.337</time></trkpt><trkpt lat="55.6576930" lon="38.2815900"><time>2020-10-31T02:55:01.343</time></trkpt><trkpt lat="55.6577330" lon="38.2816280"><time>2020-10-31T02:55:03.343</time></trkpt><trkpt lat="55.6577780" lon="38.2816530"><time>2020-10-31T02:55:06.340</time></trkpt><trkpt lat="55.6578430" lon="38.2816680"><time>2020-10-31T02:55:11.340</time></trkpt><trkpt lat="55.6578920" lon="38.2816670"><time>2020-10-31T02:55:13.337</time></trkpt><trkpt lat="55.6579500" lon="38.2816730"><time>2020-10-31T02:55:16.337</time></trkpt><trkpt lat="55.6580500" lon="38.2817980"><time>2020-10-31T02:55:25.343</time></trkpt><trkpt lat="55.6581070" lon="38.2818770"><time>2020-10-31T02:55:26.343</time></trkpt><trkpt lat="55.6581550" lon="38.2819620"><time>2020-10-31T02:55:27.343</time></trkpt><trkpt lat="55.6581870" lon="38.2820550"><time>2020-10-31T02:55:28.337</time></trkpt><trkpt lat="55.6582450" lon="38.2822030"><time>2020-10-31T02:55:38.337</time></trkpt><trkpt lat="55.6582050" lon="38.2823550"><time>2020-10-31T02:55:56.340</time></trkpt><trkpt lat="55.6581570" lon="38.2825470"><time>2020-10-31T02:56:09.337</time></trkpt><trkpt lat="55.6581270" lon="38.2826370"><time>2020-10-31T02:56:12.340</time></trkpt><trkpt lat="55.6581570" lon="38.2827970"><time>2020-10-31T02:56:16.343</time></trkpt><trkpt lat="55.6580530" lon="38.2828980"><time>2020-10-31T02:56:24.347</time></trkpt><trkpt lat="55.6580150" lon="38.2829680"><time>2020-10-31T02:56:26.337</time></trkpt><trkpt lat="55.6579730" lon="38.2831470"><time>2020-10-31T02:56:34.340</time></trkpt><trkpt lat="55.6579020" lon="38.2832980"><time>2020-10-31T02:56:41.343</time></trkpt><trkpt lat="55.6578450" lon="38.2833830"><time>2020-10-31T02:56:43.343</time></trkpt><trkpt lat="55.6578220" lon="38.2834550"><time>2020-10-31T02:56:44.340</time></trkpt><trkpt lat="55.6577850" lon="38.2835520"><time>2020-10-31T02:56:46.340</time></trkpt><trkpt lat="55.6577400" lon="38.2836220"><time>2020-10-31T02:56:48.340</time></trkpt><trkpt lat="55.6576900" lon="38.2836670"><time>2020-10-31T02:56:50.343</time></trkpt><trkpt lat="55.6576500" lon="38.2837450"><time>2020-10-31T02:56:52.340</time></trkpt><trkpt lat="55.6576030" lon="38.2838070"><time>2020-10-31T02:56:54.343</time></trkpt><trkpt lat="55.6575620" lon="38.2838830"><time>2020-10-31T02:56:56.343</time></trkpt><trkpt lat="55.6575200" lon="38.2839600"><time>2020-10-31T02:57:04.340</time></trkpt><trkpt lat="55.6574830" lon="38.2840150"><time>2020-10-31T02:57:08.337</time></trkpt><trkpt lat="55.6574600" lon="38.2840850"><time>2020-10-31T02:57:11.340</time></trkpt><trkpt lat="55.6574230" lon="38.2841570"><time>2020-10-31T02:57:13.340</time></trkpt><trkpt lat="55.6573880" lon="38.2842230"><time>2020-10-31T02:57:16.340</time></trkpt><trkpt lat="55.6573380" lon="38.2842900"><time>2020-10-31T02:57:19.347</time></trkpt><trkpt lat="55.6573020" lon="38.2843780"><time>2020-10-31T02:57:22.343</time></trkpt><trkpt lat="55.6572820" lon="38.2844670"><time>2020-10-31T02:57:25.347</time></trkpt><trkpt lat="55.6572450" lon="38.2846480"><time>2020-10-31T02:57:36.343</time></trkpt><trkpt lat="55.6571920" lon="38.2848300"><time>2020-10-31T02:57:50.340</time></trkpt><trkpt lat="55.6571450" lon="38.2850120"><time>2020-10-31T02:58:06.340</time></trkpt><trkpt lat="55.6571330" lon="38.2851850"><time>2020-10-31T02:58:25.343</time></trkpt><trkpt lat="55.6571130" lon="38.2853850"><time>2020-10-31T02:58:42.340</time></trkpt><trkpt lat="55.6570580" lon="38.2856450"><time>2020-10-31T02:58:54.343</time></trkpt><trkpt lat="55.6570600" lon="38.2857500"><time>2020-10-31T02:58:56.343</time></trkpt><trkpt lat="55.6569700" lon="38.2859370"><time>2020-10-31T02:59:09.340</time></trkpt><trkpt lat="55.6568900" lon="38.2861230"><time>2020-10-31T02:59:19.347</time></trkpt><trkpt lat="55.6568050" lon="38.2862620"><time>2020-10-31T02:59:31.340</time></trkpt><trkpt lat="55.6566970" lon="38.2863780"><time>2020-10-31T02:59:43.343</time></trkpt><trkpt lat="55.6565870" lon="38.2865100"><time>2020-10-31T02:59:53.340</time></trkpt><trkpt lat="55.6565600" lon="38.2867500"><time>2020-10-31T03:00:09.340</time></trkpt><trkpt lat="55.6565380" lon="38.2869300"><time>2020-10-31T03:00:49.340</time></trkpt><trkpt lat="55.6565450" lon="38.2870950"><time>2020-10-31T03:01:09.337</time></trkpt><trkpt lat="55.6565880" lon="38.2871920"><time>2020-10-31T03:01:18.340</time></trkpt><trkpt lat="55.6566300" lon="38.2872880"><time>2020-10-31T03:01:20.337</time></trkpt><trkpt lat="55.6566820" lon="38.2873300"><time>2020-10-31T03:01:22.343</time></trkpt><trkpt lat="55.6566670" lon="38.2874950"><time>2020-10-31T03:01:41.337</time></trkpt><trkpt lat="55.6566600" lon="38.2875750"><time>2020-10-31T03:01:43.340</time></trkpt><trkpt lat="55.6566020" lon="38.2876130"><time>2020-10-31T03:01:44.343</time></trkpt><trkpt lat="55.6565700" lon="38.2876930"><time>2020-10-31T03:01:46.343</time></trkpt><trkpt lat="55.6565470" lon="38.2877650"><time>2020-10-31T03:01:51.343</time></trkpt><trkpt lat="55.6565650" lon="38.2879000"><time>2020-10-31T03:02:20.340</time></trkpt><trkpt lat="55.6565150" lon="38.2879170"><time>2020-10-31T03:02:22.340</time></trkpt><trkpt lat="55.6565380" lon="38.2880950"><time>2020-10-31T03:02:46.340</time></trkpt><trkpt lat="55.6565430" lon="38.2883120"><time>2020-10-31T03:03:02.340</time></trkpt><trkpt lat="55.6564970" lon="38.2883480"><time>2020-10-31T03:03:05.340</time></trkpt><trkpt lat="55.6563900" lon="38.2884280"><time>2020-10-31T03:03:24.340</time></trkpt><trkpt lat="55.6562950" lon="38.2884750"><time>2020-10-31T03:03:40.343</time></trkpt><trkpt lat="55.6562800" lon="38.2885520"><time>2020-10-31T03:03:43.343</time></trkpt><trkpt lat="55.6563450" lon="38.2886700"><time>2020-10-31T03:03:51.343</time></trkpt><trkpt lat="55.6563370" lon="38.2887880"><time>2020-10-31T03:04:07.343</time></trkpt><trkpt lat="55.6562300" lon="38.2888950"><time>2020-10-31T03:04:18.343</time></trkpt><trkpt lat="55.6561670" lon="38.2889720"><time>2020-10-31T03:04:25.343</time></trkpt><trkpt lat="55.6561330" lon="38.2890550"><time>2020-10-31T03:04:28.343</time></trkpt><trkpt lat="55.6562400" lon="38.2891700"><time>2020-10-31T03:04:44.343</time></trkpt><trkpt lat="55.6563280" lon="38.2892980"><time>2020-10-31T03:05:00.343</time></trkpt><trkpt lat="55.6564250" lon="38.2893830"><time>2020-10-31T03:05:17.343</time></trkpt><trkpt lat="55.6565150" lon="38.2894630"><time>2020-10-31T03:05:27.343</time></trkpt><trkpt lat="55.6565950" lon="38.2895680"><time>2020-10-31T03:05:49.347</time></trkpt><trkpt lat="55.6566680" lon="38.2896570"><time>2020-10-31T03:06:02.300</time></trkpt><trkpt lat="55.6567080" lon="38.2897720"><time>2020-10-31T03:06:03.337</time></trkpt><trkpt lat="55.6567300" lon="38.2898750"><time>2020-10-31T03:06:04.340</time></trkpt><trkpt lat="55.6567470" lon="38.2899600"><time>2020-10-31T03:06:05.337</time></trkpt><trkpt lat="55.6567300" lon="38.2898330"><time>2020-10-31T03:06:07.347</time></trkpt><trkpt lat="55.6568380" lon="38.2896150"><time>2020-10-31T03:06:09.340</time></trkpt><trkpt lat="55.6568830" lon="38.2895470"><time>2020-10-31T03:06:11.343</time></trkpt><trkpt lat="55.6569020" lon="38.2894550"><time>2020-10-31T03:06:14.343</time></trkpt><trkpt lat="55.6569170" lon="38.2893630"><time>2020-10-31T03:06:17.340</time></trkpt><trkpt lat="55.6568870" lon="38.2892870"><time>2020-10-31T03:06:21.343</time></trkpt><trkpt lat="55.6569930" lon="38.2892680"><time>2020-10-31T03:06:53.347</time></trkpt><trkpt lat="55.6570430" lon="38.2890820"><time>2020-10-31T03:07:06.347</time></trkpt><trkpt lat="55.6571420" lon="38.2890630"><time>2020-10-31T03:07:28.343</time></trkpt><trkpt lat="55.6572180" lon="38.2892130"><time>2020-10-31T03:07:42.343</time></trkpt><trkpt lat="55.6572270" lon="38.2893170"><time>2020-10-31T03:07:45.343</time></trkpt><trkpt lat="55.6572630" lon="38.2894830"><time>2020-10-31T03:08:06.343</time></trkpt><trkpt lat="55.6573170" lon="38.2896380"><time>2020-10-31T03:08:32.340</time></trkpt><trkpt lat="55.6574230" lon="38.2897280"><time>2020-10-31T03:08:46.343</time></trkpt><trkpt lat="55.6575070" lon="38.2898950"><time>2020-10-31T03:08:57.347</time></trkpt><trkpt lat="55.6575550" lon="38.2901150"><time>2020-10-31T03:09:15.347</time></trkpt><trkpt lat="55.6575880" lon="38.2903250"><time>2020-10-31T03:09:28.343</time></trkpt><trkpt lat="55.6575620" lon="38.2905550"><time>2020-10-31T03:09:40.343</time></trkpt><trkpt lat="55.6575850" lon="38.2906250"><time>2020-10-31T03:09:43.343</time></trkpt><trkpt lat="55.6576030" lon="38.2907850"><time>2020-10-31T03:09:55.343</time></trkpt><trkpt lat="55.6576280" lon="38.2910020"><time>2020-10-31T03:10:06.343</time></trkpt><trkpt lat="55.6576770" lon="38.2912120"><time>2020-10-31T03:10:26.343</time></trkpt><trkpt lat="55.6576700" lon="38.2913330"><time>2020-10-31T03:10:31.340</time></trkpt><trkpt lat="55.6576750" lon="38.2914770"><time>2020-10-31T03:10:33.343</time></trkpt><trkpt lat="55.6577180" lon="38.2915580"><time>2020-10-31T03:10:35.343</time></trkpt><trkpt lat="55.6576850" lon="38.2916250"><time>2020-10-31T03:10:39.340</time></trkpt><trkpt lat="55.6576770" lon="38.2915450"><time>2020-10-31T03:10:44.343</time></trkpt><trkpt lat="55.6577230" lon="38.2915330"><time>2020-10-31T03:10:48.347</time></trkpt><trkpt lat="55.6578550" lon="38.2915420"><time>2020-10-31T03:10:55.343</time></trkpt><trkpt lat="55.6579230" lon="38.2915230"><time>2020-10-31T03:10:57.347</time></trkpt><trkpt lat="55.6579700" lon="38.2915150"><time>2020-10-31T03:11:10.343</time></trkpt><trkpt lat="55.6580670" lon="38.2915900"><time>2020-10-31T03:11:28.347</time></trkpt><trkpt lat="55.6581170" lon="38.2916050"><time>2020-10-31T03:11:31.347</time></trkpt><trkpt lat="55.6582000" lon="38.2916930"><time>2020-10-31T03:11:44.343</time></trkpt><trkpt lat="55.6582620" lon="38.2918730"><time>2020-10-31T03:11:58.343</time></trkpt><trkpt lat="55.6583250" lon="38.2920670"><time>2020-10-31T03:12:10.347</time></trkpt><trkpt lat="55.6584200" lon="38.2922130"><time>2020-10-31T03:12:22.347</time></trkpt><trkpt lat="55.6584400" lon="38.2924200"><time>2020-10-31T03:12:36.337</time></trkpt><trkpt lat="55.6583870" lon="38.2926450"><time>2020-10-31T03:12:47.340</time></trkpt><trkpt lat="55.6583530" lon="38.2928600"><time>2020-10-31T03:13:10.343</time></trkpt><trkpt lat="55.6582720" lon="38.2929820"><time>2020-10-31T03:13:17.343</time></trkpt><trkpt lat="55.6582230" lon="38.2930070"><time>2020-10-31T03:13:19.343</time></trkpt><trkpt lat="55.6581670" lon="38.2930720"><time>2020-10-31T03:13:22.343</time></trkpt><trkpt lat="55.6581120" lon="38.2931150"><time>2020-10-31T03:13:25.343</time></trkpt><trkpt lat="55.6580570" lon="38.2931430"><time>2020-10-31T03:13:28.343</time></trkpt><trkpt lat="55.6580030" lon="38.2931800"><time>2020-10-31T03:13:31.343</time></trkpt><trkpt lat="55.6579530" lon="38.2932150"><time>2020-10-31T03:13:34.343</time></trkpt><trkpt lat="55.6579220" lon="38.2930670"><time>2020-10-31T03:14:10.347</time></trkpt><trkpt lat="55.6578850" lon="38.2928580"><time>2020-10-31T03:14:21.340</time></trkpt><trkpt lat="55.6579020" lon="38.2926400"><time>2020-10-31T03:14:38.347</time></trkpt><trkpt lat="55.6578620" lon="38.2924620"><time>2020-10-31T03:15:00.343</time></trkpt><trkpt lat="55.6578030" lon="38.2923080"><time>2020-10-31T03:15:05.343</time></trkpt><trkpt lat="55.6577780" lon="38.2922380"><time>2020-10-31T03:15:06.337</time></trkpt><trkpt lat="55.6577530" lon="38.2921250"><time>2020-10-31T03:15:07.347</time></trkpt><trkpt lat="55.6577120" lon="38.2920400"><time>2020-10-31T03:15:08.347</time></trkpt><trkpt lat="55.6576770" lon="38.2919820"><time>2020-10-31T03:15:09.337</time></trkpt><trkpt lat="55.6576820" lon="38.2918950"><time>2020-10-31T03:15:10.343</time></trkpt><trkpt lat="55.6576500" lon="38.2918020"><time>2020-10-31T03:15:12.343</time></trkpt><trkpt lat="55.6576520" lon="38.2917200"><time>2020-10-31T03:15:16.343</time></trkpt><trkpt lat="55.6576170" lon="38.2915320"><time>2020-10-31T03:15:56.343</time></trkpt><trkpt lat="55.6575370" lon="38.2914330"><time>2020-10-31T03:16:19.343</time></trkpt><trkpt lat="55.6574900" lon="38.2913900"><time>2020-10-31T03:16:22.343</time></trkpt><trkpt lat="55.6574170" lon="38.2912880"><time>2020-10-31T03:16:30.347</time></trkpt><trkpt lat="55.6573720" lon="38.2910830"><time>2020-10-31T03:16:43.343</time></trkpt><trkpt lat="55.6573430" lon="38.2910200"><time>2020-10-31T03:16:46.343</time></trkpt><trkpt lat="55.6572680" lon="38.2909070"><time>2020-10-31T03:16:55.350</time></trkpt><trkpt lat="55.6571820" lon="38.2907370"><time>2020-10-31T03:17:05.347</time></trkpt><trkpt lat="55.6570870" lon="38.2905850"><time>2020-10-31T03:17:15.343</time></trkpt><trkpt lat="55.6570280" lon="38.2905330"><time>2020-10-31T03:17:17.340</time></trkpt><trkpt lat="55.6570230" lon="38.2904380"><time>2020-10-31T03:17:18.340</time></trkpt><trkpt lat="55.6569850" lon="38.2903770"><time>2020-10-31T03:17:19.343</time></trkpt><trkpt lat="55.6569220" lon="38.2903280"><time>2020-10-31T03:17:20.347</time></trkpt><trkpt lat="55.6568870" lon="38.2902670"><time>2020-10-31T03:17:23.347</time></trkpt><trkpt lat="55.6568800" lon="38.2902450"><time>2020-10-31T03:17:36.237</time></trkpt><trkpt lat="55.6567830" lon="38.2902680"><time>2020-10-31T03:17:36.357</time></trkpt><trkpt lat="55.6567380" lon="38.2902450"><time>2020-10-31T03:17:37.297</time></trkpt><trkpt lat="55.6568220" lon="38.2901630"><time>2020-10-31T03:17:39.297</time></trkpt><trkpt lat="55.6567850" lon="38.2902470"><time>2020-10-31T03:17:45.297</time></trkpt><trkpt lat="55.6567300" lon="38.2902670"><time>2020-10-31T03:17:47.337</time></trkpt><trkpt lat="55.6566880" lon="38.2901570"><time>2020-10-31T03:17:49.337</time></trkpt><trkpt lat="55.6567380" lon="38.2901820"><time>2020-10-31T03:17:50.337</time></trkpt><trkpt lat="55.6567570" lon="38.2903400"><time>2020-10-31T03:17:56.340</time></trkpt><trkpt lat="55.6568180" lon="38.2904180"><time>2020-10-31T03:17:58.340</time></trkpt><trkpt lat="55.6568650" lon="38.2904280"><time>2020-10-31T03:18:00.343</time></trkpt><trkpt lat="55.6569150" lon="38.2903770"><time>2020-10-31T03:18:04.343</time></trkpt><trkpt lat="55.6569700" lon="38.2903450"><time>2020-10-31T03:18:06.343</time></trkpt><trkpt lat="55.6570880" lon="38.2903350"><time>2020-10-31T03:18:16.343</time></trkpt><trkpt lat="55.6571750" lon="38.2903930"><time>2020-10-31T03:18:22.310</time></trkpt><trkpt lat="55.6571820" lon="38.2904800"><time>2020-10-31T03:18:25.347</time></trkpt><trkpt lat="55.6571330" lon="38.2904800"><time>2020-10-31T03:18:29.347</time></trkpt><trkpt lat="55.6571800" lon="38.2905230"><time>2020-10-31T03:18:32.347</time></trkpt><trkpt lat="55.6572200" lon="38.2905830"><time>2020-10-31T03:18:34.347</time></trkpt><trkpt lat="55.6572150" lon="38.2905030"><time>2020-10-31T03:18:41.343</time></trkpt><trkpt lat="55.6572870" lon="38.2906050"><time>2020-10-31T03:18:57.347</time></trkpt><trkpt lat="55.6573750" lon="38.2907350"><time>2020-10-31T03:19:16.347</time></trkpt><trkpt lat="55.6573880" lon="38.2909580"><time>2020-10-31T03:19:26.347</time></trkpt><trkpt lat="55.6573930" lon="38.2911650"><time>2020-10-31T03:19:39.343</time></trkpt><trkpt lat="55.6573720" lon="38.2912650"><time>2020-10-31T03:19:40.347</time></trkpt><trkpt lat="55.6573680" lon="38.2913470"><time>2020-10-31T03:19:42.347</time></trkpt><trkpt lat="55.6574100" lon="38.2915070"><time>2020-10-31T03:19:50.340</time></trkpt><trkpt lat="55.6574380" lon="38.2915750"><time>2020-10-31T03:19:53.347</time></trkpt><trkpt lat="55.6574600" lon="38.2917250"><time>2020-10-31T03:19:55.340</time></trkpt><trkpt lat="55.6574530" lon="38.2918270"><time>2020-10-31T03:19:56.343</time></trkpt><trkpt lat="55.6574380" lon="38.2919350"><time>2020-10-31T03:19:57.347</time></trkpt><trkpt lat="55.6573970" lon="38.2921120"><time>2020-10-31T03:19:59.343</time></trkpt><trkpt lat="55.6573680" lon="38.2922300"><time>2020-10-31T03:20:00.347</time></trkpt><trkpt lat="55.6573380" lon="38.2923650"><time>2020-10-31T03:20:01.347</time></trkpt><trkpt lat="55.6573220" lon="38.2924470"><time>2020-10-31T03:20:02.347</time></trkpt><trkpt lat="55.6572920" lon="38.2925730"><time>2020-10-31T03:20:03.347</time></trkpt><trkpt lat="55.6572800" lon="38.2926570"><time>2020-10-31T03:20:05.347</time></trkpt><trkpt lat="55.6572380" lon="38.2927530"><time>2020-10-31T03:20:07.347</time></trkpt><trkpt lat="55.6572050" lon="38.2929670"><time>2020-10-31T03:20:31.347</time></trkpt><trkpt lat="55.6571500" lon="38.2931420"><time>2020-10-31T03:20:51.347</time></trkpt><trkpt lat="55.6571470" lon="38.2933430"><time>2020-10-31T03:21:04.347</time></trkpt><trkpt lat="55.6572250" lon="38.2934820"><time>2020-10-31T03:21:16.343</time></trkpt><trkpt lat="55.6573030" lon="38.2936530"><time>2020-10-31T03:21:24.347</time></trkpt><trkpt lat="55.6573620" lon="38.2936930"><time>2020-10-31T03:21:26.343</time></trkpt><trkpt lat="55.6574400" lon="38.2938970"><time>2020-10-31T03:21:35.347</time></trkpt><trkpt lat="55.6575500" lon="38.2940400"><time>2020-10-31T03:21:45.347</time></trkpt><trkpt lat="55.6576620" lon="38.2939750"><time>2020-10-31T03:21:54.343</time></trkpt><trkpt lat="55.6577370" lon="38.2939380"><time>2020-10-31T03:21:57.343</time></trkpt><trkpt lat="55.6577720" lon="38.2938800"><time>2020-10-31T03:21:59.343</time></trkpt><trkpt lat="55.6578150" lon="38.2938200"><time>2020-10-31T03:22:02.347</time></trkpt><trkpt lat="55.6578500" lon="38.2937620"><time>2020-10-31T03:22:05.343</time></trkpt><trkpt lat="55.6578920" lon="38.2936970"><time>2020-10-31T03:22:08.340</time></trkpt><trkpt lat="55.6579130" lon="38.2936180"><time>2020-10-31T03:22:10.347</time></trkpt><trkpt lat="55.6579300" lon="38.2935420"><time>2020-10-31T03:22:11.340</time></trkpt><trkpt lat="55.6579400" lon="38.2933920"><time>2020-10-31T03:22:13.347</time></trkpt><trkpt lat="55.6579550" lon="38.2932200"><time>2020-10-31T03:22:15.347</time></trkpt><trkpt lat="55.6579900" lon="38.2931680"><time>2020-10-31T03:22:16.347</time></trkpt><trkpt lat="55.6580320" lon="38.2931120"><time>2020-10-31T03:22:17.337</time></trkpt><trkpt lat="55.6580900" lon="38.2930220"><time>2020-10-31T03:22:18.340</time></trkpt><trkpt lat="55.6581400" lon="38.2929380"><time>2020-10-31T03:22:20.343</time></trkpt><trkpt lat="55.6582100" lon="38.2928920"><time>2020-10-31T03:22:23.347</time></trkpt><trkpt lat="55.6582650" lon="38.2928420"><time>2020-10-31T03:22:26.340</time></trkpt><trkpt lat="55.6583200" lon="38.2927770"><time>2020-10-31T03:22:29.343</time></trkpt><trkpt lat="55.6583230" lon="38.2926650"><time>2020-10-31T03:22:32.347</time></trkpt><trkpt lat="55.6583780" lon="38.2925820"><time>2020-10-31T03:22:35.347</time></trkpt><trkpt lat="55.6585220" lon="38.2925850"><time>2020-10-31T03:22:45.347</time></trkpt><trkpt lat="55.6585830" lon="38.2925930"><time>2020-10-31T03:22:47.343</time></trkpt><trkpt lat="55.6586300" lon="38.2925950"><time>2020-10-31T03:22:50.347</time></trkpt><trkpt lat="55.6587620" lon="38.2924670"><time>2020-10-31T03:22:54.343</time></trkpt><trkpt lat="55.6588280" lon="38.2923820"><time>2020-10-31T03:22:55.347</time></trkpt><trkpt lat="55.6588780" lon="38.2923150"><time>2020-10-31T03:22:57.347</time></trkpt><trkpt lat="55.6589030" lon="38.2922400"><time>2020-10-31T03:22:58.347</time></trkpt><trkpt lat="55.6589450" lon="38.2921670"><time>2020-10-31T03:23:01.347</time></trkpt><trkpt lat="55.6589870" lon="38.2921370"><time>2020-10-31T03:23:03.343</time></trkpt><trkpt lat="55.6591030" lon="38.2920670"><time>2020-10-31T03:23:18.347</time></trkpt><trkpt lat="55.6591520" lon="38.2920650"><time>2020-10-31T03:23:20.343</time></trkpt><trkpt lat="55.6592420" lon="38.2920820"><time>2020-10-31T03:23:22.347</time></trkpt><trkpt lat="55.6592870" lon="38.2920750"><time>2020-10-31T03:23:23.347</time></trkpt><trkpt lat="55.6593320" lon="38.2920770"><time>2020-10-31T03:23:24.347</time></trkpt><trkpt lat="55.6594170" lon="38.2920700"><time>2020-10-31T03:23:25.347</time></trkpt><trkpt lat="55.6594850" lon="38.2920330"><time>2020-10-31T03:23:26.347</time></trkpt><trkpt lat="55.6595730" lon="38.2919880"><time>2020-10-31T03:23:27.347</time></trkpt><trkpt lat="55.6596500" lon="38.2919450"><time>2020-10-31T03:23:28.347</time></trkpt><trkpt lat="55.6597130" lon="38.2919080"><time>2020-10-31T03:23:30.343</time></trkpt><trkpt lat="55.6597830" lon="38.2918920"><time>2020-10-31T03:23:32.343</time></trkpt><trkpt lat="55.6598430" lon="38.2918670"><time>2020-10-31T03:23:36.343</time></trkpt><trkpt lat="55.6598930" lon="38.2918120"><time>2020-10-31T03:23:40.343</time></trkpt><trkpt lat="55.6600170" lon="38.2917430"><time>2020-10-31T03:23:56.347</time></trkpt><trkpt lat="55.6601450" lon="38.2916700"><time>2020-10-31T03:24:09.343</time></trkpt><trkpt lat="55.6602700" lon="38.2916970"><time>2020-10-31T03:24:22.347</time></trkpt><trkpt lat="55.6603130" lon="38.2917220"><time>2020-10-31T03:24:25.347</time></trkpt><trkpt lat="55.6604180" lon="38.2917730"><time>2020-10-31T03:24:34.347</time></trkpt><trkpt lat="55.6604650" lon="38.2917970"><time>2020-10-31T03:24:36.347</time></trkpt><trkpt lat="55.6605630" lon="38.2918820"><time>2020-10-31T03:24:44.347</time></trkpt><trkpt lat="55.6606950" lon="38.2918380"><time>2020-10-31T03:24:55.347</time></trkpt><trkpt lat="55.6608170" lon="38.2918000"><time>2020-10-31T03:25:04.347</time></trkpt><trkpt lat="55.6609450" lon="38.2918320"><time>2020-10-31T03:25:15.347</time></trkpt><trkpt lat="55.6610830" lon="38.2918550"><time>2020-10-31T03:25:27.347</time></trkpt><trkpt lat="55.6611420" lon="38.2918720"><time>2020-10-31T03:25:30.347</time></trkpt><trkpt lat="55.6612370" lon="38.2918430"><time>2020-10-31T03:25:37.347</time></trkpt><trkpt lat="55.6613580" lon="38.2919080"><time>2020-10-31T03:25:47.347</time></trkpt><trkpt lat="55.6614670" lon="38.2919980"><time>2020-10-31T03:26:00.347</time></trkpt><trkpt lat="55.6615980" lon="38.2920380"><time>2020-10-31T03:26:10.347</time></trkpt><trkpt lat="55.6617200" lon="38.2919730"><time>2020-10-31T03:26:22.347</time></trkpt><trkpt lat="55.6618330" lon="38.2918800"><time>2020-10-31T03:26:32.347</time></trkpt><trkpt lat="55.6619250" lon="38.2918030"><time>2020-10-31T03:26:46.347</time></trkpt><trkpt lat="55.6620370" lon="38.2918120"><time>2020-10-31T03:26:59.347</time></trkpt><trkpt lat="55.6621400" lon="38.2917470"><time>2020-10-31T03:27:15.347</time></trkpt><trkpt lat="55.6623170" lon="38.2916680"><time>2020-10-31T03:27:22.343</time></trkpt><trkpt lat="55.6623920" lon="38.2916070"><time>2020-10-31T03:27:24.340</time></trkpt><trkpt lat="55.6624500" lon="38.2915770"><time>2020-10-31T03:27:26.313</time></trkpt><trkpt lat="55.6625050" lon="38.2915750"><time>2020-10-31T03:27:28.347</time></trkpt><trkpt lat="55.6625370" lon="38.2914920"><time>2020-10-31T03:27:32.347</time></trkpt><trkpt lat="55.6625730" lon="38.2915430"><time>2020-10-31T03:27:40.347</time></trkpt><trkpt lat="55.6626380" lon="38.2915570"><time>2020-10-31T03:27:42.347</time></trkpt><trkpt lat="55.6626870" lon="38.2915300"><time>2020-10-31T03:27:46.350</time></trkpt><trkpt lat="55.6627280" lon="38.2915750"><time>2020-10-31T03:27:55.350</time></trkpt><trkpt lat="55.6627500" lon="38.2915030"><time>2020-10-31T03:27:58.347</time></trkpt><trkpt lat="55.6628470" lon="38.2915300"><time>2020-10-31T03:28:20.347</time></trkpt><trkpt lat="55.6629530" lon="38.2915620"><time>2020-10-31T03:28:34.343</time></trkpt><trkpt lat="55.6630680" lon="38.2916050"><time>2020-10-31T03:28:51.350</time></trkpt><trkpt lat="55.6631770" lon="38.2915850"><time>2020-10-31T03:29:08.350</time></trkpt><trkpt lat="55.6632730" lon="38.2914750"><time>2020-10-31T03:29:19.347</time></trkpt><trkpt lat="55.6633830" lon="38.2913770"><time>2020-10-31T03:29:37.347</time></trkpt><trkpt lat="55.6634070" lon="38.2915330"><time>2020-10-31T03:30:34.350</time></trkpt><trkpt lat="55.6633830" lon="38.2916330"><time>2020-10-31T03:30:53.347</time></trkpt><trkpt lat="55.6633280" lon="38.2916700"><time>2020-10-31T03:31:01.307</time></trkpt><trkpt lat="55.6633020" lon="38.2917680"><time>2020-10-31T03:31:02.303</time></trkpt><trkpt lat="55.6633020" lon="38.2917680"><time>2020-10-31T03:31:06.943</time></trkpt><trkpt lat="55.6639230" lon="38.2913680"><time>2020-10-31T03:31:13.337</time></trkpt><trkpt lat="55.6637780" lon="38.2915680"><time>2020-10-31T03:31:15.423</time></trkpt><trkpt lat="55.6637370" lon="38.2916920"><time>2020-10-31T03:31:16.347</time></trkpt><trkpt lat="55.6636770" lon="38.2918080"><time>2020-10-31T03:31:18.343</time></trkpt><trkpt lat="55.6636250" lon="38.2918270"><time>2020-10-31T03:31:20.327</time></trkpt><trkpt lat="55.6636680" lon="38.2917270"><time>2020-10-31T03:31:23.347</time></trkpt><trkpt lat="55.6637430" lon="38.2918720"><time>2020-10-31T03:31:49.347</time></trkpt><trkpt lat="55.6637350" lon="38.2920750"><time>2020-10-31T03:32:00.350</time></trkpt><trkpt lat="55.6637520" lon="38.2923030"><time>2020-10-31T03:32:14.347</time></trkpt><trkpt lat="55.6637430" lon="38.2925230"><time>2020-10-31T03:32:20.347</time></trkpt><trkpt lat="55.6637470" lon="38.2926200"><time>2020-10-31T03:32:21.347</time></trkpt><trkpt lat="55.6637370" lon="38.2927130"><time>2020-10-31T03:32:24.350</time></trkpt><trkpt lat="55.6636980" lon="38.2927750"><time>2020-10-31T03:32:26.333</time></trkpt><trkpt lat="55.6636700" lon="38.2928770"><time>2020-10-31T03:32:27.317</time></trkpt><trkpt lat="55.6636300" lon="38.2929380"><time>2020-10-31T03:32:30.347</time></trkpt><trkpt lat="55.6637000" lon="38.2929230"><time>2020-10-31T03:32:32.350</time></trkpt><trkpt lat="55.6637480" lon="38.2928980"><time>2020-10-31T03:32:34.320</time></trkpt><trkpt lat="55.6637300" lon="38.2930120"><time>2020-10-31T03:32:41.340</time></trkpt><trkpt lat="55.6637020" lon="38.2930800"><time>2020-10-31T03:32:43.347</time></trkpt><trkpt lat="55.6636570" lon="38.2931050"><time>2020-10-31T03:32:45.347</time></trkpt><trkpt lat="55.6637620" lon="38.2931580"><time>2020-10-31T03:32:57.343</time></trkpt><trkpt lat="55.6637970" lon="38.2933650"><time>2020-10-31T03:33:10.343</time></trkpt><trkpt lat="55.6637230" lon="38.2934880"><time>2020-10-31T03:33:26.347</time></trkpt><trkpt lat="55.6638300" lon="38.2935530"><time>2020-10-31T03:33:39.350</time></trkpt><trkpt lat="55.6639080" lon="38.2935170"><time>2020-10-31T03:33:41.347</time></trkpt><trkpt lat="55.6639550" lon="38.2935630"><time>2020-10-31T03:33:44.347</time></trkpt><trkpt lat="55.6640670" lon="38.2935830"><time>2020-10-31T03:33:58.343</time></trkpt><trkpt lat="55.6640750" lon="38.2936680"><time>2020-10-31T03:34:01.347</time></trkpt><trkpt lat="55.6641220" lon="38.2938030"><time>2020-10-31T03:34:11.350</time></trkpt><trkpt lat="55.6640600" lon="38.2939820"><time>2020-10-31T03:34:20.347</time></trkpt><trkpt lat="55.6640080" lon="38.2940530"><time>2020-10-31T03:34:23.347</time></trkpt><trkpt lat="55.6639830" lon="38.2942350"><time>2020-10-31T03:34:36.347</time></trkpt><trkpt lat="55.6639720" lon="38.2943220"><time>2020-10-31T03:34:39.343</time></trkpt><trkpt lat="55.6640220" lon="38.2942820"><time>2020-10-31T03:34:41.347</time></trkpt><trkpt lat="55.6640770" lon="38.2942670"><time>2020-10-31T03:34:45.347</time></trkpt><trkpt lat="55.6641300" lon="38.2943450"><time>2020-10-31T03:34:50.347</time></trkpt><trkpt lat="55.6641750" lon="38.2943630"><time>2020-10-31T03:34:52.350</time></trkpt><trkpt lat="55.6641820" lon="38.2944750"><time>2020-10-31T03:34:55.350</time></trkpt><trkpt lat="55.6641850" lon="38.2945780"><time>2020-10-31T03:34:56.350</time></trkpt><trkpt lat="55.6642100" lon="38.2946830"><time>2020-10-31T03:34:58.347</time></trkpt><trkpt lat="55.6642180" lon="38.2947820"><time>2020-10-31T03:35:00.350</time></trkpt><trkpt lat="55.6641900" lon="38.2948450"><time>2020-10-31T03:35:03.347</time></trkpt><trkpt lat="55.6641500" lon="38.2949830"><time>2020-10-31T03:35:11.347</time></trkpt><trkpt lat="55.6641280" lon="38.2950730"><time>2020-10-31T03:35:12.353</time></trkpt><trkpt lat="55.6641100" lon="38.2951520"><time>2020-10-31T03:35:13.347</time></trkpt><trkpt lat="55.6640780" lon="38.2952670"><time>2020-10-31T03:35:15.343</time></trkpt><trkpt lat="55.6640470" lon="38.2953700"><time>2020-10-31T03:35:17.350</time></trkpt><trkpt lat="55.6640130" lon="38.2954770"><time>2020-10-31T03:35:19.343</time></trkpt><trkpt lat="55.6639570" lon="38.2955920"><time>2020-10-31T03:35:23.347</time></trkpt><trkpt lat="55.6639370" lon="38.2956800"><time>2020-10-31T03:35:25.350</time></trkpt><trkpt lat="55.6639070" lon="38.2958080"><time>2020-10-31T03:35:27.347</time></trkpt><trkpt lat="55.6639080" lon="38.2958970"><time>2020-10-31T03:35:29.347</time></trkpt><trkpt lat="55.6639080" lon="38.2959770"><time>2020-10-31T03:35:31.353</time></trkpt><trkpt lat="55.6639070" lon="38.2960820"><time>2020-10-31T03:35:34.347</time></trkpt><trkpt lat="55.6638730" lon="38.2962330"><time>2020-10-31T03:35:40.347</time></trkpt><trkpt lat="55.6638480" lon="38.2963470"><time>2020-10-31T03:35:44.350</time></trkpt><trkpt lat="55.6638120" lon="38.2964100"><time>2020-10-31T03:35:46.350</time></trkpt><trkpt lat="55.6637730" lon="38.2964870"><time>2020-10-31T03:35:49.347</time></trkpt><trkpt lat="55.6637730" lon="38.2965850"><time>2020-10-31T03:35:54.347</time></trkpt><trkpt lat="55.6637450" lon="38.2966980"><time>2020-10-31T03:35:59.350</time></trkpt><trkpt lat="55.6637550" lon="38.2968000"><time>2020-10-31T03:36:00.350</time></trkpt><trkpt lat="55.6637330" lon="38.2969420"><time>2020-10-31T03:36:01.350</time></trkpt><trkpt lat="55.6636950" lon="38.2970000"><time>2020-10-31T03:36:03.347</time></trkpt><trkpt lat="55.6636600" lon="38.2970600"><time>2020-10-31T03:36:05.350</time></trkpt><trkpt lat="55.6636250" lon="38.2971600"><time>2020-10-31T03:36:07.353</time></trkpt><trkpt lat="55.6635480" lon="38.2972600"><time>2020-10-31T03:36:09.303</time></trkpt><trkpt lat="55.6634900" lon="38.2973530"><time>2020-10-31T03:36:11.347</time></trkpt><trkpt lat="55.6634520" lon="38.2974030"><time>2020-10-31T03:36:12.353</time></trkpt><trkpt lat="55.6633980" lon="38.2974750"><time>2020-10-31T03:36:14.350</time></trkpt><trkpt lat="55.6633650" lon="38.2975300"><time>2020-10-31T03:36:15.350</time></trkpt><trkpt lat="55.6633200" lon="38.2976030"><time>2020-10-31T03:36:17.350</time></trkpt><trkpt lat="55.6632670" lon="38.2976450"><time>2020-10-31T03:36:19.350</time></trkpt><trkpt lat="55.6632280" lon="38.2976950"><time>2020-10-31T03:36:21.350</time></trkpt><trkpt lat="55.6631680" lon="38.2977420"><time>2020-10-31T03:36:24.347</time></trkpt><trkpt lat="55.6631120" lon="38.2977630"><time>2020-10-31T03:36:26.347</time></trkpt><trkpt lat="55.6630630" lon="38.2977820"><time>2020-10-31T03:36:28.350</time></trkpt><trkpt lat="55.6630180" lon="38.2978100"><time>2020-10-31T03:36:30.343</time></trkpt><trkpt lat="55.6629720" lon="38.2978500"><time>2020-10-31T03:36:32.347</time></trkpt><trkpt lat="55.6629270" lon="38.2978850"><time>2020-10-31T03:36:34.360</time></trkpt><trkpt lat="55.6628730" lon="38.2979250"><time>2020-10-31T03:36:36.347</time></trkpt><trkpt lat="55.6628100" lon="38.2979850"><time>2020-10-31T03:36:38.350</time></trkpt><trkpt lat="55.6627480" lon="38.2980450"><time>2020-10-31T03:36:40.347</time></trkpt><trkpt lat="55.6627030" lon="38.2981130"><time>2020-10-31T03:36:43.353</time></trkpt><trkpt lat="55.6626630" lon="38.2981570"><time>2020-10-31T03:36:45.343</time></trkpt><trkpt lat="55.6626070" lon="38.2982400"><time>2020-10-31T03:36:47.350</time></trkpt><trkpt lat="55.6625400" lon="38.2983200"><time>2020-10-31T03:36:49.350</time></trkpt><trkpt lat="55.6624920" lon="38.2983630"><time>2020-10-31T03:36:51.350</time></trkpt><trkpt lat="55.6624370" lon="38.2984450"><time>2020-10-31T03:36:53.350</time></trkpt><trkpt lat="55.6623930" lon="38.2984980"><time>2020-10-31T03:36:55.347</time></trkpt><trkpt lat="55.6623470" lon="38.2985820"><time>2020-10-31T03:36:57.350</time></trkpt><trkpt lat="55.6623030" lon="38.2986450"><time>2020-10-31T03:37:00.347</time></trkpt><trkpt lat="55.6622670" lon="38.2987220"><time>2020-10-31T03:37:02.350</time></trkpt><trkpt lat="55.6622330" lon="38.2987830"><time>2020-10-31T03:37:04.350</time></trkpt><trkpt lat="55.6621980" lon="38.2988820"><time>2020-10-31T03:37:06.347</time></trkpt><trkpt lat="55.6621730" lon="38.2989530"><time>2020-10-31T03:37:08.350</time></trkpt><trkpt lat="55.6621370" lon="38.2990130"><time>2020-10-31T03:37:10.350</time></trkpt><trkpt lat="55.6620970" lon="38.2990730"><time>2020-10-31T03:37:12.350</time></trkpt><trkpt lat="55.6620500" lon="38.2991570"><time>2020-10-31T03:37:14.343</time></trkpt><trkpt lat="55.6620100" lon="38.2992500"><time>2020-10-31T03:37:16.347</time></trkpt><trkpt lat="55.6619830" lon="38.2993200"><time>2020-10-31T03:37:18.347</time></trkpt><trkpt lat="55.6619920" lon="38.2994230"><time>2020-10-31T03:37:20.347</time></trkpt><trkpt lat="55.6619950" lon="38.2995180"><time>2020-10-31T03:37:22.347</time></trkpt><trkpt lat="55.6619900" lon="38.2995980"><time>2020-10-31T03:37:24.350</time></trkpt><trkpt lat="55.6619700" lon="38.2996830"><time>2020-10-31T03:37:26.347</time></trkpt><trkpt lat="55.6619420" lon="38.2997720"><time>2020-10-31T03:37:29.350</time></trkpt><trkpt lat="55.6619200" lon="38.2998670"><time>2020-10-31T03:37:31.350</time></trkpt><trkpt lat="55.6618880" lon="38.2999550"><time>2020-10-31T03:37:33.343</time></trkpt><trkpt lat="55.6618480" lon="38.3000250"><time>2020-10-31T03:37:36.350</time></trkpt><trkpt lat="55.6618350" lon="38.3001250"><time>2020-10-31T03:37:39.347</time></trkpt><trkpt lat="55.6618130" lon="38.3002100"><time>2020-10-31T03:37:43.347</time></trkpt><trkpt lat="55.6617850" lon="38.3003680"><time>2020-10-31T03:37:50.347</time></trkpt><trkpt lat="55.6617430" lon="38.3004470"><time>2020-10-31T03:37:52.343</time></trkpt><trkpt lat="55.6617070" lon="38.3005320"><time>2020-10-31T03:37:54.350</time></trkpt><trkpt lat="55.6616750" lon="38.3007650"><time>2020-10-31T03:38:06.350</time></trkpt><trkpt lat="55.6616800" lon="38.3008920"><time>2020-10-31T03:38:13.350</time></trkpt><trkpt lat="55.6617120" lon="38.3010070"><time>2020-10-31T03:38:17.347</time></trkpt><trkpt lat="55.6616730" lon="38.3011180"><time>2020-10-31T03:38:19.350</time></trkpt><trkpt lat="55.6616380" lon="38.3011830"><time>2020-10-31T03:38:22.347</time></trkpt><trkpt lat="55.6616450" lon="38.3013620"><time>2020-10-31T03:38:32.347</time></trkpt><trkpt lat="55.6616530" lon="38.3014400"><time>2020-10-31T03:38:33.350</time></trkpt><trkpt lat="55.6615950" lon="38.3016400"><time>2020-10-31T03:38:44.350</time></trkpt><trkpt lat="55.6615530" lon="38.3017280"><time>2020-10-31T03:38:46.353</time></trkpt><trkpt lat="55.6614900" lon="38.3019020"><time>2020-10-31T03:38:48.347</time></trkpt><trkpt lat="55.6615050" lon="38.3020080"><time>2020-10-31T03:38:49.353</time></trkpt><trkpt lat="55.6614820" lon="38.3021380"><time>2020-10-31T03:38:51.350</time></trkpt><trkpt lat="55.6614770" lon="38.3022270"><time>2020-10-31T03:38:53.350</time></trkpt><trkpt lat="55.6614550" lon="38.3023400"><time>2020-10-31T03:38:55.350</time></trkpt><trkpt lat="55.6614400" lon="38.3024150"><time>2020-10-31T03:38:58.347</time></trkpt><trkpt lat="55.6614320" lon="38.3025380"><time>2020-10-31T03:39:00.350</time></trkpt><trkpt lat="55.6614150" lon="38.3026250"><time>2020-10-31T03:39:02.347</time></trkpt><trkpt lat="55.6613450" lon="38.3026850"><time>2020-10-31T03:39:04.353</time></trkpt><trkpt lat="55.6613920" lon="38.3025900"><time>2020-10-31T03:39:28.347</time></trkpt><trkpt lat="55.6614200" lon="38.3025220"><time>2020-10-31T03:39:30.353</time></trkpt><trkpt lat="55.6614550" lon="38.3024470"><time>2020-10-31T03:39:32.347</time></trkpt><trkpt lat="55.6614970" lon="38.3023680"><time>2020-10-31T03:39:34.350</time></trkpt><trkpt lat="55.6615450" lon="38.3023020"><time>2020-10-31T03:39:37.350</time></trkpt><trkpt lat="55.6615830" lon="38.3022080"><time>2020-10-31T03:39:40.347</time></trkpt><trkpt lat="55.6615970" lon="38.3021130"><time>2020-10-31T03:39:42.347</time></trkpt><trkpt lat="55.6616020" lon="38.3020100"><time>2020-10-31T03:39:45.347</time></trkpt><trkpt lat="55.6616650" lon="38.3018550"><time>2020-10-31T03:39:52.347</time></trkpt><trkpt lat="55.6616830" lon="38.3017480"><time>2020-10-31T03:39:54.347</time></trkpt><trkpt lat="55.6617000" lon="38.3016630"><time>2020-10-31T03:39:56.350</time></trkpt><trkpt lat="55.6617200" lon="38.3015770"><time>2020-10-31T03:39:58.347</time></trkpt><trkpt lat="55.6617500" lon="38.3014980"><time>2020-10-31T03:40:02.350</time></trkpt><trkpt lat="55.6617800" lon="38.3014330"><time>2020-10-31T03:40:04.347</time></trkpt><trkpt lat="55.6618880" lon="38.3014570"><time>2020-10-31T03:40:41.347</time></trkpt><trkpt lat="55.6618900" lon="38.3016530"><time>2020-10-31T03:41:14.350</time></trkpt><trkpt lat="55.6618070" lon="38.3017900"><time>2020-10-31T03:41:40.347</time></trkpt><trkpt lat="55.6617880" lon="38.3019620"><time>2020-10-31T03:41:52.347</time></trkpt><trkpt lat="55.6618030" lon="38.3020500"><time>2020-10-31T03:41:54.347</time></trkpt><trkpt lat="55.6617900" lon="38.3021320"><time>2020-10-31T03:41:57.350</time></trkpt><trkpt lat="55.6617800" lon="38.3022200"><time>2020-10-31T03:42:01.323</time></trkpt><trkpt lat="55.6617720" lon="38.3023470"><time>2020-10-31T03:42:02.347</time></trkpt><trkpt lat="55.6617130" lon="38.3025300"><time>2020-10-31T03:42:03.310</time></trkpt><trkpt lat="55.6616630" lon="38.3027520"><time>2020-10-31T03:42:04.343</time></trkpt><trkpt lat="55.6616420" lon="38.3029880"><time>2020-10-31T03:42:05.317</time></trkpt><trkpt lat="55.6616280" lon="38.3031850"><time>2020-10-31T03:42:06.343</time></trkpt><trkpt lat="55.6615670" lon="38.3031630"><time>2020-10-31T03:42:07.347</time></trkpt><trkpt lat="55.6616000" lon="38.3029380"><time>2020-10-31T03:42:08.347</time></trkpt><trkpt lat="55.6616470" lon="38.3026300"><time>2020-10-31T03:42:09.347</time></trkpt><trkpt lat="55.6616720" lon="38.3025450"><time>2020-10-31T03:42:10.347</time></trkpt><trkpt lat="55.6617020" lon="38.3024580"><time>2020-10-31T03:42:12.347</time></trkpt><trkpt lat="55.6616550" lon="38.3025330"><time>2020-10-31T03:42:36.347</time></trkpt><trkpt lat="55.6616220" lon="38.3027020"><time>2020-10-31T03:42:56.347</time></trkpt><trkpt lat="55.6616630" lon="38.3027320"><time>2020-10-31T03:42:58.347</time></trkpt><trkpt lat="55.6617200" lon="38.3027380"><time>2020-10-31T03:43:01.347</time></trkpt><trkpt lat="55.6618320" lon="38.3028500"><time>2020-10-31T03:43:23.347</time></trkpt><trkpt lat="55.6619470" lon="38.3029630"><time>2020-10-31T03:43:39.347</time></trkpt><trkpt lat="55.6619980" lon="38.3029480"><time>2020-10-31T03:43:42.347</time></trkpt><trkpt lat="55.6620350" lon="38.3030020"><time>2020-10-31T03:43:45.347</time></trkpt><trkpt lat="55.6620730" lon="38.3032630"><time>2020-10-31T03:43:57.350</time></trkpt><trkpt lat="55.6620930" lon="38.3033470"><time>2020-10-31T03:44:00.347</time></trkpt><trkpt lat="55.6620830" lon="38.3034250"><time>2020-10-31T03:44:04.347</time></trkpt><trkpt lat="55.6620980" lon="38.3035280"><time>2020-10-31T03:44:17.350</time></trkpt><trkpt lat="55.6621180" lon="38.3036030"><time>2020-10-31T03:44:22.347</time></trkpt><trkpt lat="55.6621430" lon="38.3036720"><time>2020-10-31T03:44:30.347</time></trkpt><trkpt lat="55.6622050" lon="38.3036400"><time>2020-10-31T03:44:37.347</time></trkpt><trkpt lat="55.6622170" lon="38.3037430"><time>2020-10-31T03:44:49.353</time></trkpt><trkpt lat="55.6621650" lon="38.3037820"><time>2020-10-31T03:44:50.347</time></trkpt><trkpt lat="55.6621330" lon="38.3038450"><time>2020-10-31T03:44:52.347</time></trkpt><trkpt lat="55.6621720" lon="38.3039930"><time>2020-10-31T03:45:05.350</time></trkpt><trkpt lat="55.6621950" lon="38.3040720"><time>2020-10-31T03:45:07.350</time></trkpt><trkpt lat="55.6622480" lon="38.3040980"><time>2020-10-31T03:45:09.343</time></trkpt><trkpt lat="55.6623030" lon="38.3041250"><time>2020-10-31T03:45:12.350</time></trkpt><trkpt lat="55.6623530" lon="38.3040730"><time>2020-10-31T03:45:18.353</time></trkpt><trkpt lat="55.6624180" lon="38.3040270"><time>2020-10-31T03:45:21.350</time></trkpt><trkpt lat="55.6624700" lon="38.3040280"><time>2020-10-31T03:45:25.347</time></trkpt><trkpt lat="55.6625630" lon="38.3041430"><time>2020-10-31T03:45:37.347</time></trkpt><trkpt lat="55.6625480" lon="38.3042520"><time>2020-10-31T03:45:38.350</time></trkpt><trkpt lat="55.6626450" lon="38.3042930"><time>2020-10-31T03:45:48.347</time></trkpt><trkpt lat="55.6627730" lon="38.3043050"><time>2020-10-31T03:45:56.350</time></trkpt><trkpt lat="55.6628180" lon="38.3043330"><time>2020-10-31T03:45:59.350</time></trkpt><trkpt lat="55.6629070" lon="38.3042830"><time>2020-10-31T03:46:01.350</time></trkpt><trkpt lat="55.6629600" lon="38.3042530"><time>2020-10-31T03:46:03.347</time></trkpt><trkpt lat="55.6630200" lon="38.3042700"><time>2020-10-31T03:46:07.353</time></trkpt><trkpt lat="55.6631080" lon="38.3043820"><time>2020-10-31T03:46:19.347</time></trkpt><trkpt lat="55.6631650" lon="38.3043400"><time>2020-10-31T03:46:20.347</time></trkpt><trkpt lat="55.6631650" lon="38.3044250"><time>2020-10-31T03:46:22.350</time></trkpt><trkpt lat="55.6631630" lon="38.3046430"><time>2020-10-31T03:46:28.350</time></trkpt><trkpt lat="55.6632750" lon="38.3047930"><time>2020-10-31T03:46:38.347</time></trkpt><trkpt lat="55.6633200" lon="38.3048130"><time>2020-10-31T03:46:41.347</time></trkpt><trkpt lat="55.6633550" lon="38.3049930"><time>2020-10-31T03:46:47.350</time></trkpt><trkpt lat="55.6634000" lon="38.3050850"><time>2020-10-31T03:46:50.350</time></trkpt><trkpt lat="55.6634650" lon="38.3052200"><time>2020-10-31T03:46:54.347</time></trkpt><trkpt lat="55.6635270" lon="38.3052750"><time>2020-10-31T03:46:57.347</time></trkpt><trkpt lat="55.6635980" lon="38.3052220"><time>2020-10-31T03:46:59.350</time></trkpt><trkpt lat="55.6636520" lon="38.3051930"><time>2020-10-31T03:47:00.350</time></trkpt><trkpt lat="55.6637200" lon="38.3051970"><time>2020-10-31T03:47:02.347</time></trkpt><trkpt lat="55.6637730" lon="38.3052300"><time>2020-10-31T03:47:04.350</time></trkpt><trkpt lat="55.6638200" lon="38.3052300"><time>2020-10-31T03:47:06.347</time></trkpt><trkpt lat="55.6639350" lon="38.3053470"><time>2020-10-31T03:47:18.347</time></trkpt><trkpt lat="55.6639720" lon="38.3053970"><time>2020-10-31T03:47:20.350</time></trkpt><trkpt lat="55.6640470" lon="38.3055250"><time>2020-10-31T03:47:29.347</time></trkpt><trkpt lat="55.6640650" lon="38.3056020"><time>2020-10-31T03:47:31.350</time></trkpt><trkpt lat="55.6640880" lon="38.3057770"><time>2020-10-31T03:47:43.347</time></trkpt><trkpt lat="55.6640400" lon="38.3059830"><time>2020-10-31T03:48:04.347</time></trkpt><trkpt lat="55.6640130" lon="38.3061750"><time>2020-10-31T03:48:21.347</time></trkpt><trkpt lat="55.6639530" lon="38.3063250"><time>2020-10-31T03:48:34.347</time></trkpt><trkpt lat="55.6638430" lon="38.3064300"><time>2020-10-31T03:48:45.347</time></trkpt><trkpt lat="55.6637400" lon="38.3065680"><time>2020-10-31T03:48:55.353</time></trkpt><trkpt lat="55.6636720" lon="38.3067220"><time>2020-10-31T03:49:05.347</time></trkpt><trkpt lat="55.6635880" lon="38.3067370"><time>2020-10-31T03:49:07.307</time></trkpt><trkpt lat="55.6634870" lon="38.3066920"><time>2020-10-31T03:49:08.347</time></trkpt><trkpt lat="55.6634730" lon="38.3064720"><time>2020-10-31T03:49:09.340</time></trkpt><trkpt lat="55.6634350" lon="38.3065600"><time>2020-10-31T03:49:10.347</time></trkpt><trkpt lat="55.6634800" lon="38.3066270"><time>2020-10-31T03:49:12.350</time></trkpt><trkpt lat="55.6635300" lon="38.3066120"><time>2020-10-31T03:49:26.350</time></trkpt><trkpt lat="55.6634780" lon="38.3067170"><time>2020-10-31T03:49:29.350</time></trkpt><trkpt lat="55.6634450" lon="38.3068330"><time>2020-10-31T03:49:39.350</time></trkpt><trkpt lat="55.6634520" lon="38.3069300"><time>2020-10-31T03:49:42.353</time></trkpt><trkpt lat="55.6634430" lon="38.3070250"><time>2020-10-31T03:49:45.353</time></trkpt><trkpt lat="55.6634870" lon="38.3069930"><time>2020-10-31T03:49:50.350</time></trkpt><trkpt lat="55.6635030" lon="38.3070770"><time>2020-10-31T03:49:57.350</time></trkpt><trkpt lat="55.6635500" lon="38.3071280"><time>2020-10-31T03:50:03.353</time></trkpt><trkpt lat="55.6635980" lon="38.3070770"><time>2020-10-31T03:50:07.353</time></trkpt><trkpt lat="55.6635670" lon="38.3071820"><time>2020-10-31T03:50:33.350</time></trkpt><trkpt lat="55.6636350" lon="38.3073600"><time>2020-10-31T03:50:43.350</time></trkpt><trkpt lat="55.6636970" lon="38.3075630"><time>2020-10-31T03:51:01.353</time></trkpt><trkpt lat="55.6637530" lon="38.3077400"><time>2020-10-31T03:51:17.340</time></trkpt><trkpt lat="55.6637700" lon="38.3078450"><time>2020-10-31T03:51:20.317</time></trkpt><trkpt lat="55.6637480" lon="38.3078580"><time>2020-10-31T03:51:22.253</time></trkpt><trkpt lat="55.6637220" lon="38.3078470"><time>2020-10-31T03:51:22.390</time></trkpt><trkpt lat="55.6636650" lon="38.3078670"><time>2020-10-31T03:51:23.310</time></trkpt><trkpt lat="55.6637480" lon="38.3077480"><time>2020-10-31T03:51:25.303</time></trkpt><trkpt lat="55.6638100" lon="38.3078180"><time>2020-10-31T03:51:26.303</time></trkpt><trkpt lat="55.6638020" lon="38.3079100"><time>2020-10-31T03:51:29.347</time></trkpt><trkpt lat="55.6638420" lon="38.3078330"><time>2020-10-31T03:51:34.350</time></trkpt><trkpt lat="55.6639270" lon="38.3077330"><time>2020-10-31T03:51:45.560</time></trkpt><trkpt lat="55.6639830" lon="38.3076330"><time>2020-10-31T03:51:49.353</time></trkpt><trkpt lat="55.6640380" lon="38.3075670"><time>2020-10-31T03:51:57.350</time></trkpt><trkpt lat="55.6640970" lon="38.3075770"><time>2020-10-31T03:52:00.347</time></trkpt><trkpt lat="55.6641720" lon="38.3075250"><time>2020-10-31T03:52:12.357</time></trkpt><trkpt lat="55.6642020" lon="38.3074070"><time>2020-10-31T03:52:28.357</time></trkpt><trkpt lat="55.6642650" lon="38.3073470"><time>2020-10-31T03:52:29.343</time></trkpt><trkpt lat="55.6643130" lon="38.3073380"><time>2020-10-31T03:52:30.353</time></trkpt><trkpt lat="55.6643450" lon="38.3072820"><time>2020-10-31T03:52:32.350</time></trkpt><trkpt lat="55.6643220" lon="38.3071750"><time>2020-10-31T03:52:33.347</time></trkpt><trkpt lat="55.6643130" lon="38.3070970"><time>2020-10-31T03:52:34.347</time></trkpt><trkpt lat="55.6642670" lon="38.3071200"><time>2020-10-31T03:52:38.353</time></trkpt><trkpt lat="55.6642280" lon="38.3070650"><time>2020-10-31T03:52:40.350</time></trkpt><trkpt lat="55.6642470" lon="38.3069870"><time>2020-10-31T03:52:49.347</time></trkpt><trkpt lat="55.6642250" lon="38.3069150"><time>2020-10-31T03:52:52.353</time></trkpt><trkpt lat="55.6641920" lon="38.3067080"><time>2020-10-31T03:53:08.350</time></trkpt><trkpt lat="55.6642120" lon="38.3066070"><time>2020-10-31T03:53:13.350</time></trkpt><trkpt lat="55.6642350" lon="38.3065280"><time>2020-10-31T03:53:16.353</time></trkpt><trkpt lat="55.6642530" lon="38.3064000"><time>2020-10-31T03:53:26.353</time></trkpt><trkpt lat="55.6642150" lon="38.3064630"><time>2020-10-31T03:53:47.350</time></trkpt><trkpt lat="55.6642280" lon="38.3063280"><time>2020-10-31T03:53:57.347</time></trkpt><trkpt lat="55.6642850" lon="38.3061170"><time>2020-10-31T03:54:07.347</time></trkpt><trkpt lat="55.6643120" lon="38.3060400"><time>2020-10-31T03:54:11.350</time></trkpt><trkpt lat="55.6642480" lon="38.3058370"><time>2020-10-31T03:54:16.357</time></trkpt><trkpt lat="55.6642200" lon="38.3057750"><time>2020-10-31T03:54:17.353</time></trkpt><trkpt lat="55.6641970" lon="38.3056970"><time>2020-10-31T03:54:19.350</time></trkpt><trkpt lat="55.6642150" lon="38.3056170"><time>2020-10-31T03:54:22.350</time></trkpt><trkpt lat="55.6642030" lon="38.3055250"><time>2020-10-31T03:54:28.350</time></trkpt><trkpt lat="55.6642930" lon="38.3055130"><time>2020-10-31T03:54:35.350</time></trkpt><trkpt lat="55.6643450" lon="38.3054900"><time>2020-10-31T03:54:37.350</time></trkpt><trkpt lat="55.6644150" lon="38.3055450"><time>2020-10-31T03:54:40.347</time></trkpt><trkpt lat="55.6644730" lon="38.3056580"><time>2020-10-31T03:55:01.350</time></trkpt><trkpt lat="55.6644620" lon="38.3057480"><time>2020-10-31T03:55:05.347</time></trkpt><trkpt lat="55.6644670" lon="38.3058580"><time>2020-10-31T03:55:08.353</time></trkpt><trkpt lat="55.6644700" lon="38.3059480"><time>2020-10-31T03:55:09.347</time></trkpt><trkpt lat="55.6644720" lon="38.3060900"><time>2020-10-31T03:55:11.350</time></trkpt><trkpt lat="55.6644720" lon="38.3062080"><time>2020-10-31T03:55:13.357</time></trkpt><trkpt lat="55.6644930" lon="38.3063130"><time>2020-10-31T03:55:15.350</time></trkpt><trkpt lat="55.6645220" lon="38.3064030"><time>2020-10-31T03:55:17.350</time></trkpt><trkpt lat="55.6645350" lon="38.3064930"><time>2020-10-31T03:55:19.353</time></trkpt><trkpt lat="55.6645620" lon="38.3065580"><time>2020-10-31T03:55:22.350</time></trkpt><trkpt lat="55.6646080" lon="38.3066330"><time>2020-10-31T03:55:24.350</time></trkpt><trkpt lat="55.6646500" lon="38.3067350"><time>2020-10-31T03:55:26.353</time></trkpt><trkpt lat="55.6646770" lon="38.3068200"><time>2020-10-31T03:55:27.353</time></trkpt><trkpt lat="55.6647430" lon="38.3068300"><time>2020-10-31T03:55:30.353</time></trkpt><trkpt lat="55.6647800" lon="38.3069020"><time>2020-10-31T03:55:32.350</time></trkpt><trkpt lat="55.6648150" lon="38.3069530"><time>2020-10-31T03:55:34.347</time></trkpt><trkpt lat="55.6648570" lon="38.3070130"><time>2020-10-31T03:55:36.347</time></trkpt><trkpt lat="55.6648780" lon="38.3070950"><time>2020-10-31T03:55:38.353</time></trkpt><trkpt lat="55.6649230" lon="38.3071450"><time>2020-10-31T03:55:41.353</time></trkpt><trkpt lat="55.6649900" lon="38.3070970"><time>2020-10-31T03:55:43.357</time></trkpt><trkpt lat="55.6650370" lon="38.3071230"><time>2020-10-31T03:55:45.350</time></trkpt><trkpt lat="55.6650800" lon="38.3071830"><time>2020-10-31T03:55:47.350</time></trkpt><trkpt lat="55.6651120" lon="38.3072930"><time>2020-10-31T03:55:49.357</time></trkpt><trkpt lat="55.6652080" lon="38.3074300"><time>2020-10-31T03:55:58.353</time></trkpt><trkpt lat="55.6652630" lon="38.3075400"><time>2020-10-31T03:56:04.350</time></trkpt><trkpt lat="55.6653100" lon="38.3075780"><time>2020-10-31T03:56:06.347</time></trkpt><trkpt lat="55.6653770" lon="38.3076430"><time>2020-10-31T03:56:08.353</time></trkpt><trkpt lat="55.6654470" lon="38.3076580"><time>2020-10-31T03:56:10.353</time></trkpt><trkpt lat="55.6654930" lon="38.3076620"><time>2020-10-31T03:56:11.353</time></trkpt><trkpt lat="55.6655550" lon="38.3077180"><time>2020-10-31T03:56:13.350</time></trkpt><trkpt lat="55.6656080" lon="38.3077050"><time>2020-10-31T03:56:16.353</time></trkpt><trkpt lat="55.6656520" lon="38.3076380"><time>2020-10-31T03:56:19.347</time></trkpt><trkpt lat="55.6657030" lon="38.3076070"><time>2020-10-31T03:56:22.353</time></trkpt><trkpt lat="55.6657530" lon="38.3075630"><time>2020-10-31T03:56:26.353</time></trkpt><trkpt lat="55.6658070" lon="38.3074930"><time>2020-10-31T03:56:30.353</time></trkpt><trkpt lat="55.6658620" lon="38.3074280"><time>2020-10-31T03:56:33.353</time></trkpt><trkpt lat="55.6659130" lon="38.3073920"><time>2020-10-31T03:56:35.353</time></trkpt><trkpt lat="55.6659630" lon="38.3073620"><time>2020-10-31T03:56:38.350</time></trkpt><trkpt lat="55.6660020" lon="38.3072950"><time>2020-10-31T03:56:41.347</time></trkpt><trkpt lat="55.6660600" lon="38.3072330"><time>2020-10-31T03:56:43.353</time></trkpt><trkpt lat="55.6660970" lon="38.3071870"><time>2020-10-31T03:56:46.353</time></trkpt><trkpt lat="55.6661830" lon="38.3070670"><time>2020-10-31T03:56:56.350</time></trkpt><trkpt lat="55.6662230" lon="38.3069970"><time>2020-10-31T03:56:58.350</time></trkpt><trkpt lat="55.6662720" lon="38.3069250"><time>2020-10-31T03:57:00.353</time></trkpt><trkpt lat="55.6663750" lon="38.3068380"><time>2020-10-31T03:57:07.350</time></trkpt><trkpt lat="55.6664330" lon="38.3068450"><time>2020-10-31T03:57:08.347</time></trkpt><trkpt lat="55.6664820" lon="38.3068480"><time>2020-10-31T03:57:09.353</time></trkpt><trkpt lat="55.6665350" lon="38.3068280"><time>2020-10-31T03:57:12.350</time></trkpt><trkpt lat="55.6665880" lon="38.3067800"><time>2020-10-31T03:57:14.353</time></trkpt><trkpt lat="55.6666320" lon="38.3067530"><time>2020-10-31T03:57:16.353</time></trkpt><trkpt lat="55.6666730" lon="38.3067220"><time>2020-10-31T03:57:18.353</time></trkpt><trkpt lat="55.6667880" lon="38.3065820"><time>2020-10-31T03:57:26.350</time></trkpt><trkpt lat="55.6668150" lon="38.3064970"><time>2020-10-31T03:57:28.353</time></trkpt><trkpt lat="55.6668720" lon="38.3063950"><time>2020-10-31T03:57:30.353</time></trkpt><trkpt lat="55.6669120" lon="38.3063570"><time>2020-10-31T03:57:31.350</time></trkpt><trkpt lat="55.6669780" lon="38.3062950"><time>2020-10-31T03:57:33.353</time></trkpt><trkpt lat="55.6670230" lon="38.3062550"><time>2020-10-31T03:57:35.353</time></trkpt><trkpt lat="55.6670620" lon="38.3062130"><time>2020-10-31T03:57:37.353</time></trkpt><trkpt lat="55.6671530" lon="38.3061370"><time>2020-10-31T03:57:44.353</time></trkpt><trkpt lat="55.6672150" lon="38.3060930"><time>2020-10-31T03:57:45.350</time></trkpt><trkpt lat="55.6672720" lon="38.3060180"><time>2020-10-31T03:57:47.353</time></trkpt><trkpt lat="55.6673070" lon="38.3059600"><time>2020-10-31T03:57:49.350</time></trkpt><trkpt lat="55.6673570" lon="38.3059500"><time>2020-10-31T03:57:51.347</time></trkpt><trkpt lat="55.6674200" lon="38.3059100"><time>2020-10-31T03:57:54.350</time></trkpt><trkpt lat="55.6674670" lon="38.3058570"><time>2020-10-31T03:57:56.353</time></trkpt><trkpt lat="55.6675050" lon="38.3057820"><time>2020-10-31T03:57:58.353</time></trkpt><trkpt lat="55.6675620" lon="38.3057150"><time>2020-10-31T03:58:00.353</time></trkpt><trkpt lat="55.6676270" lon="38.3056780"><time>2020-10-31T03:58:02.353</time></trkpt><trkpt lat="55.6676620" lon="38.3056120"><time>2020-10-31T03:58:04.350</time></trkpt><trkpt lat="55.6677170" lon="38.3055520"><time>2020-10-31T03:58:08.350</time></trkpt><trkpt lat="55.6677530" lon="38.3054920"><time>2020-10-31T03:58:11.353</time></trkpt><trkpt lat="55.6678220" lon="38.3053680"><time>2020-10-31T03:58:19.353</time></trkpt><trkpt lat="55.6678380" lon="38.3052780"><time>2020-10-31T03:58:21.350</time></trkpt><trkpt lat="55.6678700" lon="38.3052170"><time>2020-10-31T03:58:24.353</time></trkpt><trkpt lat="55.6679150" lon="38.3051750"><time>2020-10-31T03:58:29.350</time></trkpt><trkpt lat="55.6680170" lon="38.3051280"><time>2020-10-31T03:58:35.353</time></trkpt><trkpt lat="55.6680650" lon="38.3051250"><time>2020-10-31T03:58:36.350</time></trkpt><trkpt lat="55.6681250" lon="38.3051130"><time>2020-10-31T03:58:38.350</time></trkpt><trkpt lat="55.6682020" lon="38.3049720"><time>2020-10-31T03:58:48.350</time></trkpt><trkpt lat="55.6681770" lon="38.3048950"><time>2020-10-31T03:58:51.350</time></trkpt><trkpt lat="55.6681970" lon="38.3047300"><time>2020-10-31T03:58:55.350</time></trkpt><trkpt lat="55.6682820" lon="38.3046250"><time>2020-10-31T03:58:56.353</time></trkpt><trkpt lat="55.6683370" lon="38.3045200"><time>2020-10-31T03:58:57.357</time></trkpt><trkpt lat="55.6683770" lon="38.3044230"><time>2020-10-31T03:58:58.350</time></trkpt><trkpt lat="55.6684150" lon="38.3043070"><time>2020-10-31T03:58:59.347</time></trkpt><trkpt lat="55.6684630" lon="38.3042120"><time>2020-10-31T03:59:00.347</time></trkpt><trkpt lat="55.6685070" lon="38.3040700"><time>2020-10-31T03:59:01.353</time></trkpt><trkpt lat="55.6685300" lon="38.3039720"><time>2020-10-31T03:59:02.353</time></trkpt><trkpt lat="55.6685300" lon="38.3038730"><time>2020-10-31T03:59:03.353</time></trkpt><trkpt lat="55.6685430" lon="38.3037730"><time>2020-10-31T03:59:05.347</time></trkpt><trkpt lat="55.6685680" lon="38.3036780"><time>2020-10-31T03:59:08.350</time></trkpt><trkpt lat="55.6686100" lon="38.3036430"><time>2020-10-31T03:59:10.350</time></trkpt><trkpt lat="55.6686350" lon="38.3035500"><time>2020-10-31T03:59:13.350</time></trkpt><trkpt lat="55.6686730" lon="38.3034900"><time>2020-10-31T03:59:16.347</time></trkpt><trkpt lat="55.6686970" lon="38.3033880"><time>2020-10-31T03:59:19.353</time></trkpt><trkpt lat="55.6687250" lon="38.3033120"><time>2020-10-31T03:59:21.357</time></trkpt><trkpt lat="55.6687880" lon="38.3032850"><time>2020-10-31T03:59:26.350</time></trkpt><trkpt lat="55.6688330" lon="38.3032170"><time>2020-10-31T03:59:29.350</time></trkpt><trkpt lat="55.6688970" lon="38.3031230"><time>2020-10-31T03:59:33.347</time></trkpt><trkpt lat="55.6689320" lon="38.3030600"><time>2020-10-31T03:59:34.350</time></trkpt><trkpt lat="55.6689650" lon="38.3030030"><time>2020-10-31T03:59:35.353</time></trkpt><trkpt lat="55.6690020" lon="38.3028920"><time>2020-10-31T03:59:37.350</time></trkpt><trkpt lat="55.6690280" lon="38.3027930"><time>2020-10-31T03:59:39.347</time></trkpt><trkpt lat="55.6690630" lon="38.3027120"><time>2020-10-31T03:59:41.347</time></trkpt><trkpt lat="55.6691800" lon="38.3025600"><time>2020-10-31T03:59:52.353</time></trkpt><trkpt lat="55.6692220" lon="38.3024900"><time>2020-10-31T03:59:53.353</time></trkpt><trkpt lat="55.6692480" lon="38.3023650"><time>2020-10-31T03:59:54.350</time></trkpt><trkpt lat="55.6692720" lon="38.3022920"><time>2020-10-31T03:59:55.353</time></trkpt><trkpt lat="55.6692780" lon="38.3022030"><time>2020-10-31T03:59:56.353</time></trkpt><trkpt lat="55.6692720" lon="38.3020570"><time>2020-10-31T03:59:58.357</time></trkpt><trkpt lat="55.6692920" lon="38.3019300"><time>2020-10-31T04:00:00.353</time></trkpt><trkpt lat="55.6692920" lon="38.3018050"><time>2020-10-31T04:00:02.353</time></trkpt><trkpt lat="55.6692850" lon="38.3017100"><time>2020-10-31T04:00:03.353</time></trkpt><trkpt lat="55.6692950" lon="38.3015970"><time>2020-10-31T04:00:05.353</time></trkpt><trkpt lat="55.6693200" lon="38.3015270"><time>2020-10-31T04:00:10.347</time></trkpt><trkpt lat="55.6693650" lon="38.3015370"><time>2020-10-31T04:00:12.350</time></trkpt><trkpt lat="55.6694270" lon="38.3015420"><time>2020-10-31T04:00:14.350</time></trkpt><trkpt lat="55.6694930" lon="38.3014130"><time>2020-10-31T04:00:16.350</time></trkpt><trkpt lat="55.6695350" lon="38.3013830"><time>2020-10-31T04:00:20.353</time></trkpt><trkpt lat="55.6695950" lon="38.3011720"><time>2020-10-31T04:00:34.353</time></trkpt><trkpt lat="55.6696300" lon="38.3010900"><time>2020-10-31T04:00:35.353</time></trkpt><trkpt lat="55.6696480" lon="38.3009920"><time>2020-10-31T04:00:36.350</time></trkpt><trkpt lat="55.6696700" lon="38.3009170"><time>2020-10-31T04:00:37.350</time></trkpt><trkpt lat="55.6696700" lon="38.3008200"><time>2020-10-31T04:00:38.340</time></trkpt><trkpt lat="55.6696780" lon="38.3007170"><time>2020-10-31T04:00:39.347</time></trkpt><trkpt lat="55.6696980" lon="38.3006030"><time>2020-10-31T04:00:41.350</time></trkpt><trkpt lat="55.6697330" lon="38.3005230"><time>2020-10-31T04:00:44.350</time></trkpt><trkpt lat="55.6697480" lon="38.3004230"><time>2020-10-31T04:00:46.353</time></trkpt><trkpt lat="55.6697850" lon="38.3003580"><time>2020-10-31T04:00:48.353</time></trkpt><trkpt lat="55.6698330" lon="38.3002700"><time>2020-10-31T04:00:51.353</time></trkpt><trkpt lat="55.6698880" lon="38.3002270"><time>2020-10-31T04:00:55.350</time></trkpt><trkpt lat="55.6699270" lon="38.3001730"><time>2020-10-31T04:01:00.353</time></trkpt><trkpt lat="55.6699770" lon="38.3000200"><time>2020-10-31T04:01:06.353</time></trkpt><trkpt lat="55.6700000" lon="38.2999370"><time>2020-10-31T04:01:07.357</time></trkpt><trkpt lat="55.6700300" lon="38.2998100"><time>2020-10-31T04:01:08.353</time></trkpt><trkpt lat="55.6700550" lon="38.2996580"><time>2020-10-31T04:01:09.357</time></trkpt><trkpt lat="55.6700900" lon="38.2995750"><time>2020-10-31T04:01:10.350</time></trkpt><trkpt lat="55.6701170" lon="38.2994130"><time>2020-10-31T04:01:12.353</time></trkpt><trkpt lat="55.6701280" lon="38.2993150"><time>2020-10-31T04:01:14.353</time></trkpt><trkpt lat="55.6701520" lon="38.2992450"><time>2020-10-31T04:01:18.353</time></trkpt><trkpt lat="55.6701800" lon="38.2991370"><time>2020-10-31T04:01:20.357</time></trkpt><trkpt lat="55.6701870" lon="38.2990370"><time>2020-10-31T04:01:22.353</time></trkpt><trkpt lat="55.6702220" lon="38.2989870"><time>2020-10-31T04:01:24.353</time></trkpt><trkpt lat="55.6702730" lon="38.2989680"><time>2020-10-31T04:01:27.357</time></trkpt><trkpt lat="55.6703250" lon="38.2988370"><time>2020-10-31T04:01:35.347</time></trkpt><trkpt lat="55.6703630" lon="38.2987870"><time>2020-10-31T04:01:38.353</time></trkpt><trkpt lat="55.6704520" lon="38.2987480"><time>2020-10-31T04:01:45.350</time></trkpt><trkpt lat="55.6706150" lon="38.2986230"><time>2020-10-31T04:01:54.353</time></trkpt><trkpt lat="55.6706600" lon="38.2985970"><time>2020-10-31T04:01:56.353</time></trkpt><trkpt lat="55.6706680" lon="38.2985100"><time>2020-10-31T04:02:08.353</time></trkpt><trkpt lat="55.6705720" lon="38.2983720"><time>2020-10-31T04:02:20.353</time></trkpt><trkpt lat="55.6705370" lon="38.2982980"><time>2020-10-31T04:02:23.350</time></trkpt><trkpt lat="55.6704520" lon="38.2982170"><time>2020-10-31T04:02:28.350</time></trkpt><trkpt lat="55.6703370" lon="38.2980820"><time>2020-10-31T04:02:40.353</time></trkpt><trkpt lat="55.6703080" lon="38.2979780"><time>2020-10-31T04:02:43.357</time></trkpt><trkpt lat="55.6702000" lon="38.2978850"><time>2020-10-31T04:02:51.353</time></trkpt><trkpt lat="55.6702750" lon="38.2977270"><time>2020-10-31T04:03:11.350</time></trkpt><trkpt lat="55.6703230" lon="38.2974900"><time>2020-10-31T04:03:22.350</time></trkpt><trkpt lat="55.6703630" lon="38.2974300"><time>2020-10-31T04:03:25.353</time></trkpt><trkpt lat="55.6704120" lon="38.2972770"><time>2020-10-31T04:03:31.353</time></trkpt><trkpt lat="55.6704320" lon="38.2970730"><time>2020-10-31T04:03:42.350</time></trkpt><trkpt lat="55.6704170" lon="38.2969820"><time>2020-10-31T04:03:44.350</time></trkpt><trkpt lat="55.6704550" lon="38.2968180"><time>2020-10-31T04:03:58.353</time></trkpt><trkpt lat="55.6704970" lon="38.2965980"><time>2020-10-31T04:04:10.357</time></trkpt><trkpt lat="55.6705680" lon="38.2963850"><time>2020-10-31T04:04:20.333</time></trkpt><trkpt lat="55.6706750" lon="38.2963230"><time>2020-10-31T04:04:21.307</time></trkpt><trkpt lat="55.6709480" lon="38.2962750"><time>2020-10-31T04:04:22.317</time></trkpt><trkpt lat="55.6709480" lon="38.2962750"><time>2020-10-31T04:04:41.367</time></trkpt><trkpt lat="55.6705120" lon="38.2958200"><time>2020-10-31T04:04:46.350</time></trkpt><trkpt lat="55.6704850" lon="38.2957080"><time>2020-10-31T04:04:47.347</time></trkpt><trkpt lat="55.6704400" lon="38.2958500"><time>2020-10-31T04:05:01.353</time></trkpt><trkpt lat="55.6704150" lon="38.2960420"><time>2020-10-31T04:05:17.353</time></trkpt><trkpt lat="55.6703320" lon="38.2962150"><time>2020-10-31T04:05:30.350</time></trkpt><trkpt lat="55.6703380" lon="38.2964120"><time>2020-10-31T04:05:53.353</time></trkpt><trkpt lat="55.6703830" lon="38.2966370"><time>2020-10-31T04:06:03.353</time></trkpt><trkpt lat="55.6704130" lon="38.2968730"><time>2020-10-31T04:06:12.350</time></trkpt><trkpt lat="55.6704250" lon="38.2969650"><time>2020-10-31T04:06:14.353</time></trkpt><trkpt lat="55.6704300" lon="38.2971070"><time>2020-10-31T04:06:16.353</time></trkpt><trkpt lat="55.6704230" lon="38.2973020"><time>2020-10-31T04:06:26.353</time></trkpt><trkpt lat="55.6703880" lon="38.2975000"><time>2020-10-31T04:06:38.353</time></trkpt><trkpt lat="55.6704100" lon="38.2975700"><time>2020-10-31T04:06:41.357</time></trkpt><trkpt lat="55.6704330" lon="38.2976430"><time>2020-10-31T04:06:43.347</time></trkpt><trkpt lat="55.6704730" lon="38.2977050"><time>2020-10-31T04:06:47.347</time></trkpt><trkpt lat="55.6705220" lon="38.2977630"><time>2020-10-31T04:06:50.353</time></trkpt><trkpt lat="55.6706230" lon="38.2979220"><time>2020-10-31T04:06:59.353</time></trkpt><trkpt lat="55.6706650" lon="38.2979930"><time>2020-10-31T04:07:01.357</time></trkpt><trkpt lat="55.6706650" lon="38.2981770"><time>2020-10-31T04:07:13.350</time></trkpt><trkpt lat="55.6706170" lon="38.2984030"><time>2020-10-31T04:07:31.357</time></trkpt><trkpt lat="55.6705620" lon="38.2986420"><time>2020-10-31T04:07:42.350</time></trkpt><trkpt lat="55.6705230" lon="38.2987550"><time>2020-10-31T04:07:44.353</time></trkpt><trkpt lat="55.6704980" lon="38.2988220"><time>2020-10-31T04:07:45.357</time></trkpt><trkpt lat="55.6704550" lon="38.2989330"><time>2020-10-31T04:07:47.353</time></trkpt><trkpt lat="55.6704270" lon="38.2989950"><time>2020-10-31T04:07:49.357</time></trkpt><trkpt lat="55.6704080" lon="38.2990930"><time>2020-10-31T04:07:52.353</time></trkpt><trkpt lat="55.6703650" lon="38.2992280"><time>2020-10-31T04:07:56.353</time></trkpt><trkpt lat="55.6703180" lon="38.2993270"><time>2020-10-31T04:07:58.353</time></trkpt><trkpt lat="55.6702880" lon="38.2993980"><time>2020-10-31T04:07:59.357</time></trkpt><trkpt lat="55.6702530" lon="38.2994670"><time>2020-10-31T04:08:00.353</time></trkpt><trkpt lat="55.6702030" lon="38.2995780"><time>2020-10-31T04:08:02.353</time></trkpt><trkpt lat="55.6701700" lon="38.2996730"><time>2020-10-31T04:08:04.357</time></trkpt><trkpt lat="55.6701330" lon="38.2997500"><time>2020-10-31T04:08:06.357</time></trkpt><trkpt lat="55.6701100" lon="38.2998250"><time>2020-10-31T04:08:08.350</time></trkpt><trkpt lat="55.6700680" lon="38.2999050"><time>2020-10-31T04:08:11.353</time></trkpt><trkpt lat="55.6700250" lon="38.2999870"><time>2020-10-31T04:08:14.353</time></trkpt><trkpt lat="55.6700000" lon="38.3000570"><time>2020-10-31T04:08:16.350</time></trkpt><trkpt lat="55.6699700" lon="38.3001320"><time>2020-10-31T04:08:18.353</time></trkpt><trkpt lat="55.6699470" lon="38.3002050"><time>2020-10-31T04:08:20.353</time></trkpt><trkpt lat="55.6699200" lon="38.3002700"><time>2020-10-31T04:08:24.353</time></trkpt><trkpt lat="55.6698950" lon="38.3003430"><time>2020-10-31T04:08:29.347</time></trkpt><trkpt lat="55.6698900" lon="38.3005250"><time>2020-10-31T04:08:40.353</time></trkpt><trkpt lat="55.6698880" lon="38.3006120"><time>2020-10-31T04:08:43.353</time></trkpt><trkpt lat="55.6699330" lon="38.3006720"><time>2020-10-31T04:08:47.357</time></trkpt><trkpt lat="55.6699450" lon="38.3007900"><time>2020-10-31T04:08:49.357</time></trkpt><trkpt lat="55.6699530" lon="38.3008770"><time>2020-10-31T04:08:51.353</time></trkpt><trkpt lat="55.6699500" lon="38.3009650"><time>2020-10-31T04:08:54.360</time></trkpt><trkpt lat="55.6699370" lon="38.3010870"><time>2020-10-31T04:08:57.353</time></trkpt><trkpt lat="55.6699730" lon="38.3013030"><time>2020-10-31T04:09:09.353</time></trkpt><trkpt lat="55.6700500" lon="38.3014580"><time>2020-10-31T04:09:26.357</time></trkpt><trkpt lat="55.6700580" lon="38.3015400"><time>2020-10-31T04:09:28.357</time></trkpt><trkpt lat="55.6700920" lon="38.3016820"><time>2020-10-31T04:09:33.347</time></trkpt><trkpt lat="55.6700770" lon="38.3017600"><time>2020-10-31T04:09:34.353</time></trkpt><trkpt lat="55.6700480" lon="38.3018930"><time>2020-10-31T04:09:36.353</time></trkpt><trkpt lat="55.6700830" lon="38.3020030"><time>2020-10-31T04:09:38.347</time></trkpt><trkpt lat="55.6700870" lon="38.3020900"><time>2020-10-31T04:09:42.353</time></trkpt><trkpt lat="55.6701220" lon="38.3021750"><time>2020-10-31T04:09:45.350</time></trkpt><trkpt lat="55.6701450" lon="38.3022450"><time>2020-10-31T04:09:49.350</time></trkpt><trkpt lat="55.6701870" lon="38.3024600"><time>2020-10-31T04:10:03.353</time></trkpt><trkpt lat="55.6702080" lon="38.3025450"><time>2020-10-31T04:10:06.353</time></trkpt><trkpt lat="55.6702100" lon="38.3027400"><time>2020-10-31T04:10:18.350</time></trkpt><trkpt lat="55.6702300" lon="38.3029550"><time>2020-10-31T04:10:31.350</time></trkpt><trkpt lat="55.6702670" lon="38.3031480"><time>2020-10-31T04:10:44.353</time></trkpt><trkpt lat="55.6703100" lon="38.3032830"><time>2020-10-31T04:10:52.357</time></trkpt><trkpt lat="55.6703380" lon="38.3034950"><time>2020-10-31T04:11:06.347</time></trkpt><trkpt lat="55.6703900" lon="38.3037150"><time>2020-10-31T04:11:18.353</time></trkpt><trkpt lat="55.6704050" lon="38.3037970"><time>2020-10-31T04:11:21.353</time></trkpt><trkpt lat="55.6704250" lon="38.3039800"><time>2020-10-31T04:11:30.353</time></trkpt><trkpt lat="55.6704400" lon="38.3040770"><time>2020-10-31T04:11:33.353</time></trkpt><trkpt lat="55.6704930" lon="38.3042620"><time>2020-10-31T04:11:49.353</time></trkpt><trkpt lat="55.6704620" lon="38.3044130"><time>2020-10-31T04:11:51.363</time></trkpt><trkpt lat="55.6704270" lon="38.3045170"><time>2020-10-31T04:11:52.353</time></trkpt><trkpt lat="55.6703920" lon="38.3045750"><time>2020-10-31T04:11:53.350</time></trkpt><trkpt lat="55.6703620" lon="38.3046420"><time>2020-10-31T04:11:54.350</time></trkpt><trkpt lat="55.6703830" lon="38.3045430"><time>2020-10-31T04:11:56.347</time></trkpt><trkpt lat="55.6703480" lon="38.3046030"><time>2020-10-31T04:12:07.360</time></trkpt><trkpt lat="55.6702730" lon="38.3046920"><time>2020-10-31T04:12:22.353</time></trkpt><trkpt lat="55.6702370" lon="38.3047380"><time>2020-10-31T04:12:23.670</time></trkpt><trkpt lat="55.6702020" lon="38.3048330"><time>2020-10-31T04:12:26.350</time></trkpt><trkpt lat="55.6701630" lon="38.3049280"><time>2020-10-31T04:12:28.360</time></trkpt><trkpt lat="55.6701770" lon="38.3050050"><time>2020-10-31T04:12:30.353</time></trkpt><trkpt lat="55.6701050" lon="38.3050020"><time>2020-10-31T04:12:32.353</time></trkpt><trkpt lat="55.6700580" lon="38.3050330"><time>2020-10-31T04:12:35.353</time></trkpt><trkpt lat="55.6700820" lon="38.3051030"><time>2020-10-31T04:12:43.353</time></trkpt><trkpt lat="55.6700530" lon="38.3051720"><time>2020-10-31T04:12:46.353</time></trkpt><trkpt lat="55.6701130" lon="38.3051700"><time>2020-10-31T04:12:54.353</time></trkpt><trkpt lat="55.6701180" lon="38.3052520"><time>2020-10-31T04:12:58.353</time></trkpt><trkpt lat="55.6701000" lon="38.3053250"><time>2020-10-31T04:13:00.360</time></trkpt><trkpt lat="55.6700750" lon="38.3053920"><time>2020-10-31T04:13:07.353</time></trkpt><trkpt lat="55.6700500" lon="38.3054580"><time>2020-10-31T04:13:10.350</time></trkpt><trkpt lat="55.6700720" lon="38.3056230"><time>2020-10-31T04:13:30.360</time></trkpt><trkpt lat="55.6701070" lon="38.3056830"><time>2020-10-31T04:13:34.357</time></trkpt><trkpt lat="55.6700980" lon="38.3057830"><time>2020-10-31T04:13:36.357</time></trkpt><trkpt lat="55.6702070" lon="38.3057180"><time>2020-10-31T04:13:55.357</time></trkpt><trkpt lat="55.6701920" lon="38.3057970"><time>2020-10-31T04:13:57.353</time></trkpt><trkpt lat="55.6702200" lon="38.3059400"><time>2020-10-31T04:14:03.353</time></trkpt><trkpt lat="55.6702500" lon="38.3060170"><time>2020-10-31T04:14:04.353</time></trkpt><trkpt lat="55.6702480" lon="38.3061230"><time>2020-10-31T04:14:07.357</time></trkpt><trkpt lat="55.6703030" lon="38.3060930"><time>2020-10-31T04:14:15.357</time></trkpt><trkpt lat="55.6703450" lon="38.3061320"><time>2020-10-31T04:14:19.353</time></trkpt><trkpt lat="55.6703750" lon="38.3062320"><time>2020-10-31T04:14:22.357</time></trkpt><trkpt lat="55.6703920" lon="38.3063230"><time>2020-10-31T04:14:25.357</time></trkpt><trkpt lat="55.6703900" lon="38.3064170"><time>2020-10-31T04:14:27.353</time></trkpt><trkpt lat="55.6704280" lon="38.3064930"><time>2020-10-31T04:14:29.357</time></trkpt><trkpt lat="55.6704880" lon="38.3064950"><time>2020-10-31T04:14:31.357</time></trkpt><trkpt lat="55.6704620" lon="38.3065750"><time>2020-10-31T04:14:47.353</time></trkpt><trkpt lat="55.6704780" lon="38.3066500"><time>2020-10-31T04:14:52.353</time></trkpt><trkpt lat="55.6705130" lon="38.3067130"><time>2020-10-31T04:15:00.353</time></trkpt><trkpt lat="55.6705270" lon="38.3068070"><time>2020-10-31T04:15:02.357</time></trkpt><trkpt lat="55.6705170" lon="38.3068920"><time>2020-10-31T04:15:04.357</time></trkpt><trkpt lat="55.6705150" lon="38.3069720"><time>2020-10-31T04:15:06.353</time></trkpt><trkpt lat="55.6705830" lon="38.3070150"><time>2020-10-31T04:15:09.353</time></trkpt><trkpt lat="55.6706570" lon="38.3069750"><time>2020-10-31T04:15:11.353</time></trkpt><trkpt lat="55.6705530" lon="38.3070520"><time>2020-10-31T04:15:24.357</time></trkpt><trkpt lat="55.6705020" lon="38.3071170"><time>2020-10-31T04:15:27.353</time></trkpt><trkpt lat="55.6704770" lon="38.3071870"><time>2020-10-31T04:15:31.357</time></trkpt><trkpt lat="55.6704530" lon="38.3072830"><time>2020-10-31T04:15:52.357</time></trkpt><trkpt lat="55.6704300" lon="38.3073570"><time>2020-10-31T04:16:00.353</time></trkpt><trkpt lat="55.6704080" lon="38.3074530"><time>2020-10-31T04:16:03.353</time></trkpt><trkpt lat="55.6703930" lon="38.3075280"><time>2020-10-31T04:16:05.357</time></trkpt><trkpt lat="55.6704100" lon="38.3076130"><time>2020-10-31T04:16:16.357</time></trkpt><trkpt lat="55.6703850" lon="38.3076930"><time>2020-10-31T04:16:18.357</time></trkpt><trkpt lat="55.6703720" lon="38.3077750"><time>2020-10-31T04:16:20.350</time></trkpt><trkpt lat="55.6703650" lon="38.3078570"><time>2020-10-31T04:16:22.357</time></trkpt><trkpt lat="55.6703500" lon="38.3079550"><time>2020-10-31T04:16:25.357</time></trkpt><trkpt lat="55.6703470" lon="38.3080400"><time>2020-10-31T04:16:28.357</time></trkpt><trkpt lat="55.6703550" lon="38.3081350"><time>2020-10-31T04:16:36.357</time></trkpt><trkpt lat="55.6703130" lon="38.3081720"><time>2020-10-31T04:16:38.357</time></trkpt><trkpt lat="55.6702870" lon="38.3082530"><time>2020-10-31T04:16:41.357</time></trkpt><trkpt lat="55.6703350" lon="38.3082970"><time>2020-10-31T04:16:49.357</time></trkpt><trkpt lat="55.6703020" lon="38.3083950"><time>2020-10-31T04:16:58.353</time></trkpt><trkpt lat="55.6703220" lon="38.3084930"><time>2020-10-31T04:17:01.357</time></trkpt><trkpt lat="55.6703570" lon="38.3085580"><time>2020-10-31T04:17:03.357</time></trkpt><trkpt lat="55.6703820" lon="38.3086320"><time>2020-10-31T04:17:06.353</time></trkpt><trkpt lat="55.6703180" lon="38.3087020"><time>2020-10-31T04:17:21.357</time></trkpt><trkpt lat="55.6702530" lon="38.3087220"><time>2020-10-31T04:17:24.357</time></trkpt><trkpt lat="55.6701900" lon="38.3087370"><time>2020-10-31T04:17:26.353</time></trkpt><trkpt lat="55.6701170" lon="38.3087100"><time>2020-10-31T04:17:29.357</time></trkpt><trkpt lat="55.6700620" lon="38.3087020"><time>2020-10-31T04:17:31.357</time></trkpt><trkpt lat="55.6701020" lon="38.3087500"><time>2020-10-31T04:17:37.357</time></trkpt><trkpt lat="55.6701170" lon="38.3088300"><time>2020-10-31T04:17:49.357</time></trkpt><trkpt lat="55.6700780" lon="38.3089520"><time>2020-10-31T04:17:55.357</time></trkpt><trkpt lat="55.6700500" lon="38.3090220"><time>2020-10-31T04:17:56.347</time></trkpt><trkpt lat="55.6699950" lon="38.3091070"><time>2020-10-31T04:17:58.353</time></trkpt><trkpt lat="55.6700400" lon="38.3091550"><time>2020-10-31T04:18:06.353</time></trkpt><trkpt lat="55.6701280" lon="38.3092870"><time>2020-10-31T04:18:31.357</time></trkpt><trkpt lat="55.6701730" lon="38.3094570"><time>2020-10-31T04:18:56.357</time></trkpt><trkpt lat="55.6701450" lon="38.3095280"><time>2020-10-31T04:18:57.353</time></trkpt><trkpt lat="55.6701270" lon="38.3096120"><time>2020-10-31T04:18:59.353</time></trkpt><trkpt lat="55.6702050" lon="38.3097300"><time>2020-10-31T04:19:06.357</time></trkpt><trkpt lat="55.6702680" lon="38.3096950"><time>2020-10-31T04:19:07.360</time></trkpt><trkpt lat="55.6703000" lon="38.3097670"><time>2020-10-31T04:19:12.357</time></trkpt><trkpt lat="55.6703320" lon="38.3098500"><time>2020-10-31T04:19:15.350</time></trkpt><trkpt lat="55.6703920" lon="38.3098680"><time>2020-10-31T04:19:18.357</time></trkpt><trkpt lat="55.6704270" lon="38.3099250"><time>2020-10-31T04:19:20.353</time></trkpt><trkpt lat="55.6703570" lon="38.3100720"><time>2020-10-31T04:19:33.357</time></trkpt><trkpt lat="55.6703230" lon="38.3101530"><time>2020-10-31T04:19:34.350</time></trkpt><trkpt lat="55.6702770" lon="38.3102700"><time>2020-10-31T04:19:35.357</time></trkpt><trkpt lat="55.6702370" lon="38.3103550"><time>2020-10-31T04:19:36.357</time></trkpt><trkpt lat="55.6701870" lon="38.3104250"><time>2020-10-31T04:19:38.353</time></trkpt><trkpt lat="55.6701380" lon="38.3105030"><time>2020-10-31T04:19:40.340</time></trkpt><trkpt lat="55.6701020" lon="38.3106150"><time>2020-10-31T04:19:42.353</time></trkpt><trkpt lat="55.6701030" lon="38.3107050"><time>2020-10-31T04:19:46.317</time></trkpt><trkpt lat="55.6700820" lon="38.3107880"><time>2020-10-31T04:19:50.330</time></trkpt><trkpt lat="55.6700750" lon="38.3109000"><time>2020-10-31T04:19:53.360</time></trkpt><trkpt lat="55.6700680" lon="38.3110050"><time>2020-10-31T04:19:56.353</time></trkpt><trkpt lat="55.6700530" lon="38.3110980"><time>2020-10-31T04:19:59.357</time></trkpt><trkpt lat="55.6700580" lon="38.3112020"><time>2020-10-31T04:20:02.357</time></trkpt><trkpt lat="55.6700680" lon="38.3113180"><time>2020-10-31T04:20:05.357</time></trkpt><trkpt lat="55.6700850" lon="38.3114180"><time>2020-10-31T04:20:08.357</time></trkpt><trkpt lat="55.6700800" lon="38.3115250"><time>2020-10-31T04:20:10.333</time></trkpt><trkpt lat="55.6700750" lon="38.3116100"><time>2020-10-31T04:20:11.357</time></trkpt><trkpt lat="55.6700700" lon="38.3117750"><time>2020-10-31T04:20:13.353</time></trkpt><trkpt lat="55.6700650" lon="38.3118930"><time>2020-10-31T04:20:16.357</time></trkpt><trkpt lat="55.6700750" lon="38.3119820"><time>2020-10-31T04:20:18.353</time></trkpt><trkpt lat="55.6700730" lon="38.3120670"><time>2020-10-31T04:20:23.360</time></trkpt><trkpt lat="55.6700700" lon="38.3121550"><time>2020-10-31T04:20:27.357</time></trkpt><trkpt lat="55.6700750" lon="38.3122470"><time>2020-10-31T04:20:30.360</time></trkpt><trkpt lat="55.6701020" lon="38.3123230"><time>2020-10-31T04:20:33.353</time></trkpt><trkpt lat="55.6701100" lon="38.3124170"><time>2020-10-31T04:20:38.353</time></trkpt><trkpt lat="55.6700930" lon="38.3125250"><time>2020-10-31T04:20:41.350</time></trkpt><trkpt lat="55.6701050" lon="38.3127500"><time>2020-10-31T04:20:53.360</time></trkpt><trkpt lat="55.6700930" lon="38.3128820"><time>2020-10-31T04:20:55.353</time></trkpt><trkpt lat="55.6700780" lon="38.3129730"><time>2020-10-31T04:20:56.357</time></trkpt><trkpt lat="55.6700600" lon="38.3130670"><time>2020-10-31T04:20:57.357</time></trkpt><trkpt lat="55.6700420" lon="38.3131550"><time>2020-10-31T04:20:58.357</time></trkpt><trkpt lat="55.6699950" lon="38.3133100"><time>2020-10-31T04:21:00.357</time></trkpt><trkpt lat="55.6699980" lon="38.3134150"><time>2020-10-31T04:21:02.357</time></trkpt><trkpt lat="55.6699950" lon="38.3134970"><time>2020-10-31T04:21:06.350</time></trkpt><trkpt lat="55.6700030" lon="38.3135750"><time>2020-10-31T04:21:12.353</time></trkpt><trkpt lat="55.6699770" lon="38.3136870"><time>2020-10-31T04:21:18.350</time></trkpt><trkpt lat="55.6699570" lon="38.3137780"><time>2020-10-31T04:21:22.357</time></trkpt><trkpt lat="55.6699250" lon="38.3138630"><time>2020-10-31T04:21:25.360</time></trkpt><trkpt lat="55.6698970" lon="38.3139470"><time>2020-10-31T04:21:28.357</time></trkpt><trkpt lat="55.6698680" lon="38.3140120"><time>2020-10-31T04:21:30.397</time></trkpt><trkpt lat="55.6698400" lon="38.3140930"><time>2020-10-31T04:21:33.357</time></trkpt><trkpt lat="55.6698720" lon="38.3141670"><time>2020-10-31T04:21:38.330</time></trkpt><trkpt lat="55.6698570" lon="38.3142500"><time>2020-10-31T04:21:44.320</time></trkpt><trkpt lat="55.6699050" lon="38.3142420"><time>2020-10-31T04:21:53.430</time></trkpt><trkpt lat="55.6699170" lon="38.3143230"><time>2020-10-31T04:21:57.353</time></trkpt><trkpt lat="55.6699850" lon="38.3144370"><time>2020-10-31T04:22:08.353</time></trkpt><trkpt lat="55.6699950" lon="38.3145200"><time>2020-10-31T04:22:10.357</time></trkpt><trkpt lat="55.6700520" lon="38.3145570"><time>2020-10-31T04:22:15.357</time></trkpt><trkpt lat="55.6701020" lon="38.3145650"><time>2020-10-31T04:22:17.353</time></trkpt><trkpt lat="55.6701800" lon="38.3145270"><time>2020-10-31T04:22:38.357</time></trkpt><trkpt lat="55.6702770" lon="38.3143770"><time>2020-10-31T04:22:51.357</time></trkpt><trkpt lat="55.6703080" lon="38.3142200"><time>2020-10-31T04:22:57.360</time></trkpt><trkpt lat="55.6703880" lon="38.3141900"><time>2020-10-31T04:22:59.357</time></trkpt><trkpt lat="55.6704370" lon="38.3142000"><time>2020-10-31T04:23:02.357</time></trkpt><trkpt lat="55.6705200" lon="38.3142580"><time>2020-10-31T04:23:25.353</time></trkpt><trkpt lat="55.6704350" lon="38.3143400"><time>2020-10-31T04:23:52.357</time></trkpt><trkpt lat="55.6703370" lon="38.3143770"><time>2020-10-31T04:24:07.360</time></trkpt><trkpt lat="55.6702180" lon="38.3144270"><time>2020-10-31T04:24:17.357</time></trkpt><trkpt lat="55.6701750" lon="38.3144600"><time>2020-10-31T04:24:20.353</time></trkpt><trkpt lat="55.6700870" lon="38.3144980"><time>2020-10-31T04:24:26.357</time></trkpt><trkpt lat="55.6699970" lon="38.3144500"><time>2020-10-31T04:24:32.357</time></trkpt><trkpt lat="55.6699400" lon="38.3144030"><time>2020-10-31T04:24:36.357</time></trkpt><trkpt lat="55.6699100" lon="38.3143350"><time>2020-10-31T04:24:41.357</time></trkpt><trkpt lat="55.6699600" lon="38.3141420"><time>2020-10-31T04:24:58.353</time></trkpt><trkpt lat="55.6699700" lon="38.3139250"><time>2020-10-31T04:25:06.357</time></trkpt><trkpt lat="55.6699570" lon="38.3138450"><time>2020-10-31T04:25:08.357</time></trkpt><trkpt lat="55.6699250" lon="38.3137400"><time>2020-10-31T04:25:10.357</time></trkpt><trkpt lat="55.6699050" lon="38.3135120"><time>2020-10-31T04:25:17.360</time></trkpt><trkpt lat="55.6699020" lon="38.3134270"><time>2020-10-31T04:25:20.353</time></trkpt><trkpt lat="55.6698830" lon="38.3133320"><time>2020-10-31T04:25:21.363</time></trkpt><trkpt lat="55.6698770" lon="38.3132200"><time>2020-10-31T04:25:24.357</time></trkpt><trkpt lat="55.6699280" lon="38.3130280"><time>2020-10-31T04:25:30.360</time></trkpt><trkpt lat="55.6699420" lon="38.3128380"><time>2020-10-31T04:25:33.357</time></trkpt><trkpt lat="55.6699520" lon="38.3127550"><time>2020-10-31T04:25:34.353</time></trkpt><trkpt lat="55.6699820" lon="38.3125950"><time>2020-10-31T04:25:35.357</time></trkpt><trkpt lat="55.6700000" lon="38.3123720"><time>2020-10-31T04:25:36.357</time></trkpt><trkpt lat="55.6700300" lon="38.3122070"><time>2020-10-31T04:25:37.357</time></trkpt><trkpt lat="55.6700480" lon="38.3120050"><time>2020-10-31T04:25:38.353</time></trkpt><trkpt lat="55.6700530" lon="38.3118150"><time>2020-10-31T04:25:39.360</time></trkpt><trkpt lat="55.6700070" lon="38.3116230"><time>2020-10-31T04:25:40.357</time></trkpt><trkpt lat="55.6699900" lon="38.3114970"><time>2020-10-31T04:25:41.357</time></trkpt><trkpt lat="55.6700670" lon="38.3114200"><time>2020-10-31T04:25:42.357</time></trkpt><trkpt lat="55.6701030" lon="38.3113270"><time>2020-10-31T04:25:43.327</time></trkpt><trkpt lat="55.6701380" lon="38.3112620"><time>2020-10-31T04:25:45.353</time></trkpt><trkpt lat="55.6701600" lon="38.3111830"><time>2020-10-31T04:25:49.360</time></trkpt><trkpt lat="55.6702000" lon="38.3110830"><time>2020-10-31T04:26:00.357</time></trkpt><trkpt lat="55.6702200" lon="38.3109830"><time>2020-10-31T04:26:04.357</time></trkpt><trkpt lat="55.6702570" lon="38.3108870"><time>2020-10-31T04:26:08.360</time></trkpt><trkpt lat="55.6702600" lon="38.3107870"><time>2020-10-31T04:26:11.357</time></trkpt><trkpt lat="55.6702970" lon="38.3105680"><time>2020-10-31T04:26:25.357</time></trkpt><trkpt lat="55.6703270" lon="38.3105070"><time>2020-10-31T04:26:28.353</time></trkpt><trkpt lat="55.6703520" lon="38.3103700"><time>2020-10-31T04:26:36.357</time></trkpt><trkpt lat="55.6703800" lon="38.3102780"><time>2020-10-31T04:26:39.357</time></trkpt><trkpt lat="55.6704030" lon="38.3102080"><time>2020-10-31T04:26:41.357</time></trkpt><trkpt lat="55.6704770" lon="38.3100380"><time>2020-10-31T04:26:51.353</time></trkpt><trkpt lat="55.6705130" lon="38.3098330"><time>2020-10-31T04:26:56.357</time></trkpt><trkpt lat="55.6705480" lon="38.3097380"><time>2020-10-31T04:26:58.357</time></trkpt><trkpt lat="55.6706080" lon="38.3096650"><time>2020-10-31T04:27:00.357</time></trkpt><trkpt lat="55.6707250" lon="38.3095530"><time>2020-10-31T04:27:08.357</time></trkpt><trkpt lat="55.6707700" lon="38.3095430"><time>2020-10-31T04:27:10.357</time></trkpt><trkpt lat="55.6709000" lon="38.3095120"><time>2020-10-31T04:27:21.357</time></trkpt><trkpt lat="55.6709530" lon="38.3095220"><time>2020-10-31T04:27:22.357</time></trkpt><trkpt lat="55.6710270" lon="38.3095720"><time>2020-10-31T04:27:26.357</time></trkpt><trkpt lat="55.6710780" lon="38.3095680"><time>2020-10-31T04:27:28.357</time></trkpt><trkpt lat="55.6711830" lon="38.3095920"><time>2020-10-31T04:27:38.357</time></trkpt><trkpt lat="55.6713050" lon="38.3095730"><time>2020-10-31T04:27:49.357</time></trkpt><trkpt lat="55.6713550" lon="38.3096050"><time>2020-10-31T04:27:52.353</time></trkpt><trkpt lat="55.6714580" lon="38.3096670"><time>2020-10-31T04:27:54.357</time></trkpt><trkpt lat="55.6715280" lon="38.3096770"><time>2020-10-31T04:27:55.357</time></trkpt><trkpt lat="55.6716130" lon="38.3096620"><time>2020-10-31T04:27:56.353</time></trkpt><trkpt lat="55.6717080" lon="38.3097170"><time>2020-10-31T04:27:57.363</time></trkpt><trkpt lat="55.6717770" lon="38.3097370"><time>2020-10-31T04:27:58.357</time></trkpt><trkpt lat="55.6718250" lon="38.3097930"><time>2020-10-31T04:28:01.357</time></trkpt><trkpt lat="55.6718720" lon="38.3098550"><time>2020-10-31T04:28:04.357</time></trkpt><trkpt lat="55.6719100" lon="38.3099330"><time>2020-10-31T04:28:06.357</time></trkpt><trkpt lat="55.6718720" lon="38.3099930"><time>2020-10-31T04:28:09.357</time></trkpt><trkpt lat="55.6719870" lon="38.3098720"><time>2020-10-31T04:28:22.357</time></trkpt><trkpt lat="55.6720420" lon="38.3098230"><time>2020-10-31T04:28:24.357</time></trkpt><trkpt lat="55.6720350" lon="38.3099080"><time>2020-10-31T04:28:28.357</time></trkpt><trkpt lat="55.6720570" lon="38.3099830"><time>2020-10-31T04:28:30.357</time></trkpt><trkpt lat="55.6720530" lon="38.3100770"><time>2020-10-31T04:28:33.360</time></trkpt><trkpt lat="55.6721300" lon="38.3100980"><time>2020-10-31T04:28:51.353</time></trkpt><trkpt lat="55.6721850" lon="38.3100080"><time>2020-10-31T04:28:53.357</time></trkpt><trkpt lat="55.6722450" lon="38.3099330"><time>2020-10-31T04:28:55.363</time></trkpt><trkpt lat="55.6723270" lon="38.3100930"><time>2020-10-31T04:29:27.357</time></trkpt><trkpt lat="55.6723930" lon="38.3102100"><time>2020-10-31T04:29:36.360</time></trkpt><trkpt lat="55.6723830" lon="38.3103250"><time>2020-10-31T04:29:38.363</time></trkpt><trkpt lat="55.6724550" lon="38.3104080"><time>2020-10-31T04:29:40.353</time></trkpt><trkpt lat="55.6725550" lon="38.3105570"><time>2020-10-31T04:29:42.357</time></trkpt><trkpt lat="55.6725850" lon="38.3106230"><time>2020-10-31T04:29:44.357</time></trkpt><trkpt lat="55.6726350" lon="38.3106100"><time>2020-10-31T04:29:46.353</time></trkpt><trkpt lat="55.6726970" lon="38.3105670"><time>2020-10-31T04:29:48.337</time></trkpt><trkpt lat="55.6727630" lon="38.3105180"><time>2020-10-31T04:29:49.357</time></trkpt><trkpt lat="55.6728080" lon="38.3104500"><time>2020-10-31T04:29:50.357</time></trkpt><trkpt lat="55.6728530" lon="38.3104350"><time>2020-10-31T04:29:52.353</time></trkpt><trkpt lat="55.6728430" lon="38.3103930"><time>2020-10-31T04:29:57.420</time></trkpt><trkpt lat="55.6728150" lon="38.3102200"><time>2020-10-31T04:29:57.487</time></trkpt><trkpt lat="55.6727880" lon="38.3103520"><time>2020-10-31T04:29:59.340</time></trkpt><trkpt lat="55.6727550" lon="38.3104280"><time>2020-10-31T04:30:00.347</time></trkpt><trkpt lat="55.6727020" lon="38.3104400"><time>2020-10-31T04:30:01.350</time></trkpt><trkpt lat="55.6726520" lon="38.3104130"><time>2020-10-31T04:30:02.350</time></trkpt><trkpt lat="55.6727100" lon="38.3104280"><time>2020-10-31T04:30:03.350</time></trkpt><trkpt lat="55.6726650" lon="38.3103130"><time>2020-10-31T04:30:05.357</time></trkpt><trkpt lat="55.6727470" lon="38.3103480"><time>2020-10-31T04:30:49.357</time></trkpt><trkpt lat="55.6727950" lon="38.3103820"><time>2020-10-31T04:30:52.353</time></trkpt><trkpt lat="55.6728830" lon="38.3103400"><time>2020-10-31T04:31:03.363</time></trkpt><trkpt lat="55.6729870" lon="38.3102500"><time>2020-10-31T04:31:19.357</time></trkpt><trkpt lat="55.6730380" lon="38.3102370"><time>2020-10-31T04:31:29.360</time></trkpt><trkpt lat="55.6731470" lon="38.3101170"><time>2020-10-31T04:31:42.357</time></trkpt><trkpt lat="55.6731900" lon="38.3100930"><time>2020-10-31T04:31:44.357</time></trkpt><trkpt lat="55.6732070" lon="38.3098900"><time>2020-10-31T04:31:57.360</time></trkpt><trkpt lat="55.6732230" lon="38.3098030"><time>2020-10-31T04:32:00.360</time></trkpt><trkpt lat="55.6732330" lon="38.3097250"><time>2020-10-31T04:32:04.357</time></trkpt><trkpt lat="55.6733030" lon="38.3096600"><time>2020-10-31T04:32:12.357</time></trkpt><trkpt lat="55.6733570" lon="38.3094550"><time>2020-10-31T04:32:26.360</time></trkpt><trkpt lat="55.6734320" lon="38.3092880"><time>2020-10-31T04:32:36.360</time></trkpt><trkpt lat="55.6734720" lon="38.3091970"><time>2020-10-31T04:32:39.357</time></trkpt><trkpt lat="55.6735020" lon="38.3091120"><time>2020-10-31T04:32:44.360</time></trkpt><trkpt lat="55.6735520" lon="38.3090150"><time>2020-10-31T04:32:50.353</time></trkpt><trkpt lat="55.6735950" lon="38.3089630"><time>2020-10-31T04:32:52.360</time></trkpt><trkpt lat="55.6737250" lon="38.3088630"><time>2020-10-31T04:33:06.360</time></trkpt><trkpt lat="55.6737720" lon="38.3088230"><time>2020-10-31T04:33:09.360</time></trkpt><trkpt lat="55.6738620" lon="38.3088120"><time>2020-10-31T04:33:18.360</time></trkpt><trkpt lat="55.6738480" lon="38.3087250"><time>2020-10-31T04:33:33.353</time></trkpt><trkpt lat="55.6738620" lon="38.3085900"><time>2020-10-31T04:33:39.357</time></trkpt><trkpt lat="55.6738830" lon="38.3085080"><time>2020-10-31T04:33:42.357</time></trkpt><trkpt lat="55.6739420" lon="38.3084070"><time>2020-10-31T04:33:52.357</time></trkpt><trkpt lat="55.6738270" lon="38.3082580"><time>2020-10-31T04:34:05.357</time></trkpt><trkpt lat="55.6738930" lon="38.3081950"><time>2020-10-31T04:34:08.357</time></trkpt><trkpt lat="55.6739870" lon="38.3081130"><time>2020-10-31T04:34:18.350</time></trkpt><trkpt lat="55.6740370" lon="38.3080700"><time>2020-10-31T04:34:22.357</time></trkpt><trkpt lat="55.6741570" lon="38.3079500"><time>2020-10-31T04:34:45.360</time></trkpt><trkpt lat="55.6742380" lon="38.3079730"><time>2020-10-31T04:34:52.353</time></trkpt><trkpt lat="55.6742870" lon="38.3079900"><time>2020-10-31T04:34:56.357</time></trkpt><trkpt lat="55.6743580" lon="38.3080480"><time>2020-10-31T04:35:04.357</time></trkpt><trkpt lat="55.6743930" lon="38.3081030"><time>2020-10-31T04:35:08.360</time></trkpt><trkpt lat="55.6744000" lon="38.3081850"><time>2020-10-31T04:35:12.360</time></trkpt><trkpt lat="55.6744530" lon="38.3082930"><time>2020-10-31T04:35:21.357</time></trkpt><trkpt lat="55.6744620" lon="38.3083930"><time>2020-10-31T04:35:24.357</time></trkpt><trkpt lat="55.6744880" lon="38.3085680"><time>2020-10-31T04:35:51.363</time></trkpt><trkpt lat="55.6745420" lon="38.3086330"><time>2020-10-31T04:36:01.357</time></trkpt><trkpt lat="55.6746500" lon="38.3086550"><time>2020-10-31T04:36:17.357</time></trkpt><trkpt lat="55.6746930" lon="38.3085970"><time>2020-10-31T04:36:20.360</time></trkpt><trkpt lat="55.6747370" lon="38.3085480"><time>2020-10-31T04:36:24.357</time></trkpt><trkpt lat="55.6748120" lon="38.3084950"><time>2020-10-31T04:36:47.357</time></trkpt><trkpt lat="55.6749230" lon="38.3084230"><time>2020-10-31T04:37:00.360</time></trkpt><trkpt lat="55.6749680" lon="38.3082600"><time>2020-10-31T04:37:14.360</time></trkpt><trkpt lat="55.6750480" lon="38.3080750"><time>2020-10-31T04:37:26.360</time></trkpt><trkpt lat="55.6751320" lon="38.3079130"><time>2020-10-31T04:37:37.360</time></trkpt><trkpt lat="55.6751880" lon="38.3077030"><time>2020-10-31T04:37:49.357</time></trkpt><trkpt lat="55.6752780" lon="38.3075700"><time>2020-10-31T04:38:10.350</time></trkpt><trkpt lat="55.6753670" lon="38.3074820"><time>2020-10-31T04:38:20.357</time></trkpt><trkpt lat="55.6754050" lon="38.3073630"><time>2020-10-31T04:38:26.360</time></trkpt><trkpt lat="55.6754550" lon="38.3072520"><time>2020-10-31T04:38:29.360</time></trkpt><trkpt lat="55.6754800" lon="38.3071800"><time>2020-10-31T04:38:30.357</time></trkpt><trkpt lat="55.6755200" lon="38.3071120"><time>2020-10-31T04:38:32.357</time></trkpt><trkpt lat="55.6755520" lon="38.3070420"><time>2020-10-31T04:38:35.357</time></trkpt><trkpt lat="55.6755900" lon="38.3069950"><time>2020-10-31T04:38:38.357</time></trkpt><trkpt lat="55.6756770" lon="38.3068670"><time>2020-10-31T04:38:50.357</time></trkpt><trkpt lat="55.6757280" lon="38.3068870"><time>2020-10-31T04:38:52.357</time></trkpt><trkpt lat="55.6757950" lon="38.3069050"><time>2020-10-31T04:38:54.317</time></trkpt><trkpt lat="55.6757870" lon="38.3068100"><time>2020-10-31T04:38:56.360</time></trkpt><trkpt lat="55.6757650" lon="38.3067280"><time>2020-10-31T04:38:58.360</time></trkpt><trkpt lat="55.6757900" lon="38.3065400"><time>2020-10-31T04:39:07.360</time></trkpt><trkpt lat="55.6758130" lon="38.3063420"><time>2020-10-31T04:39:18.360</time></trkpt><trkpt lat="55.6758180" lon="38.3062370"><time>2020-10-31T04:39:20.357</time></trkpt><trkpt lat="55.6758300" lon="38.3061230"><time>2020-10-31T04:39:22.357</time></trkpt><trkpt lat="55.6758550" lon="38.3059520"><time>2020-10-31T04:39:31.360</time></trkpt><trkpt lat="55.6758330" lon="38.3058370"><time>2020-10-31T04:39:40.360</time></trkpt><trkpt lat="55.6758520" lon="38.3056420"><time>2020-10-31T04:39:51.357</time></trkpt><trkpt lat="55.6759500" lon="38.3055420"><time>2020-10-31T04:40:00.340</time></trkpt><trkpt lat="55.6759600" lon="38.3054380"><time>2020-10-31T04:40:08.360</time></trkpt><trkpt lat="55.6760320" lon="38.3052570"><time>2020-10-31T04:40:24.350</time></trkpt><trkpt lat="55.6760430" lon="38.3051780"><time>2020-10-31T04:40:27.363</time></trkpt><trkpt lat="55.6760870" lon="38.3050170"><time>2020-10-31T04:40:32.357</time></trkpt><trkpt lat="55.6761280" lon="38.3049670"><time>2020-10-31T04:40:34.360</time></trkpt><trkpt lat="55.6761780" lon="38.3049170"><time>2020-10-31T04:40:36.357</time></trkpt><trkpt lat="55.6762230" lon="38.3048950"><time>2020-10-31T04:40:38.357</time></trkpt><trkpt lat="55.6762780" lon="38.3048730"><time>2020-10-31T04:40:41.357</time></trkpt><trkpt lat="55.6763370" lon="38.3048620"><time>2020-10-31T04:40:44.360</time></trkpt><trkpt lat="55.6763830" lon="38.3048720"><time>2020-10-31T04:40:47.357</time></trkpt><trkpt lat="55.6764420" lon="38.3048570"><time>2020-10-31T04:40:49.360</time></trkpt><trkpt lat="55.6765020" lon="38.3048650"><time>2020-10-31T04:40:51.357</time></trkpt><trkpt lat="55.6765480" lon="38.3048700"><time>2020-10-31T04:40:52.353</time></trkpt><trkpt lat="55.6766220" lon="38.3048750"><time>2020-10-31T04:40:54.360</time></trkpt><trkpt lat="55.6766780" lon="38.3049220"><time>2020-10-31T04:41:07.357</time></trkpt><trkpt lat="55.6767200" lon="38.3048570"><time>2020-10-31T04:41:13.360</time></trkpt><trkpt lat="55.6767900" lon="38.3047650"><time>2020-10-31T04:41:26.360</time></trkpt><trkpt lat="55.6768180" lon="38.3046850"><time>2020-10-31T04:41:29.357</time></trkpt><trkpt lat="55.6768350" lon="38.3045900"><time>2020-10-31T04:41:33.357</time></trkpt><trkpt lat="55.6768370" lon="38.3044900"><time>2020-10-31T04:41:37.357</time></trkpt><trkpt lat="55.6769070" lon="38.3043670"><time>2020-10-31T04:41:44.360</time></trkpt><trkpt lat="55.6769380" lon="38.3042920"><time>2020-10-31T04:41:46.363</time></trkpt><trkpt lat="55.6769570" lon="38.3042180"><time>2020-10-31T04:41:48.360</time></trkpt><trkpt lat="55.6769930" lon="38.3041250"><time>2020-10-31T04:41:51.363</time></trkpt><trkpt lat="55.6770180" lon="38.3040550"><time>2020-10-31T04:41:53.353</time></trkpt><trkpt lat="55.6769800" lon="38.3040030"><time>2020-10-31T04:41:55.360</time></trkpt><trkpt lat="55.6769500" lon="38.3039130"><time>2020-10-31T04:41:58.360</time></trkpt><trkpt lat="55.6769550" lon="38.3038080"><time>2020-10-31T04:42:01.360</time></trkpt><trkpt lat="55.6769580" lon="38.3037080"><time>2020-10-31T04:42:05.357</time></trkpt><trkpt lat="55.6769620" lon="38.3036230"><time>2020-10-31T04:42:07.367</time></trkpt><trkpt lat="55.6769870" lon="38.3035200"><time>2020-10-31T04:42:09.357</time></trkpt><trkpt lat="55.6769650" lon="38.3034020"><time>2020-10-31T04:42:12.357</time></trkpt><trkpt lat="55.6769400" lon="38.3032870"><time>2020-10-31T04:42:15.360</time></trkpt><trkpt lat="55.6769170" lon="38.3031970"><time>2020-10-31T04:42:17.357</time></trkpt><trkpt lat="55.6768650" lon="38.3031230"><time>2020-10-31T04:42:22.360</time></trkpt><trkpt lat="55.6768270" lon="38.3030530"><time>2020-10-31T04:42:24.357</time></trkpt><trkpt lat="55.6767950" lon="38.3029830"><time>2020-10-31T04:42:26.357</time></trkpt><trkpt lat="55.6768220" lon="38.3028300"><time>2020-10-31T04:42:34.360</time></trkpt><trkpt lat="55.6768470" lon="38.3027520"><time>2020-10-31T04:42:37.363</time></trkpt><trkpt lat="55.6768800" lon="38.3026850"><time>2020-10-31T04:42:39.360</time></trkpt><trkpt lat="55.6769230" lon="38.3026270"><time>2020-10-31T04:42:42.360</time></trkpt><trkpt lat="55.6769430" lon="38.3025530"><time>2020-10-31T04:42:44.357</time></trkpt><trkpt lat="55.6769630" lon="38.3024680"><time>2020-10-31T04:42:46.357</time></trkpt><trkpt lat="55.6769650" lon="38.3023850"><time>2020-10-31T04:42:49.363</time></trkpt><trkpt lat="55.6769650" lon="38.3021930"><time>2020-10-31T04:42:57.357</time></trkpt><trkpt lat="55.6769680" lon="38.3021080"><time>2020-10-31T04:43:00.360</time></trkpt><trkpt lat="55.6769670" lon="38.3020250"><time>2020-10-31T04:43:02.353</time></trkpt><trkpt lat="55.6769080" lon="38.3018100"><time>2020-10-31T04:43:10.360</time></trkpt><trkpt lat="55.6768820" lon="38.3017420"><time>2020-10-31T04:43:12.360</time></trkpt><trkpt lat="55.6768630" lon="38.3015780"><time>2020-10-31T04:43:15.360</time></trkpt><trkpt lat="55.6768430" lon="38.3015050"><time>2020-10-31T04:43:16.360</time></trkpt><trkpt lat="55.6768820" lon="38.3014070"><time>2020-10-31T04:43:19.360</time></trkpt><trkpt lat="55.6768730" lon="38.3013120"><time>2020-10-31T04:43:21.357</time></trkpt><trkpt lat="55.6768830" lon="38.3011450"><time>2020-10-31T04:43:24.360</time></trkpt><trkpt lat="55.6768780" lon="38.3010650"><time>2020-10-31T04:43:26.360</time></trkpt><trkpt lat="55.6768970" lon="38.3009050"><time>2020-10-31T04:43:32.360</time></trkpt><trkpt lat="55.6768850" lon="38.3008230"><time>2020-10-31T04:43:34.360</time></trkpt><trkpt lat="55.6769100" lon="38.3006380"><time>2020-10-31T04:43:41.363</time></trkpt><trkpt lat="55.6768870" lon="38.3005080"><time>2020-10-31T04:43:43.367</time></trkpt><trkpt lat="55.6769030" lon="38.3002200"><time>2020-10-31T04:43:47.360</time></trkpt><trkpt lat="55.6769000" lon="38.3001170"><time>2020-10-31T04:43:49.360</time></trkpt><trkpt lat="55.6769220" lon="38.2999970"><time>2020-10-31T04:43:51.363</time></trkpt><trkpt lat="55.6769470" lon="38.2999130"><time>2020-10-31T04:43:52.357</time></trkpt><trkpt lat="55.6769450" lon="38.2998320"><time>2020-10-31T04:43:53.357</time></trkpt><trkpt lat="55.6769200" lon="38.2996850"><time>2020-10-31T04:43:55.357</time></trkpt><trkpt lat="55.6769400" lon="38.2995820"><time>2020-10-31T04:43:57.360</time></trkpt><trkpt lat="55.6769370" lon="38.2994730"><time>2020-10-31T04:44:00.357</time></trkpt><trkpt lat="55.6769800" lon="38.2992830"><time>2020-10-31T04:44:05.357</time></trkpt><trkpt lat="55.6769720" lon="38.2991670"><time>2020-10-31T04:44:07.360</time></trkpt><trkpt lat="55.6769830" lon="38.2989330"><time>2020-10-31T04:44:17.353</time></trkpt><trkpt lat="55.6769980" lon="38.2987170"><time>2020-10-31T04:44:27.360</time></trkpt><trkpt lat="55.6770120" lon="38.2986220"><time>2020-10-31T04:44:29.363</time></trkpt><trkpt lat="55.6769980" lon="38.2984050"><time>2020-10-31T04:44:38.357</time></trkpt><trkpt lat="55.6770180" lon="38.2982950"><time>2020-10-31T04:44:41.360</time></trkpt><trkpt lat="55.6770400" lon="38.2981300"><time>2020-10-31T04:44:47.360</time></trkpt><trkpt lat="55.6770280" lon="38.2980480"><time>2020-10-31T04:44:49.357</time></trkpt><trkpt lat="55.6770180" lon="38.2979600"><time>2020-10-31T04:44:51.360</time></trkpt><trkpt lat="55.6769830" lon="38.2978770"><time>2020-10-31T04:44:54.353</time></trkpt><trkpt lat="55.6769650" lon="38.2977970"><time>2020-10-31T04:44:57.357</time></trkpt><trkpt lat="55.6769700" lon="38.2976980"><time>2020-10-31T04:44:59.360</time></trkpt><trkpt lat="55.6769320" lon="38.2976300"><time>2020-10-31T04:45:00.357</time></trkpt><trkpt lat="55.6769170" lon="38.2973870"><time>2020-10-31T04:45:08.360</time></trkpt><trkpt lat="55.6768680" lon="38.2972550"><time>2020-10-31T04:45:11.360</time></trkpt><trkpt lat="55.6768250" lon="38.2971330"><time>2020-10-31T04:45:14.357</time></trkpt><trkpt lat="55.6768020" lon="38.2970020"><time>2020-10-31T04:45:16.360</time></trkpt><trkpt lat="55.6768050" lon="38.2969170"><time>2020-10-31T04:45:17.363</time></trkpt><trkpt lat="55.6768230" lon="38.2968400"><time>2020-10-31T04:45:19.360</time></trkpt><trkpt lat="55.6768270" lon="38.2966620"><time>2020-10-31T04:45:23.357</time></trkpt><trkpt lat="55.6768180" lon="38.2965720"><time>2020-10-31T04:45:25.367</time></trkpt><trkpt lat="55.6767950" lon="38.2964450"><time>2020-10-31T04:45:27.360</time></trkpt><trkpt lat="55.6767930" lon="38.2963130"><time>2020-10-31T04:45:29.360</time></trkpt><trkpt lat="55.6767570" lon="38.2962270"><time>2020-10-31T04:45:30.353</time></trkpt><trkpt lat="55.6767370" lon="38.2961250"><time>2020-10-31T04:45:32.503</time></trkpt><trkpt lat="55.6767050" lon="38.2960350"><time>2020-10-31T04:45:33.360</time></trkpt><trkpt lat="55.6766750" lon="38.2959500"><time>2020-10-31T04:45:34.363</time></trkpt><trkpt lat="55.6766880" lon="38.2958350"><time>2020-10-31T04:45:36.360</time></trkpt><trkpt lat="55.6766970" lon="38.2957370"><time>2020-10-31T04:45:38.360</time></trkpt><trkpt lat="55.6767120" lon="38.2956480"><time>2020-10-31T04:45:40.360</time></trkpt><trkpt lat="55.6767370" lon="38.2954850"><time>2020-10-31T04:45:46.357</time></trkpt><trkpt lat="55.6767130" lon="38.2954120"><time>2020-10-31T04:45:49.357</time></trkpt><trkpt lat="55.6766970" lon="38.2952450"><time>2020-10-31T04:45:56.357</time></trkpt><trkpt lat="55.6767370" lon="38.2951570"><time>2020-10-31T04:45:59.353</time></trkpt><trkpt lat="55.6767750" lon="38.2950900"><time>2020-10-31T04:46:01.357</time></trkpt><trkpt lat="55.6768770" lon="38.2949930"><time>2020-10-31T04:46:10.360</time></trkpt><trkpt lat="55.6768020" lon="38.2947620"><time>2020-10-31T04:46:18.400</time></trkpt><trkpt lat="55.6767630" lon="38.2947130"><time>2020-10-31T04:46:19.360</time></trkpt><trkpt lat="55.6768530" lon="38.2946270"><time>2020-10-31T04:46:21.357</time></trkpt><trkpt lat="55.6768800" lon="38.2945330"><time>2020-10-31T04:46:22.360</time></trkpt><trkpt lat="55.6769030" lon="38.2944250"><time>2020-10-31T04:46:24.357</time></trkpt><trkpt lat="55.6769520" lon="38.2943450"><time>2020-10-31T04:46:26.357</time></trkpt><trkpt lat="55.6770050" lon="38.2942700"><time>2020-10-31T04:46:28.353</time></trkpt><trkpt lat="55.6770800" lon="38.2942080"><time>2020-10-31T04:46:30.360</time></trkpt><trkpt lat="55.6771600" lon="38.2940570"><time>2020-10-31T04:46:40.357</time></trkpt><trkpt lat="55.6772020" lon="38.2939820"><time>2020-10-31T04:46:43.363</time></trkpt><trkpt lat="55.6772250" lon="38.2939120"><time>2020-10-31T04:46:44.357</time></trkpt><trkpt lat="55.6772700" lon="38.2937950"><time>2020-10-31T04:46:46.360</time></trkpt><trkpt lat="55.6773150" lon="38.2937500"><time>2020-10-31T04:46:48.360</time></trkpt><trkpt lat="55.6773750" lon="38.2937570"><time>2020-10-31T04:46:50.360</time></trkpt><trkpt lat="55.6774250" lon="38.2937420"><time>2020-10-31T04:46:53.360</time></trkpt><trkpt lat="55.6774780" lon="38.2937400"><time>2020-10-31T04:46:56.357</time></trkpt><trkpt lat="55.6775520" lon="38.2936930"><time>2020-10-31T04:47:02.360</time></trkpt><trkpt lat="55.6775970" lon="38.2937100"><time>2020-10-31T04:47:05.360</time></trkpt><trkpt lat="55.6776400" lon="38.2936780"><time>2020-10-31T04:47:07.360</time></trkpt><trkpt lat="55.6777550" lon="38.2936150"><time>2020-10-31T04:47:13.360</time></trkpt><trkpt lat="55.6777930" lon="38.2935680"><time>2020-10-31T04:47:15.360</time></trkpt><trkpt lat="55.6778480" lon="38.2935470"><time>2020-10-31T04:47:18.360</time></trkpt><trkpt lat="55.6778870" lon="38.2936450"><time>2020-10-31T04:47:21.363</time></trkpt><trkpt lat="55.6778950" lon="38.2937320"><time>2020-10-31T04:47:23.360</time></trkpt><trkpt lat="55.6779670" lon="38.2937720"><time>2020-10-31T04:47:25.360</time></trkpt><trkpt lat="55.6780270" lon="38.2937850"><time>2020-10-31T04:47:27.360</time></trkpt><trkpt lat="55.6781520" lon="38.2938100"><time>2020-10-31T04:47:42.360</time></trkpt><trkpt lat="55.6781730" lon="38.2939020"><time>2020-10-31T04:47:44.360</time></trkpt><trkpt lat="55.6781930" lon="38.2939870"><time>2020-10-31T04:47:51.330</time></trkpt><trkpt lat="55.6782300" lon="38.2940730"><time>2020-10-31T04:47:53.363</time></trkpt><trkpt lat="55.6782150" lon="38.2941720"><time>2020-10-31T04:47:56.357</time></trkpt><trkpt lat="55.6783020" lon="38.2942520"><time>2020-10-31T04:48:01.363</time></trkpt><trkpt lat="55.6782880" lon="38.2943450"><time>2020-10-31T04:48:03.360</time></trkpt><trkpt lat="55.6782300" lon="38.2945280"><time>2020-10-31T04:48:13.363</time></trkpt><trkpt lat="55.6781900" lon="38.2946000"><time>2020-10-31T04:48:41.357</time></trkpt><trkpt lat="55.6782100" lon="38.2948030"><time>2020-10-31T04:48:56.360</time></trkpt><trkpt lat="55.6782500" lon="38.2948520"><time>2020-10-31T04:49:02.360</time></trkpt><trkpt lat="55.6782750" lon="38.2950250"><time>2020-10-31T04:49:15.357</time></trkpt><trkpt lat="55.6782900" lon="38.2951380"><time>2020-10-31T04:49:18.357</time></trkpt><trkpt lat="55.6782620" lon="38.2952950"><time>2020-10-31T04:49:32.360</time></trkpt><trkpt lat="55.6782470" lon="38.2953950"><time>2020-10-31T04:49:39.357</time></trkpt><trkpt lat="55.6782420" lon="38.2954750"><time>2020-10-31T04:49:41.357</time></trkpt><trkpt lat="55.6782470" lon="38.2957250"><time>2020-10-31T04:49:53.360</time></trkpt><trkpt lat="55.6781920" lon="38.2957730"><time>2020-10-31T04:50:06.360</time></trkpt><trkpt lat="55.6781730" lon="38.2958500"><time>2020-10-31T04:50:18.360</time></trkpt><trkpt lat="55.6780520" lon="38.2957950"><time>2020-10-31T04:52:00.357</time></trkpt><trkpt lat="55.6781030" lon="38.2956320"><time>2020-10-31T04:52:35.357</time></trkpt><trkpt lat="55.6781220" lon="38.2954230"><time>2020-10-31T04:53:00.357</time></trkpt><trkpt lat="55.6781420" lon="38.2952070"><time>2020-10-31T04:53:19.360</time></trkpt><trkpt lat="55.6782320" lon="38.2951500"><time>2020-10-31T04:53:52.357</time></trkpt><trkpt lat="55.6782700" lon="38.2949280"><time>2020-10-31T04:54:07.363</time></trkpt><trkpt lat="55.6783130" lon="38.2948730"><time>2020-10-31T04:54:10.360</time></trkpt><trkpt lat="55.6783470" lon="38.2947600"><time>2020-10-31T04:54:14.360</time></trkpt><trkpt lat="55.6783720" lon="38.2946770"><time>2020-10-31T04:54:16.357</time></trkpt><trkpt lat="55.6784220" lon="38.2946400"><time>2020-10-31T04:54:19.363</time></trkpt><trkpt lat="55.6785350" lon="38.2945170"><time>2020-10-31T04:54:31.360</time></trkpt><trkpt lat="55.6786320" lon="38.2944080"><time>2020-10-31T04:54:45.360</time></trkpt><trkpt lat="55.6786880" lon="38.2942430"><time>2020-10-31T04:55:00.360</time></trkpt><trkpt lat="55.6786570" lon="38.2940530"><time>2020-10-31T04:55:11.357</time></trkpt><trkpt lat="55.6786270" lon="38.2939800"><time>2020-10-31T04:55:15.367</time></trkpt><trkpt lat="55.6785730" lon="38.2938250"><time>2020-10-31T04:55:27.363</time></trkpt><trkpt lat="55.6785850" lon="38.2936370"><time>2020-10-31T04:55:44.357</time></trkpt><trkpt lat="55.6785080" lon="38.2935420"><time>2020-10-31T04:56:05.337</time></trkpt><trkpt lat="55.6784470" lon="38.2935530"><time>2020-10-31T04:56:08.363</time></trkpt><trkpt lat="55.6784050" lon="38.2935130"><time>2020-10-31T04:56:10.360</time></trkpt><trkpt lat="55.6783220" lon="38.2935270"><time>2020-10-31T04:56:12.360</time></trkpt><trkpt lat="55.6782700" lon="38.2935130"><time>2020-10-31T04:56:13.360</time></trkpt><trkpt lat="55.6782180" lon="38.2935200"><time>2020-10-31T04:56:15.357</time></trkpt><trkpt lat="55.6781580" lon="38.2935100"><time>2020-10-31T04:56:17.357</time></trkpt><trkpt lat="55.6780500" lon="38.2934170"><time>2020-10-31T04:56:25.360</time></trkpt><trkpt lat="55.6780030" lon="38.2934250"><time>2020-10-31T04:56:26.357</time></trkpt><trkpt lat="55.6779670" lon="38.2934730"><time>2020-10-31T04:56:28.353</time></trkpt><trkpt lat="55.6779150" lon="38.2935050"><time>2020-10-31T04:56:30.360</time></trkpt><trkpt lat="55.6778670" lon="38.2935150"><time>2020-10-31T04:56:31.360</time></trkpt><trkpt lat="55.6777950" lon="38.2935350"><time>2020-10-31T04:56:34.323</time></trkpt><trkpt lat="55.6777320" lon="38.2935500"><time>2020-10-31T04:56:38.357</time></trkpt><trkpt lat="55.6776280" lon="38.2936300"><time>2020-10-31T04:56:54.357</time></trkpt><trkpt lat="55.6775120" lon="38.2936350"><time>2020-10-31T04:57:12.357</time></trkpt><trkpt lat="55.6774620" lon="38.2936020"><time>2020-10-31T04:57:14.360</time></trkpt><trkpt lat="55.6773980" lon="38.2935920"><time>2020-10-31T04:57:16.357</time></trkpt><trkpt lat="55.6773320" lon="38.2935570"><time>2020-10-31T04:57:18.360</time></trkpt><trkpt lat="55.6772250" lon="38.2935650"><time>2020-10-31T04:57:26.357</time></trkpt><trkpt lat="55.6771480" lon="38.2935100"><time>2020-10-31T04:57:44.360</time></trkpt><trkpt lat="55.6771920" lon="38.2935320"><time>2020-10-31T04:57:51.360</time></trkpt><trkpt lat="55.6772420" lon="38.2935580"><time>2020-10-31T04:57:56.360</time></trkpt><trkpt lat="55.6772870" lon="38.2935350"><time>2020-10-31T04:58:00.357</time></trkpt><trkpt lat="55.6773420" lon="38.2935330"><time>2020-10-31T04:58:06.357</time></trkpt><trkpt lat="55.6774050" lon="38.2935100"><time>2020-10-31T04:58:10.360</time></trkpt><trkpt lat="55.6774570" lon="38.2934830"><time>2020-10-31T04:58:13.357</time></trkpt><trkpt lat="55.6775100" lon="38.2934720"><time>2020-10-31T04:58:16.363</time></trkpt><trkpt lat="55.6775750" lon="38.2934830"><time>2020-10-31T04:58:19.360</time></trkpt><trkpt lat="55.6776170" lon="38.2935220"><time>2020-10-31T04:58:23.363</time></trkpt><trkpt lat="55.6776850" lon="38.2935250"><time>2020-10-31T04:58:25.357</time></trkpt><trkpt lat="55.6777380" lon="38.2935150"><time>2020-10-31T04:58:27.360</time></trkpt><trkpt lat="55.6777850" lon="38.2935170"><time>2020-10-31T04:58:29.360</time></trkpt><trkpt lat="55.6778480" lon="38.2935130"><time>2020-10-31T04:58:31.360</time></trkpt><trkpt lat="55.6779030" lon="38.2935150"><time>2020-10-31T04:58:33.357</time></trkpt><trkpt lat="55.6779550" lon="38.2934730"><time>2020-10-31T04:58:35.360</time></trkpt><trkpt lat="55.6780070" lon="38.2934870"><time>2020-10-31T04:58:38.360</time></trkpt><trkpt lat="55.6780800" lon="38.2934530"><time>2020-10-31T04:58:40.360</time></trkpt><trkpt lat="55.6781370" lon="38.2934400"><time>2020-10-31T04:58:42.357</time></trkpt><trkpt lat="55.6782020" lon="38.2934300"><time>2020-10-31T04:58:44.363</time></trkpt><trkpt lat="55.6782630" lon="38.2934150"><time>2020-10-31T04:58:46.363</time></trkpt><trkpt lat="55.6783220" lon="38.2934630"><time>2020-10-31T04:58:50.363</time></trkpt><trkpt lat="55.6783850" lon="38.2934520"><time>2020-10-31T04:58:53.367</time></trkpt><trkpt lat="55.6784320" lon="38.2934250"><time>2020-10-31T04:58:55.360</time></trkpt><trkpt lat="55.6784780" lon="38.2934050"><time>2020-10-31T04:58:57.363</time></trkpt><trkpt lat="55.6785320" lon="38.2933820"><time>2020-10-31T04:58:59.363</time></trkpt><trkpt lat="55.6785870" lon="38.2933380"><time>2020-10-31T04:59:01.363</time></trkpt><trkpt lat="55.6786480" lon="38.2932820"><time>2020-10-31T04:59:03.360</time></trkpt><trkpt lat="55.6786930" lon="38.2932170"><time>2020-10-31T04:59:07.363</time></trkpt><trkpt lat="55.6787300" lon="38.2932830"><time>2020-10-31T04:59:17.360</time></trkpt><trkpt lat="55.6788030" lon="38.2934280"><time>2020-10-31T04:59:26.360</time></trkpt><trkpt lat="55.6789120" lon="38.2935420"><time>2020-10-31T04:59:39.360</time></trkpt><trkpt lat="55.6789630" lon="38.2935650"><time>2020-10-31T04:59:42.360</time></trkpt><trkpt lat="55.6790230" lon="38.2936500"><time>2020-10-31T04:59:48.367</time></trkpt><trkpt lat="55.6790900" lon="38.2936770"><time>2020-10-31T04:59:50.367</time></trkpt><trkpt lat="55.6791430" lon="38.2937180"><time>2020-10-31T04:59:52.363</time></trkpt><trkpt lat="55.6791850" lon="38.2937650"><time>2020-10-31T04:59:56.363</time></trkpt><trkpt lat="55.6791800" lon="38.2939320"><time>2020-10-31T05:00:07.367</time></trkpt><trkpt lat="55.6791420" lon="38.2939820"><time>2020-10-31T05:00:14.367</time></trkpt><trkpt lat="55.6791700" lon="38.2940650"><time>2020-10-31T05:00:16.363</time></trkpt><trkpt lat="55.6792070" lon="38.2941970"><time>2020-10-31T05:00:18.333</time></trkpt><trkpt lat="55.6792230" lon="38.2943120"><time>2020-10-31T05:00:21.360</time></trkpt><trkpt lat="55.6791570" lon="38.2944950"><time>2020-10-31T05:00:36.367</time></trkpt><trkpt lat="55.6791620" lon="38.2945780"><time>2020-10-31T05:00:40.363</time></trkpt><trkpt lat="55.6792250" lon="38.2945730"><time>2020-10-31T05:00:49.360</time></trkpt><trkpt lat="55.6792780" lon="38.2945580"><time>2020-10-31T05:00:54.360</time></trkpt><trkpt lat="55.6793080" lon="38.2946270"><time>2020-10-31T05:01:00.367</time></trkpt><trkpt lat="55.6793620" lon="38.2948320"><time>2020-10-31T05:01:10.367</time></trkpt><trkpt lat="55.6794070" lon="38.2948900"><time>2020-10-31T05:01:15.363</time></trkpt><trkpt lat="55.6794220" lon="38.2947970"><time>2020-10-31T05:01:25.357</time></trkpt><trkpt lat="55.6794800" lon="38.2948180"><time>2020-10-31T05:01:29.360</time></trkpt><trkpt lat="55.6795230" lon="38.2948530"><time>2020-10-31T05:01:35.360</time></trkpt><trkpt lat="55.6795650" lon="38.2948830"><time>2020-10-31T05:01:38.357</time></trkpt><trkpt lat="55.6796150" lon="38.2947980"><time>2020-10-31T05:01:45.363</time></trkpt><trkpt lat="55.6795780" lon="38.2948600"><time>2020-10-31T05:01:53.360</time></trkpt><trkpt lat="55.6795370" lon="38.2949280"><time>2020-10-31T05:01:56.360</time></trkpt><trkpt lat="55.6796250" lon="38.2950120"><time>2020-10-31T05:02:08.363</time></trkpt><trkpt lat="55.6797280" lon="38.2951330"><time>2020-10-31T05:02:20.357</time></trkpt><trkpt lat="55.6798200" lon="38.2952400"><time>2020-10-31T05:02:33.363</time></trkpt><trkpt lat="55.6799270" lon="38.2953280"><time>2020-10-31T05:02:45.363</time></trkpt><trkpt lat="55.6800070" lon="38.2955050"><time>2020-10-31T05:03:02.363</time></trkpt><trkpt lat="55.6800750" lon="38.2956830"><time>2020-10-31T05:03:10.357</time></trkpt><trkpt lat="55.6800770" lon="38.2958420"><time>2020-10-31T05:03:12.343</time></trkpt><trkpt lat="55.6800770" lon="38.2958420"><time>2020-10-31T05:03:12.533</time></trkpt><trkpt lat="55.6800800" lon="38.2959800"><time>2020-10-31T05:03:13.320</time></trkpt><trkpt lat="55.6802850" lon="38.2959100"><time>2020-10-31T05:03:18.363</time></trkpt><trkpt lat="55.6802180" lon="38.2958180"><time>2020-10-31T05:03:19.357</time></trkpt><trkpt lat="55.6804950" lon="38.2958070"><time>2020-10-31T05:03:21.360</time></trkpt><trkpt lat="55.6805480" lon="38.2957380"><time>2020-10-31T05:03:22.363</time></trkpt><trkpt lat="55.6805270" lon="38.2956470"><time>2020-10-31T05:03:24.363</time></trkpt><trkpt lat="55.6804980" lon="38.2955730"><time>2020-10-31T05:03:26.367</time></trkpt><trkpt lat="55.6804000" lon="38.2954530"><time>2020-10-31T05:03:27.367</time></trkpt><trkpt lat="55.6802800" lon="38.2953780"><time>2020-10-31T05:03:31.367</time></trkpt><trkpt lat="55.6802320" lon="38.2953970"><time>2020-10-31T05:03:34.367</time></trkpt><trkpt lat="55.6801880" lon="38.2953450"><time>2020-10-31T05:03:38.363</time></trkpt><trkpt lat="55.6802500" lon="38.2952350"><time>2020-10-31T05:03:39.367</time></trkpt><trkpt lat="55.6802950" lon="38.2950400"><time>2020-10-31T05:03:58.363</time></trkpt><trkpt lat="55.6802250" lon="38.2949000"><time>2020-10-31T05:04:16.367</time></trkpt><trkpt lat="55.6801280" lon="38.2948050"><time>2020-10-31T05:04:29.363</time></trkpt><trkpt lat="55.6800670" lon="38.2946320"><time>2020-10-31T05:04:52.367</time></trkpt><trkpt lat="55.6800830" lon="38.2944370"><time>2020-10-31T05:05:11.363</time></trkpt><trkpt lat="55.6801780" lon="38.2942320"><time>2020-10-31T05:05:24.327</time></trkpt><trkpt lat="55.6802220" lon="38.2941750"><time>2020-10-31T05:05:25.327</time></trkpt><trkpt lat="55.6802550" lon="38.2941200"><time>2020-10-31T05:05:26.360</time></trkpt><trkpt lat="55.6803030" lon="38.2940870"><time>2020-10-31T05:05:29.363</time></trkpt><trkpt lat="55.6802780" lon="38.2940100"><time>2020-10-31T05:05:34.360</time></trkpt><trkpt lat="55.6803130" lon="38.2939600"><time>2020-10-31T05:05:38.367</time></trkpt><trkpt lat="55.6803800" lon="38.2938220"><time>2020-10-31T05:05:57.367</time></trkpt><trkpt lat="55.6804670" lon="38.2937120"><time>2020-10-31T05:06:25.367</time></trkpt><trkpt lat="55.6805200" lon="38.2936930"><time>2020-10-31T05:06:28.360</time></trkpt><trkpt lat="55.6806130" lon="38.2937250"><time>2020-10-31T05:06:56.367</time></trkpt><trkpt lat="55.6806970" lon="38.2935880"><time>2020-10-31T05:07:14.363</time></trkpt><trkpt lat="55.6806050" lon="38.2934970"><time>2020-10-31T05:08:14.367</time></trkpt><trkpt lat="55.6806350" lon="38.2936230"><time>2020-10-31T05:08:45.363</time></trkpt><trkpt lat="55.6806870" lon="38.2935080"><time>2020-10-31T05:09:02.367</time></trkpt><trkpt lat="55.6806420" lon="38.2936500"><time>2020-10-31T05:09:44.367</time></trkpt><trkpt lat="55.6805430" lon="38.2936070"><time>2020-10-31T05:10:04.363</time></trkpt><trkpt lat="55.6805220" lon="38.2937650"><time>2020-10-31T05:11:03.367</time></trkpt><trkpt lat="55.6805900" lon="38.2938830"><time>2020-10-31T05:11:23.363</time></trkpt><trkpt lat="55.6806100" lon="38.2937520"><time>2020-10-31T05:11:42.360</time></trkpt><trkpt lat="55.6806470" lon="38.2935300"><time>2020-10-31T05:12:36.367</time></trkpt><trkpt lat="55.6807620" lon="38.2934970"><time>2020-10-31T05:12:51.367</time></trkpt><trkpt lat="55.6808870" lon="38.2935170"><time>2020-10-31T05:13:05.363</time></trkpt><trkpt lat="55.6809530" lon="38.2935030"><time>2020-10-31T05:13:10.363</time></trkpt><trkpt lat="55.6810020" lon="38.2934950"><time>2020-10-31T05:13:12.367</time></trkpt><trkpt lat="55.6810720" lon="38.2935000"><time>2020-10-31T05:13:15.370</time></trkpt><trkpt lat="55.6811370" lon="38.2935000"><time>2020-10-31T05:13:17.363</time></trkpt><trkpt lat="55.6811850" lon="38.2935130"><time>2020-10-31T05:13:21.370</time></trkpt><trkpt lat="55.6812820" lon="38.2935200"><time>2020-10-31T05:13:28.367</time></trkpt><trkpt lat="55.6813370" lon="38.2935330"><time>2020-10-31T05:13:30.357</time></trkpt><trkpt lat="55.6814070" lon="38.2935480"><time>2020-10-31T05:13:32.370</time></trkpt><trkpt lat="55.6814750" lon="38.2935530"><time>2020-10-31T05:13:35.360</time></trkpt><trkpt lat="55.6815380" lon="38.2935570"><time>2020-10-31T05:13:38.367</time></trkpt><trkpt lat="55.6816300" lon="38.2935730"><time>2020-10-31T05:13:44.367</time></trkpt><trkpt lat="55.6816900" lon="38.2935600"><time>2020-10-31T05:13:47.367</time></trkpt><trkpt lat="55.6817470" lon="38.2935480"><time>2020-10-31T05:13:50.370</time></trkpt><trkpt lat="55.6818080" lon="38.2935570"><time>2020-10-31T05:13:53.363</time></trkpt><trkpt lat="55.6818680" lon="38.2935650"><time>2020-10-31T05:13:56.367</time></trkpt><trkpt lat="55.6819170" lon="38.2935650"><time>2020-10-31T05:13:59.367</time></trkpt><trkpt lat="55.6819820" lon="38.2935800"><time>2020-10-31T05:14:05.363</time></trkpt><trkpt lat="55.6820430" lon="38.2935820"><time>2020-10-31T05:14:08.367</time></trkpt><trkpt lat="55.6820880" lon="38.2935800"><time>2020-10-31T05:14:10.367</time></trkpt><trkpt lat="55.6821330" lon="38.2935850"><time>2020-10-31T05:14:12.363</time></trkpt><trkpt lat="55.6822030" lon="38.2935350"><time>2020-10-31T05:14:15.367</time></trkpt><trkpt lat="55.6822570" lon="38.2935580"><time>2020-10-31T05:14:18.367</time></trkpt><trkpt lat="55.6823200" lon="38.2935430"><time>2020-10-31T05:14:21.373</time></trkpt><trkpt lat="55.6824400" lon="38.2935730"><time>2020-10-31T05:14:29.363</time></trkpt><trkpt lat="55.6824980" lon="38.2935970"><time>2020-10-31T05:14:32.367</time></trkpt><trkpt lat="55.6825480" lon="38.2936050"><time>2020-10-31T05:14:34.367</time></trkpt><trkpt lat="55.6825980" lon="38.2935780"><time>2020-10-31T05:14:36.360</time></trkpt><trkpt lat="55.6826620" lon="38.2935300"><time>2020-10-31T05:14:38.367</time></trkpt><trkpt lat="55.6827170" lon="38.2935270"><time>2020-10-31T05:14:40.367</time></trkpt><trkpt lat="55.6827680" lon="38.2935130"><time>2020-10-31T05:14:41.363</time></trkpt><trkpt lat="55.6828250" lon="38.2935100"><time>2020-10-31T05:14:42.367</time></trkpt><trkpt lat="55.6828980" lon="38.2935030"><time>2020-10-31T05:14:44.370</time></trkpt><trkpt lat="55.6829450" lon="38.2935200"><time>2020-10-31T05:14:46.370</time></trkpt><trkpt lat="55.6830000" lon="38.2935120"><time>2020-10-31T05:14:48.367</time></trkpt><trkpt lat="55.6830520" lon="38.2934980"><time>2020-10-31T05:14:50.367</time></trkpt><trkpt lat="55.6831070" lon="38.2935150"><time>2020-10-31T05:14:52.367</time></trkpt><trkpt lat="55.6831580" lon="38.2935120"><time>2020-10-31T05:14:54.363</time></trkpt><trkpt lat="55.6832180" lon="38.2935080"><time>2020-10-31T05:14:57.367</time></trkpt><trkpt lat="55.6832700" lon="38.2935130"><time>2020-10-31T05:14:59.367</time></trkpt><trkpt lat="55.6833220" lon="38.2935230"><time>2020-10-31T05:15:01.363</time></trkpt><trkpt lat="55.6833920" lon="38.2935200"><time>2020-10-31T05:15:03.367</time></trkpt><trkpt lat="55.6834720" lon="38.2935180"><time>2020-10-31T05:15:05.360</time></trkpt><trkpt lat="55.6835500" lon="38.2935230"><time>2020-10-31T05:15:07.363</time></trkpt><trkpt lat="55.6836120" lon="38.2935080"><time>2020-10-31T05:15:09.367</time></trkpt><trkpt lat="55.6836700" lon="38.2934830"><time>2020-10-31T05:15:11.367</time></trkpt><trkpt lat="55.6837220" lon="38.2934820"><time>2020-10-31T05:15:13.367</time></trkpt><trkpt lat="55.6837680" lon="38.2935080"><time>2020-10-31T05:15:15.367</time></trkpt><trkpt lat="55.6838180" lon="38.2935230"><time>2020-10-31T05:15:17.367</time></trkpt><trkpt lat="55.6838830" lon="38.2935480"><time>2020-10-31T05:15:19.370</time></trkpt><trkpt lat="55.6839430" lon="38.2935800"><time>2020-10-31T05:15:21.370</time></trkpt><trkpt lat="55.6840050" lon="38.2935720"><time>2020-10-31T05:15:24.367</time></trkpt><trkpt lat="55.6840700" lon="38.2935700"><time>2020-10-31T05:15:27.363</time></trkpt><trkpt lat="55.6841230" lon="38.2935800"><time>2020-10-31T05:15:29.360</time></trkpt><trkpt lat="55.6841730" lon="38.2935650"><time>2020-10-31T05:15:31.363</time></trkpt><trkpt lat="55.6842200" lon="38.2935400"><time>2020-10-31T05:15:33.363</time></trkpt><trkpt lat="55.6842750" lon="38.2935270"><time>2020-10-31T05:15:36.367</time></trkpt><trkpt lat="55.6843380" lon="38.2935270"><time>2020-10-31T05:15:39.367</time></trkpt><trkpt lat="55.6843930" lon="38.2935380"><time>2020-10-31T05:15:42.367</time></trkpt><trkpt lat="55.6844620" lon="38.2935800"><time>2020-10-31T05:15:46.367</time></trkpt><trkpt lat="55.6845050" lon="38.2936020"><time>2020-10-31T05:15:48.367</time></trkpt><trkpt lat="55.6845600" lon="38.2936100"><time>2020-10-31T05:15:50.367</time></trkpt><trkpt lat="55.6846170" lon="38.2936120"><time>2020-10-31T05:15:52.367</time></trkpt><trkpt lat="55.6846620" lon="38.2936330"><time>2020-10-31T05:15:54.367</time></trkpt><trkpt lat="55.6847120" lon="38.2936230"><time>2020-10-31T05:15:57.367</time></trkpt><trkpt lat="55.6847680" lon="38.2936370"><time>2020-10-31T05:15:59.367</time></trkpt><trkpt lat="55.6848200" lon="38.2936620"><time>2020-10-31T05:16:01.370</time></trkpt><trkpt lat="55.6849070" lon="38.2936930"><time>2020-10-31T05:16:04.367</time></trkpt><trkpt lat="55.6850230" lon="38.2937680"><time>2020-10-31T05:16:12.367</time></trkpt><trkpt lat="55.6850680" lon="38.2937620"><time>2020-10-31T05:16:14.367</time></trkpt><trkpt lat="55.6851130" lon="38.2937600"><time>2020-10-31T05:16:15.367</time></trkpt><trkpt lat="55.6851720" lon="38.2937580"><time>2020-10-31T05:16:16.363</time></trkpt><trkpt lat="55.6852400" lon="38.2937700"><time>2020-10-31T05:16:18.363</time></trkpt><trkpt lat="55.6852850" lon="38.2937400"><time>2020-10-31T05:16:20.367</time></trkpt><trkpt lat="55.6853350" lon="38.2937030"><time>2020-10-31T05:16:22.367</time></trkpt><trkpt lat="55.6853980" lon="38.2936650"><time>2020-10-31T05:16:24.367</time></trkpt><trkpt lat="55.6854620" lon="38.2936300"><time>2020-10-31T05:16:27.367</time></trkpt><trkpt lat="55.6855150" lon="38.2936170"><time>2020-10-31T05:16:30.367</time></trkpt><trkpt lat="55.6855750" lon="38.2935870"><time>2020-10-31T05:16:33.367</time></trkpt><trkpt lat="55.6856330" lon="38.2935650"><time>2020-10-31T05:16:36.367</time></trkpt><trkpt lat="55.6856880" lon="38.2935650"><time>2020-10-31T05:16:39.367</time></trkpt><trkpt lat="55.6857320" lon="38.2935930"><time>2020-10-31T05:16:42.367</time></trkpt><trkpt lat="55.6857900" lon="38.2936180"><time>2020-10-31T05:16:47.363</time></trkpt><trkpt lat="55.6859030" lon="38.2936820"><time>2020-10-31T05:16:57.367</time></trkpt><trkpt lat="55.6860050" lon="38.2937350"><time>2020-10-31T05:17:04.367</time></trkpt><trkpt lat="55.6860950" lon="38.2937600"><time>2020-10-31T05:17:08.367</time></trkpt><trkpt lat="55.6861500" lon="38.2937600"><time>2020-10-31T05:17:10.367</time></trkpt><trkpt lat="55.6862030" lon="38.2937650"><time>2020-10-31T05:17:12.367</time></trkpt><trkpt lat="55.6862520" lon="38.2937500"><time>2020-10-31T05:17:14.367</time></trkpt><trkpt lat="55.6863080" lon="38.2937550"><time>2020-10-31T05:17:17.367</time></trkpt><trkpt lat="55.6863620" lon="38.2937570"><time>2020-10-31T05:17:19.367</time></trkpt><trkpt lat="55.6864130" lon="38.2937270"><time>2020-10-31T05:17:23.363</time></trkpt><trkpt lat="55.6864780" lon="38.2937220"><time>2020-10-31T05:17:26.363</time></trkpt><trkpt lat="55.6865600" lon="38.2937820"><time>2020-10-31T05:17:28.367</time></trkpt><trkpt lat="55.6866120" lon="38.2937700"><time>2020-10-31T05:17:32.363</time></trkpt><trkpt lat="55.6866730" lon="38.2937200"><time>2020-10-31T05:17:36.367</time></trkpt><trkpt lat="55.6867720" lon="38.2935830"><time>2020-10-31T05:17:54.363</time></trkpt><trkpt lat="55.6868320" lon="38.2934180"><time>2020-10-31T05:18:04.367</time></trkpt><trkpt lat="55.6868880" lon="38.2933580"><time>2020-10-31T05:18:07.370</time></trkpt><trkpt lat="55.6869420" lon="38.2933630"><time>2020-10-31T05:18:08.363</time></trkpt><trkpt lat="55.6869850" lon="38.2933420"><time>2020-10-31T05:18:11.367</time></trkpt><trkpt lat="55.6870720" lon="38.2932520"><time>2020-10-31T05:18:19.363</time></trkpt><trkpt lat="55.6871670" lon="38.2930650"><time>2020-10-31T05:18:30.367</time></trkpt><trkpt lat="55.6872170" lon="38.2930030"><time>2020-10-31T05:18:33.363</time></trkpt><trkpt lat="55.6873370" lon="38.2928820"><time>2020-10-31T05:18:43.367</time></trkpt><trkpt lat="55.6873820" lon="38.2928380"><time>2020-10-31T05:18:46.367</time></trkpt><trkpt lat="55.6874380" lon="38.2927820"><time>2020-10-31T05:18:48.363</time></trkpt><trkpt lat="55.6874950" lon="38.2927570"><time>2020-10-31T05:18:50.363</time></trkpt><trkpt lat="55.6875370" lon="38.2926900"><time>2020-10-31T05:18:53.363</time></trkpt><trkpt lat="55.6874930" lon="38.2924750"><time>2020-10-31T05:19:10.363</time></trkpt><trkpt lat="55.6874770" lon="38.2923650"><time>2020-10-31T05:19:12.367</time></trkpt><trkpt lat="55.6875420" lon="38.2921820"><time>2020-10-31T05:19:19.367</time></trkpt><trkpt lat="55.6875420" lon="38.2920720"><time>2020-10-31T05:19:22.367</time></trkpt><trkpt lat="55.6875670" lon="38.2919100"><time>2020-10-31T05:19:27.367</time></trkpt><trkpt lat="55.6875850" lon="38.2918200"><time>2020-10-31T05:19:28.363</time></trkpt><trkpt lat="55.6876030" lon="38.2916880"><time>2020-10-31T05:19:30.367</time></trkpt><trkpt lat="55.6876270" lon="38.2915680"><time>2020-10-31T05:19:32.367</time></trkpt><trkpt lat="55.6876430" lon="38.2914850"><time>2020-10-31T05:19:34.367</time></trkpt><trkpt lat="55.6876550" lon="38.2914000"><time>2020-10-31T05:19:36.367</time></trkpt><trkpt lat="55.6876780" lon="38.2913120"><time>2020-10-31T05:19:39.367</time></trkpt><trkpt lat="55.6877020" lon="38.2912400"><time>2020-10-31T05:19:42.363</time></trkpt><trkpt lat="55.6877370" lon="38.2911270"><time>2020-10-31T05:19:46.363</time></trkpt><trkpt lat="55.6877570" lon="38.2910470"><time>2020-10-31T05:19:48.367</time></trkpt><trkpt lat="55.6877950" lon="38.2909980"><time>2020-10-31T05:19:49.367</time></trkpt><trkpt lat="55.6877750" lon="38.2908930"><time>2020-10-31T05:19:52.367</time></trkpt><trkpt lat="55.6877620" lon="38.2907780"><time>2020-10-31T05:19:55.367</time></trkpt><trkpt lat="55.6877550" lon="38.2906800"><time>2020-10-31T05:19:58.363</time></trkpt><trkpt lat="55.6877400" lon="38.2905880"><time>2020-10-31T05:20:01.367</time></trkpt><trkpt lat="55.6877520" lon="38.2903720"><time>2020-10-31T05:20:11.367</time></trkpt><trkpt lat="55.6877470" lon="38.2901500"><time>2020-10-31T05:20:20.363</time></trkpt><trkpt lat="55.6877220" lon="38.2900180"><time>2020-10-31T05:20:23.363</time></trkpt><trkpt lat="55.6877330" lon="38.2898580"><time>2020-10-31T05:20:28.367</time></trkpt><trkpt lat="55.6877380" lon="38.2897480"><time>2020-10-31T05:20:31.367</time></trkpt><trkpt lat="55.6877550" lon="38.2895670"><time>2020-10-31T05:20:36.367</time></trkpt><trkpt lat="55.6877730" lon="38.2894750"><time>2020-10-31T05:20:39.357</time></trkpt><trkpt lat="55.6877730" lon="38.2892300"><time>2020-10-31T05:20:43.370</time></trkpt><trkpt lat="55.6877980" lon="38.2890750"><time>2020-10-31T05:20:45.367</time></trkpt><trkpt lat="55.6878030" lon="38.2889670"><time>2020-10-31T05:20:46.367</time></trkpt><trkpt lat="55.6878030" lon="38.2888730"><time>2020-10-31T05:20:47.363</time></trkpt><trkpt lat="55.6878170" lon="38.2887680"><time>2020-10-31T05:20:49.367</time></trkpt><trkpt lat="55.6877850" lon="38.2886920"><time>2020-10-31T05:20:51.367</time></trkpt><trkpt lat="55.6878080" lon="38.2885130"><time>2020-10-31T05:20:54.367</time></trkpt><trkpt lat="55.6877830" lon="38.2884100"><time>2020-10-31T05:20:56.363</time></trkpt><trkpt lat="55.6877830" lon="38.2883220"><time>2020-10-31T05:20:59.367</time></trkpt><trkpt lat="55.6877980" lon="38.2881050"><time>2020-10-31T05:21:09.367</time></trkpt><trkpt lat="55.6878320" lon="38.2880220"><time>2020-10-31T05:21:12.367</time></trkpt><trkpt lat="55.6878270" lon="38.2877870"><time>2020-10-31T05:21:18.367</time></trkpt><trkpt lat="55.6878480" lon="38.2876130"><time>2020-10-31T05:21:26.360</time></trkpt><trkpt lat="55.6878550" lon="38.2874900"><time>2020-10-31T05:21:27.367</time></trkpt><trkpt lat="55.6878470" lon="38.2873920"><time>2020-10-31T05:21:29.367</time></trkpt><trkpt lat="55.6878570" lon="38.2872920"><time>2020-10-31T05:21:30.367</time></trkpt><trkpt lat="55.6878620" lon="38.2871750"><time>2020-10-31T05:21:31.367</time></trkpt><trkpt lat="55.6878620" lon="38.2870250"><time>2020-10-31T05:21:32.363</time></trkpt><trkpt lat="55.6878720" lon="38.2868980"><time>2020-10-31T05:21:33.367</time></trkpt><trkpt lat="55.6878680" lon="38.2867770"><time>2020-10-31T05:21:34.367</time></trkpt><trkpt lat="55.6878450" lon="38.2866670"><time>2020-10-31T05:21:35.363</time></trkpt><trkpt lat="55.6878330" lon="38.2865230"><time>2020-10-31T05:21:36.367</time></trkpt><trkpt lat="55.6878020" lon="38.2863920"><time>2020-10-31T05:21:37.363</time></trkpt><trkpt lat="55.6877900" lon="38.2862950"><time>2020-10-31T05:21:38.367</time></trkpt><trkpt lat="55.6877730" lon="38.2862050"><time>2020-10-31T05:21:39.373</time></trkpt><trkpt lat="55.6877920" lon="38.2860730"><time>2020-10-31T05:21:41.363</time></trkpt><trkpt lat="55.6877880" lon="38.2859720"><time>2020-10-31T05:21:43.363</time></trkpt><trkpt lat="55.6877770" lon="38.2858900"><time>2020-10-31T05:21:45.363</time></trkpt><trkpt lat="55.6877780" lon="38.2858100"><time>2020-10-31T05:21:49.367</time></trkpt><trkpt lat="55.6877650" lon="38.2856250"><time>2020-10-31T05:21:56.367</time></trkpt><trkpt lat="55.6877400" lon="38.2855420"><time>2020-10-31T05:21:59.367</time></trkpt><trkpt lat="55.6877230" lon="38.2854520"><time>2020-10-31T05:22:01.363</time></trkpt><trkpt lat="55.6877180" lon="38.2853350"><time>2020-10-31T05:22:05.367</time></trkpt><trkpt lat="55.6877120" lon="38.2852170"><time>2020-10-31T05:22:07.367</time></trkpt><trkpt lat="55.6876980" lon="38.2851350"><time>2020-10-31T05:22:10.360</time></trkpt><trkpt lat="55.6876650" lon="38.2849500"><time>2020-10-31T05:22:23.363</time></trkpt><trkpt lat="55.6876300" lon="38.2846770"><time>2020-10-31T05:22:36.367</time></trkpt><trkpt lat="55.6876400" lon="38.2845770"><time>2020-10-31T05:22:38.367</time></trkpt><trkpt lat="55.6876500" lon="38.2844920"><time>2020-10-31T05:22:40.367</time></trkpt><trkpt lat="55.6876600" lon="38.2843920"><time>2020-10-31T05:22:42.367</time></trkpt><trkpt lat="55.6876680" lon="38.2843120"><time>2020-10-31T05:22:44.367</time></trkpt><trkpt lat="55.6876520" lon="38.2842230"><time>2020-10-31T05:22:48.367</time></trkpt><trkpt lat="55.6876220" lon="38.2841570"><time>2020-10-31T05:22:52.367</time></trkpt><trkpt lat="55.6876170" lon="38.2840570"><time>2020-10-31T05:22:55.323</time></trkpt><trkpt lat="55.6876100" lon="38.2839280"><time>2020-10-31T05:22:57.377</time></trkpt><trkpt lat="55.6876170" lon="38.2838030"><time>2020-10-31T05:22:59.370</time></trkpt><trkpt lat="55.6876070" lon="38.2837250"><time>2020-10-31T05:23:01.367</time></trkpt><trkpt lat="55.6876170" lon="38.2834870"><time>2020-10-31T05:23:16.363</time></trkpt><trkpt lat="55.6876170" lon="38.2833930"><time>2020-10-31T05:23:19.367</time></trkpt><trkpt lat="55.6875970" lon="38.2833130"><time>2020-10-31T05:23:21.367</time></trkpt><trkpt lat="55.6875700" lon="38.2831920"><time>2020-10-31T05:23:23.360</time></trkpt><trkpt lat="55.6875400" lon="38.2831080"><time>2020-10-31T05:23:25.363</time></trkpt><trkpt lat="55.6875020" lon="38.2828920"><time>2020-10-31T05:23:34.367</time></trkpt><trkpt lat="55.6875150" lon="38.2826620"><time>2020-10-31T05:23:50.367</time></trkpt><trkpt lat="55.6876070" lon="38.2826080"><time>2020-10-31T05:24:16.367</time></trkpt><trkpt lat="55.6876850" lon="38.2825780"><time>2020-10-31T05:24:24.367</time></trkpt><trkpt lat="55.6878200" lon="38.2825920"><time>2020-10-31T05:24:41.363</time></trkpt><trkpt lat="55.6878750" lon="38.2825770"><time>2020-10-31T05:24:44.363</time></trkpt><trkpt lat="55.6879630" lon="38.2826720"><time>2020-10-31T05:24:52.367</time></trkpt><trkpt lat="55.6880170" lon="38.2827050"><time>2020-10-31T05:24:55.370</time></trkpt><trkpt lat="55.6881050" lon="38.2827730"><time>2020-10-31T05:25:03.367</time></trkpt><trkpt lat="55.6882620" lon="38.2827250"><time>2020-10-31T05:25:16.367</time></trkpt><trkpt lat="55.6883270" lon="38.2827230"><time>2020-10-31T05:25:23.367</time></trkpt><trkpt lat="55.6883930" lon="38.2827430"><time>2020-10-31T05:25:25.370</time></trkpt><trkpt lat="55.6884550" lon="38.2827620"><time>2020-10-31T05:25:28.367</time></trkpt><trkpt lat="55.6885070" lon="38.2827680"><time>2020-10-31T05:25:32.367</time></trkpt><trkpt lat="55.6886250" lon="38.2828470"><time>2020-10-31T05:25:49.367</time></trkpt><trkpt lat="55.6887170" lon="38.2829780"><time>2020-10-31T05:26:04.367</time></trkpt><trkpt lat="55.6887680" lon="38.2829920"><time>2020-10-31T05:26:07.380</time></trkpt><trkpt lat="55.6888620" lon="38.2830120"><time>2020-10-31T05:26:21.367</time></trkpt><trkpt lat="55.6889500" lon="38.2831370"><time>2020-10-31T05:26:34.367</time></trkpt><trkpt lat="55.6890720" lon="38.2831070"><time>2020-10-31T05:26:46.367</time></trkpt><trkpt lat="55.6892050" lon="38.2831070"><time>2020-10-31T05:26:59.367</time></trkpt><trkpt lat="55.6892420" lon="38.2832270"><time>2020-10-31T05:27:07.327</time></trkpt><trkpt lat="55.6892580" lon="38.2833500"><time>2020-10-31T05:27:09.327</time></trkpt><trkpt lat="55.6892450" lon="38.2834530"><time>2020-10-31T05:27:10.317</time></trkpt><trkpt lat="55.6892580" lon="38.2835320"><time>2020-10-31T05:27:11.320</time></trkpt><trkpt lat="55.6893080" lon="38.2836270"><time>2020-10-31T05:27:12.330</time></trkpt><trkpt lat="55.6894400" lon="38.2836620"><time>2020-10-31T05:27:13.340</time></trkpt><trkpt lat="55.6894400" lon="38.2836620"><time>2020-10-31T05:27:13.983</time></trkpt><trkpt lat="55.6895780" lon="38.2837050"><time>2020-10-31T05:27:14.337</time></trkpt><trkpt lat="55.6896370" lon="38.2838100"><time>2020-10-31T05:27:15.327</time></trkpt><trkpt lat="55.6896820" lon="38.2838900"><time>2020-10-31T05:27:16.323</time></trkpt><trkpt lat="55.6897200" lon="38.2839430"><time>2020-10-31T05:27:17.320</time></trkpt><trkpt lat="55.6896180" lon="38.2841020"><time>2020-10-31T05:27:18.360</time></trkpt><trkpt lat="55.6897420" lon="38.2840430"><time>2020-10-31T05:27:19.367</time></trkpt><trkpt lat="55.6897680" lon="38.2839720"><time>2020-10-31T05:27:20.363</time></trkpt><trkpt lat="55.6894950" lon="38.2837550"><time>2020-10-31T05:27:21.347</time></trkpt><trkpt lat="55.6895780" lon="38.2838630"><time>2020-10-31T05:27:23.367</time></trkpt><trkpt lat="55.6896550" lon="38.2839070"><time>2020-10-31T05:27:24.360</time></trkpt><trkpt lat="55.6896180" lon="38.2838250"><time>2020-10-31T05:27:27.073</time></trkpt><trkpt lat="55.6897170" lon="38.2839100"><time>2020-10-31T05:27:34.367</time></trkpt><trkpt lat="55.6897850" lon="38.2840530"><time>2020-10-31T05:28:00.363</time></trkpt><trkpt lat="55.6898680" lon="38.2841500"><time>2020-10-31T05:28:23.363</time></trkpt><trkpt lat="55.6899380" lon="38.2843120"><time>2020-10-31T05:28:36.367</time></trkpt><trkpt lat="55.6900120" lon="38.2844770"><time>2020-10-31T05:28:50.367</time></trkpt><trkpt lat="55.6900200" lon="38.2846830"><time>2020-10-31T05:29:00.367</time></trkpt><trkpt lat="55.6900300" lon="38.2848980"><time>2020-10-31T05:29:09.367</time></trkpt><trkpt lat="55.6901120" lon="38.2850720"><time>2020-10-31T05:29:19.367</time></trkpt><trkpt lat="55.6902050" lon="38.2852320"><time>2020-10-31T05:29:30.367</time></trkpt><trkpt lat="55.6902220" lon="38.2854550"><time>2020-10-31T05:29:41.363</time></trkpt><trkpt lat="55.6902400" lon="38.2856770"><time>2020-10-31T05:29:53.363</time></trkpt><trkpt lat="55.6902470" lon="38.2858980"><time>2020-10-31T05:30:06.367</time></trkpt><trkpt lat="55.6902470" lon="38.2861380"><time>2020-10-31T05:30:20.367</time></trkpt><trkpt lat="55.6902200" lon="38.2862430"><time>2020-10-31T05:30:22.367</time></trkpt><trkpt lat="55.6901750" lon="38.2864720"><time>2020-10-31T05:30:29.363</time></trkpt><trkpt lat="55.6901500" lon="38.2865430"><time>2020-10-31T05:30:31.370</time></trkpt><trkpt lat="55.6901080" lon="38.2867020"><time>2020-10-31T05:30:36.323</time></trkpt><trkpt lat="55.6900880" lon="38.2869570"><time>2020-10-31T05:30:46.363</time></trkpt><trkpt lat="55.6900870" lon="38.2870370"><time>2020-10-31T05:30:49.367</time></trkpt><trkpt lat="55.6900970" lon="38.2872600"><time>2020-10-31T05:30:59.367</time></trkpt><trkpt lat="55.6901720" lon="38.2874370"><time>2020-10-31T05:31:11.367</time></trkpt><trkpt lat="55.6901480" lon="38.2876720"><time>2020-10-31T05:31:18.363</time></trkpt><trkpt lat="55.6901380" lon="38.2878430"><time>2020-10-31T05:31:20.367</time></trkpt><trkpt lat="55.6901330" lon="38.2879330"><time>2020-10-31T05:31:21.370</time></trkpt><trkpt lat="55.6901670" lon="38.2880970"><time>2020-10-31T05:31:28.367</time></trkpt><trkpt lat="55.6901380" lon="38.2883130"><time>2020-10-31T05:31:39.367</time></trkpt><trkpt lat="55.6901150" lon="38.2885480"><time>2020-10-31T05:31:52.367</time></trkpt><trkpt lat="55.6901170" lon="38.2887620"><time>2020-10-31T05:32:01.370</time></trkpt><trkpt lat="55.6901300" lon="38.2889780"><time>2020-10-31T05:32:13.373</time></trkpt><trkpt lat="55.6901280" lon="38.2892000"><time>2020-10-31T05:32:26.370</time></trkpt><trkpt lat="55.6901180" lon="38.2892870"><time>2020-10-31T05:32:29.370</time></trkpt><trkpt lat="55.6900630" lon="38.2894570"><time>2020-10-31T05:32:34.367</time></trkpt><trkpt lat="55.6900200" lon="38.2895530"><time>2020-10-31T05:32:37.367</time></trkpt><trkpt lat="55.6899700" lon="38.2895900"><time>2020-10-31T05:32:40.363</time></trkpt><trkpt lat="55.6899220" lon="38.2896130"><time>2020-10-31T05:32:43.367</time></trkpt><trkpt lat="55.6899250" lon="38.2897300"><time>2020-10-31T05:32:47.367</time></trkpt><trkpt lat="55.6899070" lon="38.2898150"><time>2020-10-31T05:32:49.367</time></trkpt><trkpt lat="55.6898780" lon="38.2898900"><time>2020-10-31T05:32:51.363</time></trkpt><trkpt lat="55.6898580" lon="38.2899720"><time>2020-10-31T05:32:53.367</time></trkpt><trkpt lat="55.6898450" lon="38.2900630"><time>2020-10-31T05:32:55.370</time></trkpt><trkpt lat="55.6898270" lon="38.2901430"><time>2020-10-31T05:32:57.367</time></trkpt><trkpt lat="55.6898080" lon="38.2902480"><time>2020-10-31T05:32:59.367</time></trkpt><trkpt lat="55.6897720" lon="38.2903430"><time>2020-10-31T05:33:01.367</time></trkpt><trkpt lat="55.6897280" lon="38.2904170"><time>2020-10-31T05:33:03.367</time></trkpt><trkpt lat="55.6896670" lon="38.2905430"><time>2020-10-31T05:33:04.370</time></trkpt><trkpt lat="55.6896320" lon="38.2906070"><time>2020-10-31T05:33:05.370</time></trkpt><trkpt lat="55.6896000" lon="38.2907280"><time>2020-10-31T05:33:08.370</time></trkpt><trkpt lat="55.6895700" lon="38.2908180"><time>2020-10-31T05:33:11.367</time></trkpt><trkpt lat="55.6895450" lon="38.2909180"><time>2020-10-31T05:33:14.367</time></trkpt><trkpt lat="55.6895050" lon="38.2909970"><time>2020-10-31T05:33:17.367</time></trkpt><trkpt lat="55.6894580" lon="38.2910770"><time>2020-10-31T05:33:19.367</time></trkpt><trkpt lat="55.6894600" lon="38.2911900"><time>2020-10-31T05:33:22.367</time></trkpt><trkpt lat="55.6894400" lon="38.2912950"><time>2020-10-31T05:33:25.367</time></trkpt><trkpt lat="55.6894630" lon="38.2913750"><time>2020-10-31T05:33:30.367</time></trkpt><trkpt lat="55.6894970" lon="38.2914500"><time>2020-10-31T05:33:36.367</time></trkpt><trkpt lat="55.6895120" lon="38.2915330"><time>2020-10-31T05:33:40.367</time></trkpt><trkpt lat="55.6895400" lon="38.2916170"><time>2020-10-31T05:33:43.367</time></trkpt><trkpt lat="55.6895430" lon="38.2917930"><time>2020-10-31T05:33:56.370</time></trkpt><trkpt lat="55.6895670" lon="38.2918750"><time>2020-10-31T05:33:59.367</time></trkpt><trkpt lat="55.6896370" lon="38.2920120"><time>2020-10-31T05:34:11.367</time></trkpt><trkpt lat="55.6897230" lon="38.2921630"><time>2020-10-31T05:34:27.363</time></trkpt><trkpt lat="55.6897450" lon="38.2923580"><time>2020-10-31T05:34:35.367</time></trkpt><trkpt lat="55.6898480" lon="38.2924970"><time>2020-10-31T05:34:47.367</time></trkpt><trkpt lat="55.6899530" lon="38.2926100"><time>2020-10-31T05:34:58.367</time></trkpt><trkpt lat="55.6900830" lon="38.2925850"><time>2020-10-31T05:35:11.367</time></trkpt><trkpt lat="55.6901330" lon="38.2928130"><time>2020-10-31T05:35:21.367</time></trkpt><trkpt lat="55.6901630" lon="38.2930430"><time>2020-10-31T05:35:37.363</time></trkpt><trkpt lat="55.6901380" lon="38.2931370"><time>2020-10-31T05:35:40.370</time></trkpt><trkpt lat="55.6901380" lon="38.2932220"><time>2020-10-31T05:35:42.367</time></trkpt><trkpt lat="55.6901380" lon="38.2933080"><time>2020-10-31T05:35:45.370</time></trkpt><trkpt lat="55.6901270" lon="38.2934200"><time>2020-10-31T05:35:48.370</time></trkpt><trkpt lat="55.6901470" lon="38.2934930"><time>2020-10-31T05:35:51.367</time></trkpt><trkpt lat="55.6901680" lon="38.2936030"><time>2020-10-31T05:35:53.367</time></trkpt><trkpt lat="55.6901450" lon="38.2936820"><time>2020-10-31T05:35:54.367</time></trkpt><trkpt lat="55.6901400" lon="38.2938050"><time>2020-10-31T05:35:56.370</time></trkpt><trkpt lat="55.6901280" lon="38.2939030"><time>2020-10-31T05:35:58.367</time></trkpt><trkpt lat="55.6901170" lon="38.2940120"><time>2020-10-31T05:36:01.370</time></trkpt><trkpt lat="55.6900830" lon="38.2941720"><time>2020-10-31T05:36:07.370</time></trkpt><trkpt lat="55.6900620" lon="38.2942880"><time>2020-10-31T05:36:14.367</time></trkpt><trkpt lat="55.6900500" lon="38.2943900"><time>2020-10-31T05:36:17.367</time></trkpt><trkpt lat="55.6900350" lon="38.2944850"><time>2020-10-31T05:36:19.363</time></trkpt><trkpt lat="55.6900400" lon="38.2945970"><time>2020-10-31T05:36:22.367</time></trkpt><trkpt lat="55.6900280" lon="38.2947170"><time>2020-10-31T05:36:28.367</time></trkpt><trkpt lat="55.6900320" lon="38.2948050"><time>2020-10-31T05:36:31.367</time></trkpt><trkpt lat="55.6900150" lon="38.2949400"><time>2020-10-31T05:36:35.370</time></trkpt><trkpt lat="55.6900030" lon="38.2950280"><time>2020-10-31T05:36:38.367</time></trkpt><trkpt lat="55.6900020" lon="38.2951870"><time>2020-10-31T05:36:51.370</time></trkpt><trkpt lat="55.6899680" lon="38.2953400"><time>2020-10-31T05:36:59.367</time></trkpt><trkpt lat="55.6899450" lon="38.2954300"><time>2020-10-31T05:37:01.367</time></trkpt><trkpt lat="55.6899230" lon="38.2956180"><time>2020-10-31T05:37:08.370</time></trkpt><trkpt lat="55.6899100" lon="38.2957050"><time>2020-10-31T05:37:10.367</time></trkpt><trkpt lat="55.6899320" lon="38.2956280"><time>2020-10-31T05:37:15.363</time></trkpt><trkpt lat="55.6899820" lon="38.2957050"><time>2020-10-31T05:37:16.367</time></trkpt><trkpt lat="55.6900400" lon="38.2957730"><time>2020-10-31T05:37:17.357</time></trkpt><trkpt lat="55.6900930" lon="38.2958630"><time>2020-10-31T05:37:18.367</time></trkpt><trkpt lat="55.6901430" lon="38.2958920"><time>2020-10-31T05:37:19.367</time></trkpt><trkpt lat="55.6901970" lon="38.2959280"><time>2020-10-31T05:37:21.370</time></trkpt><trkpt lat="55.6902220" lon="38.2960050"><time>2020-10-31T05:37:23.367</time></trkpt><trkpt lat="55.6902500" lon="38.2960950"><time>2020-10-31T05:37:26.367</time></trkpt><trkpt lat="55.6902830" lon="38.2961570"><time>2020-10-31T05:37:29.367</time></trkpt><trkpt lat="55.6902970" lon="38.2963750"><time>2020-10-31T05:37:38.367</time></trkpt><trkpt lat="55.6902900" lon="38.2965700"><time>2020-10-31T05:37:50.367</time></trkpt><trkpt lat="55.6903280" lon="38.2966300"><time>2020-10-31T05:37:53.367</time></trkpt><trkpt lat="55.6903580" lon="38.2966950"><time>2020-10-31T05:37:55.370</time></trkpt><trkpt lat="55.6903950" lon="38.2967720"><time>2020-10-31T05:37:59.367</time></trkpt><trkpt lat="55.6903900" lon="38.2969870"><time>2020-10-31T05:38:08.370</time></trkpt><trkpt lat="55.6904330" lon="38.2971700"><time>2020-10-31T05:38:27.373</time></trkpt><trkpt lat="55.6905100" lon="38.2973280"><time>2020-10-31T05:38:44.370</time></trkpt><trkpt lat="55.6905920" lon="38.2974870"><time>2020-10-31T05:38:56.370</time></trkpt><trkpt lat="55.6906570" lon="38.2976930"><time>2020-10-31T05:39:06.370</time></trkpt><trkpt lat="55.6906650" lon="38.2977070"><time>2020-10-31T05:39:10.287</time></trkpt><trkpt lat="55.6906600" lon="38.2978320"><time>2020-10-31T05:39:11.320</time></trkpt><trkpt lat="55.6906350" lon="38.2981100"><time>2020-10-31T05:39:12.323</time></trkpt><trkpt lat="55.6906150" lon="38.2984270"><time>2020-10-31T05:39:13.323</time></trkpt><trkpt lat="55.6906030" lon="38.2987250"><time>2020-10-31T05:39:14.323</time></trkpt><trkpt lat="55.6906280" lon="38.2989550"><time>2020-10-31T05:39:15.330</time></trkpt><trkpt lat="55.6906680" lon="38.2990350"><time>2020-10-31T05:39:16.360</time></trkpt><trkpt lat="55.6906780" lon="38.2991130"><time>2020-10-31T05:39:18.360</time></trkpt><trkpt lat="55.6906870" lon="38.2989830"><time>2020-10-31T05:39:19.370</time></trkpt><trkpt lat="55.6906830" lon="38.2989020"><time>2020-10-31T05:39:20.367</time></trkpt><trkpt lat="55.6906270" lon="38.2983030"><time>2020-10-31T05:39:21.370</time></trkpt><trkpt lat="55.6906720" lon="38.2983480"><time>2020-10-31T05:39:23.367</time></trkpt><trkpt lat="55.6905970" lon="38.2982250"><time>2020-10-31T05:39:26.373</time></trkpt><trkpt lat="55.6905670" lon="38.2981600"><time>2020-10-31T05:39:28.610</time></trkpt><trkpt lat="55.6905530" lon="38.2980370"><time>2020-10-31T05:39:44.370</time></trkpt><trkpt lat="55.6905130" lon="38.2979730"><time>2020-10-31T05:39:47.370</time></trkpt><trkpt lat="55.6905080" lon="38.2978550"><time>2020-10-31T05:39:52.367</time></trkpt><trkpt lat="55.6905280" lon="38.2977480"><time>2020-10-31T05:39:56.370</time></trkpt><trkpt lat="55.6905120" lon="38.2975750"><time>2020-10-31T05:40:09.373</time></trkpt><trkpt lat="55.6905020" lon="38.2974600"><time>2020-10-31T05:40:12.367</time></trkpt><trkpt lat="55.6904800" lon="38.2973150"><time>2020-10-31T05:40:14.367</time></trkpt><trkpt lat="55.6904620" lon="38.2972380"><time>2020-10-31T05:40:15.370</time></trkpt><trkpt lat="55.6904550" lon="38.2971420"><time>2020-10-31T05:40:17.367</time></trkpt><trkpt lat="55.6903870" lon="38.2971070"><time>2020-10-31T05:40:18.367</time></trkpt><trkpt lat="55.6903700" lon="38.2970130"><time>2020-10-31T05:40:21.370</time></trkpt><trkpt lat="55.6904200" lon="38.2970420"><time>2020-10-31T05:40:22.343</time></trkpt><trkpt lat="55.6903770" lon="38.2969320"><time>2020-10-31T05:40:26.367</time></trkpt><trkpt lat="55.6903450" lon="38.2967320"><time>2020-10-31T05:40:44.370</time></trkpt><trkpt lat="55.6902650" lon="38.2965550"><time>2020-10-31T05:41:02.367</time></trkpt><trkpt lat="55.6902250" lon="38.2963550"><time>2020-10-31T05:41:15.370</time></trkpt><trkpt lat="55.6901880" lon="38.2962980"><time>2020-10-31T05:41:17.370</time></trkpt><trkpt lat="55.6901300" lon="38.2961250"><time>2020-10-31T05:41:24.367</time></trkpt><trkpt lat="55.6901650" lon="38.2958950"><time>2020-10-31T05:41:36.370</time></trkpt><trkpt lat="55.6901770" lon="38.2956700"><time>2020-10-31T05:41:48.370</time></trkpt><trkpt lat="55.6901700" lon="38.2955820"><time>2020-10-31T05:41:51.367</time></trkpt><trkpt lat="55.6901970" lon="38.2954080"><time>2020-10-31T05:41:58.383</time></trkpt><trkpt lat="55.6902470" lon="38.2951800"><time>2020-10-31T05:42:11.367</time></trkpt><trkpt lat="55.6903230" lon="38.2949820"><time>2020-10-31T05:42:22.367</time></trkpt><trkpt lat="55.6904000" lon="38.2947880"><time>2020-10-31T05:42:33.370</time></trkpt><trkpt lat="55.6904180" lon="38.2947130"><time>2020-10-31T05:42:36.370</time></trkpt><trkpt lat="55.6904670" lon="38.2945750"><time>2020-10-31T05:42:42.370</time></trkpt><trkpt lat="55.6904980" lon="38.2945020"><time>2020-10-31T05:42:45.370</time></trkpt><trkpt lat="55.6905850" lon="38.2944230"><time>2020-10-31T05:42:48.370</time></trkpt><trkpt lat="55.6906230" lon="38.2943700"><time>2020-10-31T05:42:51.373</time></trkpt><trkpt lat="55.6907320" lon="38.2941950"><time>2020-10-31T05:42:55.370</time></trkpt><trkpt lat="55.6908000" lon="38.2941180"><time>2020-10-31T05:42:57.377</time></trkpt><trkpt lat="55.6908530" lon="38.2940600"><time>2020-10-31T05:42:59.370</time></trkpt><trkpt lat="55.6908800" lon="38.2939900"><time>2020-10-31T05:43:01.370</time></trkpt><trkpt lat="55.6909350" lon="38.2939430"><time>2020-10-31T05:43:04.370</time></trkpt><trkpt lat="55.6909830" lon="38.2939150"><time>2020-10-31T05:43:07.367</time></trkpt><trkpt lat="55.6910950" lon="38.2938370"><time>2020-10-31T05:43:16.370</time></trkpt><trkpt lat="55.6911420" lon="38.2937830"><time>2020-10-31T05:43:19.370</time></trkpt><trkpt lat="55.6911970" lon="38.2937450"><time>2020-10-31T05:43:22.370</time></trkpt><trkpt lat="55.6913070" lon="38.2936970"><time>2020-10-31T05:43:36.367</time></trkpt><trkpt lat="55.6913730" lon="38.2936480"><time>2020-10-31T05:43:38.367</time></trkpt><trkpt lat="55.6914220" lon="38.2936520"><time>2020-10-31T05:43:40.367</time></trkpt><trkpt lat="55.6914800" lon="38.2936650"><time>2020-10-31T05:43:42.370</time></trkpt><trkpt lat="55.6915330" lon="38.2936430"><time>2020-10-31T05:43:44.370</time></trkpt><trkpt lat="55.6915950" lon="38.2936050"><time>2020-10-31T05:43:46.370</time></trkpt><trkpt lat="55.6916470" lon="38.2935980"><time>2020-10-31T05:43:48.367</time></trkpt><trkpt lat="55.6917150" lon="38.2935820"><time>2020-10-31T05:43:50.377</time></trkpt><trkpt lat="55.6917680" lon="38.2935780"><time>2020-10-31T05:43:52.367</time></trkpt><trkpt lat="55.6918170" lon="38.2935830"><time>2020-10-31T05:43:55.370</time></trkpt><trkpt lat="55.6918720" lon="38.2935550"><time>2020-10-31T05:43:59.367</time></trkpt><trkpt lat="55.6919200" lon="38.2935250"><time>2020-10-31T05:44:01.373</time></trkpt><trkpt lat="55.6919730" lon="38.2934980"><time>2020-10-31T05:44:03.380</time></trkpt><trkpt lat="55.6920400" lon="38.2934720"><time>2020-10-31T05:44:06.370</time></trkpt><trkpt lat="55.6920930" lon="38.2934680"><time>2020-10-31T05:44:09.373</time></trkpt><trkpt lat="55.6921970" lon="38.2934830"><time>2020-10-31T05:44:17.370</time></trkpt><trkpt lat="55.6922570" lon="38.2935030"><time>2020-10-31T05:44:20.373</time></trkpt><trkpt lat="55.6923170" lon="38.2934830"><time>2020-10-31T05:44:24.370</time></trkpt><trkpt lat="55.6923780" lon="38.2934600"><time>2020-10-31T05:44:27.367</time></trkpt><trkpt lat="55.6924400" lon="38.2934530"><time>2020-10-31T05:44:29.373</time></trkpt><trkpt lat="55.6925280" lon="38.2934470"><time>2020-10-31T05:44:31.370</time></trkpt><trkpt lat="55.6925970" lon="38.2934270"><time>2020-10-31T05:44:33.373</time></trkpt><trkpt lat="55.6926570" lon="38.2934130"><time>2020-10-31T05:44:35.370</time></trkpt><trkpt lat="55.6927030" lon="38.2934220"><time>2020-10-31T05:44:37.370</time></trkpt><trkpt lat="55.6927570" lon="38.2934700"><time>2020-10-31T05:44:40.370</time></trkpt><trkpt lat="55.6928630" lon="38.2934620"><time>2020-10-31T05:44:52.373</time></trkpt><trkpt lat="55.6930020" lon="38.2934600"><time>2020-10-31T05:44:59.370</time></trkpt><trkpt lat="55.6930650" lon="38.2934220"><time>2020-10-31T05:45:01.370</time></trkpt><trkpt lat="55.6931080" lon="38.2933830"><time>2020-10-31T05:45:04.373</time></trkpt><trkpt lat="55.6931570" lon="38.2933350"><time>2020-10-31T05:45:07.373</time></trkpt><trkpt lat="55.6931980" lon="38.2933020"><time>2020-10-31T05:45:09.373</time></trkpt><trkpt lat="55.6932480" lon="38.2932670"><time>2020-10-31T05:45:13.373</time></trkpt><trkpt lat="55.6933020" lon="38.2932550"><time>2020-10-31T05:45:16.373</time></trkpt><trkpt lat="55.6933530" lon="38.2932750"><time>2020-10-31T05:45:19.373</time></trkpt><trkpt lat="55.6933970" lon="38.2932530"><time>2020-10-31T05:45:21.370</time></trkpt><trkpt lat="55.6934950" lon="38.2932830"><time>2020-10-31T05:45:22.373</time></trkpt><trkpt lat="55.6935430" lon="38.2932800"><time>2020-10-31T05:45:24.373</time></trkpt><trkpt lat="55.6936720" lon="38.2933000"><time>2020-10-31T05:45:27.367</time></trkpt><trkpt lat="55.6937350" lon="38.2933100"><time>2020-10-31T05:45:28.367</time></trkpt><trkpt lat="55.6937950" lon="38.2933200"><time>2020-10-31T05:45:30.370</time></trkpt><trkpt lat="55.6938570" lon="38.2933350"><time>2020-10-31T05:45:32.373</time></trkpt><trkpt lat="55.6939080" lon="38.2933180"><time>2020-10-31T05:45:34.370</time></trkpt><trkpt lat="55.6939700" lon="38.2933420"><time>2020-10-31T05:45:35.373</time></trkpt><trkpt lat="55.6940220" lon="38.2933250"><time>2020-10-31T05:45:38.370</time></trkpt><trkpt lat="55.6941280" lon="38.2933680"><time>2020-10-31T05:45:44.370</time></trkpt><trkpt lat="55.6942530" lon="38.2933670"><time>2020-10-31T05:45:53.367</time></trkpt><trkpt lat="55.6942980" lon="38.2933820"><time>2020-10-31T05:45:56.373</time></trkpt><trkpt lat="55.6943970" lon="38.2934020"><time>2020-10-31T05:46:02.377</time></trkpt><trkpt lat="55.6944650" lon="38.2933730"><time>2020-10-31T05:46:05.370</time></trkpt><trkpt lat="55.6945570" lon="38.2934020"><time>2020-10-31T05:46:12.370</time></trkpt><trkpt lat="55.6946830" lon="38.2934070"><time>2020-10-31T05:46:21.370</time></trkpt><trkpt lat="55.6947300" lon="38.2934150"><time>2020-10-31T05:46:22.370</time></trkpt><trkpt lat="55.6948200" lon="38.2934850"><time>2020-10-31T05:46:26.370</time></trkpt><trkpt lat="55.6948650" lon="38.2934680"><time>2020-10-31T05:46:27.377</time></trkpt><trkpt lat="55.6949230" lon="38.2934500"><time>2020-10-31T05:46:29.350</time></trkpt><trkpt lat="55.6950570" lon="38.2934530"><time>2020-10-31T05:46:37.370</time></trkpt><trkpt lat="55.6951220" lon="38.2934670"><time>2020-10-31T05:46:39.373</time></trkpt><trkpt lat="55.6951700" lon="38.2934530"><time>2020-10-31T05:46:41.370</time></trkpt><trkpt lat="55.6952220" lon="38.2934420"><time>2020-10-31T05:46:44.373</time></trkpt><trkpt lat="55.6953070" lon="38.2934650"><time>2020-10-31T05:46:45.373</time></trkpt><trkpt lat="55.6954120" lon="38.2935100"><time>2020-10-31T05:46:51.377</time></trkpt><trkpt lat="55.6954680" lon="38.2935030"><time>2020-10-31T05:46:54.373</time></trkpt><trkpt lat="55.6955700" lon="38.2935030"><time>2020-10-31T05:46:58.373</time></trkpt><trkpt lat="55.6956950" lon="38.2934630"><time>2020-10-31T05:47:07.370</time></trkpt><trkpt lat="55.6957670" lon="38.2934600"><time>2020-10-31T05:47:09.373</time></trkpt><trkpt lat="55.6959180" lon="38.2934000"><time>2020-10-31T05:47:16.373</time></trkpt><trkpt lat="55.6959700" lon="38.2933700"><time>2020-10-31T05:47:17.370</time></trkpt><trkpt lat="55.6960270" lon="38.2933280"><time>2020-10-31T05:47:19.373</time></trkpt><trkpt lat="55.6961100" lon="38.2934270"><time>2020-10-31T05:47:20.373</time></trkpt><trkpt lat="55.6962270" lon="38.2935150"><time>2020-10-31T05:47:21.377</time></trkpt><trkpt lat="55.6963470" lon="38.2935030"><time>2020-10-31T05:47:22.373</time></trkpt><trkpt lat="55.6966700" lon="38.2933750"><time>2020-10-31T05:47:23.373</time></trkpt><trkpt lat="55.6967550" lon="38.2934320"><time>2020-10-31T05:47:24.370</time></trkpt><trkpt lat="55.6968220" lon="38.2934750"><time>2020-10-31T05:47:25.373</time></trkpt><trkpt lat="55.6968880" lon="38.2935020"><time>2020-10-31T05:47:26.373</time></trkpt><trkpt lat="55.6969400" lon="38.2935200"><time>2020-10-31T05:47:27.380</time></trkpt><trkpt lat="55.6970200" lon="38.2935650"><time>2020-10-31T05:47:29.367</time></trkpt><trkpt lat="55.6970820" lon="38.2935670"><time>2020-10-31T05:47:31.367</time></trkpt><trkpt lat="55.6971080" lon="38.2935020"><time>2020-10-31T05:47:33.373</time></trkpt><trkpt lat="55.6971430" lon="38.2934200"><time>2020-10-31T05:47:36.367</time></trkpt><trkpt lat="55.6972200" lon="38.2934100"><time>2020-10-31T05:47:40.373</time></trkpt><trkpt lat="55.6972800" lon="38.2934180"><time>2020-10-31T05:47:42.370</time></trkpt><trkpt lat="55.6973420" lon="38.2934330"><time>2020-10-31T05:47:44.357</time></trkpt><trkpt lat="55.6974130" lon="38.2934030"><time>2020-10-31T05:47:46.370</time></trkpt><trkpt lat="55.6974980" lon="38.2933800"><time>2020-10-31T05:47:48.367</time></trkpt><trkpt lat="55.6975480" lon="38.2933680"><time>2020-10-31T05:47:49.377</time></trkpt><trkpt lat="55.6976080" lon="38.2933650"><time>2020-10-31T05:47:51.373</time></trkpt><trkpt lat="55.6976720" lon="38.2933630"><time>2020-10-31T05:47:53.377</time></trkpt><trkpt lat="55.6977270" lon="38.2933330"><time>2020-10-31T05:47:55.367</time></trkpt><trkpt lat="55.6977850" lon="38.2933150"><time>2020-10-31T05:47:57.373</time></trkpt><trkpt lat="55.6978430" lon="38.2933420"><time>2020-10-31T05:48:00.373</time></trkpt><trkpt lat="55.6978930" lon="38.2933900"><time>2020-10-31T05:48:03.370</time></trkpt><trkpt lat="55.6979320" lon="38.2934500"><time>2020-10-31T05:48:05.370</time></trkpt><trkpt lat="55.6979770" lon="38.2934720"><time>2020-10-31T05:48:10.370</time></trkpt><trkpt lat="55.6980680" lon="38.2935270"><time>2020-10-31T05:48:19.370</time></trkpt><trkpt lat="55.6981570" lon="38.2936320"><time>2020-10-31T05:48:34.373</time></trkpt><trkpt lat="55.6982700" lon="38.2937380"><time>2020-10-31T05:48:45.373</time></trkpt><trkpt lat="55.6983350" lon="38.2938480"><time>2020-10-31T05:48:48.373</time></trkpt><trkpt lat="55.6983920" lon="38.2938330"><time>2020-10-31T05:48:49.370</time></trkpt><trkpt lat="55.6984720" lon="38.2938130"><time>2020-10-31T05:48:51.373</time></trkpt><trkpt lat="55.6986270" lon="38.2937920"><time>2020-10-31T05:48:53.370</time></trkpt><trkpt lat="55.6986870" lon="38.2938080"><time>2020-10-31T05:48:54.370</time></trkpt><trkpt lat="55.6987650" lon="38.2938230"><time>2020-10-31T05:48:55.373</time></trkpt><trkpt lat="55.6988250" lon="38.2938050"><time>2020-10-31T05:48:56.373</time></trkpt><trkpt lat="55.6988780" lon="38.2937900"><time>2020-10-31T05:48:57.373</time></trkpt><trkpt lat="55.6989270" lon="38.2938020"><time>2020-10-31T05:48:58.373</time></trkpt><trkpt lat="55.6989970" lon="38.2937680"><time>2020-10-31T05:49:00.373</time></trkpt><trkpt lat="55.6990450" lon="38.2937670"><time>2020-10-31T05:49:04.370</time></trkpt><trkpt lat="55.6991480" lon="38.2937180"><time>2020-10-31T05:49:16.373</time></trkpt><trkpt lat="55.6991850" lon="38.2937720"><time>2020-10-31T05:49:18.373</time></trkpt><trkpt lat="55.6992380" lon="38.2937670"><time>2020-10-31T05:49:23.377</time></trkpt><trkpt lat="55.6993450" lon="38.2937480"><time>2020-10-31T05:49:31.373</time></trkpt><trkpt lat="55.6994980" lon="38.2937270"><time>2020-10-31T05:49:43.373</time></trkpt><trkpt lat="55.6995520" lon="38.2937300"><time>2020-10-31T05:49:46.373</time></trkpt><trkpt lat="55.6996670" lon="38.2937220"><time>2020-10-31T05:49:52.373</time></trkpt><trkpt lat="55.6997980" lon="38.2937670"><time>2020-10-31T05:50:00.373</time></trkpt><trkpt lat="55.6998400" lon="38.2937970"><time>2020-10-31T05:50:03.377</time></trkpt><trkpt lat="55.6999330" lon="38.2938480"><time>2020-10-31T05:50:11.373</time></trkpt><trkpt lat="55.7000650" lon="38.2938950"><time>2020-10-31T05:50:20.373</time></trkpt><trkpt lat="55.7001870" lon="38.2939680"><time>2020-10-31T05:50:31.370</time></trkpt><trkpt lat="55.7003150" lon="38.2940430"><time>2020-10-31T05:50:43.373</time></trkpt><trkpt lat="55.7004120" lon="38.2941450"><time>2020-10-31T05:50:51.377</time></trkpt><trkpt lat="55.7004550" lon="38.2941730"><time>2020-10-31T05:50:54.373</time></trkpt><trkpt lat="55.7005150" lon="38.2943370"><time>2020-10-31T05:51:04.373</time></trkpt><trkpt lat="55.7005320" lon="38.2944220"><time>2020-10-31T05:51:07.373</time></trkpt><trkpt lat="55.7006100" lon="38.2945080"><time>2020-10-31T05:51:14.373</time></trkpt><trkpt lat="55.7006970" lon="38.2946680"><time>2020-10-31T05:51:31.740</time></trkpt><trkpt lat="55.7007000" lon="38.2946730"><time>2020-10-31T05:51:32.893</time></trkpt><trkpt lat="55.7010680" lon="38.2951670"><time>2020-10-31T05:51:47.367</time></trkpt><trkpt lat="55.7011030" lon="38.2950900"><time>2020-10-31T05:51:48.337</time></trkpt><trkpt lat="55.7011550" lon="38.2953030"><time>2020-10-31T05:51:52.363</time></trkpt><trkpt lat="55.7010150" lon="38.2952220"><time>2020-10-31T05:52:03.947</time></trkpt><trkpt lat="55.7010580" lon="38.2952750"><time>2020-10-31T05:52:05.370</time></trkpt><trkpt lat="55.7010920" lon="38.2951930"><time>2020-10-31T05:53:25.373</time></trkpt><trkpt lat="55.7011830" lon="38.2953050"><time>2020-10-31T05:53:35.373</time></trkpt><trkpt lat="55.7012350" lon="38.2953680"><time>2020-10-31T05:53:42.373</time></trkpt><trkpt lat="55.7013220" lon="38.2955220"><time>2020-10-31T05:54:02.373</time></trkpt><trkpt lat="55.7013980" lon="38.2956580"><time>2020-10-31T05:54:25.377</time></trkpt><trkpt lat="55.7014830" lon="38.2958220"><time>2020-10-31T05:54:36.350</time></trkpt><trkpt lat="55.7014980" lon="38.2959020"><time>2020-10-31T05:54:39.373</time></trkpt><trkpt lat="55.7015520" lon="38.2960450"><time>2020-10-31T05:54:57.373</time></trkpt><trkpt lat="55.7015900" lon="38.2962420"><time>2020-10-31T05:55:13.373</time></trkpt><trkpt lat="55.7015600" lon="38.2964530"><time>2020-10-31T05:55:26.373</time></trkpt><trkpt lat="55.7015170" lon="38.2966650"><time>2020-10-31T05:55:38.377</time></trkpt><trkpt lat="55.7015100" lon="38.2968450"><time>2020-10-31T05:56:03.377</time></trkpt><trkpt lat="55.7015300" lon="38.2970370"><time>2020-10-31T05:56:18.373</time></trkpt><trkpt lat="55.7016100" lon="38.2971850"><time>2020-10-31T05:56:33.373</time></trkpt><trkpt lat="55.7015900" lon="38.2972600"><time>2020-10-31T05:56:36.373</time></trkpt><trkpt lat="55.7015950" lon="38.2974180"><time>2020-10-31T05:56:47.367</time></trkpt><trkpt lat="55.7016130" lon="38.2976120"><time>2020-10-31T05:57:00.373</time></trkpt><trkpt lat="55.7015900" lon="38.2978070"><time>2020-10-31T05:57:10.373</time></trkpt><trkpt lat="55.7015670" lon="38.2978800"><time>2020-10-31T05:57:12.377</time></trkpt><trkpt lat="55.7015820" lon="38.2980520"><time>2020-10-31T05:57:27.370</time></trkpt><trkpt lat="55.7016320" lon="38.2982250"><time>2020-10-31T05:57:46.373</time></trkpt><trkpt lat="55.7017070" lon="38.2983600"><time>2020-10-31T05:58:00.367</time></trkpt><trkpt lat="55.7018380" lon="38.2984400"><time>2020-10-31T05:58:09.377</time></trkpt><trkpt lat="55.7019270" lon="38.2986330"><time>2020-10-31T05:58:25.380</time></trkpt><trkpt lat="55.7019870" lon="38.2986550"><time>2020-10-31T05:58:28.373</time></trkpt><trkpt lat="55.7020480" lon="38.2987830"><time>2020-10-31T05:58:38.370</time></trkpt><trkpt lat="55.7020620" lon="38.2988730"><time>2020-10-31T05:58:40.373</time></trkpt><trkpt lat="55.7021430" lon="38.2989980"><time>2020-10-31T05:58:46.373</time></trkpt><trkpt lat="55.7022880" lon="38.2990100"><time>2020-10-31T05:58:47.373</time></trkpt><trkpt lat="55.7023220" lon="38.2992480"><time>2020-10-31T05:59:00.373</time></trkpt><trkpt lat="55.7022870" lon="38.2994500"><time>2020-10-31T05:59:09.380</time></trkpt><trkpt lat="55.7023050" lon="38.2996630"><time>2020-10-31T05:59:23.377</time></trkpt><trkpt lat="55.7023020" lon="38.2999000"><time>2020-10-31T05:59:37.370</time></trkpt><trkpt lat="55.7023650" lon="38.2999080"><time>2020-10-31T05:59:40.377</time></trkpt><trkpt lat="55.7023670" lon="38.3002050"><time>2020-10-31T05:59:51.377</time></trkpt><trkpt lat="55.7024030" lon="38.3002920"><time>2020-10-31T05:59:53.380</time></trkpt><trkpt lat="55.7024620" lon="38.3003920"><time>2020-10-31T05:59:55.377</time></trkpt><trkpt lat="55.7024970" lon="38.3004770"><time>2020-10-31T05:59:57.377</time></trkpt><trkpt lat="55.7025220" lon="38.3005520"><time>2020-10-31T05:59:59.373</time></trkpt><trkpt lat="55.7025380" lon="38.3006520"><time>2020-10-31T06:00:00.377</time></trkpt><trkpt lat="55.7025600" lon="38.3007530"><time>2020-10-31T06:00:03.380</time></trkpt><trkpt lat="55.7026130" lon="38.3009680"><time>2020-10-31T06:00:16.377</time></trkpt><trkpt lat="55.7026420" lon="38.3010680"><time>2020-10-31T06:00:18.377</time></trkpt><trkpt lat="55.7026600" lon="38.3011600"><time>2020-10-31T06:00:20.377</time></trkpt><trkpt lat="55.7026750" lon="38.3012450"><time>2020-10-31T06:00:22.370</time></trkpt><trkpt lat="55.7026820" lon="38.3013530"><time>2020-10-31T06:00:25.377</time></trkpt><trkpt lat="55.7027150" lon="38.3015120"><time>2020-10-31T06:00:35.377</time></trkpt><trkpt lat="55.7027420" lon="38.3016000"><time>2020-10-31T06:00:37.380</time></trkpt><trkpt lat="55.7027620" lon="38.3016970"><time>2020-10-31T06:00:41.377</time></trkpt><trkpt lat="55.7027850" lon="38.3018270"><time>2020-10-31T06:00:45.380</time></trkpt><trkpt lat="55.7027930" lon="38.3019150"><time>2020-10-31T06:00:47.377</time></trkpt><trkpt lat="55.7027600" lon="38.3021070"><time>2020-10-31T06:01:07.377</time></trkpt><trkpt lat="55.7026530" lon="38.3022750"><time>2020-10-31T06:01:18.377</time></trkpt><trkpt lat="55.7026120" lon="38.3024330"><time>2020-10-31T06:01:19.380</time></trkpt><trkpt lat="55.7025930" lon="38.3025230"><time>2020-10-31T06:01:20.377</time></trkpt><trkpt lat="55.7025700" lon="38.3026280"><time>2020-10-31T06:01:21.377</time></trkpt><trkpt lat="55.7025520" lon="38.3027480"><time>2020-10-31T06:01:23.377</time></trkpt><trkpt lat="55.7025370" lon="38.3028770"><time>2020-10-31T06:01:25.337</time></trkpt><trkpt lat="55.7025180" lon="38.3030380"><time>2020-10-31T06:01:27.373</time></trkpt><trkpt lat="55.7024920" lon="38.3031700"><time>2020-10-31T06:01:28.377</time></trkpt><trkpt lat="55.7024800" lon="38.3032620"><time>2020-10-31T06:01:29.380</time></trkpt><trkpt lat="55.7024530" lon="38.3033800"><time>2020-10-31T06:01:30.337</time></trkpt><trkpt lat="55.7024270" lon="38.3034930"><time>2020-10-31T06:01:31.383</time></trkpt><trkpt lat="55.7024030" lon="38.3035680"><time>2020-10-31T06:01:32.373</time></trkpt><trkpt lat="55.7023880" lon="38.3036480"><time>2020-10-31T06:01:34.377</time></trkpt><trkpt lat="55.7024820" lon="38.3038070"><time>2020-10-31T06:01:49.387</time></trkpt><trkpt lat="55.7025430" lon="38.3038130"><time>2020-10-31T06:01:52.627</time></trkpt><trkpt lat="55.7026630" lon="38.3038800"><time>2020-10-31T06:02:02.377</time></trkpt><trkpt lat="55.7027120" lon="38.3038850"><time>2020-10-31T06:02:04.380</time></trkpt><trkpt lat="55.7027630" lon="38.3038780"><time>2020-10-31T06:02:07.373</time></trkpt><trkpt lat="55.7028100" lon="38.3038950"><time>2020-10-31T06:02:11.373</time></trkpt><trkpt lat="55.7028620" lon="38.3039200"><time>2020-10-31T06:02:15.377</time></trkpt><trkpt lat="55.7029300" lon="38.3037730"><time>2020-10-31T06:02:39.380</time></trkpt><trkpt lat="55.7030200" lon="38.3039050"><time>2020-10-31T06:03:00.377</time></trkpt><trkpt lat="55.7030970" lon="38.3039480"><time>2020-10-31T06:03:03.380</time></trkpt><trkpt lat="55.7032050" lon="38.3038780"><time>2020-10-31T06:03:41.377</time></trkpt><trkpt lat="55.7033320" lon="38.3039420"><time>2020-10-31T06:03:54.377</time></trkpt><trkpt lat="55.7034580" lon="38.3038770"><time>2020-10-31T06:04:05.377</time></trkpt><trkpt lat="55.7035630" lon="38.3037300"><time>2020-10-31T06:04:21.380</time></trkpt><trkpt lat="55.7036650" lon="38.3036870"><time>2020-10-31T06:04:37.380</time></trkpt><trkpt lat="55.7037920" lon="38.3036850"><time>2020-10-31T06:04:54.377</time></trkpt><trkpt lat="55.7038930" lon="38.3035480"><time>2020-10-31T06:05:06.377</time></trkpt><trkpt lat="55.7039330" lon="38.3034620"><time>2020-10-31T06:05:09.377</time></trkpt><trkpt lat="55.7039980" lon="38.3033370"><time>2020-10-31T06:05:18.377</time></trkpt><trkpt lat="55.7040900" lon="38.3032180"><time>2020-10-31T06:05:34.377</time></trkpt><trkpt lat="55.7041730" lon="38.3031000"><time>2020-10-31T06:05:45.377</time></trkpt><trkpt lat="55.7042950" lon="38.3029750"><time>2020-10-31T06:05:58.377</time></trkpt><trkpt lat="55.7043630" lon="38.3029020"><time>2020-10-31T06:06:07.377</time></trkpt><trkpt lat="55.7044730" lon="38.3028170"><time>2020-10-31T06:06:20.380</time></trkpt><trkpt lat="55.7046030" lon="38.3027800"><time>2020-10-31T06:06:31.380</time></trkpt><trkpt lat="55.7047030" lon="38.3026900"><time>2020-10-31T06:06:44.377</time></trkpt><trkpt lat="55.7048100" lon="38.3026030"><time>2020-10-31T06:06:59.377</time></trkpt><trkpt lat="55.7049150" lon="38.3024980"><time>2020-10-31T06:07:22.377</time></trkpt><trkpt lat="55.7050100" lon="38.3023900"><time>2020-10-31T06:07:34.377</time></trkpt><trkpt lat="55.7050970" lon="38.3023180"><time>2020-10-31T06:07:46.377</time></trkpt><trkpt lat="55.7052100" lon="38.3023370"><time>2020-10-31T06:07:59.377</time></trkpt><trkpt lat="55.7053170" lon="38.3024370"><time>2020-10-31T06:08:17.377</time></trkpt><trkpt lat="55.7054230" lon="38.3024830"><time>2020-10-31T06:08:34.377</time></trkpt><trkpt lat="55.7055450" lon="38.3025230"><time>2020-10-31T06:08:45.380</time></trkpt><trkpt lat="55.7056200" lon="38.3026500"><time>2020-10-31T06:09:07.380</time></trkpt><trkpt lat="55.7057080" lon="38.3025270"><time>2020-10-31T06:09:44.377</time></trkpt><trkpt lat="55.7058280" lon="38.3024870"><time>2020-10-31T06:09:56.377</time></trkpt><trkpt lat="55.7058780" lon="38.3024670"><time>2020-10-31T06:09:59.353</time></trkpt><trkpt lat="55.7059020" lon="38.3023580"><time>2020-10-31T06:10:02.360</time></trkpt><trkpt lat="55.7059880" lon="38.3021630"><time>2020-10-31T06:10:03.373</time></trkpt><trkpt lat="55.7060420" lon="38.3021930"><time>2020-10-31T06:10:04.373</time></trkpt><trkpt lat="55.7060930" lon="38.3022170"><time>2020-10-31T06:10:07.460</time></trkpt><trkpt lat="55.7061400" lon="38.3022080"><time>2020-10-31T06:10:09.370</time></trkpt><trkpt lat="55.7061950" lon="38.3022430"><time>2020-10-31T06:10:24.377</time></trkpt><trkpt lat="55.7062770" lon="38.3023870"><time>2020-10-31T06:10:37.377</time></trkpt><trkpt lat="55.7063470" lon="38.3024380"><time>2020-10-31T06:10:40.377</time></trkpt><trkpt lat="55.7063800" lon="38.3025000"><time>2020-10-31T06:10:41.380</time></trkpt><trkpt lat="55.7064180" lon="38.3025520"><time>2020-10-31T06:10:44.377</time></trkpt><trkpt lat="55.7065070" lon="38.3025820"><time>2020-10-31T06:11:08.377</time></trkpt><trkpt lat="55.7065520" lon="38.3025920"><time>2020-10-31T06:11:11.377</time></trkpt><trkpt lat="55.7066430" lon="38.3026030"><time>2020-10-31T06:11:16.617</time></trkpt><trkpt lat="55.7066670" lon="38.3025200"><time>2020-10-31T06:11:19.347</time></trkpt><trkpt lat="55.7067250" lon="38.3023900"><time>2020-10-31T06:11:20.337</time></trkpt><trkpt lat="55.7067250" lon="38.3023900"><time>2020-10-31T06:11:21.650</time></trkpt><trkpt lat="55.7072770" lon="38.3020450"><time>2020-10-31T06:11:41.377</time></trkpt><trkpt lat="55.7073020" lon="38.3018630"><time>2020-10-31T06:11:42.377</time></trkpt><trkpt lat="55.7072680" lon="38.3019320"><time>2020-10-31T06:11:43.377</time></trkpt><trkpt lat="55.7071170" lon="38.3021530"><time>2020-10-31T06:11:44.377</time></trkpt><trkpt lat="55.7068700" lon="38.3024400"><time>2020-10-31T06:11:45.373</time></trkpt><trkpt lat="55.7068100" lon="38.3025700"><time>2020-10-31T06:11:46.377</time></trkpt><trkpt lat="55.7068420" lon="38.3027430"><time>2020-10-31T06:12:17.377</time></trkpt><trkpt lat="55.7068670" lon="38.3028130"><time>2020-10-31T06:12:19.377</time></trkpt><trkpt lat="55.7068170" lon="38.3029720"><time>2020-10-31T06:12:30.347</time></trkpt><trkpt lat="55.7067530" lon="38.3031420"><time>2020-10-31T06:12:49.377</time></trkpt><trkpt lat="55.7067320" lon="38.3033580"><time>2020-10-31T06:12:59.380</time></trkpt><trkpt lat="55.7067070" lon="38.3034420"><time>2020-10-31T06:13:02.377</time></trkpt><trkpt lat="55.7066350" lon="38.3035530"><time>2020-10-31T06:13:10.377</time></trkpt><trkpt lat="55.7065900" lon="38.3037430"><time>2020-10-31T06:13:20.377</time></trkpt><trkpt lat="55.7065630" lon="38.3038580"><time>2020-10-31T06:13:23.377</time></trkpt><trkpt lat="55.7065200" lon="38.3040020"><time>2020-10-31T06:13:27.377</time></trkpt><trkpt lat="55.7065530" lon="38.3041150"><time>2020-10-31T06:13:33.377</time></trkpt><trkpt lat="55.7066400" lon="38.3043150"><time>2020-10-31T06:13:47.377</time></trkpt><trkpt lat="55.7066620" lon="38.3043850"><time>2020-10-31T06:13:50.377</time></trkpt><trkpt lat="55.7067130" lon="38.3044450"><time>2020-10-31T06:13:53.377</time></trkpt><trkpt lat="55.7067930" lon="38.3046350"><time>2020-10-31T06:14:03.377</time></trkpt><trkpt lat="55.7068330" lon="38.3046980"><time>2020-10-31T06:14:08.377</time></trkpt><trkpt lat="55.7068550" lon="38.3048970"><time>2020-10-31T06:14:24.377</time></trkpt><trkpt lat="55.7068650" lon="38.3049780"><time>2020-10-31T06:14:27.380</time></trkpt><trkpt lat="55.7068650" lon="38.3051550"><time>2020-10-31T06:14:31.377</time></trkpt><trkpt lat="55.7068800" lon="38.3052320"><time>2020-10-31T06:14:34.377</time></trkpt><trkpt lat="55.7068750" lon="38.3053220"><time>2020-10-31T06:14:36.377</time></trkpt><trkpt lat="55.7068600" lon="38.3054080"><time>2020-10-31T06:14:38.377</time></trkpt><trkpt lat="55.7068850" lon="38.3054880"><time>2020-10-31T06:14:42.373</time></trkpt><trkpt lat="55.7069480" lon="38.3056820"><time>2020-10-31T06:14:52.377</time></trkpt><trkpt lat="55.7069870" lon="38.3057420"><time>2020-10-31T06:14:56.373</time></trkpt><trkpt lat="55.7070500" lon="38.3058050"><time>2020-10-31T06:15:07.377</time></trkpt><trkpt lat="55.7070520" lon="38.3059130"><time>2020-10-31T06:15:09.377</time></trkpt><trkpt lat="55.7070470" lon="38.3060120"><time>2020-10-31T06:15:10.377</time></trkpt><trkpt lat="55.7070330" lon="38.3060880"><time>2020-10-31T06:15:12.380</time></trkpt><trkpt lat="55.7070800" lon="38.3061180"><time>2020-10-31T06:15:18.380</time></trkpt><trkpt lat="55.7071530" lon="38.3061370"><time>2020-10-31T06:15:26.373</time></trkpt><trkpt lat="55.7071830" lon="38.3063020"><time>2020-10-31T06:15:34.377</time></trkpt><trkpt lat="55.7071250" lon="38.3063730"><time>2020-10-31T06:15:36.377</time></trkpt><trkpt lat="55.7070800" lon="38.3064250"><time>2020-10-31T06:15:38.377</time></trkpt><trkpt lat="55.7070670" lon="38.3065050"><time>2020-10-31T06:15:41.373</time></trkpt><trkpt lat="55.7070020" lon="38.3067080"><time>2020-10-31T06:15:56.373</time></trkpt><trkpt lat="55.7069650" lon="38.3067580"><time>2020-10-31T06:15:58.373</time></trkpt><trkpt lat="55.7069050" lon="38.3069150"><time>2020-10-31T06:16:08.377</time></trkpt><trkpt lat="55.7068200" lon="38.3070500"><time>2020-10-31T06:16:23.377</time></trkpt><trkpt lat="55.7068130" lon="38.3071870"><time>2020-10-31T06:16:36.380</time></trkpt><trkpt lat="55.7068000" lon="38.3072880"><time>2020-10-31T06:16:39.377</time></trkpt><trkpt lat="55.7067770" lon="38.3073720"><time>2020-10-31T06:16:41.373</time></trkpt><trkpt lat="55.7067650" lon="38.3075770"><time>2020-10-31T06:16:51.377</time></trkpt><trkpt lat="55.7067630" lon="38.3077100"><time>2020-10-31T06:17:01.377</time></trkpt><trkpt lat="55.7067470" lon="38.3077880"><time>2020-10-31T06:17:03.373</time></trkpt><trkpt lat="55.7067670" lon="38.3079670"><time>2020-10-31T06:17:20.373</time></trkpt><trkpt lat="55.7067220" lon="38.3081450"><time>2020-10-31T06:17:34.377</time></trkpt><trkpt lat="55.7066570" lon="38.3083720"><time>2020-10-31T06:17:49.380</time></trkpt><trkpt lat="55.7066070" lon="38.3084480"><time>2020-10-31T06:17:52.380</time></trkpt><trkpt lat="55.7065480" lon="38.3084900"><time>2020-10-31T06:17:54.377</time></trkpt><trkpt lat="55.7064770" lon="38.3085380"><time>2020-10-31T06:17:56.377</time></trkpt><trkpt lat="55.7064300" lon="38.3085650"><time>2020-10-31T06:17:58.377</time></trkpt><trkpt lat="55.7063830" lon="38.3086070"><time>2020-10-31T06:18:01.373</time></trkpt><trkpt lat="55.7063280" lon="38.3086280"><time>2020-10-31T06:18:05.380</time></trkpt><trkpt lat="55.7062820" lon="38.3086420"><time>2020-10-31T06:18:08.380</time></trkpt><trkpt lat="55.7061550" lon="38.3087430"><time>2020-10-31T06:18:30.377</time></trkpt><trkpt lat="55.7060970" lon="38.3088450"><time>2020-10-31T06:18:33.353</time></trkpt><trkpt lat="55.7061000" lon="38.3089380"><time>2020-10-31T06:18:34.377</time></trkpt><trkpt lat="55.7061050" lon="38.3090500"><time>2020-10-31T06:18:35.377</time></trkpt><trkpt lat="55.7060950" lon="38.3091280"><time>2020-10-31T06:18:37.377</time></trkpt><trkpt lat="55.7060700" lon="38.3092170"><time>2020-10-31T06:18:40.373</time></trkpt><trkpt lat="55.7059780" lon="38.3093830"><time>2020-10-31T06:18:59.377</time></trkpt><trkpt lat="55.7059050" lon="38.3095800"><time>2020-10-31T06:19:13.373</time></trkpt><trkpt lat="55.7058780" lon="38.3096470"><time>2020-10-31T06:19:14.377</time></trkpt><trkpt lat="55.7058450" lon="38.3097470"><time>2020-10-31T06:19:16.377</time></trkpt><trkpt lat="55.7057720" lon="38.3098480"><time>2020-10-31T06:19:24.377</time></trkpt><trkpt lat="55.7057300" lon="38.3099030"><time>2020-10-31T06:19:26.373</time></trkpt><trkpt lat="55.7056220" lon="38.3098780"><time>2020-10-31T06:19:38.377</time></trkpt><trkpt lat="55.7055600" lon="38.3099070"><time>2020-10-31T06:19:40.380</time></trkpt><trkpt lat="55.7055130" lon="38.3098930"><time>2020-10-31T06:19:44.373</time></trkpt><trkpt lat="55.7054400" lon="38.3098550"><time>2020-10-31T06:19:50.377</time></trkpt><trkpt lat="55.7053730" lon="38.3098630"><time>2020-10-31T06:19:52.377</time></trkpt><trkpt lat="55.7053130" lon="38.3099170"><time>2020-10-31T06:19:55.377</time></trkpt><trkpt lat="55.7052670" lon="38.3099480"><time>2020-10-31T06:19:57.380</time></trkpt><trkpt lat="55.7052050" lon="38.3099420"><time>2020-10-31T06:20:00.377</time></trkpt><trkpt lat="55.7051480" lon="38.3099570"><time>2020-10-31T06:20:03.357</time></trkpt><trkpt lat="55.7051030" lon="38.3099280"><time>2020-10-31T06:20:05.377</time></trkpt><trkpt lat="55.7050420" lon="38.3099330"><time>2020-10-31T06:20:08.373</time></trkpt><trkpt lat="55.7049980" lon="38.3099620"><time>2020-10-31T06:20:11.380</time></trkpt><trkpt lat="55.7049320" lon="38.3099770"><time>2020-10-31T06:20:17.373</time></trkpt><trkpt lat="55.7048730" lon="38.3099330"><time>2020-10-31T06:20:19.350</time></trkpt><trkpt lat="55.7048130" lon="38.3099330"><time>2020-10-31T06:20:21.380</time></trkpt><trkpt lat="55.7047550" lon="38.3099350"><time>2020-10-31T06:20:23.377</time></trkpt><trkpt lat="55.7046950" lon="38.3099320"><time>2020-10-31T06:20:25.377</time></trkpt><trkpt lat="55.7046470" lon="38.3099470"><time>2020-10-31T06:20:27.380</time></trkpt><trkpt lat="55.7045820" lon="38.3099700"><time>2020-10-31T06:20:30.380</time></trkpt><trkpt lat="55.7045180" lon="38.3100000"><time>2020-10-31T06:20:33.373</time></trkpt><trkpt lat="55.7044670" lon="38.3100230"><time>2020-10-31T06:20:36.380</time></trkpt><trkpt lat="55.7044070" lon="38.3100450"><time>2020-10-31T06:20:39.380</time></trkpt><trkpt lat="55.7043550" lon="38.3100250"><time>2020-10-31T06:20:42.377</time></trkpt><trkpt lat="55.7043070" lon="38.3100430"><time>2020-10-31T06:20:44.383</time></trkpt><trkpt lat="55.7042220" lon="38.3100500"><time>2020-10-31T06:20:46.377</time></trkpt><trkpt lat="55.7041700" lon="38.3100370"><time>2020-10-31T06:20:47.377</time></trkpt><trkpt lat="55.7041250" lon="38.3100150"><time>2020-10-31T06:20:48.377</time></trkpt><trkpt lat="55.7040750" lon="38.3099730"><time>2020-10-31T06:20:50.373</time></trkpt><trkpt lat="55.7040170" lon="38.3099470"><time>2020-10-31T06:20:53.373</time></trkpt><trkpt lat="55.7039520" lon="38.3099350"><time>2020-10-31T06:20:56.377</time></trkpt><trkpt lat="55.7038970" lon="38.3099550"><time>2020-10-31T06:20:58.380</time></trkpt><trkpt lat="55.7038380" lon="38.3099550"><time>2020-10-31T06:21:00.377</time></trkpt><trkpt lat="55.7037870" lon="38.3099520"><time>2020-10-31T06:21:02.380</time></trkpt><trkpt lat="55.7037050" lon="38.3099200"><time>2020-10-31T06:21:07.380</time></trkpt><trkpt lat="55.7036420" lon="38.3099420"><time>2020-10-31T06:21:10.373</time></trkpt><trkpt lat="55.7035430" lon="38.3099470"><time>2020-10-31T06:21:12.377</time></trkpt><trkpt lat="55.7034830" lon="38.3099480"><time>2020-10-31T06:21:14.377</time></trkpt><trkpt lat="55.7034300" lon="38.3099380"><time>2020-10-31T06:21:16.377</time></trkpt><trkpt lat="55.7033830" lon="38.3099320"><time>2020-10-31T06:21:19.380</time></trkpt><trkpt lat="55.7033780" lon="38.3101250"><time>2020-10-31T06:21:37.377</time></trkpt><trkpt lat="55.7033980" lon="38.3102070"><time>2020-10-31T06:21:40.377</time></trkpt><trkpt lat="55.7033970" lon="38.3102870"><time>2020-10-31T06:21:42.380</time></trkpt><trkpt lat="55.7034150" lon="38.3103630"><time>2020-10-31T06:21:47.380</time></trkpt><trkpt lat="55.7034670" lon="38.3105380"><time>2020-10-31T06:21:58.377</time></trkpt><trkpt lat="55.7034770" lon="38.3106220"><time>2020-10-31T06:22:02.380</time></trkpt><trkpt lat="55.7035150" lon="38.3107700"><time>2020-10-31T06:22:09.373</time></trkpt><trkpt lat="55.7035270" lon="38.3108520"><time>2020-10-31T06:22:12.377</time></trkpt><trkpt lat="55.7035500" lon="38.3109250"><time>2020-10-31T06:22:16.377</time></trkpt><trkpt lat="55.7035750" lon="38.3110080"><time>2020-10-31T06:22:20.377</time></trkpt><trkpt lat="55.7035850" lon="38.3111650"><time>2020-10-31T06:22:24.380</time></trkpt><trkpt lat="55.7035770" lon="38.3112570"><time>2020-10-31T06:22:26.380</time></trkpt><trkpt lat="55.7035720" lon="38.3113380"><time>2020-10-31T06:22:29.380</time></trkpt><trkpt lat="55.7035720" lon="38.3114850"><time>2020-10-31T06:22:35.377</time></trkpt><trkpt lat="55.7035550" lon="38.3117320"><time>2020-10-31T06:22:38.377</time></trkpt><trkpt lat="55.7035430" lon="38.3118400"><time>2020-10-31T06:22:40.380</time></trkpt><trkpt lat="55.7035400" lon="38.3120080"><time>2020-10-31T06:22:42.380</time></trkpt><trkpt lat="55.7035280" lon="38.3121080"><time>2020-10-31T06:22:44.380</time></trkpt><trkpt lat="55.7035330" lon="38.3122730"><time>2020-10-31T06:22:46.377</time></trkpt><trkpt lat="55.7035400" lon="38.3123550"><time>2020-10-31T06:22:48.377</time></trkpt><trkpt lat="55.7035430" lon="38.3124450"><time>2020-10-31T06:22:51.377</time></trkpt><trkpt lat="55.7035330" lon="38.3126100"><time>2020-10-31T06:22:57.377</time></trkpt><trkpt lat="55.7035380" lon="38.3126920"><time>2020-10-31T06:23:00.377</time></trkpt><trkpt lat="55.7035470" lon="38.3127970"><time>2020-10-31T06:23:03.377</time></trkpt><trkpt lat="55.7035530" lon="38.3129000"><time>2020-10-31T06:23:05.377</time></trkpt><trkpt lat="55.7035820" lon="38.3129670"><time>2020-10-31T06:23:07.377</time></trkpt><trkpt lat="55.7036020" lon="38.3130470"><time>2020-10-31T06:23:09.377</time></trkpt><trkpt lat="55.7036120" lon="38.3131570"><time>2020-10-31T06:23:12.377</time></trkpt><trkpt lat="55.7036150" lon="38.3132420"><time>2020-10-31T06:23:14.377</time></trkpt><trkpt lat="55.7035800" lon="38.3133370"><time>2020-10-31T06:23:16.377</time></trkpt><trkpt lat="55.7035780" lon="38.3134180"><time>2020-10-31T06:23:18.380</time></trkpt><trkpt lat="55.7035670" lon="38.3135200"><time>2020-10-31T06:23:20.380</time></trkpt><trkpt lat="55.7035530" lon="38.3137250"><time>2020-10-31T06:23:24.380</time></trkpt><trkpt lat="55.7035470" lon="38.3138800"><time>2020-10-31T06:23:26.387</time></trkpt><trkpt lat="55.7035280" lon="38.3139570"><time>2020-10-31T06:23:27.383</time></trkpt><trkpt lat="55.7034430" lon="38.3142700"><time>2020-10-31T06:23:28.373</time></trkpt><trkpt lat="55.7034050" lon="38.3144620"><time>2020-10-31T06:23:29.373</time></trkpt><trkpt lat="55.7033850" lon="38.3146220"><time>2020-10-31T06:23:30.380</time></trkpt><trkpt lat="55.7033570" lon="38.3148080"><time>2020-10-31T06:23:31.377</time></trkpt><trkpt lat="55.7033280" lon="38.3149970"><time>2020-10-31T06:23:32.377</time></trkpt><trkpt lat="55.7033030" lon="38.3151950"><time>2020-10-31T06:23:33.373</time></trkpt><trkpt lat="55.7033070" lon="38.3153320"><time>2020-10-31T06:23:34.377</time></trkpt><trkpt lat="55.7033050" lon="38.3154250"><time>2020-10-31T06:23:35.377</time></trkpt><trkpt lat="55.7032800" lon="38.3155130"><time>2020-10-31T06:23:36.380</time></trkpt><trkpt lat="55.7032570" lon="38.3155920"><time>2020-10-31T06:23:37.437</time></trkpt><trkpt lat="55.7032420" lon="38.3157000"><time>2020-10-31T06:23:39.340</time></trkpt><trkpt lat="55.7032220" lon="38.3157970"><time>2020-10-31T06:23:41.380</time></trkpt><trkpt lat="55.7031970" lon="38.3159330"><time>2020-10-31T06:23:44.373</time></trkpt><trkpt lat="55.7032130" lon="38.3160220"><time>2020-10-31T06:23:46.377</time></trkpt><trkpt lat="55.7032500" lon="38.3160800"><time>2020-10-31T06:23:50.377</time></trkpt><trkpt lat="55.7032750" lon="38.3161980"><time>2020-10-31T06:23:54.383</time></trkpt><trkpt lat="55.7032650" lon="38.3162770"><time>2020-10-31T06:23:55.377</time></trkpt><trkpt lat="55.7032550" lon="38.3163550"><time>2020-10-31T06:23:56.377</time></trkpt><trkpt lat="55.7032620" lon="38.3164820"><time>2020-10-31T06:23:58.377</time></trkpt><trkpt lat="55.7032400" lon="38.3165780"><time>2020-10-31T06:23:59.380</time></trkpt><trkpt lat="55.7032470" lon="38.3166620"><time>2020-10-31T06:24:00.377</time></trkpt><trkpt lat="55.7032630" lon="38.3167400"><time>2020-10-31T06:24:02.377</time></trkpt><trkpt lat="55.7032750" lon="38.3168600"><time>2020-10-31T06:24:06.380</time></trkpt><trkpt lat="55.7032820" lon="38.3169650"><time>2020-10-31T06:24:09.380</time></trkpt><trkpt lat="55.7033200" lon="38.3170300"><time>2020-10-31T06:24:13.380</time></trkpt><trkpt lat="55.7033780" lon="38.3169800"><time>2020-10-31T06:24:17.377</time></trkpt><trkpt lat="55.7034200" lon="38.3169470"><time>2020-10-31T06:24:19.377</time></trkpt><trkpt lat="55.7035470" lon="38.3169800"><time>2020-10-31T06:24:36.377</time></trkpt><trkpt lat="55.7035920" lon="38.3169950"><time>2020-10-31T06:24:39.380</time></trkpt><trkpt lat="55.7036670" lon="38.3171170"><time>2020-10-31T06:24:52.380</time></trkpt><trkpt lat="55.7037430" lon="38.3170930"><time>2020-10-31T06:25:06.383</time></trkpt><trkpt lat="55.7038620" lon="38.3170500"><time>2020-10-31T06:25:19.373</time></trkpt><trkpt lat="55.7039850" lon="38.3170970"><time>2020-10-31T06:25:40.377</time></trkpt><trkpt lat="55.7041030" lon="38.3171570"><time>2020-10-31T06:25:47.377</time></trkpt><trkpt lat="55.7041870" lon="38.3173230"><time>2020-10-31T06:26:07.383</time></trkpt><trkpt lat="55.7042650" lon="38.3174070"><time>2020-10-31T06:26:16.377</time></trkpt><trkpt lat="55.7043800" lon="38.3174050"><time>2020-10-31T06:26:26.370</time></trkpt><trkpt lat="55.7044480" lon="38.3173750"><time>2020-10-31T06:26:29.337</time></trkpt><trkpt lat="55.7044930" lon="38.3174080"><time>2020-10-31T06:26:30.350</time></trkpt><trkpt lat="55.7044470" lon="38.3174430"><time>2020-10-31T06:26:31.343</time></trkpt><trkpt lat="55.7043730" lon="38.3175130"><time>2020-10-31T06:26:33.377</time></trkpt><trkpt lat="55.7043730" lon="38.3175130"><time>2020-10-31T06:26:33.437</time></trkpt><trkpt lat="55.7042470" lon="38.3175130"><time>2020-10-31T06:26:34.333</time></trkpt><trkpt lat="55.7041880" lon="38.3174930"><time>2020-10-31T06:26:35.337</time></trkpt><trkpt lat="55.7042250" lon="38.3175680"><time>2020-10-31T06:26:40.370</time></trkpt><trkpt lat="55.7043050" lon="38.3175950"><time>2020-10-31T06:26:42.377</time></trkpt><trkpt lat="55.7043570" lon="38.3176470"><time>2020-10-31T06:26:44.377</time></trkpt><trkpt lat="55.7043180" lon="38.3176030"><time>2020-10-31T06:26:46.373</time></trkpt><trkpt lat="55.7042480" lon="38.3176080"><time>2020-10-31T06:26:47.380</time></trkpt><trkpt lat="55.7042320" lon="38.3173850"><time>2020-10-31T06:26:55.383</time></trkpt><trkpt lat="55.7042320" lon="38.3172530"><time>2020-10-31T06:26:57.383</time></trkpt><trkpt lat="55.7041750" lon="38.3171630"><time>2020-10-31T06:27:11.380</time></trkpt><trkpt lat="55.7041830" lon="38.3169820"><time>2020-10-31T06:27:26.383</time></trkpt><trkpt lat="55.7040750" lon="38.3169450"><time>2020-10-31T06:27:38.380</time></trkpt><trkpt lat="55.7040000" lon="38.3169530"><time>2020-10-31T06:27:41.380</time></trkpt><trkpt lat="55.7039070" lon="38.3170050"><time>2020-10-31T06:27:54.633</time></trkpt><trkpt lat="55.7037770" lon="38.3169320"><time>2020-10-31T06:28:07.380</time></trkpt><trkpt lat="55.7036370" lon="38.3169150"><time>2020-10-31T06:28:18.383</time></trkpt><trkpt lat="55.7035930" lon="38.3169680"><time>2020-10-31T06:28:19.380</time></trkpt><trkpt lat="55.7035330" lon="38.3170050"><time>2020-10-31T06:28:21.383</time></trkpt><trkpt lat="55.7034330" lon="38.3170080"><time>2020-10-31T06:28:26.383</time></trkpt><trkpt lat="55.7033880" lon="38.3170250"><time>2020-10-31T06:28:43.380</time></trkpt><trkpt lat="55.7033730" lon="38.3171330"><time>2020-10-31T06:28:46.380</time></trkpt><trkpt lat="55.7033920" lon="38.3172320"><time>2020-10-31T06:28:50.380</time></trkpt><trkpt lat="55.7033820" lon="38.3173370"><time>2020-10-31T06:28:53.380</time></trkpt><trkpt lat="55.7033730" lon="38.3174750"><time>2020-10-31T06:28:58.380</time></trkpt><trkpt lat="55.7033950" lon="38.3175900"><time>2020-10-31T06:29:01.380</time></trkpt><trkpt lat="55.7033980" lon="38.3176900"><time>2020-10-31T06:29:04.380</time></trkpt><trkpt lat="55.7034120" lon="38.3177700"><time>2020-10-31T06:29:06.380</time></trkpt><trkpt lat="55.7034280" lon="38.3178730"><time>2020-10-31T06:29:08.377</time></trkpt><trkpt lat="55.7034330" lon="38.3179900"><time>2020-10-31T06:29:10.380</time></trkpt><trkpt lat="55.7034200" lon="38.3180880"><time>2020-10-31T06:29:12.377</time></trkpt><trkpt lat="55.7034130" lon="38.3181700"><time>2020-10-31T06:29:14.377</time></trkpt><trkpt lat="55.7034180" lon="38.3182550"><time>2020-10-31T06:29:17.383</time></trkpt><trkpt lat="55.7034280" lon="38.3183420"><time>2020-10-31T06:29:19.383</time></trkpt><trkpt lat="55.7034350" lon="38.3184600"><time>2020-10-31T06:29:22.377</time></trkpt><trkpt lat="55.7034170" lon="38.3185700"><time>2020-10-31T06:29:24.377</time></trkpt><trkpt lat="55.7034170" lon="38.3187380"><time>2020-10-31T06:29:28.380</time></trkpt><trkpt lat="55.7034350" lon="38.3188450"><time>2020-10-31T06:29:30.373</time></trkpt><trkpt lat="55.7034650" lon="38.3189050"><time>2020-10-31T06:29:32.380</time></trkpt><trkpt lat="55.7034920" lon="38.3189720"><time>2020-10-31T06:29:35.377</time></trkpt><trkpt lat="55.7034970" lon="38.3191200"><time>2020-10-31T06:29:41.380</time></trkpt><trkpt lat="55.7034920" lon="38.3192030"><time>2020-10-31T06:29:44.380</time></trkpt><trkpt lat="55.7034980" lon="38.3194030"><time>2020-10-31T06:29:48.377</time></trkpt><trkpt lat="55.7035070" lon="38.3194970"><time>2020-10-31T06:29:50.377</time></trkpt><trkpt lat="55.7035070" lon="38.3196080"><time>2020-10-31T06:29:52.380</time></trkpt><trkpt lat="55.7034750" lon="38.3197500"><time>2020-10-31T06:29:53.380</time></trkpt><trkpt lat="55.7034620" lon="38.3198370"><time>2020-10-31T06:29:54.377</time></trkpt><trkpt lat="55.7034470" lon="38.3199750"><time>2020-10-31T06:29:56.370</time></trkpt><trkpt lat="55.7034400" lon="38.3200720"><time>2020-10-31T06:29:57.380</time></trkpt><trkpt lat="55.7034350" lon="38.3201650"><time>2020-10-31T06:29:58.357</time></trkpt><trkpt lat="55.7034180" lon="38.3203070"><time>2020-10-31T06:29:59.383</time></trkpt><trkpt lat="55.7033720" lon="38.3205480"><time>2020-10-31T06:30:00.380</time></trkpt><trkpt lat="55.7032780" lon="38.3208350"><time>2020-10-31T06:30:01.380</time></trkpt><trkpt lat="55.7032420" lon="38.3209920"><time>2020-10-31T06:30:02.373</time></trkpt><trkpt lat="55.7032330" lon="38.3211220"><time>2020-10-31T06:30:03.377</time></trkpt><trkpt lat="55.7032230" lon="38.3212480"><time>2020-10-31T06:30:05.380</time></trkpt><trkpt lat="55.7032230" lon="38.3213630"><time>2020-10-31T06:30:08.383</time></trkpt><trkpt lat="55.7032720" lon="38.3214270"><time>2020-10-31T06:30:13.380</time></trkpt><trkpt lat="55.7033120" lon="38.3214900"><time>2020-10-31T06:30:17.380</time></trkpt><trkpt lat="55.7031780" lon="38.3215370"><time>2020-10-31T06:30:27.387</time></trkpt><trkpt lat="55.7031320" lon="38.3215250"><time>2020-10-31T06:30:30.383</time></trkpt><trkpt lat="55.7030870" lon="38.3215280"><time>2020-10-31T06:30:33.383</time></trkpt><trkpt lat="55.7030320" lon="38.3215670"><time>2020-10-31T06:30:36.380</time></trkpt><trkpt lat="55.7029780" lon="38.3215250"><time>2020-10-31T06:30:40.380</time></trkpt><trkpt lat="55.7029030" lon="38.3214180"><time>2020-10-31T06:30:49.383</time></trkpt><trkpt lat="55.7028620" lon="38.3214500"><time>2020-10-31T06:30:52.383</time></trkpt><trkpt lat="55.7027930" lon="38.3215000"><time>2020-10-31T06:30:55.380</time></trkpt><trkpt lat="55.7027500" lon="38.3214570"><time>2020-10-31T06:30:58.377</time></trkpt><trkpt lat="55.7026650" lon="38.3212930"><time>2020-10-31T06:31:08.380</time></trkpt><trkpt lat="55.7026280" lon="38.3211970"><time>2020-10-31T06:31:10.383</time></trkpt><trkpt lat="55.7025920" lon="38.3211170"><time>2020-10-31T06:31:13.383</time></trkpt><trkpt lat="55.7025270" lon="38.3210450"><time>2020-10-31T06:31:16.380</time></trkpt><trkpt lat="55.7024930" lon="38.3207530"><time>2020-10-31T06:31:18.380</time></trkpt><trkpt lat="55.7023800" lon="38.3207130"><time>2020-10-31T06:31:37.380</time></trkpt><trkpt lat="55.7022800" lon="38.3207720"><time>2020-10-31T06:31:45.377</time></trkpt><trkpt lat="55.7022370" lon="38.3208150"><time>2020-10-31T06:31:47.380</time></trkpt><trkpt lat="55.7021800" lon="38.3208450"><time>2020-10-31T06:31:49.383</time></trkpt><trkpt lat="55.7020380" lon="38.3208180"><time>2020-10-31T06:31:53.380</time></trkpt><trkpt lat="55.7019180" lon="38.3207950"><time>2020-10-31T06:32:02.383</time></trkpt><trkpt lat="55.7017980" lon="38.3207900"><time>2020-10-31T06:32:09.380</time></trkpt><trkpt lat="55.7017750" lon="38.3208700"><time>2020-10-31T06:32:11.380</time></trkpt><trkpt lat="55.7016630" lon="38.3208930"><time>2020-10-31T06:32:19.380</time></trkpt><trkpt lat="55.7015580" lon="38.3211000"><time>2020-10-31T06:32:28.380</time></trkpt><trkpt lat="55.7015000" lon="38.3211230"><time>2020-10-31T06:32:29.380</time></trkpt><trkpt lat="55.7014530" lon="38.3211300"><time>2020-10-31T06:32:30.383</time></trkpt><trkpt lat="55.7014030" lon="38.3212430"><time>2020-10-31T06:32:32.380</time></trkpt><trkpt lat="55.7013770" lon="38.3213120"><time>2020-10-31T06:32:34.340</time></trkpt><trkpt lat="55.7013230" lon="38.3214820"><time>2020-10-31T06:32:35.380</time></trkpt><trkpt lat="55.7013030" lon="38.3215600"><time>2020-10-31T06:32:36.377</time></trkpt><trkpt lat="55.7012670" lon="38.3216680"><time>2020-10-31T06:32:37.380</time></trkpt><trkpt lat="55.7012230" lon="38.3218480"><time>2020-10-31T06:32:38.377</time></trkpt><trkpt lat="55.7011920" lon="38.3219920"><time>2020-10-31T06:32:39.380</time></trkpt><trkpt lat="55.7011850" lon="38.3220970"><time>2020-10-31T06:32:40.377</time></trkpt><trkpt lat="55.7011520" lon="38.3223080"><time>2020-10-31T06:32:41.380</time></trkpt><trkpt lat="55.7011150" lon="38.3225150"><time>2020-10-31T06:32:42.377</time></trkpt><trkpt lat="55.7010300" lon="38.3227180"><time>2020-10-31T06:32:43.347</time></trkpt><trkpt lat="55.7010050" lon="38.3228170"><time>2020-10-31T06:32:44.377</time></trkpt><trkpt lat="55.7009750" lon="38.3229220"><time>2020-10-31T06:32:45.357</time></trkpt><trkpt lat="55.7009770" lon="38.3230380"><time>2020-10-31T06:32:46.347</time></trkpt><trkpt lat="55.7009230" lon="38.3230570"><time>2020-10-31T06:32:47.363</time></trkpt><trkpt lat="55.7008980" lon="38.3229850"><time>2020-10-31T06:32:51.377</time></trkpt><trkpt lat="55.7010180" lon="38.3231230"><time>2020-10-31T06:33:05.380</time></trkpt><trkpt lat="55.7010130" lon="38.3232170"><time>2020-10-31T06:33:06.383</time></trkpt><trkpt lat="55.7009220" lon="38.3233930"><time>2020-10-31T06:33:14.383</time></trkpt><trkpt lat="55.7008480" lon="38.3235620"><time>2020-10-31T06:33:23.383</time></trkpt><trkpt lat="55.7007980" lon="38.3236220"><time>2020-10-31T06:33:25.383</time></trkpt><trkpt lat="55.7007630" lon="38.3236800"><time>2020-10-31T06:33:29.383</time></trkpt><trkpt lat="55.7007120" lon="38.3237070"><time>2020-10-31T06:33:31.383</time></trkpt><trkpt lat="55.7006430" lon="38.3238820"><time>2020-10-31T06:33:36.383</time></trkpt><trkpt lat="55.7006020" lon="38.3239300"><time>2020-10-31T06:33:39.347</time></trkpt><trkpt lat="55.7005420" lon="38.3238780"><time>2020-10-31T06:33:42.387</time></trkpt><trkpt lat="55.7004130" lon="38.3238870"><time>2020-10-31T06:33:53.377</time></trkpt><trkpt lat="55.7003580" lon="38.3239070"><time>2020-10-31T06:33:55.380</time></trkpt><trkpt lat="55.7003130" lon="38.3239300"><time>2020-10-31T06:33:57.383</time></trkpt><trkpt lat="55.7002580" lon="38.3239380"><time>2020-10-31T06:34:00.383</time></trkpt><trkpt lat="55.7002080" lon="38.3239270"><time>2020-10-31T06:34:03.387</time></trkpt><trkpt lat="55.7001600" lon="38.3239170"><time>2020-10-31T06:34:06.387</time></trkpt><trkpt lat="55.7000550" lon="38.3238870"><time>2020-10-31T06:34:16.387</time></trkpt><trkpt lat="55.6999930" lon="38.3238670"><time>2020-10-31T06:34:18.383</time></trkpt><trkpt lat="55.6999180" lon="38.3238130"><time>2020-10-31T06:34:20.383</time></trkpt><trkpt lat="55.6998600" lon="38.3237280"><time>2020-10-31T06:34:22.383</time></trkpt><trkpt lat="55.6997950" lon="38.3236770"><time>2020-10-31T06:34:24.383</time></trkpt><trkpt lat="55.6997570" lon="38.3236120"><time>2020-10-31T06:34:26.387</time></trkpt><trkpt lat="55.6996380" lon="38.3235250"><time>2020-10-31T06:34:36.380</time></trkpt><trkpt lat="55.6995070" lon="38.3235180"><time>2020-10-31T06:34:47.383</time></trkpt><trkpt lat="55.6994300" lon="38.3235580"><time>2020-10-31T06:34:52.363</time></trkpt><trkpt lat="55.6993830" lon="38.3235900"><time>2020-10-31T06:34:54.380</time></trkpt><trkpt lat="55.6992980" lon="38.3235900"><time>2020-10-31T06:34:56.387</time></trkpt><trkpt lat="55.6992130" lon="38.3235770"><time>2020-10-31T06:34:58.387</time></trkpt><trkpt lat="55.6991570" lon="38.3235530"><time>2020-10-31T06:35:00.383</time></trkpt><trkpt lat="55.6991030" lon="38.3235050"><time>2020-10-31T06:35:01.387</time></trkpt><trkpt lat="55.6990550" lon="38.3234730"><time>2020-10-31T06:35:02.383</time></trkpt><trkpt lat="55.6989950" lon="38.3234250"><time>2020-10-31T06:35:04.380</time></trkpt><trkpt lat="55.6988700" lon="38.3234220"><time>2020-10-31T06:35:20.383</time></trkpt><trkpt lat="55.6987380" lon="38.3234550"><time>2020-10-31T06:35:33.387</time></trkpt><trkpt lat="55.6986230" lon="38.3235450"><time>2020-10-31T06:35:39.380</time></trkpt><trkpt lat="55.6985100" lon="38.3234730"><time>2020-10-31T06:35:51.380</time></trkpt><trkpt lat="55.6984750" lon="38.3233750"><time>2020-10-31T06:35:53.380</time></trkpt><trkpt lat="55.6984320" lon="38.3233450"><time>2020-10-31T06:35:56.380</time></trkpt><trkpt lat="55.6984180" lon="38.3231730"><time>2020-10-31T06:36:13.380</time></trkpt><trkpt lat="55.6983900" lon="38.3231070"><time>2020-10-31T06:36:16.383</time></trkpt><trkpt lat="55.6983300" lon="38.3229770"><time>2020-10-31T06:36:21.383</time></trkpt><trkpt lat="55.6982920" lon="38.3228980"><time>2020-10-31T06:36:24.380</time></trkpt><trkpt lat="55.6981930" lon="38.3228080"><time>2020-10-31T06:36:28.377</time></trkpt><trkpt lat="55.6981450" lon="38.3227430"><time>2020-10-31T06:36:31.387</time></trkpt><trkpt lat="55.6980550" lon="38.3226970"><time>2020-10-31T06:36:38.377</time></trkpt><trkpt lat="55.6979250" lon="38.3226620"><time>2020-10-31T06:36:47.377</time></trkpt><trkpt lat="55.6978670" lon="38.3226380"><time>2020-10-31T06:36:50.377</time></trkpt><trkpt lat="55.6977870" lon="38.3225330"><time>2020-10-31T06:36:54.380</time></trkpt><trkpt lat="55.6977330" lon="38.3224080"><time>2020-10-31T06:36:57.380</time></trkpt><trkpt lat="55.6977080" lon="38.3222420"><time>2020-10-31T06:37:11.383</time></trkpt><trkpt lat="55.6976800" lon="38.3221730"><time>2020-10-31T06:37:14.383</time></trkpt><trkpt lat="55.6976500" lon="38.3220100"><time>2020-10-31T06:37:19.383</time></trkpt><trkpt lat="55.6975120" lon="38.3219600"><time>2020-10-31T06:37:31.387</time></trkpt><trkpt lat="55.6974400" lon="38.3217530"><time>2020-10-31T06:37:51.350</time></trkpt><trkpt lat="55.6974000" lon="38.3216570"><time>2020-10-31T06:37:52.733</time></trkpt><trkpt lat="55.6973300" lon="38.3215450"><time>2020-10-31T06:37:53.353</time></trkpt><trkpt lat="55.6972380" lon="38.3215030"><time>2020-10-31T06:37:55.337</time></trkpt><trkpt lat="55.6972930" lon="38.3215000"><time>2020-10-31T06:37:56.337</time></trkpt><trkpt lat="55.6973780" lon="38.3215930"><time>2020-10-31T06:37:58.337</time></trkpt><trkpt lat="55.6973830" lon="38.3215980"><time>2020-10-31T06:38:07.807</time></trkpt><trkpt lat="55.6972850" lon="38.3214980"><time>2020-10-31T06:38:09.340</time></trkpt><trkpt lat="55.6972470" lon="38.3215800"><time>2020-10-31T06:38:10.353</time></trkpt><trkpt lat="55.6971850" lon="38.3218850"><time>2020-10-31T06:38:14.343</time></trkpt><trkpt lat="55.6970750" lon="38.3219350"><time>2020-10-31T06:38:15.377</time></trkpt><trkpt lat="55.6971280" lon="38.3219380"><time>2020-10-31T06:38:17.380</time></trkpt><trkpt lat="55.6972220" lon="38.3218330"><time>2020-10-31T06:38:18.383</time></trkpt><trkpt lat="55.6972980" lon="38.3219580"><time>2020-10-31T06:38:27.383</time></trkpt><trkpt lat="55.6973200" lon="38.3218830"><time>2020-10-31T06:38:46.387</time></trkpt><trkpt lat="55.6973680" lon="38.3218520"><time>2020-10-31T06:38:51.383</time></trkpt><trkpt lat="55.6974720" lon="38.3218870"><time>2020-10-31T06:39:03.383</time></trkpt><trkpt lat="55.6974850" lon="38.3220630"><time>2020-10-31T06:39:16.387</time></trkpt><trkpt lat="55.6975600" lon="38.3222420"><time>2020-10-31T06:39:32.387</time></trkpt><trkpt lat="55.6976930" lon="38.3223000"><time>2020-10-31T06:39:39.353</time></trkpt><trkpt lat="55.6976220" lon="38.3224770"><time>2020-10-31T06:39:50.840</time></trkpt><trkpt lat="55.6975250" lon="38.3226350"><time>2020-10-31T06:40:01.387</time></trkpt><trkpt lat="55.6974080" lon="38.3227270"><time>2020-10-31T06:40:10.383</time></trkpt><trkpt lat="55.6973430" lon="38.3228250"><time>2020-10-31T06:40:12.383</time></trkpt><trkpt lat="55.6972980" lon="38.3228620"><time>2020-10-31T06:40:14.377</time></trkpt><trkpt lat="55.6971580" lon="38.3228770"><time>2020-10-31T06:40:16.377</time></trkpt><trkpt lat="55.6970670" lon="38.3228420"><time>2020-10-31T06:40:17.383</time></trkpt><trkpt lat="55.6969450" lon="38.3227850"><time>2020-10-31T06:40:18.387</time></trkpt><trkpt lat="55.6968620" lon="38.3227650"><time>2020-10-31T06:40:19.383</time></trkpt><trkpt lat="55.6968130" lon="38.3227530"><time>2020-10-31T06:40:20.387</time></trkpt><trkpt lat="55.6967400" lon="38.3227930"><time>2020-10-31T06:40:21.383</time></trkpt><trkpt lat="55.6966880" lon="38.3228070"><time>2020-10-31T06:40:22.383</time></trkpt><trkpt lat="55.6966300" lon="38.3228170"><time>2020-10-31T06:40:23.387</time></trkpt><trkpt lat="55.6965850" lon="38.3228280"><time>2020-10-31T06:40:24.387</time></trkpt><trkpt lat="55.6965380" lon="38.3227920"><time>2020-10-31T06:40:32.383</time></trkpt><trkpt lat="55.6964280" lon="38.3227930"><time>2020-10-31T06:40:46.387</time></trkpt><trkpt lat="55.6962970" lon="38.3227780"><time>2020-10-31T06:40:56.383</time></trkpt><trkpt lat="55.6962070" lon="38.3226870"><time>2020-10-31T06:40:59.387</time></trkpt><trkpt lat="55.6961080" lon="38.3226830"><time>2020-10-31T06:41:05.383</time></trkpt><trkpt lat="55.6960520" lon="38.3226720"><time>2020-10-31T06:41:09.350</time></trkpt><trkpt lat="55.6959470" lon="38.3226030"><time>2020-10-31T06:41:12.383</time></trkpt><trkpt lat="55.6958630" lon="38.3225800"><time>2020-10-31T06:41:14.383</time></trkpt><trkpt lat="55.6957850" lon="38.3225630"><time>2020-10-31T06:41:25.383</time></trkpt><trkpt lat="55.6957270" lon="38.3224830"><time>2020-10-31T06:41:31.380</time></trkpt><trkpt lat="55.6956280" lon="38.3224320"><time>2020-10-31T06:41:43.383</time></trkpt><trkpt lat="55.6955780" lon="38.3224130"><time>2020-10-31T06:41:44.383</time></trkpt><trkpt lat="55.6955200" lon="38.3224050"><time>2020-10-31T06:41:47.383</time></trkpt><trkpt lat="55.6953930" lon="38.3223670"><time>2020-10-31T06:42:05.383</time></trkpt><trkpt lat="55.6953250" lon="38.3223530"><time>2020-10-31T06:42:10.387</time></trkpt><trkpt lat="55.6952630" lon="38.3223820"><time>2020-10-31T06:42:12.383</time></trkpt><trkpt lat="55.6952030" lon="38.3224600"><time>2020-10-31T06:42:14.383</time></trkpt><trkpt lat="55.6951730" lon="38.3225200"><time>2020-10-31T06:42:16.383</time></trkpt><trkpt lat="55.6951380" lon="38.3226080"><time>2020-10-31T06:42:19.387</time></trkpt><trkpt lat="55.6950450" lon="38.3226380"><time>2020-10-31T06:42:32.417</time></trkpt><trkpt lat="55.6950020" lon="38.3226670"><time>2020-10-31T06:42:32.447</time></trkpt><trkpt lat="55.6949470" lon="38.3226530"><time>2020-10-31T06:42:33.360</time></trkpt><trkpt lat="55.6949000" lon="38.3226370"><time>2020-10-31T06:42:34.337</time></trkpt><trkpt lat="55.6948280" lon="38.3226700"><time>2020-10-31T06:42:36.343</time></trkpt><trkpt lat="55.6948130" lon="38.3225400"><time>2020-10-31T06:42:38.333</time></trkpt><trkpt lat="55.6947770" lon="38.3225870"><time>2020-10-31T06:42:41.347</time></trkpt><trkpt lat="55.6947630" lon="38.3225050"><time>2020-10-31T06:42:43.440</time></trkpt><trkpt lat="55.6947200" lon="38.3224780"><time>2020-10-31T06:42:44.360</time></trkpt><trkpt lat="55.6946700" lon="38.3224950"><time>2020-10-31T06:42:45.340</time></trkpt><trkpt lat="55.6945970" lon="38.3223780"><time>2020-10-31T06:42:47.347</time></trkpt><trkpt lat="55.6945320" lon="38.3222950"><time>2020-10-31T06:42:48.343</time></trkpt><trkpt lat="55.6945070" lon="38.3222200"><time>2020-10-31T06:42:49.343</time></trkpt><trkpt lat="55.6945530" lon="38.3221230"><time>2020-10-31T06:42:50.357</time></trkpt><trkpt lat="55.6945400" lon="38.3222500"><time>2020-10-31T06:42:53.337</time></trkpt><trkpt lat="55.6946150" lon="38.3224600"><time>2020-10-31T06:42:54.350</time></trkpt><trkpt lat="55.6946570" lon="38.3225170"><time>2020-10-31T06:42:55.347</time></trkpt><trkpt lat="55.6945730" lon="38.3225470"><time>2020-10-31T06:42:57.337</time></trkpt><trkpt lat="55.6943220" lon="38.3228980"><time>2020-10-31T06:43:02.347</time></trkpt><trkpt lat="55.6942900" lon="38.3229580"><time>2020-10-31T06:43:03.477</time></trkpt><trkpt lat="55.6942950" lon="38.3227780"><time>2020-10-31T06:43:05.377</time></trkpt><trkpt lat="55.6943570" lon="38.3226180"><time>2020-10-31T06:43:06.373</time></trkpt><trkpt lat="55.6942520" lon="38.3224650"><time>2020-10-31T06:43:23.383</time></trkpt><trkpt lat="55.6942900" lon="38.3222880"><time>2020-10-31T06:43:50.387</time></trkpt><trkpt lat="55.6943030" lon="38.3220630"><time>2020-10-31T06:43:58.387</time></trkpt><trkpt lat="55.6943020" lon="38.3219450"><time>2020-10-31T06:44:01.370</time></trkpt><trkpt lat="55.6943680" lon="38.3218200"><time>2020-10-31T06:44:06.387</time></trkpt><trkpt lat="55.6944100" lon="38.3216350"><time>2020-10-31T06:44:12.387</time></trkpt><trkpt lat="55.6944380" lon="38.3215370"><time>2020-10-31T06:44:16.387</time></trkpt><trkpt lat="55.6943920" lon="38.3214970"><time>2020-10-31T06:44:18.387</time></trkpt><trkpt lat="55.6944400" lon="38.3212420"><time>2020-10-31T06:44:24.387</time></trkpt><trkpt lat="55.6944180" lon="38.3211620"><time>2020-10-31T06:44:27.380</time></trkpt><trkpt lat="55.6943850" lon="38.3209750"><time>2020-10-31T06:44:29.390</time></trkpt><trkpt lat="55.6943670" lon="38.3208550"><time>2020-10-31T06:44:30.390</time></trkpt><trkpt lat="55.6943750" lon="38.3206430"><time>2020-10-31T06:44:37.380</time></trkpt><trkpt lat="55.6943620" lon="38.3205420"><time>2020-10-31T06:44:42.387</time></trkpt><trkpt lat="55.6943780" lon="38.3204480"><time>2020-10-31T06:44:45.390</time></trkpt><trkpt lat="55.6943900" lon="38.3203330"><time>2020-10-31T06:44:47.387</time></trkpt><trkpt lat="55.6943980" lon="38.3202230"><time>2020-10-31T06:44:50.387</time></trkpt><trkpt lat="55.6944050" lon="38.3201180"><time>2020-10-31T06:44:52.387</time></trkpt><trkpt lat="55.6944050" lon="38.3199930"><time>2020-10-31T06:44:54.387</time></trkpt><trkpt lat="55.6944020" lon="38.3198750"><time>2020-10-31T06:44:56.387</time></trkpt><trkpt lat="55.6943930" lon="38.3197620"><time>2020-10-31T06:44:58.390</time></trkpt><trkpt lat="55.6943900" lon="38.3196730"><time>2020-10-31T06:45:01.387</time></trkpt><trkpt lat="55.6943900" lon="38.3195570"><time>2020-10-31T06:45:03.383</time></trkpt><trkpt lat="55.6943820" lon="38.3194630"><time>2020-10-31T06:45:05.383</time></trkpt><trkpt lat="55.6943730" lon="38.3191700"><time>2020-10-31T06:45:08.387</time></trkpt><trkpt lat="55.6943670" lon="38.3190680"><time>2020-10-31T06:45:09.387</time></trkpt><trkpt lat="55.6943500" lon="38.3189020"><time>2020-10-31T06:45:10.387</time></trkpt><trkpt lat="55.6943370" lon="38.3188080"><time>2020-10-31T06:45:11.387</time></trkpt><trkpt lat="55.6943750" lon="38.3186350"><time>2020-10-31T06:45:17.380</time></trkpt><trkpt lat="55.6943850" lon="38.3185530"><time>2020-10-31T06:45:19.387</time></trkpt><trkpt lat="55.6944000" lon="38.3184530"><time>2020-10-31T06:45:22.380</time></trkpt><trkpt lat="55.6943930" lon="38.3183480"><time>2020-10-31T06:45:25.393</time></trkpt><trkpt lat="55.6943800" lon="38.3182670"><time>2020-10-31T06:45:27.387</time></trkpt><trkpt lat="55.6943800" lon="38.3181680"><time>2020-10-31T06:45:30.380</time></trkpt><trkpt lat="55.6943880" lon="38.3180730"><time>2020-10-31T06:45:33.383</time></trkpt><trkpt lat="55.6943980" lon="38.3179900"><time>2020-10-31T06:45:36.387</time></trkpt><trkpt lat="55.6943950" lon="38.3179070"><time>2020-10-31T06:45:39.390</time></trkpt><trkpt lat="55.6943870" lon="38.3178280"><time>2020-10-31T06:45:41.387</time></trkpt><trkpt lat="55.6943930" lon="38.3177280"><time>2020-10-31T06:45:44.387</time></trkpt><trkpt lat="55.6944130" lon="38.3176300"><time>2020-10-31T06:45:47.387</time></trkpt><trkpt lat="55.6944300" lon="38.3175300"><time>2020-10-31T06:45:49.387</time></trkpt><trkpt lat="55.6944320" lon="38.3174470"><time>2020-10-31T06:45:51.387</time></trkpt><trkpt lat="55.6944280" lon="38.3173620"><time>2020-10-31T06:45:53.390</time></trkpt><trkpt lat="55.6944330" lon="38.3172500"><time>2020-10-31T06:45:55.387</time></trkpt><trkpt lat="55.6944230" lon="38.3171330"><time>2020-10-31T06:45:57.387</time></trkpt><trkpt lat="55.6944230" lon="38.3169970"><time>2020-10-31T06:45:59.480</time></trkpt><trkpt lat="55.6944120" lon="38.3168470"><time>2020-10-31T06:46:01.393</time></trkpt><trkpt lat="55.6944020" lon="38.3167570"><time>2020-10-31T06:46:02.380</time></trkpt><trkpt lat="55.6943930" lon="38.3166320"><time>2020-10-31T06:46:04.367</time></trkpt><trkpt lat="55.6943720" lon="38.3165150"><time>2020-10-31T06:46:06.390</time></trkpt><trkpt lat="55.6943800" lon="38.3164000"><time>2020-10-31T06:46:08.383</time></trkpt><trkpt lat="55.6943630" lon="38.3163030"><time>2020-10-31T06:46:10.387</time></trkpt><trkpt lat="55.6943570" lon="38.3162180"><time>2020-10-31T06:46:12.387</time></trkpt><trkpt lat="55.6943420" lon="38.3161330"><time>2020-10-31T06:46:14.387</time></trkpt><trkpt lat="55.6943350" lon="38.3160330"><time>2020-10-31T06:46:16.387</time></trkpt><trkpt lat="55.6943370" lon="38.3159370"><time>2020-10-31T06:46:18.387</time></trkpt><trkpt lat="55.6943350" lon="38.3158350"><time>2020-10-31T06:46:20.383</time></trkpt><trkpt lat="55.6943280" lon="38.3157350"><time>2020-10-31T06:46:22.387</time></trkpt><trkpt lat="55.6943320" lon="38.3156480"><time>2020-10-31T06:46:24.387</time></trkpt><trkpt lat="55.6943470" lon="38.3155620"><time>2020-10-31T06:46:26.390</time></trkpt><trkpt lat="55.6943580" lon="38.3154800"><time>2020-10-31T06:46:28.383</time></trkpt><trkpt lat="55.6943530" lon="38.3153600"><time>2020-10-31T06:46:30.383</time></trkpt><trkpt lat="55.6943550" lon="38.3152720"><time>2020-10-31T06:46:32.387</time></trkpt><trkpt lat="55.6943550" lon="38.3151830"><time>2020-10-31T06:46:34.387</time></trkpt><trkpt lat="55.6943570" lon="38.3150780"><time>2020-10-31T06:46:36.387</time></trkpt><trkpt lat="55.6943530" lon="38.3149650"><time>2020-10-31T06:46:38.387</time></trkpt><trkpt lat="55.6943430" lon="38.3148870"><time>2020-10-31T06:46:39.387</time></trkpt><trkpt lat="55.6943300" lon="38.3147650"><time>2020-10-31T06:46:41.380</time></trkpt><trkpt lat="55.6943200" lon="38.3146370"><time>2020-10-31T06:46:43.383</time></trkpt><trkpt lat="55.6943120" lon="38.3145420"><time>2020-10-31T06:46:45.353</time></trkpt><trkpt lat="55.6942830" lon="38.3144050"><time>2020-10-31T06:46:47.343</time></trkpt><trkpt lat="55.6942720" lon="38.3142980"><time>2020-10-31T06:46:48.340</time></trkpt><trkpt lat="55.6942670" lon="38.3141670"><time>2020-10-31T06:46:49.343</time></trkpt><trkpt lat="55.6942700" lon="38.3140520"><time>2020-10-31T06:46:51.353</time></trkpt><trkpt lat="55.6942620" lon="38.3139500"><time>2020-10-31T06:46:53.350</time></trkpt><trkpt lat="55.6942200" lon="38.3138420"><time>2020-10-31T06:46:55.357</time></trkpt><trkpt lat="55.6942130" lon="38.3137300"><time>2020-10-31T06:46:58.370</time></trkpt><trkpt lat="55.6942180" lon="38.3136430"><time>2020-10-31T06:47:01.363</time></trkpt><trkpt lat="55.6942230" lon="38.3134880"><time>2020-10-31T06:47:04.350</time></trkpt><trkpt lat="55.6942280" lon="38.3133280"><time>2020-10-31T06:47:06.370</time></trkpt><trkpt lat="55.6942230" lon="38.3132120"><time>2020-10-31T06:47:07.360</time></trkpt><trkpt lat="55.6942130" lon="38.3131120"><time>2020-10-31T06:47:08.350</time></trkpt><trkpt lat="55.6942180" lon="38.3129920"><time>2020-10-31T06:47:10.343</time></trkpt><trkpt lat="55.6942420" lon="38.3128980"><time>2020-10-31T06:47:12.363</time></trkpt><trkpt lat="55.6942700" lon="38.3128180"><time>2020-10-31T06:47:15.353</time></trkpt><trkpt lat="55.6942670" lon="38.3126920"><time>2020-10-31T06:47:18.367</time></trkpt><trkpt lat="55.6942580" lon="38.3126020"><time>2020-10-31T06:47:20.350</time></trkpt><trkpt lat="55.6942680" lon="38.3125150"><time>2020-10-31T06:47:23.353</time></trkpt><trkpt lat="55.6942680" lon="38.3124170"><time>2020-10-31T06:47:25.347</time></trkpt><trkpt lat="55.6942830" lon="38.3123130"><time>2020-10-31T06:47:27.353</time></trkpt><trkpt lat="55.6942970" lon="38.3122320"><time>2020-10-31T06:47:29.367</time></trkpt><trkpt lat="55.6943030" lon="38.3121050"><time>2020-10-31T06:47:32.363</time></trkpt><trkpt lat="55.6943030" lon="38.3119870"><time>2020-10-31T06:47:34.347</time></trkpt><trkpt lat="55.6943020" lon="38.3119030"><time>2020-10-31T06:47:35.357</time></trkpt><trkpt lat="55.6942880" lon="38.3117950"><time>2020-10-31T06:47:37.357</time></trkpt><trkpt lat="55.6942720" lon="38.3117030"><time>2020-10-31T06:47:40.350</time></trkpt><trkpt lat="55.6942830" lon="38.3116220"><time>2020-10-31T06:47:44.347</time></trkpt><trkpt lat="55.6942970" lon="38.3114930"><time>2020-10-31T06:47:47.347</time></trkpt><trkpt lat="55.6942950" lon="38.3113630"><time>2020-10-31T06:47:49.340</time></trkpt><trkpt lat="55.6942800" lon="38.3112580"><time>2020-10-31T06:47:50.343</time></trkpt><trkpt lat="55.6942750" lon="38.3111420"><time>2020-10-31T06:47:52.343</time></trkpt><trkpt lat="55.6942520" lon="38.3110320"><time>2020-10-31T06:47:54.340</time></trkpt><trkpt lat="55.6942380" lon="38.3109020"><time>2020-10-31T06:47:56.353</time></trkpt><trkpt lat="55.6942330" lon="38.3107850"><time>2020-10-31T06:47:58.357</time></trkpt><trkpt lat="55.6942320" lon="38.3106520"><time>2020-10-31T06:48:00.340</time></trkpt><trkpt lat="55.6942330" lon="38.3105280"><time>2020-10-31T06:48:02.363</time></trkpt><trkpt lat="55.6942400" lon="38.3104180"><time>2020-10-31T06:48:04.357</time></trkpt><trkpt lat="55.6942370" lon="38.3103000"><time>2020-10-31T06:48:06.360</time></trkpt><trkpt lat="55.6942330" lon="38.3102150"><time>2020-10-31T06:48:08.353</time></trkpt><trkpt lat="55.6942330" lon="38.3101170"><time>2020-10-31T06:48:10.367</time></trkpt><trkpt lat="55.6942280" lon="38.3100230"><time>2020-10-31T06:48:13.357</time></trkpt><trkpt lat="55.6942480" lon="38.3099300"><time>2020-10-31T06:48:19.367</time></trkpt><trkpt lat="55.6942820" lon="38.3098520"><time>2020-10-31T06:48:22.357</time></trkpt><trkpt lat="55.6943230" lon="38.3097820"><time>2020-10-31T06:48:25.373</time></trkpt><trkpt lat="55.6943520" lon="38.3097050"><time>2020-10-31T06:48:29.497</time></trkpt><trkpt lat="55.6943730" lon="38.3098070"><time>2020-10-31T06:48:32.383</time></trkpt><trkpt lat="55.6944220" lon="38.3097220"><time>2020-10-31T06:48:35.377</time></trkpt><trkpt lat="55.6944270" lon="38.3095570"><time>2020-10-31T06:48:42.340</time></trkpt><trkpt lat="55.6944730" lon="38.3095150"><time>2020-10-31T06:48:51.390</time></trkpt><trkpt lat="55.6945200" lon="38.3095080"><time>2020-10-31T06:48:57.390</time></trkpt><trkpt lat="55.6945800" lon="38.3095200"><time>2020-10-31T06:49:02.387</time></trkpt><trkpt lat="55.6946400" lon="38.3095250"><time>2020-10-31T06:49:05.387</time></trkpt><trkpt lat="55.6947130" lon="38.3095130"><time>2020-10-31T06:49:07.390</time></trkpt><trkpt lat="55.6947730" lon="38.3095120"><time>2020-10-31T06:49:09.387</time></trkpt><trkpt lat="55.6948450" lon="38.3095350"><time>2020-10-31T06:49:14.387</time></trkpt><trkpt lat="55.6949580" lon="38.3095550"><time>2020-10-31T06:49:29.390</time></trkpt><trkpt lat="55.6950580" lon="38.3096670"><time>2020-10-31T06:49:36.387</time></trkpt><trkpt lat="55.6951420" lon="38.3097850"><time>2020-10-31T06:49:37.390</time></trkpt><trkpt lat="55.6952130" lon="38.3098200"><time>2020-10-31T06:49:38.383</time></trkpt><trkpt lat="55.6952580" lon="38.3098450"><time>2020-10-31T06:49:40.383</time></trkpt><trkpt lat="55.6953070" lon="38.3098370"><time>2020-10-31T06:49:42.387</time></trkpt><trkpt lat="55.6953580" lon="38.3098420"><time>2020-10-31T06:49:44.390</time></trkpt><trkpt lat="55.6954080" lon="38.3098180"><time>2020-10-31T06:49:48.387</time></trkpt><trkpt lat="55.6954970" lon="38.3097450"><time>2020-10-31T06:49:58.387</time></trkpt><trkpt lat="55.6955630" lon="38.3096200"><time>2020-10-31T06:50:08.390</time></trkpt><trkpt lat="55.6956330" lon="38.3095270"><time>2020-10-31T06:50:10.387</time></trkpt><trkpt lat="55.6957050" lon="38.3095270"><time>2020-10-31T06:50:13.387</time></trkpt><trkpt lat="55.6957530" lon="38.3095470"><time>2020-10-31T06:50:15.387</time></trkpt><trkpt lat="55.6958150" lon="38.3095420"><time>2020-10-31T06:50:18.390</time></trkpt><trkpt lat="55.6958730" lon="38.3095350"><time>2020-10-31T06:50:20.390</time></trkpt><trkpt lat="55.6959320" lon="38.3095230"><time>2020-10-31T06:50:23.390</time></trkpt><trkpt lat="55.6960030" lon="38.3094930"><time>2020-10-31T06:50:25.387</time></trkpt><trkpt lat="55.6960620" lon="38.3094730"><time>2020-10-31T06:50:27.387</time></trkpt><trkpt lat="55.6961300" lon="38.3094880"><time>2020-10-31T06:50:29.387</time></trkpt><trkpt lat="55.6962100" lon="38.3095130"><time>2020-10-31T06:50:31.390</time></trkpt><trkpt lat="55.6963150" lon="38.3095400"><time>2020-10-31T06:50:33.387</time></trkpt><trkpt lat="55.6964170" lon="38.3095850"><time>2020-10-31T06:50:35.390</time></trkpt><trkpt lat="55.6964680" lon="38.3096020"><time>2020-10-31T06:50:36.387</time></trkpt><trkpt lat="55.6965130" lon="38.3095880"><time>2020-10-31T06:50:37.390</time></trkpt><trkpt lat="55.6965720" lon="38.3095800"><time>2020-10-31T06:50:39.390</time></trkpt><trkpt lat="55.6966330" lon="38.3095630"><time>2020-10-31T06:50:41.387</time></trkpt><trkpt lat="55.6967030" lon="38.3095550"><time>2020-10-31T06:50:43.393</time></trkpt><trkpt lat="55.6967700" lon="38.3095670"><time>2020-10-31T06:50:46.387</time></trkpt><trkpt lat="55.6968220" lon="38.3095850"><time>2020-10-31T06:50:48.387</time></trkpt><trkpt lat="55.6968800" lon="38.3095880"><time>2020-10-31T06:50:50.387</time></trkpt><trkpt lat="55.6969330" lon="38.3095700"><time>2020-10-31T06:50:52.390</time></trkpt><trkpt lat="55.6970050" lon="38.3095720"><time>2020-10-31T06:50:54.383</time></trkpt><trkpt lat="55.6970580" lon="38.3095850"><time>2020-10-31T06:50:57.393</time></trkpt><trkpt lat="55.6971300" lon="38.3095900"><time>2020-10-31T06:51:00.390</time></trkpt><trkpt lat="55.6971970" lon="38.3095950"><time>2020-10-31T06:51:02.387</time></trkpt><trkpt lat="55.6972530" lon="38.3095920"><time>2020-10-31T06:51:04.387</time></trkpt><trkpt lat="55.6973020" lon="38.3095880"><time>2020-10-31T06:51:06.387</time></trkpt><trkpt lat="55.6973600" lon="38.3095950"><time>2020-10-31T06:51:09.390</time></trkpt><trkpt lat="55.6974080" lon="38.3095850"><time>2020-10-31T06:51:13.387</time></trkpt><trkpt lat="55.6975020" lon="38.3096630"><time>2020-10-31T06:51:27.387</time></trkpt><trkpt lat="55.6976130" lon="38.3097520"><time>2020-10-31T06:51:39.387</time></trkpt><trkpt lat="55.6976480" lon="38.3098050"><time>2020-10-31T06:51:42.387</time></trkpt><trkpt lat="55.6977380" lon="38.3098530"><time>2020-10-31T06:52:00.387</time></trkpt><trkpt lat="55.6978200" lon="38.3100370"><time>2020-10-31T06:52:12.387</time></trkpt><trkpt lat="55.6978570" lon="38.3100980"><time>2020-10-31T06:52:15.383</time></trkpt><trkpt lat="55.6979230" lon="38.3102280"><time>2020-10-31T06:52:28.390</time></trkpt><trkpt lat="55.6979450" lon="38.3102800"><time>2020-10-31T06:52:34.563</time></trkpt><trkpt lat="55.6980370" lon="38.3102730"><time>2020-10-31T06:52:36.337</time></trkpt><trkpt lat="55.6980370" lon="38.3103680"><time>2020-10-31T06:52:38.337</time></trkpt><trkpt lat="55.6980430" lon="38.3102080"><time>2020-10-31T06:52:54.393</time></trkpt><trkpt lat="55.6979600" lon="38.3100850"><time>2020-10-31T06:53:06.390</time></trkpt><trkpt lat="55.6979380" lon="38.3099930"><time>2020-10-31T06:53:08.387</time></trkpt><trkpt lat="55.6978820" lon="38.3099450"><time>2020-10-31T06:53:12.387</time></trkpt><trkpt lat="55.6978420" lon="38.3099000"><time>2020-10-31T06:53:14.383</time></trkpt><trkpt lat="55.6977920" lon="38.3098570"><time>2020-10-31T06:53:16.383</time></trkpt><trkpt lat="55.6977270" lon="38.3098480"><time>2020-10-31T06:53:18.387</time></trkpt><trkpt lat="55.6976580" lon="38.3098500"><time>2020-10-31T06:53:20.387</time></trkpt><trkpt lat="55.6976150" lon="38.3098720"><time>2020-10-31T06:53:22.390</time></trkpt><trkpt lat="55.6975680" lon="38.3099070"><time>2020-10-31T06:53:24.390</time></trkpt><trkpt lat="55.6975230" lon="38.3099250"><time>2020-10-31T06:53:27.357</time></trkpt><trkpt lat="55.6974700" lon="38.3099580"><time>2020-10-31T06:53:31.397</time></trkpt><trkpt lat="55.6974200" lon="38.3099520"><time>2020-10-31T06:53:33.387</time></trkpt><trkpt lat="55.6973620" lon="38.3099580"><time>2020-10-31T06:53:35.393</time></trkpt><trkpt lat="55.6973030" lon="38.3099930"><time>2020-10-31T06:53:37.393</time></trkpt><trkpt lat="55.6972470" lon="38.3100320"><time>2020-10-31T06:53:39.390</time></trkpt><trkpt lat="55.6971930" lon="38.3100730"><time>2020-10-31T06:53:41.383</time></trkpt><trkpt lat="55.6971380" lon="38.3101180"><time>2020-10-31T06:53:43.387</time></trkpt><trkpt lat="55.6970720" lon="38.3101450"><time>2020-10-31T06:53:45.387</time></trkpt><trkpt lat="55.6970250" lon="38.3101220"><time>2020-10-31T06:53:47.387</time></trkpt><trkpt lat="55.6969820" lon="38.3100820"><time>2020-10-31T06:53:49.397</time></trkpt><trkpt lat="55.6969170" lon="38.3100600"><time>2020-10-31T06:53:52.390</time></trkpt><trkpt lat="55.6968720" lon="38.3100350"><time>2020-10-31T06:53:54.390</time></trkpt><trkpt lat="55.6968130" lon="38.3100450"><time>2020-10-31T06:53:57.390</time></trkpt><trkpt lat="55.6967670" lon="38.3100250"><time>2020-10-31T06:53:59.390</time></trkpt><trkpt lat="55.6967200" lon="38.3100050"><time>2020-10-31T06:54:01.390</time></trkpt><trkpt lat="55.6966720" lon="38.3100080"><time>2020-10-31T06:54:03.383</time></trkpt><trkpt lat="55.6966080" lon="38.3099920"><time>2020-10-31T06:54:06.387</time></trkpt><trkpt lat="55.6965530" lon="38.3099650"><time>2020-10-31T06:54:08.383</time></trkpt><trkpt lat="55.6965100" lon="38.3099370"><time>2020-10-31T06:54:11.383</time></trkpt><trkpt lat="55.6964530" lon="38.3098950"><time>2020-10-31T06:54:14.390</time></trkpt><trkpt lat="55.6964080" lon="38.3098750"><time>2020-10-31T06:54:17.390</time></trkpt><trkpt lat="55.6963420" lon="38.3098470"><time>2020-10-31T06:54:20.390</time></trkpt><trkpt lat="55.6962830" lon="38.3098800"><time>2020-10-31T06:54:22.383</time></trkpt><trkpt lat="55.6962250" lon="38.3098870"><time>2020-10-31T06:54:25.393</time></trkpt><trkpt lat="55.6961630" lon="38.3099230"><time>2020-10-31T06:54:28.383</time></trkpt><trkpt lat="55.6960470" lon="38.3099400"><time>2020-10-31T06:54:40.390</time></trkpt><trkpt lat="55.6959380" lon="38.3100280"><time>2020-10-31T06:54:43.393</time></trkpt><trkpt lat="55.6958570" lon="38.3100920"><time>2020-10-31T06:54:45.387</time></trkpt><trkpt lat="55.6957830" lon="38.3101750"><time>2020-10-31T06:54:46.390</time></trkpt><trkpt lat="55.6957350" lon="38.3101900"><time>2020-10-31T06:54:48.387</time></trkpt><trkpt lat="55.6956800" lon="38.3102020"><time>2020-10-31T06:54:50.387</time></trkpt><trkpt lat="55.6956200" lon="38.3101920"><time>2020-10-31T06:54:52.390</time></trkpt><trkpt lat="55.6955680" lon="38.3101950"><time>2020-10-31T06:54:54.387</time></trkpt><trkpt lat="55.6955120" lon="38.3101830"><time>2020-10-31T06:54:56.390</time></trkpt><trkpt lat="55.6954380" lon="38.3101780"><time>2020-10-31T06:54:58.390</time></trkpt><trkpt lat="55.6953700" lon="38.3100630"><time>2020-10-31T06:55:00.387</time></trkpt><trkpt lat="55.6953220" lon="38.3100270"><time>2020-10-31T06:55:03.387</time></trkpt><trkpt lat="55.6952770" lon="38.3100320"><time>2020-10-31T06:55:04.390</time></trkpt><trkpt lat="55.6952220" lon="38.3100050"><time>2020-10-31T06:55:06.387</time></trkpt><trkpt lat="55.6951700" lon="38.3099850"><time>2020-10-31T06:55:08.390</time></trkpt><trkpt lat="55.6951230" lon="38.3099850"><time>2020-10-31T06:55:10.383</time></trkpt><trkpt lat="55.6950720" lon="38.3099430"><time>2020-10-31T06:55:12.387</time></trkpt><trkpt lat="55.6950150" lon="38.3099250"><time>2020-10-31T06:55:14.390</time></trkpt><trkpt lat="55.6949520" lon="38.3099000"><time>2020-10-31T06:55:17.387</time></trkpt><trkpt lat="55.6948870" lon="38.3098730"><time>2020-10-31T06:55:20.387</time></trkpt><trkpt lat="55.6948400" lon="38.3098480"><time>2020-10-31T06:55:22.390</time></trkpt><trkpt lat="55.6947830" lon="38.3098520"><time>2020-10-31T06:55:24.387</time></trkpt><trkpt lat="55.6947220" lon="38.3098480"><time>2020-10-31T06:55:26.387</time></trkpt><trkpt lat="55.6946650" lon="38.3098450"><time>2020-10-31T06:55:29.387</time></trkpt><trkpt lat="55.6945570" lon="38.3098530"><time>2020-10-31T06:55:36.390</time></trkpt><trkpt lat="55.6943280" lon="38.3097370"><time>2020-10-31T06:55:47.340</time></trkpt><trkpt lat="55.6942600" lon="38.3096370"><time>2020-10-31T06:55:48.343</time></trkpt><trkpt lat="55.6942270" lon="38.3095530"><time>2020-10-31T06:55:49.350</time></trkpt><trkpt lat="55.6942100" lon="38.3096400"><time>2020-10-31T06:55:57.353</time></trkpt><trkpt lat="55.6941580" lon="38.3095830"><time>2020-10-31T06:56:00.377</time></trkpt><trkpt lat="55.6941080" lon="38.3095650"><time>2020-10-31T06:56:01.367</time></trkpt><trkpt lat="55.6940550" lon="38.3095530"><time>2020-10-31T06:56:02.353</time></trkpt><trkpt lat="55.6940030" lon="38.3095700"><time>2020-10-31T06:56:04.357</time></trkpt><trkpt lat="55.6939350" lon="38.3095780"><time>2020-10-31T06:56:08.357</time></trkpt><trkpt lat="55.6938720" lon="38.3095800"><time>2020-10-31T06:56:12.357</time></trkpt><trkpt lat="55.6938280" lon="38.3096180"><time>2020-10-31T06:56:16.357</time></trkpt><trkpt lat="55.6938020" lon="38.3095520"><time>2020-10-31T06:56:18.353</time></trkpt><trkpt lat="55.6937550" lon="38.3095400"><time>2020-10-31T06:56:21.357</time></trkpt><trkpt lat="55.6936920" lon="38.3095380"><time>2020-10-31T06:56:22.357</time></trkpt><trkpt lat="55.6936450" lon="38.3095300"><time>2020-10-31T06:56:23.360</time></trkpt><trkpt lat="55.6935970" lon="38.3095080"><time>2020-10-31T06:56:25.343</time></trkpt><trkpt lat="55.6934970" lon="38.3094820"><time>2020-10-31T06:56:30.360</time></trkpt><trkpt lat="55.6934500" lon="38.3095080"><time>2020-10-31T06:56:33.360</time></trkpt><trkpt lat="55.6933600" lon="38.3095000"><time>2020-10-31T06:56:37.353</time></trkpt><trkpt lat="55.6933130" lon="38.3095030"><time>2020-10-31T06:56:38.347</time></trkpt><trkpt lat="55.6932670" lon="38.3095130"><time>2020-10-31T06:56:39.343</time></trkpt><trkpt lat="55.6932050" lon="38.3095270"><time>2020-10-31T06:56:41.353</time></trkpt><trkpt lat="55.6931570" lon="38.3095430"><time>2020-10-31T06:56:43.370</time></trkpt><trkpt lat="55.6930930" lon="38.3095450"><time>2020-10-31T06:56:46.627</time></trkpt><trkpt lat="55.6930450" lon="38.3095320"><time>2020-10-31T06:56:48.177</time></trkpt><trkpt lat="55.6929820" lon="38.3095250"><time>2020-10-31T06:56:48.340</time></trkpt><trkpt lat="55.6929300" lon="38.3095120"><time>2020-10-31T06:56:49.350</time></trkpt><trkpt lat="55.6928770" lon="38.3095130"><time>2020-10-31T06:56:51.337</time></trkpt><trkpt lat="55.6928100" lon="38.3095330"><time>2020-10-31T06:56:54.343</time></trkpt><trkpt lat="55.6927420" lon="38.3095470"><time>2020-10-31T06:56:56.347</time></trkpt><trkpt lat="55.6926780" lon="38.3095630"><time>2020-10-31T06:56:58.343</time></trkpt><trkpt lat="55.6926130" lon="38.3095800"><time>2020-10-31T06:57:00.343</time></trkpt><trkpt lat="55.6925680" lon="38.3096030"><time>2020-10-31T06:57:02.350</time></trkpt><trkpt lat="55.6925100" lon="38.3095920"><time>2020-10-31T06:57:06.340</time></trkpt><trkpt lat="55.6924650" lon="38.3096070"><time>2020-10-31T06:57:08.347</time></trkpt><trkpt lat="55.6924200" lon="38.3096370"><time>2020-10-31T06:57:10.347</time></trkpt><trkpt lat="55.6923720" lon="38.3096630"><time>2020-10-31T06:57:12.343</time></trkpt><trkpt lat="55.6923230" lon="38.3097150"><time>2020-10-31T06:57:15.347</time></trkpt><trkpt lat="55.6922980" lon="38.3098070"><time>2020-10-31T06:57:19.353</time></trkpt><trkpt lat="55.6922400" lon="38.3098220"><time>2020-10-31T06:57:22.340</time></trkpt><trkpt lat="55.6921830" lon="38.3098000"><time>2020-10-31T06:57:25.350</time></trkpt><trkpt lat="55.6921170" lon="38.3097720"><time>2020-10-31T06:57:27.357</time></trkpt><trkpt lat="55.6920550" lon="38.3097630"><time>2020-10-31T06:57:29.347</time></trkpt><trkpt lat="55.6920080" lon="38.3097400"><time>2020-10-31T06:57:31.347</time></trkpt><trkpt lat="55.6919470" lon="38.3097100"><time>2020-10-31T06:57:33.350</time></trkpt><trkpt lat="55.6918820" lon="38.3096600"><time>2020-10-31T06:57:35.347</time></trkpt><trkpt lat="55.6918170" lon="38.3096320"><time>2020-10-31T06:57:37.360</time></trkpt><trkpt lat="55.6917680" lon="38.3096430"><time>2020-10-31T06:57:39.353</time></trkpt><trkpt lat="55.6917100" lon="38.3096920"><time>2020-10-31T06:57:42.343</time></trkpt><trkpt lat="55.6916650" lon="38.3096930"><time>2020-10-31T06:57:44.353</time></trkpt><trkpt lat="55.6916220" lon="38.3096600"><time>2020-10-31T06:57:46.347</time></trkpt><trkpt lat="55.6915730" lon="38.3096400"><time>2020-10-31T06:57:48.353</time></trkpt><trkpt lat="55.6915100" lon="38.3096370"><time>2020-10-31T06:57:50.347</time></trkpt><trkpt lat="55.6914420" lon="38.3096000"><time>2020-10-31T06:57:52.353</time></trkpt><trkpt lat="55.6913880" lon="38.3095800"><time>2020-10-31T06:57:54.353</time></trkpt><trkpt lat="55.6913430" lon="38.3095680"><time>2020-10-31T06:57:56.347</time></trkpt><trkpt lat="55.6912730" lon="38.3095580"><time>2020-10-31T06:57:58.347</time></trkpt><trkpt lat="55.6912030" lon="38.3095250"><time>2020-10-31T06:58:00.353</time></trkpt><trkpt lat="55.6911220" lon="38.3095350"><time>2020-10-31T06:58:02.353</time></trkpt><trkpt lat="55.6910550" lon="38.3095330"><time>2020-10-31T06:58:04.360</time></trkpt><trkpt lat="55.6910070" lon="38.3095120"><time>2020-10-31T06:58:06.353</time></trkpt><trkpt lat="55.6909570" lon="38.3095300"><time>2020-10-31T06:58:09.357</time></trkpt><trkpt lat="55.6908900" lon="38.3095780"><time>2020-10-31T06:58:12.360</time></trkpt><trkpt lat="55.6908430" lon="38.3096250"><time>2020-10-31T06:58:14.357</time></trkpt><trkpt lat="55.6907880" lon="38.3096530"><time>2020-10-31T06:58:16.353</time></trkpt><trkpt lat="55.6907370" lon="38.3096580"><time>2020-10-31T06:58:18.357</time></trkpt><trkpt lat="55.6906770" lon="38.3096750"><time>2020-10-31T06:58:20.357</time></trkpt><trkpt lat="55.6906220" lon="38.3096580"><time>2020-10-31T06:58:22.350</time></trkpt><trkpt lat="55.6905720" lon="38.3096230"><time>2020-10-31T06:58:24.353</time></trkpt><trkpt lat="55.6905220" lon="38.3095620"><time>2020-10-31T06:58:26.357</time></trkpt><trkpt lat="55.6904670" lon="38.3095350"><time>2020-10-31T06:58:28.350</time></trkpt><trkpt lat="55.6904220" lon="38.3094900"><time>2020-10-31T06:58:30.360</time></trkpt><trkpt lat="55.6903670" lon="38.3094550"><time>2020-10-31T06:58:33.360</time></trkpt><trkpt lat="55.6903180" lon="38.3094830"><time>2020-10-31T06:58:35.350</time></trkpt><trkpt lat="55.6902730" lon="38.3094800"><time>2020-10-31T06:58:37.350</time></trkpt><trkpt lat="55.6902300" lon="38.3095020"><time>2020-10-31T06:58:39.357</time></trkpt><trkpt lat="55.6901630" lon="38.3095450"><time>2020-10-31T06:58:41.350</time></trkpt><trkpt lat="55.6900980" lon="38.3095380"><time>2020-10-31T06:58:43.353</time></trkpt><trkpt lat="55.6900420" lon="38.3095330"><time>2020-10-31T06:58:45.343</time></trkpt><trkpt lat="55.6899770" lon="38.3095350"><time>2020-10-31T06:58:47.343</time></trkpt><trkpt lat="55.6899220" lon="38.3095400"><time>2020-10-31T06:58:49.347</time></trkpt><trkpt lat="55.6898530" lon="38.3095600"><time>2020-10-31T06:58:51.350</time></trkpt><trkpt lat="55.6898000" lon="38.3095680"><time>2020-10-31T06:58:53.357</time></trkpt><trkpt lat="55.6897450" lon="38.3095920"><time>2020-10-31T06:58:55.347</time></trkpt><trkpt lat="55.6896830" lon="38.3095770"><time>2020-10-31T06:58:59.350</time></trkpt><trkpt lat="55.6896220" lon="38.3095670"><time>2020-10-31T06:59:03.347</time></trkpt><trkpt lat="55.6895580" lon="38.3095300"><time>2020-10-31T06:59:06.347</time></trkpt><trkpt lat="55.6895070" lon="38.3095300"><time>2020-10-31T06:59:08.360</time></trkpt><trkpt lat="55.6894530" lon="38.3095320"><time>2020-10-31T06:59:10.343</time></trkpt><trkpt lat="55.6893900" lon="38.3095250"><time>2020-10-31T06:59:12.343</time></trkpt><trkpt lat="55.6893400" lon="38.3095070"><time>2020-10-31T06:59:14.347</time></trkpt><trkpt lat="55.6892800" lon="38.3094970"><time>2020-10-31T06:59:23.360</time></trkpt><trkpt lat="55.6892100" lon="38.3095000"><time>2020-10-31T06:59:25.347</time></trkpt><trkpt lat="55.6891320" lon="38.3094980"><time>2020-10-31T06:59:27.343</time></trkpt><trkpt lat="55.6890330" lon="38.3095220"><time>2020-10-31T06:59:29.360</time></trkpt><trkpt lat="55.6889820" lon="38.3095470"><time>2020-10-31T06:59:30.347</time></trkpt><trkpt lat="55.6889270" lon="38.3095680"><time>2020-10-31T06:59:31.343</time></trkpt><trkpt lat="55.6888720" lon="38.3095850"><time>2020-10-31T06:59:32.360</time></trkpt><trkpt lat="55.6887800" lon="38.3096070"><time>2020-10-31T06:59:34.350</time></trkpt><trkpt lat="55.6887300" lon="38.3096170"><time>2020-10-31T06:59:35.350</time></trkpt><trkpt lat="55.6886680" lon="38.3096330"><time>2020-10-31T06:59:36.353</time></trkpt><trkpt lat="55.6886230" lon="38.3096520"><time>2020-10-31T06:59:37.353</time></trkpt><trkpt lat="55.6885520" lon="38.3096970"><time>2020-10-31T06:59:39.350</time></trkpt><trkpt lat="55.6884770" lon="38.3097470"><time>2020-10-31T06:59:41.350</time></trkpt><trkpt lat="55.6884280" lon="38.3097700"><time>2020-10-31T06:59:43.347</time></trkpt><trkpt lat="55.6883800" lon="38.3097370"><time>2020-10-31T06:59:46.343</time></trkpt><trkpt lat="55.6883220" lon="38.3097070"><time>2020-10-31T06:59:48.347</time></trkpt><trkpt lat="55.6882670" lon="38.3097080"><time>2020-10-31T06:59:50.360</time></trkpt><trkpt lat="55.6882120" lon="38.3096970"><time>2020-10-31T06:59:52.347</time></trkpt><trkpt lat="55.6881650" lon="38.3096450"><time>2020-10-31T06:59:55.357</time></trkpt><trkpt lat="55.6881150" lon="38.3096170"><time>2020-10-31T06:59:57.360</time></trkpt><trkpt lat="55.6880530" lon="38.3095820"><time>2020-10-31T07:00:00.343</time></trkpt><trkpt lat="55.6880070" lon="38.3095620"><time>2020-10-31T07:00:02.347</time></trkpt><trkpt lat="55.6879500" lon="38.3095470"><time>2020-10-31T07:00:04.347</time></trkpt><trkpt lat="55.6879020" lon="38.3095500"><time>2020-10-31T07:00:06.363</time></trkpt><trkpt lat="55.6878320" lon="38.3095450"><time>2020-10-31T07:00:08.347</time></trkpt><trkpt lat="55.6877300" lon="38.3095470"><time>2020-10-31T07:00:10.357</time></trkpt><trkpt lat="55.6876700" lon="38.3095230"><time>2020-10-31T07:00:13.357</time></trkpt><trkpt lat="55.6876080" lon="38.3095270"><time>2020-10-31T07:00:15.357</time></trkpt><trkpt lat="55.6874920" lon="38.3095580"><time>2020-10-31T07:00:21.347</time></trkpt><trkpt lat="55.6874430" lon="38.3095830"><time>2020-10-31T07:00:22.347</time></trkpt><trkpt lat="55.6873850" lon="38.3095930"><time>2020-10-31T07:00:23.353</time></trkpt><trkpt lat="55.6873380" lon="38.3096050"><time>2020-10-31T07:00:27.353</time></trkpt><trkpt lat="55.6872650" lon="38.3096320"><time>2020-10-31T07:00:35.347</time></trkpt><trkpt lat="55.6872200" lon="38.3096170"><time>2020-10-31T07:00:37.357</time></trkpt><trkpt lat="55.6872630" lon="38.3096550"><time>2020-10-31T07:00:46.350</time></trkpt><trkpt lat="55.6871520" lon="38.3098530"><time>2020-10-31T07:00:54.510</time></trkpt><trkpt lat="55.6871000" lon="38.3099380"><time>2020-10-31T07:00:55.377</time></trkpt><trkpt lat="55.6870670" lon="38.3100230"><time>2020-10-31T07:00:56.377</time></trkpt><trkpt lat="55.6870200" lon="38.3100550"><time>2020-10-31T07:00:57.380</time></trkpt><trkpt lat="55.6869530" lon="38.3100530"><time>2020-10-31T07:00:59.383</time></trkpt><trkpt lat="55.6868600" lon="38.3101300"><time>2020-10-31T07:01:02.390</time></trkpt><trkpt lat="55.6868120" lon="38.3101500"><time>2020-10-31T07:01:04.387</time></trkpt><trkpt lat="55.6867880" lon="38.3102180"><time>2020-10-31T07:01:06.380</time></trkpt><trkpt lat="55.6867970" lon="38.3103070"><time>2020-10-31T07:01:09.387</time></trkpt><trkpt lat="55.6868420" lon="38.3103320"><time>2020-10-31T07:01:12.387</time></trkpt><trkpt lat="55.6868120" lon="38.3103980"><time>2020-10-31T07:01:25.507</time></trkpt><trkpt lat="55.6867030" lon="38.3103900"><time>2020-10-31T07:01:35.337</time></trkpt><trkpt lat="55.6866200" lon="38.3104570"><time>2020-10-31T07:01:46.340</time></trkpt><trkpt lat="55.6866620" lon="38.3104970"><time>2020-10-31T07:01:48.353</time></trkpt><trkpt lat="55.6867250" lon="38.3105070"><time>2020-10-31T07:01:49.350</time></trkpt><trkpt lat="55.6867950" lon="38.3105950"><time>2020-10-31T07:01:52.380</time></trkpt><trkpt lat="55.6868670" lon="38.3106620"><time>2020-10-31T07:01:53.373</time></trkpt><trkpt lat="55.6869500" lon="38.3107350"><time>2020-10-31T07:02:09.370</time></trkpt><trkpt lat="55.6868930" lon="38.3107820"><time>2020-10-31T07:02:12.343</time></trkpt><trkpt lat="55.6868150" lon="38.3107680"><time>2020-10-31T07:02:14.340</time></trkpt><trkpt lat="55.6867870" lon="38.3108380"><time>2020-10-31T07:02:17.340</time></trkpt><trkpt lat="55.6866520" lon="38.3109280"><time>2020-10-31T07:02:24.380</time></trkpt><trkpt lat="55.6866120" lon="38.3109780"><time>2020-10-31T07:02:27.383</time></trkpt><trkpt lat="55.6865730" lon="38.3110270"><time>2020-10-31T07:02:31.383</time></trkpt><trkpt lat="55.6865270" lon="38.3111670"><time>2020-10-31T07:02:42.387</time></trkpt><trkpt lat="55.6864870" lon="38.3112070"><time>2020-10-31T07:02:44.383</time></trkpt><trkpt lat="55.6864170" lon="38.3113200"><time>2020-10-31T07:02:50.387</time></trkpt><trkpt lat="55.6863620" lon="38.3113800"><time>2020-10-31T07:02:51.387</time></trkpt><trkpt lat="55.6863180" lon="38.3114350"><time>2020-10-31T07:02:53.387</time></trkpt><trkpt lat="55.6862030" lon="38.3115780"><time>2020-10-31T07:03:01.387</time></trkpt><trkpt lat="55.6861870" lon="38.3116750"><time>2020-10-31T07:03:06.390</time></trkpt><trkpt lat="55.6860870" lon="38.3117620"><time>2020-10-31T07:03:19.383</time></trkpt><trkpt lat="55.6860100" lon="38.3119050"><time>2020-10-31T07:03:54.387</time></trkpt><trkpt lat="55.6859070" lon="38.3118920"><time>2020-10-31T07:04:02.387</time></trkpt><trkpt lat="55.6859480" lon="38.3118170"><time>2020-10-31T07:04:37.387</time></trkpt><trkpt lat="55.6858800" lon="38.3119150"><time>2020-10-31T07:04:51.390</time></trkpt><trkpt lat="55.6859730" lon="38.3119520"><time>2020-10-31T07:05:05.383</time></trkpt><trkpt lat="55.6859580" lon="38.3120450"><time>2020-10-31T07:05:15.383</time></trkpt><trkpt lat="55.6859520" lon="38.3121350"><time>2020-10-31T07:05:20.383</time></trkpt><trkpt lat="55.6859850" lon="38.3121970"><time>2020-10-31T07:05:28.387</time></trkpt><trkpt lat="55.6860320" lon="38.3122300"><time>2020-10-31T07:05:36.387</time></trkpt><trkpt lat="55.6861280" lon="38.3123170"><time>2020-10-31T07:05:48.387</time></trkpt><trkpt lat="55.6861820" lon="38.3123230"><time>2020-10-31T07:05:51.390</time></trkpt><trkpt lat="55.6862350" lon="38.3123200"><time>2020-10-31T07:05:55.387</time></trkpt><trkpt lat="55.6863350" lon="38.3124300"><time>2020-10-31T07:06:06.390</time></trkpt><trkpt lat="55.6863380" lon="38.3125130"><time>2020-10-31T07:06:08.390</time></trkpt><trkpt lat="55.6863880" lon="38.3125630"><time>2020-10-31T07:06:12.393</time></trkpt><trkpt lat="55.6864350" lon="38.3126180"><time>2020-10-31T07:06:15.387</time></trkpt><trkpt lat="55.6864850" lon="38.3126470"><time>2020-10-31T07:06:18.390</time></trkpt><trkpt lat="55.6865580" lon="38.3127250"><time>2020-10-31T07:06:28.387</time></trkpt><trkpt lat="55.6866070" lon="38.3127770"><time>2020-10-31T07:06:31.387</time></trkpt><trkpt lat="55.6866450" lon="38.3128420"><time>2020-10-31T07:06:34.387</time></trkpt><trkpt lat="55.6867030" lon="38.3128930"><time>2020-10-31T07:06:40.387</time></trkpt><trkpt lat="55.6867550" lon="38.3129380"><time>2020-10-31T07:06:43.390</time></trkpt><trkpt lat="55.6868170" lon="38.3130100"><time>2020-10-31T07:06:51.393</time></trkpt><trkpt lat="55.6868700" lon="38.3130280"><time>2020-10-31T07:06:54.383</time></trkpt><trkpt lat="55.6869450" lon="38.3130170"><time>2020-10-31T07:06:59.383</time></trkpt><trkpt lat="55.6869970" lon="38.3130070"><time>2020-10-31T07:07:00.360</time></trkpt><trkpt lat="55.6870370" lon="38.3130630"><time>2020-10-31T07:07:04.340</time></trkpt><trkpt lat="55.6870820" lon="38.3130600"><time>2020-10-31T07:07:11.337</time></trkpt><trkpt lat="55.6871330" lon="38.3130070"><time>2020-10-31T07:07:26.343</time></trkpt><trkpt lat="55.6871820" lon="38.3130080"><time>2020-10-31T07:07:29.347</time></trkpt><trkpt lat="55.6871930" lon="38.3130870"><time>2020-10-31T07:07:37.350</time></trkpt><trkpt lat="55.6871880" lon="38.3130780"><time>2020-10-31T07:07:42.223</time></trkpt><trkpt lat="55.6872830" lon="38.3131120"><time>2020-10-31T07:07:44.410</time></trkpt><trkpt lat="55.6873530" lon="38.3131420"><time>2020-10-31T07:07:45.337</time></trkpt><trkpt lat="55.6873100" lon="38.3130880"><time>2020-10-31T07:07:53.337</time></trkpt><trkpt lat="55.6873070" lon="38.3129630"><time>2020-10-31T07:07:54.337</time></trkpt><trkpt lat="55.6873170" lon="38.3128520"><time>2020-10-31T07:07:56.437</time></trkpt><trkpt lat="55.6872670" lon="38.3128870"><time>2020-10-31T07:07:58.340</time></trkpt><trkpt lat="55.6872080" lon="38.3129420"><time>2020-10-31T07:08:01.340</time></trkpt><trkpt lat="55.6871830" lon="38.3130200"><time>2020-10-31T07:08:04.367</time></trkpt><trkpt lat="55.6871820" lon="38.3131520"><time>2020-10-31T07:08:07.393</time></trkpt><trkpt lat="55.6871480" lon="38.3132430"><time>2020-10-31T07:08:08.383</time></trkpt><trkpt lat="55.6872200" lon="38.3132180"><time>2020-10-31T07:08:09.387</time></trkpt><trkpt lat="55.6872070" lon="38.3133130"><time>2020-10-31T07:08:18.347</time></trkpt><trkpt lat="55.6871700" lon="38.3133630"><time>2020-10-31T07:08:20.387</time></trkpt><trkpt lat="55.6871530" lon="38.3134430"><time>2020-10-31T07:08:26.387</time></trkpt><trkpt lat="55.6871680" lon="38.3136270"><time>2020-10-31T07:08:36.387</time></trkpt><trkpt lat="55.6871570" lon="38.3138470"><time>2020-10-31T07:08:50.383</time></trkpt><trkpt lat="55.6871580" lon="38.3139680"><time>2020-10-31T07:08:55.390</time></trkpt><trkpt lat="55.6871530" lon="38.3141220"><time>2020-10-31T07:09:05.387</time></trkpt><trkpt lat="55.6871670" lon="38.3142000"><time>2020-10-31T07:09:08.387</time></trkpt><trkpt lat="55.6871680" lon="38.3143150"><time>2020-10-31T07:09:15.390</time></trkpt><trkpt lat="55.6871830" lon="38.3143970"><time>2020-10-31T07:09:19.390</time></trkpt><trkpt lat="55.6872270" lon="38.3145220"><time>2020-10-31T07:09:29.383</time></trkpt><trkpt lat="55.6872320" lon="38.3146080"><time>2020-10-31T07:09:34.390</time></trkpt><trkpt lat="55.6872180" lon="38.3148380"><time>2020-10-31T07:09:47.350</time></trkpt><trkpt lat="55.6872030" lon="38.3149450"><time>2020-10-31T07:09:49.440</time></trkpt><trkpt lat="55.6871880" lon="38.3151200"><time>2020-10-31T07:09:50.343</time></trkpt><trkpt lat="55.6872130" lon="38.3152530"><time>2020-10-31T07:09:52.337</time></trkpt><trkpt lat="55.6872800" lon="38.3152570"><time>2020-10-31T07:10:05.347</time></trkpt><trkpt lat="55.6872320" lon="38.3152480"><time>2020-10-31T07:10:08.340</time></trkpt><trkpt lat="55.6871650" lon="38.3153580"><time>2020-10-31T07:10:10.340</time></trkpt><trkpt lat="55.6871250" lon="38.3154180"><time>2020-10-31T07:10:12.343</time></trkpt><trkpt lat="55.6871730" lon="38.3153820"><time>2020-10-31T07:10:17.400</time></trkpt><trkpt lat="55.6871150" lon="38.3152920"><time>2020-10-31T07:10:21.343</time></trkpt><trkpt lat="55.6871970" lon="38.3154030"><time>2020-10-31T07:10:24.340</time></trkpt><trkpt lat="55.6871830" lon="38.3154920"><time>2020-10-31T07:10:29.387</time></trkpt><trkpt lat="55.6871650" lon="38.3155680"><time>2020-10-31T07:10:32.383</time></trkpt><trkpt lat="55.6871130" lon="38.3155500"><time>2020-10-31T07:10:36.380</time></trkpt><trkpt lat="55.6870750" lon="38.3154020"><time>2020-10-31T07:10:42.390</time></trkpt><trkpt lat="55.6871230" lon="38.3153920"><time>2020-10-31T07:10:48.387</time></trkpt><trkpt lat="55.6871630" lon="38.3154470"><time>2020-10-31T07:10:51.387</time></trkpt><trkpt lat="55.6872250" lon="38.3156400"><time>2020-10-31T07:11:00.390</time></trkpt><trkpt lat="55.6872020" lon="38.3158780"><time>2020-10-31T07:11:17.337</time></trkpt><trkpt lat="55.6872020" lon="38.3161080"><time>2020-10-31T07:11:44.353</time></trkpt><trkpt lat="55.6872080" lon="38.3161930"><time>2020-10-31T07:11:48.367</time></trkpt><trkpt lat="55.6872050" lon="38.3162820"><time>2020-10-31T07:11:55.340</time></trkpt><trkpt lat="55.6872180" lon="38.3163580"><time>2020-10-31T07:11:57.370</time></trkpt><trkpt lat="55.6871750" lon="38.3164080"><time>2020-10-31T07:12:02.340</time></trkpt><trkpt lat="55.6871430" lon="38.3164930"><time>2020-10-31T07:12:03.340</time></trkpt><trkpt lat="55.6871000" lon="38.3166080"><time>2020-10-31T07:12:07.340</time></trkpt><trkpt lat="55.6870980" lon="38.3167600"><time>2020-10-31T07:12:14.340</time></trkpt><trkpt lat="55.6870830" lon="38.3168450"><time>2020-10-31T07:12:19.073</time></trkpt><trkpt lat="55.6870550" lon="38.3169150"><time>2020-10-31T07:12:23.363</time></trkpt><trkpt lat="55.6871100" lon="38.3169920"><time>2020-10-31T07:12:31.383</time></trkpt><trkpt lat="55.6871230" lon="38.3171080"><time>2020-10-31T07:12:43.383</time></trkpt><trkpt lat="55.6871230" lon="38.3171880"><time>2020-10-31T07:12:46.340</time></trkpt><trkpt lat="55.6871250" lon="38.3172730"><time>2020-10-31T07:12:50.350</time></trkpt><trkpt lat="55.6870750" lon="38.3173070"><time>2020-10-31T07:12:53.360</time></trkpt><trkpt lat="55.6870280" lon="38.3173520"><time>2020-10-31T07:12:54.347</time></trkpt><trkpt lat="55.6870980" lon="38.3173720"><time>2020-10-31T07:13:05.380</time></trkpt><trkpt lat="55.6870880" lon="38.3174980"><time>2020-10-31T07:13:16.383</time></trkpt><trkpt lat="55.6870580" lon="38.3175600"><time>2020-10-31T07:13:19.343</time></trkpt><trkpt lat="55.6870650" lon="38.3176520"><time>2020-10-31T07:13:29.380</time></trkpt><trkpt lat="55.6870680" lon="38.3177770"><time>2020-10-31T07:13:37.383</time></trkpt><trkpt lat="55.6870920" lon="38.3179830"><time>2020-10-31T07:13:57.340</time></trkpt><trkpt lat="55.6870680" lon="38.3180550"><time>2020-10-31T07:13:59.380</time></trkpt><trkpt lat="55.6870720" lon="38.3181730"><time>2020-10-31T07:14:02.360</time></trkpt><trkpt lat="55.6870650" lon="38.3182670"><time>2020-10-31T07:14:06.387</time></trkpt><trkpt lat="55.6870550" lon="38.3183450"><time>2020-10-31T07:14:09.387</time></trkpt><trkpt lat="55.6870730" lon="38.3184320"><time>2020-10-31T07:14:14.387</time></trkpt><trkpt lat="55.6870370" lon="38.3184880"><time>2020-10-31T07:14:19.387</time></trkpt><trkpt lat="55.6870050" lon="38.3186370"><time>2020-10-31T07:14:27.377</time></trkpt><trkpt lat="55.6869920" lon="38.3187720"><time>2020-10-31T07:14:29.387</time></trkpt><trkpt lat="55.6869800" lon="38.3188650"><time>2020-10-31T07:14:32.387</time></trkpt><trkpt lat="55.6870430" lon="38.3190630"><time>2020-10-31T07:14:54.387</time></trkpt><trkpt lat="55.6870800" lon="38.3192350"><time>2020-10-31T07:15:12.390</time></trkpt><trkpt lat="55.6871000" lon="38.3193370"><time>2020-10-31T07:15:15.390</time></trkpt><trkpt lat="55.6871420" lon="38.3193970"><time>2020-10-31T07:15:18.390</time></trkpt><trkpt lat="55.6871750" lon="38.3194520"><time>2020-10-31T07:15:21.367</time></trkpt><trkpt lat="55.6871980" lon="38.3195630"><time>2020-10-31T07:15:24.390</time></trkpt><trkpt lat="55.6872030" lon="38.3196700"><time>2020-10-31T07:15:26.387</time></trkpt><trkpt lat="55.6872580" lon="38.3197080"><time>2020-10-31T07:15:29.387</time></trkpt><trkpt lat="55.6873130" lon="38.3197480"><time>2020-10-31T07:15:31.393</time></trkpt><trkpt lat="55.6873720" lon="38.3197700"><time>2020-10-31T07:15:34.383</time></trkpt><trkpt lat="55.6874320" lon="38.3197720"><time>2020-10-31T07:15:36.387</time></trkpt><trkpt lat="55.6874770" lon="38.3197530"><time>2020-10-31T07:15:38.387</time></trkpt><trkpt lat="55.6875330" lon="38.3197600"><time>2020-10-31T07:15:41.390</time></trkpt><trkpt lat="55.6875900" lon="38.3198300"><time>2020-10-31T07:15:44.393</time></trkpt><trkpt lat="55.6876750" lon="38.3198200"><time>2020-10-31T07:15:46.340</time></trkpt><trkpt lat="55.6877220" lon="38.3198230"><time>2020-10-31T07:15:47.347</time></trkpt><trkpt lat="55.6877830" lon="38.3198100"><time>2020-10-31T07:15:52.407</time></trkpt><trkpt lat="55.6878480" lon="38.3198100"><time>2020-10-31T07:15:54.387</time></trkpt><trkpt lat="55.6879300" lon="38.3198650"><time>2020-10-31T07:15:58.393</time></trkpt><trkpt lat="55.6879870" lon="38.3198320"><time>2020-10-31T07:15:59.387</time></trkpt><trkpt lat="55.6880320" lon="38.3198420"><time>2020-10-31T07:16:01.380</time></trkpt><trkpt lat="55.6880800" lon="38.3198350"><time>2020-10-31T07:16:03.387</time></trkpt><trkpt lat="55.6881420" lon="38.3198570"><time>2020-10-31T07:16:05.387</time></trkpt><trkpt lat="55.6881870" lon="38.3198950"><time>2020-10-31T07:16:09.393</time></trkpt><trkpt lat="55.6882570" lon="38.3199300"><time>2020-10-31T07:16:13.390</time></trkpt><trkpt lat="55.6882930" lon="38.3199780"><time>2020-10-31T07:16:15.387</time></trkpt><trkpt lat="55.6883350" lon="38.3200380"><time>2020-10-31T07:16:17.390</time></trkpt><trkpt lat="55.6883880" lon="38.3201000"><time>2020-10-31T07:16:19.393</time></trkpt><trkpt lat="55.6884200" lon="38.3201630"><time>2020-10-31T07:16:21.387</time></trkpt><trkpt lat="55.6884770" lon="38.3202180"><time>2020-10-31T07:16:24.387</time></trkpt><trkpt lat="55.6885230" lon="38.3202670"><time>2020-10-31T07:16:27.387</time></trkpt><trkpt lat="55.6885830" lon="38.3203500"><time>2020-10-31T07:16:30.360</time></trkpt><trkpt lat="55.6886100" lon="38.3204350"><time>2020-10-31T07:16:32.390</time></trkpt><trkpt lat="55.6886800" lon="38.3204920"><time>2020-10-31T07:16:34.387</time></trkpt><trkpt lat="55.6887380" lon="38.3205150"><time>2020-10-31T07:16:36.390</time></trkpt><trkpt lat="55.6887770" lon="38.3205720"><time>2020-10-31T07:16:38.393</time></trkpt><trkpt lat="55.6888250" lon="38.3206020"><time>2020-10-31T07:16:41.390</time></trkpt><trkpt lat="55.6888830" lon="38.3205950"><time>2020-10-31T07:16:43.377</time></trkpt><trkpt lat="55.6889500" lon="38.3205850"><time>2020-10-31T07:16:45.393</time></trkpt><trkpt lat="55.6890100" lon="38.3205930"><time>2020-10-31T07:16:48.393</time></trkpt><trkpt lat="55.6890430" lon="38.3206580"><time>2020-10-31T07:16:51.390</time></trkpt><trkpt lat="55.6890800" lon="38.3207050"><time>2020-10-31T07:16:54.390</time></trkpt><trkpt lat="55.6891280" lon="38.3207750"><time>2020-10-31T07:16:58.563</time></trkpt><trkpt lat="55.6891800" lon="38.3208100"><time>2020-10-31T07:17:01.387</time></trkpt><trkpt lat="55.6892300" lon="38.3208500"><time>2020-10-31T07:17:03.387</time></trkpt><trkpt lat="55.6893020" lon="38.3208770"><time>2020-10-31T07:17:05.390</time></trkpt><trkpt lat="55.6893620" lon="38.3208570"><time>2020-10-31T07:17:07.393</time></trkpt><trkpt lat="55.6894180" lon="38.3208370"><time>2020-10-31T07:17:09.390</time></trkpt><trkpt lat="55.6894900" lon="38.3208180"><time>2020-10-31T07:17:11.390</time></trkpt><trkpt lat="55.6895500" lon="38.3208030"><time>2020-10-31T07:17:13.513</time></trkpt><trkpt lat="55.6896150" lon="38.3207900"><time>2020-10-31T07:17:15.393</time></trkpt><trkpt lat="55.6896750" lon="38.3207870"><time>2020-10-31T07:17:17.383</time></trkpt><trkpt lat="55.6897200" lon="38.3208070"><time>2020-10-31T07:17:19.393</time></trkpt><trkpt lat="55.6897630" lon="38.3208550"><time>2020-10-31T07:17:22.377</time></trkpt><trkpt lat="55.6898020" lon="38.3209320"><time>2020-10-31T07:17:26.390</time></trkpt><trkpt lat="55.6897980" lon="38.3211380"><time>2020-10-31T07:17:33.390</time></trkpt><trkpt lat="55.6898080" lon="38.3212380"><time>2020-10-31T07:17:37.390</time></trkpt><trkpt lat="55.6898050" lon="38.3213220"><time>2020-10-31T07:17:39.387</time></trkpt><trkpt lat="55.6897980" lon="38.3214050"><time>2020-10-31T07:17:41.390</time></trkpt><trkpt lat="55.6897780" lon="38.3214830"><time>2020-10-31T07:17:43.390</time></trkpt><trkpt lat="55.6897730" lon="38.3215650"><time>2020-10-31T07:17:45.387</time></trkpt><trkpt lat="55.6897650" lon="38.3216630"><time>2020-10-31T07:17:48.387</time></trkpt><trkpt lat="55.6897720" lon="38.3217520"><time>2020-10-31T07:17:51.390</time></trkpt><trkpt lat="55.6897820" lon="38.3218780"><time>2020-10-31T07:17:54.387</time></trkpt><trkpt lat="55.6897750" lon="38.3219670"><time>2020-10-31T07:17:56.387</time></trkpt><trkpt lat="55.6897670" lon="38.3220650"><time>2020-10-31T07:17:59.387</time></trkpt><trkpt lat="55.6897630" lon="38.3221520"><time>2020-10-31T07:18:02.397</time></trkpt><trkpt lat="55.6897470" lon="38.3222420"><time>2020-10-31T07:18:05.387</time></trkpt><trkpt lat="55.6897430" lon="38.3223450"><time>2020-10-31T07:18:08.387</time></trkpt><trkpt lat="55.6897300" lon="38.3224220"><time>2020-10-31T07:18:10.393</time></trkpt><trkpt lat="55.6897170" lon="38.3225030"><time>2020-10-31T07:18:12.387</time></trkpt><trkpt lat="55.6897270" lon="38.3225930"><time>2020-10-31T07:18:14.390</time></trkpt><trkpt lat="55.6897230" lon="38.3227130"><time>2020-10-31T07:18:17.390</time></trkpt><trkpt lat="55.6897180" lon="38.3228030"><time>2020-10-31T07:18:20.390</time></trkpt><trkpt lat="55.6897130" lon="38.3228900"><time>2020-10-31T07:18:22.390</time></trkpt><trkpt lat="55.6897230" lon="38.3229780"><time>2020-10-31T07:18:26.387</time></trkpt><trkpt lat="55.6897170" lon="38.3231720"><time>2020-10-31T07:18:37.390</time></trkpt><trkpt lat="55.6897380" lon="38.3233170"><time>2020-10-31T07:18:39.387</time></trkpt><trkpt lat="55.6897530" lon="38.3234400"><time>2020-10-31T07:18:41.383</time></trkpt><trkpt lat="55.6897570" lon="38.3235480"><time>2020-10-31T07:18:44.383</time></trkpt><trkpt lat="55.6897830" lon="38.3236230"><time>2020-10-31T07:18:47.390</time></trkpt><trkpt lat="55.6897980" lon="38.3237020"><time>2020-10-31T07:18:49.460</time></trkpt><trkpt lat="55.6898020" lon="38.3237920"><time>2020-10-31T07:18:51.390</time></trkpt><trkpt lat="55.6897850" lon="38.3238950"><time>2020-10-31T07:18:53.390</time></trkpt><trkpt lat="55.6897920" lon="38.3239930"><time>2020-10-31T07:18:56.387</time></trkpt><trkpt lat="55.6897820" lon="38.3241330"><time>2020-10-31T07:19:01.390</time></trkpt><trkpt lat="55.6897730" lon="38.3242600"><time>2020-10-31T07:19:03.390</time></trkpt><trkpt lat="55.6897720" lon="38.3243450"><time>2020-10-31T07:19:06.383</time></trkpt><trkpt lat="55.6897400" lon="38.3244070"><time>2020-10-31T07:19:08.387</time></trkpt><trkpt lat="55.6897250" lon="38.3245020"><time>2020-10-31T07:19:11.390</time></trkpt><trkpt lat="55.6896920" lon="38.3245900"><time>2020-10-31T07:19:14.390</time></trkpt><trkpt lat="55.6897100" lon="38.3246820"><time>2020-10-31T07:19:18.387</time></trkpt><trkpt lat="55.6896900" lon="38.3247570"><time>2020-10-31T07:19:22.393</time></trkpt><trkpt lat="55.6896520" lon="38.3248420"><time>2020-10-31T07:19:25.390</time></trkpt><trkpt lat="55.6896100" lon="38.3248980"><time>2020-10-31T07:19:27.397</time></trkpt><trkpt lat="55.6896180" lon="38.3249830"><time>2020-10-31T07:19:31.390</time></trkpt><trkpt lat="55.6896020" lon="38.3251080"><time>2020-10-31T07:19:35.387</time></trkpt><trkpt lat="55.6896570" lon="38.3252130"><time>2020-10-31T07:19:41.390</time></trkpt><trkpt lat="55.6897220" lon="38.3253250"><time>2020-10-31T07:19:48.387</time></trkpt><trkpt lat="55.6897530" lon="38.3253920"><time>2020-10-31T07:19:51.390</time></trkpt><trkpt lat="55.6897530" lon="38.3254770"><time>2020-10-31T07:19:54.383</time></trkpt><trkpt lat="55.6897570" lon="38.3255700"><time>2020-10-31T07:19:57.413</time></trkpt><trkpt lat="55.6897320" lon="38.3256580"><time>2020-10-31T07:19:58.383</time></trkpt><trkpt lat="55.6896930" lon="38.3258070"><time>2020-10-31T07:20:00.390</time></trkpt><trkpt lat="55.6896050" lon="38.3259930"><time>2020-10-31T07:20:01.387</time></trkpt><trkpt lat="55.6895650" lon="38.3261450"><time>2020-10-31T07:20:02.390</time></trkpt><trkpt lat="55.6895470" lon="38.3262700"><time>2020-10-31T07:20:03.390</time></trkpt><trkpt lat="55.6895670" lon="38.3264830"><time>2020-10-31T07:20:09.390</time></trkpt><trkpt lat="55.6895350" lon="38.3265450"><time>2020-10-31T07:20:10.383</time></trkpt><trkpt lat="55.6895470" lon="38.3266370"><time>2020-10-31T07:20:12.383</time></trkpt><trkpt lat="55.6894970" lon="38.3267120"><time>2020-10-31T07:20:13.353</time></trkpt><trkpt lat="55.6894230" lon="38.3268480"><time>2020-10-31T07:20:14.390</time></trkpt><trkpt lat="55.6893780" lon="38.3271130"><time>2020-10-31T07:20:15.387</time></trkpt><trkpt lat="55.6893520" lon="38.3272520"><time>2020-10-31T07:20:16.387</time></trkpt><trkpt lat="55.6893020" lon="38.3273730"><time>2020-10-31T07:20:17.387</time></trkpt><trkpt lat="55.6892980" lon="38.3274720"><time>2020-10-31T07:20:18.390</time></trkpt><trkpt lat="55.6892870" lon="38.3275930"><time>2020-10-31T07:20:19.390</time></trkpt><trkpt lat="55.6892670" lon="38.3276680"><time>2020-10-31T07:20:20.390</time></trkpt><trkpt lat="55.6892320" lon="38.3277420"><time>2020-10-31T07:20:24.383</time></trkpt><trkpt lat="55.6892670" lon="38.3279350"><time>2020-10-31T07:20:37.383</time></trkpt><trkpt lat="55.6893480" lon="38.3280780"><time>2020-10-31T07:20:49.390</time></trkpt><trkpt lat="55.6893850" lon="38.3281370"><time>2020-10-31T07:20:52.390</time></trkpt><trkpt lat="55.6893600" lon="38.3282170"><time>2020-10-31T07:21:00.387</time></trkpt><trkpt lat="55.6893500" lon="38.3283050"><time>2020-10-31T07:21:10.387</time></trkpt><trkpt lat="55.6892980" lon="38.3283400"><time>2020-10-31T07:21:12.377</time></trkpt><trkpt lat="55.6892550" lon="38.3283680"><time>2020-10-31T07:21:14.390</time></trkpt><trkpt lat="55.6891420" lon="38.3284080"><time>2020-10-31T07:21:28.340</time></trkpt><trkpt lat="55.6892000" lon="38.3283970"><time>2020-10-31T07:21:31.340</time></trkpt><trkpt lat="55.6892470" lon="38.3284500"><time>2020-10-31T07:21:32.357</time></trkpt><trkpt lat="55.6892630" lon="38.3285600"><time>2020-10-31T07:21:34.340</time></trkpt><trkpt lat="55.6892870" lon="38.3286250"><time>2020-10-31T07:21:41.577</time></trkpt><trkpt lat="55.6894150" lon="38.3282230"><time>2020-10-31T07:21:56.850</time></trkpt><trkpt lat="55.6892980" lon="38.3282630"><time>2020-10-31T07:21:57.853</time></trkpt><trkpt lat="55.6892050" lon="38.3282680"><time>2020-10-31T07:21:59.380</time></trkpt><trkpt lat="55.6891630" lon="38.3282250"><time>2020-10-31T07:22:04.380</time></trkpt><trkpt lat="55.6891830" lon="38.3283130"><time>2020-10-31T07:22:11.357</time></trkpt><trkpt lat="55.6891420" lon="38.3286150"><time>2020-10-31T07:22:13.357</time></trkpt><trkpt lat="55.6890470" lon="38.3291850"><time>2020-10-31T07:22:14.573</time></trkpt><trkpt lat="55.6890930" lon="38.3288820"><time>2020-10-31T07:22:15.360</time></trkpt><trkpt lat="55.6890530" lon="38.3290950"><time>2020-10-31T07:22:16.347</time></trkpt><trkpt lat="55.6890250" lon="38.3289650"><time>2020-10-31T07:22:17.340</time></trkpt><trkpt lat="55.6891830" lon="38.3286080"><time>2020-10-31T07:22:18.343</time></trkpt><trkpt lat="55.6892430" lon="38.3285930"><time>2020-10-31T07:22:19.340</time></trkpt><trkpt lat="55.6893080" lon="38.3285750"><time>2020-10-31T07:22:21.340</time></trkpt><trkpt lat="55.6892580" lon="38.3285250"><time>2020-10-31T07:22:23.347</time></trkpt><trkpt lat="55.6893080" lon="38.3285580"><time>2020-10-31T07:22:25.340</time></trkpt><trkpt lat="55.6893520" lon="38.3285230"><time>2020-10-31T07:22:29.340</time></trkpt><trkpt lat="55.6893970" lon="38.3285400"><time>2020-10-31T07:22:34.363</time></trkpt><trkpt lat="55.6894430" lon="38.3285350"><time>2020-10-31T07:22:37.340</time></trkpt><trkpt lat="55.6895000" lon="38.3285370"><time>2020-10-31T07:22:40.340</time></trkpt><trkpt lat="55.6895480" lon="38.3285600"><time>2020-10-31T07:22:42.340</time></trkpt><trkpt lat="55.6895600" lon="38.3286450"><time>2020-10-31T07:22:48.383</time></trkpt><trkpt lat="55.6896000" lon="38.3286900"><time>2020-10-31T07:22:54.397</time></trkpt><trkpt lat="55.6895920" lon="38.3287750"><time>2020-10-31T07:23:03.383</time></trkpt><trkpt lat="55.6895420" lon="38.3288520"><time>2020-10-31T07:23:06.387</time></trkpt><trkpt lat="55.6895020" lon="38.3289170"><time>2020-10-31T07:23:09.387</time></trkpt><trkpt lat="55.6894650" lon="38.3289770"><time>2020-10-31T07:23:12.387</time></trkpt><trkpt lat="55.6894770" lon="38.3290680"><time>2020-10-31T07:23:17.387</time></trkpt><trkpt lat="55.6895020" lon="38.3291370"><time>2020-10-31T07:23:21.387</time></trkpt><trkpt lat="55.6895020" lon="38.3292370"><time>2020-10-31T07:23:25.387</time></trkpt><trkpt lat="55.6895170" lon="38.3293130"><time>2020-10-31T07:23:32.350</time></trkpt><trkpt lat="55.6895480" lon="38.3293720"><time>2020-10-31T07:23:35.387</time></trkpt><trkpt lat="55.6895700" lon="38.3294430"><time>2020-10-31T07:23:41.390</time></trkpt><trkpt lat="55.6896130" lon="38.3295080"><time>2020-10-31T07:23:45.383</time></trkpt><trkpt lat="55.6896530" lon="38.3295500"><time>2020-10-31T07:23:48.387</time></trkpt><trkpt lat="55.6896970" lon="38.3295750"><time>2020-10-31T07:23:51.387</time></trkpt><trkpt lat="55.6897070" lon="38.3296650"><time>2020-10-31T07:23:56.387</time></trkpt><trkpt lat="55.6897420" lon="38.3297180"><time>2020-10-31T07:24:00.390</time></trkpt><trkpt lat="55.6897900" lon="38.3297770"><time>2020-10-31T07:24:03.387</time></trkpt><trkpt lat="55.6898130" lon="38.3298520"><time>2020-10-31T07:24:06.387</time></trkpt><trkpt lat="55.6898400" lon="38.3299220"><time>2020-10-31T07:24:09.387</time></trkpt><trkpt lat="55.6898830" lon="38.3299700"><time>2020-10-31T07:24:11.387</time></trkpt><trkpt lat="55.6899280" lon="38.3300170"><time>2020-10-31T07:24:14.343</time></trkpt><trkpt lat="55.6899720" lon="38.3300420"><time>2020-10-31T07:24:17.387</time></trkpt><trkpt lat="55.6900230" lon="38.3300330"><time>2020-10-31T07:24:25.387</time></trkpt><trkpt lat="55.6900830" lon="38.3300170"><time>2020-10-31T07:24:29.370</time></trkpt><trkpt lat="55.6901420" lon="38.3300100"><time>2020-10-31T07:24:34.393</time></trkpt><trkpt lat="55.6902020" lon="38.3300500"><time>2020-10-31T07:24:36.393</time></trkpt><trkpt lat="55.6902430" lon="38.3300900"><time>2020-10-31T07:24:38.370</time></trkpt><trkpt lat="55.6902920" lon="38.3301380"><time>2020-10-31T07:24:41.387</time></trkpt><trkpt lat="55.6903670" lon="38.3301430"><time>2020-10-31T07:24:45.390</time></trkpt><trkpt lat="55.6904100" lon="38.3301650"><time>2020-10-31T07:24:49.397</time></trkpt><trkpt lat="55.6904850" lon="38.3302070"><time>2020-10-31T07:24:54.387</time></trkpt><trkpt lat="55.6905580" lon="38.3302120"><time>2020-10-31T07:24:56.393</time></trkpt><trkpt lat="55.6906100" lon="38.3302350"><time>2020-10-31T07:25:00.387</time></trkpt><trkpt lat="55.6906550" lon="38.3302870"><time>2020-10-31T07:25:04.393</time></trkpt><trkpt lat="55.6907050" lon="38.3303270"><time>2020-10-31T07:25:09.397</time></trkpt><trkpt lat="55.6907530" lon="38.3303700"><time>2020-10-31T07:25:14.387</time></trkpt><trkpt lat="55.6907970" lon="38.3304100"><time>2020-10-31T07:25:18.390</time></trkpt><trkpt lat="55.6908480" lon="38.3304420"><time>2020-10-31T07:25:21.387</time></trkpt><trkpt lat="55.6909000" lon="38.3304830"><time>2020-10-31T07:25:24.387</time></trkpt><trkpt lat="55.6909470" lon="38.3305000"><time>2020-10-31T07:25:27.387</time></trkpt><trkpt lat="55.6910000" lon="38.3305030"><time>2020-10-31T07:25:32.390</time></trkpt><trkpt lat="55.6910430" lon="38.3304780"><time>2020-10-31T07:25:36.387</time></trkpt><trkpt lat="55.6910880" lon="38.3304870"><time>2020-10-31T07:25:39.387</time></trkpt><trkpt lat="55.6911350" lon="38.3305130"><time>2020-10-31T07:25:44.387</time></trkpt><trkpt lat="55.6911980" lon="38.3305130"><time>2020-10-31T07:25:47.393</time></trkpt><trkpt lat="55.6912580" lon="38.3305220"><time>2020-10-31T07:25:50.387</time></trkpt><trkpt lat="55.6913250" lon="38.3305420"><time>2020-10-31T07:25:53.387</time></trkpt><trkpt lat="55.6914000" lon="38.3305780"><time>2020-10-31T07:25:56.387</time></trkpt><trkpt lat="55.6914650" lon="38.3306400"><time>2020-10-31T07:25:58.387</time></trkpt><trkpt lat="55.6915080" lon="38.3306680"><time>2020-10-31T07:26:00.387</time></trkpt><trkpt lat="55.6915580" lon="38.3306930"><time>2020-10-31T07:26:02.387</time></trkpt><trkpt lat="55.6916220" lon="38.3307170"><time>2020-10-31T07:26:05.387</time></trkpt><trkpt lat="55.6916930" lon="38.3307120"><time>2020-10-31T07:26:07.393</time></trkpt><trkpt lat="55.6917420" lon="38.3307250"><time>2020-10-31T07:26:10.390</time></trkpt><trkpt lat="55.6917980" lon="38.3307320"><time>2020-10-31T07:26:13.390</time></trkpt><trkpt lat="55.6918500" lon="38.3307870"><time>2020-10-31T07:26:16.393</time></trkpt><trkpt lat="55.6918930" lon="38.3308280"><time>2020-10-31T07:26:18.387</time></trkpt><trkpt lat="55.6919430" lon="38.3308730"><time>2020-10-31T07:26:20.393</time></trkpt><trkpt lat="55.6919930" lon="38.3309030"><time>2020-10-31T07:26:22.553</time></trkpt><trkpt lat="55.6920470" lon="38.3309300"><time>2020-10-31T07:26:24.390</time></trkpt><trkpt lat="55.6921030" lon="38.3309430"><time>2020-10-31T07:26:26.387</time></trkpt><trkpt lat="55.6921480" lon="38.3309850"><time>2020-10-31T07:26:29.387</time></trkpt><trkpt lat="55.6921980" lon="38.3310020"><time>2020-10-31T07:26:31.390</time></trkpt><trkpt lat="55.6922230" lon="38.3310730"><time>2020-10-31T07:26:33.390</time></trkpt><trkpt lat="55.6922530" lon="38.3311520"><time>2020-10-31T07:26:35.390</time></trkpt><trkpt lat="55.6923050" lon="38.3311780"><time>2020-10-31T07:26:37.390</time></trkpt><trkpt lat="55.6923480" lon="38.3312420"><time>2020-10-31T07:26:40.390</time></trkpt><trkpt lat="55.6923880" lon="38.3313100"><time>2020-10-31T07:26:43.397</time></trkpt><trkpt lat="55.6924320" lon="38.3313470"><time>2020-10-31T07:26:45.393</time></trkpt><trkpt lat="55.6924750" lon="38.3313820"><time>2020-10-31T07:26:47.387</time></trkpt><trkpt lat="55.6925270" lon="38.3314300"><time>2020-10-31T07:26:49.387</time></trkpt><trkpt lat="55.6925970" lon="38.3315070"><time>2020-10-31T07:26:51.393</time></trkpt><trkpt lat="55.6926450" lon="38.3315750"><time>2020-10-31T07:26:53.393</time></trkpt><trkpt lat="55.6926680" lon="38.3316500"><time>2020-10-31T07:26:55.387</time></trkpt><trkpt lat="55.6926770" lon="38.3317650"><time>2020-10-31T07:26:58.387</time></trkpt><trkpt lat="55.6926680" lon="38.3318880"><time>2020-10-31T07:27:01.353</time></trkpt><trkpt lat="55.6926700" lon="38.3319680"><time>2020-10-31T07:27:03.390</time></trkpt><trkpt lat="55.6926750" lon="38.3320730"><time>2020-10-31T07:27:06.390</time></trkpt><trkpt lat="55.6926780" lon="38.3321800"><time>2020-10-31T07:27:09.383</time></trkpt><trkpt lat="55.6926820" lon="38.3322680"><time>2020-10-31T07:27:11.387</time></trkpt><trkpt lat="55.6926920" lon="38.3323700"><time>2020-10-31T07:27:14.387</time></trkpt><trkpt lat="55.6927150" lon="38.3324950"><time>2020-10-31T07:27:17.383</time></trkpt><trkpt lat="55.6927230" lon="38.3325900"><time>2020-10-31T07:27:19.387</time></trkpt><trkpt lat="55.6927270" lon="38.3326850"><time>2020-10-31T07:27:21.390</time></trkpt><trkpt lat="55.6927420" lon="38.3327870"><time>2020-10-31T07:27:23.387</time></trkpt><trkpt lat="55.6927470" lon="38.3328850"><time>2020-10-31T07:27:25.390</time></trkpt><trkpt lat="55.6927580" lon="38.3329630"><time>2020-10-31T07:27:27.387</time></trkpt><trkpt lat="55.6927800" lon="38.3330650"><time>2020-10-31T07:27:30.387</time></trkpt><trkpt lat="55.6928100" lon="38.3331370"><time>2020-10-31T07:27:32.393</time></trkpt><trkpt lat="55.6927930" lon="38.3332280"><time>2020-10-31T07:27:35.393</time></trkpt><trkpt lat="55.6927600" lon="38.3333130"><time>2020-10-31T07:27:38.387</time></trkpt><trkpt lat="55.6927230" lon="38.3334080"><time>2020-10-31T07:27:41.390</time></trkpt><trkpt lat="55.6926900" lon="38.3334620"><time>2020-10-31T07:27:43.390</time></trkpt><trkpt lat="55.6926670" lon="38.3335450"><time>2020-10-31T07:27:45.390</time></trkpt><trkpt lat="55.6926600" lon="38.3336380"><time>2020-10-31T07:27:48.393</time></trkpt><trkpt lat="55.6926800" lon="38.3337220"><time>2020-10-31T07:27:51.390</time></trkpt><trkpt lat="55.6926750" lon="38.3338130"><time>2020-10-31T07:27:53.387</time></trkpt><trkpt lat="55.6926820" lon="38.3339070"><time>2020-10-31T07:27:56.393</time></trkpt><trkpt lat="55.6926870" lon="38.3340170"><time>2020-10-31T07:27:59.390</time></trkpt><trkpt lat="55.6926730" lon="38.3341120"><time>2020-10-31T07:28:02.387</time></trkpt><trkpt lat="55.6926820" lon="38.3342150"><time>2020-10-31T07:28:06.390</time></trkpt><trkpt lat="55.6927050" lon="38.3342850"><time>2020-10-31T07:28:09.387</time></trkpt><trkpt lat="55.6927380" lon="38.3343520"><time>2020-10-31T07:28:12.387</time></trkpt><trkpt lat="55.6927720" lon="38.3344170"><time>2020-10-31T07:28:15.387</time></trkpt><trkpt lat="55.6927850" lon="38.3345200"><time>2020-10-31T07:28:18.390</time></trkpt><trkpt lat="55.6927830" lon="38.3346030"><time>2020-10-31T07:28:21.393</time></trkpt><trkpt lat="55.6928000" lon="38.3346780"><time>2020-10-31T07:28:24.390</time></trkpt><trkpt lat="55.6928280" lon="38.3347480"><time>2020-10-31T07:28:27.387</time></trkpt><trkpt lat="55.6928620" lon="38.3348230"><time>2020-10-31T07:28:30.390</time></trkpt><trkpt lat="55.6929000" lon="38.3348930"><time>2020-10-31T07:28:33.397</time></trkpt><trkpt lat="55.6929220" lon="38.3349700"><time>2020-10-31T07:28:36.390</time></trkpt><trkpt lat="55.6929300" lon="38.3350650"><time>2020-10-31T07:28:39.387</time></trkpt><trkpt lat="55.6929570" lon="38.3351380"><time>2020-10-31T07:28:42.387</time></trkpt><trkpt lat="55.6929650" lon="38.3352330"><time>2020-10-31T07:28:46.390</time></trkpt><trkpt lat="55.6929980" lon="38.3353020"><time>2020-10-31T07:28:50.387</time></trkpt><trkpt lat="55.6930420" lon="38.3353670"><time>2020-10-31T07:28:53.387</time></trkpt><trkpt lat="55.6930470" lon="38.3354730"><time>2020-10-31T07:28:56.390</time></trkpt><trkpt lat="55.6930500" lon="38.3356150"><time>2020-10-31T07:28:58.383</time></trkpt><trkpt lat="55.6930520" lon="38.3357550"><time>2020-10-31T07:29:00.390</time></trkpt><trkpt lat="55.6930600" lon="38.3358620"><time>2020-10-31T07:29:03.390</time></trkpt><trkpt lat="55.6930880" lon="38.3359300"><time>2020-10-31T07:29:06.397</time></trkpt><trkpt lat="55.6931270" lon="38.3360100"><time>2020-10-31T07:29:10.397</time></trkpt><trkpt lat="55.6931430" lon="38.3361300"><time>2020-10-31T07:29:13.387</time></trkpt><trkpt lat="55.6931620" lon="38.3362530"><time>2020-10-31T07:29:16.387</time></trkpt><trkpt lat="55.6931730" lon="38.3363550"><time>2020-10-31T07:29:18.387</time></trkpt><trkpt lat="55.6931830" lon="38.3364570"><time>2020-10-31T07:29:20.387</time></trkpt><trkpt lat="55.6931950" lon="38.3365430"><time>2020-10-31T07:29:22.387</time></trkpt><trkpt lat="55.6932170" lon="38.3366270"><time>2020-10-31T07:29:24.407</time></trkpt><trkpt lat="55.6932270" lon="38.3367070"><time>2020-10-31T07:29:26.393</time></trkpt><trkpt lat="55.6932350" lon="38.3368030"><time>2020-10-31T07:29:29.387</time></trkpt><trkpt lat="55.6932470" lon="38.3369070"><time>2020-10-31T07:29:31.390</time></trkpt><trkpt lat="55.6932620" lon="38.3370320"><time>2020-10-31T07:29:34.390</time></trkpt><trkpt lat="55.6932580" lon="38.3371570"><time>2020-10-31T07:29:36.390</time></trkpt><trkpt lat="55.6932730" lon="38.3372330"><time>2020-10-31T07:29:38.397</time></trkpt><trkpt lat="55.6933180" lon="38.3373020"><time>2020-10-31T07:29:41.390</time></trkpt><trkpt lat="55.6933500" lon="38.3373630"><time>2020-10-31T07:29:43.387</time></trkpt><trkpt lat="55.6933630" lon="38.3374500"><time>2020-10-31T07:29:45.390</time></trkpt><trkpt lat="55.6933820" lon="38.3375530"><time>2020-10-31T07:29:48.387</time></trkpt><trkpt lat="55.6933900" lon="38.3376770"><time>2020-10-31T07:29:51.380</time></trkpt><trkpt lat="55.6933980" lon="38.3377700"><time>2020-10-31T07:29:54.393</time></trkpt><trkpt lat="55.6933900" lon="38.3378850"><time>2020-10-31T07:29:57.397</time></trkpt><trkpt lat="55.6933970" lon="38.3380030"><time>2020-10-31T07:30:00.387</time></trkpt><trkpt lat="55.6933970" lon="38.3380980"><time>2020-10-31T07:30:03.350</time></trkpt><trkpt lat="55.6933930" lon="38.3381800"><time>2020-10-31T07:30:06.387</time></trkpt><trkpt lat="55.6934120" lon="38.3382700"><time>2020-10-31T07:30:09.393</time></trkpt><trkpt lat="55.6934000" lon="38.3383680"><time>2020-10-31T07:30:13.393</time></trkpt><trkpt lat="55.6934320" lon="38.3384380"><time>2020-10-31T07:30:16.390</time></trkpt><trkpt lat="55.6934230" lon="38.3385200"><time>2020-10-31T07:30:20.397</time></trkpt><trkpt lat="55.6934170" lon="38.3386000"><time>2020-10-31T07:30:23.383</time></trkpt><trkpt lat="55.6934050" lon="38.3386880"><time>2020-10-31T07:30:26.397</time></trkpt><trkpt lat="55.6934100" lon="38.3387880"><time>2020-10-31T07:30:30.400</time></trkpt><trkpt lat="55.6934170" lon="38.3389020"><time>2020-10-31T07:30:34.393</time></trkpt><trkpt lat="55.6934170" lon="38.3389820"><time>2020-10-31T07:30:36.393</time></trkpt><trkpt lat="55.6934180" lon="38.3390650"><time>2020-10-31T07:30:38.393</time></trkpt><trkpt lat="55.6934180" lon="38.3391480"><time>2020-10-31T07:30:40.393</time></trkpt><trkpt lat="55.6934050" lon="38.3392280"><time>2020-10-31T07:30:42.397</time></trkpt><trkpt lat="55.6933980" lon="38.3393180"><time>2020-10-31T07:30:45.397</time></trkpt><trkpt lat="55.6934020" lon="38.3394020"><time>2020-10-31T07:30:48.400</time></trkpt><trkpt lat="55.6933880" lon="38.3394820"><time>2020-10-31T07:30:53.387</time></trkpt><trkpt lat="55.6934120" lon="38.3395550"><time>2020-10-31T07:31:00.397</time></trkpt><trkpt lat="55.6933700" lon="38.3396550"><time>2020-10-31T07:31:05.393</time></trkpt><trkpt lat="55.6933520" lon="38.3397450"><time>2020-10-31T07:31:09.390</time></trkpt><trkpt lat="55.6933220" lon="38.3398330"><time>2020-10-31T07:31:13.403</time></trkpt><trkpt lat="55.6932980" lon="38.3399170"><time>2020-10-31T07:31:20.390</time></trkpt><trkpt lat="55.6932650" lon="38.3400120"><time>2020-10-31T07:31:24.367</time></trkpt><trkpt lat="55.6932270" lon="38.3400900"><time>2020-10-31T07:31:27.390</time></trkpt><trkpt lat="55.6931870" lon="38.3401820"><time>2020-10-31T07:31:30.390</time></trkpt><trkpt lat="55.6931470" lon="38.3402580"><time>2020-10-31T07:31:32.390</time></trkpt><trkpt lat="55.6930880" lon="38.3403700"><time>2020-10-31T07:31:36.390</time></trkpt><trkpt lat="55.6930430" lon="38.3404380"><time>2020-10-31T07:31:38.390</time></trkpt><trkpt lat="55.6930070" lon="38.3404880"><time>2020-10-31T07:31:40.397</time></trkpt><trkpt lat="55.6929450" lon="38.3405420"><time>2020-10-31T07:31:42.390</time></trkpt><trkpt lat="55.6929050" lon="38.3406000"><time>2020-10-31T07:31:44.390</time></trkpt><trkpt lat="55.6928500" lon="38.3406720"><time>2020-10-31T07:31:46.393</time></trkpt><trkpt lat="55.6928220" lon="38.3407520"><time>2020-10-31T07:31:48.393</time></trkpt><trkpt lat="55.6928100" lon="38.3408530"><time>2020-10-31T07:31:52.393</time></trkpt><trkpt lat="55.6927730" lon="38.3409830"><time>2020-10-31T07:31:55.390</time></trkpt><trkpt lat="55.6927470" lon="38.3410700"><time>2020-10-31T07:31:57.390</time></trkpt><trkpt lat="55.6927280" lon="38.3411530"><time>2020-10-31T07:32:01.390</time></trkpt><trkpt lat="55.6927070" lon="38.3412480"><time>2020-10-31T07:32:05.390</time></trkpt><trkpt lat="55.6926830" lon="38.3413370"><time>2020-10-31T07:32:08.390</time></trkpt><trkpt lat="55.6926450" lon="38.3414170"><time>2020-10-31T07:32:11.387</time></trkpt><trkpt lat="55.6926100" lon="38.3414720"><time>2020-10-31T07:32:13.377</time></trkpt><trkpt lat="55.6925650" lon="38.3415650"><time>2020-10-31T07:32:16.397</time></trkpt><trkpt lat="55.6925350" lon="38.3416380"><time>2020-10-31T07:32:18.400</time></trkpt><trkpt lat="55.6924970" lon="38.3417170"><time>2020-10-31T07:32:20.390</time></trkpt><trkpt lat="55.6924530" lon="38.3417820"><time>2020-10-31T07:32:22.390</time></trkpt><trkpt lat="55.6924130" lon="38.3418300"><time>2020-10-31T07:32:24.390</time></trkpt><trkpt lat="55.6923730" lon="38.3419030"><time>2020-10-31T07:32:26.393</time></trkpt><trkpt lat="55.6923330" lon="38.3419830"><time>2020-10-31T07:32:28.390</time></trkpt><trkpt lat="55.6922900" lon="38.3420550"><time>2020-10-31T07:32:30.390</time></trkpt><trkpt lat="55.6922570" lon="38.3421250"><time>2020-10-31T07:32:32.393</time></trkpt><trkpt lat="55.6922220" lon="38.3421950"><time>2020-10-31T07:32:34.390</time></trkpt><trkpt lat="55.6921780" lon="38.3422780"><time>2020-10-31T07:32:36.387</time></trkpt><trkpt lat="55.6921380" lon="38.3423520"><time>2020-10-31T07:32:38.393</time></trkpt><trkpt lat="55.6920950" lon="38.3424300"><time>2020-10-31T07:32:40.397</time></trkpt><trkpt lat="55.6920500" lon="38.3425070"><time>2020-10-31T07:32:42.390</time></trkpt><trkpt lat="55.6919970" lon="38.3425850"><time>2020-10-31T07:32:44.390</time></trkpt><trkpt lat="55.6919370" lon="38.3426520"><time>2020-10-31T07:32:46.390</time></trkpt><trkpt lat="55.6918930" lon="38.3427170"><time>2020-10-31T07:32:48.390</time></trkpt><trkpt lat="55.6918520" lon="38.3427780"><time>2020-10-31T07:32:50.397</time></trkpt><trkpt lat="55.6918000" lon="38.3428480"><time>2020-10-31T07:32:52.390</time></trkpt><trkpt lat="55.6917470" lon="38.3429050"><time>2020-10-31T07:32:54.387</time></trkpt><trkpt lat="55.6917070" lon="38.3429420"><time>2020-10-31T07:32:56.390</time></trkpt><trkpt lat="55.6916650" lon="38.3429980"><time>2020-10-31T07:32:59.390</time></trkpt><trkpt lat="55.6916220" lon="38.3430420"><time>2020-10-31T07:33:02.390</time></trkpt><trkpt lat="55.6915780" lon="38.3430830"><time>2020-10-31T07:33:06.387</time></trkpt><trkpt lat="55.6915350" lon="38.3431500"><time>2020-10-31T07:33:09.387</time></trkpt><trkpt lat="55.6914950" lon="38.3432200"><time>2020-10-31T07:33:12.397</time></trkpt><trkpt lat="55.6914580" lon="38.3432900"><time>2020-10-31T07:33:17.390</time></trkpt><trkpt lat="55.6914180" lon="38.3433500"><time>2020-10-31T07:33:20.390</time></trkpt><trkpt lat="55.6913780" lon="38.3434300"><time>2020-10-31T07:33:23.347</time></trkpt><trkpt lat="55.6913550" lon="38.3435150"><time>2020-10-31T07:33:26.397</time></trkpt><trkpt lat="55.6913280" lon="38.3435800"><time>2020-10-31T07:33:28.387</time></trkpt><trkpt lat="55.6912820" lon="38.3436300"><time>2020-10-31T07:33:32.390</time></trkpt><trkpt lat="55.6912470" lon="38.3436870"><time>2020-10-31T07:33:34.393</time></trkpt><trkpt lat="55.6911920" lon="38.3437630"><time>2020-10-31T07:33:37.397</time></trkpt><trkpt lat="55.6911500" lon="38.3438220"><time>2020-10-31T07:33:39.393</time></trkpt><trkpt lat="55.6911020" lon="38.3439080"><time>2020-10-31T07:33:42.390</time></trkpt><trkpt lat="55.6910570" lon="38.3439870"><time>2020-10-31T07:33:45.390</time></trkpt><trkpt lat="55.6910250" lon="38.3440480"><time>2020-10-31T07:33:47.390</time></trkpt><trkpt lat="55.6909830" lon="38.3441100"><time>2020-10-31T07:33:50.393</time></trkpt><trkpt lat="55.6909280" lon="38.3441550"><time>2020-10-31T07:33:53.387</time></trkpt><trkpt lat="55.6908850" lon="38.3442270"><time>2020-10-31T07:33:57.667</time></trkpt><trkpt lat="55.6908420" lon="38.3442780"><time>2020-10-31T07:33:59.387</time></trkpt><trkpt lat="55.6908020" lon="38.3443300"><time>2020-10-31T07:34:01.390</time></trkpt><trkpt lat="55.6907550" lon="38.3444120"><time>2020-10-31T07:34:04.387</time></trkpt><trkpt lat="55.6907150" lon="38.3444650"><time>2020-10-31T07:34:06.363</time></trkpt><trkpt lat="55.6906500" lon="38.3445630"><time>2020-10-31T07:34:08.397</time></trkpt><trkpt lat="55.6906120" lon="38.3446420"><time>2020-10-31T07:34:10.393</time></trkpt><trkpt lat="55.6905780" lon="38.3447080"><time>2020-10-31T07:34:13.387</time></trkpt><trkpt lat="55.6905630" lon="38.3447920"><time>2020-10-31T07:34:16.390</time></trkpt><trkpt lat="55.6905150" lon="38.3448630"><time>2020-10-31T07:34:19.390</time></trkpt><trkpt lat="55.6904580" lon="38.3449020"><time>2020-10-31T07:34:22.387</time></trkpt><trkpt lat="55.6904180" lon="38.3449600"><time>2020-10-31T07:34:24.390</time></trkpt><trkpt lat="55.6903680" lon="38.3450230"><time>2020-10-31T07:34:26.390</time></trkpt><trkpt lat="55.6903220" lon="38.3450720"><time>2020-10-31T07:34:28.390</time></trkpt><trkpt lat="55.6902820" lon="38.3451270"><time>2020-10-31T07:34:30.390</time></trkpt><trkpt lat="55.6902280" lon="38.3451730"><time>2020-10-31T07:34:33.390</time></trkpt><trkpt lat="55.6901670" lon="38.3452220"><time>2020-10-31T07:34:36.390</time></trkpt><trkpt lat="55.6901200" lon="38.3452470"><time>2020-10-31T07:34:38.387</time></trkpt><trkpt lat="55.6900700" lon="38.3452630"><time>2020-10-31T07:34:41.387</time></trkpt><trkpt lat="55.6900280" lon="38.3453350"><time>2020-10-31T07:34:45.397</time></trkpt><trkpt lat="55.6899850" lon="38.3453820"><time>2020-10-31T07:34:49.390</time></trkpt><trkpt lat="55.6899020" lon="38.3454900"><time>2020-10-31T07:34:56.390</time></trkpt><trkpt lat="55.6898450" lon="38.3455370"><time>2020-10-31T07:34:59.387</time></trkpt><trkpt lat="55.6897850" lon="38.3455950"><time>2020-10-31T07:35:02.387</time></trkpt><trkpt lat="55.6897300" lon="38.3456280"><time>2020-10-31T07:35:05.390</time></trkpt><trkpt lat="55.6896830" lon="38.3456370"><time>2020-10-31T07:35:08.387</time></trkpt><trkpt lat="55.6896380" lon="38.3456650"><time>2020-10-31T07:35:11.390</time></trkpt><trkpt lat="55.6895780" lon="38.3456980"><time>2020-10-31T07:35:14.390</time></trkpt><trkpt lat="55.6895330" lon="38.3457220"><time>2020-10-31T07:35:17.387</time></trkpt><trkpt lat="55.6894930" lon="38.3457670"><time>2020-10-31T07:35:20.390</time></trkpt><trkpt lat="55.6894580" lon="38.3458280"><time>2020-10-31T07:35:26.393</time></trkpt><trkpt lat="55.6894250" lon="38.3458870"><time>2020-10-31T07:35:37.393</time></trkpt><trkpt lat="55.6894050" lon="38.3459630"><time>2020-10-31T07:35:41.393</time></trkpt><trkpt lat="55.6893820" lon="38.3460380"><time>2020-10-31T07:35:44.387</time></trkpt><trkpt lat="55.6893550" lon="38.3461150"><time>2020-10-31T07:35:48.387</time></trkpt><trkpt lat="55.6893220" lon="38.3461880"><time>2020-10-31T07:35:54.390</time></trkpt><trkpt lat="55.6893000" lon="38.3462800"><time>2020-10-31T07:35:57.390</time></trkpt><trkpt lat="55.6893050" lon="38.3463780"><time>2020-10-31T07:36:01.390</time></trkpt><trkpt lat="55.6892850" lon="38.3464720"><time>2020-10-31T07:36:05.393</time></trkpt><trkpt lat="55.6892550" lon="38.3465600"><time>2020-10-31T07:36:09.397</time></trkpt><trkpt lat="55.6892300" lon="38.3466330"><time>2020-10-31T07:36:12.393</time></trkpt><trkpt lat="55.6892020" lon="38.3467150"><time>2020-10-31T07:36:16.390</time></trkpt><trkpt lat="55.6891830" lon="38.3467880"><time>2020-10-31T07:36:19.390</time></trkpt><trkpt lat="55.6891480" lon="38.3468770"><time>2020-10-31T07:36:22.387</time></trkpt><trkpt lat="55.6891230" lon="38.3469700"><time>2020-10-31T07:36:25.387</time></trkpt><trkpt lat="55.6891100" lon="38.3470520"><time>2020-10-31T07:36:28.390</time></trkpt><trkpt lat="55.6890830" lon="38.3471270"><time>2020-10-31T07:36:31.387</time></trkpt><trkpt lat="55.6890600" lon="38.3472100"><time>2020-10-31T07:36:35.390</time></trkpt><trkpt lat="55.6890370" lon="38.3473030"><time>2020-10-31T07:36:41.387</time></trkpt><trkpt lat="55.6890020" lon="38.3473820"><time>2020-10-31T07:36:46.390</time></trkpt><trkpt lat="55.6889880" lon="38.3474630"><time>2020-10-31T07:36:52.397</time></trkpt><trkpt lat="55.6889430" lon="38.3474980"><time>2020-10-31T07:36:56.390</time></trkpt><trkpt lat="55.6889200" lon="38.3475800"><time>2020-10-31T07:37:23.387</time></trkpt><trkpt lat="55.6888780" lon="38.3476470"><time>2020-10-31T07:37:34.390</time></trkpt><trkpt lat="55.6888330" lon="38.3476830"><time>2020-10-31T07:37:44.390</time></trkpt><trkpt lat="55.6887300" lon="38.3477500"><time>2020-10-31T07:37:55.393</time></trkpt><trkpt lat="55.6886820" lon="38.3478120"><time>2020-10-31T07:37:59.387</time></trkpt><trkpt lat="55.6886370" lon="38.3478570"><time>2020-10-31T07:38:02.390</time></trkpt><trkpt lat="55.6885970" lon="38.3479200"><time>2020-10-31T07:38:06.390</time></trkpt><trkpt lat="55.6885530" lon="38.3479670"><time>2020-10-31T07:38:14.397</time></trkpt><trkpt lat="55.6885100" lon="38.3480030"><time>2020-10-31T07:38:17.393</time></trkpt><trkpt lat="55.6884670" lon="38.3480580"><time>2020-10-31T07:38:23.387</time></trkpt><trkpt lat="55.6884270" lon="38.3481150"><time>2020-10-31T07:38:30.390</time></trkpt><trkpt lat="55.6883750" lon="38.3481600"><time>2020-10-31T07:38:35.393</time></trkpt><trkpt lat="55.6883170" lon="38.3482070"><time>2020-10-31T07:38:41.390</time></trkpt><trkpt lat="55.6882680" lon="38.3482320"><time>2020-10-31T07:38:50.387</time></trkpt><trkpt lat="55.6882220" lon="38.3482580"><time>2020-10-31T07:38:54.393</time></trkpt><trkpt lat="55.6881620" lon="38.3482770"><time>2020-10-31T07:38:59.390</time></trkpt><trkpt lat="55.6881180" lon="38.3483130"><time>2020-10-31T07:39:02.390</time></trkpt><trkpt lat="55.6880680" lon="38.3483620"><time>2020-10-31T07:39:06.390</time></trkpt><trkpt lat="55.6880270" lon="38.3484120"><time>2020-10-31T07:39:10.390</time></trkpt><trkpt lat="55.6879850" lon="38.3484500"><time>2020-10-31T07:39:14.390</time></trkpt><trkpt lat="55.6879500" lon="38.3485130"><time>2020-10-31T07:39:18.390</time></trkpt><trkpt lat="55.6879150" lon="38.3485670"><time>2020-10-31T07:39:21.390</time></trkpt><trkpt lat="55.6879050" lon="38.3486530"><time>2020-10-31T07:39:27.397</time></trkpt><trkpt lat="55.6878720" lon="38.3487280"><time>2020-10-31T07:39:37.397</time></trkpt><trkpt lat="55.6878650" lon="38.3488130"><time>2020-10-31T07:39:40.393</time></trkpt><trkpt lat="55.6878780" lon="38.3489280"><time>2020-10-31T07:39:43.393</time></trkpt><trkpt lat="55.6878850" lon="38.3490330"><time>2020-10-31T07:39:46.397</time></trkpt><trkpt lat="55.6879130" lon="38.3491430"><time>2020-10-31T07:39:49.393</time></trkpt><trkpt lat="55.6879480" lon="38.3492030"><time>2020-10-31T07:39:53.363</time></trkpt><trkpt lat="55.6879800" lon="38.3492800"><time>2020-10-31T07:39:58.403</time></trkpt><trkpt lat="55.6879780" lon="38.3493750"><time>2020-10-31T07:40:02.393</time></trkpt><trkpt lat="55.6879700" lon="38.3494580"><time>2020-10-31T07:40:05.390</time></trkpt><trkpt lat="55.6879750" lon="38.3495530"><time>2020-10-31T07:40:09.397</time></trkpt><trkpt lat="55.6879870" lon="38.3496370"><time>2020-10-31T07:40:12.390</time></trkpt><trkpt lat="55.6880070" lon="38.3497350"><time>2020-10-31T07:40:16.393</time></trkpt><trkpt lat="55.6879080" lon="38.3498630"><time>2020-10-31T07:40:19.390</time></trkpt><trkpt lat="55.6878220" lon="38.3499570"><time>2020-10-31T07:40:21.387</time></trkpt><trkpt lat="55.6877530" lon="38.3500100"><time>2020-10-31T07:40:22.387</time></trkpt><trkpt lat="55.6876900" lon="38.3500550"><time>2020-10-31T07:40:23.387</time></trkpt><trkpt lat="55.6876120" lon="38.3501120"><time>2020-10-31T07:40:24.453</time></trkpt><trkpt lat="55.6875720" lon="38.3501500"><time>2020-10-31T07:40:25.387</time></trkpt><trkpt lat="55.6875100" lon="38.3501870"><time>2020-10-31T07:40:26.350</time></trkpt><trkpt lat="55.6874630" lon="38.3502250"><time>2020-10-31T07:40:27.393</time></trkpt><trkpt lat="55.6874170" lon="38.3502680"><time>2020-10-31T07:40:28.393</time></trkpt><trkpt lat="55.6873630" lon="38.3503320"><time>2020-10-31T07:40:30.407</time></trkpt><trkpt lat="55.6873050" lon="38.3503870"><time>2020-10-31T07:40:33.393</time></trkpt><trkpt lat="55.6872670" lon="38.3504350"><time>2020-10-31T07:40:39.390</time></trkpt><trkpt lat="55.6872050" lon="38.3504480"><time>2020-10-31T07:40:42.387</time></trkpt><trkpt lat="55.6871420" lon="38.3504750"><time>2020-10-31T07:40:45.390</time></trkpt><trkpt lat="55.6870920" lon="38.3504950"><time>2020-10-31T07:40:48.393</time></trkpt><trkpt lat="55.6870130" lon="38.3505650"><time>2020-10-31T07:40:53.390</time></trkpt><trkpt lat="55.6869770" lon="38.3506320"><time>2020-10-31T07:40:58.393</time></trkpt><trkpt lat="55.6869370" lon="38.3506980"><time>2020-10-31T07:41:02.393</time></trkpt><trkpt lat="55.6868950" lon="38.3507430"><time>2020-10-31T07:41:09.390</time></trkpt><trkpt lat="55.6868630" lon="38.3508200"><time>2020-10-31T07:41:13.397</time></trkpt><trkpt lat="55.6868550" lon="38.3509000"><time>2020-10-31T07:41:19.390</time></trkpt><trkpt lat="55.6868680" lon="38.3509880"><time>2020-10-31T07:41:25.387</time></trkpt><trkpt lat="55.6868630" lon="38.3510780"><time>2020-10-31T07:41:30.390</time></trkpt><trkpt lat="55.6868580" lon="38.3511750"><time>2020-10-31T07:41:37.390</time></trkpt><trkpt lat="55.6868500" lon="38.3512720"><time>2020-10-31T07:41:42.387</time></trkpt><trkpt lat="55.6868250" lon="38.3514550"><time>2020-10-31T07:41:58.397</time></trkpt><trkpt lat="55.6868350" lon="38.3515450"><time>2020-10-31T07:42:04.390</time></trkpt><trkpt lat="55.6868180" lon="38.3516270"><time>2020-10-31T07:42:08.387</time></trkpt><trkpt lat="55.6867970" lon="38.3516970"><time>2020-10-31T07:42:14.397</time></trkpt><trkpt lat="55.6868050" lon="38.3517830"><time>2020-10-31T07:42:20.393</time></trkpt><trkpt lat="55.6878270" lon="38.3536030"><time>2020-10-31T07:43:47.390</time></trkpt><trkpt lat="55.6878120" lon="38.3536820"><time>2020-10-31T07:43:55.390</time></trkpt><trkpt lat="55.6877730" lon="38.3537380"><time>2020-10-31T07:44:01.400</time></trkpt><trkpt lat="55.6878330" lon="38.3538100"><time>2020-10-31T07:44:04.390</time></trkpt><trkpt lat="55.6878330" lon="38.3538150"><time>2020-10-31T07:49:37.720</time></trkpt><trkpt lat="55.6929750" lon="38.3771400"><time>2020-10-31T08:04:42.393</time></trkpt><trkpt lat="55.6928250" lon="38.3769650"><time>2020-10-31T08:04:43.393</time></trkpt><trkpt lat="55.6927150" lon="38.3768600"><time>2020-10-31T08:04:46.390</time></trkpt><trkpt lat="55.6926650" lon="38.3768170"><time>2020-10-31T08:04:47.390</time></trkpt><trkpt lat="55.6926070" lon="38.3767880"><time>2020-10-31T08:04:50.393</time></trkpt><trkpt lat="55.6925650" lon="38.3768320"><time>2020-10-31T08:04:57.390</time></trkpt><trkpt lat="55.6925730" lon="38.3769200"><time>2020-10-31T08:05:05.390</time></trkpt><trkpt lat="55.6925500" lon="38.3770020"><time>2020-10-31T08:05:13.393</time></trkpt><trkpt lat="55.6925280" lon="38.3770720"><time>2020-10-31T08:05:19.393</time></trkpt><trkpt lat="55.6924920" lon="38.3771280"><time>2020-10-31T08:05:24.393</time></trkpt><trkpt lat="55.6924770" lon="38.3772120"><time>2020-10-31T08:05:34.360</time></trkpt><trkpt lat="55.6924850" lon="38.3773020"><time>2020-10-31T08:05:40.390</time></trkpt><trkpt lat="55.6924830" lon="38.3773820"><time>2020-10-31T08:05:44.390</time></trkpt><trkpt lat="55.6924780" lon="38.3774670"><time>2020-10-31T08:05:48.390</time></trkpt><trkpt lat="55.6924850" lon="38.3775550"><time>2020-10-31T08:05:54.397</time></trkpt><trkpt lat="55.6924750" lon="38.3776470"><time>2020-10-31T08:05:57.393</time></trkpt><trkpt lat="55.6924630" lon="38.3777350"><time>2020-10-31T08:06:01.397</time></trkpt><trkpt lat="55.6924820" lon="38.3778130"><time>2020-10-31T08:06:05.393</time></trkpt><trkpt lat="55.6924870" lon="38.3779200"><time>2020-10-31T08:06:09.387</time></trkpt><trkpt lat="55.6924870" lon="38.3780120"><time>2020-10-31T08:06:13.393</time></trkpt><trkpt lat="55.6924820" lon="38.3780920"><time>2020-10-31T08:06:17.390</time></trkpt><trkpt lat="55.6924870" lon="38.3781800"><time>2020-10-31T08:06:21.390</time></trkpt><trkpt lat="55.6924980" lon="38.3782670"><time>2020-10-31T08:06:25.393</time></trkpt><trkpt lat="55.6924950" lon="38.3783480"><time>2020-10-31T08:06:29.390</time></trkpt><trkpt lat="55.6924980" lon="38.3784330"><time>2020-10-31T08:06:34.390</time></trkpt><trkpt lat="55.6924920" lon="38.3785200"><time>2020-10-31T08:06:40.397</time></trkpt><trkpt lat="55.6925320" lon="38.3785570"><time>2020-10-31T08:06:44.393</time></trkpt><trkpt lat="55.6925120" lon="38.3786450"><time>2020-10-31T08:06:48.393</time></trkpt><trkpt lat="55.6925420" lon="38.3787230"><time>2020-10-31T08:06:54.390</time></trkpt><trkpt lat="55.6925380" lon="38.3788250"><time>2020-10-31T08:07:01.393</time></trkpt><trkpt lat="55.6925030" lon="38.3788920"><time>2020-10-31T08:07:05.390</time></trkpt><trkpt lat="55.6925300" lon="38.3789650"><time>2020-10-31T08:07:11.397</time></trkpt><trkpt lat="55.6925330" lon="38.3790530"><time>2020-10-31T08:07:16.390</time></trkpt><trkpt lat="55.6925380" lon="38.3791370"><time>2020-10-31T08:07:20.393</time></trkpt><trkpt lat="55.6925400" lon="38.3792220"><time>2020-10-31T08:07:25.397</time></trkpt><trkpt lat="55.6925270" lon="38.3793120"><time>2020-10-31T08:07:29.390</time></trkpt><trkpt lat="55.6925230" lon="38.3794030"><time>2020-10-31T08:07:34.390</time></trkpt><trkpt lat="55.6925280" lon="38.3794830"><time>2020-10-31T08:07:39.390</time></trkpt><trkpt lat="55.6925170" lon="38.3795880"><time>2020-10-31T08:07:45.390</time></trkpt><trkpt lat="55.6924820" lon="38.3796680"><time>2020-10-31T08:07:48.397</time></trkpt><trkpt lat="55.6924430" lon="38.3797430"><time>2020-10-31T08:07:51.390</time></trkpt><trkpt lat="55.6925100" lon="38.3797870"><time>2020-10-31T08:07:54.397</time></trkpt><trkpt lat="55.6925570" lon="38.3798300"><time>2020-10-31T08:07:59.390</time></trkpt><trkpt lat="55.6925820" lon="38.3799180"><time>2020-10-31T08:08:04.393</time></trkpt><trkpt lat="55.6925970" lon="38.3800120"><time>2020-10-31T08:08:08.393</time></trkpt><trkpt lat="55.6926230" lon="38.3800800"><time>2020-10-31T08:08:11.393</time></trkpt><trkpt lat="55.6926670" lon="38.3801270"><time>2020-10-31T08:08:14.390</time></trkpt><trkpt lat="55.6927070" lon="38.3801680"><time>2020-10-31T08:08:17.390</time></trkpt><trkpt lat="55.6927280" lon="38.3802450"><time>2020-10-31T08:08:21.393</time></trkpt><trkpt lat="55.6927250" lon="38.3803350"><time>2020-10-31T08:08:25.397</time></trkpt><trkpt lat="55.6927580" lon="38.3803980"><time>2020-10-31T08:08:29.397</time></trkpt><trkpt lat="55.6927600" lon="38.3805800"><time>2020-10-31T08:08:38.400</time></trkpt><trkpt lat="55.6927650" lon="38.3806700"><time>2020-10-31T08:08:42.393</time></trkpt><trkpt lat="55.6927600" lon="38.3807520"><time>2020-10-31T08:08:46.397</time></trkpt><trkpt lat="55.6927550" lon="38.3808430"><time>2020-10-31T08:08:50.390</time></trkpt><trkpt lat="55.6927420" lon="38.3809300"><time>2020-10-31T08:08:54.393</time></trkpt><trkpt lat="55.6927380" lon="38.3810180"><time>2020-10-31T08:08:59.393</time></trkpt><trkpt lat="55.6927650" lon="38.3810900"><time>2020-10-31T08:09:03.397</time></trkpt><trkpt lat="55.6927670" lon="38.3811770"><time>2020-10-31T08:09:07.393</time></trkpt><trkpt lat="55.6927600" lon="38.3812720"><time>2020-10-31T08:09:11.390</time></trkpt><trkpt lat="55.6927830" lon="38.3813580"><time>2020-10-31T08:09:15.393</time></trkpt><trkpt lat="55.6928050" lon="38.3814380"><time>2020-10-31T08:09:19.393</time></trkpt><trkpt lat="55.6928320" lon="38.3815300"><time>2020-10-31T08:09:23.397</time></trkpt><trkpt lat="55.6928470" lon="38.3816070"><time>2020-10-31T08:09:26.393</time></trkpt><trkpt lat="55.6928350" lon="38.3816870"><time>2020-10-31T08:09:30.390</time></trkpt><trkpt lat="55.6928180" lon="38.3817730"><time>2020-10-31T08:09:35.393</time></trkpt><trkpt lat="55.6928070" lon="38.3818700"><time>2020-10-31T08:09:39.393</time></trkpt><trkpt lat="55.6927820" lon="38.3819770"><time>2020-10-31T08:09:42.393</time></trkpt><trkpt lat="55.6927580" lon="38.3820800"><time>2020-10-31T08:09:45.393</time></trkpt><trkpt lat="55.6927450" lon="38.3821630"><time>2020-10-31T08:09:48.393</time></trkpt><trkpt lat="55.6927400" lon="38.3822730"><time>2020-10-31T08:09:52.393</time></trkpt><trkpt lat="55.6927180" lon="38.3823530"><time>2020-10-31T08:09:55.393</time></trkpt><trkpt lat="55.6927100" lon="38.3824520"><time>2020-10-31T08:10:00.393</time></trkpt><trkpt lat="55.6927280" lon="38.3825620"><time>2020-10-31T08:10:05.393</time></trkpt><trkpt lat="55.6927300" lon="38.3826570"><time>2020-10-31T08:10:08.393</time></trkpt><trkpt lat="55.6927180" lon="38.3827550"><time>2020-10-31T08:10:12.393</time></trkpt><trkpt lat="55.6927150" lon="38.3828570"><time>2020-10-31T08:10:16.397</time></trkpt><trkpt lat="55.6926950" lon="38.3829430"><time>2020-10-31T08:10:19.393</time></trkpt><trkpt lat="55.6926730" lon="38.3830300"><time>2020-10-31T08:10:23.393</time></trkpt><trkpt lat="55.6926650" lon="38.3831220"><time>2020-10-31T08:10:27.393</time></trkpt><trkpt lat="55.6926630" lon="38.3832200"><time>2020-10-31T08:10:31.397</time></trkpt><trkpt lat="55.6926550" lon="38.3833250"><time>2020-10-31T08:10:35.393</time></trkpt><trkpt lat="55.6926700" lon="38.3834080"><time>2020-10-31T08:10:40.390</time></trkpt><trkpt lat="55.6926580" lon="38.3834950"><time>2020-10-31T08:10:43.397</time></trkpt><trkpt lat="55.6926330" lon="38.3835800"><time>2020-10-31T08:10:46.393</time></trkpt><trkpt lat="55.6926130" lon="38.3836730"><time>2020-10-31T08:10:49.377</time></trkpt><trkpt lat="55.6926030" lon="38.3837620"><time>2020-10-31T08:10:52.393</time></trkpt><trkpt lat="55.6925870" lon="38.3838400"><time>2020-10-31T08:10:55.393</time></trkpt><trkpt lat="55.6925680" lon="38.3839270"><time>2020-10-31T08:10:58.393</time></trkpt><trkpt lat="55.6925600" lon="38.3840170"><time>2020-10-31T08:11:01.393</time></trkpt><trkpt lat="55.6925520" lon="38.3840950"><time>2020-10-31T08:11:04.393</time></trkpt><trkpt lat="55.6925520" lon="38.3841800"><time>2020-10-31T08:11:09.393</time></trkpt><trkpt lat="55.6925770" lon="38.3842520"><time>2020-10-31T08:11:13.393</time></trkpt><trkpt lat="55.6925930" lon="38.3843320"><time>2020-10-31T08:11:17.390</time></trkpt><trkpt lat="55.6925730" lon="38.3844100"><time>2020-10-31T08:11:19.393</time></trkpt><trkpt lat="55.6925570" lon="38.3845050"><time>2020-10-31T08:11:23.393</time></trkpt><trkpt lat="55.6925500" lon="38.3846120"><time>2020-10-31T08:11:27.390</time></trkpt><trkpt lat="55.6925480" lon="38.3847030"><time>2020-10-31T08:11:31.393</time></trkpt><trkpt lat="55.6925480" lon="38.3848020"><time>2020-10-31T08:11:35.390</time></trkpt><trkpt lat="55.6925400" lon="38.3848920"><time>2020-10-31T08:11:39.393</time></trkpt><trkpt lat="55.6925130" lon="38.3849880"><time>2020-10-31T08:11:42.393</time></trkpt><trkpt lat="55.6924820" lon="38.3850930"><time>2020-10-31T08:11:45.393</time></trkpt><trkpt lat="55.6924600" lon="38.3851700"><time>2020-10-31T08:11:48.393</time></trkpt><trkpt lat="55.6924500" lon="38.3852650"><time>2020-10-31T08:11:52.390</time></trkpt><trkpt lat="55.6924330" lon="38.3853570"><time>2020-10-31T08:11:56.397</time></trkpt><trkpt lat="55.6924220" lon="38.3854470"><time>2020-10-31T08:12:00.390</time></trkpt><trkpt lat="55.6924180" lon="38.3855320"><time>2020-10-31T08:12:03.397</time></trkpt><trkpt lat="55.6924200" lon="38.3856120"><time>2020-10-31T08:12:06.397</time></trkpt><trkpt lat="55.6923980" lon="38.3857070"><time>2020-10-31T08:12:09.390</time></trkpt><trkpt lat="55.6923770" lon="38.3857970"><time>2020-10-31T08:12:13.397</time></trkpt><trkpt lat="55.6923620" lon="38.3858720"><time>2020-10-31T08:12:17.393</time></trkpt><trkpt lat="55.6923450" lon="38.3859580"><time>2020-10-31T08:12:20.393</time></trkpt><trkpt lat="55.6923520" lon="38.3860450"><time>2020-10-31T08:12:24.397</time></trkpt><trkpt lat="55.6923300" lon="38.3861600"><time>2020-10-31T08:12:27.390</time></trkpt><trkpt lat="55.6923050" lon="38.3862580"><time>2020-10-31T08:12:29.393</time></trkpt><trkpt lat="55.6922830" lon="38.3863330"><time>2020-10-31T08:12:31.393</time></trkpt><trkpt lat="55.6922600" lon="38.3864170"><time>2020-10-31T08:12:33.387</time></trkpt><trkpt lat="55.6922330" lon="38.3865370"><time>2020-10-31T08:12:36.397</time></trkpt><trkpt lat="55.6922120" lon="38.3866280"><time>2020-10-31T08:12:38.393</time></trkpt><trkpt lat="55.6921900" lon="38.3867080"><time>2020-10-31T08:12:41.390</time></trkpt><trkpt lat="55.6922520" lon="38.3867980"><time>2020-10-31T08:12:44.390</time></trkpt><trkpt lat="55.6922950" lon="38.3868950"><time>2020-10-31T08:12:47.397</time></trkpt><trkpt lat="55.6922730" lon="38.3869900"><time>2020-10-31T08:12:50.397</time></trkpt><trkpt lat="55.6922650" lon="38.3871080"><time>2020-10-31T08:12:53.393</time></trkpt><trkpt lat="55.6923100" lon="38.3871300"><time>2020-10-31T08:12:54.393</time></trkpt><trkpt lat="55.6923830" lon="38.3871650"><time>2020-10-31T08:12:56.370</time></trkpt><trkpt lat="55.6923880" lon="38.3872450"><time>2020-10-31T08:12:59.393</time></trkpt><trkpt lat="55.6923730" lon="38.3873580"><time>2020-10-31T08:13:02.393</time></trkpt><trkpt lat="55.6923530" lon="38.3874370"><time>2020-10-31T08:13:04.403</time></trkpt><trkpt lat="55.6923370" lon="38.3875350"><time>2020-10-31T08:13:06.393</time></trkpt><trkpt lat="55.6923700" lon="38.3875970"><time>2020-10-31T08:13:08.397</time></trkpt><trkpt lat="55.6923630" lon="38.3877200"><time>2020-10-31T08:13:11.383</time></trkpt><trkpt lat="55.6923730" lon="38.3878080"><time>2020-10-31T08:13:13.397</time></trkpt><trkpt lat="55.6923770" lon="38.3878930"><time>2020-10-31T08:13:15.393</time></trkpt><trkpt lat="55.6923770" lon="38.3879820"><time>2020-10-31T08:13:17.400</time></trkpt><trkpt lat="55.6923720" lon="38.3880950"><time>2020-10-31T08:13:19.393</time></trkpt><trkpt lat="55.6924030" lon="38.3881850"><time>2020-10-31T08:13:22.393</time></trkpt><trkpt lat="55.6924370" lon="38.3882600"><time>2020-10-31T08:13:25.400</time></trkpt><trkpt lat="55.6924420" lon="38.3883580"><time>2020-10-31T08:13:27.397</time></trkpt><trkpt lat="55.6924430" lon="38.3884680"><time>2020-10-31T08:13:29.387</time></trkpt><trkpt lat="55.6924400" lon="38.3885770"><time>2020-10-31T08:13:31.400</time></trkpt><trkpt lat="55.6924350" lon="38.3886980"><time>2020-10-31T08:13:34.403</time></trkpt><trkpt lat="55.6924480" lon="38.3888050"><time>2020-10-31T08:13:36.397</time></trkpt><trkpt lat="55.6924650" lon="38.3889280"><time>2020-10-31T08:13:39.393</time></trkpt><trkpt lat="55.6924800" lon="38.3890320"><time>2020-10-31T08:13:41.393</time></trkpt><trkpt lat="55.6924820" lon="38.3891320"><time>2020-10-31T08:13:43.397</time></trkpt><trkpt lat="55.6924850" lon="38.3892250"><time>2020-10-31T08:13:45.397</time></trkpt><trkpt lat="55.6924950" lon="38.3893450"><time>2020-10-31T08:13:48.397</time></trkpt><trkpt lat="55.6924970" lon="38.3894550"><time>2020-10-31T08:13:50.353</time></trkpt><trkpt lat="55.6925000" lon="38.3895700"><time>2020-10-31T08:13:52.397</time></trkpt><trkpt lat="55.6924970" lon="38.3896700"><time>2020-10-31T08:13:54.397</time></trkpt><trkpt lat="55.6924920" lon="38.3897850"><time>2020-10-31T08:13:56.407</time></trkpt><trkpt lat="55.6924980" lon="38.3898930"><time>2020-10-31T08:13:58.397</time></trkpt><trkpt lat="55.6925030" lon="38.3900000"><time>2020-10-31T08:14:00.393</time></trkpt><trkpt lat="55.6925130" lon="38.3900930"><time>2020-10-31T08:14:02.397</time></trkpt><trkpt lat="55.6925130" lon="38.3902000"><time>2020-10-31T08:14:04.397</time></trkpt><trkpt lat="55.6925080" lon="38.3902900"><time>2020-10-31T08:14:06.390</time></trkpt><trkpt lat="55.6925100" lon="38.3903780"><time>2020-10-31T08:14:08.400</time></trkpt><trkpt lat="55.6925000" lon="38.3904630"><time>2020-10-31T08:14:10.400</time></trkpt><trkpt lat="55.6925100" lon="38.3905550"><time>2020-10-31T08:14:12.400</time></trkpt><trkpt lat="55.6925150" lon="38.3906380"><time>2020-10-31T08:14:14.393</time></trkpt><trkpt lat="55.6925350" lon="38.3907400"><time>2020-10-31T08:14:17.397</time></trkpt><trkpt lat="55.6925450" lon="38.3908450"><time>2020-10-31T08:14:20.400</time></trkpt><trkpt lat="55.6925700" lon="38.3909120"><time>2020-10-31T08:14:22.397</time></trkpt><trkpt lat="55.6925850" lon="38.3910180"><time>2020-10-31T08:14:25.393</time></trkpt><trkpt lat="55.6926080" lon="38.3910920"><time>2020-10-31T08:14:27.397</time></trkpt><trkpt lat="55.6926180" lon="38.3911900"><time>2020-10-31T08:14:29.393</time></trkpt><trkpt lat="55.6926270" lon="38.3912720"><time>2020-10-31T08:14:31.403</time></trkpt><trkpt lat="55.6926320" lon="38.3913530"><time>2020-10-31T08:14:33.403</time></trkpt><trkpt lat="55.6926270" lon="38.3914720"><time>2020-10-31T08:14:36.390</time></trkpt><trkpt lat="55.6926650" lon="38.3915470"><time>2020-10-31T08:14:40.400</time></trkpt><trkpt lat="55.6926830" lon="38.3916200"><time>2020-10-31T08:14:44.377</time></trkpt><trkpt lat="55.6926980" lon="38.3916980"><time>2020-10-31T08:14:48.393</time></trkpt><trkpt lat="55.6927050" lon="38.3917870"><time>2020-10-31T08:14:51.393</time></trkpt><trkpt lat="55.6926920" lon="38.3919470"><time>2020-10-31T08:14:56.667</time></trkpt><trkpt lat="55.6926470" lon="38.3920370"><time>2020-10-31T08:14:59.357</time></trkpt><trkpt lat="55.6926450" lon="38.3921170"><time>2020-10-31T08:15:02.367</time></trkpt><trkpt lat="55.6926350" lon="38.3921970"><time>2020-10-31T08:15:05.357</time></trkpt><trkpt lat="55.6926570" lon="38.3922750"><time>2020-10-31T08:15:09.387</time></trkpt><trkpt lat="55.6926920" lon="38.3923600"><time>2020-10-31T08:15:11.390</time></trkpt><trkpt lat="55.6927200" lon="38.3924250"><time>2020-10-31T08:15:12.387</time></trkpt><trkpt lat="55.6927200" lon="38.3926200"><time>2020-10-31T08:15:14.393</time></trkpt><trkpt lat="55.6927050" lon="38.3927670"><time>2020-10-31T08:15:15.390</time></trkpt><trkpt lat="55.6926850" lon="38.3928920"><time>2020-10-31T08:15:16.397</time></trkpt><trkpt lat="55.6926930" lon="38.3930430"><time>2020-10-31T08:15:18.393</time></trkpt><trkpt lat="55.6927880" lon="38.3931000"><time>2020-10-31T08:15:19.393</time></trkpt><trkpt lat="55.6927850" lon="38.3930030"><time>2020-10-31T08:15:20.397</time></trkpt><trkpt lat="55.6928220" lon="38.3929030"><time>2020-10-31T08:15:22.393</time></trkpt><trkpt lat="55.6927800" lon="38.3928330"><time>2020-10-31T08:15:23.393</time></trkpt><trkpt lat="55.6927380" lon="38.3927530"><time>2020-10-31T08:15:24.393</time></trkpt><trkpt lat="55.6894700" lon="38.4139350"><time>2020-10-31T08:15:34.397</time></trkpt><trkpt lat="55.6893850" lon="38.4141170"><time>2020-10-31T08:15:35.393</time></trkpt><trkpt lat="55.6893120" lon="38.4141850"><time>2020-10-31T08:15:36.397</time></trkpt><trkpt lat="55.6893180" lon="38.4142720"><time>2020-10-31T08:15:37.397</time></trkpt><trkpt lat="55.6893380" lon="38.4143680"><time>2020-10-31T08:15:39.393</time></trkpt><trkpt lat="55.6892650" lon="38.4143830"><time>2020-10-31T08:15:42.393</time></trkpt><trkpt lat="55.6891750" lon="38.4146030"><time>2020-10-31T08:15:44.397</time></trkpt><trkpt lat="55.6891570" lon="38.4146830"><time>2020-10-31T08:15:45.397</time></trkpt><trkpt lat="55.6891370" lon="38.4147550"><time>2020-10-31T08:15:46.397</time></trkpt><trkpt lat="55.6891780" lon="38.4148250"><time>2020-10-31T08:15:49.397</time></trkpt><trkpt lat="55.6891570" lon="38.4149130"><time>2020-10-31T08:15:53.383</time></trkpt><trkpt lat="55.6891150" lon="38.4149620"><time>2020-10-31T08:15:54.407</time></trkpt><trkpt lat="55.6890970" lon="38.4150370"><time>2020-10-31T08:15:59.397</time></trkpt><trkpt lat="55.6890820" lon="38.4151330"><time>2020-10-31T08:16:03.400</time></trkpt><trkpt lat="55.6890400" lon="38.4153500"><time>2020-10-31T08:16:10.397</time></trkpt><trkpt lat="55.6890100" lon="38.4155750"><time>2020-10-31T08:16:21.393</time></trkpt><trkpt lat="55.6890650" lon="38.4157150"><time>2020-10-31T08:16:30.393</time></trkpt><trkpt lat="55.6891070" lon="38.4157580"><time>2020-10-31T08:16:35.393</time></trkpt><trkpt lat="55.6891520" lon="38.4157950"><time>2020-10-31T08:16:39.400</time></trkpt><trkpt lat="55.6892050" lon="38.4158250"><time>2020-10-31T08:16:42.400</time></trkpt><trkpt lat="55.6892520" lon="38.4158550"><time>2020-10-31T08:16:47.400</time></trkpt><trkpt lat="55.6892900" lon="38.4159200"><time>2020-10-31T08:16:51.397</time></trkpt><trkpt lat="55.6893370" lon="38.4159570"><time>2020-10-31T08:16:58.397</time></trkpt><trkpt lat="55.6893680" lon="38.4160370"><time>2020-10-31T08:17:05.393</time></trkpt><trkpt lat="55.6893870" lon="38.4161130"><time>2020-10-31T08:17:10.390</time></trkpt><trkpt lat="55.6894170" lon="38.4162070"><time>2020-10-31T08:17:17.393</time></trkpt><trkpt lat="55.6894600" lon="38.4162330"><time>2020-10-31T08:17:20.397</time></trkpt><trkpt lat="55.6895180" lon="38.4162770"><time>2020-10-31T08:17:24.393</time></trkpt><trkpt lat="55.6895700" lon="38.4162700"><time>2020-10-31T08:17:30.400</time></trkpt><trkpt lat="55.6896030" lon="38.4163370"><time>2020-10-31T08:17:36.397</time></trkpt><trkpt lat="55.6896570" lon="38.4163150"><time>2020-10-31T08:17:39.393</time></trkpt><trkpt lat="55.6897070" lon="38.4163130"><time>2020-10-31T08:17:44.397</time></trkpt><trkpt lat="55.6897530" lon="38.4163380"><time>2020-10-31T08:17:49.397</time></trkpt><trkpt lat="55.6897420" lon="38.4164250"><time>2020-10-31T08:17:53.357</time></trkpt><trkpt lat="55.6897970" lon="38.4164220"><time>2020-10-31T08:17:59.393</time></trkpt><trkpt lat="55.6898570" lon="38.4164670"><time>2020-10-31T08:18:04.390</time></trkpt><trkpt lat="55.6899100" lon="38.4164730"><time>2020-10-31T08:18:08.390</time></trkpt><trkpt lat="55.6899700" lon="38.4164670"><time>2020-10-31T08:18:11.393</time></trkpt><trkpt lat="55.6900220" lon="38.4164370"><time>2020-10-31T08:18:15.390</time></trkpt><trkpt lat="55.6900620" lon="38.4163850"><time>2020-10-31T08:18:19.390</time></trkpt><trkpt lat="55.6901380" lon="38.4162630"><time>2020-10-31T08:18:51.390</time></trkpt><trkpt lat="55.6901370" lon="38.4161770"><time>2020-10-31T08:18:56.397</time></trkpt><trkpt lat="55.6901770" lon="38.4161320"><time>2020-10-31T08:19:02.393</time></trkpt><trkpt lat="55.6902280" lon="38.4161620"><time>2020-10-31T08:19:11.393</time></trkpt><trkpt lat="55.6902770" lon="38.4161200"><time>2020-10-31T08:19:16.407</time></trkpt><trkpt lat="55.6903450" lon="38.4160520"><time>2020-10-31T08:19:52.400</time></trkpt><trkpt lat="55.6903820" lon="38.4161100"><time>2020-10-31T08:19:59.397</time></trkpt><trkpt lat="55.6904820" lon="38.4161480"><time>2020-10-31T08:20:21.400</time></trkpt><trkpt lat="55.6905270" lon="38.4161080"><time>2020-10-31T08:20:37.403</time></trkpt><trkpt lat="55.6905630" lon="38.4160600"><time>2020-10-31T08:20:41.393</time></trkpt><trkpt lat="55.6906070" lon="38.4160930"><time>2020-10-31T08:20:48.393</time></trkpt><trkpt lat="55.6906680" lon="38.4160700"><time>2020-10-31T08:20:52.397</time></trkpt><trkpt lat="55.6906950" lon="38.4161400"><time>2020-10-31T08:21:01.373</time></trkpt><trkpt lat="55.6907420" lon="38.4161400"><time>2020-10-31T08:21:21.397</time></trkpt><trkpt lat="55.6908070" lon="38.4161600"><time>2020-10-31T08:21:34.393</time></trkpt><trkpt lat="55.6908230" lon="38.4162370"><time>2020-10-31T08:21:42.400</time></trkpt><trkpt lat="55.6908670" lon="38.4162650"><time>2020-10-31T08:21:47.393</time></trkpt><trkpt lat="55.6909180" lon="38.4162930"><time>2020-10-31T08:21:55.397</time></trkpt><trkpt lat="55.6909680" lon="38.4163070"><time>2020-10-31T08:21:59.390</time></trkpt><trkpt lat="55.6909950" lon="38.4163800"><time>2020-10-31T08:22:06.390</time></trkpt><trkpt lat="55.6910320" lon="38.4164600"><time>2020-10-31T08:22:09.390</time></trkpt><trkpt lat="55.6910770" lon="38.4165030"><time>2020-10-31T08:22:14.397</time></trkpt><trkpt lat="55.6911220" lon="38.4164950"><time>2020-10-31T08:22:18.397</time></trkpt><trkpt lat="55.6911600" lon="38.4164530"><time>2020-10-31T08:22:33.397</time></trkpt><trkpt lat="55.6912030" lon="38.4164220"><time>2020-10-31T08:22:37.403</time></trkpt><trkpt lat="55.6912520" lon="38.4164150"><time>2020-10-31T08:22:43.403</time></trkpt><trkpt lat="55.6912920" lon="38.4164680"><time>2020-10-31T08:22:48.400</time></trkpt><trkpt lat="55.6913020" lon="38.4165580"><time>2020-10-31T08:22:52.397</time></trkpt><trkpt lat="55.6913370" lon="38.4166130"><time>2020-10-31T08:22:57.393</time></trkpt><trkpt lat="55.6913870" lon="38.4166380"><time>2020-10-31T08:23:02.393</time></trkpt><trkpt lat="55.6914320" lon="38.4166820"><time>2020-10-31T08:23:08.400</time></trkpt><trkpt lat="55.6914770" lon="38.4167330"><time>2020-10-31T08:23:12.367</time></trkpt><trkpt lat="55.6915180" lon="38.4167980"><time>2020-10-31T08:23:16.397</time></trkpt><trkpt lat="55.6915480" lon="38.4168680"><time>2020-10-31T08:23:20.397</time></trkpt><trkpt lat="55.6915680" lon="38.4169430"><time>2020-10-31T08:23:23.400</time></trkpt><trkpt lat="55.6915920" lon="38.4170150"><time>2020-10-31T08:23:30.407</time></trkpt><trkpt lat="55.6916430" lon="38.4170200"><time>2020-10-31T08:23:37.403</time></trkpt><trkpt lat="55.6916900" lon="38.4169880"><time>2020-10-31T08:23:40.397</time></trkpt><trkpt lat="55.6917380" lon="38.4169600"><time>2020-10-31T08:23:43.400</time></trkpt><trkpt lat="55.6917850" lon="38.4169520"><time>2020-10-31T08:23:48.400</time></trkpt><trkpt lat="55.6918320" lon="38.4169580"><time>2020-10-31T08:23:52.400</time></trkpt><trkpt lat="55.6918920" lon="38.4169970"><time>2020-10-31T08:23:57.400</time></trkpt><trkpt lat="55.6919370" lon="38.4170270"><time>2020-10-31T08:24:02.397</time></trkpt><trkpt lat="55.6919870" lon="38.4170320"><time>2020-10-31T08:24:08.367</time></trkpt><trkpt lat="55.6920370" lon="38.4170200"><time>2020-10-31T08:24:12.397</time></trkpt><trkpt lat="55.6920850" lon="38.4170670"><time>2020-10-31T08:24:17.397</time></trkpt><trkpt lat="55.6921320" lon="38.4170970"><time>2020-10-31T08:24:22.397</time></trkpt><trkpt lat="55.6921800" lon="38.4170800"><time>2020-10-31T08:24:31.400</time></trkpt><trkpt lat="55.6922220" lon="38.4170500"><time>2020-10-31T08:24:38.393</time></trkpt><trkpt lat="55.6922680" lon="38.4170530"><time>2020-10-31T08:24:44.393</time></trkpt><trkpt lat="55.6923130" lon="38.4170620"><time>2020-10-31T08:24:50.393</time></trkpt><trkpt lat="55.6923680" lon="38.4170720"><time>2020-10-31T08:24:55.397</time></trkpt><trkpt lat="55.6924180" lon="38.4170600"><time>2020-10-31T08:25:02.403</time></trkpt><trkpt lat="55.6924720" lon="38.4170580"><time>2020-10-31T08:25:08.393</time></trkpt><trkpt lat="55.6925300" lon="38.4170130"><time>2020-10-31T08:25:24.393</time></trkpt><trkpt lat="55.6925730" lon="38.4170550"><time>2020-10-31T08:25:30.400</time></trkpt><trkpt lat="55.6925730" lon="38.4171370"><time>2020-10-31T08:25:36.397</time></trkpt><trkpt lat="55.6925220" lon="38.4172120"><time>2020-10-31T08:25:39.397</time></trkpt><trkpt lat="55.6924800" lon="38.4172950"><time>2020-10-31T08:25:44.393</time></trkpt><trkpt lat="55.6924420" lon="38.4173670"><time>2020-10-31T08:25:46.400</time></trkpt><trkpt lat="55.6924050" lon="38.4174320"><time>2020-10-31T08:25:48.393</time></trkpt><trkpt lat="55.6923630" lon="38.4174970"><time>2020-10-31T08:25:50.390</time></trkpt><trkpt lat="55.6923280" lon="38.4175600"><time>2020-10-31T08:25:53.397</time></trkpt><trkpt lat="55.6923230" lon="38.4176400"><time>2020-10-31T08:25:56.397</time></trkpt><trkpt lat="55.6922930" lon="38.4177000"><time>2020-10-31T08:25:59.400</time></trkpt><trkpt lat="55.6922550" lon="38.4177780"><time>2020-10-31T08:26:02.400</time></trkpt><trkpt lat="55.6922100" lon="38.4178430"><time>2020-10-31T08:26:05.393</time></trkpt><trkpt lat="55.6921630" lon="38.4179080"><time>2020-10-31T08:26:08.407</time></trkpt><trkpt lat="55.6921100" lon="38.4179620"><time>2020-10-31T08:26:12.390</time></trkpt><trkpt lat="55.6920720" lon="38.4180100"><time>2020-10-31T08:26:14.397</time></trkpt><trkpt lat="55.6920280" lon="38.4180720"><time>2020-10-31T08:26:16.397</time></trkpt><trkpt lat="55.6919750" lon="38.4181420"><time>2020-10-31T08:26:19.403</time></trkpt><trkpt lat="55.6919320" lon="38.4182020"><time>2020-10-31T08:26:21.397</time></trkpt><trkpt lat="55.6918900" lon="38.4182680"><time>2020-10-31T08:26:23.397</time></trkpt><trkpt lat="55.6918530" lon="38.4183300"><time>2020-10-31T08:26:25.400</time></trkpt><trkpt lat="55.6918130" lon="38.4183880"><time>2020-10-31T08:26:30.397</time></trkpt><trkpt lat="55.6917770" lon="38.4184480"><time>2020-10-31T08:26:40.400</time></trkpt><trkpt lat="55.6918220" lon="38.4184880"><time>2020-10-31T08:26:48.397</time></trkpt><trkpt lat="55.6918680" lon="38.4185400"><time>2020-10-31T08:26:53.393</time></trkpt><trkpt lat="55.6918900" lon="38.4186120"><time>2020-10-31T08:26:59.397</time></trkpt><trkpt lat="55.6918670" lon="38.4186850"><time>2020-10-31T08:27:04.400</time></trkpt><trkpt lat="55.6918670" lon="38.4187750"><time>2020-10-31T08:27:09.397</time></trkpt><trkpt lat="55.6918850" lon="38.4188550"><time>2020-10-31T08:27:15.397</time></trkpt><trkpt lat="55.6918870" lon="38.4189580"><time>2020-10-31T08:27:21.393</time></trkpt><trkpt lat="55.6918930" lon="38.4190450"><time>2020-10-31T08:27:26.393</time></trkpt><trkpt lat="55.6919080" lon="38.4191300"><time>2020-10-31T08:27:37.410</time></trkpt><trkpt lat="55.6919470" lon="38.4191950"><time>2020-10-31T08:27:42.403</time></trkpt><trkpt lat="55.6919800" lon="38.4192730"><time>2020-10-31T08:27:47.390</time></trkpt><trkpt lat="55.6920180" lon="38.4193400"><time>2020-10-31T08:27:51.397</time></trkpt><trkpt lat="55.6920470" lon="38.4194050"><time>2020-10-31T08:27:55.397</time></trkpt><trkpt lat="55.6920430" lon="38.4194920"><time>2020-10-31T08:28:00.393</time></trkpt><trkpt lat="55.6920750" lon="38.4195600"><time>2020-10-31T08:28:05.397</time></trkpt><trkpt lat="55.6921030" lon="38.4196320"><time>2020-10-31T08:28:10.393</time></trkpt><trkpt lat="55.6921220" lon="38.4197120"><time>2020-10-31T08:28:13.397</time></trkpt><trkpt lat="55.6921430" lon="38.4198200"><time>2020-10-31T08:28:15.397</time></trkpt><trkpt lat="55.6921620" lon="38.4199120"><time>2020-10-31T08:28:17.400</time></trkpt><trkpt lat="55.6921780" lon="38.4200050"><time>2020-10-31T08:28:21.390</time></trkpt><trkpt lat="55.6921870" lon="38.4201120"><time>2020-10-31T08:28:25.397</time></trkpt><trkpt lat="55.6921920" lon="38.4201970"><time>2020-10-31T08:28:27.397</time></trkpt><trkpt lat="55.6922220" lon="38.4202620"><time>2020-10-31T08:28:30.400</time></trkpt><trkpt lat="55.6922580" lon="38.4203350"><time>2020-10-31T08:28:33.400</time></trkpt><trkpt lat="55.6922770" lon="38.4205550"><time>2020-10-31T08:28:38.393</time></trkpt><trkpt lat="55.6922730" lon="38.4206720"><time>2020-10-31T08:28:43.400</time></trkpt><trkpt lat="55.6923370" lon="38.4207130"><time>2020-10-31T08:28:45.400</time></trkpt><trkpt lat="55.6923770" lon="38.4207770"><time>2020-10-31T08:28:48.397</time></trkpt><trkpt lat="55.6924170" lon="38.4208500"><time>2020-10-31T08:28:52.400</time></trkpt><trkpt lat="55.6924370" lon="38.4209270"><time>2020-10-31T08:28:57.397</time></trkpt><trkpt lat="55.6924530" lon="38.4210100"><time>2020-10-31T08:29:03.397</time></trkpt><trkpt lat="55.6925430" lon="38.4210900"><time>2020-10-31T08:29:12.397</time></trkpt><trkpt lat="55.6926170" lon="38.4211600"><time>2020-10-31T08:29:18.397</time></trkpt><trkpt lat="55.6926570" lon="38.4212070"><time>2020-10-31T08:29:21.397</time></trkpt><trkpt lat="55.6927170" lon="38.4212630"><time>2020-10-31T08:29:25.400</time></trkpt><trkpt lat="55.6927700" lon="38.4212970"><time>2020-10-31T08:29:29.393</time></trkpt><trkpt lat="55.6927800" lon="38.4213770"><time>2020-10-31T08:29:33.397</time></trkpt><trkpt lat="55.6928150" lon="38.4214450"><time>2020-10-31T08:29:41.393</time></trkpt><trkpt lat="55.6928730" lon="38.4214780"><time>2020-10-31T08:29:45.397</time></trkpt><trkpt lat="55.6929370" lon="38.4214850"><time>2020-10-31T08:29:48.397</time></trkpt><trkpt lat="55.6929820" lon="38.4215030"><time>2020-10-31T08:29:51.393</time></trkpt><trkpt lat="55.6929920" lon="38.4215950"><time>2020-10-31T08:29:55.400</time></trkpt><trkpt lat="55.6930220" lon="38.4216730"><time>2020-10-31T08:30:01.403</time></trkpt><trkpt lat="55.6930780" lon="38.4217020"><time>2020-10-31T08:30:07.403</time></trkpt><trkpt lat="55.6931270" lon="38.4217030"><time>2020-10-31T08:30:14.397</time></trkpt><trkpt lat="55.6931670" lon="38.4217430"><time>2020-10-31T08:30:23.393</time></trkpt><trkpt lat="55.6932180" lon="38.4217800"><time>2020-10-31T08:30:27.393</time></trkpt><trkpt lat="55.6932980" lon="38.4218130"><time>2020-10-31T08:30:34.397</time></trkpt><trkpt lat="55.6933480" lon="38.4218370"><time>2020-10-31T08:30:37.397</time></trkpt><trkpt lat="55.6933930" lon="38.4218580"><time>2020-10-31T08:30:42.397</time></trkpt><trkpt lat="55.6934380" lon="38.4219170"><time>2020-10-31T08:30:46.400</time></trkpt><trkpt lat="55.6934820" lon="38.4219420"><time>2020-10-31T08:30:55.810</time></trkpt><trkpt lat="55.6935280" lon="38.4219650"><time>2020-10-31T08:31:03.397</time></trkpt><trkpt lat="55.6936020" lon="38.4220070"><time>2020-10-31T08:31:13.397</time></trkpt><trkpt lat="55.6936500" lon="38.4220870"><time>2020-10-31T08:31:22.393</time></trkpt><trkpt lat="55.6936700" lon="38.4221700"><time>2020-10-31T08:31:27.393</time></trkpt><trkpt lat="55.6937020" lon="38.4222320"><time>2020-10-31T08:31:33.397</time></trkpt><trkpt lat="55.6937230" lon="38.4223150"><time>2020-10-31T08:31:39.390</time></trkpt><trkpt lat="55.6937720" lon="38.4224620"><time>2020-10-31T08:31:45.393</time></trkpt><trkpt lat="55.6938170" lon="38.4224970"><time>2020-10-31T08:31:48.397</time></trkpt><trkpt lat="55.6937900" lon="38.4225680"><time>2020-10-31T08:32:00.397</time></trkpt><trkpt lat="55.6937480" lon="38.4226370"><time>2020-10-31T08:32:04.397</time></trkpt><trkpt lat="55.6937020" lon="38.4225820"><time>2020-10-31T08:32:08.360</time></trkpt><trkpt lat="55.6937350" lon="38.4226720"><time>2020-10-31T08:32:15.353</time></trkpt><trkpt lat="55.6937520" lon="38.4227030"><time>2020-10-31T08:32:17.067</time></trkpt><trkpt lat="55.6938650" lon="38.4227630"><time>2020-10-31T08:32:21.353</time></trkpt><trkpt lat="55.6937120" lon="38.4229750"><time>2020-10-31T08:32:22.363</time></trkpt><trkpt lat="55.6936600" lon="38.4230280"><time>2020-10-31T08:32:23.373</time></trkpt><trkpt lat="55.6938900" lon="38.4226400"><time>2020-10-31T08:32:24.397</time></trkpt><trkpt lat="55.6939580" lon="38.4225230"><time>2020-10-31T08:32:25.407</time></trkpt><trkpt lat="55.6939750" lon="38.4223880"><time>2020-10-31T08:32:27.397</time></trkpt><trkpt lat="55.6939350" lon="38.4224400"><time>2020-10-31T08:32:28.567</time></trkpt><trkpt lat="55.6938830" lon="38.4224530"><time>2020-10-31T08:32:31.417</time></trkpt><trkpt lat="55.6937230" lon="38.4225480"><time>2020-10-31T08:32:41.357</time></trkpt><trkpt lat="55.6936720" lon="38.4226220"><time>2020-10-31T08:32:43.383</time></trkpt><trkpt lat="55.6937220" lon="38.4226650"><time>2020-10-31T08:32:46.393</time></trkpt><trkpt lat="55.6936550" lon="38.4225480"><time>2020-10-31T08:32:49.353</time></trkpt><trkpt lat="55.6935930" lon="38.4225350"><time>2020-10-31T08:32:53.393</time></trkpt><trkpt lat="55.6935620" lon="38.4224770"><time>2020-10-31T08:32:59.400</time></trkpt><trkpt lat="55.6935320" lon="38.4225500"><time>2020-10-31T08:33:06.410</time></trkpt><trkpt lat="55.6935020" lon="38.4226120"><time>2020-10-31T08:33:10.397</time></trkpt><trkpt lat="55.6934720" lon="38.4227230"><time>2020-10-31T08:33:12.393</time></trkpt><trkpt lat="55.6934550" lon="38.4228000"><time>2020-10-31T08:33:15.397</time></trkpt><trkpt lat="55.6935020" lon="38.4227250"><time>2020-10-31T08:33:18.400</time></trkpt><trkpt lat="55.6934770" lon="38.4226470"><time>2020-10-31T08:33:29.403</time></trkpt><trkpt lat="55.6934530" lon="38.4225780"><time>2020-10-31T08:33:35.400</time></trkpt><trkpt lat="55.6935020" lon="38.4225580"><time>2020-10-31T08:34:15.393</time></trkpt><trkpt lat="55.6935470" lon="38.4225330"><time>2020-10-31T08:34:18.377</time></trkpt><trkpt lat="55.6935970" lon="38.4225330"><time>2020-10-31T08:34:26.393</time></trkpt><trkpt lat="55.6936520" lon="38.4225370"><time>2020-10-31T08:34:32.397</time></trkpt><trkpt lat="55.6936970" lon="38.4225520"><time>2020-10-31T08:34:37.403</time></trkpt><trkpt lat="55.6937400" lon="38.4226030"><time>2020-10-31T08:34:43.393</time></trkpt><trkpt lat="55.6937870" lon="38.4226200"><time>2020-10-31T08:34:53.467</time></trkpt><trkpt lat="55.6938220" lon="38.4226830"><time>2020-10-31T08:35:02.397</time></trkpt><trkpt lat="55.6938580" lon="38.4227580"><time>2020-10-31T08:35:24.397</time></trkpt><trkpt lat="55.6938800" lon="38.4228300"><time>2020-10-31T08:35:33.400</time></trkpt><trkpt lat="55.6939130" lon="38.4228870"><time>2020-10-31T08:35:44.397</time></trkpt><trkpt lat="55.6939180" lon="38.4229720"><time>2020-10-31T08:35:50.397</time></trkpt><trkpt lat="55.6939370" lon="38.4230480"><time>2020-10-31T08:35:56.397</time></trkpt><trkpt lat="55.6939880" lon="38.4231800"><time>2020-10-31T08:36:10.400</time></trkpt><trkpt lat="55.6939980" lon="38.4232580"><time>2020-10-31T08:36:16.397</time></trkpt><trkpt lat="55.6940280" lon="38.4233280"><time>2020-10-31T08:36:26.400</time></trkpt><trkpt lat="55.6939980" lon="38.4235380"><time>2020-10-31T08:37:25.403</time></trkpt><trkpt lat="55.6940400" lon="38.4235830"><time>2020-10-31T08:37:52.397</time></trkpt><trkpt lat="55.6941130" lon="38.4236020"><time>2020-10-31T08:37:59.403</time></trkpt><trkpt lat="55.6940800" lon="38.4237720"><time>2020-10-31T08:38:22.400</time></trkpt><trkpt lat="55.6940180" lon="38.4239870"><time>2020-10-31T08:38:32.407</time></trkpt><trkpt lat="55.6940470" lon="38.4240520"><time>2020-10-31T08:38:35.387</time></trkpt><trkpt lat="55.6940530" lon="38.4242300"><time>2020-10-31T08:38:40.397</time></trkpt><trkpt lat="55.6940530" lon="38.4243130"><time>2020-10-31T08:38:42.397</time></trkpt><trkpt lat="55.6940930" lon="38.4244930"><time>2020-10-31T08:38:50.397</time></trkpt><trkpt lat="55.6941420" lon="38.4246180"><time>2020-10-31T08:38:58.397</time></trkpt><trkpt lat="55.6941880" lon="38.4248200"><time>2020-10-31T08:39:08.403</time></trkpt><trkpt lat="55.6942250" lon="38.4249130"><time>2020-10-31T08:39:13.403</time></trkpt><trkpt lat="55.6942780" lon="38.4251280"><time>2020-10-31T08:39:25.397</time></trkpt><trkpt lat="55.6942680" lon="38.4252200"><time>2020-10-31T08:39:28.393</time></trkpt><trkpt lat="55.6942750" lon="38.4253020"><time>2020-10-31T08:39:32.400</time></trkpt><trkpt lat="55.6942480" lon="38.4255070"><time>2020-10-31T08:39:47.393</time></trkpt><trkpt lat="55.6941970" lon="38.4255230"><time>2020-10-31T08:39:51.400</time></trkpt><trkpt lat="55.6942950" lon="38.4255850"><time>2020-10-31T08:40:42.403</time></trkpt><trkpt lat="55.6942650" lon="38.4255120"><time>2020-10-31T08:40:46.393</time></trkpt><trkpt lat="55.6942330" lon="38.4255830"><time>2020-10-31T08:40:54.393</time></trkpt><trkpt lat="55.6941900" lon="38.4256170"><time>2020-10-31T08:41:19.400</time></trkpt><trkpt lat="55.6941450" lon="38.4256050"><time>2020-10-31T08:41:31.397</time></trkpt><trkpt lat="55.6941220" lon="38.4255230"><time>2020-10-31T08:41:36.393</time></trkpt><trkpt lat="55.6941480" lon="38.4254080"><time>2020-10-31T08:41:41.390</time></trkpt><trkpt lat="55.6941930" lon="38.4253800"><time>2020-10-31T08:41:48.397</time></trkpt><trkpt lat="55.6942280" lon="38.4254530"><time>2020-10-31T08:41:55.400</time></trkpt><trkpt lat="55.6942070" lon="38.4255320"><time>2020-10-31T08:42:13.403</time></trkpt><trkpt lat="55.6941820" lon="38.4256170"><time>2020-10-31T08:42:17.393</time></trkpt><trkpt lat="55.6941900" lon="38.4257030"><time>2020-10-31T08:42:23.397</time></trkpt><trkpt lat="55.6941620" lon="38.4257930"><time>2020-10-31T08:42:29.387</time></trkpt><trkpt lat="55.6941220" lon="38.4258430"><time>2020-10-31T08:42:32.397</time></trkpt><trkpt lat="55.6941250" lon="38.4259270"><time>2020-10-31T08:42:38.400</time></trkpt><trkpt lat="55.6941300" lon="38.4260070"><time>2020-10-31T08:42:44.397</time></trkpt><trkpt lat="55.6941520" lon="38.4260950"><time>2020-10-31T08:42:55.403</time></trkpt><trkpt lat="55.6941850" lon="38.4261500"><time>2020-10-31T08:43:02.397</time></trkpt><trkpt lat="55.6942400" lon="38.4261530"><time>2020-10-31T08:43:07.400</time></trkpt><trkpt lat="55.6942920" lon="38.4261370"><time>2020-10-31T08:43:12.397</time></trkpt><trkpt lat="55.6943380" lon="38.4261350"><time>2020-10-31T08:43:18.397</time></trkpt><trkpt lat="55.6943780" lon="38.4260820"><time>2020-10-31T08:43:22.400</time></trkpt><trkpt lat="55.6944150" lon="38.4261350"><time>2020-10-31T08:43:28.403</time></trkpt><trkpt lat="55.6944500" lon="38.4262130"><time>2020-10-31T08:43:33.400</time></trkpt><trkpt lat="55.6944780" lon="38.4262820"><time>2020-10-31T08:43:40.397</time></trkpt><trkpt lat="55.6945120" lon="38.4263500"><time>2020-10-31T08:43:46.397</time></trkpt><trkpt lat="55.6945270" lon="38.4264270"><time>2020-10-31T08:43:51.397</time></trkpt><trkpt lat="55.6945300" lon="38.4265100"><time>2020-10-31T08:43:57.403</time></trkpt><trkpt lat="55.6945350" lon="38.4265920"><time>2020-10-31T08:44:03.400</time></trkpt><trkpt lat="55.6945780" lon="38.4266480"><time>2020-10-31T08:44:09.413</time></trkpt><trkpt lat="55.6946280" lon="38.4266750"><time>2020-10-31T08:44:13.400</time></trkpt><trkpt lat="55.6946680" lon="38.4267150"><time>2020-10-31T08:44:17.400</time></trkpt><trkpt lat="55.6946920" lon="38.4268000"><time>2020-10-31T08:44:20.403</time></trkpt><trkpt lat="55.6947100" lon="38.4268950"><time>2020-10-31T08:44:24.397</time></trkpt><trkpt lat="55.6947200" lon="38.4269730"><time>2020-10-31T08:44:27.397</time></trkpt><trkpt lat="55.6947280" lon="38.4270800"><time>2020-10-31T08:44:30.393</time></trkpt><trkpt lat="55.6947330" lon="38.4271670"><time>2020-10-31T08:44:32.397</time></trkpt><trkpt lat="55.6947300" lon="38.4272750"><time>2020-10-31T08:44:35.400</time></trkpt><trkpt lat="55.6947300" lon="38.4273580"><time>2020-10-31T08:44:37.400</time></trkpt><trkpt lat="55.6947200" lon="38.4274730"><time>2020-10-31T08:44:40.397</time></trkpt><trkpt lat="55.6947120" lon="38.4275880"><time>2020-10-31T08:44:43.387</time></trkpt><trkpt lat="55.6946970" lon="38.4276700"><time>2020-10-31T08:44:46.400</time></trkpt><trkpt lat="55.6946870" lon="38.4277600"><time>2020-10-31T08:44:49.397</time></trkpt><trkpt lat="55.6946770" lon="38.4278500"><time>2020-10-31T08:44:52.397</time></trkpt><trkpt lat="55.6946670" lon="38.4279480"><time>2020-10-31T08:44:55.397</time></trkpt><trkpt lat="55.6946350" lon="38.4280330"><time>2020-10-31T08:44:58.400</time></trkpt><trkpt lat="55.6946120" lon="38.4281450"><time>2020-10-31T08:45:01.397</time></trkpt><trkpt lat="55.6945850" lon="38.4282400"><time>2020-10-31T08:45:04.397</time></trkpt><trkpt lat="55.6945600" lon="38.4283470"><time>2020-10-31T08:45:07.397</time></trkpt><trkpt lat="55.6945350" lon="38.4284520"><time>2020-10-31T08:45:10.397</time></trkpt><trkpt lat="55.6945150" lon="38.4285580"><time>2020-10-31T08:45:13.400</time></trkpt><trkpt lat="55.6944950" lon="38.4286570"><time>2020-10-31T08:45:16.397</time></trkpt><trkpt lat="55.6944700" lon="38.4287620"><time>2020-10-31T08:45:19.397</time></trkpt><trkpt lat="55.6944480" lon="38.4288600"><time>2020-10-31T08:45:22.397</time></trkpt><trkpt lat="55.6944180" lon="38.4289680"><time>2020-10-31T08:45:25.403</time></trkpt><trkpt lat="55.6943970" lon="38.4290750"><time>2020-10-31T08:45:28.397</time></trkpt><trkpt lat="55.6943700" lon="38.4291820"><time>2020-10-31T08:45:31.397</time></trkpt><trkpt lat="55.6943520" lon="38.4292600"><time>2020-10-31T08:45:33.403</time></trkpt><trkpt lat="55.6943320" lon="38.4293480"><time>2020-10-31T08:45:35.403</time></trkpt><trkpt lat="55.6943100" lon="38.4294400"><time>2020-10-31T08:45:37.397</time></trkpt><trkpt lat="55.6942930" lon="38.4295300"><time>2020-10-31T08:45:39.403</time></trkpt><trkpt lat="55.6942800" lon="38.4296120"><time>2020-10-31T08:45:41.393</time></trkpt><trkpt lat="55.6942670" lon="38.4297030"><time>2020-10-31T08:45:43.397</time></trkpt><trkpt lat="55.6942370" lon="38.4298200"><time>2020-10-31T08:45:45.403</time></trkpt><trkpt lat="55.6942070" lon="38.4299330"><time>2020-10-31T08:45:47.397</time></trkpt><trkpt lat="55.6941930" lon="38.4300520"><time>2020-10-31T08:45:49.400</time></trkpt><trkpt lat="55.6941970" lon="38.4301680"><time>2020-10-31T08:45:51.400</time></trkpt><trkpt lat="55.6941950" lon="38.4302680"><time>2020-10-31T08:45:52.403</time></trkpt><trkpt lat="55.6942180" lon="38.4303570"><time>2020-10-31T08:45:54.403</time></trkpt><trkpt lat="55.6942380" lon="38.4304530"><time>2020-10-31T08:45:56.397</time></trkpt><trkpt lat="55.6942720" lon="38.4305300"><time>2020-10-31T08:45:58.397</time></trkpt><trkpt lat="55.6943070" lon="38.4305970"><time>2020-10-31T08:46:00.403</time></trkpt><trkpt lat="55.6943470" lon="38.4306530"><time>2020-10-31T08:46:02.403</time></trkpt><trkpt lat="55.6943920" lon="38.4307150"><time>2020-10-31T08:46:04.397</time></trkpt><trkpt lat="55.6944250" lon="38.4307820"><time>2020-10-31T08:46:06.397</time></trkpt><trkpt lat="55.6944500" lon="38.4308550"><time>2020-10-31T08:46:08.397</time></trkpt><trkpt lat="55.6944820" lon="38.4309420"><time>2020-10-31T08:46:11.397</time></trkpt><trkpt lat="55.6945170" lon="38.4310020"><time>2020-10-31T08:46:13.460</time></trkpt><trkpt lat="55.6945270" lon="38.4310850"><time>2020-10-31T08:46:15.403</time></trkpt><trkpt lat="55.6945350" lon="38.4312080"><time>2020-10-31T08:46:17.397</time></trkpt><trkpt lat="55.6945480" lon="38.4313120"><time>2020-10-31T08:46:19.403</time></trkpt><trkpt lat="55.6945670" lon="38.4314050"><time>2020-10-31T08:46:21.397</time></trkpt><trkpt lat="55.6945630" lon="38.4314930"><time>2020-10-31T08:46:23.397</time></trkpt><trkpt lat="55.6945470" lon="38.4316030"><time>2020-10-31T08:46:25.400</time></trkpt><trkpt lat="55.6945270" lon="38.4316930"><time>2020-10-31T08:46:27.397</time></trkpt><trkpt lat="55.6945030" lon="38.4317750"><time>2020-10-31T08:46:29.400</time></trkpt><trkpt lat="55.6944780" lon="38.4318570"><time>2020-10-31T08:46:31.400</time></trkpt><trkpt lat="55.6944620" lon="38.4319430"><time>2020-10-31T08:46:33.407</time></trkpt><trkpt lat="55.6944520" lon="38.4320570"><time>2020-10-31T08:46:36.393</time></trkpt><trkpt lat="55.6944180" lon="38.4321270"><time>2020-10-31T08:46:40.393</time></trkpt><trkpt lat="55.6944180" lon="38.4322200"><time>2020-10-31T08:46:45.400</time></trkpt><trkpt lat="55.6943930" lon="38.4323030"><time>2020-10-31T08:46:48.393</time></trkpt><trkpt lat="55.6943720" lon="38.4324020"><time>2020-10-31T08:46:50.397</time></trkpt><trkpt lat="55.6943520" lon="38.4324920"><time>2020-10-31T08:46:52.400</time></trkpt><trkpt lat="55.6943280" lon="38.4325770"><time>2020-10-31T08:46:54.397</time></trkpt><trkpt lat="55.6943050" lon="38.4326750"><time>2020-10-31T08:46:56.400</time></trkpt><trkpt lat="55.6942980" lon="38.4327870"><time>2020-10-31T08:46:58.397</time></trkpt><trkpt lat="55.6942670" lon="38.4328950"><time>2020-10-31T08:47:00.397</time></trkpt><trkpt lat="55.6942450" lon="38.4329900"><time>2020-10-31T08:47:02.403</time></trkpt><trkpt lat="55.6942280" lon="38.4330720"><time>2020-10-31T08:47:04.397</time></trkpt><trkpt lat="55.6942180" lon="38.4331680"><time>2020-10-31T08:47:07.400</time></trkpt><trkpt lat="55.6941980" lon="38.4332550"><time>2020-10-31T08:47:10.397</time></trkpt><trkpt lat="55.6941870" lon="38.4333420"><time>2020-10-31T08:47:13.403</time></trkpt><trkpt lat="55.6941680" lon="38.4334170"><time>2020-10-31T08:47:15.403</time></trkpt><trkpt lat="55.6941500" lon="38.4334920"><time>2020-10-31T08:47:17.397</time></trkpt><trkpt lat="55.6941320" lon="38.4335930"><time>2020-10-31T08:47:20.397</time></trkpt><trkpt lat="55.6941030" lon="38.4336870"><time>2020-10-31T08:47:23.397</time></trkpt><trkpt lat="55.6940780" lon="38.4337930"><time>2020-10-31T08:47:26.393</time></trkpt><trkpt lat="55.6940600" lon="38.4338680"><time>2020-10-31T08:47:28.403</time></trkpt><trkpt lat="55.6940400" lon="38.4339530"><time>2020-10-31T08:47:30.400</time></trkpt><trkpt lat="55.6940080" lon="38.4340450"><time>2020-10-31T08:47:33.397</time></trkpt><trkpt lat="55.6939850" lon="38.4341380"><time>2020-10-31T08:47:36.397</time></trkpt><trkpt lat="55.6939580" lon="38.4342080"><time>2020-10-31T08:47:38.400</time></trkpt><trkpt lat="55.6939270" lon="38.4342670"><time>2020-10-31T08:47:41.377</time></trkpt><trkpt lat="55.6939000" lon="38.4343630"><time>2020-10-31T08:47:44.400</time></trkpt><trkpt lat="55.6938780" lon="38.4344550"><time>2020-10-31T08:47:47.380</time></trkpt><trkpt lat="55.6938470" lon="38.4345480"><time>2020-10-31T08:47:50.393</time></trkpt><trkpt lat="55.6938280" lon="38.4346230"><time>2020-10-31T08:47:53.393</time></trkpt><trkpt lat="55.6938170" lon="38.4347020"><time>2020-10-31T08:47:56.390</time></trkpt><trkpt lat="55.6937950" lon="38.4347780"><time>2020-10-31T08:48:01.400</time></trkpt><trkpt lat="55.6937920" lon="38.4348720"><time>2020-10-31T08:48:05.393</time></trkpt><trkpt lat="55.6937650" lon="38.4349480"><time>2020-10-31T08:48:08.397</time></trkpt><trkpt lat="55.6937370" lon="38.4350320"><time>2020-10-31T08:48:11.397</time></trkpt><trkpt lat="55.6937100" lon="38.4351000"><time>2020-10-31T08:48:13.397</time></trkpt><trkpt lat="55.6936620" lon="38.4351900"><time>2020-10-31T08:48:16.400</time></trkpt><trkpt lat="55.6936320" lon="38.4352820"><time>2020-10-31T08:48:19.397</time></trkpt><trkpt lat="55.6936000" lon="38.4353720"><time>2020-10-31T08:48:22.397</time></trkpt><trkpt lat="55.6935670" lon="38.4354320"><time>2020-10-31T08:48:25.397</time></trkpt><trkpt lat="55.6935480" lon="38.4355180"><time>2020-10-31T08:48:30.400</time></trkpt><trkpt lat="55.6935280" lon="38.4356020"><time>2020-10-31T08:48:36.397</time></trkpt><trkpt lat="55.6935030" lon="38.4356820"><time>2020-10-31T08:48:39.407</time></trkpt><trkpt lat="55.6934520" lon="38.4357370"><time>2020-10-31T08:48:42.397</time></trkpt><trkpt lat="55.6933950" lon="38.4357200"><time>2020-10-31T08:48:48.400</time></trkpt><trkpt lat="55.6933580" lon="38.4356670"><time>2020-10-31T08:48:54.397</time></trkpt><trkpt lat="55.6933130" lon="38.4356600"><time>2020-10-31T08:48:58.397</time></trkpt><trkpt lat="55.6932800" lon="38.4355970"><time>2020-10-31T08:49:05.397</time></trkpt><trkpt lat="55.6932500" lon="38.4355180"><time>2020-10-31T08:49:10.397</time></trkpt><trkpt lat="55.6932050" lon="38.4354530"><time>2020-10-31T08:49:15.403</time></trkpt><trkpt lat="55.6931520" lon="38.4354320"><time>2020-10-31T08:49:20.400</time></trkpt><trkpt lat="55.6930980" lon="38.4354480"><time>2020-10-31T08:49:24.397</time></trkpt><trkpt lat="55.6930480" lon="38.4354620"><time>2020-10-31T08:49:27.403</time></trkpt><trkpt lat="55.6929930" lon="38.4354130"><time>2020-10-31T08:49:31.393</time></trkpt><trkpt lat="55.6929500" lon="38.4353830"><time>2020-10-31T08:49:34.387</time></trkpt><trkpt lat="55.6929070" lon="38.4353480"><time>2020-10-31T08:49:37.397</time></trkpt><trkpt lat="55.6928520" lon="38.4353500"><time>2020-10-31T08:49:40.393</time></trkpt><trkpt lat="55.6928080" lon="38.4353200"><time>2020-10-31T08:49:43.400</time></trkpt><trkpt lat="55.6927620" lon="38.4352970"><time>2020-10-31T08:49:48.400</time></trkpt><trkpt lat="55.6927170" lon="38.4352830"><time>2020-10-31T08:49:53.397</time></trkpt><trkpt lat="55.6926680" lon="38.4352830"><time>2020-10-31T08:49:56.397</time></trkpt><trkpt lat="55.6926280" lon="38.4352350"><time>2020-10-31T08:49:59.397</time></trkpt><trkpt lat="55.6925900" lon="38.4351630"><time>2020-10-31T08:50:03.403</time></trkpt><trkpt lat="55.6925450" lon="38.4351000"><time>2020-10-31T08:50:07.400</time></trkpt><trkpt lat="55.6924920" lon="38.4350650"><time>2020-10-31T08:50:11.397</time></trkpt><trkpt lat="55.6924470" lon="38.4350320"><time>2020-10-31T08:50:15.403</time></trkpt><trkpt lat="55.6924020" lon="38.4350500"><time>2020-10-31T08:50:26.400</time></trkpt><trkpt lat="55.6923570" lon="38.4350720"><time>2020-10-31T08:50:35.397</time></trkpt><trkpt lat="55.6923100" lon="38.4350650"><time>2020-10-31T08:50:46.407</time></trkpt><trkpt lat="55.6922580" lon="38.4350330"><time>2020-10-31T08:50:52.397</time></trkpt><trkpt lat="55.6922050" lon="38.4350120"><time>2020-10-31T08:50:57.400</time></trkpt><trkpt lat="55.6921520" lon="38.4350080"><time>2020-10-31T08:51:02.397</time></trkpt><trkpt lat="55.6921070" lon="38.4350550"><time>2020-10-31T08:51:06.397</time></trkpt><trkpt lat="55.6920650" lon="38.4350980"><time>2020-10-31T08:51:14.397</time></trkpt><trkpt lat="55.6920130" lon="38.4351600"><time>2020-10-31T08:51:18.403</time></trkpt><trkpt lat="55.6919670" lon="38.4351820"><time>2020-10-31T08:51:23.393</time></trkpt><trkpt lat="55.6919250" lon="38.4352180"><time>2020-10-31T08:51:27.393</time></trkpt><trkpt lat="55.6918730" lon="38.4352980"><time>2020-10-31T08:51:31.403</time></trkpt><trkpt lat="55.6918300" lon="38.4353530"><time>2020-10-31T08:51:35.393</time></trkpt><trkpt lat="55.6917830" lon="38.4354020"><time>2020-10-31T08:51:38.400</time></trkpt><trkpt lat="55.6917330" lon="38.4354420"><time>2020-10-31T08:51:41.393</time></trkpt><trkpt lat="55.6916870" lon="38.4354780"><time>2020-10-31T08:51:43.397</time></trkpt><trkpt lat="55.6916400" lon="38.4355070"><time>2020-10-31T08:51:46.393</time></trkpt><trkpt lat="55.6915780" lon="38.4355600"><time>2020-10-31T08:51:50.397</time></trkpt><trkpt lat="55.6915330" lon="38.4355930"><time>2020-10-31T08:51:53.393</time></trkpt><trkpt lat="55.6914830" lon="38.4356420"><time>2020-10-31T08:51:58.397</time></trkpt><trkpt lat="55.6914350" lon="38.4356770"><time>2020-10-31T08:52:03.403</time></trkpt><trkpt lat="55.6913930" lon="38.4357270"><time>2020-10-31T08:52:07.403</time></trkpt><trkpt lat="55.6913380" lon="38.4357520"><time>2020-10-31T08:52:11.397</time></trkpt><trkpt lat="55.6912880" lon="38.4357900"><time>2020-10-31T08:52:14.397</time></trkpt><trkpt lat="55.6912430" lon="38.4358130"><time>2020-10-31T08:52:18.400</time></trkpt><trkpt lat="55.6911980" lon="38.4358080"><time>2020-10-31T08:52:20.393</time></trkpt><trkpt lat="55.6911530" lon="38.4358220"><time>2020-10-31T08:52:22.397</time></trkpt><trkpt lat="55.6911030" lon="38.4358330"><time>2020-10-31T08:52:25.397</time></trkpt><trkpt lat="55.6910550" lon="38.4358780"><time>2020-10-31T08:52:28.397</time></trkpt><trkpt lat="55.6910000" lon="38.4359230"><time>2020-10-31T08:52:32.397</time></trkpt><trkpt lat="55.6909380" lon="38.4360030"><time>2020-10-31T08:52:36.393</time></trkpt><trkpt lat="55.6908920" lon="38.4360570"><time>2020-10-31T08:52:39.403</time></trkpt><trkpt lat="55.6908530" lon="38.4361150"><time>2020-10-31T08:52:45.400</time></trkpt><trkpt lat="55.6908070" lon="38.4361300"><time>2020-10-31T08:52:51.403</time></trkpt><trkpt lat="55.6907700" lon="38.4361850"><time>2020-10-31T08:52:56.397</time></trkpt><trkpt lat="55.6907380" lon="38.4362530"><time>2020-10-31T08:53:03.400</time></trkpt><trkpt lat="55.6907080" lon="38.4363450"><time>2020-10-31T08:53:09.403</time></trkpt><trkpt lat="55.6906700" lon="38.4364170"><time>2020-10-31T08:53:13.397</time></trkpt><trkpt lat="55.6906650" lon="38.4365030"><time>2020-10-31T08:53:17.400</time></trkpt><trkpt lat="55.6906370" lon="38.4365680"><time>2020-10-31T08:53:19.397</time></trkpt><trkpt lat="55.6906180" lon="38.4366430"><time>2020-10-31T08:53:26.400</time></trkpt><trkpt lat="55.6905870" lon="38.4367220"><time>2020-10-31T08:53:31.397</time></trkpt><trkpt lat="55.6905400" lon="38.4367950"><time>2020-10-31T08:53:35.393</time></trkpt><trkpt lat="55.6905000" lon="38.4368430"><time>2020-10-31T08:53:38.400</time></trkpt><trkpt lat="55.6904620" lon="38.4368870"><time>2020-10-31T08:53:43.400</time></trkpt><trkpt lat="55.6904020" lon="38.4369330"><time>2020-10-31T08:53:52.397</time></trkpt><trkpt lat="55.6903430" lon="38.4369680"><time>2020-10-31T08:53:57.393</time></trkpt><trkpt lat="55.6903170" lon="38.4370380"><time>2020-10-31T08:54:02.397</time></trkpt><trkpt lat="55.6902930" lon="38.4371130"><time>2020-10-31T08:54:41.397</time></trkpt><trkpt lat="55.6902680" lon="38.4371400"><time>2020-10-31T08:54:59.957</time></trkpt><trkpt lat="55.6902400" lon="38.4372350"><time>2020-10-31T08:55:00.187</time></trkpt><trkpt lat="55.6902420" lon="38.4373770"><time>2020-10-31T08:55:02.357</time></trkpt><trkpt lat="55.6903000" lon="38.4374950"><time>2020-10-31T08:55:04.363</time></trkpt><trkpt lat="55.6904070" lon="38.4375820"><time>2020-10-31T08:55:05.393</time></trkpt><trkpt lat="55.6904030" lon="38.4377700"><time>2020-10-31T08:55:06.390</time></trkpt><trkpt lat="55.6902900" lon="38.4378320"><time>2020-10-31T08:55:07.357</time></trkpt><trkpt lat="55.6903500" lon="38.4378950"><time>2020-10-31T08:55:08.357</time></trkpt><trkpt lat="55.6903520" lon="38.4380500"><time>2020-10-31T08:55:10.393</time></trkpt><trkpt lat="55.6902770" lon="38.4380580"><time>2020-10-31T08:55:11.393</time></trkpt><trkpt lat="55.6900800" lon="38.4379570"><time>2020-10-31T08:55:13.397</time></trkpt><trkpt lat="55.6900270" lon="38.4380100"><time>2020-10-31T08:55:14.400</time></trkpt><trkpt lat="55.6899980" lon="38.4379350"><time>2020-10-31T08:55:19.397</time></trkpt><trkpt lat="55.6899530" lon="38.4379370"><time>2020-10-31T08:55:21.400</time></trkpt><trkpt lat="55.6899630" lon="38.4380220"><time>2020-10-31T08:55:28.520</time></trkpt><trkpt lat="55.6900000" lon="38.4380700"><time>2020-10-31T08:55:33.403</time></trkpt><trkpt lat="55.6900070" lon="38.4381550"><time>2020-10-31T08:55:38.397</time></trkpt><trkpt lat="55.6899800" lon="38.4382230"><time>2020-10-31T08:55:42.393</time></trkpt><trkpt lat="55.6899520" lon="38.4383020"><time>2020-10-31T08:55:55.403</time></trkpt><trkpt lat="55.6899130" lon="38.4383780"><time>2020-10-31T08:55:57.400</time></trkpt><trkpt lat="55.6898820" lon="38.4384350"><time>2020-10-31T08:56:01.397</time></trkpt><trkpt lat="55.6898530" lon="38.4385100"><time>2020-10-31T08:56:06.400</time></trkpt><trkpt lat="55.6898170" lon="38.4385730"><time>2020-10-31T08:56:11.400</time></trkpt><trkpt lat="55.6897720" lon="38.4386570"><time>2020-10-31T08:56:15.400</time></trkpt><trkpt lat="55.6897270" lon="38.4387120"><time>2020-10-31T08:56:17.397</time></trkpt><trkpt lat="55.6896900" lon="38.4387730"><time>2020-10-31T08:56:22.397</time></trkpt><trkpt lat="55.6896300" lon="38.4388670"><time>2020-10-31T08:56:26.403</time></trkpt><trkpt lat="55.6895870" lon="38.4389230"><time>2020-10-31T08:56:30.400</time></trkpt><trkpt lat="55.6895450" lon="38.4389770"><time>2020-10-31T08:56:32.400</time></trkpt><trkpt lat="55.6894870" lon="38.4390230"><time>2020-10-31T08:56:37.403</time></trkpt><trkpt lat="55.6894480" lon="38.4390880"><time>2020-10-31T08:56:41.367</time></trkpt><trkpt lat="55.6894130" lon="38.4391980"><time>2020-10-31T08:56:44.397</time></trkpt><trkpt lat="55.6893770" lon="38.4392530"><time>2020-10-31T08:56:47.400</time></trkpt><trkpt lat="55.6893270" lon="38.4393400"><time>2020-10-31T08:56:49.397</time></trkpt><trkpt lat="55.6892930" lon="38.4394270"><time>2020-10-31T08:56:52.397</time></trkpt><trkpt lat="55.6892570" lon="38.4395030"><time>2020-10-31T08:56:54.403</time></trkpt><trkpt lat="55.6892130" lon="38.4395680"><time>2020-10-31T08:56:56.397</time></trkpt><trkpt lat="55.6891700" lon="38.4396300"><time>2020-10-31T08:56:59.400</time></trkpt><trkpt lat="55.6891280" lon="38.4396780"><time>2020-10-31T08:57:03.403</time></trkpt><trkpt lat="55.6890970" lon="38.4397500"><time>2020-10-31T08:57:06.397</time></trkpt><trkpt lat="55.6890630" lon="38.4398070"><time>2020-10-31T08:57:09.400</time></trkpt><trkpt lat="55.6890280" lon="38.4398950"><time>2020-10-31T08:57:11.400</time></trkpt><trkpt lat="55.6889970" lon="38.4399550"><time>2020-10-31T08:57:14.400</time></trkpt><trkpt lat="55.6889630" lon="38.4400180"><time>2020-10-31T08:57:17.403</time></trkpt><trkpt lat="55.6889130" lon="38.4401120"><time>2020-10-31T08:57:20.397</time></trkpt><trkpt lat="55.6888770" lon="38.4401850"><time>2020-10-31T08:57:22.397</time></trkpt><trkpt lat="55.6888320" lon="38.4402530"><time>2020-10-31T08:57:26.393</time></trkpt><trkpt lat="55.6887970" lon="38.4403130"><time>2020-10-31T08:57:29.403</time></trkpt><trkpt lat="55.6887750" lon="38.4403920"><time>2020-10-31T08:57:41.397</time></trkpt><trkpt lat="55.6887350" lon="38.4404780"><time>2020-10-31T08:57:46.397</time></trkpt><trkpt lat="55.6886920" lon="38.4405570"><time>2020-10-31T08:57:50.397</time></trkpt><trkpt lat="55.6886520" lon="38.4406150"><time>2020-10-31T08:57:53.397</time></trkpt><trkpt lat="55.6886130" lon="38.4406650"><time>2020-10-31T08:58:01.403</time></trkpt><trkpt lat="55.6885450" lon="38.4406920"><time>2020-10-31T08:58:06.400</time></trkpt><trkpt lat="55.6884920" lon="38.4407430"><time>2020-10-31T08:58:08.397</time></trkpt><trkpt lat="55.6884350" lon="38.4407980"><time>2020-10-31T08:58:10.397</time></trkpt><trkpt lat="55.6883980" lon="38.4408620"><time>2020-10-31T08:58:12.397</time></trkpt><trkpt lat="55.6883550" lon="38.4409220"><time>2020-10-31T08:58:16.397</time></trkpt><trkpt lat="55.6883080" lon="38.4409620"><time>2020-10-31T08:58:19.397</time></trkpt><trkpt lat="55.6882580" lon="38.4409900"><time>2020-10-31T08:58:22.397</time></trkpt><trkpt lat="55.6882180" lon="38.4410620"><time>2020-10-31T08:58:26.397</time></trkpt><trkpt lat="55.6881800" lon="38.4411180"><time>2020-10-31T08:58:31.397</time></trkpt><trkpt lat="55.6881350" lon="38.4411630"><time>2020-10-31T08:58:38.400</time></trkpt><trkpt lat="55.6880930" lon="38.4412150"><time>2020-10-31T08:58:40.397</time></trkpt><trkpt lat="55.6880570" lon="38.4412680"><time>2020-10-31T08:58:43.397</time></trkpt><trkpt lat="55.6880200" lon="38.4413220"><time>2020-10-31T08:58:48.400</time></trkpt><trkpt lat="55.6879850" lon="38.4414170"><time>2020-10-31T08:58:53.397</time></trkpt><trkpt lat="55.6879580" lon="38.4415200"><time>2020-10-31T08:58:57.400</time></trkpt><trkpt lat="55.6879430" lon="38.4416080"><time>2020-10-31T08:59:02.397</time></trkpt><trkpt lat="55.6879450" lon="38.4417000"><time>2020-10-31T08:59:07.397</time></trkpt><trkpt lat="55.6879150" lon="38.4417830"><time>2020-10-31T08:59:13.397</time></trkpt><trkpt lat="55.6878880" lon="38.4418530"><time>2020-10-31T08:59:21.403</time></trkpt><trkpt lat="55.6878670" lon="38.4419700"><time>2020-10-31T08:59:28.400</time></trkpt><trkpt lat="55.6878270" lon="38.4420600"><time>2020-10-31T08:59:31.400</time></trkpt><trkpt lat="55.6877870" lon="38.4421470"><time>2020-10-31T08:59:34.393</time></trkpt><trkpt lat="55.6877650" lon="38.4422320"><time>2020-10-31T08:59:36.393</time></trkpt><trkpt lat="55.6877470" lon="38.4423130"><time>2020-10-31T08:59:38.397</time></trkpt><trkpt lat="55.6877230" lon="38.4424080"><time>2020-10-31T08:59:40.397</time></trkpt><trkpt lat="55.6876880" lon="38.4425120"><time>2020-10-31T08:59:44.397</time></trkpt><trkpt lat="55.6876700" lon="38.4425930"><time>2020-10-31T08:59:47.393</time></trkpt><trkpt lat="55.6876480" lon="38.4426820"><time>2020-10-31T08:59:50.403</time></trkpt><trkpt lat="55.6876230" lon="38.4427750"><time>2020-10-31T08:59:53.403</time></trkpt><trkpt lat="55.6875900" lon="38.4428500"><time>2020-10-31T08:59:55.397</time></trkpt><trkpt lat="55.6875530" lon="38.4429230"><time>2020-10-31T08:59:58.397</time></trkpt><trkpt lat="55.6875180" lon="38.4429980"><time>2020-10-31T09:00:01.400</time></trkpt><trkpt lat="55.6874870" lon="38.4430630"><time>2020-10-31T09:00:05.403</time></trkpt><trkpt lat="55.6874580" lon="38.4431370"><time>2020-10-31T09:00:07.407</time></trkpt><trkpt lat="55.6874280" lon="38.4431970"><time>2020-10-31T09:00:09.407</time></trkpt><trkpt lat="55.6873880" lon="38.4432800"><time>2020-10-31T09:00:12.397</time></trkpt><trkpt lat="55.6873430" lon="38.4433630"><time>2020-10-31T09:00:15.403</time></trkpt><trkpt lat="55.6873130" lon="38.4434330"><time>2020-10-31T09:00:17.397</time></trkpt><trkpt lat="55.6872820" lon="38.4435030"><time>2020-10-31T09:00:20.400</time></trkpt><trkpt lat="55.6872430" lon="38.4435830"><time>2020-10-31T09:00:23.397</time></trkpt><trkpt lat="55.6872020" lon="38.4436800"><time>2020-10-31T09:00:27.400</time></trkpt><trkpt lat="55.6871570" lon="38.4437550"><time>2020-10-31T09:00:31.397</time></trkpt><trkpt lat="55.6871170" lon="38.4438100"><time>2020-10-31T09:00:33.403</time></trkpt><trkpt lat="55.6870730" lon="38.4438570"><time>2020-10-31T09:00:35.397</time></trkpt><trkpt lat="55.6870330" lon="38.4438930"><time>2020-10-31T09:00:38.397</time></trkpt><trkpt lat="55.6869830" lon="38.4439400"><time>2020-10-31T09:00:42.397</time></trkpt><trkpt lat="55.6869400" lon="38.4439880"><time>2020-10-31T09:00:46.393</time></trkpt><trkpt lat="55.6868900" lon="38.4440370"><time>2020-10-31T09:00:50.393</time></trkpt><trkpt lat="55.6868530" lon="38.4440880"><time>2020-10-31T09:00:55.397</time></trkpt><trkpt lat="55.6868070" lon="38.4441230"><time>2020-10-31T09:00:59.400</time></trkpt><trkpt lat="55.6867650" lon="38.4441620"><time>2020-10-31T09:01:02.400</time></trkpt><trkpt lat="55.6867300" lon="38.4442200"><time>2020-10-31T09:01:04.397</time></trkpt><trkpt lat="55.6866920" lon="38.4442620"><time>2020-10-31T09:01:06.400</time></trkpt><trkpt lat="55.6866500" lon="38.4443230"><time>2020-10-31T09:01:10.393</time></trkpt><trkpt lat="55.6866120" lon="38.4443980"><time>2020-10-31T09:01:14.397</time></trkpt><trkpt lat="55.6865730" lon="38.4444520"><time>2020-10-31T09:01:19.397</time></trkpt><trkpt lat="55.6865380" lon="38.4445180"><time>2020-10-31T09:01:25.397</time></trkpt><trkpt lat="55.6865070" lon="38.4445800"><time>2020-10-31T09:01:30.393</time></trkpt><trkpt lat="55.6864870" lon="38.4446850"><time>2020-10-31T09:01:34.397</time></trkpt><trkpt lat="55.6864330" lon="38.4447570"><time>2020-10-31T09:01:37.400</time></trkpt><trkpt lat="55.6864050" lon="38.4448300"><time>2020-10-31T09:01:43.403</time></trkpt><trkpt lat="55.6863650" lon="38.4449230"><time>2020-10-31T09:01:50.400</time></trkpt><trkpt lat="55.6863300" lon="38.4450050"><time>2020-10-31T09:01:53.397</time></trkpt><trkpt lat="55.6863130" lon="38.4450930"><time>2020-10-31T09:01:59.403</time></trkpt><trkpt lat="55.6862870" lon="38.4451600"><time>2020-10-31T09:02:02.400</time></trkpt><trkpt lat="55.6862700" lon="38.4452550"><time>2020-10-31T09:02:05.397</time></trkpt><trkpt lat="55.6862480" lon="38.4453370"><time>2020-10-31T09:02:10.400</time></trkpt><trkpt lat="55.6861950" lon="38.4453580"><time>2020-10-31T09:02:13.400</time></trkpt><trkpt lat="55.6861820" lon="38.4454450"><time>2020-10-31T09:02:17.397</time></trkpt><trkpt lat="55.6861730" lon="38.4455420"><time>2020-10-31T09:02:20.397</time></trkpt><trkpt lat="55.6861600" lon="38.4456420"><time>2020-10-31T09:02:26.397</time></trkpt><trkpt lat="55.6861450" lon="38.4457920"><time>2020-10-31T09:02:35.403</time></trkpt><trkpt lat="55.6861270" lon="38.4458680"><time>2020-10-31T09:02:40.400</time></trkpt><trkpt lat="55.6860980" lon="38.4459420"><time>2020-10-31T09:02:43.397</time></trkpt><trkpt lat="55.6860570" lon="38.4459870"><time>2020-10-31T09:02:50.403</time></trkpt><trkpt lat="55.6860130" lon="38.4460130"><time>2020-10-31T09:02:55.397</time></trkpt><trkpt lat="55.6859550" lon="38.4460970"><time>2020-10-31T09:02:59.403</time></trkpt><trkpt lat="55.6859330" lon="38.4461820"><time>2020-10-31T09:03:03.400</time></trkpt><trkpt lat="55.6858920" lon="38.4462170"><time>2020-10-31T09:03:12.400</time></trkpt><trkpt lat="55.6858450" lon="38.4462270"><time>2020-10-31T09:03:17.397</time></trkpt><trkpt lat="55.6858000" lon="38.4462530"><time>2020-10-31T09:03:23.397</time></trkpt><trkpt lat="55.6857450" lon="38.4463000"><time>2020-10-31T09:03:32.397</time></trkpt><trkpt lat="55.6856270" lon="38.4463820"><time>2020-10-31T09:03:42.397</time></trkpt><trkpt lat="55.6855580" lon="38.4464080"><time>2020-10-31T09:03:49.397</time></trkpt><trkpt lat="55.6855050" lon="38.4464400"><time>2020-10-31T09:03:52.400</time></trkpt><trkpt lat="55.6854450" lon="38.4464430"><time>2020-10-31T09:03:58.403</time></trkpt><trkpt lat="55.6853850" lon="38.4464180"><time>2020-10-31T09:04:06.400</time></trkpt><trkpt lat="55.6853270" lon="38.4464870"><time>2020-10-31T09:04:09.400</time></trkpt><trkpt lat="55.6852800" lon="38.4465300"><time>2020-10-31T09:04:13.400</time></trkpt><trkpt lat="55.6852470" lon="38.4465830"><time>2020-10-31T09:04:19.400</time></trkpt><trkpt lat="55.6851850" lon="38.4465830"><time>2020-10-31T09:04:23.397</time></trkpt><trkpt lat="55.6851050" lon="38.4466500"><time>2020-10-31T09:04:26.400</time></trkpt><trkpt lat="55.6849700" lon="38.4467180"><time>2020-10-31T09:04:40.397</time></trkpt><trkpt lat="55.6849220" lon="38.4467470"><time>2020-10-31T09:04:43.397</time></trkpt><trkpt lat="55.6848770" lon="38.4467720"><time>2020-10-31T09:04:47.397</time></trkpt><trkpt lat="55.6848370" lon="38.4468380"><time>2020-10-31T09:04:54.400</time></trkpt><trkpt lat="55.6847900" lon="38.4468630"><time>2020-10-31T09:04:59.397</time></trkpt><trkpt lat="55.6847430" lon="38.4468600"><time>2020-10-31T09:05:05.400</time></trkpt><trkpt lat="55.6846970" lon="38.4468980"><time>2020-10-31T09:05:10.387</time></trkpt><trkpt lat="55.6846430" lon="38.4469300"><time>2020-10-31T09:05:13.410</time></trkpt><trkpt lat="55.6845980" lon="38.4469670"><time>2020-10-31T09:05:16.483</time></trkpt><trkpt lat="55.6845580" lon="38.4470200"><time>2020-10-31T09:05:21.403</time></trkpt><trkpt lat="55.6845030" lon="38.4470700"><time>2020-10-31T09:05:29.397</time></trkpt><trkpt lat="55.6844870" lon="38.4469720"><time>2020-10-31T09:05:32.400</time></trkpt><trkpt lat="55.6844380" lon="38.4469550"><time>2020-10-31T09:05:37.403</time></trkpt><trkpt lat="55.6843800" lon="38.4469720"><time>2020-10-31T09:05:42.397</time></trkpt><trkpt lat="55.6843320" lon="38.4469630"><time>2020-10-31T09:05:47.397</time></trkpt><trkpt lat="55.6842800" lon="38.4469380"><time>2020-10-31T09:05:53.403</time></trkpt><trkpt lat="55.6842370" lon="38.4469150"><time>2020-10-31T09:06:03.400</time></trkpt><trkpt lat="55.6841870" lon="38.4469470"><time>2020-10-31T09:06:14.397</time></trkpt><trkpt lat="55.6841430" lon="38.4469980"><time>2020-10-31T09:06:22.403</time></trkpt><trkpt lat="55.6840980" lon="38.4469880"><time>2020-10-31T09:06:25.407</time></trkpt><trkpt lat="55.6840530" lon="38.4469700"><time>2020-10-31T09:06:28.397</time></trkpt><trkpt lat="55.6840030" lon="38.4469620"><time>2020-10-31T09:06:30.403</time></trkpt><trkpt lat="55.6839620" lon="38.4469980"><time>2020-10-31T09:06:35.397</time></trkpt><trkpt lat="55.6839130" lon="38.4469430"><time>2020-10-31T09:06:40.403</time></trkpt><trkpt lat="55.6838720" lon="38.4468900"><time>2020-10-31T09:06:42.397</time></trkpt><trkpt lat="55.6838070" lon="38.4469080"><time>2020-10-31T09:06:45.407</time></trkpt><trkpt lat="55.6837620" lon="38.4469280"><time>2020-10-31T09:06:49.403</time></trkpt><trkpt lat="55.6837330" lon="38.4468480"><time>2020-10-31T09:06:56.400</time></trkpt><trkpt lat="55.6837220" lon="38.4467700"><time>2020-10-31T09:06:59.403</time></trkpt><trkpt lat="55.6836980" lon="38.4467020"><time>2020-10-31T09:07:02.403</time></trkpt><trkpt lat="55.6836550" lon="38.4466150"><time>2020-10-31T09:07:10.397</time></trkpt><trkpt lat="55.6836200" lon="38.4465200"><time>2020-10-31T09:07:13.407</time></trkpt><trkpt lat="55.6835650" lon="38.4464870"><time>2020-10-31T09:07:16.397</time></trkpt><trkpt lat="55.6835200" lon="38.4464270"><time>2020-10-31T09:07:19.407</time></trkpt><trkpt lat="55.6834750" lon="38.4463820"><time>2020-10-31T09:07:22.400</time></trkpt><trkpt lat="55.6834180" lon="38.4463880"><time>2020-10-31T09:07:25.397</time></trkpt><trkpt lat="55.6833580" lon="38.4464080"><time>2020-10-31T09:07:28.397</time></trkpt><trkpt lat="55.6833130" lon="38.4463830"><time>2020-10-31T09:07:30.397</time></trkpt><trkpt lat="55.6832980" lon="38.4463080"><time>2020-10-31T09:07:33.403</time></trkpt><trkpt lat="55.6832630" lon="38.4462520"><time>2020-10-31T09:07:39.403</time></trkpt><trkpt lat="55.6832200" lon="38.4462820"><time>2020-10-31T09:07:43.400</time></trkpt><trkpt lat="55.6832130" lon="38.4461920"><time>2020-10-31T09:07:47.397</time></trkpt><trkpt lat="55.6831930" lon="38.4461100"><time>2020-10-31T09:07:51.397</time></trkpt><trkpt lat="55.6831450" lon="38.4460970"><time>2020-10-31T09:07:55.403</time></trkpt><trkpt lat="55.6830870" lon="38.4459700"><time>2020-10-31T09:08:02.403</time></trkpt><trkpt lat="55.6830220" lon="38.4459680"><time>2020-10-31T09:08:05.393</time></trkpt><trkpt lat="55.6829570" lon="38.4459920"><time>2020-10-31T09:08:08.400</time></trkpt><trkpt lat="55.6829320" lon="38.4459250"><time>2020-10-31T09:08:11.397</time></trkpt><trkpt lat="55.6829000" lon="38.4458680"><time>2020-10-31T09:08:17.397</time></trkpt><trkpt lat="55.6828820" lon="38.4457900"><time>2020-10-31T09:08:25.403</time></trkpt><trkpt lat="55.6828930" lon="38.4457070"><time>2020-10-31T09:08:33.407</time></trkpt><trkpt lat="55.6828800" lon="38.4456180"><time>2020-10-31T09:08:42.397</time></trkpt><trkpt lat="55.6828550" lon="38.4455250"><time>2020-10-31T09:08:45.407</time></trkpt><trkpt lat="55.6828330" lon="38.4454430"><time>2020-10-31T09:08:47.397</time></trkpt><trkpt lat="55.6828120" lon="38.4453700"><time>2020-10-31T09:08:50.400</time></trkpt><trkpt lat="55.6827880" lon="38.4452970"><time>2020-10-31T09:08:57.410</time></trkpt><trkpt lat="55.6827350" lon="38.4452480"><time>2020-10-31T09:09:01.400</time></trkpt><trkpt lat="55.6827080" lon="38.4451830"><time>2020-10-31T09:09:03.407</time></trkpt><trkpt lat="55.6826870" lon="38.4450920"><time>2020-10-31T09:09:19.400</time></trkpt><trkpt lat="55.6826750" lon="38.4450080"><time>2020-10-31T09:09:27.403</time></trkpt><trkpt lat="55.6826220" lon="38.4449830"><time>2020-10-31T09:09:31.400</time></trkpt><trkpt lat="55.6825680" lon="38.4449680"><time>2020-10-31T09:09:35.397</time></trkpt><trkpt lat="55.6825170" lon="38.4449070"><time>2020-10-31T09:09:45.403</time></trkpt><trkpt lat="55.6824700" lon="38.4448300"><time>2020-10-31T09:09:48.397</time></trkpt><trkpt lat="55.6824600" lon="38.4447380"><time>2020-10-31T09:09:59.413</time></trkpt><trkpt lat="55.6824270" lon="38.4446830"><time>2020-10-31T09:10:09.370</time></trkpt><trkpt lat="55.6824200" lon="38.4446020"><time>2020-10-31T09:10:16.400</time></trkpt><trkpt lat="55.6823970" lon="38.4445230"><time>2020-10-31T09:10:23.397</time></trkpt><trkpt lat="55.6823380" lon="38.4444480"><time>2020-10-31T09:10:28.407</time></trkpt><trkpt lat="55.6823150" lon="38.4443350"><time>2020-10-31T09:10:30.407</time></trkpt><trkpt lat="55.6822920" lon="38.4442530"><time>2020-10-31T09:10:33.407</time></trkpt><trkpt lat="55.6822420" lon="38.4442420"><time>2020-10-31T09:10:38.397</time></trkpt><trkpt lat="55.6822000" lon="38.4442000"><time>2020-10-31T09:10:44.403</time></trkpt><trkpt lat="55.6821520" lon="38.4442100"><time>2020-10-31T09:10:51.407</time></trkpt><trkpt lat="55.6821270" lon="38.4441430"><time>2020-10-31T09:11:03.407</time></trkpt><trkpt lat="55.6820570" lon="38.4441000"><time>2020-10-31T09:11:08.400</time></trkpt><trkpt lat="55.6820170" lon="38.4440350"><time>2020-10-31T09:11:23.397</time></trkpt><trkpt lat="55.6820000" lon="38.4439580"><time>2020-10-31T09:11:26.407</time></trkpt><trkpt lat="55.6819700" lon="38.4438880"><time>2020-10-31T09:11:32.403</time></trkpt><trkpt lat="55.6819450" lon="38.4438130"><time>2020-10-31T09:11:39.407</time></trkpt><trkpt lat="55.6819080" lon="38.4437050"><time>2020-10-31T09:11:42.403</time></trkpt><trkpt lat="55.6818670" lon="38.4436030"><time>2020-10-31T09:11:45.407</time></trkpt><trkpt lat="55.6818320" lon="38.4435430"><time>2020-10-31T09:11:47.400</time></trkpt><trkpt lat="55.6817880" lon="38.4434930"><time>2020-10-31T09:11:50.400</time></trkpt><trkpt lat="55.6817330" lon="38.4434170"><time>2020-10-31T09:11:52.403</time></trkpt><trkpt lat="55.6816750" lon="38.4434170"><time>2020-10-31T09:11:55.363</time></trkpt><trkpt lat="55.6816280" lon="38.4433650"><time>2020-10-31T09:11:57.403</time></trkpt><trkpt lat="55.6815600" lon="38.4433320"><time>2020-10-31T09:11:59.407</time></trkpt><trkpt lat="55.6814920" lon="38.4432950"><time>2020-10-31T09:12:03.407</time></trkpt><trkpt lat="55.6814380" lon="38.4432780"><time>2020-10-31T09:12:05.410</time></trkpt><trkpt lat="55.6814020" lon="38.4432120"><time>2020-10-31T09:12:11.400</time></trkpt><trkpt lat="55.6813500" lon="38.4431950"><time>2020-10-31T09:12:19.400</time></trkpt><trkpt lat="55.6813000" lon="38.4431930"><time>2020-10-31T09:12:25.407</time></trkpt><trkpt lat="55.6812580" lon="38.4431530"><time>2020-10-31T09:12:30.397</time></trkpt><trkpt lat="55.6812100" lon="38.4431600"><time>2020-10-31T09:12:36.403</time></trkpt><trkpt lat="55.6811700" lon="38.4432020"><time>2020-10-31T09:12:41.403</time></trkpt><trkpt lat="55.6811120" lon="38.4432120"><time>2020-10-31T09:12:46.407</time></trkpt><trkpt lat="55.6810620" lon="38.4432030"><time>2020-10-31T09:12:48.407</time></trkpt><trkpt lat="55.6810130" lon="38.4432020"><time>2020-10-31T09:12:50.403</time></trkpt><trkpt lat="55.6809580" lon="38.4431830"><time>2020-10-31T09:12:52.403</time></trkpt><trkpt lat="55.6809120" lon="38.4431650"><time>2020-10-31T09:12:54.407</time></trkpt><trkpt lat="55.6808780" lon="38.4430980"><time>2020-10-31T09:13:01.407</time></trkpt><trkpt lat="55.6808270" lon="38.4430850"><time>2020-10-31T09:13:09.407</time></trkpt><trkpt lat="55.6808100" lon="38.4430100"><time>2020-10-31T09:13:21.400</time></trkpt><trkpt lat="55.6807650" lon="38.4428550"><time>2020-10-31T09:13:32.407</time></trkpt><trkpt lat="55.6807130" lon="38.4428730"><time>2020-10-31T09:13:37.403</time></trkpt><trkpt lat="55.6806680" lon="38.4428600"><time>2020-10-31T09:13:41.403</time></trkpt><trkpt lat="55.6806200" lon="38.4428820"><time>2020-10-31T09:13:45.403</time></trkpt><trkpt lat="55.6805730" lon="38.4428600"><time>2020-10-31T09:13:54.403</time></trkpt><trkpt lat="55.6805130" lon="38.4428300"><time>2020-10-31T09:14:01.403</time></trkpt><trkpt lat="55.6804630" lon="38.4428100"><time>2020-10-31T09:14:03.407</time></trkpt><trkpt lat="55.6804150" lon="38.4427920"><time>2020-10-31T09:14:05.403</time></trkpt><trkpt lat="55.6803600" lon="38.4427470"><time>2020-10-31T09:14:09.407</time></trkpt><trkpt lat="55.6802970" lon="38.4427550"><time>2020-10-31T09:14:11.400</time></trkpt><trkpt lat="55.6802470" lon="38.4427400"><time>2020-10-31T09:14:14.403</time></trkpt><trkpt lat="55.6801970" lon="38.4427070"><time>2020-10-31T09:14:23.403</time></trkpt><trkpt lat="55.6801520" lon="38.4426600"><time>2020-10-31T09:14:28.407</time></trkpt><trkpt lat="55.6801130" lon="38.4426120"><time>2020-10-31T09:14:30.403</time></trkpt><trkpt lat="55.6800720" lon="38.4426480"><time>2020-10-31T09:14:38.407</time></trkpt><trkpt lat="55.6800270" lon="38.4426130"><time>2020-10-31T09:14:46.403</time></trkpt><trkpt lat="55.6799780" lon="38.4425780"><time>2020-10-31T09:14:52.403</time></trkpt><trkpt lat="55.6799350" lon="38.4424950"><time>2020-10-31T09:14:56.407</time></trkpt><trkpt lat="55.6798900" lon="38.4424830"><time>2020-10-31T09:15:01.407</time></trkpt><trkpt lat="55.6798680" lon="38.4424120"><time>2020-10-31T09:15:06.403</time></trkpt><trkpt lat="55.6798480" lon="38.4423250"><time>2020-10-31T09:15:12.403</time></trkpt><trkpt lat="55.6798030" lon="38.4423150"><time>2020-10-31T09:15:16.377</time></trkpt><trkpt lat="55.6797520" lon="38.4422970"><time>2020-10-31T09:15:21.410</time></trkpt><trkpt lat="55.6797070" lon="38.4422700"><time>2020-10-31T09:15:32.403</time></trkpt><trkpt lat="55.6796620" lon="38.4422400"><time>2020-10-31T09:15:40.400</time></trkpt><trkpt lat="55.6796150" lon="38.4422230"><time>2020-10-31T09:15:47.400</time></trkpt><trkpt lat="55.6795700" lon="38.4422230"><time>2020-10-31T09:15:53.403</time></trkpt><trkpt lat="55.6795250" lon="38.4422170"><time>2020-10-31T09:15:58.400</time></trkpt><trkpt lat="55.6794750" lon="38.4421900"><time>2020-10-31T09:16:06.407</time></trkpt><trkpt lat="55.6794280" lon="38.4421720"><time>2020-10-31T09:16:12.397</time></trkpt><trkpt lat="55.6793970" lon="38.4421080"><time>2020-10-31T09:16:17.407</time></trkpt><trkpt lat="55.6793470" lon="38.4420830"><time>2020-10-31T09:16:24.407</time></trkpt><trkpt lat="55.6792930" lon="38.4420950"><time>2020-10-31T09:16:27.407</time></trkpt><trkpt lat="55.6792270" lon="38.4420400"><time>2020-10-31T09:16:38.403</time></trkpt><trkpt lat="55.6791930" lon="38.4419750"><time>2020-10-31T09:16:42.407</time></trkpt><trkpt lat="55.6791500" lon="38.4419080"><time>2020-10-31T09:16:47.407</time></trkpt><trkpt lat="55.6791130" lon="38.4418370"><time>2020-10-31T09:16:53.403</time></trkpt><trkpt lat="55.6790550" lon="38.4418350"><time>2020-10-31T09:16:58.407</time></trkpt><trkpt lat="55.6790130" lon="38.4417670"><time>2020-10-31T09:17:03.403</time></trkpt><trkpt lat="55.6789570" lon="38.4417520"><time>2020-10-31T09:17:08.407</time></trkpt><trkpt lat="55.6789170" lon="38.4416880"><time>2020-10-31T09:17:12.397</time></trkpt><trkpt lat="55.6788920" lon="38.4416080"><time>2020-10-31T09:17:16.407</time></trkpt><trkpt lat="55.6788800" lon="38.4415170"><time>2020-10-31T09:17:22.403</time></trkpt><trkpt lat="55.6788350" lon="38.4414750"><time>2020-10-31T09:17:31.407</time></trkpt><trkpt lat="55.6787870" lon="38.4414500"><time>2020-10-31T09:17:43.407</time></trkpt><trkpt lat="55.6787580" lon="38.4413200"><time>2020-10-31T09:17:45</time></trkpt><trkpt lat="55.6787400" lon="38.4412030"><time>2020-10-31T09:17:48.400</time></trkpt><trkpt lat="55.6787400" lon="38.4411200"><time>2020-10-31T09:17:51.380</time></trkpt><trkpt lat="55.6786850" lon="38.4411020"><time>2020-10-31T09:17:57.407</time></trkpt><trkpt lat="55.6786230" lon="38.4410780"><time>2020-10-31T09:18:01.407</time></trkpt><trkpt lat="55.6785800" lon="38.4410500"><time>2020-10-31T09:18:03.407</time></trkpt><trkpt lat="55.6785500" lon="38.4409730"><time>2020-10-31T09:18:07.410</time></trkpt><trkpt lat="55.6785020" lon="38.4409700"><time>2020-10-31T09:18:09.407</time></trkpt><trkpt lat="55.6784770" lon="38.4408880"><time>2020-10-31T09:18:16.407</time></trkpt><trkpt lat="55.6784280" lon="38.4409020"><time>2020-10-31T09:18:20.407</time></trkpt><trkpt lat="55.6783830" lon="38.4409100"><time>2020-10-31T09:18:24.403</time></trkpt><trkpt lat="55.6783280" lon="38.4408770"><time>2020-10-31T09:18:30.403</time></trkpt><trkpt lat="55.6782270" lon="38.4408980"><time>2020-10-31T09:18:43.407</time></trkpt><trkpt lat="55.6781320" lon="38.4408720"><time>2020-10-31T09:18:55.410</time></trkpt><trkpt lat="55.6780850" lon="38.4408370"><time>2020-10-31T09:19:06.407</time></trkpt><trkpt lat="55.6780480" lon="38.4407870"><time>2020-10-31T09:19:18.407</time></trkpt><trkpt lat="55.6780020" lon="38.4407500"><time>2020-10-31T09:19:23.407</time></trkpt><trkpt lat="55.6779170" lon="38.4406020"><time>2020-10-31T09:19:27.410</time></trkpt><trkpt lat="55.6778870" lon="38.4405370"><time>2020-10-31T09:19:30.403</time></trkpt><trkpt lat="55.6778530" lon="38.4404580"><time>2020-10-31T09:19:35.403</time></trkpt><trkpt lat="55.6778100" lon="38.4403980"><time>2020-10-31T09:19:42.403</time></trkpt><trkpt lat="55.6777650" lon="38.4404000"><time>2020-10-31T09:19:45.403</time></trkpt><trkpt lat="55.6777130" lon="38.4403830"><time>2020-10-31T09:19:49.407</time></trkpt><trkpt lat="55.6776550" lon="38.4403700"><time>2020-10-31T09:19:56.403</time></trkpt><trkpt lat="55.6776070" lon="38.4403230"><time>2020-10-31T09:20:00.400</time></trkpt><trkpt lat="55.6775470" lon="38.4403200"><time>2020-10-31T09:20:04.407</time></trkpt><trkpt lat="55.6775030" lon="38.4403580"><time>2020-10-31T09:20:06.407</time></trkpt><trkpt lat="55.6774600" lon="38.4403870"><time>2020-10-31T09:20:08.403</time></trkpt><trkpt lat="55.6774130" lon="38.4404070"><time>2020-10-31T09:20:14.403</time></trkpt><trkpt lat="55.6773750" lon="38.4403620"><time>2020-10-31T09:20:17.403</time></trkpt><trkpt lat="55.6773300" lon="38.4403420"><time>2020-10-31T09:20:24.400</time></trkpt><trkpt lat="55.6772830" lon="38.4403450"><time>2020-10-31T09:20:33.413</time></trkpt><trkpt lat="55.6772470" lon="38.4402870"><time>2020-10-31T09:20:38.407</time></trkpt><trkpt lat="55.6772470" lon="38.4401970"><time>2020-10-31T09:20:46.400</time></trkpt><trkpt lat="55.6772520" lon="38.4401100"><time>2020-10-31T09:20:54.407</time></trkpt><trkpt lat="55.6772830" lon="38.4400530"><time>2020-10-31T09:21:02.407</time></trkpt><trkpt lat="55.6772850" lon="38.4399530"><time>2020-10-31T09:21:07.407</time></trkpt><trkpt lat="55.6773000" lon="38.4398620"><time>2020-10-31T09:21:11.403</time></trkpt><trkpt lat="55.6773130" lon="38.4397850"><time>2020-10-31T09:21:15.407</time></trkpt><trkpt lat="55.6773170" lon="38.4396970"><time>2020-10-31T09:21:24.407</time></trkpt><trkpt lat="55.6772850" lon="38.4396270"><time>2020-10-31T09:21:27.410</time></trkpt><trkpt lat="55.6772680" lon="38.4395400"><time>2020-10-31T09:21:31.407</time></trkpt><trkpt lat="55.6772830" lon="38.4394630"><time>2020-10-31T09:22:09.403</time></trkpt><trkpt lat="55.6772450" lon="38.4394030"><time>2020-10-31T09:22:28.407</time></trkpt><trkpt lat="55.6772400" lon="38.4393180"><time>2020-10-31T09:22:32.407</time></trkpt><trkpt lat="55.6771880" lon="38.4393120"><time>2020-10-31T09:22:44.407</time></trkpt><trkpt lat="55.6771320" lon="38.4392880"><time>2020-10-31T09:22:48.403</time></trkpt><trkpt lat="55.6770980" lon="38.4392320"><time>2020-10-31T09:22:51.407</time></trkpt><trkpt lat="55.6770730" lon="38.4391500"><time>2020-10-31T09:22:54.407</time></trkpt><trkpt lat="55.6770630" lon="38.4390680"><time>2020-10-31T09:22:58.403</time></trkpt><trkpt lat="55.6770170" lon="38.4390170"><time>2020-10-31T09:23:04.407</time></trkpt><trkpt lat="55.6769670" lon="38.4390130"><time>2020-10-31T09:23:09.407</time></trkpt><trkpt lat="55.6769150" lon="38.4389930"><time>2020-10-31T09:23:14.407</time></trkpt><trkpt lat="55.6768670" lon="38.4390050"><time>2020-10-31T09:23:18.407</time></trkpt><trkpt lat="55.6768320" lon="38.4389380"><time>2020-10-31T09:23:22.407</time></trkpt><trkpt lat="55.6768550" lon="38.4388400"><time>2020-10-31T09:23:24.407</time></trkpt><trkpt lat="55.6767980" lon="38.4388370"><time>2020-10-31T09:23:29.407</time></trkpt><trkpt lat="55.6767730" lon="38.4387650"><time>2020-10-31T09:23:33.403</time></trkpt><trkpt lat="55.6767280" lon="38.4387600"><time>2020-10-31T09:23:37.407</time></trkpt><trkpt lat="55.6766730" lon="38.4387820"><time>2020-10-31T09:23:39.407</time></trkpt><trkpt lat="55.6766130" lon="38.4388050"><time>2020-10-31T09:23:41.403</time></trkpt><trkpt lat="55.6765650" lon="38.4388200"><time>2020-10-31T09:23:43.407</time></trkpt><trkpt lat="55.6765270" lon="38.4387470"><time>2020-10-31T09:23:45.407</time></trkpt><trkpt lat="55.6764720" lon="38.4387220"><time>2020-10-31T09:23:49.403</time></trkpt><trkpt lat="55.6764270" lon="38.4387170"><time>2020-10-31T09:23:53.403</time></trkpt><trkpt lat="55.6763720" lon="38.4387380"><time>2020-10-31T09:23:57.407</time></trkpt><trkpt lat="55.6763120" lon="38.4387780"><time>2020-10-31T09:24:00.407</time></trkpt><trkpt lat="55.6762550" lon="38.4388070"><time>2020-10-31T09:24:04.407</time></trkpt><trkpt lat="55.6761980" lon="38.4388180"><time>2020-10-31T09:24:08.403</time></trkpt><trkpt lat="55.6761480" lon="38.4387980"><time>2020-10-31T09:24:12.407</time></trkpt><trkpt lat="55.6761030" lon="38.4387920"><time>2020-10-31T09:24:16.407</time></trkpt><trkpt lat="55.6760420" lon="38.4387850"><time>2020-10-31T09:24:20.407</time></trkpt><trkpt lat="55.6759930" lon="38.4388170"><time>2020-10-31T09:24:24.407</time></trkpt><trkpt lat="55.6759450" lon="38.4388350"><time>2020-10-31T09:24:27.407</time></trkpt><trkpt lat="55.6759000" lon="38.4388600"><time>2020-10-31T09:24:29.407</time></trkpt><trkpt lat="55.6758370" lon="38.4388630"><time>2020-10-31T09:24:33.407</time></trkpt><trkpt lat="55.6757800" lon="38.4388480"><time>2020-10-31T09:24:36.403</time></trkpt><trkpt lat="55.6757320" lon="38.4388550"><time>2020-10-31T09:14:28.407</time></trkpt><trkpt lat="55.6756650" lon="38.4388470"><time>2020-10-31T09:24:41.407</time></trkpt><trkpt lat="55.6756030" lon="38.4388620"><time>2020-10-31T09:24:43.407</time></trkpt><trkpt lat="55.6755470" lon="38.4388870"><time>2020-10-31T09:24:46.407</time></trkpt><trkpt lat="55.6754920" lon="38.4388880"><time>2020-10-31T09:24:49.407</time></trkpt><trkpt lat="55.6754430" lon="38.4389080"><time>2020-10-31T09:24:54.407</time></trkpt><trkpt lat="55.6753970" lon="38.4389130"><time>2020-10-31T09:24:58.410</time></trkpt><trkpt lat="55.6753350" lon="38.4389550"><time>2020-10-31T09:25:01.407</time></trkpt><trkpt lat="55.6752900" lon="38.4389820"><time>2020-10-31T09:25:04.407</time></trkpt><trkpt lat="55.6752370" lon="38.4390070"><time>2020-10-31T09:25:07.407</time></trkpt><trkpt lat="55.6751920" lon="38.4390230"><time>2020-10-31T09:25:09.407</time></trkpt><trkpt lat="55.6751370" lon="38.4390730"><time>2020-10-31T09:25:13.413</time></trkpt><trkpt lat="55.6750900" lon="38.4390800"><time>2020-10-31T09:25:15.407</time></trkpt><trkpt lat="55.6750450" lon="38.4390920"><time>2020-10-31T09:25:17.403</time></trkpt><trkpt lat="55.6749970" lon="38.4391220"><time>2020-10-31T09:25:19.407</time></trkpt><trkpt lat="55.6749470" lon="38.4391450"><time>2020-10-31T09:25:21.410</time></trkpt><trkpt lat="55.6748870" lon="38.4391820"><time>2020-10-31T09:25:24.407</time></trkpt><trkpt lat="55.6748420" lon="38.4391930"><time>2020-10-31T09:25:26.410</time></trkpt><trkpt lat="55.6747880" lon="38.4392100"><time>2020-10-31T09:25:28.407</time></trkpt><trkpt lat="55.6747450" lon="38.4391870"><time>2020-10-31T09:25:32.407</time></trkpt><trkpt lat="55.6746950" lon="38.4391730"><time>2020-10-31T09:25:36.407</time></trkpt><trkpt lat="55.6746480" lon="38.4391520"><time>2020-10-31T09:25:39.407</time></trkpt><trkpt lat="55.6746020" lon="38.4391380"><time>2020-10-31T09:25:43.407</time></trkpt><trkpt lat="55.6745480" lon="38.4391480"><time>2020-10-31T09:25:46.407</time></trkpt><trkpt lat="55.6745000" lon="38.4391500"><time>2020-10-31T09:25:51.407</time></trkpt><trkpt lat="55.6744400" lon="38.4391650"><time>2020-10-31T09:25:55.403</time></trkpt><trkpt lat="55.6743700" lon="38.4391900"><time>2020-10-31T09:25:57.407</time></trkpt><trkpt lat="55.6743250" lon="38.4391970"><time>2020-10-31T09:25:59.363</time></trkpt><trkpt lat="55.6742620" lon="38.4392150"><time>2020-10-31T09:26:02.407</time></trkpt><trkpt lat="55.6742130" lon="38.4391920"><time>2020-10-31T09:26:05.407</time></trkpt><trkpt lat="55.6741580" lon="38.4391770"><time>2020-10-31T09:26:08.407</time></trkpt><trkpt lat="55.6741120" lon="38.4391900"><time>2020-10-31T09:26:11.407</time></trkpt><trkpt lat="55.6740580" lon="38.4391920"><time>2020-10-31T09:26:14.407</time></trkpt><trkpt lat="55.6740030" lon="38.4391880"><time>2020-10-31T09:26:21.407</time></trkpt><trkpt lat="55.6739580" lon="38.4392030"><time>2020-10-31T09:26:26.410</time></trkpt><trkpt lat="55.6739000" lon="38.4392100"><time>2020-10-31T09:26:31.410</time></trkpt><trkpt lat="55.6738600" lon="38.4391730"><time>2020-10-31T09:26:34.410</time></trkpt><trkpt lat="55.6738120" lon="38.4391380"><time>2020-10-31T09:26:39.410</time></trkpt><trkpt lat="55.6737570" lon="38.4391330"><time>2020-10-31T09:26:43.410</time></trkpt><trkpt lat="55.6736970" lon="38.4391330"><time>2020-10-31T09:26:47.407</time></trkpt><trkpt lat="55.6736500" lon="38.4391120"><time>2020-10-31T09:26:51.407</time></trkpt><trkpt lat="55.6736020" lon="38.4391170"><time>2020-10-31T09:26:55.410</time></trkpt><trkpt lat="55.6735430" lon="38.4391450"><time>2020-10-31T09:27:00.407</time></trkpt><trkpt lat="55.6734970" lon="38.4391580"><time>2020-10-31T09:27:03.407</time></trkpt><trkpt lat="55.6734530" lon="38.4391830"><time>2020-10-31T09:27:06.407</time></trkpt><trkpt lat="55.6734020" lon="38.4392250"><time>2020-10-31T09:27:11.410</time></trkpt><trkpt lat="55.6733530" lon="38.4392470"><time>2020-10-31T09:27:16.410</time></trkpt><trkpt lat="55.6732920" lon="38.4392650"><time>2020-10-31T09:27:19.407</time></trkpt><trkpt lat="55.6732330" lon="38.4392930"><time>2020-10-31T09:27:21.407</time></trkpt><trkpt lat="55.6731770" lon="38.4393130"><time>2020-10-31T09:27:24.407</time></trkpt><trkpt lat="55.6731120" lon="38.4392880"><time>2020-10-31T09:27:27.407</time></trkpt><trkpt lat="55.6730380" lon="38.4392970"><time>2020-10-31T09:27:30.410</time></trkpt><trkpt lat="55.6729830" lon="38.4393120"><time>2020-10-31T09:27:33.407</time></trkpt><trkpt lat="55.6729280" lon="38.4393220"><time>2020-10-31T09:27:36.407</time></trkpt><trkpt lat="55.6728730" lon="38.4393400"><time>2020-10-31T09:27:38.410</time></trkpt><trkpt lat="55.6728150" lon="38.4393130"><time>2020-10-31T09:27:49.407</time></trkpt><trkpt lat="55.6727630" lon="38.4393030"><time>2020-10-31T09:27:45.407</time></trkpt><trkpt lat="55.6727150" lon="38.4393000"><time>2020-10-31T09:27:49.407</time></trkpt><trkpt lat="55.6726630" lon="38.4392930"><time>2020-10-31T09:20:04.407</time></trkpt><trkpt lat="55.6726080" lon="38.4392780"><time>2020-10-31T09:27:57.407</time></trkpt><trkpt lat="55.6725170" lon="38.4393100"><time>2020-10-31T09:28:00.413</time></trkpt><trkpt lat="55.6724620" lon="38.4393350"><time>2020-10-31T09:20:14.403</time></trkpt><trkpt lat="55.6724120" lon="38.4393280"><time>2020-10-31T09:28:05.407</time></trkpt><trkpt lat="55.6724150" lon="38.4392350"><time>2020-10-31T09:28:09.407</time></trkpt><trkpt lat="55.6723730" lon="38.4391850"><time>2020-10-31T09:28:12.407</time></trkpt><trkpt lat="55.6723370" lon="38.4391030"><time>2020-10-31T09:28:14.407</time></trkpt><trkpt lat="55.6722950" lon="38.4390550"><time>2020-10-31T09:28:17.407</time></trkpt><trkpt lat="55.6722550" lon="38.4389980"><time>2020-10-31T09:28:21.407</time></trkpt><trkpt lat="55.6722180" lon="38.4389050"><time>2020-10-31T09:28:26.407</time></trkpt><trkpt lat="55.6721850" lon="38.4388370"><time>2020-10-31T09:28:27.407</time></trkpt><trkpt lat="55.6721550" lon="38.4387470"><time>2020-10-31T09:28:29.407</time></trkpt><trkpt lat="55.6721380" lon="38.4386130"><time>2020-10-31T09:28:31.403</time></trkpt><trkpt lat="55.6720970" lon="38.4385550"><time>2020-10-31T09:28:33.410</time></trkpt><trkpt lat="55.6720450" lon="38.4385550"><time>2020-10-31T09:28:35.400</time></trkpt><trkpt lat="55.6720000" lon="38.4385020"><time>2020-10-31T09:28:42.407</time></trkpt><trkpt lat="55.6719450" lon="38.4384220"><time>2020-10-31T09:28:49.400</time></trkpt><trkpt lat="55.6719280" lon="38.4383100"><time>2020-10-31T09:28:51.403</time></trkpt><trkpt lat="55.6718920" lon="38.4382170"><time>2020-10-31T09:28:54.407</time></trkpt><trkpt lat="55.6718400" lon="38.4381320"><time>2020-10-31T09:28:56.403</time></trkpt><trkpt lat="55.6717930" lon="38.4381020"><time>2020-10-31T09:28:58.407</time></trkpt><trkpt lat="55.6717400" lon="38.4380700"><time>2020-10-31T09:29:00.407</time></trkpt><trkpt lat="55.6716830" lon="38.4380750"><time>2020-10-31T09:29:03.407</time></trkpt><trkpt lat="55.6716320" lon="38.4380980"><time>2020-10-31T09:29:06.407</time></trkpt><trkpt lat="55.6715220" lon="38.4380700"><time>2020-10-31T09:29:17.407</time></trkpt><trkpt lat="55.6714720" lon="38.4380920"><time>2020-10-31T09:29:19.407</time></trkpt><trkpt lat="55.6713970" lon="38.4381430"><time>2020-10-31T09:29:23.407</time></trkpt><trkpt lat="55.6713500" lon="38.4381500"><time>2020-10-31T09:29:29.407</time></trkpt><trkpt lat="55.6713200" lon="38.4380820"><time>2020-10-31T09:29:34.407</time></trkpt><trkpt lat="55.6713020" lon="38.4379950"><time>2020-10-31T09:29:42.407</time></trkpt><trkpt lat="55.6712770" lon="38.4379180"><time>2020-10-31T09:29:50.407</time></trkpt><trkpt lat="55.6712370" lon="38.4378680"><time>2020-10-31T09:29:55.410</time></trkpt><trkpt lat="55.6711980" lon="38.4378200"><time>2020-10-31T09:30:02.407</time></trkpt><trkpt lat="55.6711530" lon="38.4377770"><time>2020-10-31T09:30:11.410</time></trkpt><trkpt lat="55.6711050" lon="38.4377750"><time>2020-10-31T09:30:15.417</time></trkpt><trkpt lat="55.6710550" lon="38.4377850"><time>2020-10-31T09:30:18.407</time></trkpt><trkpt lat="55.6709980" lon="38.4377480"><time>2020-10-31T09:30:22.407</time></trkpt><trkpt lat="55.6709430" lon="38.4377550"><time>2020-10-31T09:30:24.407</time></trkpt><trkpt lat="55.6708950" lon="38.4377500"><time>2020-10-31T09:30:30.410</time></trkpt><trkpt lat="55.6708570" lon="38.4377030"><time>2020-10-31T09:30:31.410</time></trkpt><trkpt lat="55.6708250" lon="38.4376370"><time>2020-10-31T09:30:33.410</time></trkpt><trkpt lat="55.6708050" lon="38.4375630"><time>2020-10-31T09:30:35.407</time></trkpt><trkpt lat="55.6707820" lon="38.4374620"><time>2020-10-31T09:30:37.407</time></trkpt><trkpt lat="55.6707320" lon="38.4373980"><time>2020-10-31T09:30:40.410</time></trkpt><trkpt lat="55.6706700" lon="38.4373050"><time>2020-10-31T09:30:43.370</time></trkpt><trkpt lat="55.6706520" lon="38.4372270"><time>2020-10-31T09:30:46.410</time></trkpt><trkpt lat="55.6706430" lon="38.4371370"><time>2020-10-31T09:30:55.410</time></trkpt><trkpt lat="55.6706130" lon="38.4370630"><time>2020-10-31T09:31:06.407</time></trkpt><trkpt lat="55.6705750" lon="38.4370120"><time>2020-10-31T09:31:09.407</time></trkpt><trkpt lat="55.6705420" lon="38.4369530"><time>2020-10-31T09:31:11.407</time></trkpt><trkpt lat="55.6705050" lon="38.4369000"><time>2020-10-31T09:31:16.407</time></trkpt><trkpt lat="55.6704650" lon="38.4368530"><time>2020-10-31T09:31:19.410</time></trkpt><trkpt lat="55.6703980" lon="38.4367570"><time>2020-10-31T09:31:22.410</time></trkpt><trkpt lat="55.6703920" lon="38.4366750"><time>2020-10-31T09:31:23.407</time></trkpt><trkpt lat="55.6703700" lon="38.4365470"><time>2020-10-31T09:31:26.407</time></trkpt><trkpt lat="55.6703450" lon="38.4364080"><time>2020-10-31T09:31:30.407</time></trkpt><trkpt lat="55.6703250" lon="38.4363270"><time>2020-10-31T09:31:32.407</time></trkpt><trkpt lat="55.6703150" lon="38.4362050"><time>2020-10-31T09:31:35.407</time></trkpt><trkpt lat="55.6703250" lon="38.4361250"><time>2020-10-31T09:31:39.413</time></trkpt><trkpt lat="55.6703200" lon="38.4359630"><time>2020-10-31T09:31:43.410</time></trkpt><trkpt lat="55.6702820" lon="38.4359070"><time>2020-10-31T09:31:47.410</time></trkpt><trkpt lat="55.6702500" lon="38.4358480"><time>2020-10-31T09:31:53.407</time></trkpt><trkpt lat="55.6702080" lon="38.4357630"><time>2020-10-31T09:31:58.407</time></trkpt><trkpt lat="55.6701870" lon="38.4356550"><time>2020-10-31T09:32:02.407</time></trkpt><trkpt lat="55.6701620" lon="38.4355780"><time>2020-10-31T09:32:07.413</time></trkpt><trkpt lat="55.6701430" lon="38.4354900"><time>2020-10-31T09:32:17.403</time></trkpt><trkpt lat="55.6701200" lon="38.4354180"><time>2020-10-31T09:32:19.413</time></trkpt><trkpt lat="55.6700770" lon="38.4353470"><time>2020-10-31T09:32:25.410</time></trkpt><trkpt lat="55.6700470" lon="38.4352870"><time>2020-10-31T09:32:30.407</time></trkpt><trkpt lat="55.6699670" lon="38.4351720"><time>2020-10-31T09:32:39.407</time></trkpt><trkpt lat="55.6699380" lon="38.4350980"><time>2020-10-31T09:32:43.410</time></trkpt><trkpt lat="55.6698820" lon="38.4350130"><time>2020-10-31T09:32:47.403</time></trkpt><trkpt lat="55.6698170" lon="38.4347820"><time>2020-10-31T09:32:55.410</time></trkpt><trkpt lat="55.6697370" lon="38.4346220"><time>2020-10-31T09:33:06.407</time></trkpt><trkpt lat="55.6696900" lon="38.4345880"><time>2020-10-31T09:33:10.410</time></trkpt><trkpt lat="55.6696420" lon="38.4345570"><time>2020-10-31T09:33:14.407</time></trkpt><trkpt lat="55.6695920" lon="38.4345120"><time>2020-10-31T09:33:18.407</time></trkpt><trkpt lat="55.6695480" lon="38.4344850"><time>2020-10-31T09:33:23.410</time></trkpt><trkpt lat="55.6695200" lon="38.4344220"><time>2020-10-31T09:33:26.410</time></trkpt><trkpt lat="55.6694720" lon="38.4342900"><time>2020-10-31T09:33:35.407</time></trkpt><trkpt lat="55.6694520" lon="38.4341930"><time>2020-10-31T09:33:39.407</time></trkpt><trkpt lat="55.6694250" lon="38.4341100"><time>2020-10-31T09:33:41.410</time></trkpt><trkpt lat="55.6693970" lon="38.4340120"><time>2020-10-31T09:33:43.410</time></trkpt><trkpt lat="55.6693880" lon="38.4338800"><time>2020-10-31T09:33:45.410</time></trkpt><trkpt lat="55.6693820" lon="38.4337730"><time>2020-10-31T09:33:47.407</time></trkpt><trkpt lat="55.6693580" lon="38.4336980"><time>2020-10-31T09:33:51.407</time></trkpt><trkpt lat="55.6693080" lon="38.4336580"><time>2020-10-31T09:33:57.407</time></trkpt><trkpt lat="55.6692650" lon="38.4335950"><time>2020-10-31T09:34:01.407</time></trkpt><trkpt lat="55.6692300" lon="38.4335400"><time>2020-10-31T09:34:07.407</time></trkpt><trkpt lat="55.6692030" lon="38.4334730"><time>2020-10-31T09:34:20.410</time></trkpt><trkpt lat="55.6691950" lon="38.4333950"><time>2020-10-31T09:34:30.407</time></trkpt><trkpt lat="55.6691750" lon="38.4333230"><time>2020-10-31T09:34:37.407</time></trkpt><trkpt lat="55.6691370" lon="38.4332100"><time>2020-10-31T09:34:48.410</time></trkpt><trkpt lat="55.6691200" lon="38.4331220"><time>2020-10-31T09:34:52.410</time></trkpt><trkpt lat="55.6691050" lon="38.4330370"><time>2020-10-31T09:34:56.407</time></trkpt><trkpt lat="55.6690830" lon="38.4329620"><time>2020-10-31T09:34:59.410</time></trkpt><trkpt lat="55.6690500" lon="38.4328930"><time>2020-10-31T09:35:02.407</time></trkpt><trkpt lat="55.6690420" lon="38.4327900"><time>2020-10-31T09:35:08.403</time></trkpt><trkpt lat="55.6690230" lon="38.4327070"><time>2020-10-31T09:35:13.413</time></trkpt><trkpt lat="55.6690500" lon="38.4326280"><time>2020-10-31T09:35:19.427</time></trkpt><trkpt lat="55.6690530" lon="38.4326080"><time>2020-10-31T09:35:20.620</time></trkpt><trkpt lat="55.6690150" lon="38.4325430"><time>2020-10-31T09:35:24.387</time></trkpt><trkpt lat="55.6688850" lon="38.4323880"><time>2020-10-31T09:35:25.400</time></trkpt><trkpt lat="55.6688480" lon="38.4322520"><time>2020-10-31T09:35:26.393</time></trkpt><trkpt lat="55.6686950" lon="38.4321220"><time>2020-10-31T09:35:27.403</time></trkpt><trkpt lat="55.6685900" lon="38.4320100"><time>2020-10-31T09:35:28.377</time></trkpt><trkpt lat="55.6684620" lon="38.4318780"><time>2020-10-31T09:35:29.400</time></trkpt><trkpt lat="55.6682750" lon="38.4316820"><time>2020-10-31T09:35:30.403</time></trkpt><trkpt lat="55.6681950" lon="38.4312870"><time>2020-10-31T09:35:31.407</time></trkpt><trkpt lat="55.6680520" lon="38.4313200"><time>2020-10-31T09:27:49.407</time></trkpt><trkpt lat="55.6678920" lon="38.4314920"><time>2020-10-31T09:27:53.407</time></trkpt><trkpt lat="55.6678080" lon="38.4313770"><time>2020-10-31T09:27:57.407</time></trkpt><trkpt lat="55.6678330" lon="38.4311720"><time>2020-10-31T09:35:35.400</time></trkpt><trkpt lat="55.6678520" lon="38.4310470"><time>2020-10-31T09:35:36.407</time></trkpt><trkpt lat="55.6678570" lon="38.4308750"><time>2020-10-31T09:28:05.407</time></trkpt><trkpt lat="55.6679830" lon="38.4307520"><time>2020-10-31T09:28:09.407</time></trkpt><trkpt lat="55.6680200" lon="38.4308650"><time>2020-10-31T09:28:12.407</time></trkpt><trkpt lat="55.6680920" lon="38.4308170"><time>2020-10-31T09:28:14.407</time></trkpt><trkpt lat="55.6681530" lon="38.4308470"><time>2020-10-31T09:28:17.407</time></trkpt><trkpt lat="55.6681770" lon="38.4310550"><time>2020-10-31T09:28:21.407</time></trkpt><trkpt lat="55.6682280" lon="38.4310350"><time>2020-10-31T09:35:26.407</time></trkpt><trkpt lat="55.6682270" lon="38.4311770"><time>2020-10-31T09:28:27.407</time></trkpt><trkpt lat="55.6682550" lon="38.4312670"><time>2020-10-31T09:35:56.410</time></trkpt><trkpt lat="55.6682920" lon="38.4313600"><time>2020-10-31T09:28:31.403</time></trkpt><trkpt lat="55.6683400" lon="38.4313980"><time>2020-10-31T09:36:33.410</time></trkpt><trkpt lat="55.6683900" lon="38.4314300"><time>2020-10-31T09:36:35.400</time></trkpt><trkpt lat="55.6684350" lon="38.4314750"><time>2020-10-31T09:28:42.407</time></trkpt><trkpt lat="55.6684950" lon="38.4316020"><time>2020-10-31T09:36:16.410</time></trkpt><trkpt lat="55.6685050" lon="38.4318220"><time>2020-10-31T09:36:31.407</time></trkpt><trkpt lat="55.6685970" lon="38.4319570"><time>2020-10-31T09:36:41.410</time></trkpt><trkpt lat="55.6687080" lon="38.4320370"><time>2020-10-31T09:36:52.403</time></trkpt><trkpt lat="55.6686750" lon="38.4321580"><time>2020-10-31T09:37:05.420</time></trkpt><trkpt lat="55.6686130" lon="38.4323280"><time>2020-10-31T09:37:15.413</time></trkpt><trkpt lat="55.6686650" lon="38.4324620"><time>2020-10-31T09:37:25.403</time></trkpt><trkpt lat="55.6686780" lon="38.4325750"><time>2020-10-31T09:37:26.413</time></trkpt><trkpt lat="55.6686150" lon="38.4327720"><time>2020-10-31T09:37:27.393</time></trkpt><trkpt lat="55.6685630" lon="38.4328730"><time>2020-10-31T09:29:19.407</time></trkpt><trkpt lat="55.6685430" lon="38.4329630"><time>2020-10-31T09:29:23.407</time></trkpt><trkpt lat="55.6685130" lon="38.4330430"><time>2020-10-31T09:37:30.403</time></trkpt><trkpt lat="55.6684600" lon="38.4330770"><time>2020-10-31T09:37:32.407</time></trkpt><trkpt lat="55.6684080" lon="38.4330530"><time>2020-10-31T09:37:34.370</time></trkpt><trkpt lat="55.6683720" lon="38.4331120"><time>2020-10-31T09:37:37.410</time></trkpt><trkpt lat="55.6683530" lon="38.4332200"><time>2020-10-31T09:37:39.407</time></trkpt><trkpt lat="55.6683800" lon="38.4332970"><time>2020-10-31T09:37:41.400</time></trkpt><trkpt lat="55.6684730" lon="38.4334620"><time>2020-10-31T09:37:56.407</time></trkpt><trkpt lat="55.6685670" lon="38.4335380"><time>2020-10-31T09:38:14.410</time></trkpt><trkpt lat="55.6686800" lon="38.4334930"><time>2020-10-31T09:38:28.410</time></trkpt><trkpt lat="55.6687900" lon="38.4335470"><time>2020-10-31T09:38:39.407</time></trkpt><trkpt lat="55.6689030" lon="38.4336020"><time>2020-10-31T09:38:49.410</time></trkpt><trkpt lat="55.6690370" lon="38.4335980"><time>2020-10-31T09:39:04.407</time></trkpt><trkpt lat="55.6691630" lon="38.4336320"><time>2020-10-31T09:39:15.410</time></trkpt><trkpt lat="55.6692730" lon="38.4335930"><time>2020-10-31T09:39:26.407</time></trkpt><trkpt lat="55.6693670" lon="38.4337150"><time>2020-10-31T09:39:42.417</time></trkpt><trkpt lat="55.6694070" lon="38.4339320"><time>2020-10-31T09:39:48.407</time></trkpt><trkpt lat="55.6693970" lon="38.4340850"><time>2020-10-31T09:39:50.403</time></trkpt><trkpt lat="55.6693920" lon="38.4342080"><time>2020-10-31T09:39:52.407</time></trkpt><trkpt lat="55.6693820" lon="38.4342950"><time>2020-10-31T09:39:54.410</time></trkpt><trkpt lat="55.6693970" lon="38.4343880"><time>2020-10-31T09:39:57.407</time></trkpt><trkpt lat="55.6694170" lon="38.4344670"><time>2020-10-31T09:39:59.400</time></trkpt><trkpt lat="55.6694420" lon="38.4345420"><time>2020-10-31T09:40:04.410</time></trkpt><trkpt lat="55.6694150" lon="38.4346580"><time>2020-10-31T09:40:07.400</time></trkpt><trkpt lat="55.6694050" lon="38.4347420"><time>2020-10-31T09:40:09.407</time></trkpt><trkpt lat="55.6694130" lon="38.4348370"><time>2020-10-31T09:40:12.410</time></trkpt><trkpt lat="55.6694030" lon="38.4349420"><time>2020-10-31T09:40:15.403</time></trkpt><trkpt lat="55.6694030" lon="38.4350420"><time>2020-10-31T09:40:17.407</time></trkpt><trkpt lat="55.6693850" lon="38.4352030"><time>2020-10-31T09:40:19.407</time></trkpt><trkpt lat="55.6693880" lon="38.4353050"><time>2020-10-31T09:40:21.407</time></trkpt><trkpt lat="55.6693580" lon="38.4354270"><time>2020-10-31T09:40:23.407</time></trkpt><trkpt lat="55.6693330" lon="38.4355170"><time>2020-10-31T09:40:25.407</time></trkpt><trkpt lat="55.6693250" lon="38.4356270"><time>2020-10-31T09:40:30.410</time></trkpt><trkpt lat="55.6693200" lon="38.4357320"><time>2020-10-31T09:40:32.393</time></trkpt><trkpt lat="55.6693230" lon="38.4358380"><time>2020-10-31T09:40:34.397</time></trkpt><trkpt lat="55.6693370" lon="38.4359350"><time>2020-10-31T09:40:35.410</time></trkpt><trkpt lat="55.6693620" lon="38.4360150"><time>2020-10-31T09:40:38.400</time></trkpt><trkpt lat="55.6693520" lon="38.4361080"><time>2020-10-31T09:40:41.410</time></trkpt><trkpt lat="55.6693920" lon="38.4363350"><time>2020-10-31T09:40:53.407</time></trkpt><trkpt lat="55.6693450" lon="38.4363780"><time>2020-10-31T09:40:58.407</time></trkpt><trkpt lat="55.6693300" lon="38.4365200"><time>2020-10-31T09:41:09.407</time></trkpt><trkpt lat="55.6693470" lon="38.4366650"><time>2020-10-31T09:41:17.387</time></trkpt><trkpt lat="55.6693550" lon="38.4367620"><time>2020-10-31T09:41:19.407</time></trkpt><trkpt lat="55.6693400" lon="38.4369400"><time>2020-10-31T09:41:23.410</time></trkpt><trkpt lat="55.6693680" lon="38.4371220"><time>2020-10-31T09:41:30.410</time></trkpt><trkpt lat="55.6693870" lon="38.4371950"><time>2020-10-31T09:41:33.413</time></trkpt><trkpt lat="55.6694000" lon="38.4372920"><time>2020-10-31T09:41:36.410</time></trkpt><trkpt lat="55.6694070" lon="38.4373770"><time>2020-10-31T09:41:40.407</time></trkpt><trkpt lat="55.6694120" lon="38.4375800"><time>2020-10-31T09:41:49.407</time></trkpt><trkpt lat="55.6694180" lon="38.4376870"><time>2020-10-31T09:41:52.413</time></trkpt><trkpt lat="55.6694370" lon="38.4378980"><time>2020-10-31T09:41:54.370</time></trkpt><trkpt lat="55.6694520" lon="38.4380380"><time>2020-10-31T09:41:55.420</time></trkpt><trkpt lat="55.6694580" lon="38.4381900"><time>2020-10-31T09:41:56.403</time></trkpt><trkpt lat="55.6694370" lon="38.4383430"><time>2020-10-31T09:41:57.400</time></trkpt><trkpt lat="55.6694080" lon="38.4385050"><time>2020-10-31T09:41:58.407</time></trkpt><trkpt lat="55.6693920" lon="38.4386070"><time>2020-10-31T09:42:00.407</time></trkpt><trkpt lat="55.6693450" lon="38.4386830"><time>2020-10-31T09:42:02.407</time></trkpt><trkpt lat="55.6693120" lon="38.4387400"><time>2020-10-31T09:42:03.407</time></trkpt><trkpt lat="55.6692770" lon="38.4387920"><time>2020-10-31T09:42:04.407</time></trkpt><trkpt lat="55.6692330" lon="38.4388970"><time>2020-10-31T09:42:06.407</time></trkpt><trkpt lat="55.6693130" lon="38.4390620"><time>2020-10-31T09:42:27.407</time></trkpt><trkpt lat="55.6692970" lon="38.4391450"><time>2020-10-31T09:42:29.407</time></trkpt><trkpt lat="55.6692820" lon="38.4392470"><time>2020-10-31T09:42:32.407</time></trkpt><trkpt lat="55.6692650" lon="38.4393380"><time>2020-10-31T09:42:35.407</time></trkpt><trkpt lat="55.6692720" lon="38.4394250"><time>2020-10-31T09:42:39.413</time></trkpt><trkpt lat="55.6692900" lon="38.4395170"><time>2020-10-31T09:42:44.410</time></trkpt><trkpt lat="55.6692900" lon="38.4396100"><time>2020-10-31T09:42:47.410</time></trkpt><trkpt lat="55.6692900" lon="38.4397030"><time>2020-10-31T09:42:50.410</time></trkpt><trkpt lat="55.6693870" lon="38.4398320"><time>2020-10-31T09:43:03.410</time></trkpt><trkpt lat="55.6694180" lon="38.4400480"><time>2020-10-31T09:43:15.413</time></trkpt><trkpt lat="55.6693950" lon="38.4401680"><time>2020-10-31T09:43:20.410</time></trkpt><trkpt lat="55.6693680" lon="38.4402650"><time>2020-10-31T09:43:23.407</time></trkpt><trkpt lat="55.6692070" lon="38.4405630"><time>2020-10-31T09:43:26.407</time></trkpt><trkpt lat="55.6691870" lon="38.4406580"><time>2020-10-31T09:43:27.417</time></trkpt><trkpt lat="55.6691530" lon="38.4407480"><time>2020-10-31T09:43:31.413</time></trkpt><trkpt lat="55.6691480" lon="38.4408580"><time>2020-10-31T09:43:33.407</time></trkpt><trkpt lat="55.6692380" lon="38.4409730"><time>2020-10-31T09:43:43.410</time></trkpt><trkpt lat="55.6692680" lon="38.4411330"><time>2020-10-31T09:43:49.410</time></trkpt><trkpt lat="55.6692770" lon="38.4412180"><time>2020-10-31T09:43:52.410</time></trkpt><trkpt lat="55.6692850" lon="38.4413000"><time>2020-10-31T09:43:55.410</time></trkpt><trkpt lat="55.6693570" lon="38.4414970"><time>2020-10-31T09:44:08.410</time></trkpt><trkpt lat="55.6694080" lon="38.4416170"><time>2020-10-31T09:44:18.413</time></trkpt><trkpt lat="55.6694230" lon="38.4416970"><time>2020-10-31T09:44:22.407</time></trkpt><trkpt lat="55.6693800" lon="38.4417720"><time>2020-10-31T09:44:26.410</time></trkpt><trkpt lat="55.6693430" lon="38.4418180"><time>2020-10-31T09:44:28.407</time></trkpt><trkpt lat="55.6693220" lon="38.4419650"><time>2020-10-31T09:44:33.407</time></trkpt><trkpt lat="55.6693670" lon="38.4421670"><time>2020-10-31T09:44:47.407</time></trkpt><trkpt lat="55.6693650" lon="38.4422550"><time>2020-10-31T09:44:50.407</time></trkpt><trkpt lat="55.6694170" lon="38.4424000"><time>2020-10-31T09:44:57.407</time></trkpt><trkpt lat="55.6694430" lon="38.4424820"><time>2020-10-31T09:45:00.410</time></trkpt><trkpt lat="55.6694530" lon="38.4426420"><time>2020-10-31T09:45:04.410</time></trkpt><trkpt lat="55.6694820" lon="38.4427270"><time>2020-10-31T09:45:06.410</time></trkpt><trkpt lat="55.6694870" lon="38.4429900"><time>2020-10-31T09:45:13.410</time></trkpt><trkpt lat="55.6695150" lon="38.4430880"><time>2020-10-31T09:45:15.410</time></trkpt><trkpt lat="55.6694880" lon="38.4432070"><time>2020-10-31T09:45:17.407</time></trkpt><trkpt lat="55.6694250" lon="38.4433050"><time>2020-10-31T09:45:18.407</time></trkpt><trkpt lat="55.6694150" lon="38.4434080"><time>2020-10-31T09:45:19.400</time></trkpt><trkpt lat="55.6694120" lon="38.4435650"><time>2020-10-31T09:45:21.410</time></trkpt><trkpt lat="55.6694220" lon="38.4436850"><time>2020-10-31T09:45:23.407</time></trkpt><trkpt lat="55.6694080" lon="38.4437980"><time>2020-10-31T09:45:25.410</time></trkpt><trkpt lat="55.6693500" lon="38.4440650"><time>2020-10-31T09:45:36.410</time></trkpt><trkpt lat="55.6692930" lon="38.4441450"><time>2020-10-31T09:45:38.410</time></trkpt><trkpt lat="55.6692500" lon="38.4442230"><time>2020-10-31T09:36:31.407</time></trkpt><trkpt lat="55.6692270" lon="38.4443420"><time>2020-10-31T09:36:41.410</time></trkpt><trkpt lat="55.6691900" lon="38.4444380"><time>2020-10-31T09:45:42.407</time></trkpt><trkpt lat="55.6691620" lon="38.4445150"><time>2020-10-31T09:45:05.410</time></trkpt><trkpt lat="55.6691800" lon="38.4446250"><time>2020-10-31T09:37:15.413</time></trkpt><trkpt lat="55.6691770" lon="38.4447400"><time>2020-10-31T09:45:47.407</time></trkpt><trkpt lat="55.6691500" lon="38.4448150"><time>2020-10-31T09:45:50.410</time></trkpt><trkpt lat="55.6690820" lon="38.4448900"><time>2020-10-31T09:45:54.410</time></trkpt><trkpt lat="55.6690970" lon="38.4450770"><time>2020-10-31T09:46:03.410</time></trkpt><trkpt lat="55.6691430" lon="38.4452270"><time>2020-10-31T09:46:05.407</time></trkpt><trkpt lat="55.6692400" lon="38.4454200"><time>2020-10-31T09:37:30.403</time></trkpt><trkpt lat="55.6692070" lon="38.4455000"><time>2020-10-31T09:46:11.407</time></trkpt><trkpt lat="55.6691970" lon="38.4455830"><time>2020-10-31T09:46:14.410</time></trkpt><trkpt lat="55.6692020" lon="38.4456850"><time>2020-10-31T09:46:28.413</time></trkpt><trkpt lat="55.6692150" lon="38.4457680"><time>2020-10-31T09:46:31.407</time></trkpt><trkpt lat="55.6692550" lon="38.4458300"><time>2020-10-31T09:46:32.410</time></trkpt><trkpt lat="55.6692850" lon="38.4459330"><time>2020-10-31T09:46:33.407</time></trkpt><trkpt lat="55.6693250" lon="38.4459980"><time>2020-10-31T09:46:35.407</time></trkpt><trkpt lat="55.6693870" lon="38.4460430"><time>2020-10-31T09:46:37.380</time></trkpt><trkpt lat="55.6693350" lon="38.4460500"><time>2020-10-31T09:46:41.410</time></trkpt><trkpt lat="55.6692480" lon="38.4460880"><time>2020-10-31T09:46:50.410</time></trkpt><trkpt lat="55.6691970" lon="38.4460730"><time>2020-10-31T09:46:52.410</time></trkpt><trkpt lat="55.6691820" lon="38.4461500"><time>2020-10-31T09:46:54.407</time></trkpt><trkpt lat="55.6692080" lon="38.4462520"><time>2020-10-31T09:46:58.407</time></trkpt><trkpt lat="55.6692480" lon="38.4463150"><time>2020-10-31T09:47:00.413</time></trkpt><trkpt lat="55.6692680" lon="38.4463930"><time>2020-10-31T09:47:03.413</time></trkpt><trkpt lat="55.6692600" lon="38.4465550"><time>2020-10-31T09:47:12.410</time></trkpt><trkpt lat="55.6692170" lon="38.4465900"><time>2020-10-31T09:47:16.407</time></trkpt><trkpt lat="55.6692900" lon="38.4467500"><time>2020-10-31T09:47:29.407</time></trkpt><trkpt lat="55.6693000" lon="38.4468370"><time>2020-10-31T09:47:32.407</time></trkpt><trkpt lat="55.6692900" lon="38.4469420"><time>2020-10-31T09:47:37.407</time></trkpt><trkpt lat="55.6692550" lon="38.4471500"><time>2020-10-31T09:47:54.410</time></trkpt><trkpt lat="55.6692530" lon="38.4473420"><time>2020-10-31T09:48:07.413</time></trkpt><trkpt lat="55.6693050" lon="38.4475550"><time>2020-10-31T09:48:19.413</time></trkpt><trkpt lat="55.6693300" lon="38.4477780"><time>2020-10-31T09:48:28.410</time></trkpt><trkpt lat="55.6693820" lon="38.4479930"><time>2020-10-31T09:48:38.410</time></trkpt><trkpt lat="55.6694080" lon="38.4481970"><time>2020-10-31T09:48:46.413</time></trkpt><trkpt lat="55.6694320" lon="38.4484130"><time>2020-10-31T09:48:55.413</time></trkpt><trkpt lat="55.6694370" lon="38.4486750"><time>2020-10-31T09:49:06.413</time></trkpt><trkpt lat="55.6694320" lon="38.4487550"><time>2020-10-31T09:49:09.407</time></trkpt><trkpt lat="55.6694680" lon="38.4489150"><time>2020-10-31T09:49:16.410</time></trkpt><trkpt lat="55.6695220" lon="38.4491320"><time>2020-10-31T09:49:29.410</time></trkpt><trkpt lat="55.6694950" lon="38.4492000"><time>2020-10-31T09:49:31.410</time></trkpt><trkpt lat="55.6694900" lon="38.4494180"><time>2020-10-31T09:49:39.410</time></trkpt><trkpt lat="55.6694720" lon="38.4496650"><time>2020-10-31T09:49:48.407</time></trkpt><trkpt lat="55.6694430" lon="38.4498070"><time>2020-10-31T09:49:50.410</time></trkpt><trkpt lat="55.6694320" lon="38.4499130"><time>2020-10-31T09:49:51.413</time></trkpt><trkpt lat="55.6694120" lon="38.4499980"><time>2020-10-31T09:49:53.367</time></trkpt><trkpt lat="55.6693980" lon="38.4501180"><time>2020-10-31T09:49:55.410</time></trkpt><trkpt lat="55.6694230" lon="38.4503050"><time>2020-10-31T09:50:16.410</time></trkpt><trkpt lat="55.6694280" lon="38.4503920"><time>2020-10-31T09:50:19.407</time></trkpt><trkpt lat="55.6694230" lon="38.4505570"><time>2020-10-31T09:50:28.403</time></trkpt><trkpt lat="55.6694450" lon="38.4506330"><time>2020-10-31T09:50:31.413</time></trkpt><trkpt lat="55.6694370" lon="38.4507970"><time>2020-10-31T09:50:36.410</time></trkpt><trkpt lat="55.6694430" lon="38.4509700"><time>2020-10-31T09:50:39.407</time></trkpt><trkpt lat="55.6694520" lon="38.4510600"><time>2020-10-31T09:50:40.377</time></trkpt><trkpt lat="55.6694500" lon="38.4511700"><time>2020-10-31T09:50:41.410</time></trkpt><trkpt lat="55.6694580" lon="38.4512520"><time>2020-10-31T09:50:42.407</time></trkpt><trkpt lat="55.6694730" lon="38.4513950"><time>2020-10-31T09:50:44.410</time></trkpt><trkpt lat="55.6694950" lon="38.4514880"><time>2020-10-31T09:50:46.413</time></trkpt><trkpt lat="55.6695180" lon="38.4515720"><time>2020-10-31T09:50:48.413</time></trkpt><trkpt lat="55.6695430" lon="38.4516600"><time>2020-10-31T09:50:50.410</time></trkpt><trkpt lat="55.6695770" lon="38.4517570"><time>2020-10-31T09:50:52.407</time></trkpt><trkpt lat="55.6695780" lon="38.4518770"><time>2020-10-31T09:50:54.410</time></trkpt><trkpt lat="55.6695920" lon="38.4519630"><time>2020-10-31T09:50:56.413</time></trkpt><trkpt lat="55.6695720" lon="38.4520550"><time>2020-10-31T09:50:58.407</time></trkpt><trkpt lat="55.6694600" lon="38.4522680"><time>2020-10-31T09:50:59.407</time></trkpt><trkpt lat="55.6694370" lon="38.4523800"><time>2020-10-31T09:51:01.410</time></trkpt><trkpt lat="55.6694280" lon="38.4526170"><time>2020-10-31T09:51:12.417</time></trkpt><trkpt lat="55.6694080" lon="38.4528550"><time>2020-10-31T09:51:24.410</time></trkpt><trkpt lat="55.6693570" lon="38.4530800"><time>2020-10-31T09:51:32.417</time></trkpt><trkpt lat="55.6693170" lon="38.4532730"><time>2020-10-31T09:51:40.413</time></trkpt><trkpt lat="55.6692800" lon="38.4533370"><time>2020-10-31T09:51:43.410</time></trkpt><trkpt lat="55.6692520" lon="38.4533980"><time>2020-10-31T09:51:45.407</time></trkpt><trkpt lat="55.6693180" lon="38.4535370"><time>2020-10-31T09:51:58.410</time></trkpt><trkpt lat="55.6694730" lon="38.4535870"><time>2020-10-31T09:52:08.407</time></trkpt><trkpt lat="55.6695250" lon="38.4536380"><time>2020-10-31T09:52:09.410</time></trkpt><trkpt lat="55.6695670" lon="38.4536850"><time>2020-10-31T09:52:11.410</time></trkpt><trkpt lat="55.6696700" lon="38.4536500"><time>2020-10-31T09:52:20.413</time></trkpt><trkpt lat="55.6697830" lon="38.4537120"><time>2020-10-31T09:52:32.403</time></trkpt><trkpt lat="55.6698350" lon="38.4537050"><time>2020-10-31T09:52:36.413</time></trkpt><trkpt lat="55.6699500" lon="38.4537470"><time>2020-10-31T09:52:43.410</time></trkpt><trkpt lat="55.6699930" lon="38.4537180"><time>2020-10-31T09:52:46.410</time></trkpt><trkpt lat="55.6701100" lon="38.4537370"><time>2020-10-31T09:53:02.410</time></trkpt><trkpt lat="55.6701600" lon="38.4537600"><time>2020-10-31T09:53:07.413</time></trkpt><trkpt lat="55.6702050" lon="38.4537970"><time>2020-10-31T09:53:11.413</time></trkpt><trkpt lat="55.6702780" lon="38.4539770"><time>2020-10-31T09:53:23.410</time></trkpt><trkpt lat="55.6702630" lon="38.4541530"><time>2020-10-31T09:53:33.413</time></trkpt><trkpt lat="55.6702530" lon="38.4543830"><time>2020-10-31T09:53:51.410</time></trkpt><trkpt lat="55.6702620" lon="38.4545880"><time>2020-10-31T09:54:05.410</time></trkpt><trkpt lat="55.6702570" lon="38.4547030"><time>2020-10-31T09:54:08.417</time></trkpt><trkpt lat="55.6702450" lon="38.4548700"><time>2020-10-31T09:54:18.413</time></trkpt><trkpt lat="55.6702670" lon="38.4550850"><time>2020-10-31T09:54:33.413</time></trkpt><trkpt lat="55.6703120" lon="38.4551750"><time>2020-10-31T09:54:38.410</time></trkpt><trkpt lat="55.6703430" lon="38.4553330"><time>2020-10-31T09:54:47.430</time></trkpt><trkpt lat="55.6702950" lon="38.4554900"><time>2020-10-31T09:55:00.410</time></trkpt><trkpt lat="55.6703700" lon="38.4556730"><time>2020-10-31T09:55:17.413</time></trkpt><trkpt lat="55.6704230" lon="38.4559350"><time>2020-10-31T09:55:27.417</time></trkpt><trkpt lat="55.6704350" lon="38.4561520"><time>2020-10-31T09:55:41.410</time></trkpt><trkpt lat="55.6704430" lon="38.4562520"><time>2020-10-31T09:55:44.413</time></trkpt><trkpt lat="55.6704450" lon="38.4564150"><time>2020-10-31T09:55:52.407</time></trkpt><trkpt lat="55.6704750" lon="38.4566170"><time>2020-10-31T09:56:02.417</time></trkpt><trkpt lat="55.6705050" lon="38.4568270"><time>2020-10-31T09:56:19.413</time></trkpt><trkpt lat="55.6705620" lon="38.4570280"><time>2020-10-31T09:56:30.410</time></trkpt><trkpt lat="55.6705830" lon="38.4572520"><time>2020-10-31T09:56:45.413</time></trkpt><trkpt lat="55.6706580" lon="38.4574250"><time>2020-10-31T09:56:55.420</time></trkpt><trkpt lat="55.6707380" lon="38.4575870"><time>2020-10-31T09:57:07.407</time></trkpt><trkpt lat="55.6707780" lon="38.4577820"><time>2020-10-31T09:57:19.417</time></trkpt><trkpt lat="55.6707550" lon="38.4579830"><time>2020-10-31T09:57:36.413</time></trkpt><trkpt lat="55.6708180" lon="38.4581450"><time>2020-10-31T09:57:50.387</time></trkpt><trkpt lat="55.6708630" lon="38.4583530"><time>2020-10-31T09:58:08.413</time></trkpt><trkpt lat="55.6709380" lon="38.4585100"><time>2020-10-31T09:58:24.413</time></trkpt><trkpt lat="55.6710220" lon="38.4586420"><time>2020-10-31T09:58:39.413</time></trkpt><trkpt lat="55.6711100" lon="38.4587880"><time>2020-10-31T09:58:54.417</time></trkpt><trkpt lat="55.6711700" lon="38.4589950"><time>2020-10-31T09:59:06.413</time></trkpt><trkpt lat="55.6711500" lon="38.4592070"><time>2020-10-31T09:59:16.413</time></trkpt><trkpt lat="55.6711500" lon="38.4594120"><time>2020-10-31T09:59:31.413</time></trkpt><trkpt lat="55.6712270" lon="38.4596200"><time>2020-10-31T09:59:51.413</time></trkpt><trkpt lat="55.6712970" lon="38.4597700"><time>2020-10-31T10:00:04.413</time></trkpt><trkpt lat="55.6714050" lon="38.4598850"><time>2020-10-31T10:00:09.410</time></trkpt><trkpt lat="55.6714520" lon="38.4599480"><time>2020-10-31T10:00:11.410</time></trkpt><trkpt lat="55.6715280" lon="38.4600850"><time>2020-10-31T10:00:17.410</time></trkpt><trkpt lat="55.6715980" lon="38.4602720"><time>2020-10-31T10:00:27.417</time></trkpt><trkpt lat="55.6716800" lon="38.4604370"><time>2020-10-31T10:00:36.413</time></trkpt><trkpt lat="55.6717350" lon="38.4606250"><time>2020-10-31T10:00:48.417</time></trkpt><trkpt lat="55.6718030" lon="38.4608120"><time>2020-10-31T10:01:21.410</time></trkpt><trkpt lat="55.6718850" lon="38.4609950"><time>2020-10-31T10:01:32.417</time></trkpt><trkpt lat="55.6719170" lon="38.4610780"><time>2020-10-31T10:01:35.410</time></trkpt><trkpt lat="55.6719820" lon="38.4612200"><time>2020-10-31T10:01:42.413</time></trkpt><trkpt lat="55.6720020" lon="38.4612920"><time>2020-10-31T10:01:45.410</time></trkpt><trkpt lat="55.6720950" lon="38.4613620"><time>2020-10-31T10:02:07.413</time></trkpt><trkpt lat="55.6721170" lon="38.4614330"><time>2020-10-31T10:02:09.413</time></trkpt><trkpt lat="55.6721280" lon="38.4615180"><time>2020-10-31T10:02:10.413</time></trkpt><trkpt lat="55.6721570" lon="38.4616820"><time>2020-10-31T10:02:14.410</time></trkpt><trkpt lat="55.6722520" lon="38.4618550"><time>2020-10-31T10:02:23.410</time></trkpt><trkpt lat="55.6723550" lon="38.4620230"><time>2020-10-31T10:02:33.410</time></trkpt><trkpt lat="55.6724200" lon="38.4622350"><time>2020-10-31T10:02:52.410</time></trkpt><trkpt lat="55.6724580" lon="38.4624320"><time>2020-10-31T10:03:07.413</time></trkpt><trkpt lat="55.6725180" lon="38.4626120"><time>2020-10-31T10:03:22.407</time></trkpt><trkpt lat="55.6725620" lon="38.4627950"><time>2020-10-31T10:03:36.410</time></trkpt><trkpt lat="55.6725780" lon="38.4630050"><time>2020-10-31T10:03:48.403</time></trkpt><trkpt lat="55.6726270" lon="38.4631920"><time>2020-10-31T10:04:01.410</time></trkpt><trkpt lat="55.6726950" lon="38.4633700"><time>2020-10-31T10:04:15.413</time></trkpt><trkpt lat="55.6727550" lon="38.4635780"><time>2020-10-31T10:04:28.413</time></trkpt><trkpt lat="55.6727730" lon="38.4637750"><time>2020-10-31T10:04:40.410</time></trkpt><trkpt lat="55.6728030" lon="38.4639700"><time>2020-10-31T10:04:49.407</time></trkpt><trkpt lat="55.6728100" lon="38.4640520"><time>2020-10-31T10:04:53.410</time></trkpt><trkpt lat="55.6728230" lon="38.4642100"><time>2020-10-31T10:05:08.413</time></trkpt><trkpt lat="55.6727830" lon="38.4644230"><time>2020-10-31T10:05:33.410</time></trkpt><trkpt lat="55.6727530" lon="38.4645250"><time>2020-10-31T10:05:35.417</time></trkpt><trkpt lat="55.6727470" lon="38.4647450"><time>2020-10-31T10:05:49.407</time></trkpt><trkpt lat="55.6727250" lon="38.4649550"><time>2020-10-31T10:05:58.410</time></trkpt><trkpt lat="55.6727080" lon="38.4650620"><time>2020-10-31T10:06:01.407</time></trkpt><trkpt lat="55.6726950" lon="38.4651400"><time>2020-10-31T10:06:04.410</time></trkpt><trkpt lat="55.6726730" lon="38.4652170"><time>2020-10-31T10:06:08.410</time></trkpt><trkpt lat="55.6727320" lon="38.4653530"><time>2020-10-31T10:06:24.417</time></trkpt><trkpt lat="55.6727820" lon="38.4653600"><time>2020-10-31T10:06:26.410</time></trkpt><trkpt lat="55.6728780" lon="38.4654750"><time>2020-10-31T10:06:45.410</time></trkpt><trkpt lat="55.6729930" lon="38.4654550"><time>2020-10-31T10:07:00.410</time></trkpt><trkpt lat="55.6730830" lon="38.4654930"><time>2020-10-31T10:07:06.410</time></trkpt><trkpt lat="55.6731900" lon="38.4654880"><time>2020-10-31T10:07:17.413</time></trkpt><trkpt lat="55.6732620" lon="38.4653970"><time>2020-10-31T10:07:29.413</time></trkpt><trkpt lat="55.6733880" lon="38.4653880"><time>2020-10-31T10:07:41.410</time></trkpt><trkpt lat="55.6734770" lon="38.4655150"><time>2020-10-31T10:07:54.413</time></trkpt><trkpt lat="55.6735620" lon="38.4656950"><time>2020-10-31T10:08:06.410</time></trkpt><trkpt lat="55.6736530" lon="38.4658150"><time>2020-10-31T10:08:20.397</time></trkpt><trkpt lat="55.6737120" lon="38.4658880"><time>2020-10-31T10:08:25.410</time></trkpt><trkpt lat="55.6737170" lon="38.4660220"><time>2020-10-31T10:08:27.417</time></trkpt><trkpt lat="55.6737400" lon="38.4661150"><time>2020-10-31T10:08:30.413</time></trkpt><trkpt lat="55.6737620" lon="38.4661880"><time>2020-10-31T10:08:33.410</time></trkpt><trkpt lat="55.6738350" lon="38.4662800"><time>2020-10-31T10:08:45.413</time></trkpt><trkpt lat="55.6738730" lon="38.4662380"><time>2020-10-31T10:08:48.417</time></trkpt><trkpt lat="55.6739650" lon="38.4662280"><time>2020-10-31T10:08:55.410</time></trkpt><trkpt lat="55.6740980" lon="38.4662500"><time>2020-10-31T10:09:07.413</time></trkpt><trkpt lat="55.6742200" lon="38.4661330"><time>2020-10-31T10:09:19.413</time></trkpt><trkpt lat="55.6743050" lon="38.4662400"><time>2020-10-31T10:09:36.413</time></trkpt><trkpt lat="55.6744080" lon="38.4661820"><time>2020-10-31T10:09:53.413</time></trkpt><trkpt lat="55.6745020" lon="38.4662570"><time>2020-10-31T10:10:09.410</time></trkpt><trkpt lat="55.6746400" lon="38.4663200"><time>2020-10-31T10:10:20.413</time></trkpt><trkpt lat="55.6747400" lon="38.4664880"><time>2020-10-31T10:10:31.417</time></trkpt><trkpt lat="55.6748670" lon="38.4665900"><time>2020-10-31T10:10:39.413</time></trkpt><trkpt lat="55.6749880" lon="38.4666950"><time>2020-10-31T10:10:51.413</time></trkpt><trkpt lat="55.6750970" lon="38.4668300"><time>2020-10-31T10:11:06.417</time></trkpt><trkpt lat="55.6751430" lon="38.4668530"><time>2020-10-31T10:11:08.413</time></trkpt><trkpt lat="55.6751930" lon="38.4669100"><time>2020-10-31T10:11:12.413</time></trkpt><trkpt lat="55.6752420" lon="38.4669520"><time>2020-10-31T10:11:15.413</time></trkpt><trkpt lat="55.6752270" lon="38.4671870"><time>2020-10-31T10:11:32.417</time></trkpt><trkpt lat="55.6751880" lon="38.4672700"><time>2020-10-31T10:11:36.413</time></trkpt><trkpt lat="55.6751400" lon="38.4674270"><time>2020-10-31T10:12:04.413</time></trkpt><trkpt lat="55.6750920" lon="38.4675570"><time>2020-10-31T10:12:15.447</time></trkpt><trkpt lat="55.6749250" lon="38.4676980"><time>2020-10-31T10:12:16.377</time></trkpt><trkpt lat="55.6747030" lon="38.4676320"><time>2020-10-31T10:12:17.397</time></trkpt><trkpt lat="55.6747030" lon="38.4676320"><time>2020-10-31T10:12:18.300</time></trkpt><trkpt lat="55.6746920" lon="38.4675050"><time>2020-10-31T10:12:18.423</time></trkpt><trkpt lat="55.6747020" lon="38.4674050"><time>2020-10-31T10:12:19.363</time></trkpt><trkpt lat="55.6747550" lon="38.4672830"><time>2020-10-31T10:12:20.380</time></trkpt><trkpt lat="55.6748250" lon="38.4673570"><time>2020-10-31T10:12:21.437</time></trkpt><trkpt lat="55.6749080" lon="38.4674270"><time>2020-10-31T10:12:22.377</time></trkpt><trkpt lat="55.6749780" lon="38.4675380"><time>2020-10-31T10:12:23.400</time></trkpt><trkpt lat="55.6750380" lon="38.4676830"><time>2020-10-31T10:12:24.367</time></trkpt><trkpt lat="55.6750480" lon="38.4677830"><time>2020-10-31T10:12:25.370</time></trkpt><trkpt lat="55.6750670" lon="38.4678870"><time>2020-10-31T10:12:26.407</time></trkpt><trkpt lat="55.6751070" lon="38.4680320"><time>2020-10-31T10:12:28.397</time></trkpt><trkpt lat="55.6751550" lon="38.4680200"><time>2020-10-31T10:12:30.380</time></trkpt><trkpt lat="55.6751450" lon="38.4679280"><time>2020-10-31T10:12:31.387</time></trkpt><trkpt lat="55.6750980" lon="38.4680280"><time>2020-10-31T10:12:33.373</time></trkpt><trkpt lat="55.6750180" lon="38.4680580"><time>2020-10-31T10:12:34.377</time></trkpt><trkpt lat="55.6750030" lon="38.4681370"><time>2020-10-31T10:12:35.367</time></trkpt><trkpt lat="55.6749920" lon="38.4682430"><time>2020-10-31T10:12:37.583</time></trkpt><trkpt lat="55.6750680" lon="38.4681300"><time>2020-10-31T10:12:44.410</time></trkpt><trkpt lat="55.6751270" lon="38.4680920"><time>2020-10-31T10:12:46.407</time></trkpt><trkpt lat="55.6750670" lon="38.4681080"><time>2020-10-31T10:12:47.407</time></trkpt><trkpt lat="55.6750250" lon="38.4681400"><time>2020-10-31T10:12:55.417</time></trkpt><trkpt lat="55.6750570" lon="38.4682070"><time>2020-10-31T10:12:59.410</time></trkpt><trkpt lat="55.6751050" lon="38.4681980"><time>2020-10-31T10:13:03.417</time></trkpt><trkpt lat="55.6751250" lon="38.4682700"><time>2020-10-31T10:13:11.410</time></trkpt><trkpt lat="55.6750670" lon="38.4683930"><time>2020-10-31T10:13:22.413</time></trkpt><trkpt lat="55.6750520" lon="38.4685780"><time>2020-10-31T10:13:40.410</time></trkpt><trkpt lat="55.6750020" lon="38.4687870"><time>2020-10-31T10:14:00.410</time></trkpt><trkpt lat="55.6750200" lon="38.4690050"><time>2020-10-31T10:14:15.413</time></trkpt><trkpt lat="55.6749930" lon="38.4692050"><time>2020-10-31T10:14:33.407</time></trkpt><trkpt lat="55.6749430" lon="38.4693780"><time>2020-10-31T10:14:43.413</time></trkpt><trkpt lat="55.6748970" lon="38.4695950"><time>2020-10-31T10:15:00.410</time></trkpt><trkpt lat="55.6749250" lon="38.4698170"><time>2020-10-31T10:15:10.410</time></trkpt><trkpt lat="55.6748730" lon="38.4700370"><time>2020-10-31T10:15:20.410</time></trkpt><trkpt lat="55.6748680" lon="38.4701230"><time>2020-10-31T10:15:23.413</time></trkpt><trkpt lat="55.6748630" lon="38.4702920"><time>2020-10-31T10:15:30.413</time></trkpt><trkpt lat="55.6748720" lon="38.4703980"><time>2020-10-31T10:15:33.410</time></trkpt><trkpt lat="55.6748580" lon="38.4705570"><time>2020-10-31T10:15:41.407</time></trkpt><trkpt lat="55.6748070" lon="38.4705380"><time>2020-10-31T10:15:44.417</time></trkpt><trkpt lat="55.6747250" lon="38.4706220"><time>2020-10-31T10:15:56.407</time></trkpt><trkpt lat="55.6746430" lon="38.4708120"><time>2020-10-31T10:16:13.413</time></trkpt><trkpt lat="55.6745630" lon="38.4709720"><time>2020-10-31T10:16:27.410</time></trkpt><trkpt lat="55.6744850" lon="38.4711770"><time>2020-10-31T10:16:36.410</time></trkpt><trkpt lat="55.6743980" lon="38.4713400"><time>2020-10-31T10:16:46.413</time></trkpt><trkpt lat="55.6743020" lon="38.4714480"><time>2020-10-31T10:17:06.417</time></trkpt><trkpt lat="55.6742150" lon="38.4715650"><time>2020-10-31T10:17:21.423</time></trkpt><trkpt lat="55.6741420" lon="38.4717700"><time>2020-10-31T10:17:35.413</time></trkpt><trkpt lat="55.6740370" lon="38.4718830"><time>2020-10-31T10:17:46.417</time></trkpt><trkpt lat="55.6739500" lon="38.4720500"><time>2020-10-31T10:17:58.417</time></trkpt><trkpt lat="55.6739250" lon="38.4722400"><time>2020-10-31T10:18:13.417</time></trkpt><trkpt lat="55.6738480" lon="38.4724300"><time>2020-10-31T10:18:26.413</time></trkpt><trkpt lat="55.6737870" lon="38.4726030"><time>2020-10-31T10:18:38.413</time></trkpt><trkpt lat="55.6737430" lon="38.4728250"><time>2020-10-31T10:18:51.410</time></trkpt><trkpt lat="55.6737150" lon="38.4730600"><time>2020-10-31T10:19:02.413</time></trkpt><trkpt lat="55.6736700" lon="38.4731280"><time>2020-10-31T10:19:05.413</time></trkpt><trkpt lat="55.6736100" lon="38.4732600"><time>2020-10-31T10:19:12.413</time></trkpt><trkpt lat="55.6735650" lon="38.4734850"><time>2020-10-31T10:19:24.413</time></trkpt><trkpt lat="55.6735670" lon="38.4735870"><time>2020-10-31T10:19:26.413</time></trkpt><trkpt lat="55.6735550" lon="38.4736920"><time>2020-10-31T10:19:27.413</time></trkpt><trkpt lat="55.6735470" lon="38.4737730"><time>2020-10-31T10:19:28.417</time></trkpt><trkpt lat="55.6735280" lon="38.4738470"><time>2020-10-31T10:19:29.410</time></trkpt><trkpt lat="55.6734750" lon="38.4739430"><time>2020-10-31T10:19:31.413</time></trkpt><trkpt lat="55.6734100" lon="38.4740670"><time>2020-10-31T10:19:33.413</time></trkpt><trkpt lat="55.6733720" lon="38.4741370"><time>2020-10-31T10:19:35.410</time></trkpt><trkpt lat="55.6733300" lon="38.4742200"><time>2020-10-31T10:19:37.413</time></trkpt><trkpt lat="55.6732720" lon="38.4742880"><time>2020-10-31T10:19:39.410</time></trkpt><trkpt lat="55.6732470" lon="38.4743550"><time>2020-10-31T10:19:41.410</time></trkpt><trkpt lat="55.6732100" lon="38.4744350"><time>2020-10-31T10:19:44.413</time></trkpt><trkpt lat="55.6731720" lon="38.4744800"><time>2020-10-31T10:19:47.407</time></trkpt><trkpt lat="55.6731080" lon="38.4744880"><time>2020-10-31T10:19:50.417</time></trkpt><trkpt lat="55.6730600" lon="38.4745150"><time>2020-10-31T10:19:52.417</time></trkpt><trkpt lat="55.6730220" lon="38.4746520"><time>2020-10-31T10:20:03.413</time></trkpt><trkpt lat="55.6730730" lon="38.4746400"><time>2020-10-31T10:20:08.417</time></trkpt><trkpt lat="55.6730800" lon="38.4747450"><time>2020-10-31T10:20:11.417</time></trkpt><trkpt lat="55.6730930" lon="38.4748680"><time>2020-10-31T10:20:18.413</time></trkpt><trkpt lat="55.6731020" lon="38.4749570"><time>2020-10-31T10:20:20.413</time></trkpt><trkpt lat="55.6731270" lon="38.4750230"><time>2020-10-31T10:20:26.413</time></trkpt><trkpt lat="55.6731200" lon="38.4751050"><time>2020-10-31T10:20:30.413</time></trkpt><trkpt lat="55.6731420" lon="38.4751850"><time>2020-10-31T10:20:34.417</time></trkpt><trkpt lat="55.6730330" lon="38.4751770"><time>2020-10-31T10:20:46.410</time></trkpt><trkpt lat="55.6729870" lon="38.4752380"><time>2020-10-31T10:20:59.413</time></trkpt><trkpt lat="55.6729900" lon="38.4753230"><time>2020-10-31T10:21:02.413</time></trkpt><trkpt lat="55.6730700" lon="38.4754400"><time>2020-10-31T10:21:26.410</time></trkpt><trkpt lat="55.6730520" lon="38.4755230"><time>2020-10-31T10:21:29.410</time></trkpt><trkpt lat="55.6730470" lon="38.4757170"><time>2020-10-31T10:21:41.410</time></trkpt><trkpt lat="55.6730450" lon="38.4759070"><time>2020-10-31T10:21:47.417</time></trkpt><trkpt lat="55.6730550" lon="38.4760330"><time>2020-10-31T10:21:49.413</time></trkpt><trkpt lat="55.6730780" lon="38.4761250"><time>2020-10-31T10:21:51.417</time></trkpt><trkpt lat="55.6730920" lon="38.4762070"><time>2020-10-31T10:21:53.417</time></trkpt><trkpt lat="55.6731400" lon="38.4763770"><time>2020-10-31T10:22:05.410</time></trkpt><trkpt lat="55.6731570" lon="38.4765270"><time>2020-10-31T10:22:07.410</time></trkpt><trkpt lat="55.6731580" lon="38.4766130"><time>2020-10-31T10:22:08.417</time></trkpt><trkpt lat="55.6731850" lon="38.4766900"><time>2020-10-31T10:22:13.380</time></trkpt><trkpt lat="55.6732050" lon="38.4767730"><time>2020-10-31T10:22:17.417</time></trkpt><trkpt lat="55.6732550" lon="38.4769130"><time>2020-10-31T10:22:38.417</time></trkpt><trkpt lat="55.6732870" lon="38.4770970"><time>2020-10-31T10:22:50.417</time></trkpt><trkpt lat="55.6733070" lon="38.4771730"><time>2020-10-31T10:22:52.413</time></trkpt><trkpt lat="55.6733270" lon="38.4772570"><time>2020-10-31T10:22:54.413</time></trkpt><trkpt lat="55.6733480" lon="38.4773300"><time>2020-10-31T10:22:58.417</time></trkpt><trkpt lat="55.6733880" lon="38.4775030"><time>2020-10-31T10:23:12.413</time></trkpt><trkpt lat="55.6733820" lon="38.4775880"><time>2020-10-31T10:23:15.413</time></trkpt><trkpt lat="55.6734280" lon="38.4777250"><time>2020-10-31T10:23:41.413</time></trkpt><trkpt lat="55.6734620" lon="38.4777870"><time>2020-10-31T10:23:44.413</time></trkpt><trkpt lat="55.6735130" lon="38.4779220"><time>2020-10-31T10:23:51.413</time></trkpt><trkpt lat="55.6735200" lon="38.4781270"><time>2020-10-31T10:24:06.413</time></trkpt><trkpt lat="55.6735300" lon="38.4782980"><time>2020-10-31T10:24:12.417</time></trkpt><trkpt lat="55.6734750" lon="38.4784100"><time>2020-10-31T10:24:13.413</time></trkpt><trkpt lat="55.6734480" lon="38.4785200"><time>2020-10-31T10:24:14.417</time></trkpt><trkpt lat="55.6734880" lon="38.4785580"><time>2020-10-31T10:24:16.413</time></trkpt><trkpt lat="55.6735000" lon="38.4786450"><time>2020-10-31T10:24:18.407</time></trkpt><trkpt lat="55.6735330" lon="38.4787280"><time>2020-10-31T10:24:24.417</time></trkpt><trkpt lat="55.6735350" lon="38.4788450"><time>2020-10-31T10:24:32.417</time></trkpt><trkpt lat="55.6735330" lon="38.4789270"><time>2020-10-31T10:24:35.410</time></trkpt><trkpt lat="55.6735080" lon="38.4789930"><time>2020-10-31T10:24:39.410</time></trkpt><trkpt lat="55.6735620" lon="38.4791880"><time>2020-10-31T10:24:58.407</time></trkpt><trkpt lat="55.6735530" lon="38.4793050"><time>2020-10-31T10:25:00.413</time></trkpt><trkpt lat="55.6735450" lon="38.4794070"><time>2020-10-31T10:25:02.413</time></trkpt><trkpt lat="55.6735480" lon="38.4795150"><time>2020-10-31T10:25:08.413</time></trkpt><trkpt lat="55.6735280" lon="38.4795930"><time>2020-10-31T10:25:13.413</time></trkpt><trkpt lat="55.6735730" lon="38.4797830"><time>2020-10-31T10:25:26.410</time></trkpt><trkpt lat="55.6736200" lon="38.4799820"><time>2020-10-31T10:25:41.407</time></trkpt><trkpt lat="55.6736080" lon="38.4801930"><time>2020-10-31T10:25:50.413</time></trkpt><trkpt lat="55.6736250" lon="38.4803420"><time>2020-10-31T10:25:56.413</time></trkpt><trkpt lat="55.6736130" lon="38.4804330"><time>2020-10-31T10:25:58.413</time></trkpt><trkpt lat="55.6736320" lon="38.4805950"><time>2020-10-31T10:26:04.410</time></trkpt><trkpt lat="55.6735920" lon="38.4806630"><time>2020-10-31T10:26:06.410</time></trkpt><trkpt lat="55.6735420" lon="38.4807050"><time>2020-10-31T10:26:08.407</time></trkpt><trkpt lat="55.6735080" lon="38.4809080"><time>2020-10-31T10:26:28.417</time></trkpt><trkpt lat="55.6735250" lon="38.4810770"><time>2020-10-31T10:26:38.413</time></trkpt><trkpt lat="55.6735950" lon="38.4810880"><time>2020-10-31T10:26:42.413</time></trkpt><trkpt lat="55.6736330" lon="38.4812020"><time>2020-10-31T10:26:47.377</time></trkpt><trkpt lat="55.6736230" lon="38.4813080"><time>2020-10-31T10:26:48.410</time></trkpt><trkpt lat="55.6735650" lon="38.4814920"><time>2020-10-31T10:26:49.410</time></trkpt><trkpt lat="55.6735300" lon="38.4815900"><time>2020-10-31T10:26:50.397</time></trkpt><trkpt lat="55.6735070" lon="38.4816870"><time>2020-10-31T10:26:53.413</time></trkpt><trkpt lat="55.6735330" lon="38.4817680"><time>2020-10-31T10:26:56.417</time></trkpt><trkpt lat="55.6735130" lon="38.4819020"><time>2020-10-31T10:27:03.413</time></trkpt><trkpt lat="55.6735220" lon="38.4820080"><time>2020-10-31T10:27:04.413</time></trkpt><trkpt lat="55.6735050" lon="38.4820880"><time>2020-10-31T10:27:09.410</time></trkpt><trkpt lat="55.6735250" lon="38.4821800"><time>2020-10-31T10:27:15.557</time></trkpt><trkpt lat="55.6735200" lon="38.4822720"><time>2020-10-31T10:27:18.413</time></trkpt><trkpt lat="55.6735150" lon="38.4823550"><time>2020-10-31T10:27:22.413</time></trkpt><trkpt lat="55.6735420" lon="38.4825100"><time>2020-10-31T10:27:37.417</time></trkpt><trkpt lat="55.6735370" lon="38.4826650"><time>2020-10-31T10:27:38.417</time></trkpt><trkpt lat="55.6735480" lon="38.4828370"><time>2020-10-31T10:27:39.410</time></trkpt><trkpt lat="55.6735600" lon="38.4829470"><time>2020-10-31T10:27:42.413</time></trkpt><trkpt lat="55.6735720" lon="38.4830320"><time>2020-10-31T10:27:45.410</time></trkpt><trkpt lat="55.6736130" lon="38.4831170"><time>2020-10-31T10:27:50.413</time></trkpt><trkpt lat="55.6736200" lon="38.4832020"><time>2020-10-31T10:27:54.413</time></trkpt><trkpt lat="55.6736320" lon="38.4833000"><time>2020-10-31T10:27:58.417</time></trkpt><trkpt lat="55.6736200" lon="38.4833870"><time>2020-10-31T10:28:01.413</time></trkpt><trkpt lat="55.6735730" lon="38.4835750"><time>2020-10-31T10:28:17.410</time></trkpt><trkpt lat="55.6735780" lon="38.4836930"><time>2020-10-31T10:28:19.417</time></trkpt><trkpt lat="55.6735280" lon="38.4838500"><time>2020-10-31T10:28:21.417</time></trkpt><trkpt lat="55.6735480" lon="38.4839820"><time>2020-10-31T10:28:22.413</time></trkpt><trkpt lat="55.6735730" lon="38.4840800"><time>2020-10-31T10:28:24.417</time></trkpt><trkpt lat="55.6735950" lon="38.4841520"><time>2020-10-31T10:28:26.407</time></trkpt><trkpt lat="55.6736550" lon="38.4842220"><time>2020-10-31T10:28:35.417</time></trkpt><trkpt lat="55.6736620" lon="38.4843900"><time>2020-10-31T10:28:54.413</time></trkpt><trkpt lat="55.6737200" lon="38.4846070"><time>2020-10-31T10:29:03.413</time></trkpt><trkpt lat="55.6737870" lon="38.4847800"><time>2020-10-31T10:29:12.417</time></trkpt><trkpt lat="55.6737730" lon="38.4850280"><time>2020-10-31T10:29:19.413</time></trkpt><trkpt lat="55.6737520" lon="38.4851320"><time>2020-10-31T10:29:22.413</time></trkpt><trkpt lat="55.6737700" lon="38.4852950"><time>2020-10-31T10:29:30.413</time></trkpt><trkpt lat="55.6737600" lon="38.4854120"><time>2020-10-31T10:29:34.413</time></trkpt><trkpt lat="55.6737670" lon="38.4855370"><time>2020-10-31T10:29:36.417</time></trkpt><trkpt lat="55.6737750" lon="38.4856480"><time>2020-10-31T10:29:39.413</time></trkpt><trkpt lat="55.6737730" lon="38.4857400"><time>2020-10-31T10:29:41.413</time></trkpt><trkpt lat="55.6737800" lon="38.4858200"><time>2020-10-31T10:29:43.417</time></trkpt><trkpt lat="55.6737700" lon="38.4859280"><time>2020-10-31T10:29:45.413</time></trkpt><trkpt lat="55.6737780" lon="38.4860320"><time>2020-10-31T10:29:48.417</time></trkpt><trkpt lat="55.6737780" lon="38.4862330"><time>2020-10-31T10:29:56.413</time></trkpt><trkpt lat="55.6737680" lon="38.4863250"><time>2020-10-31T10:29:57.413</time></trkpt><trkpt lat="55.6737700" lon="38.4864120"><time>2020-10-31T10:29:58.413</time></trkpt><trkpt lat="55.6737670" lon="38.4864980"><time>2020-10-31T10:29:59.413</time></trkpt><trkpt lat="55.6737680" lon="38.4865900"><time>2020-10-31T10:30:00.417</time></trkpt><trkpt lat="55.6737580" lon="38.4867050"><time>2020-10-31T10:30:01.417</time></trkpt><trkpt lat="55.6737620" lon="38.4868070"><time>2020-10-31T10:30:03.413</time></trkpt><trkpt lat="55.6737770" lon="38.4868820"><time>2020-10-31T10:30:06.413</time></trkpt><trkpt lat="55.6738500" lon="38.4869950"><time>2020-10-31T10:30:17.413</time></trkpt><trkpt lat="55.6738680" lon="38.4870820"><time>2020-10-31T10:30:20.413</time></trkpt><trkpt lat="55.6738830" lon="38.4871580"><time>2020-10-31T10:30:24.417</time></trkpt><trkpt lat="55.6738930" lon="38.4873200"><time>2020-10-31T10:30:34.370</time></trkpt><trkpt lat="55.6738780" lon="38.4874120"><time>2020-10-31T10:30:35.417</time></trkpt><trkpt lat="55.6738470" lon="38.4875400"><time>2020-10-31T10:30:36.430</time></trkpt><trkpt lat="55.6738880" lon="38.4877120"><time>2020-10-31T10:30:37.417</time></trkpt><trkpt lat="55.6739130" lon="38.4878100"><time>2020-10-31T10:30:38.413</time></trkpt><trkpt lat="55.6739150" lon="38.4879120"><time>2020-10-31T10:30:39.417</time></trkpt><trkpt lat="55.6739200" lon="38.4879950"><time>2020-10-31T10:30:40.413</time></trkpt><trkpt lat="55.6739180" lon="38.4881170"><time>2020-10-31T10:30:42.413</time></trkpt><trkpt lat="55.6739330" lon="38.4882130"><time>2020-10-31T10:30:44.413</time></trkpt><trkpt lat="55.6739580" lon="38.4883020"><time>2020-10-31T10:30:47.417</time></trkpt><trkpt lat="55.6740220" lon="38.4884550"><time>2020-10-31T10:30:58.413</time></trkpt><trkpt lat="55.6740100" lon="38.4885830"><time>2020-10-31T10:31:00.413</time></trkpt><trkpt lat="55.6740080" lon="38.4886730"><time>2020-10-31T10:31:05.413</time></trkpt><trkpt lat="55.6739480" lon="38.4888030"><time>2020-10-31T10:31:17.417</time></trkpt><trkpt lat="55.6739180" lon="38.4888820"><time>2020-10-31T10:31:20.417</time></trkpt><trkpt lat="55.6739230" lon="38.4889630"><time>2020-10-31T10:31:23.370</time></trkpt><trkpt lat="55.6739330" lon="38.4890580"><time>2020-10-31T10:31:27.413</time></trkpt><trkpt lat="55.6739570" lon="38.4893030"><time>2020-10-31T10:31:43.420</time></trkpt><trkpt lat="55.6739970" lon="38.4895050"><time>2020-10-31T10:31:59.417</time></trkpt><trkpt lat="55.6740150" lon="38.4896870"><time>2020-10-31T10:32:04.417</time></trkpt><trkpt lat="55.6740250" lon="38.4898030"><time>2020-10-31T10:32:06.417</time></trkpt><trkpt lat="55.6740900" lon="38.4900070"><time>2020-10-31T10:32:19.417</time></trkpt><trkpt lat="55.6741130" lon="38.4900800"><time>2020-10-31T10:32:21.413</time></trkpt><trkpt lat="55.6741270" lon="38.4901970"><time>2020-10-31T10:32:23.413</time></trkpt><trkpt lat="55.6741520" lon="38.4902780"><time>2020-10-31T10:32:25.417</time></trkpt><trkpt lat="55.6742000" lon="38.4904850"><time>2020-10-31T10:32:39.413</time></trkpt><trkpt lat="55.6742520" lon="38.4906750"><time>2020-10-31T10:32:49.413</time></trkpt><trkpt lat="55.6742680" lon="38.4909070"><time>2020-10-31T10:32:57.413</time></trkpt><trkpt lat="55.6742580" lon="38.4911450"><time>2020-10-31T10:33:08.417</time></trkpt><trkpt lat="55.6742880" lon="38.4913870"><time>2020-10-31T10:33:18.417</time></trkpt><trkpt lat="55.6742920" lon="38.4916230"><time>2020-10-31T10:33:30.417</time></trkpt><trkpt lat="55.6742850" lon="38.4918550"><time>2020-10-31T10:33:41.413</time></trkpt><trkpt lat="55.6743250" lon="38.4920820"><time>2020-10-31T10:33:53.413</time></trkpt><trkpt lat="55.6743070" lon="38.4921630"><time>2020-10-31T10:33:55.417</time></trkpt><trkpt lat="55.6743070" lon="38.4923680"><time>2020-10-31T10:34:01.423</time></trkpt><trkpt lat="55.6743180" lon="38.4926150"><time>2020-10-31T10:34:14.413</time></trkpt><trkpt lat="55.6743220" lon="38.4927280"><time>2020-10-31T10:34:17.417</time></trkpt><trkpt lat="55.6743380" lon="38.4928970"><time>2020-10-31T10:34:19.417</time></trkpt><trkpt lat="55.6743280" lon="38.4929770"><time>2020-10-31T10:34:20.417</time></trkpt><trkpt lat="55.6742930" lon="38.4931520"><time>2020-10-31T10:34:22.413</time></trkpt><trkpt lat="55.6742680" lon="38.4933150"><time>2020-10-31T10:34:24.413</time></trkpt><trkpt lat="55.6742570" lon="38.4933970"><time>2020-10-31T10:34:26.417</time></trkpt><trkpt lat="55.6742650" lon="38.4935930"><time>2020-10-31T10:34:36.417</time></trkpt><trkpt lat="55.6742650" lon="38.4936920"><time>2020-10-31T10:34:39.417</time></trkpt><trkpt lat="55.6742650" lon="38.4938530"><time>2020-10-31T10:34:44.417</time></trkpt><trkpt lat="55.6742600" lon="38.4939400"><time>2020-10-31T10:34:47.417</time></trkpt><trkpt lat="55.6742720" lon="38.4941530"><time>2020-10-31T10:34:58.413</time></trkpt><trkpt lat="55.6742830" lon="38.4942420"><time>2020-10-31T10:35:00.417</time></trkpt><trkpt lat="55.6742930" lon="38.4943550"><time>2020-10-31T10:35:02.417</time></trkpt><trkpt lat="55.6743150" lon="38.4944280"><time>2020-10-31T10:35:04.417</time></trkpt><trkpt lat="55.6743570" lon="38.4944820"><time>2020-10-31T10:35:06.417</time></trkpt><trkpt lat="55.6743780" lon="38.4945580"><time>2020-10-31T10:35:09.413</time></trkpt><trkpt lat="55.6743630" lon="38.4946830"><time>2020-10-31T10:35:17.420</time></trkpt><trkpt lat="55.6743680" lon="38.4947730"><time>2020-10-31T10:35:20.410</time></trkpt><trkpt lat="55.6743650" lon="38.4949950"><time>2020-10-31T10:35:34.377</time></trkpt><trkpt lat="55.6743630" lon="38.4951420"><time>2020-10-31T10:35:35.373</time></trkpt><trkpt lat="55.6743470" lon="38.4952380"><time>2020-10-31T10:35:36.370</time></trkpt><trkpt lat="55.6743170" lon="38.4953320"><time>2020-10-31T10:35:37.367</time></trkpt><trkpt lat="55.6743080" lon="38.4954230"><time>2020-10-31T10:35:39.367</time></trkpt><trkpt lat="55.6743420" lon="38.4955450"><time>2020-10-31T10:35:41.367</time></trkpt><trkpt lat="55.6743630" lon="38.4956170"><time>2020-10-31T10:35:45.407</time></trkpt><trkpt lat="55.6743830" lon="38.4957070"><time>2020-10-31T10:35:53.413</time></trkpt><trkpt lat="55.6744200" lon="38.4957920"><time>2020-10-31T10:35:59.417</time></trkpt><trkpt lat="55.6744480" lon="38.4958580"><time>2020-10-31T10:36:06.407</time></trkpt><trkpt lat="55.6744280" lon="38.4960850"><time>2020-10-31T10:36:26.410</time></trkpt><trkpt lat="55.6744220" lon="38.4961650"><time>2020-10-31T10:36:29.407</time></trkpt><trkpt lat="55.6743770" lon="38.4962320"><time>2020-10-31T10:36:33.367</time></trkpt><trkpt lat="55.6744000" lon="38.4963300"><time>2020-10-31T10:36:35.367</time></trkpt><trkpt lat="55.6744420" lon="38.4964100"><time>2020-10-31T10:36:38.373</time></trkpt><trkpt lat="55.6744730" lon="38.4964780"><time>2020-10-31T10:36:42.387</time></trkpt><trkpt lat="55.6744780" lon="38.4965800"><time>2020-10-31T10:36:48.367</time></trkpt><trkpt lat="55.6744950" lon="38.4966630"><time>2020-10-31T10:36:51.367</time></trkpt><trkpt lat="55.6745230" lon="38.4967430"><time>2020-10-31T10:36:55.370</time></trkpt><trkpt lat="55.6745330" lon="38.4968230"><time>2020-10-31T10:37:00.410</time></trkpt><trkpt lat="55.6745320" lon="38.4970180"><time>2020-10-31T10:37:08.420</time></trkpt><trkpt lat="55.6744970" lon="38.4970820"><time>2020-10-31T10:37:11.417</time></trkpt><trkpt lat="55.6745600" lon="38.4973050"><time>2020-10-31T10:37:22.420</time></trkpt><trkpt lat="55.6746180" lon="38.4974800"><time>2020-10-31T10:37:31.417</time></trkpt><trkpt lat="55.6746200" lon="38.4976850"><time>2020-10-31T10:37:46.417</time></trkpt><trkpt lat="55.6746070" lon="38.4978980"><time>2020-10-31T10:37:57.423</time></trkpt><trkpt lat="55.6745980" lon="38.4979830"><time>2020-10-31T10:38:00.417</time></trkpt><trkpt lat="55.6746880" lon="38.4980200"><time>2020-10-31T10:38:14.417</time></trkpt><trkpt lat="55.6747330" lon="38.4980180"><time>2020-10-31T10:38:17.417</time></trkpt><trkpt lat="55.6748320" lon="38.4980100"><time>2020-10-31T10:38:26.413</time></trkpt><trkpt lat="55.6749280" lon="38.4980700"><time>2020-10-31T10:38:29.417</time></trkpt><trkpt lat="55.6749380" lon="38.4979880"><time>2020-10-31T10:38:30.417</time></trkpt><trkpt lat="55.6750480" lon="38.4979430"><time>2020-10-31T10:38:45.413</time></trkpt><trkpt lat="55.6751630" lon="38.4979570"><time>2020-10-31T10:38:58.417</time></trkpt><trkpt lat="55.6752870" lon="38.4979170"><time>2020-10-31T10:39:11.417</time></trkpt><trkpt lat="55.6753220" lon="38.4978570"><time>2020-10-31T10:39:14.417</time></trkpt><trkpt lat="55.6754050" lon="38.4977850"><time>2020-10-31T10:39:23.417</time></trkpt><trkpt lat="55.6755400" lon="38.4977520"><time>2020-10-31T10:39:33.417</time></trkpt><trkpt lat="55.6756800" lon="38.4977520"><time>2020-10-31T10:39:46.417</time></trkpt><trkpt lat="55.6758120" lon="38.4977320"><time>2020-10-31T10:39:58.420</time></trkpt><trkpt lat="55.6759300" lon="38.4978100"><time>2020-10-31T10:40:09.420</time></trkpt><trkpt lat="55.6760570" lon="38.4978280"><time>2020-10-31T10:40:22.420</time></trkpt><trkpt lat="55.6761020" lon="38.4978280"><time>2020-10-31T10:40:25.420</time></trkpt><trkpt lat="55.6762030" lon="38.4978180"><time>2020-10-31T10:40:32.417</time></trkpt><trkpt lat="55.6763170" lon="38.4978450"><time>2020-10-31T10:40:54.417</time></trkpt><trkpt lat="55.6763900" lon="38.4979920"><time>2020-10-31T10:41:22.417</time></trkpt><trkpt lat="55.6764500" lon="38.4981730"><time>2020-10-31T10:41:38.417</time></trkpt><trkpt lat="55.6765120" lon="38.4983350"><time>2020-10-31T10:41:48.420</time></trkpt><trkpt lat="55.6765800" lon="38.4985120"><time>2020-10-31T10:42:04.417</time></trkpt><trkpt lat="55.6766300" lon="38.4986880"><time>2020-10-31T10:42:20.420</time></trkpt><trkpt lat="55.6767080" lon="38.4988780"><time>2020-10-31T10:42:32.417</time></trkpt><trkpt lat="55.6767680" lon="38.4990670"><time>2020-10-31T10:42:43.417</time></trkpt><trkpt lat="55.6768500" lon="38.4992130"><time>2020-10-31T10:42:55.420</time></trkpt><trkpt lat="55.6768750" lon="38.4994200"><time>2020-10-31T10:43:24.417</time></trkpt><trkpt lat="55.6769720" lon="38.4996130"><time>2020-10-31T10:43:38.417</time></trkpt><trkpt lat="55.6770400" lon="38.4997930"><time>2020-10-31T10:43:50.417</time></trkpt><trkpt lat="55.6770750" lon="38.5000100"><time>2020-10-31T10:44:02.427</time></trkpt><trkpt lat="55.6771450" lon="38.5001720"><time>2020-10-31T10:44:14.417</time></trkpt><trkpt lat="55.6771650" lon="38.5004280"><time>2020-10-31T10:44:24.417</time></trkpt><trkpt lat="55.6772170" lon="38.5005920"><time>2020-10-31T10:44:37.420</time></trkpt><trkpt lat="55.6772770" lon="38.5008070"><time>2020-10-31T10:44:47.420</time></trkpt><trkpt lat="55.6773600" lon="38.5009480"><time>2020-10-31T10:45:11.417</time></trkpt><trkpt lat="55.6774200" lon="38.5011080"><time>2020-10-31T10:45:46.417</time></trkpt><trkpt lat="55.6774500" lon="38.5012850"><time>2020-10-31T10:46:49.417</time></trkpt><trkpt lat="55.6773800" lon="38.5011730"><time>2020-10-31T10:47:35.423</time></trkpt><trkpt lat="55.6773430" lon="38.5010020"><time>2020-10-31T10:47:59.417</time></trkpt><trkpt lat="55.6773070" lon="38.5008300"><time>2020-10-31T10:48:16.420</time></trkpt><trkpt lat="55.6772780" lon="38.5006070"><time>2020-10-31T10:48:32.420</time></trkpt><trkpt lat="55.6772330" lon="38.5004200"><time>2020-10-31T10:48:57.420</time></trkpt><trkpt lat="55.6771850" lon="38.5002200"><time>2020-10-31T10:49:10.420</time></trkpt><trkpt lat="55.6772430" lon="38.5000470"><time>2020-10-31T10:49:31.423</time></trkpt><trkpt lat="55.6772820" lon="38.4998480"><time>2020-10-31T10:49:50.420</time></trkpt><trkpt lat="55.6773430" lon="38.4996780"><time>2020-10-31T10:50:05.420</time></trkpt><trkpt lat="55.6773970" lon="38.4994380"><time>2020-10-31T10:50:10.420</time></trkpt><trkpt lat="55.6774320" lon="38.4992400"><time>2020-10-31T10:50:24.417</time></trkpt><trkpt lat="55.6774080" lon="38.4990330"><time>2020-10-31T10:50:33.417</time></trkpt><trkpt lat="55.6774020" lon="38.4988080"><time>2020-10-31T10:50:38.460</time></trkpt><trkpt lat="55.6774000" lon="38.4988130"><time>2020-10-31T10:50:50.287</time></trkpt><trkpt lat="55.6773770" lon="38.4986980"><time>2020-10-31T10:50:51.370</time></trkpt><trkpt lat="55.6774100" lon="38.4986370"><time>2020-10-31T10:50:52.373</time></trkpt><trkpt lat="55.6774800" lon="38.4986200"><time>2020-10-31T10:50:53.370</time></trkpt><trkpt lat="55.6774280" lon="38.4986800"><time>2020-10-31T10:50:54.410</time></trkpt><trkpt lat="55.6773870" lon="38.4987530"><time>2020-10-31T10:50:55.413</time></trkpt><trkpt lat="55.6773480" lon="38.4988180"><time>2020-10-31T10:50:56.413</time></trkpt><trkpt lat="55.6773070" lon="38.4988720"><time>2020-10-31T10:50:58.413</time></trkpt><trkpt lat="55.6772770" lon="38.4989370"><time>2020-10-31T10:51:01.420</time></trkpt><trkpt lat="55.6771720" lon="38.4989970"><time>2020-10-31T10:51:46.417</time></trkpt><trkpt lat="55.6770600" lon="38.4990600"><time>2020-10-31T10:52:12.420</time></trkpt><trkpt lat="55.6769580" lon="38.4991720"><time>2020-10-31T10:52:32.420</time></trkpt><trkpt lat="55.6768730" lon="38.4992480"><time>2020-10-31T10:52:47.417</time></trkpt><trkpt lat="55.6767630" lon="38.4991980"><time>2020-10-31T10:52:58.420</time></trkpt><trkpt lat="55.6767070" lon="38.4989850"><time>2020-10-31T10:53:17.420</time></trkpt><trkpt lat="55.6765980" lon="38.4989400"><time>2020-10-31T10:53:31.420</time></trkpt><trkpt lat="55.6765230" lon="38.4989920"><time>2020-10-31T10:53:49.423</time></trkpt><trkpt lat="55.6764750" lon="38.4990080"><time>2020-10-31T10:53:52.417</time></trkpt><trkpt lat="55.6764370" lon="38.4990700"><time>2020-10-31T10:53:56.420</time></trkpt><trkpt lat="55.6763900" lon="38.4990570"><time>2020-10-31T10:53:59.420</time></trkpt><trkpt lat="55.6763020" lon="38.4989980"><time>2020-10-31T10:54:08.417</time></trkpt><trkpt lat="55.6761720" lon="38.4990250"><time>2020-10-31T10:54:29.417</time></trkpt><trkpt lat="55.6761120" lon="38.4990300"><time>2020-10-31T10:54:32.423</time></trkpt><trkpt lat="55.6760080" lon="38.4990820"><time>2020-10-31T10:54:38.420</time></trkpt><trkpt lat="55.6759070" lon="38.4992280"><time>2020-10-31T10:54:56.420</time></trkpt><trkpt lat="55.6757600" lon="38.4992100"><time>2020-10-31T10:55:11.417</time></trkpt><trkpt lat="55.6757120" lon="38.4991950"><time>2020-10-31T10:55:14.420</time></trkpt><trkpt lat="55.6756180" lon="38.4991520"><time>2020-10-31T10:55:23.420</time></trkpt><trkpt lat="55.6755250" lon="38.4991430"><time>2020-10-31T10:55:35.417</time></trkpt><trkpt lat="55.6754780" lon="38.4990920"><time>2020-10-31T10:55:40.417</time></trkpt><trkpt lat="55.6754130" lon="38.4989750"><time>2020-10-31T10:55:50.417</time></trkpt><trkpt lat="55.6752950" lon="38.4988570"><time>2020-10-31T10:56:01.420</time></trkpt><trkpt lat="55.6751800" lon="38.4987650"><time>2020-10-31T10:56:16.417</time></trkpt><trkpt lat="55.6751000" lon="38.4985900"><time>2020-10-31T10:56:34.417</time></trkpt><trkpt lat="55.6749800" lon="38.4984950"><time>2020-10-31T10:56:39.417</time></trkpt><trkpt lat="55.6749170" lon="38.4984480"><time>2020-10-31T10:56:40.420</time></trkpt><trkpt lat="55.6748670" lon="38.4984230"><time>2020-10-31T10:56:42.417</time></trkpt><trkpt lat="55.6747720" lon="38.4984180"><time>2020-10-31T10:56:47.417</time></trkpt><trkpt lat="55.6746780" lon="38.4985030"><time>2020-10-31T10:57:02.423</time></trkpt><trkpt lat="55.6746020" lon="38.4986450"><time>2020-10-31T10:57:17.420</time></trkpt><trkpt lat="55.6744850" lon="38.4987020"><time>2020-10-31T10:57:26.420</time></trkpt><trkpt lat="55.6743970" lon="38.4988580"><time>2020-10-31T10:57:37.420</time></trkpt><trkpt lat="55.6742820" lon="38.4989630"><time>2020-10-31T10:57:47.420</time></trkpt><trkpt lat="55.6741770" lon="38.4990850"><time>2020-10-31T10:57:59.420</time></trkpt><trkpt lat="55.6740380" lon="38.4991180"><time>2020-10-31T10:58:09.420</time></trkpt><trkpt lat="55.6739920" lon="38.4991400"><time>2020-10-31T10:58:12.420</time></trkpt><trkpt lat="55.6739030" lon="38.4990900"><time>2020-10-31T10:58:27.420</time></trkpt><trkpt lat="55.6738570" lon="38.4988930"><time>2020-10-31T10:58:36.420</time></trkpt><trkpt lat="55.6738150" lon="38.4988350"><time>2020-10-31T10:58:38.423</time></trkpt><trkpt lat="55.6737820" lon="38.4987750"><time>2020-10-31T10:58:40.420</time></trkpt><trkpt lat="55.6737680" lon="38.4986820"><time>2020-10-31T10:58:43.420</time></trkpt><trkpt lat="55.6737170" lon="38.4985950"><time>2020-10-31T10:58:46.420</time></trkpt><trkpt lat="55.6736670" lon="38.4985050"><time>2020-10-31T10:58:48.423</time></trkpt><trkpt lat="55.6736170" lon="38.4984050"><time>2020-10-31T10:58:50.420</time></trkpt><trkpt lat="55.6735780" lon="38.4983330"><time>2020-10-31T10:58:52.420</time></trkpt><trkpt lat="55.6735780" lon="38.4982350"><time>2020-10-31T10:58:56.420</time></trkpt><trkpt lat="55.6735520" lon="38.4981600"><time>2020-10-31T10:58:59.420</time></trkpt><trkpt lat="55.6734980" lon="38.4980930"><time>2020-10-31T10:59:02.423</time></trkpt><trkpt lat="55.6734630" lon="38.4980150"><time>2020-10-31T10:59:05.420</time></trkpt><trkpt lat="55.6734270" lon="38.4979420"><time>2020-10-31T10:59:08.420</time></trkpt><trkpt lat="55.6733980" lon="38.4978770"><time>2020-10-31T10:59:10.420</time></trkpt><trkpt lat="55.6733480" lon="38.4978280"><time>2020-10-31T10:59:12.420</time></trkpt><trkpt lat="55.6733150" lon="38.4977750"><time>2020-10-31T10:59:14.420</time></trkpt><trkpt lat="55.6732870" lon="38.4976870"><time>2020-10-31T10:59:18.420</time></trkpt><trkpt lat="55.6732830" lon="38.4975980"><time>2020-10-31T10:59:21.420</time></trkpt><trkpt lat="55.6732550" lon="38.4974720"><time>2020-10-31T10:59:24.420</time></trkpt><trkpt lat="55.6732200" lon="38.4973850"><time>2020-10-31T10:59:26.413</time></trkpt><trkpt lat="55.6731880" lon="38.4973220"><time>2020-10-31T10:59:28.420</time></trkpt><trkpt lat="55.6731470" lon="38.4972850"><time>2020-10-31T10:59:29.420</time></trkpt><trkpt lat="55.6731070" lon="38.4972130"><time>2020-10-31T10:59:31.420</time></trkpt><trkpt lat="55.6730420" lon="38.4971570"><time>2020-10-31T10:59:32.420</time></trkpt><trkpt lat="55.6729880" lon="38.4971030"><time>2020-10-31T10:59:34.423</time></trkpt><trkpt lat="55.6729580" lon="38.4970300"><time>2020-10-31T10:59:37.420</time></trkpt><trkpt lat="55.6729170" lon="38.4969720"><time>2020-10-31T10:59:39.420</time></trkpt><trkpt lat="55.6729000" lon="38.4968930"><time>2020-10-31T10:59:41.417</time></trkpt><trkpt lat="55.6728680" lon="38.4968130"><time>2020-10-31T10:59:44.423</time></trkpt><trkpt lat="55.6728400" lon="38.4967470"><time>2020-10-31T10:59:46.420</time></trkpt><trkpt lat="55.6728100" lon="38.4966850"><time>2020-10-31T10:59:49.423</time></trkpt><trkpt lat="55.6727900" lon="38.4965250"><time>2020-10-31T10:59:59.420</time></trkpt><trkpt lat="55.6727400" lon="38.4962970"><time>2020-10-31T11:00:07.420</time></trkpt><trkpt lat="55.6727220" lon="38.4962180"><time>2020-10-31T11:00:09.420</time></trkpt><trkpt lat="55.6727150" lon="38.4961300"><time>2020-10-31T11:00:12.420</time></trkpt><trkpt lat="55.6727020" lon="38.4960530"><time>2020-10-31T11:00:15.417</time></trkpt><trkpt lat="55.6726380" lon="38.4958880"><time>2020-10-31T11:00:26.420</time></trkpt><trkpt lat="55.6726230" lon="38.4957770"><time>2020-10-31T11:00:31.417</time></trkpt><trkpt lat="55.6726150" lon="38.4956970"><time>2020-10-31T11:00:33.420</time></trkpt><trkpt lat="55.6725880" lon="38.4955770"><time>2020-10-31T11:00:35.420</time></trkpt><trkpt lat="55.6725480" lon="38.4955300"><time>2020-10-31T11:00:36.420</time></trkpt><trkpt lat="55.6725120" lon="38.4954830"><time>2020-10-31T11:00:37.423</time></trkpt><trkpt lat="55.6724800" lon="38.4953770"><time>2020-10-31T11:00:40.420</time></trkpt><trkpt lat="55.6724520" lon="38.4953150"><time>2020-10-31T11:00:42.420</time></trkpt><trkpt lat="55.6724000" lon="38.4951280"><time>2020-10-31T11:00:49.420</time></trkpt><trkpt lat="55.6723650" lon="38.4950570"><time>2020-10-31T11:00:51.417</time></trkpt><trkpt lat="55.6723370" lon="38.4949630"><time>2020-10-31T11:00:54.420</time></trkpt><trkpt lat="55.6723270" lon="38.4948750"><time>2020-10-31T11:00:56.420</time></trkpt><trkpt lat="55.6722980" lon="38.4947870"><time>2020-10-31T11:00:58.410</time></trkpt><trkpt lat="55.6722820" lon="38.4946770"><time>2020-10-31T11:01:01.420</time></trkpt><trkpt lat="55.6722600" lon="38.4946000"><time>2020-10-31T11:01:03.417</time></trkpt><trkpt lat="55.6722230" lon="38.4945280"><time>2020-10-31T11:01:05.420</time></trkpt><trkpt lat="55.6721980" lon="38.4944400"><time>2020-10-31T11:01:08.420</time></trkpt><trkpt lat="55.6721150" lon="38.4942850"><time>2020-10-31T11:01:19.420</time></trkpt><trkpt lat="55.6720750" lon="38.4940720"><time>2020-10-31T11:01:31.420</time></trkpt><trkpt lat="55.6720370" lon="38.4940200"><time>2020-10-31T11:01:33.417</time></trkpt><trkpt lat="55.6719780" lon="38.4938120"><time>2020-10-31T11:01:41.420</time></trkpt><trkpt lat="55.6719530" lon="38.4936050"><time>2020-10-31T11:01:52.420</time></trkpt><trkpt lat="55.6719320" lon="38.4935330"><time>2020-10-31T11:01:55.423</time></trkpt><trkpt lat="55.6718400" lon="38.4933850"><time>2020-10-31T11:02:00.420</time></trkpt><trkpt lat="55.6718080" lon="38.4933220"><time>2020-10-31T11:02:01.420</time></trkpt><trkpt lat="55.6717130" lon="38.4931880"><time>2020-10-31T11:02:03.417</time></trkpt><trkpt lat="55.6716630" lon="38.4931400"><time>2020-10-31T11:02:04.423</time></trkpt><trkpt lat="55.6716150" lon="38.4930820"><time>2020-10-31T11:02:05.420</time></trkpt><trkpt lat="55.6715850" lon="38.4930050"><time>2020-10-31T11:02:07.420</time></trkpt><trkpt lat="55.6715600" lon="38.4929080"><time>2020-10-31T11:02:09.420</time></trkpt><trkpt lat="55.6715370" lon="38.4928170"><time>2020-10-31T11:02:12.423</time></trkpt><trkpt lat="55.6714830" lon="38.4926370"><time>2020-10-31T11:02:20.420</time></trkpt><trkpt lat="55.6713870" lon="38.4925050"><time>2020-10-31T11:02:27.420</time></trkpt><trkpt lat="55.6713670" lon="38.4924120"><time>2020-10-31T11:02:30.423</time></trkpt><trkpt lat="55.6713220" lon="38.4923420"><time>2020-10-31T11:02:32.420</time></trkpt><trkpt lat="55.6712750" lon="38.4922580"><time>2020-10-31T11:02:34.420</time></trkpt><trkpt lat="55.6710920" lon="38.4921170"><time>2020-10-31T11:02:36.420</time></trkpt><trkpt lat="55.6709470" lon="38.4920420"><time>2020-10-31T11:02:37.423</time></trkpt><trkpt lat="55.6708730" lon="38.4919630"><time>2020-10-31T11:02:38.420</time></trkpt><trkpt lat="55.6708180" lon="38.4918300"><time>2020-10-31T11:02:40.420</time></trkpt><trkpt lat="55.6707880" lon="38.4917280"><time>2020-10-31T11:02:42.420</time></trkpt><trkpt lat="55.6707500" lon="38.4916420"><time>2020-10-31T11:02:45.420</time></trkpt><trkpt lat="55.6707370" lon="38.4915400"><time>2020-10-31T11:02:47.420</time></trkpt><trkpt lat="55.6706820" lon="38.4914700"><time>2020-10-31T11:02:49.420</time></trkpt><trkpt lat="55.6706520" lon="38.4913850"><time>2020-10-31T11:02:51.420</time></trkpt><trkpt lat="55.6706150" lon="38.4912920"><time>2020-10-31T11:02:53.420</time></trkpt><trkpt lat="55.6705820" lon="38.4911950"><time>2020-10-31T11:02:55.423</time></trkpt><trkpt lat="55.6705550" lon="38.4911220"><time>2020-10-31T11:02:58.423</time></trkpt><trkpt lat="55.6705330" lon="38.4910500"><time>2020-10-31T11:03:00.423</time></trkpt><trkpt lat="55.6704870" lon="38.4908950"><time>2020-10-31T11:03:07.423</time></trkpt><trkpt lat="55.6704520" lon="38.4907900"><time>2020-10-31T11:03:09.420</time></trkpt><trkpt lat="55.6704280" lon="38.4907080"><time>2020-10-31T11:03:11.423</time></trkpt><trkpt lat="55.6704120" lon="38.4906170"><time>2020-10-31T11:03:14.420</time></trkpt><trkpt lat="55.6703880" lon="38.4905370"><time>2020-10-31T11:03:17.417</time></trkpt><trkpt lat="55.6703670" lon="38.4904650"><time>2020-10-31T11:03:19.420</time></trkpt><trkpt lat="55.6703100" lon="38.4903750"><time>2020-10-31T11:03:21.423</time></trkpt><trkpt lat="55.6702720" lon="38.4902930"><time>2020-10-31T11:03:23.420</time></trkpt><trkpt lat="55.6702380" lon="38.4901900"><time>2020-10-31T11:03:25.420</time></trkpt><trkpt lat="55.6702430" lon="38.4901080"><time>2020-10-31T11:03:27.427</time></trkpt><trkpt lat="55.6701530" lon="38.4899500"><time>2020-10-31T11:03:35.420</time></trkpt><trkpt lat="55.6701320" lon="38.4898570"><time>2020-10-31T11:03:39.420</time></trkpt><trkpt lat="55.6701270" lon="38.4897630"><time>2020-10-31T11:03:43.420</time></trkpt><trkpt lat="55.6701500" lon="38.4896730"><time>2020-10-31T11:03:52.423</time></trkpt><trkpt lat="55.6700970" lon="38.4896500"><time>2020-10-31T11:03:58.420</time></trkpt><trkpt lat="55.6700250" lon="38.4896800"><time>2020-10-31T11:04:01.420</time></trkpt><trkpt lat="55.6699680" lon="38.4896900"><time>2020-10-31T11:04:03.420</time></trkpt><trkpt lat="55.6699170" lon="38.4897080"><time>2020-10-31T11:04:06.420</time></trkpt><trkpt lat="55.6698670" lon="38.4897300"><time>2020-10-31T11:04:10.420</time></trkpt><trkpt lat="55.6697820" lon="38.4897980"><time>2020-10-31T11:04:17.420</time></trkpt><trkpt lat="55.6697300" lon="38.4898150"><time>2020-10-31T11:04:20.420</time></trkpt><trkpt lat="55.6696330" lon="38.4898920"><time>2020-10-31T11:04:26.423</time></trkpt><trkpt lat="55.6695830" lon="38.4899500"><time>2020-10-31T11:04:30.420</time></trkpt><trkpt lat="55.6694570" lon="38.4900030"><time>2020-10-31T11:04:38.423</time></trkpt><trkpt lat="55.6694120" lon="38.4900520"><time>2020-10-31T11:04:41.420</time></trkpt><trkpt lat="55.6693300" lon="38.4901200"><time>2020-10-31T11:04:48.420</time></trkpt><trkpt lat="55.6692820" lon="38.4902520"><time>2020-10-31T11:04:50.420</time></trkpt><trkpt lat="55.6692470" lon="38.4903080"><time>2020-10-31T11:04:51.417</time></trkpt><trkpt lat="55.6691870" lon="38.4903780"><time>2020-10-31T11:04:53.420</time></trkpt><trkpt lat="55.6691420" lon="38.4904350"><time>2020-10-31T11:04:55.417</time></trkpt><trkpt lat="55.6691080" lon="38.4904970"><time>2020-10-31T11:04:57.420</time></trkpt><trkpt lat="55.6690620" lon="38.4905270"><time>2020-10-31T11:04:59.420</time></trkpt><trkpt lat="55.6690170" lon="38.4905900"><time>2020-10-31T11:05:01.420</time></trkpt><trkpt lat="55.6689800" lon="38.4906580"><time>2020-10-31T11:05:03.423</time></trkpt><trkpt lat="55.6689280" lon="38.4907080"><time>2020-10-31T11:05:06.423</time></trkpt><trkpt lat="55.6688500" lon="38.4907300"><time>2020-10-31T11:05:09.417</time></trkpt><trkpt lat="55.6688000" lon="38.4907530"><time>2020-10-31T11:05:11.420</time></trkpt><trkpt lat="55.6685830" lon="38.4906750"><time>2020-10-31T11:05:16.420</time></trkpt><trkpt lat="55.6685080" lon="38.4906250"><time>2020-10-31T11:05:17.417</time></trkpt><trkpt lat="55.6684600" lon="38.4906650"><time>2020-10-31T11:05:19.423</time></trkpt><trkpt lat="55.6683980" lon="38.4907120"><time>2020-10-31T11:05:21.423</time></trkpt><trkpt lat="55.6683520" lon="38.4907530"><time>2020-10-31T11:05:23.417</time></trkpt><trkpt lat="55.6682900" lon="38.4908000"><time>2020-10-31T11:05:27.420</time></trkpt><trkpt lat="55.6682370" lon="38.4908400"><time>2020-10-31T11:05:28.420</time></trkpt><trkpt lat="55.6681550" lon="38.4909780"><time>2020-10-31T11:05:35.420</time></trkpt><trkpt lat="55.6680180" lon="38.4909670"><time>2020-10-31T11:05:41.420</time></trkpt><trkpt lat="55.6679350" lon="38.4911420"><time>2020-10-31T11:05:51.420</time></trkpt><trkpt lat="55.6677850" lon="38.4911450"><time>2020-10-31T11:05:59.420</time></trkpt><trkpt lat="55.6677320" lon="38.4911150"><time>2020-10-31T11:06:02.420</time></trkpt><trkpt lat="55.6676400" lon="38.4911420"><time>2020-10-31T11:06:08.420</time></trkpt><trkpt lat="55.6675720" lon="38.4913600"><time>2020-10-31T11:06:18.420</time></trkpt><trkpt lat="55.6674920" lon="38.4915270"><time>2020-10-31T11:06:27.420</time></trkpt><trkpt lat="55.6674280" lon="38.4917330"><time>2020-10-31T11:06:35.420</time></trkpt><trkpt lat="55.6673900" lon="38.4917950"><time>2020-10-31T11:06:38.420</time></trkpt><trkpt lat="55.6673020" lon="38.4918420"><time>2020-10-31T11:06:46.420</time></trkpt><trkpt lat="55.6671720" lon="38.4918870"><time>2020-10-31T11:06:54.423</time></trkpt><trkpt lat="55.6670630" lon="38.4918480"><time>2020-10-31T11:07:06.420</time></trkpt><trkpt lat="55.6669330" lon="38.4918250"><time>2020-10-31T11:07:27.420</time></trkpt><trkpt lat="55.6668500" lon="38.4917000"><time>2020-10-31T11:07:41.423</time></trkpt><trkpt lat="55.6667480" lon="38.4915620"><time>2020-10-31T11:07:49.423</time></trkpt><trkpt lat="55.6666920" lon="38.4913700"><time>2020-10-31T11:08:00.423</time></trkpt><trkpt lat="55.6665600" lon="38.4911520"><time>2020-10-31T11:08:08.420</time></trkpt><trkpt lat="55.6665000" lon="38.4910680"><time>2020-10-31T11:08:09.420</time></trkpt><trkpt lat="55.6664650" lon="38.4910130"><time>2020-10-31T11:08:10.420</time></trkpt><trkpt lat="55.6664380" lon="38.4909300"><time>2020-10-31T11:08:12.420</time></trkpt><trkpt lat="55.6663530" lon="38.4907730"><time>2020-10-31T11:08:25.423</time></trkpt><trkpt lat="55.6662870" lon="38.4906650"><time>2020-10-31T11:08:33.420</time></trkpt><trkpt lat="55.6662130" lon="38.4904580"><time>2020-10-31T11:08:45.420</time></trkpt><trkpt lat="55.6661750" lon="38.4903850"><time>2020-10-31T11:08:47.420</time></trkpt><trkpt lat="55.6661250" lon="38.4902050"><time>2020-10-31T11:08:58.423</time></trkpt><trkpt lat="55.6660900" lon="38.4900380"><time>2020-10-31T11:09:13.423</time></trkpt><trkpt lat="55.6660100" lon="38.4898500"><time>2020-10-31T11:09:22.420</time></trkpt><trkpt lat="55.6659850" lon="38.4896330"><time>2020-10-31T11:09:35.420</time></trkpt><trkpt lat="55.6659700" lon="38.4894950"><time>2020-10-31T11:09:37.423</time></trkpt><trkpt lat="55.6659830" lon="38.4894180"><time>2020-10-31T11:09:42.420</time></trkpt><trkpt lat="55.6659980" lon="38.4892480"><time>2020-10-31T11:09:55.427</time></trkpt><trkpt lat="55.6660030" lon="38.4891680"><time>2020-10-31T11:09:58.420</time></trkpt><trkpt lat="55.6659970" lon="38.4889970"><time>2020-10-31T11:10:06.423</time></trkpt><trkpt lat="55.6660130" lon="38.4887820"><time>2020-10-31T11:10:17.420</time></trkpt><trkpt lat="55.6660500" lon="38.4885570"><time>2020-10-31T11:10:28.423</time></trkpt><trkpt lat="55.6659500" lon="38.4885320"><time>2020-10-31T11:10:49.427</time></trkpt><trkpt lat="55.6658900" lon="38.4884800"><time>2020-10-31T11:10:52.420</time></trkpt><trkpt lat="55.6657820" lon="38.4884620"><time>2020-10-31T11:11:05.420</time></trkpt><trkpt lat="55.6656570" lon="38.4884420"><time>2020-10-31T11:11:13.423</time></trkpt><trkpt lat="55.6655530" lon="38.4884620"><time>2020-10-31T11:11:25.423</time></trkpt><trkpt lat="55.6654930" lon="38.4884350"><time>2020-10-31T11:11:28.423</time></trkpt><trkpt lat="55.6654400" lon="38.4884320"><time>2020-10-31T11:11:32.420</time></trkpt><trkpt lat="55.6653200" lon="38.4883920"><time>2020-10-31T11:11:45.420</time></trkpt><trkpt lat="55.6652000" lon="38.4884320"><time>2020-10-31T11:11:57.423</time></trkpt><trkpt lat="55.6651550" lon="38.4884550"><time>2020-10-31T11:12:00.420</time></trkpt><trkpt lat="55.6650580" lon="38.4884980"><time>2020-10-31T11:12:13.423</time></trkpt><trkpt lat="55.6650130" lon="38.4885320"><time>2020-10-31T11:12:16.420</time></trkpt><trkpt lat="55.6649150" lon="38.4885270"><time>2020-10-31T11:12:28.427</time></trkpt><trkpt lat="55.6648550" lon="38.4885120"><time>2020-10-31T11:12:31.423</time></trkpt><trkpt lat="55.6647600" lon="38.4884980"><time>2020-10-31T11:12:38.420</time></trkpt><trkpt lat="55.6646380" lon="38.4884730"><time>2020-10-31T11:12:48.423</time></trkpt><trkpt lat="55.6645230" lon="38.4885100"><time>2020-10-31T11:13:04.423</time></trkpt><trkpt lat="55.6644030" lon="38.4884830"><time>2020-10-31T11:13:12.423</time></trkpt><trkpt lat="55.6642600" lon="38.4885300"><time>2020-10-31T11:13:22.423</time></trkpt><trkpt lat="55.6641430" lon="38.4884780"><time>2020-10-31T11:13:30.423</time></trkpt><trkpt lat="55.6640120" lon="38.4884950"><time>2020-10-31T11:13:40.427</time></trkpt><trkpt lat="55.6638880" lon="38.4884780"><time>2020-10-31T11:13:49.423</time></trkpt><trkpt lat="55.6638320" lon="38.4884670"><time>2020-10-31T11:13:52.423</time></trkpt><trkpt lat="55.6637420" lon="38.4884220"><time>2020-10-31T11:13:56.423</time></trkpt><trkpt lat="55.6636930" lon="38.4884000"><time>2020-10-31T11:13:59.423</time></trkpt><trkpt lat="55.6636020" lon="38.4884170"><time>2020-10-31T11:14:05.423</time></trkpt><trkpt lat="55.6634930" lon="38.4883930"><time>2020-10-31T11:14:14.423</time></trkpt><trkpt lat="55.6634450" lon="38.4883670"><time>2020-10-31T11:14:17.423</time></trkpt><trkpt lat="55.6633470" lon="38.4884070"><time>2020-10-31T11:14:26.427</time></trkpt><trkpt lat="55.6632970" lon="38.4883920"><time>2020-10-31T11:14:28.427</time></trkpt><trkpt lat="55.6631920" lon="38.4884120"><time>2020-10-31T11:14:38.427</time></trkpt><trkpt lat="55.6630700" lon="38.4884680"><time>2020-10-31T11:14:48.427</time></trkpt><trkpt lat="55.6629480" lon="38.4884930"><time>2020-10-31T11:15:04.423</time></trkpt><trkpt lat="55.6628180" lon="38.4884770"><time>2020-10-31T11:15:23.423</time></trkpt><trkpt lat="55.6627080" lon="38.4884530"><time>2020-10-31T11:15:33.427</time></trkpt><trkpt lat="55.6625930" lon="38.4884780"><time>2020-10-31T11:15:46.423</time></trkpt><trkpt lat="55.6624750" lon="38.4885420"><time>2020-10-31T11:15:59.423</time></trkpt><trkpt lat="55.6623600" lon="38.4885950"><time>2020-10-31T11:16:12.423</time></trkpt><trkpt lat="55.6623150" lon="38.4885930"><time>2020-10-31T11:16:15.420</time></trkpt><trkpt lat="55.6622320" lon="38.4885320"><time>2020-10-31T11:16:24.423</time></trkpt><trkpt lat="55.6620830" lon="38.4884820"><time>2020-10-31T11:16:37.423</time></trkpt><trkpt lat="55.6620130" lon="38.4884930"><time>2020-10-31T11:16:40.423</time></trkpt><trkpt lat="55.6619150" lon="38.4885250"><time>2020-10-31T11:16:47.420</time></trkpt><trkpt lat="55.6618700" lon="38.4885270"><time>2020-10-31T11:16:49.423</time></trkpt><trkpt lat="55.6617580" lon="38.4885120"><time>2020-10-31T11:16:56.423</time></trkpt><trkpt lat="55.6617050" lon="38.4884700"><time>2020-10-31T11:16:57.423</time></trkpt><trkpt lat="55.6616220" lon="38.4884000"><time>2020-10-31T11:16:59.423</time></trkpt><trkpt lat="55.6615280" lon="38.4883080"><time>2020-10-31T11:17:01.423</time></trkpt><trkpt lat="55.6614720" lon="38.4883150"><time>2020-10-31T11:17:03.420</time></trkpt><trkpt lat="55.6613600" lon="38.4882970"><time>2020-10-31T11:17:08.423</time></trkpt><trkpt lat="55.6612200" lon="38.4883130"><time>2020-10-31T11:17:21.427</time></trkpt><trkpt lat="55.6611770" lon="38.4883430"><time>2020-10-31T11:17:24.423</time></trkpt><trkpt lat="55.6610870" lon="38.4883130"><time>2020-10-31T11:17:29.423</time></trkpt><trkpt lat="55.6610270" lon="38.4882530"><time>2020-10-31T11:17:31.423</time></trkpt><trkpt lat="55.6608920" lon="38.4881650"><time>2020-10-31T11:17:35.423</time></trkpt><trkpt lat="55.6607880" lon="38.4881680"><time>2020-10-31T11:17:46.423</time></trkpt><trkpt lat="55.6606830" lon="38.4882650"><time>2020-10-31T11:17:58.423</time></trkpt><trkpt lat="55.6606420" lon="38.4882950"><time>2020-10-31T11:18:01.423</time></trkpt><trkpt lat="55.6605380" lon="38.4883030"><time>2020-10-31T11:18:08.420</time></trkpt><trkpt lat="55.6604080" lon="38.4883700"><time>2020-10-31T11:18:20.427</time></trkpt><trkpt lat="55.6603470" lon="38.4883680"><time>2020-10-31T11:18:22.427</time></trkpt><trkpt lat="55.6602930" lon="38.4883500"><time>2020-10-31T11:18:25.423</time></trkpt><trkpt lat="55.6601900" lon="38.4883250"><time>2020-10-31T11:18:35.420</time></trkpt><trkpt lat="55.6600580" lon="38.4883200"><time>2020-10-31T11:18:47.423</time></trkpt><trkpt lat="55.6600030" lon="38.4882870"><time>2020-10-31T11:18:50.423</time></trkpt><trkpt lat="55.6599000" lon="38.4882380"><time>2020-10-31T11:18:54.423</time></trkpt><trkpt lat="55.6598550" lon="38.4881870"><time>2020-10-31T11:18:56.427</time></trkpt><trkpt lat="55.6597500" lon="38.4882480"><time>2020-10-31T11:19:05.427</time></trkpt><trkpt lat="55.6596280" lon="38.4883050"><time>2020-10-31T11:19:15.423</time></trkpt><trkpt lat="55.6595130" lon="38.4884020"><time>2020-10-31T11:19:25.423</time></trkpt><trkpt lat="55.6593770" lon="38.4884330"><time>2020-10-31T11:19:34.427</time></trkpt><trkpt lat="55.6592370" lon="38.4884400"><time>2020-10-31T11:19:45.423</time></trkpt><trkpt lat="55.6591050" lon="38.4883930"><time>2020-10-31T11:19:57.423</time></trkpt><trkpt lat="55.6589980" lon="38.4883670"><time>2020-10-31T11:20:08.427</time></trkpt><trkpt lat="55.6589450" lon="38.4883530"><time>2020-10-31T11:20:11.423</time></trkpt><trkpt lat="55.6588530" lon="38.4882970"><time>2020-10-31T11:20:19.430</time></trkpt><trkpt lat="55.6587280" lon="38.4882480"><time>2020-10-31T11:20:34.423</time></trkpt><trkpt lat="55.6586830" lon="38.4882270"><time>2020-10-31T11:20:37.423</time></trkpt><trkpt lat="55.6585780" lon="38.4881900"><time>2020-10-31T11:20:48.423</time></trkpt><trkpt lat="55.6585170" lon="38.4881820"><time>2020-10-31T11:20:51.427</time></trkpt><trkpt lat="55.6584300" lon="38.4881420"><time>2020-10-31T11:20:54.390</time></trkpt><trkpt lat="55.6583480" lon="38.4881180"><time>2020-10-31T11:20:56.387</time></trkpt><trkpt lat="55.6582930" lon="38.4881750"><time>2020-10-31T11:20:58.383</time></trkpt><trkpt lat="55.6582370" lon="38.4881650"><time>2020-10-31T11:20:59.380</time></trkpt><trkpt lat="55.6581900" lon="38.4882070"><time>2020-10-31T11:21:00.380</time></trkpt><trkpt lat="55.6580570" lon="38.4881530"><time>2020-10-31T11:21:01.427</time></trkpt><trkpt lat="55.6579870" lon="38.4881420"><time>2020-10-31T11:21:02.427</time></trkpt><trkpt lat="55.6579250" lon="38.4881750"><time>2020-10-31T11:21:03.423</time></trkpt><trkpt lat="55.6578530" lon="38.4881530"><time>2020-10-31T11:21:04.423</time></trkpt><trkpt lat="55.6577930" lon="38.4880980"><time>2020-10-31T11:21:06.420</time></trkpt><trkpt lat="55.6577430" lon="38.4880700"><time>2020-10-31T11:21:09.383</time></trkpt><trkpt lat="55.6577000" lon="38.4880980"><time>2020-10-31T11:21:17.420</time></trkpt><trkpt lat="55.6576170" lon="38.4881380"><time>2020-10-31T11:21:36.423</time></trkpt><trkpt lat="55.6575300" lon="38.4881120"><time>2020-10-31T11:21:50.427</time></trkpt><trkpt lat="55.6574020" lon="38.4880120"><time>2020-10-31T11:22:09.423</time></trkpt><trkpt lat="55.6573080" lon="38.4878900"><time>2020-10-31T11:22:27.413</time></trkpt><trkpt lat="55.6572220" lon="38.4877270"><time>2020-10-31T11:22:40.423</time></trkpt><trkpt lat="55.6571850" lon="38.4875350"><time>2020-10-31T11:22:55.423</time></trkpt><trkpt lat="55.6571670" lon="38.4874580"><time>2020-10-31T11:22:58.427</time></trkpt><trkpt lat="55.6570870" lon="38.4873180"><time>2020-10-31T11:23:19.427</time></trkpt><trkpt lat="55.6569830" lon="38.4871420"><time>2020-10-31T11:23:32.427</time></trkpt><trkpt lat="55.6568880" lon="38.4869870"><time>2020-10-31T11:23:51.427</time></trkpt><trkpt lat="55.6567620" lon="38.4869680"><time>2020-10-31T11:24:00.423</time></trkpt><trkpt lat="55.6567120" lon="38.4869630"><time>2020-10-31T11:24:02.423</time></trkpt><trkpt lat="55.6566130" lon="38.4868600"><time>2020-10-31T11:24:16.427</time></trkpt><trkpt lat="55.6565230" lon="38.4867430"><time>2020-10-31T11:24:26.427</time></trkpt><trkpt lat="55.6564950" lon="38.4866680"><time>2020-10-31T11:24:29.423</time></trkpt><trkpt lat="55.6564070" lon="38.4865400"><time>2020-10-31T11:24:36.423</time></trkpt><trkpt lat="55.6563680" lon="38.4864970"><time>2020-10-31T11:24:38.427</time></trkpt><trkpt lat="55.6563920" lon="38.4864170"><time>2020-10-31T11:24:52.423</time></trkpt><trkpt lat="55.6564300" lon="38.4863380"><time>2020-10-31T11:24:55.427</time></trkpt><trkpt lat="55.6563320" lon="38.4863130"><time>2020-10-31T11:25:39.423</time></trkpt><trkpt lat="55.6562850" lon="38.4862580"><time>2020-10-31T11:25:42.427</time></trkpt><trkpt lat="55.6562420" lon="38.4862200"><time>2020-10-31T11:25:46.427</time></trkpt><trkpt lat="55.6562020" lon="38.4861770"><time>2020-10-31T11:25:51.423</time></trkpt><trkpt lat="55.6561250" lon="38.4860880"><time>2020-10-31T11:26:09.423</time></trkpt><trkpt lat="55.6559950" lon="38.4860020"><time>2020-10-31T11:26:32.423</time></trkpt><trkpt lat="55.6560400" lon="38.4861780"><time>2020-10-31T11:26:40.427</time></trkpt><trkpt lat="55.6560200" lon="38.4863300"><time>2020-10-31T11:26:59.423</time></trkpt><trkpt lat="55.6559630" lon="38.4862730"><time>2020-10-31T11:27:03.423</time></trkpt><trkpt lat="55.6559350" lon="38.4862120"><time>2020-10-31T11:27:08.423</time></trkpt><trkpt lat="55.6560320" lon="38.4861930"><time>2020-10-31T11:27:23.423</time></trkpt><trkpt lat="55.6561230" lon="38.4862830"><time>2020-10-31T11:27:42.423</time></trkpt><trkpt lat="55.6561670" lon="38.4863150"><time>2020-10-31T11:27:45.423</time></trkpt><trkpt lat="55.6562700" lon="38.4863520"><time>2020-10-31T11:27:52.423</time></trkpt><trkpt lat="55.6563170" lon="38.4863850"><time>2020-10-31T11:27:55.423</time></trkpt><trkpt lat="55.6563980" lon="38.4863030"><time>2020-10-31T11:28:15.423</time></trkpt><trkpt lat="55.6564770" lon="38.4861620"><time>2020-10-31T11:28:39.423</time></trkpt><trkpt lat="55.6564700" lon="38.4859600"><time>2020-10-31T11:28:59.427</time></trkpt><trkpt lat="55.6564570" lon="38.4857620"><time>2020-10-31T11:29:15.427</time></trkpt><trkpt lat="55.6564150" lon="38.4855450"><time>2020-10-31T11:29:34.427</time></trkpt><trkpt lat="55.6563900" lon="38.4853670"><time>2020-10-31T11:29:57.427</time></trkpt><trkpt lat="55.6564880" lon="38.4852880"><time>2020-10-31T11:30:17.427</time></trkpt><trkpt lat="55.6565850" lon="38.4852000"><time>2020-10-31T11:30:32.427</time></trkpt><trkpt lat="55.6567000" lon="38.4851650"><time>2020-10-31T11:30:46.427</time></trkpt><trkpt lat="55.6567720" lon="38.4853170"><time>2020-10-31T11:31:02.427</time></trkpt><trkpt lat="55.6568050" lon="38.4854880"><time>2020-10-31T11:31:16.423</time></trkpt><trkpt lat="55.6568900" lon="38.4856250"><time>2020-10-31T11:31:30.623</time></trkpt><trkpt lat="55.6569050" lon="38.4858150"><time>2020-10-31T11:31:47.427</time></trkpt><trkpt lat="55.6569070" lon="38.4860230"><time>2020-10-31T11:32:06.427</time></trkpt><trkpt lat="55.6568580" lon="38.4860720"><time>2020-10-31T11:32:30.383</time></trkpt><trkpt lat="55.6568580" lon="38.4860720"><time>2020-10-31T11:32:31.187</time></trkpt><trkpt lat="55.6567900" lon="38.4861880"><time>2020-10-31T11:32:33.377</time></trkpt><trkpt lat="55.6567930" lon="38.4862730"><time>2020-10-31T11:32:34.417</time></trkpt><trkpt lat="55.6568080" lon="38.4863580"><time>2020-10-31T11:32:36.417</time></trkpt><trkpt lat="55.6569070" lon="38.4862950"><time>2020-10-31T11:32:38.417</time></trkpt><trkpt lat="55.6569520" lon="38.4863500"><time>2020-10-31T11:32:39.420</time></trkpt><trkpt lat="55.6568220" lon="38.4862700"><time>2020-10-31T11:32:40.420</time></trkpt><trkpt lat="55.6568350" lon="38.4861720"><time>2020-10-31T11:32:41.417</time></trkpt><trkpt lat="55.6568970" lon="38.4863220"><time>2020-10-31T11:32:44.420</time></trkpt><trkpt lat="55.6569420" lon="38.4863180"><time>2020-10-31T11:32:46.420</time></trkpt><trkpt lat="55.6569670" lon="38.4864020"><time>2020-10-31T11:32:48.420</time></trkpt><trkpt lat="55.6569950" lon="38.4864850"><time>2020-10-31T11:32:49.423</time></trkpt><trkpt lat="55.6569470" lon="38.4863680"><time>2020-10-31T11:32:51.423</time></trkpt><trkpt lat="55.6570020" lon="38.4864020"><time>2020-10-31T11:32:53.420</time></trkpt><trkpt lat="55.6570120" lon="38.4863230"><time>2020-10-31T11:33:02.427</time></trkpt><trkpt lat="55.6569580" lon="38.4861680"><time>2020-10-31T11:33:11.427</time></trkpt><trkpt lat="55.6570120" lon="38.4859730"><time>2020-10-31T11:33:37.423</time></trkpt><trkpt lat="55.6570750" lon="38.4859020"><time>2020-10-31T11:34:29.430</time></trkpt><trkpt lat="55.6571330" lon="38.4857420"><time>2020-10-31T11:34:46.427</time></trkpt><trkpt lat="55.6571780" lon="38.4855800"><time>2020-10-31T11:35:13.433</time></trkpt><trkpt lat="55.6571970" lon="38.4853820"><time>2020-10-31T11:35:26.427</time></trkpt><trkpt lat="55.6572300" lon="38.4851680"><time>2020-10-31T11:35:40.403</time></trkpt><trkpt lat="55.6572750" lon="38.4849670"><time>2020-10-31T11:36:01.430</time></trkpt><trkpt lat="55.6573420" lon="38.4848320"><time>2020-10-31T11:36:17.427</time></trkpt><trkpt lat="55.6573570" lon="38.4846000"><time>2020-10-31T11:36:28.427</time></trkpt><trkpt lat="55.6573730" lon="38.4843770"><time>2020-10-31T11:36:39.427</time></trkpt><trkpt lat="55.6574080" lon="38.4841930"><time>2020-10-31T11:36:52.427</time></trkpt><trkpt lat="55.6574000" lon="38.4839780"><time>2020-10-31T11:37:06.427</time></trkpt><trkpt lat="55.6573700" lon="38.4839130"><time>2020-10-31T11:37:09.427</time></trkpt><trkpt lat="55.6573330" lon="38.4837580"><time>2020-10-31T11:37:16.427</time></trkpt><trkpt lat="55.6572880" lon="38.4836900"><time>2020-10-31T11:37:18.427</time></trkpt><trkpt lat="55.6572300" lon="38.4835300"><time>2020-10-31T11:37:24.427</time></trkpt><trkpt lat="55.6572070" lon="38.4833000"><time>2020-10-31T11:37:35.427</time></trkpt><trkpt lat="55.6571750" lon="38.4832400"><time>2020-10-31T11:37:38.427</time></trkpt><trkpt lat="55.6571480" lon="38.4830750"><time>2020-10-31T11:37:49.427</time></trkpt><trkpt lat="55.6571330" lon="38.4828680"><time>2020-10-31T11:37:57.427</time></trkpt><trkpt lat="55.6571180" lon="38.4826650"><time>2020-10-31T11:38:10.430</time></trkpt><trkpt lat="55.6571470" lon="38.4824670"><time>2020-10-31T11:38:22.427</time></trkpt><trkpt lat="55.6571600" lon="38.4822320"><time>2020-10-31T11:38:32.430</time></trkpt><trkpt lat="55.6571280" lon="38.4819850"><time>2020-10-31T11:38:46.427</time></trkpt><trkpt lat="55.6571280" lon="38.4817570"><time>2020-10-31T11:39:01.433</time></trkpt><trkpt lat="55.6571080" lon="38.4815120"><time>2020-10-31T11:39:21.430</time></trkpt><trkpt lat="55.6570630" lon="38.4814430"><time>2020-10-31T11:39:24.427</time></trkpt><trkpt lat="55.6570180" lon="38.4813020"><time>2020-10-31T11:39:39.413</time></trkpt><trkpt lat="55.6570250" lon="38.4811170"><time>2020-10-31T11:40:13.430</time></trkpt><trkpt lat="55.6570100" lon="38.4809230"><time>2020-10-31T11:40:31.427</time></trkpt><trkpt lat="55.6569420" lon="38.4808050"><time>2020-10-31T11:40:45.427</time></trkpt><trkpt lat="55.6568600" lon="38.4807000"><time>2020-10-31T11:41:16.427</time></trkpt><trkpt lat="55.6568030" lon="38.4805080"><time>2020-10-31T11:41:46.430</time></trkpt><trkpt lat="55.6567730" lon="38.4803230"><time>2020-10-31T11:41:58.427</time></trkpt><trkpt lat="55.6567500" lon="38.4801580"><time>2020-10-31T11:42:14.433</time></trkpt><trkpt lat="55.6567450" lon="38.4799500"><time>2020-10-31T11:42:25.427</time></trkpt><trkpt lat="55.6567450" lon="38.4797280"><time>2020-10-31T11:42:40.430</time></trkpt><trkpt lat="55.6567480" lon="38.4796330"><time>2020-10-31T11:42:44.427</time></trkpt><trkpt lat="55.6567230" lon="38.4794350"><time>2020-10-31T11:42:56.430</time></trkpt><trkpt lat="55.6566720" lon="38.4792170"><time>2020-10-31T11:43:07.430</time></trkpt><trkpt lat="55.6566180" lon="38.4790000"><time>2020-10-31T11:43:16.430</time></trkpt><trkpt lat="55.6566070" lon="38.4787780"><time>2020-10-31T11:43:30.427</time></trkpt><trkpt lat="55.6567020" lon="38.4786500"><time>2020-10-31T11:43:56.430</time></trkpt><trkpt lat="55.6568080" lon="38.4785420"><time>2020-10-31T11:44:12.433</time></trkpt><trkpt lat="55.6568930" lon="38.4784030"><time>2020-10-31T11:44:26.433</time></trkpt><trkpt lat="55.6569650" lon="38.4782020"><time>2020-10-31T11:44:37.433</time></trkpt><trkpt lat="55.6569950" lon="38.4781350"><time>2020-10-31T11:44:39.430</time></trkpt><trkpt lat="55.6570570" lon="38.4779380"><time>2020-10-31T11:44:46.430</time></trkpt><trkpt lat="55.6571150" lon="38.4777250"><time>2020-10-31T11:45:00.430</time></trkpt><trkpt lat="55.6571450" lon="38.4775300"><time>2020-10-31T11:45:12.427</time></trkpt><trkpt lat="55.6571170" lon="38.4773550"><time>2020-10-31T11:45:29.427</time></trkpt><trkpt lat="55.6571530" lon="38.4771670"><time>2020-10-31T11:45:49.387</time></trkpt><trkpt lat="55.6571820" lon="38.4769770"><time>2020-10-31T11:46:02.427</time></trkpt><trkpt lat="55.6571600" lon="38.4769070"><time>2020-10-31T11:46:05.427</time></trkpt><trkpt lat="55.6571270" lon="38.4767570"><time>2020-10-31T11:46:15.430</time></trkpt><trkpt lat="55.6570680" lon="38.4765670"><time>2020-10-31T11:46:31.427</time></trkpt><trkpt lat="55.6570450" lon="38.4763370"><time>2020-10-31T11:46:52.430</time></trkpt><trkpt lat="55.6570530" lon="38.4761300"><time>2020-10-31T11:47:06.427</time></trkpt><trkpt lat="55.6570800" lon="38.4759430"><time>2020-10-31T11:47:27.427</time></trkpt><trkpt lat="55.6571230" lon="38.4757950"><time>2020-10-31T11:47:45.427</time></trkpt><trkpt lat="55.6571380" lon="38.4755870"><time>2020-10-31T11:47:59.427</time></trkpt><trkpt lat="55.6571500" lon="38.4753600"><time>2020-10-31T11:48:11.427</time></trkpt><trkpt lat="55.6571920" lon="38.4751720"><time>2020-10-31T11:48:23.427</time></trkpt><trkpt lat="55.6572120" lon="38.4749670"><time>2020-10-31T11:48:34.427</time></trkpt><trkpt lat="55.6572220" lon="38.4748750"><time>2020-10-31T11:48:37.430</time></trkpt><trkpt lat="55.6572170" lon="38.4747070"><time>2020-10-31T11:48:45.430</time></trkpt><trkpt lat="55.6571870" lon="38.4745030"><time>2020-10-31T11:48:55.427</time></trkpt><trkpt lat="55.6571500" lon="38.4743030"><time>2020-10-31T11:49:07.427</time></trkpt><trkpt lat="55.6571280" lon="38.4742200"><time>2020-10-31T11:49:10.430</time></trkpt><trkpt lat="55.6570950" lon="38.4740500"><time>2020-10-31T11:49:17.427</time></trkpt><trkpt lat="55.6570850" lon="38.4739580"><time>2020-10-31T11:49:20.430</time></trkpt><trkpt lat="55.6570400" lon="38.4738070"><time>2020-10-31T11:49:32.430</time></trkpt><trkpt lat="55.6569920" lon="38.4735980"><time>2020-10-31T11:49:46.430</time></trkpt><trkpt lat="55.6569300" lon="38.4734930"><time>2020-10-31T11:49:49.427</time></trkpt><trkpt lat="55.6568830" lon="38.4734380"><time>2020-10-31T11:49:51.430</time></trkpt><trkpt lat="55.6568650" lon="38.4733520"><time>2020-10-31T11:50:04.430</time></trkpt><trkpt lat="55.6569150" lon="38.4731750"><time>2020-10-31T11:50:27.430</time></trkpt><trkpt lat="55.6569250" lon="38.4729730"><time>2020-10-31T11:50:43.427</time></trkpt><trkpt lat="55.6569870" lon="38.4728130"><time>2020-10-31T11:50:58.433</time></trkpt><trkpt lat="55.6570570" lon="38.4726380"><time>2020-10-31T11:51:17.430</time></trkpt><trkpt lat="55.6570930" lon="38.4724570"><time>2020-10-31T11:51:30.427</time></trkpt><trkpt lat="55.6571520" lon="38.4722870"><time>2020-10-31T11:51:44.430</time></trkpt><trkpt lat="55.6571830" lon="38.4720950"><time>2020-10-31T11:51:57.430</time></trkpt><trkpt lat="55.6572620" lon="38.4719370"><time>2020-10-31T11:52:14.427</time></trkpt><trkpt lat="55.6572880" lon="38.4717170"><time>2020-10-31T11:52:26.427</time></trkpt><trkpt lat="55.6572820" lon="38.4714770"><time>2020-10-31T11:52:41.427</time></trkpt><trkpt lat="55.6572120" lon="38.4712880"><time>2020-10-31T11:52:51.433</time></trkpt><trkpt lat="55.6571030" lon="38.4711420"><time>2020-10-31T11:53:04.427</time></trkpt><trkpt lat="55.6570270" lon="38.4711120"><time>2020-10-31T11:53:09.430</time></trkpt><trkpt lat="55.6569720" lon="38.4710850"><time>2020-10-31T11:53:11.427</time></trkpt><trkpt lat="55.6569220" lon="38.4710670"><time>2020-10-31T11:53:13.427</time></trkpt><trkpt lat="55.6568400" lon="38.4710230"><time>2020-10-31T11:53:18.430</time></trkpt><trkpt lat="55.6567570" lon="38.4710070"><time>2020-10-31T11:53:21.433</time></trkpt><trkpt lat="55.6567080" lon="38.4710170"><time>2020-10-31T11:53:23.430</time></trkpt><trkpt lat="55.6565970" lon="38.4710050"><time>2020-10-31T11:53:35.427</time></trkpt><trkpt lat="55.6564800" lon="38.4710150"><time>2020-10-31T11:53:51.430</time></trkpt><trkpt lat="55.6563600" lon="38.4710020"><time>2020-10-31T11:54:06.427</time></trkpt><trkpt lat="55.6562250" lon="38.4710170"><time>2020-10-31T11:54:16.430</time></trkpt><trkpt lat="55.6561600" lon="38.4710270"><time>2020-10-31T11:54:18.430</time></trkpt><trkpt lat="55.6560980" lon="38.4710320"><time>2020-10-31T11:54:20.430</time></trkpt><trkpt lat="55.6559720" lon="38.4710180"><time>2020-10-31T11:54:31.430</time></trkpt><trkpt lat="55.6558880" lon="38.4709780"><time>2020-10-31T11:54:36.430</time></trkpt><trkpt lat="55.6558400" lon="38.4709780"><time>2020-10-31T11:54:39.430</time></trkpt><trkpt lat="55.6557630" lon="38.4709920"><time>2020-10-31T11:54:46.427</time></trkpt><trkpt lat="55.6556930" lon="38.4710180"><time>2020-10-31T11:54:49.430</time></trkpt><trkpt lat="55.6555650" lon="38.4710370"><time>2020-10-31T11:55:07.433</time></trkpt><trkpt lat="55.6554380" lon="38.4709820"><time>2020-10-31T11:55:17.430</time></trkpt><trkpt lat="55.6553880" lon="38.4709700"><time>2020-10-31T11:55:20.433</time></trkpt><trkpt lat="55.6552570" lon="38.4709450"><time>2020-10-31T11:55:35.433</time></trkpt><trkpt lat="55.6552080" lon="38.4709720"><time>2020-10-31T11:55:39.433</time></trkpt><trkpt lat="55.6551600" lon="38.4709920"><time>2020-10-31T11:55:42.430</time></trkpt><trkpt lat="55.6550630" lon="38.4709970"><time>2020-10-31T11:55:48.430</time></trkpt><trkpt lat="55.6549970" lon="38.4709530"><time>2020-10-31T11:56:06.430</time></trkpt><trkpt lat="55.6550350" lon="38.4708880"><time>2020-10-31T11:56:12.430</time></trkpt><trkpt lat="55.6550850" lon="38.4707950"><time>2020-10-31T11:56:19.430</time></trkpt><trkpt lat="55.6551250" lon="38.4707330"><time>2020-10-31T11:56:22.427</time></trkpt><trkpt lat="55.6551520" lon="38.4706380"><time>2020-10-31T11:56:25.430</time></trkpt><trkpt lat="55.6551670" lon="38.4705600"><time>2020-10-31T11:56:29.427</time></trkpt><trkpt lat="55.6551750" lon="38.4704600"><time>2020-10-31T11:56:32.433</time></trkpt><trkpt lat="55.6552420" lon="38.4703070"><time>2020-10-31T11:56:41.430</time></trkpt><trkpt lat="55.6552450" lon="38.4702000"><time>2020-10-31T11:56:45.430</time></trkpt><trkpt lat="55.6552450" lon="38.4701080"><time>2020-10-31T11:56:48.430</time></trkpt><trkpt lat="55.6552650" lon="38.4700280"><time>2020-10-31T11:56:51.407</time></trkpt><trkpt lat="55.6553180" lon="38.4698470"><time>2020-10-31T11:57:00.430</time></trkpt><trkpt lat="55.6553370" lon="38.4697570"><time>2020-10-31T11:57:03.430</time></trkpt><trkpt lat="55.6553680" lon="38.4695830"><time>2020-10-31T11:57:09.433</time></trkpt><trkpt lat="55.6553970" lon="38.4695200"><time>2020-10-31T11:57:11.430</time></trkpt><trkpt lat="55.6554180" lon="38.4694380"><time>2020-10-31T11:57:14.430</time></trkpt><trkpt lat="55.6554370" lon="38.4693430"><time>2020-10-31T11:57:16.427</time></trkpt><trkpt lat="55.6554700" lon="38.4692520"><time>2020-10-31T11:57:18.430</time></trkpt><trkpt lat="55.6554700" lon="38.4691700"><time>2020-10-31T11:57:20.427</time></trkpt><trkpt lat="55.6554720" lon="38.4690820"><time>2020-10-31T11:57:22.430</time></trkpt><trkpt lat="55.6554950" lon="38.4688750"><time>2020-10-31T11:57:32.427</time></trkpt><trkpt lat="55.6555620" lon="38.4686450"><time>2020-10-31T11:57:41.427</time></trkpt><trkpt lat="55.6555420" lon="38.4684420"><time>2020-10-31T11:57:43.427</time></trkpt><trkpt lat="55.6555700" lon="38.4683780"><time>2020-10-31T11:57:46.430</time></trkpt><trkpt lat="55.6556380" lon="38.4683050"><time>2020-10-31T11:57:51.430</time></trkpt><trkpt lat="55.6556530" lon="38.4682180"><time>2020-10-31T11:57:53.427</time></trkpt><trkpt lat="55.6556720" lon="38.4681250"><time>2020-10-31T11:57:55.427</time></trkpt><trkpt lat="55.6557070" lon="38.4680650"><time>2020-10-31T11:57:59.430</time></trkpt><trkpt lat="55.6557850" lon="38.4679520"><time>2020-10-31T11:58:07.427</time></trkpt><trkpt lat="55.6558520" lon="38.4677650"><time>2020-10-31T11:58:15.433</time></trkpt><trkpt lat="55.6559180" lon="38.4676100"><time>2020-10-31T11:58:29.427</time></trkpt><trkpt lat="55.6560530" lon="38.4674880"><time>2020-10-31T11:58:39.413</time></trkpt><trkpt lat="55.6561120" lon="38.4674730"><time>2020-10-31T11:58:41.430</time></trkpt><trkpt lat="55.6561700" lon="38.4674880"><time>2020-10-31T11:58:42.430</time></trkpt><trkpt lat="55.6562420" lon="38.4674470"><time>2020-10-31T11:58:44.430</time></trkpt><trkpt lat="55.6563000" lon="38.4674200"><time>2020-10-31T11:58:46.427</time></trkpt><trkpt lat="55.6563580" lon="38.4673880"><time>2020-10-31T11:58:49.430</time></trkpt><trkpt lat="55.6565020" lon="38.4673000"><time>2020-10-31T11:59:03.430</time></trkpt><trkpt lat="55.6565520" lon="38.4673030"><time>2020-10-31T11:59:04.427</time></trkpt><trkpt lat="55.6566250" lon="38.4673020"><time>2020-10-31T11:59:06.427</time></trkpt><trkpt lat="55.6566880" lon="38.4672870"><time>2020-10-31T11:59:08.427</time></trkpt><trkpt lat="55.6567600" lon="38.4672750"><time>2020-10-31T11:59:10.430</time></trkpt><trkpt lat="55.6568230" lon="38.4672630"><time>2020-10-31T11:59:12.387</time></trkpt><trkpt lat="55.6568800" lon="38.4672480"><time>2020-10-31T11:59:14.430</time></trkpt><trkpt lat="55.6569300" lon="38.4672080"><time>2020-10-31T11:59:16.430</time></trkpt><trkpt lat="55.6569900" lon="38.4671570"><time>2020-10-31T11:59:19.430</time></trkpt><trkpt lat="55.6570400" lon="38.4671230"><time>2020-10-31T11:59:21.437</time></trkpt><trkpt lat="55.6570800" lon="38.4670850"><time>2020-10-31T11:59:23.430</time></trkpt><trkpt lat="55.6571320" lon="38.4669130"><time>2020-10-31T11:59:32.430</time></trkpt><trkpt lat="55.6571570" lon="38.4668420"><time>2020-10-31T11:59:35.430</time></trkpt><trkpt lat="55.6572300" lon="38.4667220"><time>2020-10-31T11:59:43.430</time></trkpt><trkpt lat="55.6572330" lon="38.4665300"><time>2020-10-31T11:59:58.430</time></trkpt><trkpt lat="55.6572820" lon="38.4664770"><time>2020-10-31T12:00:05.427</time></trkpt><trkpt lat="55.6572820" lon="38.4663750"><time>2020-10-31T12:00:08.430</time></trkpt><trkpt lat="55.6573350" lon="38.4662420"><time>2020-10-31T12:00:26.430</time></trkpt><trkpt lat="55.6573380" lon="38.4660670"><time>2020-10-31T12:00:47.430</time></trkpt><trkpt lat="55.6573520" lon="38.4658700"><time>2020-10-31T12:01:06.430</time></trkpt><trkpt lat="55.6573970" lon="38.4656730"><time>2020-10-31T12:01:24.430</time></trkpt><trkpt lat="55.6574720" lon="38.4655170"><time>2020-10-31T12:01:38.430</time></trkpt><trkpt lat="55.6575220" lon="38.4653320"><time>2020-10-31T12:01:50.433</time></trkpt><trkpt lat="55.6575230" lon="38.4651250"><time>2020-10-31T12:02:01.430</time></trkpt><trkpt lat="55.6575370" lon="38.4649080"><time>2020-10-31T12:02:16.430</time></trkpt><trkpt lat="55.6575420" lon="38.4647120"><time>2020-10-31T12:02:31.430</time></trkpt><trkpt lat="55.6575730" lon="38.4645230"><time>2020-10-31T12:02:54.430</time></trkpt><trkpt lat="55.6575800" lon="38.4644370"><time>2020-10-31T12:02:57.427</time></trkpt><trkpt lat="55.6576050" lon="38.4642650"><time>2020-10-31T12:03:06.430</time></trkpt><trkpt lat="55.6576120" lon="38.4640550"><time>2020-10-31T12:03:20.430</time></trkpt><trkpt lat="55.6576920" lon="38.4639230"><time>2020-10-31T12:03:37.433</time></trkpt><trkpt lat="55.6577270" lon="38.4638680"><time>2020-10-31T12:03:40.430</time></trkpt><trkpt lat="55.6577950" lon="38.4637500"><time>2020-10-31T12:03:50.430</time></trkpt><trkpt lat="55.6579020" lon="38.4636220"><time>2020-10-31T12:04:03.430</time></trkpt><trkpt lat="55.6579780" lon="38.4634670"><time>2020-10-31T12:04:20.433</time></trkpt><trkpt lat="55.6580970" lon="38.4634380"><time>2020-10-31T12:04:41.430</time></trkpt><trkpt lat="55.6581980" lon="38.4633750"><time>2020-10-31T12:04:58.433</time></trkpt><trkpt lat="55.6582970" lon="38.4632330"><time>2020-10-31T12:05:13.430</time></trkpt><trkpt lat="55.6583320" lon="38.4631480"><time>2020-10-31T12:05:17.430</time></trkpt><trkpt lat="55.6584050" lon="38.4629520"><time>2020-10-31T12:05:36.433</time></trkpt><trkpt lat="55.6584820" lon="38.4627950"><time>2020-10-31T12:05:46.430</time></trkpt><trkpt lat="55.6585670" lon="38.4626530"><time>2020-10-31T12:05:59.430</time></trkpt><trkpt lat="55.6586470" lon="38.4625150"><time>2020-10-31T12:06:11.397</time></trkpt><trkpt lat="55.6587580" lon="38.4624400"><time>2020-10-31T12:06:29.430</time></trkpt><trkpt lat="55.6588350" lon="38.4622920"><time>2020-10-31T12:06:46.430</time></trkpt><trkpt lat="55.6588680" lon="38.4621030"><time>2020-10-31T12:07:00.433</time></trkpt><trkpt lat="55.6589100" lon="38.4619080"><time>2020-10-31T12:07:16.430</time></trkpt><trkpt lat="55.6589380" lon="38.4617020"><time>2020-10-31T12:07:37.433</time></trkpt><trkpt lat="55.6589950" lon="38.4615470"><time>2020-10-31T12:07:56.430</time></trkpt><trkpt lat="55.6590480" lon="38.4614120"><time>2020-10-31T12:08:19.433</time></trkpt><trkpt lat="55.6590850" lon="38.4612380"><time>2020-10-31T12:08:53.427</time></trkpt><trkpt lat="55.6591470" lon="38.4611070"><time>2020-10-31T12:09:16.430</time></trkpt><trkpt lat="55.6592170" lon="38.4609700"><time>2020-10-31T12:09:34.433</time></trkpt><trkpt lat="55.6592150" lon="38.4607600"><time>2020-10-31T12:10:05.430</time></trkpt><trkpt lat="55.6592330" lon="38.4605730"><time>2020-10-31T12:10:23.433</time></trkpt><trkpt lat="55.6593050" lon="38.4604150"><time>2020-10-31T12:10:42.420</time></trkpt><trkpt lat="55.6594100" lon="38.4603380"><time>2020-10-31T12:10:58.433</time></trkpt><trkpt lat="55.6595000" lon="38.4602750"><time>2020-10-31T12:11:24.433</time></trkpt><trkpt lat="55.6596100" lon="38.4602800"><time>2020-10-31T12:11:40.433</time></trkpt><trkpt lat="55.6597450" lon="38.4602630"><time>2020-10-31T12:11:56.433</time></trkpt><trkpt lat="55.6597730" lon="38.4600880"><time>2020-10-31T12:12:15.430</time></trkpt><trkpt lat="55.6598150" lon="38.4599270"><time>2020-10-31T12:12:30.433</time></trkpt><trkpt lat="55.6598270" lon="38.4597400"><time>2020-10-31T12:12:42.430</time></trkpt><trkpt lat="55.6597350" lon="38.4596180"><time>2020-10-31T12:13:03.430</time></trkpt><trkpt lat="55.6596470" lon="38.4594720"><time>2020-10-31T12:13:18.433</time></trkpt><trkpt lat="55.6595600" lon="38.4593350"><time>2020-10-31T12:13:30.433</time></trkpt><trkpt lat="55.6594820" lon="38.4591830"><time>2020-10-31T12:13:40.433</time></trkpt><trkpt lat="55.6593580" lon="38.4590620"><time>2020-10-31T12:13:52.433</time></trkpt><trkpt lat="55.6592480" lon="38.4589450"><time>2020-10-31T12:14:03.433</time></trkpt><trkpt lat="55.6591300" lon="38.4588300"><time>2020-10-31T12:14:24.430</time></trkpt><trkpt lat="55.6590250" lon="38.4587300"><time>2020-10-31T12:14:41.430</time></trkpt><trkpt lat="55.6589320" lon="38.4585930"><time>2020-10-31T12:14:53.433</time></trkpt><trkpt lat="55.6588780" lon="38.4583850"><time>2020-10-31T12:15:09.433</time></trkpt><trkpt lat="55.6588470" lon="38.4581680"><time>2020-10-31T12:15:28.430</time></trkpt><trkpt lat="55.6588200" lon="38.4579650"><time>2020-10-31T12:15:41.430</time></trkpt><trkpt lat="55.6587480" lon="38.4577850"><time>2020-10-31T12:15:51.433</time></trkpt><trkpt lat="55.6587270" lon="38.4575900"><time>2020-10-31T12:16:08.433</time></trkpt><trkpt lat="55.6587350" lon="38.4574850"><time>2020-10-31T12:16:13.437</time></trkpt><trkpt lat="55.6587480" lon="38.4573980"><time>2020-10-31T12:16:16.430</time></trkpt><trkpt lat="55.6588670" lon="38.4572880"><time>2020-10-31T12:16:35.430</time></trkpt><trkpt lat="55.6588880" lon="38.4572630"><time>2020-10-31T12:16:42.417</time></trkpt><trkpt lat="55.6588870" lon="38.4570980"><time>2020-10-31T12:16:44.390</time></trkpt><trkpt lat="55.6589200" lon="38.4570400"><time>2020-10-31T12:16:46.427</time></trkpt><trkpt lat="55.6589370" lon="38.4571570"><time>2020-10-31T12:16:48.427</time></trkpt><trkpt lat="55.6588680" lon="38.4571480"><time>2020-10-31T12:16:50.427</time></trkpt><trkpt lat="55.6589830" lon="38.4571630"><time>2020-10-31T12:16:58.393</time></trkpt><trkpt lat="55.6588900" lon="38.4572120"><time>2020-10-31T12:17:02.410</time></trkpt><trkpt lat="55.6587520" lon="38.4570850"><time>2020-10-31T12:17:03.393</time></trkpt><trkpt lat="55.6587050" lon="38.4569070"><time>2020-10-31T12:17:10.383</time></trkpt><trkpt lat="55.6586800" lon="38.4570300"><time>2020-10-31T12:17:13.383</time></trkpt><trkpt lat="55.6587650" lon="38.4569050"><time>2020-10-31T12:17:25.433</time></trkpt><trkpt lat="55.6588680" lon="38.4567930"><time>2020-10-31T12:17:37.433</time></trkpt><trkpt lat="55.6588570" lon="38.4565700"><time>2020-10-31T12:18:05.430</time></trkpt><trkpt lat="55.6588270" lon="38.4563350"><time>2020-10-31T12:18:18.433</time></trkpt><trkpt lat="55.6588370" lon="38.4561230"><time>2020-10-31T12:18:28.430</time></trkpt><trkpt lat="55.6588330" lon="38.4560350"><time>2020-10-31T12:18:30.433</time></trkpt><trkpt lat="55.6588470" lon="38.4558370"><time>2020-10-31T12:18:38.430</time></trkpt><trkpt lat="55.6588550" lon="38.4556080"><time>2020-10-31T12:18:49.437</time></trkpt><trkpt lat="55.6588550" lon="38.4553930"><time>2020-10-31T12:19:04.433</time></trkpt><trkpt lat="55.6588970" lon="38.4551700"><time>2020-10-31T12:19:16.430</time></trkpt><trkpt lat="55.6589930" lon="38.4550230"><time>2020-10-31T12:19:26.430</time></trkpt><trkpt lat="55.6590320" lon="38.4548150"><time>2020-10-31T12:19:44.433</time></trkpt><trkpt lat="55.6590020" lon="38.4546230"><time>2020-10-31T12:19:55.433</time></trkpt><trkpt lat="55.6590120" lon="38.4545270"><time>2020-10-31T12:19:58.437</time></trkpt><trkpt lat="55.6590000" lon="38.4544430"><time>2020-10-31T12:20:01.433</time></trkpt><trkpt lat="55.6589250" lon="38.4543650"><time>2020-10-31T12:20:09.433</time></trkpt><trkpt lat="55.6588730" lon="38.4543530"><time>2020-10-31T12:20:12.433</time></trkpt><trkpt lat="55.6588280" lon="38.4542980"><time>2020-10-31T12:20:16.433</time></trkpt><trkpt lat="55.6587830" lon="38.4542570"><time>2020-10-31T12:20:19.433</time></trkpt><trkpt lat="55.6587320" lon="38.4542100"><time>2020-10-31T12:20:22.430</time></trkpt><trkpt lat="55.6586830" lon="38.4541680"><time>2020-10-31T12:20:25.433</time></trkpt><trkpt lat="55.6586400" lon="38.4541370"><time>2020-10-31T12:20:27.433</time></trkpt><trkpt lat="55.6585970" lon="38.4541000"><time>2020-10-31T12:20:30.433</time></trkpt><trkpt lat="55.6585130" lon="38.4541380"><time>2020-10-31T12:20:40.433</time></trkpt><trkpt lat="55.6583980" lon="38.4540770"><time>2020-10-31T12:20:52.433</time></trkpt><trkpt lat="55.6583450" lon="38.4540970"><time>2020-10-31T12:20:54.433</time></trkpt><trkpt lat="55.6582970" lon="38.4540770"><time>2020-10-31T12:20:57.433</time></trkpt><trkpt lat="55.6581880" lon="38.4541200"><time>2020-10-31T12:21:07.433</time></trkpt><trkpt lat="55.6581320" lon="38.4541380"><time>2020-10-31T12:21:09.433</time></trkpt><trkpt lat="55.6580680" lon="38.4541450"><time>2020-10-31T12:21:11.433</time></trkpt><trkpt lat="55.6580200" lon="38.4541720"><time>2020-10-31T12:21:13.433</time></trkpt><trkpt lat="55.6579530" lon="38.4541720"><time>2020-10-31T12:21:15.430</time></trkpt><trkpt lat="55.6578950" lon="38.4541930"><time>2020-10-31T12:21:19.437</time></trkpt><trkpt lat="55.6578250" lon="38.4541980"><time>2020-10-31T12:21:21.437</time></trkpt><trkpt lat="55.6577650" lon="38.4542030"><time>2020-10-31T12:21:23.433</time></trkpt><trkpt lat="55.6577100" lon="38.4542030"><time>2020-10-31T12:21:25.433</time></trkpt><trkpt lat="55.6576530" lon="38.4542150"><time>2020-10-31T12:21:28.433</time></trkpt><trkpt lat="55.6575970" lon="38.4542350"><time>2020-10-31T12:21:31.433</time></trkpt><trkpt lat="55.6575020" lon="38.4542250"><time>2020-10-31T12:21:39.433</time></trkpt><trkpt lat="55.6574520" lon="38.4542200"><time>2020-10-31T12:21:41.433</time></trkpt><trkpt lat="55.6573830" lon="38.4542050"><time>2020-10-31T12:21:44.433</time></trkpt><trkpt lat="55.6573370" lon="38.4541930"><time>2020-10-31T12:21:47.433</time></trkpt><trkpt lat="55.6572230" lon="38.4542200"><time>2020-10-31T12:21:55.433</time></trkpt><trkpt lat="55.6571630" lon="38.4541970"><time>2020-10-31T12:21:58.433</time></trkpt><trkpt lat="55.6570300" lon="38.4541930"><time>2020-10-31T12:22:10.433</time></trkpt><trkpt lat="55.6569730" lon="38.4542070"><time>2020-10-31T12:22:13.433</time></trkpt><trkpt lat="55.6569250" lon="38.4542030"><time>2020-10-31T12:22:15.433</time></trkpt><trkpt lat="55.6568720" lon="38.4541870"><time>2020-10-31T12:22:17.433</time></trkpt><trkpt lat="55.6568130" lon="38.4542070"><time>2020-10-31T12:22:20.437</time></trkpt><trkpt lat="55.6567600" lon="38.4542480"><time>2020-10-31T12:22:23.433</time></trkpt><trkpt lat="55.6567130" lon="38.4542580"><time>2020-10-31T12:22:26.437</time></trkpt><trkpt lat="55.6566620" lon="38.4542500"><time>2020-10-31T12:22:28.433</time></trkpt><trkpt lat="55.6566130" lon="38.4542420"><time>2020-10-31T12:22:30.433</time></trkpt><trkpt lat="55.6565500" lon="38.4542700"><time>2020-10-31T12:22:32.433</time></trkpt><trkpt lat="55.6564930" lon="38.4542880"><time>2020-10-31T12:22:35.433</time></trkpt><trkpt lat="55.6563680" lon="38.4542980"><time>2020-10-31T12:22:48.433</time></trkpt><trkpt lat="55.6562730" lon="38.4543380"><time>2020-10-31T12:22:53.433</time></trkpt><trkpt lat="55.6562050" lon="38.4543650"><time>2020-10-31T12:22:55.433</time></trkpt><trkpt lat="55.6561380" lon="38.4543680"><time>2020-10-31T12:22:57.433</time></trkpt><trkpt lat="55.6560800" lon="38.4543630"><time>2020-10-31T12:22:59.437</time></trkpt><trkpt lat="55.6559580" lon="38.4542100"><time>2020-10-31T12:23:10.433</time></trkpt><trkpt lat="55.6559030" lon="38.4542220"><time>2020-10-31T12:23:12.437</time></trkpt><trkpt lat="55.6558450" lon="38.4541900"><time>2020-10-31T12:23:15.430</time></trkpt><trkpt lat="55.6557980" lon="38.4541930"><time>2020-10-31T12:23:18.433</time></trkpt><trkpt lat="55.6557500" lon="38.4542070"><time>2020-10-31T12:23:20.433</time></trkpt><trkpt lat="55.6557030" lon="38.4542280"><time>2020-10-31T12:23:22.433</time></trkpt><trkpt lat="55.6556520" lon="38.4542170"><time>2020-10-31T12:23:25.433</time></trkpt><trkpt lat="55.6555570" lon="38.4542380"><time>2020-10-31T12:23:31.433</time></trkpt><trkpt lat="55.6554920" lon="38.4542580"><time>2020-10-31T12:23:34.437</time></trkpt><trkpt lat="55.6554200" lon="38.4542920"><time>2020-10-31T12:23:39.433</time></trkpt><trkpt lat="55.6553470" lon="38.4542920"><time>2020-10-31T12:23:41.430</time></trkpt><trkpt lat="55.6552670" lon="38.4542920"><time>2020-10-31T12:23:43.430</time></trkpt><trkpt lat="55.6552170" lon="38.4542780"><time>2020-10-31T12:23:45.433</time></trkpt><trkpt lat="55.6551670" lon="38.4542880"><time>2020-10-31T12:23:47.433</time></trkpt><trkpt lat="55.6551080" lon="38.4542880"><time>2020-10-31T12:23:50</time></trkpt><trkpt lat="55.6550600" lon="38.4542780"><time>2020-10-31T12:23:53.433</time></trkpt><trkpt lat="55.6550000" lon="38.4542580"><time>2020-10-31T12:23:57.430</time></trkpt><trkpt lat="55.6549430" lon="38.4542750"><time>2020-10-31T12:24:00.433</time></trkpt><trkpt lat="55.6548980" lon="38.4542720"><time>2020-10-31T12:24:02.433</time></trkpt><trkpt lat="55.6547900" lon="38.4542630"><time>2020-10-31T12:24:10.437</time></trkpt><trkpt lat="55.6547330" lon="38.4542870"><time>2020-10-31T12:24:12.437</time></trkpt><trkpt lat="55.6546620" lon="38.4543100"><time>2020-10-31T12:24:15.423</time></trkpt><trkpt lat="55.6546170" lon="38.4542920"><time>2020-10-31T12:24:18.433</time></trkpt><trkpt lat="55.6545330" lon="38.4543100"><time>2020-10-31T12:24:21.433</time></trkpt><trkpt lat="55.6544930" lon="38.4542670"><time>2020-10-31T12:24:25.433</time></trkpt><trkpt lat="55.6544450" lon="38.4542670"><time>2020-10-31T12:24:27.433</time></trkpt><trkpt lat="55.6543620" lon="38.4542620"><time>2020-10-31T12:24:32.433</time></trkpt><trkpt lat="55.6543170" lon="38.4542580"><time>2020-10-31T12:24:35.433</time></trkpt><trkpt lat="55.6541950" lon="38.4542550"><time>2020-10-31T12:24:41.433</time></trkpt><trkpt lat="55.6541130" lon="38.4542570"><time>2020-10-31T12:24:43.437</time></trkpt><trkpt lat="55.6540420" lon="38.4542480"><time>2020-10-31T12:24:45.433</time></trkpt><trkpt lat="55.6539950" lon="38.4542520"><time>2020-10-31T12:24:47.430</time></trkpt><trkpt lat="55.6538900" lon="38.4543220"><time>2020-10-31T12:24:58.433</time></trkpt><trkpt lat="55.6537800" lon="38.4544430"><time>2020-10-31T12:25:12.437</time></trkpt><trkpt lat="55.6537220" lon="38.4544920"><time>2020-10-31T12:25:15.433</time></trkpt><trkpt lat="55.6535920" lon="38.4545180"><time>2020-10-31T12:25:21.433</time></trkpt><trkpt lat="55.6535180" lon="38.4545570"><time>2020-10-31T12:25:23.430</time></trkpt><trkpt lat="55.6534700" lon="38.4545570"><time>2020-10-31T12:25:26.433</time></trkpt><trkpt lat="55.6534250" lon="38.4545520"><time>2020-10-31T12:25:28.433</time></trkpt><trkpt lat="55.6532920" lon="38.4545400"><time>2020-10-31T12:25:36.437</time></trkpt><trkpt lat="55.6532470" lon="38.4545130"><time>2020-10-31T12:25:40.437</time></trkpt><trkpt lat="55.6531920" lon="38.4544600"><time>2020-10-31T12:25:44.433</time></trkpt><trkpt lat="55.6531350" lon="38.4544130"><time>2020-10-31T12:25:46.433</time></trkpt><trkpt lat="55.6530870" lon="38.4543920"><time>2020-10-31T12:25:48.437</time></trkpt><trkpt lat="55.6530420" lon="38.4543650"><time>2020-10-31T12:25:51.437</time></trkpt><trkpt lat="55.6529230" lon="38.4542950"><time>2020-10-31T12:26:00.433</time></trkpt><trkpt lat="55.6528730" lon="38.4542850"><time>2020-10-31T12:26:03.437</time></trkpt><trkpt lat="55.6527700" lon="38.4542650"><time>2020-10-31T12:26:11.433</time></trkpt><trkpt lat="55.6527070" lon="38.4543130"><time>2020-10-31T12:26:13.433</time></trkpt><trkpt lat="55.6526180" lon="38.4543230"><time>2020-10-31T12:26:16.440</time></trkpt><trkpt lat="55.6525730" lon="38.4543420"><time>2020-10-31T12:26:18.437</time></trkpt><trkpt lat="55.6525280" lon="38.4543750"><time>2020-10-31T12:26:20.433</time></trkpt><trkpt lat="55.6524780" lon="38.4544200"><time>2020-10-31T12:26:22.437</time></trkpt><trkpt lat="55.6524420" lon="38.4544680"><time>2020-10-31T12:26:25.437</time></trkpt><trkpt lat="55.6523520" lon="38.4545580"><time>2020-10-31T12:26:37.433</time></trkpt><trkpt lat="55.6522430" lon="38.4545730"><time>2020-10-31T12:26:45.437</time></trkpt><trkpt lat="55.6521350" lon="38.4544770"><time>2020-10-31T12:26:57.437</time></trkpt><trkpt lat="55.6520850" lon="38.4544420"><time>2020-10-31T12:27:00.437</time></trkpt><trkpt lat="55.6520370" lon="38.4544230"><time>2020-10-31T12:27:03.433</time></trkpt><trkpt lat="55.6519470" lon="38.4543750"><time>2020-10-31T12:27:10.433</time></trkpt><trkpt lat="55.6518250" lon="38.4543470"><time>2020-10-31T12:27:18.433</time></trkpt><trkpt lat="55.6517130" lon="38.4543220"><time>2020-10-31T12:27:27.437</time></trkpt><trkpt lat="55.6516570" lon="38.4543200"><time>2020-10-31T12:27:29.433</time></trkpt><trkpt lat="55.6516120" lon="38.4542900"><time>2020-10-31T12:27:31.440</time></trkpt><trkpt lat="55.6515670" lon="38.4542800"><time>2020-10-31T12:27:33.433</time></trkpt><trkpt lat="55.6514400" lon="38.4542650"><time>2020-10-31T12:27:41.433</time></trkpt><trkpt lat="55.6513920" lon="38.4542680"><time>2020-10-31T12:27:43.433</time></trkpt><trkpt lat="55.6512820" lon="38.4542820"><time>2020-10-31T12:27:54.437</time></trkpt><trkpt lat="55.6511670" lon="38.4543270"><time>2020-10-31T12:28:08.437</time></trkpt><trkpt lat="55.6511030" lon="38.4543380"><time>2020-10-31T12:28:10.437</time></trkpt><trkpt lat="55.6510570" lon="38.4543650"><time>2020-10-31T12:28:13.433</time></trkpt><trkpt lat="55.6509600" lon="38.4543230"><time>2020-10-31T12:28:29.433</time></trkpt><trkpt lat="55.6509150" lon="38.4542870"><time>2020-10-31T12:28:32.437</time></trkpt><trkpt lat="55.6508680" lon="38.4542850"><time>2020-10-31T12:28:34.437</time></trkpt><trkpt lat="55.6508150" lon="38.4542650"><time>2020-10-31T12:28:36.433</time></trkpt><trkpt lat="55.6507600" lon="38.4542720"><time>2020-10-31T12:28:39.437</time></trkpt><trkpt lat="55.6507050" lon="38.4542730"><time>2020-10-31T12:28:42.433</time></trkpt><trkpt lat="55.6506880" lon="38.4541720"><time>2020-10-31T12:28:59.433</time></trkpt><trkpt lat="55.6506930" lon="38.4540920"><time>2020-10-31T12:29:02.437</time></trkpt><trkpt lat="55.6506580" lon="38.4540030"><time>2020-10-31T12:29:05.433</time></trkpt><trkpt lat="55.6506420" lon="38.4539200"><time>2020-10-31T12:29:08.437</time></trkpt><trkpt lat="55.6506350" lon="38.4538130"><time>2020-10-31T12:29:12.433</time></trkpt><trkpt lat="55.6506230" lon="38.4537270"><time>2020-10-31T12:29:14.433</time></trkpt><trkpt lat="55.6506170" lon="38.4536470"><time>2020-10-31T12:29:16.433</time></trkpt><trkpt lat="55.6506120" lon="38.4535670"><time>2020-10-31T12:29:18.437</time></trkpt><trkpt lat="55.6506030" lon="38.4534780"><time>2020-10-31T12:29:21.433</time></trkpt><trkpt lat="55.6505950" lon="38.4534000"><time>2020-10-31T12:29:24.433</time></trkpt><trkpt lat="55.6505870" lon="38.4533080"><time>2020-10-31T12:29:27.437</time></trkpt><trkpt lat="55.6505770" lon="38.4532130"><time>2020-10-31T12:29:31.433</time></trkpt><trkpt lat="55.6505620" lon="38.4531080"><time>2020-10-31T12:29:35.433</time></trkpt><trkpt lat="55.6505550" lon="38.4530080"><time>2020-10-31T12:29:38.433</time></trkpt><trkpt lat="55.6505380" lon="38.4529020"><time>2020-10-31T12:29:41.437</time></trkpt><trkpt lat="55.6505300" lon="38.4528050"><time>2020-10-31T12:29:44.437</time></trkpt><trkpt lat="55.6505080" lon="38.4526930"><time>2020-10-31T12:29:47.433</time></trkpt><trkpt lat="55.6504880" lon="38.4525980"><time>2020-10-31T12:29:50.433</time></trkpt><trkpt lat="55.6504770" lon="38.4525030"><time>2020-10-31T12:29:52.437</time></trkpt><trkpt lat="55.6504720" lon="38.4524130"><time>2020-10-31T12:29:54.437</time></trkpt><trkpt lat="55.6504720" lon="38.4523280"><time>2020-10-31T12:29:56.433</time></trkpt><trkpt lat="55.6504630" lon="38.4522380"><time>2020-10-31T12:29:59.433</time></trkpt><trkpt lat="55.6504680" lon="38.4521230"><time>2020-10-31T12:30:02.437</time></trkpt><trkpt lat="55.6504720" lon="38.4520130"><time>2020-10-31T12:30:05.433</time></trkpt><trkpt lat="55.6504650" lon="38.4519250"><time>2020-10-31T12:30:08.437</time></trkpt><trkpt lat="55.6504770" lon="38.4518400"><time>2020-10-31T12:30:11.433</time></trkpt><trkpt lat="55.6504770" lon="38.4517350"><time>2020-10-31T12:30:15.433</time></trkpt><trkpt lat="55.6504650" lon="38.4516380"><time>2020-10-31T12:30:18.433</time></trkpt><trkpt lat="55.6504450" lon="38.4514120"><time>2020-10-31T12:30:28.437</time></trkpt><trkpt lat="55.6504480" lon="38.4511730"><time>2020-10-31T12:30:40.433</time></trkpt><trkpt lat="55.6504480" lon="38.4510780"><time>2020-10-31T12:30:43.433</time></trkpt><trkpt lat="55.6504420" lon="38.4508980"><time>2020-10-31T12:30:49.437</time></trkpt><trkpt lat="55.6504370" lon="38.4507950"><time>2020-10-31T12:30:52.433</time></trkpt><trkpt lat="55.6504530" lon="38.4505930"><time>2020-10-31T12:31:03.433</time></trkpt><trkpt lat="55.6504370" lon="38.4503730"><time>2020-10-31T12:31:12.437</time></trkpt><trkpt lat="55.6504570" lon="38.4501320"><time>2020-10-31T12:31:26.433</time></trkpt><trkpt lat="55.6504400" lon="38.4499080"><time>2020-10-31T12:31:34.437</time></trkpt><trkpt lat="55.6504320" lon="38.4498050"><time>2020-10-31T12:31:37.433</time></trkpt><trkpt lat="55.6504320" lon="38.4496430"><time>2020-10-31T12:31:43.433</time></trkpt><trkpt lat="55.6504600" lon="38.4494280"><time>2020-10-31T12:31:53.437</time></trkpt><trkpt lat="55.6504870" lon="38.4492070"><time>2020-10-31T12:32:02.437</time></trkpt><trkpt lat="55.6504820" lon="38.4490900"><time>2020-10-31T12:32:05.433</time></trkpt><trkpt lat="55.6504630" lon="38.4489980"><time>2020-10-31T12:32:08.433</time></trkpt><trkpt lat="55.6504730" lon="38.4487850"><time>2020-10-31T12:32:20.437</time></trkpt><trkpt lat="55.6504750" lon="38.4485420"><time>2020-10-31T12:32:33.433</time></trkpt><trkpt lat="55.6504620" lon="38.4482880"><time>2020-10-31T12:32:45.433</time></trkpt><trkpt lat="55.6504500" lon="38.4482070"><time>2020-10-31T12:32:48.430</time></trkpt><trkpt lat="55.6504200" lon="38.4480450"><time>2020-10-31T12:32:53.437</time></trkpt><trkpt lat="55.6503750" lon="38.4478180"><time>2020-10-31T12:33:00.437</time></trkpt><trkpt lat="55.6503750" lon="38.4477120"><time>2020-10-31T12:33:03.437</time></trkpt><trkpt lat="55.6503470" lon="38.4476030"><time>2020-10-31T12:33:06.437</time></trkpt><trkpt lat="55.6503580" lon="38.4475130"><time>2020-10-31T12:33:09.433</time></trkpt><trkpt lat="55.6503570" lon="38.4474250"><time>2020-10-31T12:33:13.433</time></trkpt><trkpt lat="55.6503620" lon="38.4472130"><time>2020-10-31T12:33:30.433</time></trkpt><trkpt lat="55.6504300" lon="38.4470030"><time>2020-10-31T12:33:40.437</time></trkpt><trkpt lat="55.6504480" lon="38.4467730"><time>2020-10-31T12:33:49.437</time></trkpt><trkpt lat="55.6504500" lon="38.4465450"><time>2020-10-31T12:34:01.437</time></trkpt><trkpt lat="55.6503980" lon="38.4463000"><time>2020-10-31T12:34:12.433</time></trkpt><trkpt lat="55.6503930" lon="38.4462080"><time>2020-10-31T12:34:15.437</time></trkpt><trkpt lat="55.6504000" lon="38.4460450"><time>2020-10-31T12:34:23.180</time></trkpt><trkpt lat="55.6504420" lon="38.4458170"><time>2020-10-31T12:34:34.433</time></trkpt><trkpt lat="55.6504450" lon="38.4456270"><time>2020-10-31T12:34:45.437</time></trkpt><trkpt lat="55.6504800" lon="38.4454050"><time>2020-10-31T12:34:58.437</time></trkpt><trkpt lat="55.6504620" lon="38.4453170"><time>2020-10-31T12:35:01.437</time></trkpt><trkpt lat="55.6504620" lon="38.4451550"><time>2020-10-31T12:35:08.437</time></trkpt><trkpt lat="55.6504450" lon="38.4450720"><time>2020-10-31T12:35:11.437</time></trkpt><trkpt lat="55.6504420" lon="38.4448850"><time>2020-10-31T12:35:17.437</time></trkpt><trkpt lat="55.6504300" lon="38.4448030"><time>2020-10-31T12:35:19.437</time></trkpt><trkpt lat="55.6504520" lon="38.4447000"><time>2020-10-31T12:35:23.437</time></trkpt><trkpt lat="55.6504470" lon="38.4445250"><time>2020-10-31T12:35:30.437</time></trkpt><trkpt lat="55.6504750" lon="38.4443020"><time>2020-10-31T12:35:41.437</time></trkpt><trkpt lat="55.6504770" lon="38.4441950"><time>2020-10-31T12:35:44.437</time></trkpt><trkpt lat="55.6504500" lon="38.4439480"><time>2020-10-31T12:35:53.433</time></trkpt><trkpt lat="55.6504350" lon="38.4438450"><time>2020-10-31T12:35:56.437</time></trkpt><trkpt lat="55.6504080" lon="38.4436570"><time>2020-10-31T12:36:04.437</time></trkpt><trkpt lat="55.6503930" lon="38.4435430"><time>2020-10-31T12:36:07.433</time></trkpt><trkpt lat="55.6503870" lon="38.4434380"><time>2020-10-31T12:36:10.437</time></trkpt><trkpt lat="55.6503670" lon="38.4433480"><time>2020-10-31T12:36:12.437</time></trkpt><trkpt lat="55.6503700" lon="38.4432680"><time>2020-10-31T12:36:14.437</time></trkpt><trkpt lat="55.6503570" lon="38.4431850"><time>2020-10-31T12:36:16.437</time></trkpt><trkpt lat="55.6503430" lon="38.4430980"><time>2020-10-31T12:36:18.437</time></trkpt><trkpt lat="55.6503450" lon="38.4430180"><time>2020-10-31T12:36:20.437</time></trkpt><trkpt lat="55.6503670" lon="38.4429430"><time>2020-10-31T12:36:24.437</time></trkpt><trkpt lat="55.6504100" lon="38.4428980"><time>2020-10-31T12:36:27.440</time></trkpt><trkpt lat="55.6504000" lon="38.4427020"><time>2020-10-31T12:36:41.433</time></trkpt><trkpt lat="55.6504000" lon="38.4424950"><time>2020-10-31T12:36:52.397</time></trkpt><trkpt lat="55.6503950" lon="38.4424050"><time>2020-10-31T12:36:55.437</time></trkpt><trkpt lat="55.6504070" lon="38.4422450"><time>2020-10-31T12:37:02.437</time></trkpt><trkpt lat="55.6504100" lon="38.4421600"><time>2020-10-31T12:37:05.437</time></trkpt><trkpt lat="55.6504250" lon="38.4419680"><time>2020-10-31T12:37:12.433</time></trkpt><trkpt lat="55.6503930" lon="38.4417330"><time>2020-10-31T12:37:21.437</time></trkpt><trkpt lat="55.6503700" lon="38.4416630"><time>2020-10-31T12:37:24.433</time></trkpt><trkpt lat="55.6503020" lon="38.4415350"><time>2020-10-31T12:37:32.433</time></trkpt><trkpt lat="55.6503270" lon="38.4413420"><time>2020-10-31T12:37:44.433</time></trkpt><trkpt lat="55.6502870" lon="38.4411430"><time>2020-10-31T12:37:55.437</time></trkpt><trkpt lat="55.6502580" lon="38.4410600"><time>2020-10-31T12:37:58.433</time></trkpt><trkpt lat="55.6502170" lon="38.4408900"><time>2020-10-31T12:38:05.433</time></trkpt><trkpt lat="55.6501320" lon="38.4406980"><time>2020-10-31T12:38:16.437</time></trkpt><trkpt lat="55.6500550" lon="38.4405120"><time>2020-10-31T12:38:26.437</time></trkpt><trkpt lat="55.6500170" lon="38.4404630"><time>2020-10-31T12:38:28.437</time></trkpt><trkpt lat="55.6499700" lon="38.4403600"><time>2020-10-31T12:38:31.437</time></trkpt><trkpt lat="55.6499520" lon="38.4402730"><time>2020-10-31T12:38:34.437</time></trkpt><trkpt lat="55.6499330" lon="38.4401330"><time>2020-10-31T12:38:38.437</time></trkpt><trkpt lat="55.6499430" lon="38.4400350"><time>2020-10-31T12:38:41.437</time></trkpt><trkpt lat="55.6499300" lon="38.4399450"><time>2020-10-31T12:38:44.433</time></trkpt><trkpt lat="55.6499200" lon="38.4398570"><time>2020-10-31T12:38:48.433</time></trkpt><trkpt lat="55.6498870" lon="38.4397370"><time>2020-10-31T12:38:56.437</time></trkpt><trkpt lat="55.6498430" lon="38.4396730"><time>2020-10-31T12:39:02.433</time></trkpt><trkpt lat="55.6497700" lon="38.4395130"><time>2020-10-31T12:39:12.437</time></trkpt><trkpt lat="55.6496780" lon="38.4393380"><time>2020-10-31T12:39:24.437</time></trkpt><trkpt lat="55.6495870" lon="38.4392030"><time>2020-10-31T12:39:37.437</time></trkpt><trkpt lat="55.6495130" lon="38.4391700"><time>2020-10-31T12:39:42.433</time></trkpt><trkpt lat="55.6493750" lon="38.4391280"><time>2020-10-31T12:39:53.437</time></trkpt><trkpt lat="55.6493230" lon="38.4391350"><time>2020-10-31T12:39:55.433</time></trkpt><trkpt lat="55.6492620" lon="38.4391450"><time>2020-10-31T12:39:57.437</time></trkpt><trkpt lat="55.6492080" lon="38.4391320"><time>2020-10-31T12:39:59.437</time></trkpt><trkpt lat="55.6491580" lon="38.4391030"><time>2020-10-31T12:40:03.437</time></trkpt><trkpt lat="55.6491100" lon="38.4391020"><time>2020-10-31T12:40:06.433</time></trkpt><trkpt lat="55.6490330" lon="38.4390870"><time>2020-10-31T12:40:12.437</time></trkpt><trkpt lat="55.6489870" lon="38.4390800"><time>2020-10-31T12:40:16.433</time></trkpt><trkpt lat="55.6489370" lon="38.4391020"><time>2020-10-31T12:40:19.437</time></trkpt><trkpt lat="55.6488600" lon="38.4391620"><time>2020-10-31T12:40:21.437</time></trkpt><trkpt lat="55.6488080" lon="38.4391420"><time>2020-10-31T12:40:24.437</time></trkpt><trkpt lat="55.6487870" lon="38.4390620"><time>2020-10-31T12:40:30.437</time></trkpt><trkpt lat="55.6487680" lon="38.4388980"><time>2020-10-31T12:40:41.433</time></trkpt><trkpt lat="55.6487430" lon="38.4388320"><time>2020-10-31T12:40:43.437</time></trkpt><trkpt lat="55.6486500" lon="38.4386850"><time>2020-10-31T12:40:54.433</time></trkpt><trkpt lat="55.6485500" lon="38.4385480"><time>2020-10-31T12:41:09.433</time></trkpt><trkpt lat="55.6484420" lon="38.4385050"><time>2020-10-31T12:41:19.437</time></trkpt><trkpt lat="55.6483850" lon="38.4385120"><time>2020-10-31T12:41:22.437</time></trkpt><trkpt lat="55.6483130" lon="38.4383970"><time>2020-10-31T12:41:29.437</time></trkpt><trkpt lat="55.6482480" lon="38.4382750"><time>2020-10-31T12:41:37.437</time></trkpt><trkpt lat="55.6482030" lon="38.4382450"><time>2020-10-31T12:41:39.437</time></trkpt><trkpt lat="55.6481250" lon="38.4382430"><time>2020-10-31T12:41:42.437</time></trkpt><trkpt lat="55.6480270" lon="38.4381230"><time>2020-10-31T12:41:53.437</time></trkpt><trkpt lat="55.6479970" lon="38.4379200"><time>2020-10-31T12:42:09.437</time></trkpt><trkpt lat="55.6480020" lon="38.4377050"><time>2020-10-31T12:42:22.437</time></trkpt><trkpt lat="55.6480900" lon="38.4375800"><time>2020-10-31T12:42:28.437</time></trkpt><trkpt lat="55.6481400" lon="38.4375130"><time>2020-10-31T12:42:30.433</time></trkpt><trkpt lat="55.6481620" lon="38.4373050"><time>2020-10-31T12:42:51.437</time></trkpt><trkpt lat="55.6482200" lon="38.4371750"><time>2020-10-31T12:43:27.437</time></trkpt><trkpt lat="55.6482600" lon="38.4370170"><time>2020-10-31T12:43:46.437</time></trkpt><trkpt lat="55.6483430" lon="38.4368500"><time>2020-10-31T12:43:58.437</time></trkpt><trkpt lat="55.6484070" lon="38.4366780"><time>2020-10-31T12:44:13.437</time></trkpt><trkpt lat="55.6484250" lon="38.4364770"><time>2020-10-31T12:44:26.437</time></trkpt><trkpt lat="55.6484030" lon="38.4363900"><time>2020-10-31T12:44:30.437</time></trkpt><trkpt lat="55.6483850" lon="38.4361620"><time>2020-10-31T12:44:42.437</time></trkpt><trkpt lat="55.6483770" lon="38.4359420"><time>2020-10-31T12:44:53.433</time></trkpt><trkpt lat="55.6483020" lon="38.4357430"><time>2020-10-31T12:45:04.437</time></trkpt><trkpt lat="55.6482130" lon="38.4355770"><time>2020-10-31T12:45:16.437</time></trkpt><trkpt lat="55.6481570" lon="38.4353850"><time>2020-10-31T12:45:31.437</time></trkpt><trkpt lat="55.6480980" lon="38.4352250"><time>2020-10-31T12:45:44.437</time></trkpt><trkpt lat="55.6480180" lon="38.4350380"><time>2020-10-31T12:45:54.437</time></trkpt><trkpt lat="55.6479350" lon="38.4348430"><time>2020-10-31T12:46:06.433</time></trkpt><trkpt lat="55.6478230" lon="38.4347150"><time>2020-10-31T12:46:19.437</time></trkpt><trkpt lat="55.6477350" lon="38.4345520"><time>2020-10-31T12:46:30.440</time></trkpt><trkpt lat="55.6476530" lon="38.4344070"><time>2020-10-31T12:46:43.437</time></trkpt><trkpt lat="55.6475700" lon="38.4342620"><time>2020-10-31T12:46:56.437</time></trkpt><trkpt lat="55.6474920" lon="38.4341050"><time>2020-10-31T12:47:03.437</time></trkpt><trkpt lat="55.6474550" lon="38.4340530"><time>2020-10-31T12:47:05.437</time></trkpt><trkpt lat="55.6474200" lon="38.4339900"><time>2020-10-31T12:47:08.440</time></trkpt><trkpt lat="55.6473800" lon="38.4339100"><time>2020-10-31T12:47:12.437</time></trkpt><trkpt lat="55.6473650" lon="38.4338330"><time>2020-10-31T12:47:16.437</time></trkpt><trkpt lat="55.6473750" lon="38.4336720"><time>2020-10-31T12:47:24.437</time></trkpt><trkpt lat="55.6474330" lon="38.4334600"><time>2020-10-31T12:47:36.500</time></trkpt><trkpt lat="55.6474420" lon="38.4333670"><time>2020-10-31T12:47:37.400</time></trkpt><trkpt lat="55.6473880" lon="38.4332880"><time>2020-10-31T12:47:40.393</time></trkpt><trkpt lat="55.6473520" lon="38.4332780"><time>2020-10-31T12:47:41.860</time></trkpt><trkpt lat="55.6473230" lon="38.4332800"><time>2020-10-31T12:47:42.397</time></trkpt><trkpt lat="55.6472520" lon="38.4332580"><time>2020-10-31T12:47:43.390</time></trkpt><trkpt lat="55.6471920" lon="38.4332670"><time>2020-10-31T12:47:45.437</time></trkpt><trkpt lat="55.6472250" lon="38.4333220"><time>2020-10-31T12:47:49.427</time></trkpt><trkpt lat="55.6472580" lon="38.4334850"><time>2020-10-31T12:48:26.437</time></trkpt><trkpt lat="55.6473380" lon="38.4336270"><time>2020-10-31T12:48:57.433</time></trkpt><trkpt lat="55.6472780" lon="38.4335320"><time>2020-10-31T12:49:50.437</time></trkpt><trkpt lat="55.6471700" lon="38.4334700"><time>2020-10-31T12:50:05.433</time></trkpt><trkpt lat="55.6471170" lon="38.4333000"><time>2020-10-31T12:50:20.437</time></trkpt><trkpt lat="55.6471120" lon="38.4331070"><time>2020-10-31T12:50:32.437</time></trkpt><trkpt lat="55.6470900" lon="38.4328900"><time>2020-10-31T12:50:47.437</time></trkpt><trkpt lat="55.6470080" lon="38.4327020"><time>2020-10-31T12:51:01.440</time></trkpt><trkpt lat="55.6469080" lon="38.4326120"><time>2020-10-31T12:51:12.437</time></trkpt><trkpt lat="55.6468530" lon="38.4325800"><time>2020-10-31T12:51:15.437</time></trkpt><trkpt lat="55.6467720" lon="38.4324820"><time>2020-10-31T12:51:26.437</time></trkpt><trkpt lat="55.6467170" lon="38.4324800"><time>2020-10-31T12:51:29.437</time></trkpt><trkpt lat="55.6466570" lon="38.4323930"><time>2020-10-31T12:51:31.437</time></trkpt><trkpt lat="55.6466070" lon="38.4323400"><time>2020-10-31T12:51:33.437</time></trkpt><trkpt lat="55.6465570" lon="38.4323050"><time>2020-10-31T12:51:36.437</time></trkpt><trkpt lat="55.6465070" lon="38.4322800"><time>2020-10-31T12:51:40.437</time></trkpt><trkpt lat="55.6464520" lon="38.4322700"><time>2020-10-31T12:51:44.437</time></trkpt><trkpt lat="55.6464080" lon="38.4322920"><time>2020-10-31T12:51:47.437</time></trkpt><trkpt lat="55.6463600" lon="38.4323280"><time>2020-10-31T12:51:49.440</time></trkpt><trkpt lat="55.6463170" lon="38.4323750"><time>2020-10-31T12:51:52.440</time></trkpt><trkpt lat="55.6462700" lon="38.4324350"><time>2020-10-31T12:51:54.437</time></trkpt><trkpt lat="55.6462320" lon="38.4325000"><time>2020-10-31T12:51:56.437</time></trkpt><trkpt lat="55.6462070" lon="38.4325700"><time>2020-10-31T12:51:58.433</time></trkpt><trkpt lat="55.6461830" lon="38.4326400"><time>2020-10-31T12:52:00.440</time></trkpt><trkpt lat="55.6461530" lon="38.4327170"><time>2020-10-31T12:52:03.437</time></trkpt><trkpt lat="55.6461080" lon="38.4327950"><time>2020-10-31T12:52:07.440</time></trkpt><trkpt lat="55.6460580" lon="38.4328530"><time>2020-10-31T12:52:11.437</time></trkpt><trkpt lat="55.6460220" lon="38.4329120"><time>2020-10-31T12:52:14.440</time></trkpt><trkpt lat="55.6459730" lon="38.4329430"><time>2020-10-31T12:52:17.437</time></trkpt><trkpt lat="55.6458850" lon="38.4330800"><time>2020-10-31T12:52:26.440</time></trkpt><trkpt lat="55.6458450" lon="38.4331500"><time>2020-10-31T12:52:28.440</time></trkpt><trkpt lat="55.6458050" lon="38.4331920"><time>2020-10-31T12:52:30.440</time></trkpt><trkpt lat="55.6457530" lon="38.4332480"><time>2020-10-31T12:52:33.440</time></trkpt><trkpt lat="55.6457120" lon="38.4333070"><time>2020-10-31T12:52:36.437</time></trkpt><trkpt lat="55.6456730" lon="38.4333780"><time>2020-10-31T12:52:40.437</time></trkpt><trkpt lat="55.6456280" lon="38.4334230"><time>2020-10-31T12:52:43.440</time></trkpt><trkpt lat="55.6455820" lon="38.4334550"><time>2020-10-31T12:52:45.437</time></trkpt><trkpt lat="55.6455330" lon="38.4334930"><time>2020-10-31T12:52:48.437</time></trkpt><trkpt lat="55.6454300" lon="38.4335420"><time>2020-10-31T12:52:56.437</time></trkpt><trkpt lat="55.6453780" lon="38.4335770"><time>2020-10-31T12:52:59.437</time></trkpt><trkpt lat="55.6453250" lon="38.4336230"><time>2020-10-31T12:53:02.440</time></trkpt><trkpt lat="55.6452770" lon="38.4336880"><time>2020-10-31T12:53:06.437</time></trkpt><trkpt lat="55.6452330" lon="38.4337200"><time>2020-10-31T12:53:09.443</time></trkpt><trkpt lat="55.6451730" lon="38.4337630"><time>2020-10-31T12:53:11.440</time></trkpt><trkpt lat="55.6451150" lon="38.4337920"><time>2020-10-31T12:53:14.437</time></trkpt><trkpt lat="55.6450580" lon="38.4338530"><time>2020-10-31T12:53:17.437</time></trkpt><trkpt lat="55.6450020" lon="38.4338900"><time>2020-10-31T12:53:21.443</time></trkpt><trkpt lat="55.6449530" lon="38.4339250"><time>2020-10-31T12:53:24.437</time></trkpt><trkpt lat="55.6448930" lon="38.4339830"><time>2020-10-31T12:53:27.440</time></trkpt><trkpt lat="55.6447730" lon="38.4340400"><time>2020-10-31T12:53:38.440</time></trkpt><trkpt lat="55.6447270" lon="38.4340930"><time>2020-10-31T12:53:40.437</time></trkpt><trkpt lat="55.6446480" lon="38.4341280"><time>2020-10-31T12:53:42.437</time></trkpt><trkpt lat="55.6445780" lon="38.4341670"><time>2020-10-31T12:53:44.437</time></trkpt><trkpt lat="55.6445280" lon="38.4341930"><time>2020-10-31T12:53:47.440</time></trkpt><trkpt lat="55.6444700" lon="38.4342370"><time>2020-10-31T12:53:50.440</time></trkpt><trkpt lat="55.6444250" lon="38.4342520"><time>2020-10-31T12:53:52.440</time></trkpt><trkpt lat="55.6443830" lon="38.4342820"><time>2020-10-31T12:53:55.437</time></trkpt><trkpt lat="55.6442680" lon="38.4343750"><time>2020-10-31T12:54:02.437</time></trkpt><trkpt lat="55.6442050" lon="38.4344550"><time>2020-10-31T12:54:04.437</time></trkpt><trkpt lat="55.6441580" lon="38.4345280"><time>2020-10-31T12:54:06.437</time></trkpt><trkpt lat="55.6441150" lon="38.4346050"><time>2020-10-31T12:54:08.440</time></trkpt><trkpt lat="55.6440680" lon="38.4346780"><time>2020-10-31T12:54:10.437</time></trkpt><trkpt lat="55.6440350" lon="38.4347350"><time>2020-10-31T12:54:12.437</time></trkpt><trkpt lat="55.6439880" lon="38.4347970"><time>2020-10-31T12:54:14.437</time></trkpt><trkpt lat="55.6439600" lon="38.4348580"><time>2020-10-31T12:54:16.437</time></trkpt><trkpt lat="55.6439270" lon="38.4349350"><time>2020-10-31T12:54:19.440</time></trkpt><trkpt lat="55.6439020" lon="38.4350020"><time>2020-10-31T12:54:22.437</time></trkpt><trkpt lat="55.6438450" lon="38.4350950"><time>2020-10-31T12:54:29.437</time></trkpt><trkpt lat="55.6438100" lon="38.4351470"><time>2020-10-31T12:54:31.440</time></trkpt><trkpt lat="55.6437530" lon="38.4352080"><time>2020-10-31T12:54:34.437</time></trkpt><trkpt lat="55.6437030" lon="38.4352800"><time>2020-10-31T12:54:36.440</time></trkpt><trkpt lat="55.6436470" lon="38.4353550"><time>2020-10-31T12:54:38.437</time></trkpt><trkpt lat="55.6436020" lon="38.4354750"><time>2020-10-31T12:54:40.437</time></trkpt><trkpt lat="55.6435320" lon="38.4355170"><time>2020-10-31T12:54:42.437</time></trkpt><trkpt lat="55.6434830" lon="38.4356130"><time>2020-10-31T12:54:44.437</time></trkpt><trkpt lat="55.6434520" lon="38.4356830"><time>2020-10-31T12:54:46.437</time></trkpt><trkpt lat="55.6434130" lon="38.4357450"><time>2020-10-31T12:54:48.443</time></trkpt><trkpt lat="55.6434400" lon="38.4358180"><time>2020-10-31T12:55:02.440</time></trkpt><trkpt lat="55.6434530" lon="38.4359130"><time>2020-10-31T12:55:06.440</time></trkpt><trkpt lat="55.6434680" lon="38.4360020"><time>2020-10-31T12:55:10.437</time></trkpt><trkpt lat="55.6434880" lon="38.4360900"><time>2020-10-31T12:55:14.437</time></trkpt><trkpt lat="55.6434680" lon="38.4361750"><time>2020-10-31T12:55:18.437</time></trkpt><trkpt lat="55.6434450" lon="38.4362600"><time>2020-10-31T12:55:21.440</time></trkpt><trkpt lat="55.6434370" lon="38.4363500"><time>2020-10-31T12:55:27.443</time></trkpt><trkpt lat="55.6434770" lon="38.4363900"><time>2020-10-31T12:55:31.440</time></trkpt><trkpt lat="55.6434930" lon="38.4364670"><time>2020-10-31T12:55:37.440</time></trkpt><trkpt lat="55.6435130" lon="38.4365430"><time>2020-10-31T12:55:40.437</time></trkpt><trkpt lat="55.6435220" lon="38.4366300"><time>2020-10-31T12:55:43.440</time></trkpt><trkpt lat="55.6435520" lon="38.4367150"><time>2020-10-31T12:55:46.437</time></trkpt><trkpt lat="55.6436020" lon="38.4367800"><time>2020-10-31T12:55:49.437</time></trkpt><trkpt lat="55.6436520" lon="38.4368380"><time>2020-10-31T12:55:52.440</time></trkpt><trkpt lat="55.6436850" lon="38.4369280"><time>2020-10-31T12:55:55.440</time></trkpt><trkpt lat="55.6437200" lon="38.4370230"><time>2020-10-31T12:55:58.440</time></trkpt><trkpt lat="55.6437530" lon="38.4371120"><time>2020-10-31T12:56:01.440</time></trkpt><trkpt lat="55.6437820" lon="38.4371970"><time>2020-10-31T12:56:04.437</time></trkpt><trkpt lat="55.6438220" lon="38.4372700"><time>2020-10-31T12:56:07.440</time></trkpt><trkpt lat="55.6438670" lon="38.4373480"><time>2020-10-31T12:56:10.437</time></trkpt><trkpt lat="55.6439130" lon="38.4374300"><time>2020-10-31T12:56:13.440</time></trkpt><trkpt lat="55.6439320" lon="38.4375300"><time>2020-10-31T12:56:18.440</time></trkpt><trkpt lat="55.6439530" lon="38.4376570"><time>2020-10-31T12:56:21.437</time></trkpt><trkpt lat="55.6439670" lon="38.4377430"><time>2020-10-31T12:56:23.440</time></trkpt><trkpt lat="55.6439800" lon="38.4378230"><time>2020-10-31T12:56:25.440</time></trkpt><trkpt lat="55.6439970" lon="38.4379200"><time>2020-10-31T12:56:28.437</time></trkpt><trkpt lat="55.6440000" lon="38.4380020"><time>2020-10-31T12:56:30.440</time></trkpt><trkpt lat="55.6440100" lon="38.4381070"><time>2020-10-31T12:56:33.437</time></trkpt><trkpt lat="55.6440180" lon="38.4381900"><time>2020-10-31T12:56:36.437</time></trkpt><trkpt lat="55.6440570" lon="38.4383870"><time>2020-10-31T12:56:48.437</time></trkpt><trkpt lat="55.6440820" lon="38.4385800"><time>2020-10-31T12:56:56.437</time></trkpt><trkpt lat="55.6440900" lon="38.4387000"><time>2020-10-31T12:56:59.437</time></trkpt><trkpt lat="55.6440830" lon="38.4388120"><time>2020-10-31T12:57:02.440</time></trkpt><trkpt lat="55.6440870" lon="38.4389050"><time>2020-10-31T12:57:04.440</time></trkpt><trkpt lat="55.6440920" lon="38.4389900"><time>2020-10-31T12:57:06.440</time></trkpt><trkpt lat="55.6440930" lon="38.4391080"><time>2020-10-31T12:57:09.443</time></trkpt><trkpt lat="55.6440970" lon="38.4392070"><time>2020-10-31T12:57:11.437</time></trkpt><trkpt lat="55.6441120" lon="38.4392930"><time>2020-10-31T12:57:13.437</time></trkpt><trkpt lat="55.6441300" lon="38.4393970"><time>2020-10-31T12:57:15.440</time></trkpt><trkpt lat="55.6441430" lon="38.4395120"><time>2020-10-31T12:57:18.440</time></trkpt><trkpt lat="55.6441730" lon="38.4395950"><time>2020-10-31T12:57:21.440</time></trkpt><trkpt lat="55.6442170" lon="38.4396650"><time>2020-10-31T12:57:24.437</time></trkpt><trkpt lat="55.6442600" lon="38.4397350"><time>2020-10-31T12:57:27.433</time></trkpt><trkpt lat="55.6442920" lon="38.4398100"><time>2020-10-31T12:57:31.440</time></trkpt><trkpt lat="55.6443170" lon="38.4398870"><time>2020-10-31T12:57:34.440</time></trkpt><trkpt lat="55.6443480" lon="38.4399670"><time>2020-10-31T12:57:37.440</time></trkpt><trkpt lat="55.6443850" lon="38.4400820"><time>2020-10-31T12:57:40.440</time></trkpt><trkpt lat="55.6444070" lon="38.4401780"><time>2020-10-31T12:57:42.440</time></trkpt><trkpt lat="55.6444270" lon="38.4402580"><time>2020-10-31T12:57:44.437</time></trkpt><trkpt lat="55.6444720" lon="38.4403330"><time>2020-10-31T12:57:47.437</time></trkpt><trkpt lat="55.6445150" lon="38.4403950"><time>2020-10-31T12:57:50.437</time></trkpt><trkpt lat="55.6445470" lon="38.4404630"><time>2020-10-31T12:57:53.437</time></trkpt><trkpt lat="55.6445900" lon="38.4405350"><time>2020-10-31T12:57:56.437</time></trkpt><trkpt lat="55.6446220" lon="38.4406280"><time>2020-10-31T12:57:59.440</time></trkpt><trkpt lat="55.6446480" lon="38.4407250"><time>2020-10-31T12:58:02.440</time></trkpt><trkpt lat="55.6446720" lon="38.4408100"><time>2020-10-31T12:58:05.437</time></trkpt><trkpt lat="55.6446930" lon="38.4409100"><time>2020-10-31T12:58:08.437</time></trkpt><trkpt lat="55.6447170" lon="38.4409780"><time>2020-10-31T12:58:10.440</time></trkpt><trkpt lat="55.6447350" lon="38.4410620"><time>2020-10-31T12:58:12.440</time></trkpt><trkpt lat="55.6447520" lon="38.4411480"><time>2020-10-31T12:58:14.440</time></trkpt><trkpt lat="55.6447700" lon="38.4412280"><time>2020-10-31T12:58:16.437</time></trkpt><trkpt lat="55.6447880" lon="38.4413020"><time>2020-10-31T12:58:18.433</time></trkpt><trkpt lat="55.6448130" lon="38.4413870"><time>2020-10-31T12:58:20.440</time></trkpt><trkpt lat="55.6448270" lon="38.4414700"><time>2020-10-31T12:58:22.440</time></trkpt><trkpt lat="55.6448430" lon="38.4415580"><time>2020-10-31T12:58:24.443</time></trkpt><trkpt lat="55.6448770" lon="38.4416580"><time>2020-10-31T12:58:27.443</time></trkpt><trkpt lat="55.6449150" lon="38.4417230"><time>2020-10-31T12:58:30.440</time></trkpt><trkpt lat="55.6449300" lon="38.4417980"><time>2020-10-31T12:58:32.440</time></trkpt><trkpt lat="55.6449420" lon="38.4418780"><time>2020-10-31T12:58:34.437</time></trkpt><trkpt lat="55.6449520" lon="38.4419930"><time>2020-10-31T12:58:37.440</time></trkpt><trkpt lat="55.6449580" lon="38.4420820"><time>2020-10-31T12:58:39.440</time></trkpt><trkpt lat="55.6449550" lon="38.4421880"><time>2020-10-31T12:58:41.443</time></trkpt><trkpt lat="55.6449580" lon="38.4423030"><time>2020-10-31T12:58:43.440</time></trkpt><trkpt lat="55.6449700" lon="38.4424050"><time>2020-10-31T12:58:45.443</time></trkpt><trkpt lat="55.6449900" lon="38.4425000"><time>2020-10-31T12:58:47.440</time></trkpt><trkpt lat="55.6450170" lon="38.4425850"><time>2020-10-31T12:58:49.440</time></trkpt><trkpt lat="55.6450550" lon="38.4426420"><time>2020-10-31T12:58:51.440</time></trkpt><trkpt lat="55.6450970" lon="38.4426820"><time>2020-10-31T12:58:53.440</time></trkpt><trkpt lat="55.6451530" lon="38.4427400"><time>2020-10-31T12:58:56.437</time></trkpt><trkpt lat="55.6451930" lon="38.4427830"><time>2020-10-31T12:58:58.440</time></trkpt><trkpt lat="55.6452420" lon="38.4428630"><time>2020-10-31T12:59:01.440</time></trkpt><trkpt lat="55.6452920" lon="38.4429380"><time>2020-10-31T12:59:04.440</time></trkpt><trkpt lat="55.6453300" lon="38.4430120"><time>2020-10-31T12:59:07.440</time></trkpt><trkpt lat="55.6453480" lon="38.4430850"><time>2020-10-31T12:59:10.440</time></trkpt><trkpt lat="55.6453670" lon="38.4431670"><time>2020-10-31T12:59:12.440</time></trkpt><trkpt lat="55.6453850" lon="38.4432400"><time>2020-10-31T12:59:14.440</time></trkpt><trkpt lat="55.6454100" lon="38.4433150"><time>2020-10-31T12:59:16.437</time></trkpt><trkpt lat="55.6454300" lon="38.4433980"><time>2020-10-31T12:59:18.440</time></trkpt><trkpt lat="55.6454480" lon="38.4434880"><time>2020-10-31T12:59:20.440</time></trkpt><trkpt lat="55.6454630" lon="38.4435850"><time>2020-10-31T12:59:23.440</time></trkpt><trkpt lat="55.6454950" lon="38.4436770"><time>2020-10-31T12:59:26.443</time></trkpt><trkpt lat="55.6455200" lon="38.4437880"><time>2020-10-31T12:59:29.440</time></trkpt><trkpt lat="55.6455450" lon="38.4438620"><time>2020-10-31T12:59:31.440</time></trkpt><trkpt lat="55.6455630" lon="38.4439420"><time>2020-10-31T12:59:33.440</time></trkpt><trkpt lat="55.6456020" lon="38.4440150"><time>2020-10-31T12:59:35.440</time></trkpt><trkpt lat="55.6456320" lon="38.4440930"><time>2020-10-31T12:59:37.440</time></trkpt><trkpt lat="55.6456620" lon="38.4442030"><time>2020-10-31T12:59:40.440</time></trkpt><trkpt lat="55.6456820" lon="38.4442800"><time>2020-10-31T12:59:42.440</time></trkpt><trkpt lat="55.6456980" lon="38.4443750"><time>2020-10-31T12:59:45.437</time></trkpt><trkpt lat="55.6457130" lon="38.4444780"><time>2020-10-31T12:59:48.440</time></trkpt><trkpt lat="55.6457230" lon="38.4445580"><time>2020-10-31T12:59:50.443</time></trkpt><trkpt lat="55.6457480" lon="38.4446650"><time>2020-10-31T12:59:53.443</time></trkpt><trkpt lat="55.6457730" lon="38.4447330"><time>2020-10-31T12:59:55.417</time></trkpt><trkpt lat="55.6457970" lon="38.4448300"><time>2020-10-31T12:59:58.440</time></trkpt><trkpt lat="55.6458030" lon="38.4449450"><time>2020-10-31T13:00:01.440</time></trkpt><trkpt lat="55.6458070" lon="38.4450670"><time>2020-10-31T13:00:04.440</time></trkpt><trkpt lat="55.6458120" lon="38.4451480"><time>2020-10-31T13:00:06.440</time></trkpt><trkpt lat="55.6458170" lon="38.4452350"><time>2020-10-31T13:00:08.440</time></trkpt><trkpt lat="55.6458280" lon="38.4453400"><time>2020-10-31T13:00:11.440</time></trkpt><trkpt lat="55.6458500" lon="38.4454380"><time>2020-10-31T13:00:14.440</time></trkpt><trkpt lat="55.6458620" lon="38.4455320"><time>2020-10-31T13:00:17.443</time></trkpt><trkpt lat="55.6458680" lon="38.4456420"><time>2020-10-31T13:00:21.443</time></trkpt><trkpt lat="55.6458620" lon="38.4457420"><time>2020-10-31T13:00:24.440</time></trkpt><trkpt lat="55.6458470" lon="38.4458430"><time>2020-10-31T13:00:27.443</time></trkpt><trkpt lat="55.6458480" lon="38.4459400"><time>2020-10-31T13:00:30.443</time></trkpt><trkpt lat="55.6458570" lon="38.4460450"><time>2020-10-31T13:00:33.440</time></trkpt><trkpt lat="55.6458670" lon="38.4461250"><time>2020-10-31T13:00:35.440</time></trkpt><trkpt lat="55.6458870" lon="38.4461980"><time>2020-10-31T13:00:37.430</time></trkpt><trkpt lat="55.6459030" lon="38.4462800"><time>2020-10-31T13:00:39.440</time></trkpt><trkpt lat="55.6459100" lon="38.4463780"><time>2020-10-31T13:00:41.440</time></trkpt><trkpt lat="55.6459200" lon="38.4464800"><time>2020-10-31T13:00:43.440</time></trkpt><trkpt lat="55.6459350" lon="38.4465800"><time>2020-10-31T13:00:45.443</time></trkpt><trkpt lat="55.6459420" lon="38.4466800"><time>2020-10-31T13:00:47.440</time></trkpt><trkpt lat="55.6459480" lon="38.4467830"><time>2020-10-31T13:00:49.443</time></trkpt><trkpt lat="55.6459450" lon="38.4468730"><time>2020-10-31T13:00:51.440</time></trkpt><trkpt lat="55.6459380" lon="38.4469550"><time>2020-10-31T13:00:53.443</time></trkpt><trkpt lat="55.6459330" lon="38.4470350"><time>2020-10-31T13:00:55.440</time></trkpt><trkpt lat="55.6459320" lon="38.4471200"><time>2020-10-31T13:00:57.443</time></trkpt><trkpt lat="55.6459280" lon="38.4472050"><time>2020-10-31T13:00:59.440</time></trkpt><trkpt lat="55.6459470" lon="38.4473070"><time>2020-10-31T13:01:02.440</time></trkpt><trkpt lat="55.6459420" lon="38.4474200"><time>2020-10-31T13:01:05.440</time></trkpt><trkpt lat="55.6459480" lon="38.4475220"><time>2020-10-31T13:01:08.440</time></trkpt><trkpt lat="55.6459480" lon="38.4476280"><time>2020-10-31T13:01:11.443</time></trkpt><trkpt lat="55.6459580" lon="38.4477250"><time>2020-10-31T13:01:14.440</time></trkpt><trkpt lat="55.6459800" lon="38.4478280"><time>2020-10-31T13:01:17.410</time></trkpt><trkpt lat="55.6459850" lon="38.4479180"><time>2020-10-31T13:01:19.443</time></trkpt><trkpt lat="55.6459830" lon="38.4479980"><time>2020-10-31T13:01:21.443</time></trkpt><trkpt lat="55.6459970" lon="38.4481100"><time>2020-10-31T13:01:24.440</time></trkpt><trkpt lat="55.6460000" lon="38.4482170"><time>2020-10-31T13:01:27.440</time></trkpt><trkpt lat="55.6460020" lon="38.4483330"><time>2020-10-31T13:01:30.440</time></trkpt><trkpt lat="55.6460130" lon="38.4484200"><time>2020-10-31T13:01:32.440</time></trkpt><trkpt lat="55.6460230" lon="38.4485380"><time>2020-10-31T13:01:35.437</time></trkpt><trkpt lat="55.6460280" lon="38.4486200"><time>2020-10-31T13:01:37.440</time></trkpt><trkpt lat="55.6460470" lon="38.4486930"><time>2020-10-31T13:01:39.440</time></trkpt><trkpt lat="55.6460520" lon="38.4487830"><time>2020-10-31T13:01:41.440</time></trkpt><trkpt lat="55.6460620" lon="38.4488870"><time>2020-10-31T13:01:44.440</time></trkpt><trkpt lat="55.6460680" lon="38.4489900"><time>2020-10-31T13:01:47.443</time></trkpt><trkpt lat="55.6460680" lon="38.4490800"><time>2020-10-31T13:01:49.443</time></trkpt><trkpt lat="55.6460730" lon="38.4491880"><time>2020-10-31T13:01:52.440</time></trkpt><trkpt lat="55.6460880" lon="38.4492670"><time>2020-10-31T13:01:54.440</time></trkpt><trkpt lat="55.6460880" lon="38.4493830"><time>2020-10-31T13:01:57.443</time></trkpt><trkpt lat="55.6460920" lon="38.4494630"><time>2020-10-31T13:01:59.440</time></trkpt><trkpt lat="55.6461050" lon="38.4495580"><time>2020-10-31T13:02:01.440</time></trkpt><trkpt lat="55.6461120" lon="38.4496380"><time>2020-10-31T13:02:03.443</time></trkpt><trkpt lat="55.6461100" lon="38.4497370"><time>2020-10-31T13:02:05.440</time></trkpt><trkpt lat="55.6461070" lon="38.4498320"><time>2020-10-31T13:02:07.443</time></trkpt><trkpt lat="55.6461020" lon="38.4499270"><time>2020-10-31T13:02:09.440</time></trkpt><trkpt lat="55.6460820" lon="38.4499980"><time>2020-10-31T13:02:11.440</time></trkpt><trkpt lat="55.6460800" lon="38.4501070"><time>2020-10-31T13:02:14.440</time></trkpt><trkpt lat="55.6460650" lon="38.4502050"><time>2020-10-31T13:02:16.440</time></trkpt><trkpt lat="55.6460630" lon="38.4503080"><time>2020-10-31T13:02:18.440</time></trkpt><trkpt lat="55.6460800" lon="38.4504120"><time>2020-10-31T13:02:20.440</time></trkpt><trkpt lat="55.6460880" lon="38.4505120"><time>2020-10-31T13:02:22.440</time></trkpt><trkpt lat="55.6460880" lon="38.4506000"><time>2020-10-31T13:02:24.440</time></trkpt><trkpt lat="55.6460830" lon="38.4507150"><time>2020-10-31T13:02:27.440</time></trkpt><trkpt lat="55.6460480" lon="38.4507830"><time>2020-10-31T13:02:29.437</time></trkpt><trkpt lat="55.6460230" lon="38.4508520"><time>2020-10-31T13:02:31.443</time></trkpt><trkpt lat="55.6460120" lon="38.4509630"><time>2020-10-31T13:02:34.440</time></trkpt><trkpt lat="55.6459980" lon="38.4510430"><time>2020-10-31T13:02:36.437</time></trkpt><trkpt lat="55.6459730" lon="38.4511480"><time>2020-10-31T13:02:39.443</time></trkpt><trkpt lat="55.6459680" lon="38.4512420"><time>2020-10-31T13:02:41.440</time></trkpt><trkpt lat="55.6459680" lon="38.4513300"><time>2020-10-31T13:02:43.443</time></trkpt><trkpt lat="55.6459570" lon="38.4514180"><time>2020-10-31T13:02:45.440</time></trkpt><trkpt lat="55.6459580" lon="38.4515170"><time>2020-10-31T13:02:48.443</time></trkpt><trkpt lat="55.6459430" lon="38.4516330"><time>2020-10-31T13:02:51.443</time></trkpt><trkpt lat="55.6459350" lon="38.4517150"><time>2020-10-31T13:02:53.443</time></trkpt><trkpt lat="55.6459000" lon="38.4518000"><time>2020-10-31T13:02:55.443</time></trkpt><trkpt lat="55.6458830" lon="38.4518830"><time>2020-10-31T13:02:57.440</time></trkpt><trkpt lat="55.6458770" lon="38.4519950"><time>2020-10-31T13:03:00.440</time></trkpt><trkpt lat="55.6458570" lon="38.4521150"><time>2020-10-31T13:03:03.440</time></trkpt><trkpt lat="55.6458650" lon="38.4522100"><time>2020-10-31T13:03:06.440</time></trkpt><trkpt lat="55.6458620" lon="38.4522930"><time>2020-10-31T13:03:09.440</time></trkpt><trkpt lat="55.6458270" lon="38.4523830"><time>2020-10-31T13:03:12.440</time></trkpt><trkpt lat="55.6458100" lon="38.4524600"><time>2020-10-31T13:03:15.440</time></trkpt><trkpt lat="55.6457820" lon="38.4525680"><time>2020-10-31T13:03:18.440</time></trkpt><trkpt lat="55.6457580" lon="38.4526370"><time>2020-10-31T13:03:20.443</time></trkpt><trkpt lat="55.6457500" lon="38.4527400"><time>2020-10-31T13:03:23.440</time></trkpt><trkpt lat="55.6457270" lon="38.4528100"><time>2020-10-31T13:03:25.440</time></trkpt><trkpt lat="55.6457020" lon="38.4528950"><time>2020-10-31T13:03:27.443</time></trkpt><trkpt lat="55.6456830" lon="38.4529780"><time>2020-10-31T13:03:29.443</time></trkpt><trkpt lat="55.6456630" lon="38.4530670"><time>2020-10-31T13:03:31.443</time></trkpt><trkpt lat="55.6456380" lon="38.4531620"><time>2020-10-31T13:03:33.443</time></trkpt><trkpt lat="55.6456150" lon="38.4532430"><time>2020-10-31T13:03:35.440</time></trkpt><trkpt lat="55.6456030" lon="38.4533530"><time>2020-10-31T13:03:38.440</time></trkpt><trkpt lat="55.6456180" lon="38.4534380"><time>2020-10-31T13:03:42.440</time></trkpt><trkpt lat="55.6455700" lon="38.4535850"><time>2020-10-31T13:03:47.440</time></trkpt><trkpt lat="55.6455470" lon="38.4536750"><time>2020-10-31T13:03:49.443</time></trkpt><trkpt lat="55.6455220" lon="38.4537520"><time>2020-10-31T13:03:51.440</time></trkpt><trkpt lat="55.6455200" lon="38.4538430"><time>2020-10-31T13:03:54.443</time></trkpt><trkpt lat="55.6455120" lon="38.4539280"><time>2020-10-31T13:03:58.440</time></trkpt><trkpt lat="55.6455080" lon="38.4540350"><time>2020-10-31T13:04:01.440</time></trkpt><trkpt lat="55.6454920" lon="38.4541500"><time>2020-10-31T13:04:04.440</time></trkpt><trkpt lat="55.6454670" lon="38.4542520"><time>2020-10-31T13:04:07.440</time></trkpt><trkpt lat="55.6454370" lon="38.4543400"><time>2020-10-31T13:04:10.440</time></trkpt><trkpt lat="55.6454230" lon="38.4544280"><time>2020-10-31T13:04:12.440</time></trkpt><trkpt lat="55.6454430" lon="38.4547080"><time>2020-10-31T13:04:23.440</time></trkpt><trkpt lat="55.6454400" lon="38.4547970"><time>2020-10-31T13:04:25.443</time></trkpt><trkpt lat="55.6454250" lon="38.4548800"><time>2020-10-31T13:04:27.443</time></trkpt><trkpt lat="55.6454230" lon="38.4549820"><time>2020-10-31T13:04:30.440</time></trkpt><trkpt lat="55.6454580" lon="38.4551800"><time>2020-10-31T13:04:37.440</time></trkpt><trkpt lat="55.6454680" lon="38.4552580"><time>2020-10-31T13:04:39.440</time></trkpt><trkpt lat="55.6454620" lon="38.4554420"><time>2020-10-31T13:04:53.440</time></trkpt><trkpt lat="55.6453670" lon="38.4554920"><time>2020-10-31T13:05:39.440</time></trkpt><trkpt lat="55.6452730" lon="38.4556020"><time>2020-10-31T13:05:56.437</time></trkpt><trkpt lat="55.6451950" lon="38.4558080"><time>2020-10-31T13:06:21.443</time></trkpt><trkpt lat="55.6451730" lon="38.4560230"><time>2020-10-31T13:06:41.440</time></trkpt><trkpt lat="55.6451670" lon="38.4562230"><time>2020-10-31T13:07:13.440</time></trkpt><trkpt lat="55.6451500" lon="38.4563550"><time>2020-10-31T13:07:33.443</time></trkpt><trkpt lat="55.6450950" lon="38.4563370"><time>2020-10-31T13:07:35.440</time></trkpt><trkpt lat="55.6450900" lon="38.4564630"><time>2020-10-31T13:07:54.440</time></trkpt><trkpt lat="55.6451270" lon="38.4565280"><time>2020-10-31T13:07:59.440</time></trkpt><trkpt lat="55.6452250" lon="38.4566150"><time>2020-10-31T13:08:10.440</time></trkpt><trkpt lat="55.6452950" lon="38.4567600"><time>2020-10-31T13:08:25.440</time></trkpt><trkpt lat="55.6453170" lon="38.4569530"><time>2020-10-31T13:08:38.440</time></trkpt><trkpt lat="55.6453200" lon="38.4571400"><time>2020-10-31T13:08:56.443</time></trkpt><trkpt lat="55.6452930" lon="38.4573380"><time>2020-10-31T13:09:11.440</time></trkpt><trkpt lat="55.6452320" lon="38.4575000"><time>2020-10-31T13:09:24.440</time></trkpt><trkpt lat="55.6451780" lon="38.4576430"><time>2020-10-31T13:09:39.443</time></trkpt><trkpt lat="55.6451420" lon="38.4578470"><time>2020-10-31T13:09:53.440</time></trkpt><trkpt lat="55.6451220" lon="38.4580170"><time>2020-10-31T13:10:08.440</time></trkpt><trkpt lat="55.6450830" lon="38.4582050"><time>2020-10-31T13:10:23.440</time></trkpt><trkpt lat="55.6449920" lon="38.4583780"><time>2020-10-31T13:10:34.443</time></trkpt><trkpt lat="55.6449550" lon="38.4584450"><time>2020-10-31T13:10:36.443</time></trkpt><trkpt lat="55.6449230" lon="38.4585070"><time>2020-10-31T13:10:39.440</time></trkpt><trkpt lat="55.6448920" lon="38.4585780"><time>2020-10-31T13:10:42.443</time></trkpt><trkpt lat="55.6448450" lon="38.4585980"><time>2020-10-31T13:10:45.440</time></trkpt><trkpt lat="55.6448630" lon="38.4588070"><time>2020-10-31T13:11:05.437</time></trkpt><trkpt lat="55.6449270" lon="38.4590080"><time>2020-10-31T13:11:16.440</time></trkpt><trkpt lat="55.6449700" lon="38.4590300"><time>2020-10-31T13:11:19.450</time></trkpt><trkpt lat="55.6449170" lon="38.4591750"><time>2020-10-31T13:11:32.443</time></trkpt><trkpt lat="55.6448220" lon="38.4592650"><time>2020-10-31T13:11:40.443</time></trkpt><trkpt lat="55.6447820" lon="38.4593050"><time>2020-10-31T13:11:42.443</time></trkpt><trkpt lat="55.6448150" lon="38.4594870"><time>2020-10-31T13:12:01.447</time></trkpt><trkpt lat="55.6447420" lon="38.4596570"><time>2020-10-31T13:12:12.443</time></trkpt><trkpt lat="55.6447280" lon="38.4597430"><time>2020-10-31T13:12:15.440</time></trkpt><trkpt lat="55.6446780" lon="38.4598050"><time>2020-10-31T13:12:19.443</time></trkpt><trkpt lat="55.6445920" lon="38.4599480"><time>2020-10-31T13:12:29.440</time></trkpt><trkpt lat="55.6445230" lon="38.4601250"><time>2020-10-31T13:12:40.443</time></trkpt><trkpt lat="55.6445230" lon="38.4603420"><time>2020-10-31T13:12:51.440</time></trkpt><trkpt lat="55.6445950" lon="38.4605280"><time>2020-10-31T13:13:08.440</time></trkpt><trkpt lat="55.6445300" lon="38.4606920"><time>2020-10-31T13:13:22.443</time></trkpt><trkpt lat="55.6444320" lon="38.4608370"><time>2020-10-31T13:13:51.443</time></trkpt><trkpt lat="55.6443500" lon="38.4610150"><time>2020-10-31T13:14:02.443</time></trkpt><trkpt lat="55.6443100" lon="38.4611480"><time>2020-10-31T13:14:07.443</time></trkpt><trkpt lat="55.6442920" lon="38.4612470"><time>2020-10-31T13:14:09.440</time></trkpt><trkpt lat="55.6442900" lon="38.4613520"><time>2020-10-31T13:14:11.440</time></trkpt><trkpt lat="55.6442830" lon="38.4614320"><time>2020-10-31T13:14:13.443</time></trkpt><trkpt lat="55.6442780" lon="38.4615370"><time>2020-10-31T13:14:15.440</time></trkpt><trkpt lat="55.6442750" lon="38.4616300"><time>2020-10-31T13:14:17.440</time></trkpt><trkpt lat="55.6443450" lon="38.4618300"><time>2020-10-31T13:14:34.443</time></trkpt><trkpt lat="55.6443400" lon="38.4620170"><time>2020-10-31T13:14:49.447</time></trkpt><trkpt lat="55.6442520" lon="38.4621520"><time>2020-10-31T13:15:01.443</time></trkpt><trkpt lat="55.6442230" lon="38.4622300"><time>2020-10-31T13:15:04.440</time></trkpt><trkpt lat="55.6441830" lon="38.4623220"><time>2020-10-31T13:15:07.443</time></trkpt><trkpt lat="55.6441520" lon="38.4623870"><time>2020-10-31T13:15:09.447</time></trkpt><trkpt lat="55.6441180" lon="38.4624400"><time>2020-10-31T13:15:13.443</time></trkpt><trkpt lat="55.6441730" lon="38.4626170"><time>2020-10-31T13:15:34.440</time></trkpt><trkpt lat="55.6441830" lon="38.4628370"><time>2020-10-31T13:15:51.443</time></trkpt><trkpt lat="55.6441580" lon="38.4629030"><time>2020-10-31T13:15:54.447</time></trkpt><trkpt lat="55.6441700" lon="38.4630330"><time>2020-10-31T13:16:03.400</time></trkpt><trkpt lat="55.6441530" lon="38.4631350"><time>2020-10-31T13:16:04.417</time></trkpt><trkpt lat="55.6441320" lon="38.4633130"><time>2020-10-31T13:16:05.443</time></trkpt><trkpt lat="55.6441300" lon="38.4634350"><time>2020-10-31T13:16:06.400</time></trkpt><trkpt lat="55.6440650" lon="38.4635330"><time>2020-10-31T13:16:08.437</time></trkpt><trkpt lat="55.6440320" lon="38.4636120"><time>2020-10-31T13:16:09.443</time></trkpt><trkpt lat="55.6439870" lon="38.4637050"><time>2020-10-31T13:16:11.440</time></trkpt><trkpt lat="55.6439770" lon="38.4636200"><time>2020-10-31T13:16:20.443</time></trkpt><trkpt lat="55.6440120" lon="38.4637080"><time>2020-10-31T13:16:36.443</time></trkpt><trkpt lat="55.6440420" lon="38.4638970"><time>2020-10-31T13:16:55.447</time></trkpt><trkpt lat="55.6439950" lon="38.4639820"><time>2020-10-31T13:16:59.443</time></trkpt><trkpt lat="55.6439530" lon="38.4641530"><time>2020-10-31T13:17:08.447</time></trkpt><trkpt lat="55.6439230" lon="38.4643800"><time>2020-10-31T13:17:26.447</time></trkpt><trkpt lat="55.6438880" lon="38.4644880"><time>2020-10-31T13:17:33.447</time></trkpt><trkpt lat="55.6437830" lon="38.4646050"><time>2020-10-31T13:17:45.447</time></trkpt><trkpt lat="55.6437600" lon="38.4647970"><time>2020-10-31T13:18:00.447</time></trkpt><trkpt lat="55.6437120" lon="38.4649650"><time>2020-10-31T13:18:14.443</time></trkpt><trkpt lat="55.6436530" lon="38.4651480"><time>2020-10-31T13:18:27.447</time></trkpt><trkpt lat="55.6437120" lon="38.4652930"><time>2020-10-31T13:18:45.443</time></trkpt><trkpt lat="55.6437100" lon="38.4655080"><time>2020-10-31T13:18:59.440</time></trkpt><trkpt lat="55.6436680" lon="38.4657230"><time>2020-10-31T13:19:12.450</time></trkpt><trkpt lat="55.6436300" lon="38.4659180"><time>2020-10-31T13:19:36.443</time></trkpt><trkpt lat="55.6436250" lon="38.4661350"><time>2020-10-31T13:19:48.443</time></trkpt><trkpt lat="55.6435830" lon="38.4663370"><time>2020-10-31T13:20:03.443</time></trkpt><trkpt lat="55.6435750" lon="38.4665470"><time>2020-10-31T13:20:17.443</time></trkpt><trkpt lat="55.6435750" lon="38.4667650"><time>2020-10-31T13:20:27.447</time></trkpt><trkpt lat="55.6435250" lon="38.4669800"><time>2020-10-31T13:20:37.447</time></trkpt><trkpt lat="55.6435070" lon="38.4671980"><time>2020-10-31T13:20:50.443</time></trkpt><trkpt lat="55.6435200" lon="38.4673980"><time>2020-10-31T13:21:05.443</time></trkpt><trkpt lat="55.6436000" lon="38.4675600"><time>2020-10-31T13:21:17.447</time></trkpt><trkpt lat="55.6436980" lon="38.4676900"><time>2020-10-31T13:21:28.447</time></trkpt><trkpt lat="55.6438100" lon="38.4677800"><time>2020-10-31T13:21:46.443</time></trkpt><trkpt lat="55.6438530" lon="38.4679600"><time>2020-10-31T13:22:05.447</time></trkpt><trkpt lat="55.6439180" lon="38.4681180"><time>2020-10-31T13:22:30.447</time></trkpt><trkpt lat="55.6440150" lon="38.4681000"><time>2020-10-31T13:23:35.447</time></trkpt><trkpt lat="55.6439750" lon="38.4679420"><time>2020-10-31T13:24:04.447</time></trkpt><trkpt lat="55.6439000" lon="38.4678070"><time>2020-10-31T13:24:35.447</time></trkpt><trkpt lat="55.6438380" lon="38.4679530"><time>2020-10-31T13:25:33.443</time></trkpt><trkpt lat="55.6439380" lon="38.4680230"><time>2020-10-31T13:26:02.447</time></trkpt><trkpt lat="55.6439830" lon="38.4680000"><time>2020-10-31T13:26:05.443</time></trkpt><trkpt lat="55.6440970" lon="38.4680170"><time>2020-10-31T13:26:26.447</time></trkpt><trkpt lat="55.6441870" lon="38.4681120"><time>2020-10-31T13:26:40.447</time></trkpt><trkpt lat="55.6442830" lon="38.4682580"><time>2020-10-31T13:26:54.447</time></trkpt><trkpt lat="55.6443180" lon="38.4684400"><time>2020-10-31T13:27:18.447</time></trkpt><trkpt lat="55.6442750" lon="38.4686450"><time>2020-10-31T13:27:34.443</time></trkpt><trkpt lat="55.6442170" lon="38.4688480"><time>2020-10-31T13:27:44.447</time></trkpt><trkpt lat="55.6441920" lon="38.4689180"><time>2020-10-31T13:27:46.447</time></trkpt><trkpt lat="55.6441420" lon="38.4690730"><time>2020-10-31T13:28:01.447</time></trkpt><trkpt lat="55.6440450" lon="38.4691450"><time>2020-10-31T13:28:15.447</time></trkpt><trkpt lat="55.6439950" lon="38.4693100"><time>2020-10-31T13:28:26.447</time></trkpt><trkpt lat="55.6439750" lon="38.4693870"><time>2020-10-31T13:28:29.447</time></trkpt><trkpt lat="55.6439800" lon="38.4695820"><time>2020-10-31T13:28:42.447</time></trkpt><trkpt lat="55.6440030" lon="38.4697720"><time>2020-10-31T13:28:58.443</time></trkpt><trkpt lat="55.6440380" lon="38.4699680"><time>2020-10-31T13:29:15.447</time></trkpt><trkpt lat="55.6440570" lon="38.4702080"><time>2020-10-31T13:29:28.447</time></trkpt><trkpt lat="55.6441080" lon="38.4703880"><time>2020-10-31T13:29:49.447</time></trkpt><trkpt lat="55.6440630" lon="38.4705800"><time>2020-10-31T13:30:03.447</time></trkpt><trkpt lat="55.6440330" lon="38.4707930"><time>2020-10-31T13:30:13.447</time></trkpt><trkpt lat="55.6439720" lon="38.4709750"><time>2020-10-31T13:30:25.447</time></trkpt><trkpt lat="55.6439620" lon="38.4711570"><time>2020-10-31T13:30:35.443</time></trkpt><trkpt lat="55.6439520" lon="38.4712500"><time>2020-10-31T13:30:38.443</time></trkpt><trkpt lat="55.6440650" lon="38.4712320"><time>2020-10-31T13:30:53.450</time></trkpt><trkpt lat="55.6441850" lon="38.4712430"><time>2020-10-31T13:31:06.447</time></trkpt><trkpt lat="55.6442450" lon="38.4712850"><time>2020-10-31T13:31:09.450</time></trkpt><trkpt lat="55.6442920" lon="38.4712920"><time>2020-10-31T13:31:12.447</time></trkpt><trkpt lat="55.6443900" lon="38.4713500"><time>2020-10-31T13:31:22.450</time></trkpt><trkpt lat="55.6444380" lon="38.4713350"><time>2020-10-31T13:31:25.447</time></trkpt><trkpt lat="55.6445330" lon="38.4712450"><time>2020-10-31T13:31:33.453</time></trkpt><trkpt lat="55.6446700" lon="38.4712220"><time>2020-10-31T13:31:45.447</time></trkpt><trkpt lat="55.6447920" lon="38.4712430"><time>2020-10-31T13:31:51.447</time></trkpt><trkpt lat="55.6448480" lon="38.4712330"><time>2020-10-31T13:31:54.447</time></trkpt><trkpt lat="55.6448950" lon="38.4712330"><time>2020-10-31T13:31:57.450</time></trkpt><trkpt lat="55.6449380" lon="38.4712580"><time>2020-10-31T13:32:02.447</time></trkpt><trkpt lat="55.6449850" lon="38.4712430"><time>2020-10-31T13:32:06.447</time></trkpt><trkpt lat="55.6450980" lon="38.4712280"><time>2020-10-31T13:32:19.447</time></trkpt><trkpt lat="55.6452230" lon="38.4712120"><time>2020-10-31T13:32:39.447</time></trkpt><trkpt lat="55.6453320" lon="38.4711080"><time>2020-10-31T13:32:55.447</time></trkpt><trkpt lat="55.6454450" lon="38.4710350"><time>2020-10-31T13:33:12.447</time></trkpt><trkpt lat="55.6454950" lon="38.4710470"><time>2020-10-31T13:33:15.447</time></trkpt><trkpt lat="55.6455930" lon="38.4710600"><time>2020-10-31T13:33:27.447</time></trkpt><trkpt lat="55.6457130" lon="38.4711100"><time>2020-10-31T13:33:38.447</time></trkpt><trkpt lat="55.6458380" lon="38.4711600"><time>2020-10-31T13:33:50.447</time></trkpt><trkpt lat="55.6459670" lon="38.4711120"><time>2020-10-31T13:33:59.447</time></trkpt><trkpt lat="55.6460220" lon="38.4711100"><time>2020-10-31T13:34:02.450</time></trkpt><trkpt lat="55.6460800" lon="38.4711200"><time>2020-10-31T13:34:05.447</time></trkpt><trkpt lat="55.6461250" lon="38.4711100"><time>2020-10-31T13:34:09.450</time></trkpt><trkpt lat="55.6462450" lon="38.4710680"><time>2020-10-31T13:34:23.447</time></trkpt><trkpt lat="55.6463750" lon="38.4710530"><time>2020-10-31T13:34:36.447</time></trkpt><trkpt lat="55.6465150" lon="38.4710700"><time>2020-10-31T13:34:46.447</time></trkpt><trkpt lat="55.6466020" lon="38.4710480"><time>2020-10-31T13:34:51.447</time></trkpt><trkpt lat="55.6466570" lon="38.4710420"><time>2020-10-31T13:34:53.447</time></trkpt><trkpt lat="55.6467120" lon="38.4710320"><time>2020-10-31T13:34:56.447</time></trkpt><trkpt lat="55.6467620" lon="38.4710130"><time>2020-10-31T13:35:01.447</time></trkpt><trkpt lat="55.6468100" lon="38.4709970"><time>2020-10-31T13:35:06.447</time></trkpt><trkpt lat="55.6468570" lon="38.4709820"><time>2020-10-31T13:35:08.447</time></trkpt><trkpt lat="55.6469070" lon="38.4709700"><time>2020-10-31T13:35:11.447</time></trkpt><trkpt lat="55.6469820" lon="38.4709450"><time>2020-10-31T13:35:19.447</time></trkpt><trkpt lat="55.6470980" lon="38.4708580"><time>2020-10-31T13:35:45.447</time></trkpt><trkpt lat="55.6471170" lon="38.4707750"><time>2020-10-31T13:35:48.447</time></trkpt><trkpt lat="55.6471350" lon="38.4706900"><time>2020-10-31T13:35:51.450</time></trkpt><trkpt lat="55.6471320" lon="38.4705780"><time>2020-10-31T13:35:56.450</time></trkpt><trkpt lat="55.6471300" lon="38.4703730"><time>2020-10-31T13:36:10.447</time></trkpt><trkpt lat="55.6471420" lon="38.4702780"><time>2020-10-31T13:36:13.450</time></trkpt><trkpt lat="55.6471050" lon="38.4701750"><time>2020-10-31T13:36:20.447</time></trkpt><trkpt lat="55.6470800" lon="38.4700870"><time>2020-10-31T13:36:23.447</time></trkpt><trkpt lat="55.6470420" lon="38.4699030"><time>2020-10-31T13:36:42.450</time></trkpt><trkpt lat="55.6470350" lon="38.4696950"><time>2020-10-31T13:36:55.447</time></trkpt><trkpt lat="55.6469750" lon="38.4695380"><time>2020-10-31T13:37:14.450</time></trkpt><trkpt lat="55.6468630" lon="38.4695630"><time>2020-10-31T13:37:33.447</time></trkpt><trkpt lat="55.6468070" lon="38.4695330"><time>2020-10-31T13:37:36.447</time></trkpt><trkpt lat="55.6468070" lon="38.4694520"><time>2020-10-31T13:37:40.447</time></trkpt><trkpt lat="55.6468030" lon="38.4692830"><time>2020-10-31T13:37:55.447</time></trkpt><trkpt lat="55.6467620" lon="38.4692100"><time>2020-10-31T13:38:00.447</time></trkpt><trkpt lat="55.6466720" lon="38.4690700"><time>2020-10-31T13:38:06.450</time></trkpt><trkpt lat="55.6466550" lon="38.4689770"><time>2020-10-31T13:38:09.447</time></trkpt><trkpt lat="55.6466950" lon="38.4688170"><time>2020-10-31T13:38:26.447</time></trkpt><trkpt lat="55.6467600" lon="38.4686500"><time>2020-10-31T13:38:46.450</time></trkpt><trkpt lat="55.6467070" lon="38.4685750"><time>2020-10-31T13:38:48.450</time></trkpt><trkpt lat="55.6466770" lon="38.4685120"><time>2020-10-31T13:38:51.450</time></trkpt><trkpt lat="55.6466130" lon="38.4683720"><time>2020-10-31T13:39:03.450</time></trkpt><trkpt lat="55.6465430" lon="38.4681800"><time>2020-10-31T13:39:15.447</time></trkpt><trkpt lat="55.6465300" lon="38.4681020"><time>2020-10-31T13:39:18.447</time></trkpt><trkpt lat="55.6465620" lon="38.4679080"><time>2020-10-31T13:39:34.447</time></trkpt><trkpt lat="55.6465970" lon="38.4676980"><time>2020-10-31T13:39:48.447</time></trkpt><trkpt lat="55.6466070" lon="38.4675880"><time>2020-10-31T13:39:50.447</time></trkpt><trkpt lat="55.6466570" lon="38.4674300"><time>2020-10-31T13:40:05.447</time></trkpt><trkpt lat="55.6466720" lon="38.4673280"><time>2020-10-31T13:40:14.450</time></trkpt><trkpt lat="55.6466900" lon="38.4672500"><time>2020-10-31T13:40:17.447</time></trkpt><trkpt lat="55.6467320" lon="38.4671030"><time>2020-10-31T13:40:26.447</time></trkpt><trkpt lat="55.6466480" lon="38.4670170"><time>2020-10-31T13:40:48.447</time></trkpt><trkpt lat="55.6466220" lon="38.4668270"><time>2020-10-31T13:41:08.447</time></trkpt><trkpt lat="55.6466500" lon="38.4666200"><time>2020-10-31T13:41:21.447</time></trkpt><trkpt lat="55.6467200" lon="38.4664480"><time>2020-10-31T13:41:37.450</time></trkpt><trkpt lat="55.6467280" lon="38.4662620"><time>2020-10-31T13:42:03.447</time></trkpt><trkpt lat="55.6467550" lon="38.4663600"><time>2020-10-31T13:42:20.447</time></trkpt><trkpt lat="55.6466720" lon="38.4665370"><time>2020-10-31T13:42:34.453</time></trkpt><trkpt lat="55.6466220" lon="38.4666080"><time>2020-10-31T13:42:37.453</time></trkpt><trkpt lat="55.6465650" lon="38.4667450"><time>2020-10-31T13:42:48.447</time></trkpt><trkpt lat="55.6464780" lon="38.4668550"><time>2020-10-31T13:43:35.447</time></trkpt><trkpt lat="55.6465800" lon="38.4670120"><time>2020-10-31T13:43:54.447</time></trkpt><trkpt lat="55.6464650" lon="38.4670650"><time>2020-10-31T13:44:07.447</time></trkpt><trkpt lat="55.6463520" lon="38.4669920"><time>2020-10-31T13:44:28.447</time></trkpt><trkpt lat="55.6462470" lon="38.4669170"><time>2020-10-31T13:44:42.447</time></trkpt><trkpt lat="55.6461230" lon="38.4669180"><time>2020-10-31T13:44:56.447</time></trkpt><trkpt lat="55.6460270" lon="38.4669850"><time>2020-10-31T13:45:09.450</time></trkpt><trkpt lat="55.6459670" lon="38.4671670"><time>2020-10-31T13:45:30.450</time></trkpt><trkpt lat="55.6458900" lon="38.4673020"><time>2020-10-31T13:45:41.450</time></trkpt><trkpt lat="55.6457800" lon="38.4673970"><time>2020-10-31T13:45:53.447</time></trkpt><trkpt lat="55.6457400" lon="38.4676220"><time>2020-10-31T13:46:10.447</time></trkpt><trkpt lat="55.6456230" lon="38.4676730"><time>2020-10-31T13:46:24.450</time></trkpt><trkpt lat="55.6455730" lon="38.4679020"><time>2020-10-31T13:46:40.447</time></trkpt><trkpt lat="55.6455430" lon="38.4680050"><time>2020-10-31T13:46:43.450</time></trkpt><trkpt lat="55.6455030" lon="38.4681480"><time>2020-10-31T13:46:47.447</time></trkpt><trkpt lat="55.6454500" lon="38.4682100"><time>2020-10-31T13:46:49.447</time></trkpt><trkpt lat="55.6454080" lon="38.4682580"><time>2020-10-31T13:46:50.447</time></trkpt><trkpt lat="55.6453700" lon="38.4683080"><time>2020-10-31T13:46:51.450</time></trkpt><trkpt lat="55.6453200" lon="38.4683780"><time>2020-10-31T13:46:53.427</time></trkpt><trkpt lat="55.6452830" lon="38.4684370"><time>2020-10-31T13:46:55.450</time></trkpt><trkpt lat="55.6452370" lon="38.4685170"><time>2020-10-31T13:46:57.447</time></trkpt><trkpt lat="55.6451900" lon="38.4685500"><time>2020-10-31T13:47:00.450</time></trkpt><trkpt lat="55.6451050" lon="38.4686350"><time>2020-10-31T13:47:08.447</time></trkpt><trkpt lat="55.6450020" lon="38.4686770"><time>2020-10-31T13:47:23.450</time></trkpt><trkpt lat="55.6449500" lon="38.4686550"><time>2020-10-31T13:47:25.450</time></trkpt><trkpt lat="55.6448880" lon="38.4685870"><time>2020-10-31T13:47:28.447</time></trkpt><trkpt lat="55.6447600" lon="38.4685550"><time>2020-10-31T13:47:51.450</time></trkpt><trkpt lat="55.6446430" lon="38.4685050"><time>2020-10-31T13:48:11.447</time></trkpt><trkpt lat="55.6445180" lon="38.4684170"><time>2020-10-31T13:48:24.447</time></trkpt><trkpt lat="55.6444130" lon="38.4683050"><time>2020-10-31T13:48:46.450</time></trkpt><trkpt lat="55.6443150" lon="38.4682700"><time>2020-10-31T13:49:09.457</time></trkpt><trkpt lat="55.6444420" lon="38.4682880"><time>2020-10-31T13:49:25.453</time></trkpt><trkpt lat="55.6443350" lon="38.4683050"><time>2020-10-31T13:49:42.447</time></trkpt><trkpt lat="55.6442170" lon="38.4682500"><time>2020-10-31T13:50:07.447</time></trkpt><trkpt lat="55.6441200" lon="38.4682120"><time>2020-10-31T13:51:01.450</time></trkpt><trkpt lat="55.6440000" lon="38.4681720"><time>2020-10-31T13:51:13.450</time></trkpt><trkpt lat="55.6438770" lon="38.4681770"><time>2020-10-31T13:51:32.450</time></trkpt><trkpt lat="55.6437900" lon="38.4682630"><time>2020-10-31T13:52:04.447</time></trkpt><trkpt lat="55.6437630" lon="38.4684580"><time>2020-10-31T13:52:19.450</time></trkpt><trkpt lat="55.6437430" lon="38.4686380"><time>2020-10-01T09:09:57.930</time></trkpt><trkpt lat="55.6436550" lon="38.4687530"><time>2020-10-31T13:52:52.450</time></trkpt><trkpt lat="55.6435370" lon="38.4687070"><time>2020-10-31T13:53:12.450</time></trkpt><trkpt lat="55.6434420" lon="38.4686730"><time>2020-10-31T13:54:24.450</time></trkpt><trkpt lat="55.6434200" lon="38.4684880"><time>2020-10-31T13:54:55.453</time></trkpt><trkpt lat="55.6435250" lon="38.4684780"><time>2020-10-31T13:55:18.450</time></trkpt><trkpt lat="55.6434770" lon="38.4684050"><time>2020-10-31T13:56:08.453</time></trkpt><trkpt lat="55.6434130" lon="38.4682270"><time>2020-10-31T13:57:26.420</time></trkpt><trkpt lat="55.6434170" lon="38.4680180"><time>2020-10-31T13:57:27.417</time></trkpt><trkpt lat="55.6434150" lon="38.4678480"><time>2020-10-31T13:57:28.410</time></trkpt><trkpt lat="55.6434150" lon="38.4678480"><time>2020-10-31T13:57:32.683</time></trkpt><trkpt lat="55.6433530" lon="38.4685120"><time>2020-10-31T13:57:38.447</time></trkpt><trkpt lat="55.6433250" lon="38.4683780"><time>2020-10-31T13:57:39.450</time></trkpt><trkpt lat="55.6433000" lon="38.4682380"><time>2020-10-31T13:57:40.443</time></trkpt><trkpt lat="55.6432800" lon="38.4681320"><time>2020-10-31T13:57:41.447</time></trkpt><trkpt lat="55.6432570" lon="38.4680420"><time>2020-10-31T13:57:42.447</time></trkpt><trkpt lat="55.6432750" lon="38.4679400"><time>2020-10-31T13:57:44.447</time></trkpt><trkpt lat="55.6433230" lon="38.4679850"><time>2020-10-31T13:57:45.450</time></trkpt><trkpt lat="55.6433720" lon="38.4679620"><time>2020-10-31T13:57:46.447</time></trkpt><trkpt lat="55.6434470" lon="38.4679800"><time>2020-10-31T13:57:47.447</time></trkpt><trkpt lat="55.6434480" lon="38.4680880"><time>2020-10-31T13:57:51.447</time></trkpt><trkpt lat="55.6434670" lon="38.4682000"><time>2020-10-31T13:57:59.447</time></trkpt><trkpt lat="55.6434530" lon="38.4683900"><time>2020-10-31T13:58:08.450</time></trkpt><trkpt lat="55.6435630" lon="38.4685330"><time>2020-10-31T13:58:23.453</time></trkpt><trkpt lat="55.6435180" lon="38.4687070"><time>2020-10-31T13:58:44.453</time></trkpt><trkpt lat="55.6435570" lon="38.4688600"><time>2020-10-31T13:59:08.450</time></trkpt><trkpt lat="55.6436600" lon="38.4689670"><time>2020-10-31T13:59:27.457</time></trkpt><trkpt lat="55.6437300" lon="38.4691700"><time>2020-10-31T13:59:42.453</time></trkpt><trkpt lat="55.6437830" lon="38.4693670"><time>2020-10-31T13:59:56.453</time></trkpt><trkpt lat="55.6437850" lon="38.4695530"><time>2020-10-31T14:00:09.453</time></trkpt><trkpt lat="55.6437850" lon="38.4697380"><time>2020-10-31T14:00:19.453</time></trkpt><trkpt lat="55.6437500" lon="38.4699620"><time>2020-10-31T14:00:29.453</time></trkpt><trkpt lat="55.6437680" lon="38.4701870"><time>2020-10-31T14:00:42.450</time></trkpt><trkpt lat="55.6437550" lon="38.4703930"><time>2020-10-31T14:00:54.453</time></trkpt><trkpt lat="55.6437200" lon="38.4705970"><time>2020-10-31T14:01:06.453</time></trkpt><trkpt lat="55.6437170" lon="38.4708230"><time>2020-10-31T14:01:17.453</time></trkpt><trkpt lat="55.6437220" lon="38.4709030"><time>2020-10-31T14:01:20.450</time></trkpt><trkpt lat="55.6437330" lon="38.4710650"><time>2020-10-31T14:01:29.450</time></trkpt><trkpt lat="55.6436980" lon="38.4712320"><time>2020-10-31T14:01:41.453</time></trkpt><trkpt lat="55.6437150" lon="38.4713380"><time>2020-10-31T14:01:47.450</time></trkpt><trkpt lat="55.6437620" lon="38.4713480"><time>2020-10-31T14:01:51.457</time></trkpt><trkpt lat="55.6438170" lon="38.4713400"><time>2020-10-31T14:01:55.450</time></trkpt><trkpt lat="55.6438620" lon="38.4713450"><time>2020-10-31T14:01:58.453</time></trkpt><trkpt lat="55.6439120" lon="38.4713550"><time>2020-10-31T14:02:02.457</time></trkpt><trkpt lat="55.6440250" lon="38.4713750"><time>2020-10-31T14:02:12.453</time></trkpt><trkpt lat="55.6440830" lon="38.4713970"><time>2020-10-31T14:02:15.453</time></trkpt><trkpt lat="55.6441380" lon="38.4714330"><time>2020-10-31T14:02:17.453</time></trkpt><trkpt lat="55.6441870" lon="38.4714630"><time>2020-10-31T14:02:19.453</time></trkpt><trkpt lat="55.6442480" lon="38.4714980"><time>2020-10-31T14:02:21.453</time></trkpt><trkpt lat="55.6443100" lon="38.4715300"><time>2020-10-31T14:02:24.450</time></trkpt><trkpt lat="55.6444270" lon="38.4715250"><time>2020-10-31T14:02:35.450</time></trkpt><trkpt lat="55.6445420" lon="38.4715150"><time>2020-10-31T14:02:40.453</time></trkpt><trkpt lat="55.6446080" lon="38.4715000"><time>2020-10-31T14:02:42.453</time></trkpt><trkpt lat="55.6446700" lon="38.4714820"><time>2020-10-31T14:02:44.450</time></trkpt><trkpt lat="55.6448030" lon="38.4714750"><time>2020-10-31T14:02:52.453</time></trkpt><trkpt lat="55.6448620" lon="38.4714830"><time>2020-10-31T14:02:54.453</time></trkpt><trkpt lat="55.6449300" lon="38.4714730"><time>2020-10-31T14:02:56.453</time></trkpt><trkpt lat="55.6449800" lon="38.4714220"><time>2020-10-31T14:02:58.450</time></trkpt><trkpt lat="55.6450900" lon="38.4713800"><time>2020-10-31T14:03:07.453</time></trkpt><trkpt lat="55.6451370" lon="38.4713730"><time>2020-10-31T14:03:09.453</time></trkpt><trkpt lat="55.6452130" lon="38.4713470"><time>2020-10-31T14:03:15.450</time></trkpt><trkpt lat="55.6452800" lon="38.4713100"><time>2020-10-31T14:03:18.453</time></trkpt><trkpt lat="55.6453250" lon="38.4713050"><time>2020-10-31T14:03:20.453</time></trkpt><trkpt lat="55.6453820" lon="38.4712970"><time>2020-10-31T14:03:23.450</time></trkpt><trkpt lat="55.6454320" lon="38.4712630"><time>2020-10-31T14:03:26.450</time></trkpt><trkpt lat="55.6454950" lon="38.4712530"><time>2020-10-31T14:03:29.453</time></trkpt><trkpt lat="55.6455450" lon="38.4712480"><time>2020-10-31T14:03:32.450</time></trkpt><trkpt lat="55.6455980" lon="38.4712570"><time>2020-10-31T14:03:35.453</time></trkpt><trkpt lat="55.6457120" lon="38.4712900"><time>2020-10-31T14:03:47.450</time></trkpt><trkpt lat="55.6458420" lon="38.4713030"><time>2020-10-31T14:03:56.450</time></trkpt><trkpt lat="55.6459830" lon="38.4713170"><time>2020-10-31T14:04:07.453</time></trkpt><trkpt lat="55.6460300" lon="38.4713150"><time>2020-10-31T14:04:10.453</time></trkpt><trkpt lat="55.6461280" lon="38.4713370"><time>2020-10-31T14:04:16.450</time></trkpt><trkpt lat="55.6461870" lon="38.4713380"><time>2020-10-31T14:04:19.453</time></trkpt><trkpt lat="55.6462650" lon="38.4713120"><time>2020-10-31T14:04:21.457</time></trkpt><trkpt lat="55.6463130" lon="38.4713020"><time>2020-10-31T14:04:22.453</time></trkpt><trkpt lat="55.6463800" lon="38.4712970"><time>2020-10-31T14:04:24.453</time></trkpt><trkpt lat="55.6464280" lon="38.4712880"><time>2020-10-31T14:04:26.453</time></trkpt><trkpt lat="55.6464770" lon="38.4712900"><time>2020-10-31T14:04:28.453</time></trkpt><trkpt lat="55.6465220" lon="38.4712880"><time>2020-10-31T14:04:30.457</time></trkpt><trkpt lat="55.6465700" lon="38.4712830"><time>2020-10-31T14:04:32.453</time></trkpt><trkpt lat="55.6466280" lon="38.4712670"><time>2020-10-31T14:04:35.453</time></trkpt><trkpt lat="55.6466880" lon="38.4712450"><time>2020-10-31T14:04:38.450</time></trkpt><trkpt lat="55.6467330" lon="38.4712330"><time>2020-10-31T14:04:40.457</time></trkpt><trkpt lat="55.6467920" lon="38.4712170"><time>2020-10-31T14:04:43.457</time></trkpt><trkpt lat="55.6468630" lon="38.4712230"><time>2020-10-31T14:04:46.453</time></trkpt><trkpt lat="55.6469150" lon="38.4712120"><time>2020-10-31T14:04:49.453</time></trkpt><trkpt lat="55.6469630" lon="38.4712170"><time>2020-10-31T14:04:52.457</time></trkpt><trkpt lat="55.6470730" lon="38.4712450"><time>2020-10-31T14:05:02.453</time></trkpt><trkpt lat="55.6472020" lon="38.4712570"><time>2020-10-31T14:05:12.450</time></trkpt><trkpt lat="55.6472520" lon="38.4712700"><time>2020-10-31T14:05:15.453</time></trkpt><trkpt lat="55.6473550" lon="38.4712750"><time>2020-10-31T14:05:22.450</time></trkpt><trkpt lat="55.6474970" lon="38.4712870"><time>2020-10-31T14:05:31.453</time></trkpt><trkpt lat="55.6476420" lon="38.4713150"><time>2020-10-31T14:05:40.457</time></trkpt><trkpt lat="55.6477000" lon="38.4713300"><time>2020-10-31T14:05:43.453</time></trkpt><trkpt lat="55.6478000" lon="38.4713270"><time>2020-10-31T14:05:49.457</time></trkpt><trkpt lat="55.6478450" lon="38.4713070"><time>2020-10-31T14:05:51.453</time></trkpt><trkpt lat="55.6479570" lon="38.4713150"><time>2020-10-31T14:05:57.453</time></trkpt><trkpt lat="55.6480050" lon="38.4713200"><time>2020-10-31T14:05:59.453</time></trkpt><trkpt lat="55.6480550" lon="38.4713230"><time>2020-10-31T14:06:00.453</time></trkpt><trkpt lat="55.6481370" lon="38.4713370"><time>2020-10-31T14:06:02.457</time></trkpt><trkpt lat="55.6481870" lon="38.4713220"><time>2020-10-31T14:06:04.457</time></trkpt><trkpt lat="55.6482430" lon="38.4713380"><time>2020-10-31T14:06:07.453</time></trkpt><trkpt lat="55.6483450" lon="38.4713230"><time>2020-10-31T14:06:13.453</time></trkpt><trkpt lat="55.6484280" lon="38.4712900"><time>2020-10-31T14:06:16.457</time></trkpt><trkpt lat="55.6484920" lon="38.4712770"><time>2020-10-31T14:06:18.450</time></trkpt><trkpt lat="55.6485580" lon="38.4712480"><time>2020-10-31T14:06:21.463</time></trkpt><trkpt lat="55.6486170" lon="38.4712320"><time>2020-10-31T14:06:23.457</time></trkpt><trkpt lat="55.6486750" lon="38.4712180"><time>2020-10-31T14:06:25.453</time></trkpt><trkpt lat="55.6487220" lon="38.4711970"><time>2020-10-31T14:06:27.453</time></trkpt><trkpt lat="55.6487780" lon="38.4712180"><time>2020-10-31T14:06:31.453</time></trkpt><trkpt lat="55.6489050" lon="38.4711730"><time>2020-10-31T14:06:42.453</time></trkpt><trkpt lat="55.6490420" lon="38.4712250"><time>2020-10-31T14:06:55.453</time></trkpt><trkpt lat="55.6491700" lon="38.4712650"><time>2020-10-31T14:07:04.457</time></trkpt><trkpt lat="55.6492950" lon="38.4712820"><time>2020-10-31T14:07:12.453</time></trkpt><trkpt lat="55.6493420" lon="38.4712680"><time>2020-10-31T14:07:15.453</time></trkpt><trkpt lat="55.6494330" lon="38.4712730"><time>2020-10-31T14:07:21.457</time></trkpt><trkpt lat="55.6495780" lon="38.4712530"><time>2020-10-31T14:07:32.457</time></trkpt><trkpt lat="55.6497150" lon="38.4712470"><time>2020-10-31T14:07:45.450</time></trkpt><trkpt lat="55.6498420" lon="38.4712370"><time>2020-10-31T14:07:54.453</time></trkpt><trkpt lat="55.6499700" lon="38.4712230"><time>2020-10-31T14:08:05.453</time></trkpt><trkpt lat="55.6500120" lon="38.4711920"><time>2020-10-31T14:08:07.453</time></trkpt><trkpt lat="55.6501230" lon="38.4711530"><time>2020-10-31T14:08:14.453</time></trkpt><trkpt lat="55.6501750" lon="38.4711250"><time>2020-10-31T14:08:17.453</time></trkpt><trkpt lat="55.6502720" lon="38.4711020"><time>2020-10-31T14:08:24.453</time></trkpt><trkpt lat="55.6503520" lon="38.4711580"><time>2020-10-31T14:08:31.453</time></trkpt><trkpt lat="55.6504100" lon="38.4712020"><time>2020-10-31T14:08:34.453</time></trkpt><trkpt lat="55.6504230" lon="38.4713120"><time>2020-10-31T14:08:41.453</time></trkpt><trkpt lat="55.6504370" lon="38.4713920"><time>2020-10-31T14:08:44.453</time></trkpt><trkpt lat="55.6504620" lon="38.4714780"><time>2020-10-31T14:08:47.453</time></trkpt><trkpt lat="55.6505200" lon="38.4716480"><time>2020-10-31T14:08:57.457</time></trkpt><trkpt lat="55.6505350" lon="38.4718880"><time>2020-10-31T14:09:10.457</time></trkpt><trkpt lat="55.6505400" lon="38.4721280"><time>2020-10-31T14:09:22.457</time></trkpt><trkpt lat="55.6504980" lon="38.4723100"><time>2020-10-31T14:09:29.453</time></trkpt><trkpt lat="55.6505050" lon="38.4724330"><time>2020-10-31T14:09:32.453</time></trkpt><trkpt lat="55.6505200" lon="38.4725700"><time>2020-10-31T14:09:34.453</time></trkpt><trkpt lat="55.6505320" lon="38.4726550"><time>2020-10-31T14:09:35.453</time></trkpt><trkpt lat="55.6505330" lon="38.4727900"><time>2020-10-31T14:09:37.453</time></trkpt><trkpt lat="55.6505230" lon="38.4728920"><time>2020-10-31T14:09:39.457</time></trkpt><trkpt lat="55.6505420" lon="38.4729870"><time>2020-10-31T14:09:41.453</time></trkpt><trkpt lat="55.6505680" lon="38.4731070"><time>2020-10-31T14:09:43.453</time></trkpt><trkpt lat="55.6505780" lon="38.4732180"><time>2020-10-31T14:09:45.453</time></trkpt><trkpt lat="55.6505820" lon="38.4733030"><time>2020-10-31T14:09:47.453</time></trkpt><trkpt lat="55.6505850" lon="38.4733980"><time>2020-10-31T14:09:50.457</time></trkpt><trkpt lat="55.6506020" lon="38.4734730"><time>2020-10-31T14:09:54.457</time></trkpt><trkpt lat="55.6506080" lon="38.4735780"><time>2020-10-31T14:10:00.453</time></trkpt><trkpt lat="55.6506070" lon="38.4736650"><time>2020-10-31T14:10:03.457</time></trkpt><trkpt lat="55.6505680" lon="38.4738150"><time>2020-10-31T14:10:12.457</time></trkpt><trkpt lat="55.6505680" lon="38.4739130"><time>2020-10-31T14:10:15.453</time></trkpt><trkpt lat="55.6505520" lon="38.4740370"><time>2020-10-31T14:10:17.453</time></trkpt><trkpt lat="55.6505080" lon="38.4742670"><time>2020-10-31T14:10:26.453</time></trkpt><trkpt lat="55.6505080" lon="38.4743530"><time>2020-10-31T14:10:28.453</time></trkpt><trkpt lat="55.6505000" lon="38.4745650"><time>2020-10-31T14:10:37.460</time></trkpt><trkpt lat="55.6505130" lon="38.4746520"><time>2020-10-31T14:10:39.457</time></trkpt><trkpt lat="55.6505280" lon="38.4747450"><time>2020-10-31T14:10:42.453</time></trkpt><trkpt lat="55.6505530" lon="38.4748650"><time>2020-10-31T14:10:44.453</time></trkpt><trkpt lat="55.6504800" lon="38.4749650"><time>2020-10-31T14:10:47.453</time></trkpt><trkpt lat="55.6504470" lon="38.4750580"><time>2020-10-31T14:10:49.457</time></trkpt><trkpt lat="55.6504630" lon="38.4752020"><time>2020-10-31T14:10:56.457</time></trkpt><trkpt lat="55.6504750" lon="38.4753020"><time>2020-10-31T14:10:59.457</time></trkpt><trkpt lat="55.6504730" lon="38.4754680"><time>2020-10-31T14:11:03.453</time></trkpt><trkpt lat="55.6504530" lon="38.4755480"><time>2020-10-31T14:11:06.457</time></trkpt><trkpt lat="55.6504570" lon="38.4757480"><time>2020-10-31T14:11:13.457</time></trkpt><trkpt lat="55.6504570" lon="38.4758430"><time>2020-10-31T14:11:15.453</time></trkpt><trkpt lat="55.6504900" lon="38.4761100"><time>2020-10-31T14:11:17.457</time></trkpt><trkpt lat="55.6505020" lon="38.4761920"><time>2020-10-31T14:11:18.453</time></trkpt><trkpt lat="55.6505150" lon="38.4763030"><time>2020-10-31T14:11:20.457</time></trkpt><trkpt lat="55.6505170" lon="38.4763870"><time>2020-10-31T14:11:22.457</time></trkpt><trkpt lat="55.6505120" lon="38.4765200"><time>2020-10-31T14:11:24.453</time></trkpt><trkpt lat="55.6505350" lon="38.4765970"><time>2020-10-31T14:11:26.453</time></trkpt><trkpt lat="55.6505500" lon="38.4766780"><time>2020-10-31T14:11:28.457</time></trkpt><trkpt lat="55.6505420" lon="38.4767580"><time>2020-10-31T14:11:31.453</time></trkpt><trkpt lat="55.6505430" lon="38.4769080"><time>2020-10-31T14:11:37.453</time></trkpt><trkpt lat="55.6505420" lon="38.4769900"><time>2020-10-31T14:11:41.453</time></trkpt><trkpt lat="55.6505270" lon="38.4770870"><time>2020-10-31T14:11:45.453</time></trkpt><trkpt lat="55.6505150" lon="38.4772020"><time>2020-10-31T14:11:47.453</time></trkpt><trkpt lat="55.6505130" lon="38.4773150"><time>2020-10-31T14:11:50.453</time></trkpt><trkpt lat="55.6505230" lon="38.4774150"><time>2020-10-31T14:11:52.453</time></trkpt><trkpt lat="55.6504950" lon="38.4775920"><time>2020-10-31T14:12:02.450</time></trkpt><trkpt lat="55.6504920" lon="38.4777000"><time>2020-10-31T14:12:06.457</time></trkpt><trkpt lat="55.6505030" lon="38.4777900"><time>2020-10-31T14:12:10.453</time></trkpt><trkpt lat="55.6505070" lon="38.4779050"><time>2020-10-31T14:12:13.453</time></trkpt><trkpt lat="55.6504980" lon="38.4780180"><time>2020-10-31T14:12:15.453</time></trkpt><trkpt lat="55.6504830" lon="38.4781180"><time>2020-10-31T14:12:18.453</time></trkpt><trkpt lat="55.6504800" lon="38.4782550"><time>2020-10-31T14:12:23.453</time></trkpt><trkpt lat="55.6504580" lon="38.4783270"><time>2020-10-31T14:12:25.450</time></trkpt><trkpt lat="55.6504330" lon="38.4785450"><time>2020-10-31T14:12:34.453</time></trkpt><trkpt lat="55.6504180" lon="38.4788020"><time>2020-10-31T14:12:48.453</time></trkpt><trkpt lat="55.6504800" lon="38.4790170"><time>2020-10-31T14:12:58.453</time></trkpt><trkpt lat="55.6504170" lon="38.4790520"><time>2020-10-31T14:13:14.453</time></trkpt><trkpt lat="55.6502800" lon="38.4790330"><time>2020-10-31T14:13:32.433</time></trkpt><trkpt lat="55.6502350" lon="38.4790300"><time>2020-10-31T14:13:34.453</time></trkpt><trkpt lat="55.6502250" lon="38.4791130"><time>2020-10-31T14:13:38.453</time></trkpt><trkpt lat="55.6502070" lon="38.4792080"><time>2020-10-31T14:13:41.453</time></trkpt><trkpt lat="55.6501600" lon="38.4794020"><time>2020-10-31T14:13:51.457</time></trkpt><trkpt lat="55.6501180" lon="38.4796000"><time>2020-10-31T14:14:00.453</time></trkpt><trkpt lat="55.6501200" lon="38.4796850"><time>2020-10-31T14:14:02.453</time></trkpt><trkpt lat="55.6501330" lon="38.4798050"><time>2020-10-31T14:14:05.453</time></trkpt><trkpt lat="55.6501280" lon="38.4799030"><time>2020-10-31T14:14:07.453</time></trkpt><trkpt lat="55.6501130" lon="38.4799830"><time>2020-10-31T14:14:09.453</time></trkpt><trkpt lat="55.6500820" lon="38.4800450"><time>2020-10-31T14:14:11.453</time></trkpt><trkpt lat="55.6500750" lon="38.4801320"><time>2020-10-31T14:14:14.457</time></trkpt><trkpt lat="55.6500980" lon="38.4802380"><time>2020-10-31T14:14:17.457</time></trkpt><trkpt lat="55.6500900" lon="38.4803300"><time>2020-10-31T14:14:20.453</time></trkpt><trkpt lat="55.6500850" lon="38.4805070"><time>2020-10-31T14:14:27.457</time></trkpt><trkpt lat="55.6500680" lon="38.4807320"><time>2020-10-31T14:14:36.453</time></trkpt><trkpt lat="55.6500750" lon="38.4808350"><time>2020-10-31T14:14:39.833</time></trkpt><trkpt lat="55.6500770" lon="38.4809270"><time>2020-10-31T14:14:41.453</time></trkpt><trkpt lat="55.6500720" lon="38.4810650"><time>2020-10-31T14:14:44.453</time></trkpt><trkpt lat="55.6500530" lon="38.4812530"><time>2020-10-31T14:14:50.453</time></trkpt><trkpt lat="55.6500500" lon="38.4813520"><time>2020-10-31T14:14:53.450</time></trkpt><trkpt lat="55.6500500" lon="38.4814730"><time>2020-10-31T14:14:55.453</time></trkpt><trkpt lat="55.6499950" lon="38.4815470"><time>2020-10-31T14:14:58.457</time></trkpt><trkpt lat="55.6499850" lon="38.4816300"><time>2020-10-31T14:15:01.457</time></trkpt><trkpt lat="55.6499680" lon="38.4818100"><time>2020-10-31T14:15:09.453</time></trkpt><trkpt lat="55.6499470" lon="38.4819470"><time>2020-10-31T14:15:14.457</time></trkpt><trkpt lat="55.6499230" lon="38.4820300"><time>2020-10-31T14:15:17.453</time></trkpt><trkpt lat="55.6499180" lon="38.4821720"><time>2020-10-31T14:15:19.453</time></trkpt><trkpt lat="55.6499070" lon="38.4823070"><time>2020-10-31T14:15:21.453</time></trkpt><trkpt lat="55.6499020" lon="38.4823870"><time>2020-10-31T14:15:23.453</time></trkpt><trkpt lat="55.6498550" lon="38.4825680"><time>2020-10-31T14:15:36.457</time></trkpt><trkpt lat="55.6498670" lon="38.4826880"><time>2020-10-31T14:15:37.453</time></trkpt><trkpt lat="55.6498600" lon="38.4828250"><time>2020-10-31T14:15:40.453</time></trkpt><trkpt lat="55.6498320" lon="38.4829070"><time>2020-10-31T14:15:43.453</time></trkpt><trkpt lat="55.6498320" lon="38.4830170"><time>2020-10-31T14:15:45.457</time></trkpt><trkpt lat="55.6498300" lon="38.4831330"><time>2020-10-31T14:15:47.457</time></trkpt><trkpt lat="55.6498320" lon="38.4832150"><time>2020-10-31T14:15:49.457</time></trkpt><trkpt lat="55.6498380" lon="38.4833320"><time>2020-10-31T14:15:52.450</time></trkpt><trkpt lat="55.6498480" lon="38.4834170"><time>2020-10-31T14:15:55.457</time></trkpt><trkpt lat="55.6498100" lon="38.4835100"><time>2020-10-31T14:15:58.453</time></trkpt><trkpt lat="55.6497900" lon="38.4835820"><time>2020-10-31T14:16:00.453</time></trkpt><trkpt lat="55.6497830" lon="38.4836850"><time>2020-10-31T14:16:03.453</time></trkpt><trkpt lat="55.6497470" lon="38.4837420"><time>2020-10-31T14:16:07.453</time></trkpt><trkpt lat="55.6497600" lon="38.4838630"><time>2020-10-31T14:16:09.453</time></trkpt><trkpt lat="55.6497500" lon="38.4839530"><time>2020-10-31T14:16:11.453</time></trkpt><trkpt lat="55.6496700" lon="38.4841250"><time>2020-10-31T14:16:19.453</time></trkpt><trkpt lat="55.6496580" lon="38.4842570"><time>2020-10-31T14:16:21.457</time></trkpt><trkpt lat="55.6496450" lon="38.4843830"><time>2020-10-31T14:16:23.453</time></trkpt><trkpt lat="55.6496480" lon="38.4844770"><time>2020-10-31T14:16:25.457</time></trkpt><trkpt lat="55.6496520" lon="38.4845900"><time>2020-10-31T14:16:27.457</time></trkpt><trkpt lat="55.6496570" lon="38.4846970"><time>2020-10-31T14:16:29.453</time></trkpt><trkpt lat="55.6496430" lon="38.4847970"><time>2020-10-31T14:16:32.453</time></trkpt><trkpt lat="55.6495800" lon="38.4848400"><time>2020-10-31T14:16:35.457</time></trkpt><trkpt lat="55.6495070" lon="38.4848620"><time>2020-10-31T14:16:38.457</time></trkpt><trkpt lat="55.6494650" lon="38.4849200"><time>2020-10-31T14:16:40.453</time></trkpt><trkpt lat="55.6494280" lon="38.4849750"><time>2020-10-31T14:16:42.453</time></trkpt><trkpt lat="55.6494150" lon="38.4850550"><time>2020-10-31T14:16:44.453</time></trkpt><trkpt lat="55.6493970" lon="38.4851280"><time>2020-10-31T14:16:47.457</time></trkpt><trkpt lat="55.6493550" lon="38.4852120"><time>2020-10-31T14:16:50.457</time></trkpt><trkpt lat="55.6493120" lon="38.4852800"><time>2020-10-31T14:16:53.453</time></trkpt><trkpt lat="55.6492650" lon="38.4853100"><time>2020-10-31T14:16:56.457</time></trkpt><trkpt lat="55.6492480" lon="38.4853950"><time>2020-10-31T14:16:58.453</time></trkpt><trkpt lat="55.6492450" lon="38.4855030"><time>2020-10-31T14:17:00.457</time></trkpt><trkpt lat="55.6492230" lon="38.4855770"><time>2020-10-31T14:17:02.453</time></trkpt><trkpt lat="55.6491950" lon="38.4856470"><time>2020-10-31T14:17:05.457</time></trkpt><trkpt lat="55.6491780" lon="38.4857250"><time>2020-10-31T14:17:08.457</time></trkpt><trkpt lat="55.6491550" lon="38.4857980"><time>2020-10-31T14:17:10.457</time></trkpt><trkpt lat="55.6490570" lon="38.4859320"><time>2020-10-31T14:17:20.453</time></trkpt><trkpt lat="55.6490500" lon="38.4861000"><time>2020-10-31T14:17:25.453</time></trkpt><trkpt lat="55.6490520" lon="38.4862430"><time>2020-10-31T14:17:27.447</time></trkpt><trkpt lat="55.6490620" lon="38.4863650"><time>2020-10-31T14:17:29.453</time></trkpt><trkpt lat="55.6490420" lon="38.4864530"><time>2020-10-31T14:17:32.457</time></trkpt><trkpt lat="55.6490330" lon="38.4865470"><time>2020-10-31T14:17:35.453</time></trkpt><trkpt lat="55.6489930" lon="38.4866470"><time>2020-10-31T14:17:38.453</time></trkpt><trkpt lat="55.6489630" lon="38.4867300"><time>2020-10-31T14:17:42.457</time></trkpt><trkpt lat="55.6489420" lon="38.4868480"><time>2020-10-31T14:17:47.453</time></trkpt><trkpt lat="55.6489300" lon="38.4869350"><time>2020-10-31T14:17:50.453</time></trkpt><trkpt lat="55.6489020" lon="38.4870320"><time>2020-10-31T14:17:53.453</time></trkpt><trkpt lat="55.6488900" lon="38.4871130"><time>2020-10-31T14:17:55.457</time></trkpt><trkpt lat="55.6488500" lon="38.4871950"><time>2020-10-31T14:17:58.457</time></trkpt><trkpt lat="55.6488220" lon="38.4872620"><time>2020-10-31T14:18:00.457</time></trkpt><trkpt lat="55.6488170" lon="38.4873500"><time>2020-10-31T14:18:03.457</time></trkpt><trkpt lat="55.6487980" lon="38.4874420"><time>2020-10-31T14:18:07.457</time></trkpt><trkpt lat="55.6486880" lon="38.4875880"><time>2020-10-31T14:18:12.457</time></trkpt><trkpt lat="55.6486830" lon="38.4878520"><time>2020-10-31T14:18:19.420</time></trkpt><trkpt lat="55.6486780" lon="38.4879550"><time>2020-10-31T14:18:20.457</time></trkpt><trkpt lat="55.6486300" lon="38.4880450"><time>2020-10-31T14:18:22.453</time></trkpt><trkpt lat="55.6486180" lon="38.4881400"><time>2020-10-31T14:18:24.457</time></trkpt><trkpt lat="55.6486370" lon="38.4882350"><time>2020-10-31T14:18:26.457</time></trkpt><trkpt lat="55.6486430" lon="38.4883150"><time>2020-10-31T14:18:30.457</time></trkpt><trkpt lat="55.6486150" lon="38.4885100"><time>2020-10-31T14:18:40.457</time></trkpt><trkpt lat="55.6486480" lon="38.4886550"><time>2020-10-31T14:18:42.457</time></trkpt><trkpt lat="55.6486130" lon="38.4887070"><time>2020-10-31T14:18:45.453</time></trkpt><trkpt lat="55.6485030" lon="38.4888500"><time>2020-10-31T14:18:56.457</time></trkpt><trkpt lat="55.6484550" lon="38.4888980"><time>2020-10-31T14:18:59.457</time></trkpt><trkpt lat="55.6484070" lon="38.4889770"><time>2020-10-31T14:19:02.457</time></trkpt><trkpt lat="55.6483720" lon="38.4890370"><time>2020-10-31T14:19:04.457</time></trkpt><trkpt lat="55.6483430" lon="38.4891220"><time>2020-10-31T14:19:06.457</time></trkpt><trkpt lat="55.6483070" lon="38.4891970"><time>2020-10-31T14:19:08.457</time></trkpt><trkpt lat="55.6482700" lon="38.4892920"><time>2020-10-31T14:19:11.457</time></trkpt><trkpt lat="55.6482420" lon="38.4893530"><time>2020-10-31T14:19:13.457</time></trkpt><trkpt lat="55.6482000" lon="38.4893920"><time>2020-10-31T14:19:15.457</time></trkpt><trkpt lat="55.6481520" lon="38.4894450"><time>2020-10-31T14:19:18.457</time></trkpt><trkpt lat="55.6481050" lon="38.4895030"><time>2020-10-31T14:19:21.457</time></trkpt><trkpt lat="55.6480920" lon="38.4895930"><time>2020-10-31T14:19:23.457</time></trkpt><trkpt lat="55.6480520" lon="38.4896350"><time>2020-10-31T14:19:25.457</time></trkpt><trkpt lat="55.6480050" lon="38.4896700"><time>2020-10-31T14:19:27.463</time></trkpt><trkpt lat="55.6479650" lon="38.4897130"><time>2020-10-31T14:19:29.457</time></trkpt><trkpt lat="55.6479320" lon="38.4898000"><time>2020-10-31T14:19:32.460</time></trkpt><trkpt lat="55.6478920" lon="38.4898830"><time>2020-10-31T14:19:35.453</time></trkpt><trkpt lat="55.6478520" lon="38.4899580"><time>2020-10-31T14:19:38.457</time></trkpt><trkpt lat="55.6478100" lon="38.4900170"><time>2020-10-31T14:19:40.457</time></trkpt><trkpt lat="55.6477620" lon="38.4900600"><time>2020-10-31T14:19:42.457</time></trkpt><trkpt lat="55.6477200" lon="38.4900980"><time>2020-10-31T14:19:44.457</time></trkpt><trkpt lat="55.6476850" lon="38.4901630"><time>2020-10-31T14:19:46.457</time></trkpt><trkpt lat="55.6476470" lon="38.4902430"><time>2020-10-31T14:19:49.457</time></trkpt><trkpt lat="55.6476250" lon="38.4903230"><time>2020-10-31T14:19:51.457</time></trkpt><trkpt lat="55.6475970" lon="38.4903880"><time>2020-10-31T14:19:53.453</time></trkpt><trkpt lat="55.6475480" lon="38.4904570"><time>2020-10-31T14:19:56.457</time></trkpt><trkpt lat="55.6475220" lon="38.4905320"><time>2020-10-31T14:19:59.453</time></trkpt><trkpt lat="55.6474780" lon="38.4906150"><time>2020-10-31T14:20:02.453</time></trkpt><trkpt lat="55.6474180" lon="38.4906650"><time>2020-10-31T14:20:05.457</time></trkpt><trkpt lat="55.6473620" lon="38.4907270"><time>2020-10-31T14:20:08.457</time></trkpt><trkpt lat="55.6473030" lon="38.4907550"><time>2020-10-31T14:20:10.460</time></trkpt><trkpt lat="55.6472620" lon="38.4907930"><time>2020-10-31T14:20:12.457</time></trkpt><trkpt lat="55.6472180" lon="38.4908820"><time>2020-10-31T14:20:15.457</time></trkpt><trkpt lat="55.6471880" lon="38.4909450"><time>2020-10-31T14:20:17.457</time></trkpt><trkpt lat="55.6471670" lon="38.4910180"><time>2020-10-31T14:20:19.457</time></trkpt><trkpt lat="55.6471320" lon="38.4911030"><time>2020-10-31T14:20:22.457</time></trkpt><trkpt lat="55.6470900" lon="38.4911550"><time>2020-10-31T14:20:25.460</time></trkpt><trkpt lat="55.6470370" lon="38.4912300"><time>2020-10-31T14:20:28.457</time></trkpt><trkpt lat="55.6470020" lon="38.4912820"><time>2020-10-31T14:20:30.457</time></trkpt><trkpt lat="55.6469700" lon="38.4913450"><time>2020-10-31T14:20:32.457</time></trkpt><trkpt lat="55.6469220" lon="38.4914320"><time>2020-10-31T14:20:35.460</time></trkpt><trkpt lat="55.6468830" lon="38.4914730"><time>2020-10-31T14:20:37.463</time></trkpt><trkpt lat="55.6468400" lon="38.4915170"><time>2020-10-31T14:20:39.457</time></trkpt><trkpt lat="55.6468050" lon="38.4915750"><time>2020-10-31T14:20:41.457</time></trkpt><trkpt lat="55.6467650" lon="38.4916200"><time>2020-10-31T14:20:43.460</time></trkpt><trkpt lat="55.6467400" lon="38.4916870"><time>2020-10-31T14:20:45.457</time></trkpt><trkpt lat="55.6466980" lon="38.4917430"><time>2020-10-31T14:20:47.457</time></trkpt><trkpt lat="55.6466600" lon="38.4918350"><time>2020-10-31T14:20:50.457</time></trkpt><trkpt lat="55.6466170" lon="38.4919230"><time>2020-10-31T14:20:53.457</time></trkpt><trkpt lat="55.6465750" lon="38.4919820"><time>2020-10-31T14:20:55.460</time></trkpt><trkpt lat="55.6465430" lon="38.4920420"><time>2020-10-31T14:20:57.460</time></trkpt><trkpt lat="55.6465020" lon="38.4920870"><time>2020-10-31T14:20:59.457</time></trkpt><trkpt lat="55.6464680" lon="38.4921520"><time>2020-10-31T14:21:01.460</time></trkpt><trkpt lat="55.6464280" lon="38.4921920"><time>2020-10-31T14:21:03.460</time></trkpt><trkpt lat="55.6463800" lon="38.4922730"><time>2020-10-31T14:21:06.457</time></trkpt><trkpt lat="55.6463420" lon="38.4923250"><time>2020-10-31T14:21:08.457</time></trkpt><trkpt lat="55.6462950" lon="38.4924000"><time>2020-10-31T14:21:11.460</time></trkpt><trkpt lat="55.6462580" lon="38.4924850"><time>2020-10-31T14:21:14.457</time></trkpt><trkpt lat="55.6462030" lon="38.4925050"><time>2020-10-31T14:21:16.460</time></trkpt><trkpt lat="55.6461520" lon="38.4925430"><time>2020-10-31T14:21:18.457</time></trkpt><trkpt lat="55.6461150" lon="38.4925950"><time>2020-10-31T14:21:20.457</time></trkpt><trkpt lat="55.6460650" lon="38.4926370"><time>2020-10-31T14:21:22.460</time></trkpt><trkpt lat="55.6460150" lon="38.4926920"><time>2020-10-31T14:21:25.460</time></trkpt><trkpt lat="55.6459770" lon="38.4927650"><time>2020-10-31T14:21:27.460</time></trkpt><trkpt lat="55.6459400" lon="38.4928350"><time>2020-10-31T14:21:29.457</time></trkpt><trkpt lat="55.6459100" lon="38.4929030"><time>2020-10-31T14:21:31.457</time></trkpt><trkpt lat="55.6458670" lon="38.4929620"><time>2020-10-31T14:21:33.460</time></trkpt><trkpt lat="55.6458220" lon="38.4930480"><time>2020-10-31T14:21:36.457</time></trkpt><trkpt lat="55.6457850" lon="38.4931470"><time>2020-10-31T14:21:39.457</time></trkpt><trkpt lat="55.6457580" lon="38.4932250"><time>2020-10-31T14:21:41.457</time></trkpt><trkpt lat="55.6457320" lon="38.4933080"><time>2020-10-31T14:21:43.460</time></trkpt><trkpt lat="55.6457000" lon="38.4933770"><time>2020-10-31T14:21:45.457</time></trkpt><trkpt lat="55.6456580" lon="38.4934280"><time>2020-10-31T14:21:47.457</time></trkpt><trkpt lat="55.6456250" lon="38.4934980"><time>2020-10-31T14:21:49.457</time></trkpt><trkpt lat="55.6455770" lon="38.4935470"><time>2020-10-31T14:21:51.460</time></trkpt><trkpt lat="55.6455420" lon="38.4936000"><time>2020-10-31T14:21:53.457</time></trkpt><trkpt lat="55.6455080" lon="38.4936620"><time>2020-10-31T14:21:55.460</time></trkpt><trkpt lat="55.6454700" lon="38.4937100"><time>2020-10-31T14:21:57.457</time></trkpt><trkpt lat="55.6454400" lon="38.4938000"><time>2020-10-31T14:22:00.457</time></trkpt><trkpt lat="55.6454300" lon="38.4938830"><time>2020-10-31T14:22:02.457</time></trkpt><trkpt lat="55.6453870" lon="38.4939220"><time>2020-10-31T14:22:04.457</time></trkpt><trkpt lat="55.6453000" lon="38.4939220"><time>2020-10-31T14:22:06.457</time></trkpt><trkpt lat="55.6452330" lon="38.4939200"><time>2020-10-31T14:22:08.457</time></trkpt><trkpt lat="55.6451830" lon="38.4939430"><time>2020-10-31T14:22:10.460</time></trkpt><trkpt lat="55.6451330" lon="38.4939720"><time>2020-10-31T14:22:12.457</time></trkpt><trkpt lat="55.6450750" lon="38.4939720"><time>2020-10-31T14:22:14.457</time></trkpt><trkpt lat="55.6450330" lon="38.4940100"><time>2020-10-31T14:22:16.460</time></trkpt><trkpt lat="55.6449730" lon="38.4940320"><time>2020-10-31T14:22:18.460</time></trkpt><trkpt lat="55.6448670" lon="38.4940750"><time>2020-10-31T14:22:23.457</time></trkpt><trkpt lat="55.6448150" lon="38.4940750"><time>2020-10-31T14:22:25.460</time></trkpt><trkpt lat="55.6447550" lon="38.4940750"><time>2020-10-31T14:22:28.460</time></trkpt><trkpt lat="55.6447100" lon="38.4940770"><time>2020-10-31T14:22:30.460</time></trkpt><trkpt lat="55.6446450" lon="38.4940930"><time>2020-10-31T14:22:32.460</time></trkpt><trkpt lat="55.6445780" lon="38.4941330"><time>2020-10-31T14:22:35.457</time></trkpt><trkpt lat="55.6445330" lon="38.4941280"><time>2020-10-31T14:22:37.460</time></trkpt><trkpt lat="55.6444880" lon="38.4941630"><time>2020-10-31T14:22:42.463</time></trkpt><trkpt lat="55.6444630" lon="38.4942430"><time>2020-10-31T14:22:47.460</time></trkpt><trkpt lat="55.6444580" lon="38.4943730"><time>2020-10-31T14:22:52.457</time></trkpt><trkpt lat="55.6444720" lon="38.4944680"><time>2020-10-31T14:22:54.460</time></trkpt><trkpt lat="55.6444620" lon="38.4945630"><time>2020-10-31T14:22:56.460</time></trkpt><trkpt lat="55.6444380" lon="38.4946670"><time>2020-10-31T14:22:59.457</time></trkpt><trkpt lat="55.6444180" lon="38.4948870"><time>2020-10-31T14:23:05.457</time></trkpt><trkpt lat="55.6444000" lon="38.4949850"><time>2020-10-31T14:23:07.460</time></trkpt><trkpt lat="55.6443520" lon="38.4950550"><time>2020-10-31T14:23:10.457</time></trkpt><trkpt lat="55.6443180" lon="38.4951230"><time>2020-10-31T14:23:12.457</time></trkpt><trkpt lat="55.6442700" lon="38.4951700"><time>2020-10-31T14:23:14.457</time></trkpt><trkpt lat="55.6442250" lon="38.4952230"><time>2020-10-31T14:23:16.460</time></trkpt><trkpt lat="55.6441700" lon="38.4952850"><time>2020-10-31T14:23:19.460</time></trkpt><trkpt lat="55.6441370" lon="38.4953380"><time>2020-10-31T14:23:21.460</time></trkpt><trkpt lat="55.6440970" lon="38.4953820"><time>2020-10-31T14:23:24.457</time></trkpt><trkpt lat="55.6440270" lon="38.4954880"><time>2020-10-31T14:23:29.460</time></trkpt><trkpt lat="55.6439950" lon="38.4955520"><time>2020-10-31T14:23:31.460</time></trkpt><trkpt lat="55.6439470" lon="38.4955920"><time>2020-10-31T14:23:33.460</time></trkpt><trkpt lat="55.6439280" lon="38.4956650"><time>2020-10-31T14:23:35.457</time></trkpt><trkpt lat="55.6438950" lon="38.4957330"><time>2020-10-31T14:23:37.460</time></trkpt><trkpt lat="55.6438620" lon="38.4958020"><time>2020-10-31T14:23:39.460</time></trkpt><trkpt lat="55.6438280" lon="38.4958580"><time>2020-10-31T14:23:42.460</time></trkpt><trkpt lat="55.6437550" lon="38.4959320"><time>2020-10-31T14:23:45.460</time></trkpt><trkpt lat="55.6436920" lon="38.4960680"><time>2020-10-31T14:23:53.460</time></trkpt><trkpt lat="55.6436700" lon="38.4961550"><time>2020-10-31T14:23:56.457</time></trkpt><trkpt lat="55.6436450" lon="38.4962470"><time>2020-10-31T14:23:59.460</time></trkpt><trkpt lat="55.6436380" lon="38.4963300"><time>2020-10-31T14:24:01.457</time></trkpt><trkpt lat="55.6435450" lon="38.4964930"><time>2020-10-31T14:24:12.460</time></trkpt><trkpt lat="55.6435350" lon="38.4966130"><time>2020-10-31T14:24:15.460</time></trkpt><trkpt lat="55.6434450" lon="38.4967770"><time>2020-10-31T14:24:23.457</time></trkpt><trkpt lat="55.6434030" lon="38.4968670"><time>2020-10-31T14:24:26.457</time></trkpt><trkpt lat="55.6433180" lon="38.4970120"><time>2020-10-31T14:24:31.457</time></trkpt><trkpt lat="55.6432830" lon="38.4971120"><time>2020-10-31T14:24:33.460</time></trkpt><trkpt lat="55.6432750" lon="38.4971920"><time>2020-10-31T14:24:36.460</time></trkpt><trkpt lat="55.6432750" lon="38.4972830"><time>2020-10-31T14:24:38.460</time></trkpt><trkpt lat="55.6432480" lon="38.4974150"><time>2020-10-31T14:24:43.460</time></trkpt><trkpt lat="55.6432330" lon="38.4975000"><time>2020-10-31T14:24:45.460</time></trkpt><trkpt lat="55.6432170" lon="38.4975900"><time>2020-10-31T14:24:47.460</time></trkpt><trkpt lat="55.6432100" lon="38.4976950"><time>2020-10-31T14:24:49.460</time></trkpt><trkpt lat="55.6432570" lon="38.4978030"><time>2020-10-31T14:24:51.460</time></trkpt><trkpt lat="55.6432970" lon="38.4978950"><time>2020-10-31T14:24:53.460</time></trkpt><trkpt lat="55.6433120" lon="38.4979950"><time>2020-10-31T14:24:56.460</time></trkpt><trkpt lat="55.6433230" lon="38.4980770"><time>2020-10-31T14:24:59.460</time></trkpt><trkpt lat="55.6433530" lon="38.4981830"><time>2020-10-31T14:25:02.460</time></trkpt><trkpt lat="55.6433050" lon="38.4981900"><time>2020-10-31T14:25:03.460</time></trkpt><trkpt lat="55.6432320" lon="38.4981770"><time>2020-10-31T14:25:05.460</time></trkpt><trkpt lat="55.6431380" lon="38.4982070"><time>2020-10-31T14:25:07.460</time></trkpt><trkpt lat="55.6430730" lon="38.4982570"><time>2020-10-31T14:25:09.460</time></trkpt><trkpt lat="55.6430400" lon="38.4983370"><time>2020-10-31T14:25:11.460</time></trkpt><trkpt lat="55.6430320" lon="38.4984980"><time>2020-10-31T14:25:13.460</time></trkpt><trkpt lat="55.6429770" lon="38.4985570"><time>2020-10-31T14:25:15.460</time></trkpt><trkpt lat="55.6429220" lon="38.4985880"><time>2020-10-31T14:25:17.460</time></trkpt><trkpt lat="55.6428680" lon="38.4986350"><time>2020-10-31T14:25:19.460</time></trkpt><trkpt lat="55.6428500" lon="38.4987980"><time>2020-10-31T14:25:26.460</time></trkpt><trkpt lat="55.6428300" lon="38.4988820"><time>2020-10-31T14:25:28.460</time></trkpt><trkpt lat="55.6428070" lon="38.4989600"><time>2020-10-31T14:25:30.460</time></trkpt><trkpt lat="55.6427870" lon="38.4990430"><time>2020-10-31T14:25:32.463</time></trkpt><trkpt lat="55.6427650" lon="38.4991270"><time>2020-10-31T14:25:35.460</time></trkpt><trkpt lat="55.6427450" lon="38.4992400"><time>2020-10-31T14:25:38.460</time></trkpt><trkpt lat="55.6427300" lon="38.4993500"><time>2020-10-31T14:25:41.460</time></trkpt><trkpt lat="55.6427150" lon="38.4994720"><time>2020-10-31T14:25:44.463</time></trkpt><trkpt lat="55.6427000" lon="38.4995750"><time>2020-10-31T14:25:46.460</time></trkpt><trkpt lat="55.6426930" lon="38.4996720"><time>2020-10-31T14:25:48.457</time></trkpt><trkpt lat="55.6426900" lon="38.4997750"><time>2020-10-31T14:25:50.460</time></trkpt><trkpt lat="55.6426750" lon="38.4998580"><time>2020-10-31T14:25:52.460</time></trkpt><trkpt lat="55.6426730" lon="38.4999750"><time>2020-10-31T14:25:54.460</time></trkpt><trkpt lat="55.6426800" lon="38.5001100"><time>2020-10-31T14:25:56.460</time></trkpt><trkpt lat="55.6426850" lon="38.5002220"><time>2020-10-31T14:25:58.460</time></trkpt><trkpt lat="55.6426900" lon="38.5003100"><time>2020-10-31T14:26:00.457</time></trkpt><trkpt lat="55.6427130" lon="38.5004130"><time>2020-10-31T14:26:03.457</time></trkpt><trkpt lat="55.6427480" lon="38.5004900"><time>2020-10-31T14:26:06.457</time></trkpt><trkpt lat="55.6427900" lon="38.5005700"><time>2020-10-31T14:26:11.460</time></trkpt><trkpt lat="55.6428250" lon="38.5006200"><time>2020-10-31T14:26:14.457</time></trkpt><trkpt lat="55.6428630" lon="38.5007070"><time>2020-10-31T14:26:18.460</time></trkpt><trkpt lat="55.6429020" lon="38.5007750"><time>2020-10-31T14:26:21.460</time></trkpt><trkpt lat="55.6429470" lon="38.5008480"><time>2020-10-31T14:26:24.457</time></trkpt><trkpt lat="55.6429920" lon="38.5009050"><time>2020-10-31T14:26:27.457</time></trkpt><trkpt lat="55.6430450" lon="38.5009530"><time>2020-10-31T14:26:30.460</time></trkpt><trkpt lat="55.6430880" lon="38.5009770"><time>2020-10-31T14:26:32.457</time></trkpt><trkpt lat="55.6431400" lon="38.5010120"><time>2020-10-31T14:26:35.460</time></trkpt><trkpt lat="55.6431830" lon="38.5010430"><time>2020-10-31T14:26:37.467</time></trkpt><trkpt lat="55.6432380" lon="38.5010880"><time>2020-10-31T14:26:40.457</time></trkpt><trkpt lat="55.6432950" lon="38.5012480"><time>2020-10-31T14:26:50.453</time></trkpt><trkpt lat="55.6433170" lon="38.5013220"><time>2020-10-31T14:26:54.460</time></trkpt><trkpt lat="55.6433530" lon="38.5013820"><time>2020-10-31T14:26:56.457</time></trkpt><trkpt lat="55.6433930" lon="38.5014320"><time>2020-10-31T14:26:58.460</time></trkpt><trkpt lat="55.6434430" lon="38.5014630"><time>2020-10-31T14:27:03.460</time></trkpt><trkpt lat="55.6434900" lon="38.5015080"><time>2020-10-31T14:27:06.457</time></trkpt><trkpt lat="55.6435370" lon="38.5015550"><time>2020-10-31T14:27:10.460</time></trkpt><trkpt lat="55.6435750" lon="38.5016020"><time>2020-10-31T14:27:14.457</time></trkpt><trkpt lat="55.6436620" lon="38.5016720"><time>2020-10-31T14:27:29.460</time></trkpt><trkpt lat="55.6437030" lon="38.5017520"><time>2020-10-31T14:27:32.460</time></trkpt><trkpt lat="55.6437470" lon="38.5018230"><time>2020-10-31T14:27:34.460</time></trkpt><trkpt lat="55.6437750" lon="38.5019080"><time>2020-10-31T14:27:36.460</time></trkpt><trkpt lat="55.6437980" lon="38.5021770"><time>2020-10-31T14:27:48.460</time></trkpt><trkpt lat="55.6438080" lon="38.5023050"><time>2020-10-31T14:27:50.460</time></trkpt><trkpt lat="55.6438120" lon="38.5023920"><time>2020-10-31T14:27:52.457</time></trkpt><trkpt lat="55.6438050" lon="38.5024970"><time>2020-10-31T14:27:56.217</time></trkpt><trkpt lat="55.6438080" lon="38.5025830"><time>2020-10-31T14:27:59.460</time></trkpt><trkpt lat="55.6438380" lon="38.5026530"><time>2020-10-31T14:28:02.460</time></trkpt><trkpt lat="55.6438720" lon="38.5027330"><time>2020-10-31T14:28:04.457</time></trkpt><trkpt lat="55.6438880" lon="38.5028180"><time>2020-10-31T14:28:06.460</time></trkpt><trkpt lat="55.6439350" lon="38.5029120"><time>2020-10-31T14:28:08.457</time></trkpt><trkpt lat="55.6439570" lon="38.5029930"><time>2020-10-31T14:28:10.460</time></trkpt><trkpt lat="55.6439600" lon="38.5030730"><time>2020-10-31T14:28:12.460</time></trkpt><trkpt lat="55.6439680" lon="38.5032450"><time>2020-10-31T14:28:21.460</time></trkpt><trkpt lat="55.6439670" lon="38.5034520"><time>2020-10-31T14:28:31.460</time></trkpt><trkpt lat="55.6439680" lon="38.5035370"><time>2020-10-31T14:28:34.463</time></trkpt><trkpt lat="55.6439720" lon="38.5037120"><time>2020-10-31T14:28:41.460</time></trkpt><trkpt lat="55.6439730" lon="38.5037930"><time>2020-10-31T14:28:44.460</time></trkpt><trkpt lat="55.6439970" lon="38.5039500"><time>2020-10-31T14:28:52.460</time></trkpt><trkpt lat="55.6440150" lon="38.5041680"><time>2020-10-31T14:29:08.457</time></trkpt><trkpt lat="55.6440420" lon="38.5042330"><time>2020-10-31T14:29:11.457</time></trkpt><trkpt lat="55.6440820" lon="38.5043900"><time>2020-10-31T14:29:19.460</time></trkpt><trkpt lat="55.6441250" lon="38.5045880"><time>2020-10-31T14:29:28.467</time></trkpt><trkpt lat="55.6441600" lon="38.5048020"><time>2020-10-31T14:29:42.460</time></trkpt><trkpt lat="55.6441770" lon="38.5048830"><time>2020-10-31T14:29:45.460</time></trkpt><trkpt lat="55.6442530" lon="38.5050100"><time>2020-10-31T14:29:54.460</time></trkpt><trkpt lat="55.6442880" lon="38.5050680"><time>2020-10-31T14:29:56.460</time></trkpt><trkpt lat="55.6443320" lon="38.5051050"><time>2020-10-31T14:30:01.460</time></trkpt><trkpt lat="55.6444530" lon="38.5050820"><time>2020-10-31T14:30:15.460</time></trkpt><trkpt lat="55.6445000" lon="38.5050730"><time>2020-10-31T14:30:17.460</time></trkpt><trkpt lat="55.6445550" lon="38.5050520"><time>2020-10-31T14:30:19.460</time></trkpt><trkpt lat="55.6446120" lon="38.5050520"><time>2020-10-31T14:30:21.463</time></trkpt><trkpt lat="55.6446650" lon="38.5050320"><time>2020-10-31T14:30:23.463</time></trkpt><trkpt lat="55.6447250" lon="38.5050180"><time>2020-10-31T14:30:26.463</time></trkpt><trkpt lat="55.6447830" lon="38.5050120"><time>2020-10-31T14:30:29.457</time></trkpt><trkpt lat="55.6449170" lon="38.5050400"><time>2020-10-31T14:30:44.460</time></trkpt><trkpt lat="55.6450450" lon="38.5050670"><time>2020-10-31T14:30:53.463</time></trkpt><trkpt lat="55.6450980" lon="38.5050930"><time>2020-10-31T14:30:56.460</time></trkpt><trkpt lat="55.6452080" lon="38.5051000"><time>2020-10-31T14:31:05.460</time></trkpt><trkpt lat="55.6452880" lon="38.5050950"><time>2020-10-31T14:31:10.463</time></trkpt><trkpt lat="55.6453450" lon="38.5050930"><time>2020-10-31T14:31:12.460</time></trkpt><trkpt lat="55.6454030" lon="38.5050870"><time>2020-10-31T14:31:14.460</time></trkpt><trkpt lat="55.6454620" lon="38.5050650"><time>2020-10-31T14:31:16.460</time></trkpt><trkpt lat="55.6455100" lon="38.5050580"><time>2020-10-31T14:31:18.460</time></trkpt><trkpt lat="55.6455550" lon="38.5050420"><time>2020-10-31T14:31:20.460</time></trkpt><trkpt lat="55.6456280" lon="38.5050220"><time>2020-10-31T14:31:23.460</time></trkpt><trkpt lat="55.6456930" lon="38.5051370"><time>2020-10-31T14:32:04.460</time></trkpt><trkpt lat="55.6457420" lon="38.5051300"><time>2020-10-31T14:32:06.463</time></trkpt><trkpt lat="55.6458400" lon="38.5050680"><time>2020-10-31T14:32:11.463</time></trkpt><trkpt lat="55.6458880" lon="38.5050670"><time>2020-10-31T14:32:13.460</time></trkpt><trkpt lat="55.6459480" lon="38.5050670"><time>2020-10-31T14:32:15.463</time></trkpt><trkpt lat="55.6460020" lon="38.5050600"><time>2020-10-31T14:32:20.460</time></trkpt><trkpt lat="55.6461370" lon="38.5050520"><time>2020-10-31T14:32:39.463</time></trkpt><trkpt lat="55.6461850" lon="38.5050220"><time>2020-10-31T14:32:42.463</time></trkpt><trkpt lat="55.6462730" lon="38.5050550"><time>2020-10-31T14:32:52.460</time></trkpt><trkpt lat="55.6462080" lon="38.5049850"><time>2020-10-31T14:33:23.460</time></trkpt><trkpt lat="55.6460780" lon="38.5049820"><time>2020-10-31T14:33:41.463</time></trkpt><trkpt lat="55.6461850" lon="38.5049750"><time>2020-10-31T14:34:08.460</time></trkpt><trkpt lat="55.6462850" lon="38.5048720"><time>2020-10-31T14:34:17.460</time></trkpt><trkpt lat="55.6463820" lon="38.5048800"><time>2020-10-31T14:34:27.457</time></trkpt><trkpt lat="55.6464420" lon="38.5048950"><time>2020-10-31T14:34:32.463</time></trkpt><trkpt lat="55.6464950" lon="38.5049170"><time>2020-10-31T14:34:34.460</time></trkpt><trkpt lat="55.6465400" lon="38.5049250"><time>2020-10-31T14:34:36.460</time></trkpt><trkpt lat="55.6465930" lon="38.5049380"><time>2020-10-31T14:34:39.460</time></trkpt><trkpt lat="55.6466420" lon="38.5048630"><time>2020-10-31T14:34:45.397</time></trkpt><trkpt lat="55.6465930" lon="38.5048100"><time>2020-10-31T14:34:48.417</time></trkpt><trkpt lat="55.6466470" lon="38.5047600"><time>2020-10-31T14:34:56.430</time></trkpt><trkpt lat="55.6467400" lon="38.5046680"><time>2020-10-31T14:35:01.437</time></trkpt><trkpt lat="55.6468250" lon="38.5045680"><time>2020-10-31T14:35:02.427</time></trkpt><trkpt lat="55.6468700" lon="38.5046020"><time>2020-10-31T14:35:03.420</time></trkpt><trkpt lat="55.6469250" lon="38.5045850"><time>2020-10-31T14:35:04.430</time></trkpt><trkpt lat="55.6469070" lon="38.5044720"><time>2020-10-31T14:35:06.427</time></trkpt><trkpt lat="55.6468830" lon="38.5043520"><time>2020-10-31T14:35:08.433</time></trkpt><trkpt lat="55.6468430" lon="38.5043050"><time>2020-10-31T14:35:10.433</time></trkpt><trkpt lat="55.6468970" lon="38.5043820"><time>2020-10-31T14:35:14.450</time></trkpt><trkpt lat="55.6469820" lon="38.5044630"><time>2020-10-31T14:35:21.457</time></trkpt><trkpt lat="55.6469120" lon="38.5043900"><time>2020-10-31T14:35:34.460</time></trkpt><trkpt lat="55.6469780" lon="38.5044430"><time>2020-10-31T14:35:37.463</time></trkpt><trkpt lat="55.6470230" lon="38.5045050"><time>2020-10-31T14:35:45.460</time></trkpt><trkpt lat="55.6471000" lon="38.5046000"><time>2020-10-31T14:35:46.433</time></trkpt><trkpt lat="55.6471270" lon="38.5046650"><time>2020-10-31T14:35:52.460</time></trkpt><trkpt lat="55.6470820" lon="38.5046930"><time>2020-10-31T14:36:11.463</time></trkpt><trkpt lat="55.6470350" lon="38.5046780"><time>2020-10-31T14:36:13.463</time></trkpt><trkpt lat="55.6469320" lon="38.5045330"><time>2020-10-31T14:36:25.460</time></trkpt><trkpt lat="55.6468070" lon="38.5045130"><time>2020-10-31T14:36:37.467</time></trkpt><trkpt lat="55.6467600" lon="38.5045270"><time>2020-10-31T14:36:40.463</time></trkpt><trkpt lat="55.6467600" lon="38.5045270"><time>2020-10-31T14:37:01.453</time></trkpt><trkpt lat="55.6474870" lon="38.5052520"><time>2020-10-31T14:37:10.457</time></trkpt><trkpt lat="55.6474070" lon="38.5051080"><time>2020-10-31T14:37:11.457</time></trkpt><trkpt lat="55.6473420" lon="38.5050170"><time>2020-10-31T14:37:12.453</time></trkpt><trkpt lat="55.6471120" lon="38.5048480"><time>2020-10-31T14:37:13.457</time></trkpt><trkpt lat="55.6469430" lon="38.5048270"><time>2020-10-31T14:37:14.453</time></trkpt><trkpt lat="55.6469250" lon="38.5045680"><time>2020-10-31T14:37:15.457</time></trkpt><trkpt lat="55.6469300" lon="38.5044770"><time>2020-10-31T14:37:18.453</time></trkpt><trkpt lat="55.6469900" lon="38.5044650"><time>2020-10-31T14:37:21.457</time></trkpt><trkpt lat="55.6470480" lon="38.5043950"><time>2020-10-31T14:37:42.460</time></trkpt><trkpt lat="55.6470830" lon="38.5045530"><time>2020-10-31T14:38:01.467</time></trkpt><trkpt lat="55.6470530" lon="38.5047780"><time>2020-10-31T14:38:11.463</time></trkpt><trkpt lat="55.6470420" lon="38.5049970"><time>2020-10-31T14:38:17.460</time></trkpt><trkpt lat="55.6469800" lon="38.5051320"><time>2020-10-31T14:38:36.463</time></trkpt><trkpt lat="55.6469570" lon="38.5052180"><time>2020-10-31T14:38:39.460</time></trkpt><trkpt lat="55.6470350" lon="38.5054280"><time>2020-10-31T14:38:55.463</time></trkpt><trkpt lat="55.6470850" lon="38.5054700"><time>2020-10-31T14:38:59.463</time></trkpt><trkpt lat="55.6471770" lon="38.5054500"><time>2020-10-31T14:39:08.460</time></trkpt><trkpt lat="55.6472180" lon="38.5054180"><time>2020-10-31T14:39:11.460</time></trkpt><trkpt lat="55.6473170" lon="38.5053580"><time>2020-10-31T14:39:18.467</time></trkpt><trkpt lat="55.6474400" lon="38.5052450"><time>2020-10-31T14:39:32.460</time></trkpt><trkpt lat="55.6475600" lon="38.5051750"><time>2020-10-31T14:39:42.463</time></trkpt><trkpt lat="55.6476170" lon="38.5051670"><time>2020-10-31T14:39:45.460</time></trkpt><trkpt lat="55.6477080" lon="38.5051630"><time>2020-10-31T14:39:49.463</time></trkpt><trkpt lat="55.6478580" lon="38.5051650"><time>2020-10-31T14:39:58.463</time></trkpt><trkpt lat="55.6479270" lon="38.5051750"><time>2020-10-31T14:39:59.460</time></trkpt><trkpt lat="55.6479900" lon="38.5051800"><time>2020-10-31T14:40:00.463</time></trkpt><trkpt lat="55.6480470" lon="38.5051720"><time>2020-10-31T14:40:02.460</time></trkpt><trkpt lat="55.6481000" lon="38.5051700"><time>2020-10-31T14:40:04.463</time></trkpt><trkpt lat="55.6481550" lon="38.5051670"><time>2020-10-31T14:40:06.460</time></trkpt><trkpt lat="55.6482080" lon="38.5051300"><time>2020-10-31T14:40:08.463</time></trkpt><trkpt lat="55.6482570" lon="38.5051500"><time>2020-10-31T14:40:11.463</time></trkpt><trkpt lat="55.6483650" lon="38.5051280"><time>2020-10-31T14:40:21.463</time></trkpt><trkpt lat="55.6485000" lon="38.5050900"><time>2020-10-31T14:40:29.460</time></trkpt><trkpt lat="55.6485520" lon="38.5050870"><time>2020-10-31T14:40:31.463</time></trkpt><trkpt lat="55.6486600" lon="38.5049800"><time>2020-10-31T14:40:39.460</time></trkpt><trkpt lat="55.6486850" lon="38.5049100"><time>2020-10-31T14:40:41.460</time></trkpt><trkpt lat="55.6487870" lon="38.5048430"><time>2020-10-31T14:40:47.463</time></trkpt><trkpt lat="55.6488950" lon="38.5047470"><time>2020-10-31T14:41:00.460</time></trkpt><trkpt lat="55.6490250" lon="38.5047450"><time>2020-10-31T14:41:09.463</time></trkpt><trkpt lat="55.6490780" lon="38.5047470"><time>2020-10-31T14:41:11.463</time></trkpt><trkpt lat="55.6491230" lon="38.5047320"><time>2020-10-31T14:41:12.463</time></trkpt><trkpt lat="55.6491870" lon="38.5047200"><time>2020-10-31T14:41:14.463</time></trkpt><trkpt lat="55.6492300" lon="38.5046950"><time>2020-10-31T14:41:16.463</time></trkpt><trkpt lat="55.6493570" lon="38.5046630"><time>2020-10-31T14:41:22.463</time></trkpt><trkpt lat="55.6494080" lon="38.5046480"><time>2020-10-31T14:41:24.463</time></trkpt><trkpt lat="55.6495470" lon="38.5046730"><time>2020-10-31T14:41:29.463</time></trkpt><trkpt lat="55.6495950" lon="38.5046650"><time>2020-10-31T14:41:31.463</time></trkpt><trkpt lat="55.6496730" lon="38.5046530"><time>2020-10-31T14:41:34.463</time></trkpt><trkpt lat="55.6497550" lon="38.5046300"><time>2020-10-31T14:41:37.463</time></trkpt><trkpt lat="55.6498170" lon="38.5046350"><time>2020-10-31T14:41:39.460</time></trkpt><trkpt lat="55.6498830" lon="38.5046370"><time>2020-10-31T14:41:41.460</time></trkpt><trkpt lat="55.6499320" lon="38.5046100"><time>2020-10-31T14:41:43.460</time></trkpt><trkpt lat="55.6500230" lon="38.5046320"><time>2020-10-31T14:41:48.460</time></trkpt><trkpt lat="55.6501600" lon="38.5046400"><time>2020-10-31T14:41:56.463</time></trkpt><trkpt lat="55.6502230" lon="38.5046170"><time>2020-10-31T14:41:59.463</time></trkpt><trkpt lat="55.6502630" lon="38.5045450"><time>2020-10-31T14:42:02.463</time></trkpt><trkpt lat="55.6503930" lon="38.5045320"><time>2020-10-31T14:42:13.460</time></trkpt><trkpt lat="55.6504480" lon="38.5045400"><time>2020-10-31T14:42:17.460</time></trkpt><trkpt lat="55.6504950" lon="38.5045400"><time>2020-10-31T14:42:21.463</time></trkpt><trkpt lat="55.6505530" lon="38.5045100"><time>2020-10-31T14:42:26.467</time></trkpt><trkpt lat="55.6506870" lon="38.5044950"><time>2020-10-31T14:42:37.463</time></trkpt><trkpt lat="55.6507320" lon="38.5045050"><time>2020-10-31T14:42:40.463</time></trkpt><trkpt lat="55.6508300" lon="38.5044770"><time>2020-10-31T14:42:49.460</time></trkpt><trkpt lat="55.6509550" lon="38.5044580"><time>2020-10-31T14:42:58.463</time></trkpt><trkpt lat="55.6511180" lon="38.5044680"><time>2020-10-31T14:43:05.460</time></trkpt><trkpt lat="55.6511700" lon="38.5044530"><time>2020-10-31T14:43:06.467</time></trkpt><trkpt lat="55.6512150" lon="38.5044620"><time>2020-10-31T14:43:07.463</time></trkpt><trkpt lat="55.6512920" lon="38.5044620"><time>2020-10-31T14:43:09.463</time></trkpt><trkpt lat="55.6513500" lon="38.5044650"><time>2020-10-31T14:43:11.460</time></trkpt><trkpt lat="55.6514180" lon="38.5044650"><time>2020-10-31T14:43:13.463</time></trkpt><trkpt lat="55.6514700" lon="38.5044720"><time>2020-10-31T14:43:15.463</time></trkpt><trkpt lat="55.6515530" lon="38.5044680"><time>2020-10-31T14:43:20.463</time></trkpt><trkpt lat="55.6516020" lon="38.5044930"><time>2020-10-31T14:43:23.463</time></trkpt><trkpt lat="55.6517400" lon="38.5044950"><time>2020-10-31T14:43:34.460</time></trkpt><trkpt lat="55.6517930" lon="38.5044950"><time>2020-10-31T14:43:36.460</time></trkpt><trkpt lat="55.6519100" lon="38.5044800"><time>2020-10-31T14:43:41.460</time></trkpt><trkpt lat="55.6519570" lon="38.5044620"><time>2020-10-31T14:43:42.467</time></trkpt><trkpt lat="55.6520230" lon="38.5044280"><time>2020-10-31T14:43:44.463</time></trkpt><trkpt lat="55.6520730" lon="38.5044230"><time>2020-10-31T14:43:46.463</time></trkpt><trkpt lat="55.6522130" lon="38.5044350"><time>2020-10-31T14:43:54.463</time></trkpt><trkpt lat="55.6522970" lon="38.5044730"><time>2020-10-31T14:43:56.460</time></trkpt><trkpt lat="55.6523420" lon="38.5044830"><time>2020-10-31T14:43:58.463</time></trkpt><trkpt lat="55.6524430" lon="38.5044180"><time>2020-10-31T14:44:09.463</time></trkpt><trkpt lat="55.6525780" lon="38.5043550"><time>2020-10-31T14:44:20.463</time></trkpt><trkpt lat="55.6526350" lon="38.5043650"><time>2020-10-31T14:44:23.463</time></trkpt><trkpt lat="55.6527480" lon="38.5043300"><time>2020-10-31T14:44:29.460</time></trkpt><trkpt lat="55.6527980" lon="38.5043320"><time>2020-10-31T14:44:32.460</time></trkpt><trkpt lat="55.6528980" lon="38.5043670"><time>2020-10-31T14:44:37.463</time></trkpt><trkpt lat="55.6529720" lon="38.5043600"><time>2020-10-31T14:44:39.460</time></trkpt><trkpt lat="55.6530350" lon="38.5043730"><time>2020-10-31T14:44:41.460</time></trkpt><trkpt lat="55.6530880" lon="38.5043750"><time>2020-10-31T14:44:44.463</time></trkpt><trkpt lat="55.6531900" lon="38.5043630"><time>2020-10-31T14:44:56.460</time></trkpt><trkpt lat="55.6532350" lon="38.5043400"><time>2020-10-31T14:44:58.463</time></trkpt><trkpt lat="55.6533030" lon="38.5043470"><time>2020-10-31T14:45:01.460</time></trkpt><trkpt lat="55.6533650" lon="38.5043370"><time>2020-10-31T14:45:03.460</time></trkpt><trkpt lat="55.6534170" lon="38.5043170"><time>2020-10-31T14:45:05.453</time></trkpt><trkpt lat="55.6534670" lon="38.5043020"><time>2020-10-31T14:45:07.463</time></trkpt><trkpt lat="55.6535270" lon="38.5043230"><time>2020-10-31T14:45:10.463</time></trkpt><trkpt lat="55.6535780" lon="38.5043180"><time>2020-10-31T14:45:14.463</time></trkpt><trkpt lat="55.6536300" lon="38.5042770"><time>2020-10-31T14:45:17.463</time></trkpt><trkpt lat="55.6536750" lon="38.5042400"><time>2020-10-31T14:45:19.463</time></trkpt><trkpt lat="55.6537230" lon="38.5042100"><time>2020-10-31T14:45:23.463</time></trkpt><trkpt lat="55.6537880" lon="38.5042170"><time>2020-10-31T14:45:27.470</time></trkpt><trkpt lat="55.6539150" lon="38.5042080"><time>2020-10-31T14:45:42.463</time></trkpt><trkpt lat="55.6540430" lon="38.5042300"><time>2020-10-31T14:45:49.463</time></trkpt><trkpt lat="55.6541030" lon="38.5042450"><time>2020-10-31T14:45:51.463</time></trkpt><trkpt lat="55.6541980" lon="38.5042730"><time>2020-10-31T14:45:58.463</time></trkpt><trkpt lat="55.6542600" lon="38.5042720"><time>2020-10-31T14:45:59.463</time></trkpt><trkpt lat="55.6543080" lon="38.5042720"><time>2020-10-31T14:46:01.463</time></trkpt><trkpt lat="55.6543600" lon="38.5042870"><time>2020-10-31T14:46:04.467</time></trkpt><trkpt lat="55.6544150" lon="38.5043250"><time>2020-10-31T14:46:08.463</time></trkpt><trkpt lat="55.6544600" lon="38.5043230"><time>2020-10-31T14:46:12.463</time></trkpt><trkpt lat="55.6545830" lon="38.5042730"><time>2020-10-31T14:46:26.463</time></trkpt><trkpt lat="55.6547100" lon="38.5042870"><time>2020-10-31T14:46:36.463</time></trkpt><trkpt lat="55.6547680" lon="38.5042850"><time>2020-10-31T14:46:39.463</time></trkpt><trkpt lat="55.6548130" lon="38.5042800"><time>2020-10-31T14:46:41.463</time></trkpt><trkpt lat="55.6548700" lon="38.5043180"><time>2020-10-31T14:46:44.460</time></trkpt><trkpt lat="55.6549870" lon="38.5042730"><time>2020-10-31T14:46:54.463</time></trkpt><trkpt lat="55.6550400" lon="38.5042500"><time>2020-10-31T14:46:56.467</time></trkpt><trkpt lat="55.6551080" lon="38.5042150"><time>2020-10-31T14:46:58.463</time></trkpt><trkpt lat="55.6551670" lon="38.5041650"><time>2020-10-31T14:47:00.460</time></trkpt><trkpt lat="55.6552150" lon="38.5041580"><time>2020-10-31T14:47:02.460</time></trkpt><trkpt lat="55.6553350" lon="38.5042020"><time>2020-10-31T14:47:12.463</time></trkpt><trkpt lat="55.6553770" lon="38.5042400"><time>2020-10-31T14:47:14.460</time></trkpt><trkpt lat="55.6554220" lon="38.5042400"><time>2020-10-31T14:47:16.457</time></trkpt><trkpt lat="55.6554480" lon="38.5041700"><time>2020-10-31T14:47:19.460</time></trkpt><trkpt lat="55.6555380" lon="38.5041470"><time>2020-10-31T14:47:23.460</time></trkpt><trkpt lat="55.6556570" lon="38.5041870"><time>2020-10-31T14:47:35.460</time></trkpt><trkpt lat="55.6557770" lon="38.5041720"><time>2020-10-31T14:47:47.460</time></trkpt><trkpt lat="55.6558250" lon="38.5041680"><time>2020-10-31T14:47:49.463</time></trkpt><trkpt lat="55.6559470" lon="38.5041580"><time>2020-10-31T14:47:56.463</time></trkpt><trkpt lat="55.6560750" lon="38.5041430"><time>2020-10-31T14:48:06.467</time></trkpt><trkpt lat="55.6561220" lon="38.5041200"><time>2020-10-31T14:48:08.460</time></trkpt><trkpt lat="55.6561730" lon="38.5042630"><time>2020-10-31T14:48:24.463</time></trkpt><trkpt lat="55.6562900" lon="38.5042420"><time>2020-10-31T14:48:40.463</time></trkpt><trkpt lat="55.6563630" lon="38.5042320"><time>2020-10-31T14:48:43.463</time></trkpt><trkpt lat="55.6564170" lon="38.5041880"><time>2020-10-31T14:48:45.460</time></trkpt><trkpt lat="55.6564820" lon="38.5041400"><time>2020-10-31T14:48:47.460</time></trkpt><trkpt lat="55.6565350" lon="38.5040850"><time>2020-10-31T14:48:49.467</time></trkpt><trkpt lat="55.6565920" lon="38.5040980"><time>2020-10-31T14:48:50.463</time></trkpt><trkpt lat="55.6566500" lon="38.5040630"><time>2020-10-31T14:48:52.460</time></trkpt><trkpt lat="55.6567080" lon="38.5040330"><time>2020-10-31T14:48:54.463</time></trkpt><trkpt lat="55.6567650" lon="38.5039970"><time>2020-10-31T14:48:56.460</time></trkpt><trkpt lat="55.6568180" lon="38.5040120"><time>2020-10-31T14:48:58.460</time></trkpt><trkpt lat="55.6568720" lon="38.5040450"><time>2020-10-31T14:49:00.460</time></trkpt><trkpt lat="55.6569380" lon="38.5040530"><time>2020-10-31T14:49:03.463</time></trkpt><trkpt lat="55.6570100" lon="38.5040370"><time>2020-10-31T14:49:05.463</time></trkpt><trkpt lat="55.6570700" lon="38.5040320"><time>2020-10-31T14:49:07.463</time></trkpt><trkpt lat="55.6571200" lon="38.5040330"><time>2020-10-31T14:49:09.460</time></trkpt><trkpt lat="55.6571820" lon="38.5040270"><time>2020-10-31T14:49:11.463</time></trkpt><trkpt lat="55.6572330" lon="38.5040370"><time>2020-10-31T14:49:13.460</time></trkpt><trkpt lat="55.6572980" lon="38.5040430"><time>2020-10-31T14:49:15.463</time></trkpt><trkpt lat="55.6573750" lon="38.5040270"><time>2020-10-31T14:49:17.463</time></trkpt><trkpt lat="55.6574330" lon="38.5040350"><time>2020-10-31T14:49:19.463</time></trkpt><trkpt lat="55.6574950" lon="38.5040280"><time>2020-10-31T14:49:22.463</time></trkpt><trkpt lat="55.6576020" lon="38.5040280"><time>2020-10-31T14:49:32.463</time></trkpt><trkpt lat="55.6576570" lon="38.5040350"><time>2020-10-31T14:49:34.460</time></trkpt><trkpt lat="55.6577100" lon="38.5040170"><time>2020-10-31T14:49:36.463</time></trkpt><trkpt lat="55.6577650" lon="38.5040180"><time>2020-10-31T14:49:38.463</time></trkpt><trkpt lat="55.6578950" lon="38.5040150"><time>2020-10-31T14:49:50.467</time></trkpt><trkpt lat="55.6579780" lon="38.5040600"><time>2020-10-31T14:49:52.463</time></trkpt><trkpt lat="55.6580330" lon="38.5040650"><time>2020-10-31T14:49:55.460</time></trkpt><trkpt lat="55.6581030" lon="38.5040530"><time>2020-10-31T14:49:57.453</time></trkpt><trkpt lat="55.6581070" lon="38.5039470"><time>2020-10-31T14:50:00.463</time></trkpt><trkpt lat="55.6581830" lon="38.5038080"><time>2020-10-31T14:50:17.457</time></trkpt><trkpt lat="55.6581200" lon="38.5036820"><time>2020-10-31T14:50:18.457</time></trkpt><trkpt lat="55.6580200" lon="38.5035620"><time>2020-10-31T14:50:25.447</time></trkpt><trkpt lat="55.6579220" lon="38.5035670"><time>2020-10-31T14:50:27.460</time></trkpt><trkpt lat="55.6578620" lon="38.5035970"><time>2020-10-31T14:50:30.460</time></trkpt><trkpt lat="55.6577880" lon="38.5036000"><time>2020-10-31T14:50:33.453</time></trkpt><trkpt lat="55.6578280" lon="38.5036900"><time>2020-10-31T14:50:35.460</time></trkpt><trkpt lat="55.6577570" lon="38.5038050"><time>2020-10-31T14:50:45.463</time></trkpt><trkpt lat="55.6577420" lon="38.5038820"><time>2020-10-31T14:50:48.460</time></trkpt><trkpt lat="55.6577330" lon="38.5040630"><time>2020-10-31T14:50:56.463</time></trkpt><trkpt lat="55.6576980" lon="38.5042830"><time>2020-10-31T14:51:09.463</time></trkpt><trkpt lat="55.6576620" lon="38.5043430"><time>2020-10-31T14:51:11.467</time></trkpt><trkpt lat="55.6575850" lon="38.5045300"><time>2020-10-31T14:51:25.467</time></trkpt><trkpt lat="55.6575230" lon="38.5047120"><time>2020-10-31T14:51:47.463</time></trkpt><trkpt lat="55.6575580" lon="38.5047770"><time>2020-10-31T14:51:48.460</time></trkpt><trkpt lat="55.6576500" lon="38.5049000"><time>2020-10-31T14:51:56.460</time></trkpt><trkpt lat="55.6578050" lon="38.5050580"><time>2020-10-31T14:51:57.467</time></trkpt><trkpt lat="55.6577480" lon="38.5050780"><time>2020-10-31T14:52:12.463</time></trkpt><trkpt lat="55.6577870" lon="38.5052650"><time>2020-10-31T14:52:26.463</time></trkpt><trkpt lat="55.6577350" lon="38.5052630"><time>2020-10-31T14:52:32.467</time></trkpt><trkpt lat="55.6576900" lon="38.5052780"><time>2020-10-31T14:52:40.467</time></trkpt><trkpt lat="55.6577800" lon="38.5053980"><time>2020-10-31T14:52:59.467</time></trkpt><trkpt lat="55.6578470" lon="38.5055880"><time>2020-10-31T14:53:15.460</time></trkpt><trkpt lat="55.6579480" lon="38.5057600"><time>2020-10-31T14:53:25.467</time></trkpt><trkpt lat="55.6580020" lon="38.5057930"><time>2020-10-31T14:53:27.463</time></trkpt><trkpt lat="55.6580520" lon="38.5059720"><time>2020-10-31T14:53:52.463</time></trkpt><trkpt lat="55.6581350" lon="38.5061230"><time>2020-10-31T14:54:11.463</time></trkpt><trkpt lat="55.6582280" lon="38.5061870"><time>2020-10-31T14:54:32.467</time></trkpt><trkpt lat="55.6582730" lon="38.5062250"><time>2020-10-31T14:54:34.463</time></trkpt><trkpt lat="55.6582570" lon="38.5063350"><time>2020-10-31T14:54:44.467</time></trkpt><trkpt lat="55.6582820" lon="38.5064130"><time>2020-10-31T14:54:48.467</time></trkpt><trkpt lat="55.6583330" lon="38.5065270"><time>2020-10-31T14:54:50.467</time></trkpt><trkpt lat="55.6584130" lon="38.5067300"><time>2020-10-31T14:55:16.463</time></trkpt><trkpt lat="55.6584570" lon="38.5067830"><time>2020-10-31T14:55:19.463</time></trkpt><trkpt lat="55.6585270" lon="38.5068900"><time>2020-10-31T14:55:27.463</time></trkpt><trkpt lat="55.6586300" lon="38.5069320"><time>2020-10-31T14:55:38.467</time></trkpt><trkpt lat="55.6586800" lon="38.5069720"><time>2020-10-31T14:55:40.467</time></trkpt><trkpt lat="55.6587330" lon="38.5070100"><time>2020-10-31T14:55:42.463</time></trkpt><trkpt lat="55.6587730" lon="38.5070650"><time>2020-10-31T14:55:45.463</time></trkpt><trkpt lat="55.6588430" lon="38.5071630"><time>2020-10-31T14:56:06.467</time></trkpt><trkpt lat="55.6588970" lon="38.5071670"><time>2020-10-31T14:56:09.467</time></trkpt><trkpt lat="55.6589970" lon="38.5072600"><time>2020-10-31T14:56:15.463</time></trkpt><trkpt lat="55.6590420" lon="38.5074070"><time>2020-10-31T14:56:28.467</time></trkpt><trkpt lat="55.6590650" lon="38.5074780"><time>2020-10-31T14:56:34.467</time></trkpt><trkpt lat="55.6590980" lon="38.5075500"><time>2020-10-31T14:56:37.467</time></trkpt><trkpt lat="55.6591650" lon="38.5077320"><time>2020-10-31T14:56:55.463</time></trkpt><trkpt lat="55.6592120" lon="38.5079280"><time>2020-10-31T14:57:12.463</time></trkpt><trkpt lat="55.6592880" lon="38.5080630"><time>2020-10-31T14:57:20.463</time></trkpt><trkpt lat="55.6594170" lon="38.5081730"><time>2020-10-31T14:57:57.467</time></trkpt><trkpt lat="55.6594620" lon="38.5082050"><time>2020-10-31T14:58:16.463</time></trkpt><trkpt lat="55.6595250" lon="38.5081980"><time>2020-10-31T14:58:24.467</time></trkpt><trkpt lat="55.6594750" lon="38.5080870"><time>2020-10-31T14:58:42.463</time></trkpt><trkpt lat="55.6595420" lon="38.5079980"><time>2020-10-31T14:59:01.467</time></trkpt><trkpt lat="55.6596220" lon="38.5078600"><time>2020-10-31T14:59:13.467</time></trkpt><trkpt lat="55.6595950" lon="38.5077470"><time>2020-10-31T14:59:19.467</time></trkpt><trkpt lat="55.6595570" lon="38.5076620"><time>2020-10-31T14:59:22.467</time></trkpt><trkpt lat="55.6596450" lon="38.5077020"><time>2020-10-31T14:59:48.463</time></trkpt><trkpt lat="55.6596930" lon="38.5078130"><time>2020-10-31T14:59:55.467</time></trkpt><trkpt lat="55.6597870" lon="38.5079920"><time>2020-10-31T15:00:13.467</time></trkpt><trkpt lat="55.6598120" lon="38.5081900"><time>2020-10-31T15:00:32.467</time></trkpt><trkpt lat="55.6598870" lon="38.5083730"><time>2020-10-31T15:00:44.467</time></trkpt><trkpt lat="55.6599220" lon="38.5085870"><time>2020-10-31T15:00:59.467</time></trkpt><trkpt lat="55.6599220" lon="38.5088020"><time>2020-10-31T15:01:18.467</time></trkpt><trkpt lat="55.6600130" lon="38.5089200"><time>2020-10-31T15:01:32.467</time></trkpt><trkpt lat="55.6600520" lon="38.5089820"><time>2020-10-31T15:01:35.467</time></trkpt><trkpt lat="55.6600720" lon="38.5091500"><time>2020-10-31T15:01:55.467</time></trkpt><trkpt lat="55.6601800" lon="38.5091830"><time>2020-10-31T15:02:02.467</time></trkpt><trkpt lat="55.6603050" lon="38.5091430"><time>2020-10-31T15:02:19.467</time></trkpt><trkpt lat="55.6603970" lon="38.5090700"><time>2020-10-31T15:02:50.467</time></trkpt><trkpt lat="55.6605170" lon="38.5091500"><time>2020-10-31T15:03:02.467</time></trkpt><trkpt lat="55.6605950" lon="38.5092480"><time>2020-10-31T15:03:26.467</time></trkpt><trkpt lat="55.6606430" lon="38.5092830"><time>2020-10-31T15:03:42.467</time></trkpt><trkpt lat="55.6607550" lon="38.5093770"><time>2020-10-31T15:03:55.470</time></trkpt><trkpt lat="55.6608250" lon="38.5095270"><time>2020-10-31T15:04:12.467</time></trkpt><trkpt lat="55.6609030" lon="38.5097030"><time>2020-10-31T15:04:31.473</time></trkpt><trkpt lat="55.6609470" lon="38.5098430"><time>2020-10-31T15:04:38.470</time></trkpt><trkpt lat="55.6609670" lon="38.5100450"><time>2020-10-31T15:05:24.467</time></trkpt><trkpt lat="55.6610380" lon="38.5102030"><time>2020-10-31T15:05:47.467</time></trkpt><trkpt lat="55.6610380" lon="38.5103930"><time>2020-10-31T15:06:21.470</time></trkpt><trkpt lat="55.6610020" lon="38.5105480"><time>2020-10-31T15:06:49.467</time></trkpt><trkpt lat="55.6610480" lon="38.5107300"><time>2020-10-31T15:07:10.427</time></trkpt><trkpt lat="55.6610580" lon="38.5108120"><time>2020-10-31T15:07:12.433</time></trkpt><trkpt lat="55.6610430" lon="38.5109230"><time>2020-10-31T15:07:16.470</time></trkpt><trkpt lat="55.6610120" lon="38.5110000"><time>2020-10-31T15:07:19.467</time></trkpt><trkpt lat="55.6610880" lon="38.5111030"><time>2020-10-31T15:07:41.467</time></trkpt><trkpt lat="55.6611150" lon="38.5113080"><time>2020-10-31T15:08:00.467</time></trkpt><trkpt lat="55.6611870" lon="38.5114720"><time>2020-10-31T15:08:23.467</time></trkpt><trkpt lat="55.6612720" lon="38.5114130"><time>2020-10-31T15:08:34.470</time></trkpt><trkpt lat="55.6613650" lon="38.5112480"><time>2020-10-31T15:08:57.477</time></trkpt><trkpt lat="55.6614730" lon="38.5111830"><time>2020-10-31T15:09:11.470</time></trkpt><trkpt lat="55.6615570" lon="38.5109830"><time>2020-10-31T15:09:28.460</time></trkpt><trkpt lat="55.6616300" lon="38.5108350"><time>2020-10-31T15:09:42.467</time></trkpt><trkpt lat="55.6616530" lon="38.5109620"><time>2020-10-31T15:10:30.470</time></trkpt><trkpt lat="55.6615830" lon="38.5110930"><time>2020-10-31T15:10:52.470</time></trkpt><trkpt lat="55.6616270" lon="38.5112550"><time>2020-10-31T15:11:28.470</time></trkpt><trkpt lat="55.6616950" lon="38.5113970"><time>2020-10-31T15:11:51.477</time></trkpt><trkpt lat="55.6617330" lon="38.5115630"><time>2020-10-31T15:12:08.470</time></trkpt><trkpt lat="55.6617880" lon="38.5117380"><time>2020-10-31T15:12:21.467</time></trkpt><trkpt lat="55.6618350" lon="38.5119200"><time>2020-10-31T15:12:33.473</time></trkpt><trkpt lat="55.6618920" lon="38.5121170"><time>2020-10-31T15:12:50.470</time></trkpt><trkpt lat="55.6619780" lon="38.5122420"><time>2020-10-31T15:13:10.470</time></trkpt><trkpt lat="55.6620770" lon="38.5123150"><time>2020-10-31T15:13:24.470</time></trkpt><trkpt lat="55.6621870" lon="38.5123870"><time>2020-10-31T15:13:37.470</time></trkpt><trkpt lat="55.6622900" lon="38.5124720"><time>2020-10-31T15:13:49.470</time></trkpt><trkpt lat="55.6623950" lon="38.5125170"><time>2020-10-31T15:14:01.467</time></trkpt><trkpt lat="55.6624570" lon="38.5125530"><time>2020-10-31T15:14:03.473</time></trkpt><trkpt lat="55.6625720" lon="38.5125770"><time>2020-10-31T15:14:20.473</time></trkpt><trkpt lat="55.6626930" lon="38.5126000"><time>2020-10-31T15:14:40.470</time></trkpt><trkpt lat="55.6628150" lon="38.5126770"><time>2020-10-31T15:14:59.470</time></trkpt><trkpt lat="55.6629250" lon="38.5127980"><time>2020-10-31T15:15:11.470</time></trkpt><trkpt lat="55.6629680" lon="38.5129850"><time>2020-10-31T15:15:27.467</time></trkpt><trkpt lat="55.6630370" lon="38.5131050"><time>2020-10-31T15:15:45.470</time></trkpt><trkpt lat="55.6631020" lon="38.5132780"><time>2020-10-31T15:15:59.470</time></trkpt><trkpt lat="55.6631730" lon="38.5134530"><time>2020-10-31T15:16:11.470</time></trkpt><trkpt lat="55.6631500" lon="38.5136320"><time>2020-10-31T15:16:32.467</time></trkpt><trkpt lat="55.6631180" lon="38.5136920"><time>2020-10-31T15:16:35.470</time></trkpt><trkpt lat="55.6630800" lon="38.5138420"><time>2020-10-31T15:16:49.470</time></trkpt><trkpt lat="55.6629830" lon="38.5138480"><time>2020-10-31T15:17:20.470</time></trkpt><trkpt lat="55.6629000" lon="38.5139120"><time>2020-10-31T15:17:42.467</time></trkpt><trkpt lat="55.6628380" lon="38.5140680"><time>2020-10-31T15:18:01.450</time></trkpt><trkpt lat="55.6627450" lon="38.5142120"><time>2020-10-31T15:18:24.470</time></trkpt><trkpt lat="55.6626350" lon="38.5143230"><time>2020-10-31T15:18:37.470</time></trkpt><trkpt lat="55.6625600" lon="38.5144650"><time>2020-10-31T15:19:33.473</time></trkpt><trkpt lat="55.6624580" lon="38.5144280"><time>2020-10-31T15:20:10.470</time></trkpt><trkpt lat="55.6623370" lon="38.5143650"><time>2020-10-31T15:20:35.470</time></trkpt><trkpt lat="55.6622470" lon="38.5144720"><time>2020-10-31T15:20:59.470</time></trkpt><trkpt lat="55.6621550" lon="38.5146030"><time>2020-10-31T15:21:17.470</time></trkpt><trkpt lat="55.6622180" lon="38.5146070"><time>2020-10-31T15:22:18.470</time></trkpt><trkpt lat="55.6623230" lon="38.5146070"><time>2020-10-31T15:22:39.473</time></trkpt><trkpt lat="55.6624100" lon="38.5144980"><time>2020-10-31T15:23:12.473</time></trkpt><trkpt lat="55.6625030" lon="38.5143720"><time>2020-10-31T15:23:32.470</time></trkpt><trkpt lat="55.6625950" lon="38.5143180"><time>2020-10-31T15:23:40.473</time></trkpt><trkpt lat="55.6626870" lon="38.5141800"><time>2020-10-31T15:23:56.477</time></trkpt><trkpt lat="55.6627880" lon="38.5141800"><time>2020-10-31T15:24:15.473</time></trkpt><trkpt lat="55.6629070" lon="38.5141730"><time>2020-10-31T15:24:36.473</time></trkpt><trkpt lat="55.6630330" lon="38.5141100"><time>2020-10-31T15:25:05.473</time></trkpt><trkpt lat="55.6631530" lon="38.5141100"><time>2020-10-31T15:25:21.473</time></trkpt><trkpt lat="55.6632070" lon="38.5141150"><time>2020-10-31T15:25:24.473</time></trkpt><trkpt lat="55.6632950" lon="38.5140600"><time>2020-10-31T15:25:47.470</time></trkpt><trkpt lat="55.6633730" lon="38.5141950"><time>2020-10-31T15:26:02.473</time></trkpt><trkpt lat="55.6634800" lon="38.5142750"><time>2020-10-31T15:26:17.470</time></trkpt><trkpt lat="55.6635970" lon="38.5143370"><time>2020-10-31T15:26:26.473</time></trkpt><trkpt lat="55.6637320" lon="38.5143580"><time>2020-10-31T15:26:49.473</time></trkpt><trkpt lat="55.6638170" lon="38.5144950"><time>2020-10-31T15:27:22.477</time></trkpt><trkpt lat="55.6639100" lon="38.5145500"><time>2020-10-31T15:27:52.473</time></trkpt><trkpt lat="55.6640250" lon="38.5145900"><time>2020-10-31T15:28:11.473</time></trkpt><trkpt lat="55.6641250" lon="38.5146180"><time>2020-10-31T15:28:35.477</time></trkpt><trkpt lat="55.6642230" lon="38.5145280"><time>2020-10-31T15:29:00.473</time></trkpt><trkpt lat="55.6643220" lon="38.5144100"><time>2020-10-31T15:29:11.473</time></trkpt><trkpt lat="55.6643980" lon="38.5142680"><time>2020-10-31T15:29:29.473</time></trkpt><trkpt lat="55.6645100" lon="38.5142600"><time>2020-10-31T15:29:40.470</time></trkpt><trkpt lat="55.6646350" lon="38.5143500"><time>2020-10-31T15:30:22.473</time></trkpt><trkpt lat="55.6646830" lon="38.5144870"><time>2020-10-31T15:30:40.477</time></trkpt><trkpt lat="55.6646920" lon="38.5146730"><time>2020-10-31T15:30:57.480</time></trkpt><trkpt lat="55.6646750" lon="38.5148930"><time>2020-10-31T15:31:13.480</time></trkpt><trkpt lat="55.6646380" lon="38.5150850"><time>2020-10-31T15:31:28.473</time></trkpt><trkpt lat="55.6645750" lon="38.5152550"><time>2020-10-31T15:31:41.477</time></trkpt><trkpt lat="55.6645550" lon="38.5154580"><time>2020-10-31T15:31:52.477</time></trkpt><trkpt lat="55.6645080" lon="38.5156720"><time>2020-10-31T15:32:03.477</time></trkpt><trkpt lat="55.6644720" lon="38.5159150"><time>2020-10-31T15:32:15.477</time></trkpt><trkpt lat="55.6644330" lon="38.5161180"><time>2020-10-31T15:32:28.477</time></trkpt><trkpt lat="55.6643970" lon="38.5163250"><time>2020-10-31T15:32:39.477</time></trkpt><trkpt lat="55.6643700" lon="38.5164970"><time>2020-10-31T15:32:46.477</time></trkpt><trkpt lat="55.6643670" lon="38.5166120"><time>2020-10-31T15:32:49.477</time></trkpt><trkpt lat="55.6643580" lon="38.5167750"><time>2020-10-31T15:32:57.453</time></trkpt><trkpt lat="55.6643580" lon="38.5168570"><time>2020-10-31T15:33:00.477</time></trkpt><trkpt lat="55.6643670" lon="38.5170280"><time>2020-10-31T15:33:07.477</time></trkpt><trkpt lat="55.6643200" lon="38.5172200"><time>2020-10-31T15:33:22.477</time></trkpt><trkpt lat="55.6642930" lon="38.5174250"><time>2020-10-31T15:33:47.473</time></trkpt><trkpt lat="55.6642900" lon="38.5176220"><time>2020-10-31T15:34:03.473</time></trkpt><trkpt lat="55.6642480" lon="38.5178280"><time>2020-10-31T15:34:15.477</time></trkpt><trkpt lat="55.6642600" lon="38.5179080"><time>2020-10-31T15:34:18.473</time></trkpt><trkpt lat="55.6642720" lon="38.5180800"><time>2020-10-31T15:34:27.477</time></trkpt><trkpt lat="55.6642850" lon="38.5183170"><time>2020-10-31T15:34:36.477</time></trkpt><trkpt lat="55.6642780" lon="38.5184030"><time>2020-10-31T15:34:39.470</time></trkpt><trkpt lat="55.6642930" lon="38.5185630"><time>2020-10-31T15:34:46.553</time></trkpt><trkpt lat="55.6642870" lon="38.5186470"><time>2020-10-31T15:34:49.480</time></trkpt><trkpt lat="55.6643070" lon="38.5187330"><time>2020-10-31T15:34:52.473</time></trkpt><trkpt lat="55.6643220" lon="38.5188230"><time>2020-10-31T15:34:54.473</time></trkpt><trkpt lat="55.6642980" lon="38.5190220"><time>2020-10-31T15:35:03.473</time></trkpt><trkpt lat="55.6643080" lon="38.5192230"><time>2020-10-31T15:35:14.473</time></trkpt><trkpt lat="55.6643070" lon="38.5193370"><time>2020-10-31T15:35:17.473</time></trkpt><trkpt lat="55.6643320" lon="38.5195320"><time>2020-10-31T15:35:27.480</time></trkpt><trkpt lat="55.6643170" lon="38.5197480"><time>2020-10-31T15:35:37.477</time></trkpt><trkpt lat="55.6642970" lon="38.5198300"><time>2020-10-31T15:35:40.477</time></trkpt><trkpt lat="55.6643050" lon="38.5199920"><time>2020-10-31T15:35:49.477</time></trkpt><trkpt lat="55.6643200" lon="38.5202220"><time>2020-10-31T15:36:01.480</time></trkpt><trkpt lat="55.6643800" lon="38.5204520"><time>2020-10-31T15:36:14.477</time></trkpt><trkpt lat="55.6644280" lon="38.5206780"><time>2020-10-31T15:36:25.477</time></trkpt><trkpt lat="55.6644550" lon="38.5209130"><time>2020-10-31T15:36:35.477</time></trkpt><trkpt lat="55.6645250" lon="38.5211230"><time>2020-10-31T15:36:45.477</time></trkpt><trkpt lat="55.6645550" lon="38.5212070"><time>2020-10-31T15:36:47.473</time></trkpt><trkpt lat="55.6645870" lon="38.5212850"><time>2020-10-31T15:36:50.477</time></trkpt><trkpt lat="55.6646630" lon="38.5213800"><time>2020-10-31T15:37:00.477</time></trkpt><trkpt lat="55.6647480" lon="38.5215370"><time>2020-10-31T15:37:14.477</time></trkpt><trkpt lat="55.6647930" lon="38.5215870"><time>2020-10-31T15:37:17.477</time></trkpt><trkpt lat="55.6648650" lon="38.5216950"><time>2020-10-31T15:37:30.473</time></trkpt><trkpt lat="55.6649630" lon="38.5218280"><time>2020-10-31T15:37:43.477</time></trkpt><trkpt lat="55.6650480" lon="38.5219800"><time>2020-10-31T15:37:53.477</time></trkpt><trkpt lat="55.6651230" lon="38.5221700"><time>2020-10-31T15:38:12.477</time></trkpt><trkpt lat="55.6651570" lon="38.5222270"><time>2020-10-31T15:38:15.477</time></trkpt><trkpt lat="55.6652270" lon="38.5223580"><time>2020-10-31T15:38:22.477</time></trkpt><trkpt lat="55.6652500" lon="38.5224320"><time>2020-10-31T15:38:25.477</time></trkpt><trkpt lat="55.6653020" lon="38.5225770"><time>2020-10-31T15:38:32.477</time></trkpt><trkpt lat="55.6653730" lon="38.5227680"><time>2020-10-31T15:38:42.473</time></trkpt><trkpt lat="55.6654580" lon="38.5228470"><time>2020-10-31T15:38:45.483</time></trkpt><trkpt lat="55.6654920" lon="38.5229030"><time>2020-10-31T15:38:48.480</time></trkpt><trkpt lat="55.6655170" lon="38.5230620"><time>2020-10-31T15:38:55.477</time></trkpt><trkpt lat="55.6655730" lon="38.5232920"><time>2020-10-31T15:39:04.477</time></trkpt><trkpt lat="55.6656300" lon="38.5234920"><time>2020-10-31T15:39:14.477</time></trkpt><trkpt lat="55.6656580" lon="38.5237070"><time>2020-10-31T15:39:31.477</time></trkpt><trkpt lat="55.6656270" lon="38.5238780"><time>2020-10-31T15:39:47.663</time></trkpt><trkpt lat="55.6655350" lon="38.5240170"><time>2020-10-31T15:39:59.477</time></trkpt><trkpt lat="55.6654350" lon="38.5241120"><time>2020-10-31T15:40:15.477</time></trkpt><trkpt lat="55.6653620" lon="38.5241930"><time>2020-10-31T15:40:25.477</time></trkpt><trkpt lat="55.6652500" lon="38.5243550"><time>2020-10-31T15:40:43.483</time></trkpt><trkpt lat="55.6651770" lon="38.5245500"><time>2020-10-31T15:40:55.487</time></trkpt><trkpt lat="55.6650680" lon="38.5246030"><time>2020-10-31T15:41:09.480</time></trkpt><trkpt lat="55.6649600" lon="38.5246780"><time>2020-10-31T15:41:23.480</time></trkpt><trkpt lat="55.6648870" lon="38.5248470"><time>2020-10-31T15:41:37.480</time></trkpt><trkpt lat="55.6648430" lon="38.5250200"><time>2020-10-31T15:41:50.477</time></trkpt><trkpt lat="55.6647780" lon="38.5252000"><time>2020-10-31T15:42:06.480</time></trkpt><trkpt lat="55.6646750" lon="38.5253450"><time>2020-10-31T15:42:20.477</time></trkpt><trkpt lat="55.6646070" lon="38.5253750"><time>2020-10-31T15:42:25.477</time></trkpt><trkpt lat="55.6645000" lon="38.5255170"><time>2020-10-31T15:42:35.477</time></trkpt><trkpt lat="55.6643880" lon="38.5256420"><time>2020-10-31T15:42:45.477</time></trkpt><trkpt lat="55.6642770" lon="38.5257280"><time>2020-10-31T15:42:56.477</time></trkpt><trkpt lat="55.6641880" lon="38.5258920"><time>2020-10-31T15:43:03.477</time></trkpt><trkpt lat="55.6641650" lon="38.5259750"><time>2020-10-31T15:43:05.477</time></trkpt><trkpt lat="55.6640670" lon="38.5261300"><time>2020-10-31T15:43:11.477</time></trkpt><trkpt lat="55.6640220" lon="38.5261500"><time>2020-10-31T15:43:14.477</time></trkpt><trkpt lat="55.6639330" lon="38.5261900"><time>2020-10-31T15:43:19.477</time></trkpt><trkpt lat="55.6638130" lon="38.5260820"><time>2020-10-31T15:43:31.477</time></trkpt><trkpt lat="55.6637050" lon="38.5260020"><time>2020-10-31T15:43:46.477</time></trkpt><trkpt lat="55.6635720" lon="38.5259320"><time>2020-10-31T15:43:55.477</time></trkpt><trkpt lat="55.6635150" lon="38.5259220"><time>2020-10-31T15:43:58.477</time></trkpt><trkpt lat="55.6634670" lon="38.5259030"><time>2020-10-31T15:44:00.477</time></trkpt><trkpt lat="55.6633350" lon="38.5259030"><time>2020-10-31T15:44:11.480</time></trkpt><trkpt lat="55.6632050" lon="38.5258720"><time>2020-10-31T15:44:24.480</time></trkpt><trkpt lat="55.6630730" lon="38.5258300"><time>2020-10-31T15:44:37.483</time></trkpt><trkpt lat="55.6629480" lon="38.5258120"><time>2020-10-31T15:44:48.477</time></trkpt><trkpt lat="55.6628130" lon="38.5258250"><time>2020-10-31T15:44:58.477</time></trkpt><trkpt lat="55.6627670" lon="38.5258300"><time>2020-10-31T15:45:01.480</time></trkpt><trkpt lat="55.6626720" lon="38.5258300"><time>2020-10-31T15:45:07.477</time></trkpt><trkpt lat="55.6626250" lon="38.5258280"><time>2020-10-31T15:45:10.477</time></trkpt><trkpt lat="55.6625250" lon="38.5258500"><time>2020-10-31T15:45:19.480</time></trkpt><trkpt lat="55.6623900" lon="38.5258380"><time>2020-10-31T15:45:30.477</time></trkpt><trkpt lat="55.6622500" lon="38.5258450"><time>2020-10-31T15:45:42.480</time></trkpt><trkpt lat="55.6621300" lon="38.5258570"><time>2020-10-31T15:45:53.477</time></trkpt><trkpt lat="55.6620050" lon="38.5257880"><time>2020-10-31T15:46:06.477</time></trkpt><trkpt lat="55.6618950" lon="38.5256850"><time>2020-10-31T15:46:21.483</time></trkpt><trkpt lat="55.6618420" lon="38.5254780"><time>2020-10-31T15:46:37.480</time></trkpt><trkpt lat="55.6617500" lon="38.5253580"><time>2020-10-31T15:46:55.480</time></trkpt><trkpt lat="55.6616570" lon="38.5254380"><time>2020-10-31T15:47:11.477</time></trkpt><trkpt lat="55.6615480" lon="38.5254950"><time>2020-10-31T15:47:21.477</time></trkpt><trkpt lat="55.6614250" lon="38.5255800"><time>2020-10-31T15:47:35.477</time></trkpt><trkpt lat="55.6613250" lon="38.5256630"><time>2020-10-31T15:47:55.477</time></trkpt><trkpt lat="55.6612070" lon="38.5257600"><time>2020-10-31T15:48:08.440</time></trkpt><trkpt lat="55.6611520" lon="38.5258170"><time>2020-10-31T15:48:10.477</time></trkpt><trkpt lat="55.6611350" lon="38.5259350"><time>2020-10-31T15:48:11.477</time></trkpt><trkpt lat="55.6611030" lon="38.5260130"><time>2020-10-31T15:48:12.480</time></trkpt><trkpt lat="55.6610850" lon="38.5260930"><time>2020-10-31T15:48:13.473</time></trkpt><trkpt lat="55.6610080" lon="38.5261630"><time>2020-10-31T15:48:32.477</time></trkpt><trkpt lat="55.6609030" lon="38.5262400"><time>2020-10-31T15:48:49.477</time></trkpt><trkpt lat="55.6607850" lon="38.5263020"><time>2020-10-31T15:49:04.477</time></trkpt><trkpt lat="55.6606670" lon="38.5263830"><time>2020-10-31T15:49:15.480</time></trkpt><trkpt lat="55.6606180" lon="38.5264230"><time>2020-10-31T15:49:17.477</time></trkpt><trkpt lat="55.6605820" lon="38.5264830"><time>2020-10-31T15:49:20.477</time></trkpt><trkpt lat="55.6604850" lon="38.5265520"><time>2020-10-31T15:49:28.480</time></trkpt><trkpt lat="55.6603870" lon="38.5266880"><time>2020-10-31T15:49:37.477</time></trkpt><trkpt lat="55.6602750" lon="38.5268220"><time>2020-10-31T15:49:48.480</time></trkpt><trkpt lat="55.6601450" lon="38.5269630"><time>2020-10-31T15:49:56.480</time></trkpt><trkpt lat="55.6601080" lon="38.5270100"><time>2020-10-31T15:49:59.480</time></trkpt><trkpt lat="55.6600200" lon="38.5270750"><time>2020-10-31T15:50:08.480</time></trkpt><trkpt lat="55.6599800" lon="38.5271450"><time>2020-10-31T15:50:10.477</time></trkpt><trkpt lat="55.6598820" lon="38.5272870"><time>2020-10-31T15:50:21.480</time></trkpt><trkpt lat="55.6597830" lon="38.5274000"><time>2020-10-31T15:50:31.480</time></trkpt><trkpt lat="55.6597380" lon="38.5274270"><time>2020-10-31T15:50:34.480</time></trkpt><trkpt lat="55.6596500" lon="38.5275000"><time>2020-10-31T15:50:43.480</time></trkpt><trkpt lat="55.6595530" lon="38.5276200"><time>2020-10-31T15:50:54.483</time></trkpt><trkpt lat="55.6595120" lon="38.5276850"><time>2020-10-31T15:50:56.480</time></trkpt><trkpt lat="55.6594630" lon="38.5277620"><time>2020-10-31T15:50:58.483</time></trkpt><trkpt lat="55.6594250" lon="38.5278180"><time>2020-10-31T15:51:00.477</time></trkpt><trkpt lat="55.6593650" lon="38.5278950"><time>2020-10-31T15:51:03.480</time></trkpt><trkpt lat="55.6593270" lon="38.5279430"><time>2020-10-31T15:51:05.483</time></trkpt><trkpt lat="55.6592270" lon="38.5280270"><time>2020-10-31T15:51:14.477</time></trkpt><trkpt lat="55.6591220" lon="38.5281570"><time>2020-10-31T15:51:28.483</time></trkpt><trkpt lat="55.6590770" lon="38.5281880"><time>2020-10-31T15:51:31.483</time></trkpt><trkpt lat="55.6589920" lon="38.5282780"><time>2020-10-31T15:51:39.483</time></trkpt><trkpt lat="55.6589000" lon="38.5284070"><time>2020-10-31T15:51:51.483</time></trkpt><trkpt lat="55.6588650" lon="38.5284580"><time>2020-10-31T15:51:54.480</time></trkpt><trkpt lat="55.6587820" lon="38.5285580"><time>2020-10-31T15:52:01.477</time></trkpt><trkpt lat="55.6586750" lon="38.5287130"><time>2020-10-31T15:52:09.483</time></trkpt><trkpt lat="55.6586350" lon="38.5287580"><time>2020-10-31T15:52:12.480</time></trkpt><trkpt lat="55.6585400" lon="38.5288400"><time>2020-10-31T15:52:19.480</time></trkpt><trkpt lat="55.6584350" lon="38.5289870"><time>2020-10-31T15:52:31.483</time></trkpt><trkpt lat="55.6583370" lon="38.5291070"><time>2020-10-31T15:52:41.480</time></trkpt><trkpt lat="55.6582780" lon="38.5291850"><time>2020-10-31T15:52:44.480</time></trkpt><trkpt lat="55.6581970" lon="38.5292880"><time>2020-10-31T15:52:51.480</time></trkpt><trkpt lat="55.6580770" lon="38.5294250"><time>2020-10-31T15:53:01.480</time></trkpt><trkpt lat="55.6580280" lon="38.5294800"><time>2020-10-31T15:53:04.480</time></trkpt><trkpt lat="55.6579530" lon="38.5295870"><time>2020-10-31T15:53:12.480</time></trkpt><trkpt lat="55.6579120" lon="38.5296500"><time>2020-10-31T15:53:15.483</time></trkpt><trkpt lat="55.6578370" lon="38.5297450"><time>2020-10-31T15:53:22.483</time></trkpt><trkpt lat="55.6577180" lon="38.5298680"><time>2020-10-31T15:53:31.483</time></trkpt><trkpt lat="55.6576700" lon="38.5299120"><time>2020-10-31T15:53:34.480</time></trkpt><trkpt lat="55.6575880" lon="38.5300500"><time>2020-10-31T15:53:40.483</time></trkpt><trkpt lat="55.6575500" lon="38.5301080"><time>2020-10-31T15:53:43.480</time></trkpt><trkpt lat="55.6574600" lon="38.5302320"><time>2020-10-31T15:53:48.480</time></trkpt><trkpt lat="55.6574150" lon="38.5302770"><time>2020-10-31T15:53:51.480</time></trkpt><trkpt lat="55.6573230" lon="38.5303720"><time>2020-10-31T15:53:58.477</time></trkpt><trkpt lat="55.6572830" lon="38.5304250"><time>2020-10-31T15:54:01.483</time></trkpt><trkpt lat="55.6572030" lon="38.5305370"><time>2020-10-31T15:54:07.477</time></trkpt><trkpt lat="55.6570870" lon="38.5306620"><time>2020-10-31T15:54:18.480</time></trkpt><trkpt lat="55.6569680" lon="38.5307730"><time>2020-10-31T15:54:29.480</time></trkpt><trkpt lat="55.6569280" lon="38.5308150"><time>2020-10-31T15:54:32.480</time></trkpt><trkpt lat="55.6568520" lon="38.5309100"><time>2020-10-31T15:54:38.480</time></trkpt><trkpt lat="55.6568170" lon="38.5309620"><time>2020-10-31T15:54:41.480</time></trkpt><trkpt lat="55.6567300" lon="38.5310420"><time>2020-10-31T15:54:47.480</time></trkpt><trkpt lat="55.6566850" lon="38.5311130"><time>2020-10-31T15:54:49.480</time></trkpt><trkpt lat="55.6565880" lon="38.5312130"><time>2020-10-31T15:54:56.480</time></trkpt><trkpt lat="55.6565270" lon="38.5312820"><time>2020-10-31T15:54:59.480</time></trkpt><trkpt lat="55.6564780" lon="38.5313470"><time>2020-10-31T15:55:01.480</time></trkpt><trkpt lat="55.6564350" lon="38.5314000"><time>2020-10-31T15:55:04.483</time></trkpt><trkpt lat="55.6563970" lon="38.5314520"><time>2020-10-31T15:55:07.477</time></trkpt><trkpt lat="55.6563020" lon="38.5315670"><time>2020-10-31T15:55:19.483</time></trkpt><trkpt lat="55.6561870" lon="38.5316680"><time>2020-10-31T15:55:30.483</time></trkpt><trkpt lat="55.6561430" lon="38.5316920"><time>2020-10-31T15:55:33.483</time></trkpt><trkpt lat="55.6560620" lon="38.5317580"><time>2020-10-31T15:55:38.480</time></trkpt><trkpt lat="55.6559420" lon="38.5318530"><time>2020-10-31T15:55:46.483</time></trkpt><trkpt lat="55.6558320" lon="38.5320130"><time>2020-10-31T15:55:57.487</time></trkpt><trkpt lat="55.6557920" lon="38.5320550"><time>2020-10-31T15:56:00.487</time></trkpt><trkpt lat="55.6557320" lon="38.5321330"><time>2020-10-31T15:56:04.483</time></trkpt><trkpt lat="55.6556300" lon="38.5322730"><time>2020-10-31T15:56:13.483</time></trkpt><trkpt lat="55.6555320" lon="38.5324370"><time>2020-10-31T15:56:25.480</time></trkpt><trkpt lat="55.6554380" lon="38.5325880"><time>2020-10-31T15:56:36.480</time></trkpt><trkpt lat="55.6553330" lon="38.5327380"><time>2020-10-31T15:56:50.480</time></trkpt><trkpt lat="55.6552170" lon="38.5328080"><time>2020-10-31T15:57:06.467</time></trkpt><trkpt lat="55.6552900" lon="38.5329280"><time>2020-10-31T15:57:26.480</time></trkpt><trkpt lat="55.6552730" lon="38.5330870"><time>2020-10-31T15:59:02.443</time></trkpt><trkpt lat="55.6552700" lon="38.5331850"><time>2020-10-31T15:59:05.433</time></trkpt><trkpt lat="55.6552330" lon="38.5330800"><time>2020-10-31T15:59:08.437</time></trkpt><trkpt lat="55.6552270" lon="38.5332030"><time>2020-10-31T15:59:10.440</time></trkpt><trkpt lat="55.6552280" lon="38.5333130"><time>2020-10-31T15:59:11.440</time></trkpt><trkpt lat="55.6552320" lon="38.5333920"><time>2020-10-31T15:59:14.660</time></trkpt><trkpt lat="55.6550220" lon="38.5338050"><time>2020-10-31T15:59:15.430</time></trkpt><trkpt lat="55.6551570" lon="38.5335380"><time>2020-10-31T15:59:16.430</time></trkpt><trkpt lat="55.6552000" lon="38.5334570"><time>2020-10-31T15:59:17.437</time></trkpt><trkpt lat="55.6551900" lon="38.5332470"><time>2020-10-31T15:59:18.513</time></trkpt><trkpt lat="55.6553530" lon="38.5327630"><time>2020-10-31T15:59:19.437</time></trkpt><trkpt lat="55.6553500" lon="38.5325870"><time>2020-10-31T15:59:20.433</time></trkpt><trkpt lat="55.6553600" lon="38.5325000"><time>2020-10-31T15:59:22.430</time></trkpt><trkpt lat="55.6553380" lon="38.5325800"><time>2020-10-31T15:59:24.433</time></trkpt><trkpt lat="55.6553120" lon="38.5326650"><time>2020-10-31T15:59:26.430</time></trkpt><trkpt lat="55.6552770" lon="38.5327230"><time>2020-10-31T15:59:27.430</time></trkpt><trkpt lat="55.6552850" lon="38.5328370"><time>2020-10-31T15:59:28.473</time></trkpt><trkpt lat="55.6552720" lon="38.5327320"><time>2020-10-31T15:59:31.467</time></trkpt><trkpt lat="55.6553120" lon="38.5327770"><time>2020-10-31T15:59:33.437</time></trkpt><trkpt lat="55.6553670" lon="38.5327670"><time>2020-10-31T15:59:34.473</time></trkpt><trkpt lat="55.6554020" lon="38.5329550"><time>2020-10-31T15:59:51.477</time></trkpt><trkpt lat="55.6554620" lon="38.5330180"><time>2020-10-31T15:59:53.473</time></trkpt><trkpt lat="55.6554070" lon="38.5329870"><time>2020-10-31T15:59:57.450</time></trkpt><trkpt lat="55.6553880" lon="38.5331230"><time>2020-10-31T16:00:20.480</time></trkpt><trkpt lat="55.6553480" lon="38.5330030"><time>2020-10-31T16:01:04.480</time></trkpt><trkpt lat="55.6552370" lon="38.5329930"><time>2020-10-31T16:01:48.483</time></trkpt><trkpt lat="55.6551380" lon="38.5331070"><time>2020-10-31T16:02:03.480</time></trkpt><trkpt lat="55.6550380" lon="38.5332130"><time>2020-10-31T16:02:18.480</time></trkpt><trkpt lat="55.6549880" lon="38.5332400"><time>2020-10-31T16:02:21.483</time></trkpt><trkpt lat="55.6549050" lon="38.5333100"><time>2020-10-31T16:02:34.480</time></trkpt><trkpt lat="55.6548520" lon="38.5334800"><time>2020-10-31T16:02:58.483</time></trkpt><trkpt lat="55.6548270" lon="38.5336600"><time>2020-10-31T16:03:35.480</time></trkpt><trkpt lat="55.6547770" lon="38.5338370"><time>2020-10-31T16:03:55.480</time></trkpt><trkpt lat="55.6547450" lon="38.5340100"><time>2020-10-31T16:04:27.483</time></trkpt><trkpt lat="55.6546670" lon="38.5341030"><time>2020-10-31T16:04:48.480</time></trkpt><trkpt lat="55.6546650" lon="38.5342850"><time>2020-10-31T16:05:28.483</time></trkpt><trkpt lat="55.6546830" lon="38.5344650"><time>2020-10-31T16:06:01.483</time></trkpt><trkpt lat="55.6547800" lon="38.5345400"><time>2020-10-31T16:06:24.483</time></trkpt><trkpt lat="55.6548620" lon="38.5346820"><time>2020-10-31T16:06:42.480</time></trkpt><trkpt lat="55.6549650" lon="38.5346500"><time>2020-10-31T16:07:01.483</time></trkpt><trkpt lat="55.6549620" lon="38.5344550"><time>2020-10-31T16:07:19.483</time></trkpt><trkpt lat="55.6549520" lon="38.5342580"><time>2020-10-31T16:07:43.483</time></trkpt><trkpt lat="55.6549770" lon="38.5340850"><time>2020-10-31T16:08:09.483</time></trkpt><trkpt lat="55.6550530" lon="38.5339580"><time>2020-10-31T16:08:25.483</time></trkpt><trkpt lat="55.6550670" lon="38.5337670"><time>2020-10-31T16:08:43.483</time></trkpt><trkpt lat="55.6550630" lon="38.5335550"><time>2020-10-31T16:08:57.487</time></trkpt><trkpt lat="55.6550930" lon="38.5334080"><time>2020-10-31T16:09:03.483</time></trkpt><trkpt lat="55.6551420" lon="38.5332370"><time>2020-10-31T16:09:12.483</time></trkpt><trkpt lat="55.6551720" lon="38.5331630"><time>2020-10-31T16:09:16.483</time></trkpt><trkpt lat="55.6551880" lon="38.5330850"><time>2020-10-31T16:09:18.487</time></trkpt><trkpt lat="55.6552230" lon="38.5330230"><time>2020-10-31T16:09:21.483</time></trkpt><trkpt lat="55.6551270" lon="38.5330950"><time>2020-10-31T16:10:31.480</time></trkpt><trkpt lat="55.6550470" lon="38.5332600"><time>2020-10-31T16:10:41.477</time></trkpt><trkpt lat="55.6551100" lon="38.5331450"><time>2020-10-31T16:10:45.473</time></trkpt><trkpt lat="55.6550530" lon="38.5332270"><time>2020-10-31T16:10:52.480</time></trkpt><trkpt lat="55.6551150" lon="38.5331230"><time>2020-10-31T16:10:54.480</time></trkpt><trkpt lat="55.6551870" lon="38.5331180"><time>2020-10-31T16:10:58.480</time></trkpt><trkpt lat="55.6552670" lon="38.5330250"><time>2020-10-31T16:11:21.487</time></trkpt><trkpt lat="55.6553800" lon="38.5329550"><time>2020-10-31T16:11:29.483</time></trkpt><trkpt lat="55.6552770" lon="38.5329330"><time>2020-10-31T16:11:56.483</time></trkpt><trkpt lat="55.6552150" lon="38.5330630"><time>2020-10-31T16:13:10.483</time></trkpt><trkpt lat="55.6550800" lon="38.5331300"><time>2020-10-31T16:13:28.487</time></trkpt><trkpt lat="55.6550380" lon="38.5331700"><time>2020-10-31T16:13:31.487</time></trkpt><trkpt lat="55.6549850" lon="38.5332550"><time>2020-10-31T16:13:33.483</time></trkpt><trkpt lat="55.6549250" lon="38.5333080"><time>2020-10-31T16:13:35.483</time></trkpt><trkpt lat="55.6547980" lon="38.5333220"><time>2020-10-31T16:13:57.487</time></trkpt><trkpt lat="55.6546580" lon="38.5333370"><time>2020-10-31T16:14:10.483</time></trkpt><trkpt lat="55.6545400" lon="38.5334080"><time>2020-10-31T16:14:23.483</time></trkpt><trkpt lat="55.6544480" lon="38.5335000"><time>2020-10-31T16:14:38.487</time></trkpt><trkpt lat="55.6543170" lon="38.5335770"><time>2020-10-31T16:14:52.487</time></trkpt><trkpt lat="55.6541920" lon="38.5335730"><time>2020-10-31T16:15:04.483</time></trkpt><trkpt lat="55.6540620" lon="38.5336020"><time>2020-10-31T16:15:16.483</time></trkpt><trkpt lat="55.6539150" lon="38.5336000"><time>2020-10-31T16:15:28.483</time></trkpt><trkpt lat="55.6538670" lon="38.5336180"><time>2020-10-31T16:15:30.483</time></trkpt><trkpt lat="55.6537580" lon="38.5336200"><time>2020-10-31T16:15:39.483</time></trkpt><trkpt lat="55.6536300" lon="38.5336680"><time>2020-10-31T16:15:57.487</time></trkpt><trkpt lat="55.6535200" lon="38.5336670"><time>2020-10-31T16:16:28.477</time></trkpt><trkpt lat="55.6534800" lon="38.5336150"><time>2020-10-31T16:16:30.480</time></trkpt><trkpt lat="55.6534320" lon="38.5336050"><time>2020-10-31T16:16:32.483</time></trkpt><trkpt lat="55.6533780" lon="38.5335830"><time>2020-10-31T16:16:36.480</time></trkpt><trkpt lat="55.6533330" lon="38.5335950"><time>2020-10-31T16:16:39.483</time></trkpt><trkpt lat="55.6532750" lon="38.5337550"><time>2020-10-31T16:17:00.487</time></trkpt><trkpt lat="55.6531980" lon="38.5338970"><time>2020-10-31T16:17:19.483</time></trkpt><trkpt lat="55.6530900" lon="38.5339370"><time>2020-10-31T16:17:32.490</time></trkpt><trkpt lat="55.6529550" lon="38.5340070"><time>2020-10-31T16:17:47.490</time></trkpt><trkpt lat="55.6528930" lon="38.5340300"><time>2020-10-31T16:17:50.487</time></trkpt><trkpt lat="55.6528420" lon="38.5340400"><time>2020-10-31T16:17:53.487</time></trkpt><trkpt lat="55.6529000" lon="38.5341250"><time>2020-10-31T16:18:09.483</time></trkpt><trkpt lat="55.6528330" lon="38.5340700"><time>2020-10-31T16:18:25.487</time></trkpt><trkpt lat="55.6528920" lon="38.5340970"><time>2020-10-31T16:18:39.490</time></trkpt><trkpt lat="55.6530070" lon="38.5340750"><time>2020-10-31T16:18:55.490</time></trkpt><trkpt lat="55.6530570" lon="38.5339180"><time>2020-10-31T16:19:56.483</time></trkpt><trkpt lat="55.6531670" lon="38.5338520"><time>2020-10-31T16:20:56.487</time></trkpt><trkpt lat="55.6533070" lon="38.5338430"><time>2020-10-31T16:21:24.487</time></trkpt><trkpt lat="55.6532780" lon="38.5337050"><time>2020-10-31T16:22:05.487</time></trkpt><trkpt lat="55.6531900" lon="38.5338120"><time>2020-10-31T16:23:23.487</time></trkpt><trkpt lat="55.6531020" lon="38.5338770"><time>2020-10-31T16:23:52.487</time></trkpt><trkpt lat="55.6530020" lon="38.5338670"><time>2020-10-31T16:24:13.487</time></trkpt><trkpt lat="55.6529620" lon="38.5340170"><time>2020-10-31T16:24:48.483</time></trkpt><trkpt lat="55.6529130" lon="38.5339380"><time>2020-10-31T16:26:11.487</time></trkpt><trkpt lat="55.6529930" lon="38.5339100"><time>2020-10-31T16:26:33.487</time></trkpt><trkpt lat="55.6531270" lon="38.5338930"><time>2020-10-31T16:26:49.487</time></trkpt><trkpt lat="55.6532220" lon="38.5337900"><time>2020-10-31T16:27:24.490</time></trkpt><trkpt lat="55.6533250" lon="38.5336770"><time>2020-10-31T16:27:41.487</time></trkpt><trkpt lat="55.6534300" lon="38.5336520"><time>2020-10-31T16:27:59.487</time></trkpt><trkpt lat="55.6535280" lon="38.5336920"><time>2020-10-31T16:28:18.487</time></trkpt><trkpt lat="55.6536600" lon="38.5336970"><time>2020-10-31T16:28:30.490</time></trkpt><trkpt lat="55.6537120" lon="38.5337050"><time>2020-10-31T16:28:33.490</time></trkpt><trkpt lat="55.6537970" lon="38.5337670"><time>2020-10-31T16:28:49.497</time></trkpt><trkpt lat="55.6538850" lon="38.5338720"><time>2020-10-31T16:29:04.490</time></trkpt><trkpt lat="55.6540120" lon="38.5338900"><time>2020-10-31T16:29:16.487</time></trkpt><trkpt lat="55.6540700" lon="38.5338880"><time>2020-10-31T16:29:19.490</time></trkpt><trkpt lat="55.6541430" lon="38.5336980"><time>2020-10-31T16:29:36.487</time></trkpt><trkpt lat="55.6542430" lon="38.5336450"><time>2020-10-31T16:29:56.487</time></trkpt><trkpt lat="55.6542870" lon="38.5335880"><time>2020-10-31T16:29:59.487</time></trkpt><trkpt lat="55.6542120" lon="38.5334880"><time>2020-10-31T16:30:37.490</time></trkpt><trkpt lat="55.6541120" lon="38.5334330"><time>2020-10-31T16:30:49.490</time></trkpt><trkpt lat="55.6541470" lon="38.5332930"><time>2020-10-31T16:31:26.490</time></trkpt><trkpt lat="55.6542470" lon="38.5331720"><time>2020-10-31T16:32:01.490</time></trkpt><trkpt lat="55.6543430" lon="38.5332420"><time>2020-10-31T16:32:22.490</time></trkpt><trkpt lat="55.6544620" lon="38.5332450"><time>2020-10-31T16:32:50.493</time></trkpt><trkpt lat="55.6545430" lon="38.5333900"><time>2020-10-31T16:33:17.487</time></trkpt><trkpt lat="55.6545820" lon="38.5334370"><time>2020-10-31T16:33:20.490</time></trkpt><trkpt lat="55.6546750" lon="38.5334120"><time>2020-10-31T16:33:30.490</time></trkpt><trkpt lat="55.6547200" lon="38.5334120"><time>2020-10-31T16:33:32.493</time></trkpt><trkpt lat="55.6547670" lon="38.5334120"><time>2020-10-31T16:33:35.463</time></trkpt><trkpt lat="55.6548150" lon="38.5334180"><time>2020-10-31T16:33:40.490</time></trkpt><trkpt lat="55.6549030" lon="38.5333030"><time>2020-10-31T16:33:55.493</time></trkpt><trkpt lat="55.6550170" lon="38.5332700"><time>2020-10-31T16:34:06.490</time></trkpt><trkpt lat="55.6551200" lon="38.5331480"><time>2020-10-31T16:34:23.493</time></trkpt><trkpt lat="55.6551700" lon="38.5331230"><time>2020-10-31T16:34:25.493</time></trkpt><trkpt lat="55.6552270" lon="38.5329730"><time>2020-10-31T16:34:41.490</time></trkpt><trkpt lat="55.6552150" lon="38.5327880"><time>2020-10-31T16:35:01.490</time></trkpt><trkpt lat="55.6551780" lon="38.5326030"><time>2020-10-31T16:35:30.490</time></trkpt><trkpt lat="55.6551130" lon="38.5324370"><time>2020-10-31T16:35:49.490</time></trkpt><trkpt lat="55.6551100" lon="38.5323530"><time>2020-10-31T16:36:02.493</time></trkpt><trkpt lat="55.6550700" lon="38.5321680"><time>2020-10-31T16:36:29.493</time></trkpt><trkpt lat="55.6551620" lon="38.5321050"><time>2020-10-31T16:36:55.493</time></trkpt><trkpt lat="55.6552970" lon="38.5320600"><time>2020-10-31T16:37:16.490</time></trkpt><trkpt lat="55.6553000" lon="38.5318370"><time>2020-10-31T16:37:59.490</time></trkpt><trkpt lat="55.6553200" lon="38.5316150"><time>2020-10-31T16:38:12.490</time></trkpt><trkpt lat="55.6553670" lon="38.5314300"><time>2020-10-31T16:38:23.493</time></trkpt><trkpt lat="55.6553730" lon="38.5313500"><time>2020-10-31T16:38:26.490</time></trkpt><trkpt lat="55.6554500" lon="38.5312150"><time>2020-10-31T16:38:40.487</time></trkpt><trkpt lat="55.6554370" lon="38.5310120"><time>2020-10-31T16:38:56.493</time></trkpt><trkpt lat="55.6554070" lon="38.5308320"><time>2020-10-31T16:39:16.490</time></trkpt><trkpt lat="55.6553920" lon="38.5306350"><time>2020-10-31T16:39:35.490</time></trkpt><trkpt lat="55.6553620" lon="38.5307080"><time>2020-10-31T16:39:38.497</time></trkpt><trkpt lat="55.6552800" lon="38.5306320"><time>2020-10-31T16:40:00.490</time></trkpt><trkpt lat="55.6552170" lon="38.5304780"><time>2020-10-31T16:40:17.487</time></trkpt><trkpt lat="55.6551280" lon="38.5303580"><time>2020-10-31T16:40:42.490</time></trkpt><trkpt lat="55.6550130" lon="38.5302670"><time>2020-10-31T16:40:54.490</time></trkpt><trkpt lat="55.6548900" lon="38.5301800"><time>2020-10-31T16:41:08.490</time></trkpt><trkpt lat="55.6547870" lon="38.5300900"><time>2020-10-31T16:41:27.493</time></trkpt><trkpt lat="55.6548050" lon="38.5299220"><time>2020-10-31T16:41:44.490</time></trkpt><trkpt lat="55.6547880" lon="38.5297270"><time>2020-10-31T16:42:04.493</time></trkpt><trkpt lat="55.6547280" lon="38.5295770"><time>2020-10-31T16:42:35.490</time></trkpt><trkpt lat="55.6548050" lon="38.5294620"><time>2020-10-31T16:43:06.493</time></trkpt><trkpt lat="55.6548480" lon="38.5292870"><time>2020-10-31T16:43:20.493</time></trkpt><trkpt lat="55.6549000" lon="38.5294280"><time>2020-10-31T16:44:09.490</time></trkpt><trkpt lat="55.6549330" lon="38.5296070"><time>2020-10-31T16:44:31.493</time></trkpt><trkpt lat="55.6550700" lon="38.5295800"><time>2020-10-31T16:44:46.493</time></trkpt><trkpt lat="55.6551820" lon="38.5294950"><time>2020-10-31T16:45:00.493</time></trkpt><trkpt lat="55.6552800" lon="38.5295430"><time>2020-10-31T16:45:11.490</time></trkpt><trkpt lat="55.6553330" lon="38.5297220"><time>2020-10-31T16:45:33.493</time></trkpt><trkpt lat="55.6552800" lon="38.5298720"><time>2020-10-31T16:45:56.493</time></trkpt><trkpt lat="55.6552000" lon="38.5300620"><time>2020-10-31T16:46:25.493</time></trkpt><trkpt lat="55.6551120" lon="38.5302080"><time>2020-10-31T16:46:37.493</time></trkpt><trkpt lat="55.6551600" lon="38.5303870"><time>2020-10-31T16:46:53.493</time></trkpt><trkpt lat="55.6552130" lon="38.5304180"><time>2020-10-31T16:46:57.493</time></trkpt><trkpt lat="55.6552620" lon="38.5304400"><time>2020-10-31T16:46:59.493</time></trkpt><trkpt lat="55.6552920" lon="38.5306270"><time>2020-10-31T16:47:26.493</time></trkpt><trkpt lat="55.6553820" lon="38.5307750"><time>2020-10-31T16:47:41.490</time></trkpt><trkpt lat="55.6553900" lon="38.5309870"><time>2020-10-31T16:47:55.493</time></trkpt><trkpt lat="55.6553420" lon="38.5311900"><time>2020-10-31T16:48:08.493</time></trkpt><trkpt lat="55.6553220" lon="38.5314020"><time>2020-10-31T16:48:22.490</time></trkpt><trkpt lat="55.6553220" lon="38.5316020"><time>2020-10-31T16:48:38.493</time></trkpt><trkpt lat="55.6553150" lon="38.5318100"><time>2020-10-31T16:48:50.497</time></trkpt><trkpt lat="55.6552970" lon="38.5320530"><time>2020-10-31T16:49:02.497</time></trkpt><trkpt lat="55.6552830" lon="38.5323070"><time>2020-10-31T16:49:14.493</time></trkpt><trkpt lat="55.6552870" lon="38.5325350"><time>2020-10-31T16:49:26.493</time></trkpt><trkpt lat="55.6552780" lon="38.5327570"><time>2020-10-31T16:49:43.497</time></trkpt><trkpt lat="55.6553780" lon="38.5328700"><time>2020-10-31T16:50:16.490</time></trkpt><trkpt lat="55.6552920" lon="38.5328900"><time>2020-10-31T16:52:08.493</time></trkpt><trkpt lat="55.6552050" lon="38.5330130"><time>2020-10-31T16:52:23.493</time></trkpt><trkpt lat="55.6551200" lon="38.5330900"><time>2020-10-31T16:52:35.493</time></trkpt><trkpt lat="55.6550200" lon="38.5331600"><time>2020-10-31T16:52:47.493</time></trkpt><trkpt lat="55.6549000" lon="38.5332230"><time>2020-10-31T16:52:59.493</time></trkpt><trkpt lat="55.6547680" lon="38.5332150"><time>2020-10-31T16:53:11.493</time></trkpt><trkpt lat="55.6546520" lon="38.5332820"><time>2020-10-31T16:53:26.493</time></trkpt><trkpt lat="55.6545400" lon="38.5332020"><time>2020-10-31T16:53:46.493</time></trkpt><trkpt lat="55.6544700" lon="38.5333280"><time>2020-10-31T16:54:34.497</time></trkpt><trkpt lat="55.6543570" lon="38.5333930"><time>2020-10-31T16:54:58.493</time></trkpt><trkpt lat="55.6542700" lon="38.5332930"><time>2020-10-31T16:55:38.497</time></trkpt><trkpt lat="55.6541800" lon="38.5333720"><time>2020-10-31T16:56:12.493</time></trkpt><trkpt lat="55.6540870" lon="38.5333650"><time>2020-10-31T16:56:42.493</time></trkpt><trkpt lat="55.6541300" lon="38.5332000"><time>2020-10-31T16:57:19.493</time></trkpt><trkpt lat="55.6542170" lon="38.5330650"><time>2020-10-31T16:57:39.497</time></trkpt><trkpt lat="55.6543250" lon="38.5330350"><time>2020-10-31T16:57:54.487</time></trkpt><trkpt lat="55.6543100" lon="38.5332020"><time>2020-10-31T16:59:28.497</time></trkpt><trkpt lat="55.6542380" lon="38.5333380"><time>2020-10-31T16:59:53.493</time></trkpt><trkpt lat="55.6541430" lon="38.5333230"><time>2020-10-31T17:00:25.497</time></trkpt><trkpt lat="55.6540880" lon="38.5334530"><time>2020-10-31T17:00:55.497</time></trkpt><trkpt lat="55.6541780" lon="38.5335130"><time>2020-10-31T17:01:45.497</time></trkpt><trkpt lat="55.6541220" lon="38.5333950"><time>2020-10-31T17:02:19.497</time></trkpt><trkpt lat="55.6540880" lon="38.5335400"><time>2020-10-31T17:02:38.497</time></trkpt><trkpt lat="55.6541650" lon="38.5334550"><time>2020-10-31T17:03:02.490</time></trkpt><trkpt lat="55.6541400" lon="38.5335600"><time>2020-10-31T17:03:07.497</time></trkpt><trkpt lat="55.6541170" lon="38.5336300"><time>2020-10-31T17:03:09.497</time></trkpt><trkpt lat="55.6541870" lon="38.5335120"><time>2020-10-31T17:03:23.493</time></trkpt><trkpt lat="55.6541630" lon="38.5333480"><time>2020-10-31T17:03:46.490</time></trkpt><trkpt lat="55.6541250" lon="38.5335420"><time>2020-10-31T17:03:54.500</time></trkpt><trkpt lat="55.6541250" lon="38.5336270"><time>2020-10-31T17:03:55.470</time></trkpt><trkpt lat="55.6541270" lon="38.5337370"><time>2020-10-31T17:03:56.500</time></trkpt><trkpt lat="55.6541630" lon="38.5338520"><time>2020-10-31T17:04:12.497</time></trkpt><trkpt lat="55.6541620" lon="38.5336600"><time>2020-10-31T17:04:27.497</time></trkpt><trkpt lat="55.6540920" lon="38.5335020"><time>2020-10-31T17:05:38.497</time></trkpt><trkpt lat="55.6541780" lon="38.5334250"><time>2020-10-31T17:13:49.497</time></trkpt><trkpt lat="55.6541000" lon="38.5335100"><time>2020-10-31T17:16:11.500</time></trkpt><trkpt lat="55.6541880" lon="38.5335050"><time>2020-10-31T17:21:10.503</time></trkpt><trkpt lat="55.6541220" lon="38.5334180"><time>2020-10-31T17:28:37.503</time></trkpt><trkpt lat="55.6540480" lon="38.5335450"><time>2020-10-31T17:50:23.507</time></trkpt><trkpt lat="55.6541200" lon="38.5334980"><time>2020-10-31T17:51:29.507</time></trkpt><trkpt lat="55.6540570" lon="38.5334670"><time>2020-10-31T18:08:07.510</time></trkpt><trkpt lat="55.6541570" lon="38.5335480"><time>2020-10-31T18:12:40.510</time></trkpt><trkpt lat="55.6540750" lon="38.5335070"><time>2020-10-31T18:14:07.473</time></trkpt><trkpt lat="55.6541320" lon="38.5334630"><time>2020-10-31T18:20:25.513</time></trkpt><trkpt lat="55.6540380" lon="38.5334720"><time>2020-10-31T18:23:06.513</time></trkpt><trkpt lat="55.6540680" lon="38.5333000"><time>2020-10-31T18:23:49.513</time></trkpt><trkpt lat="55.6541300" lon="38.5334030"><time>2020-10-31T18:24:26.513</time></trkpt><trkpt lat="55.6540450" lon="38.5333850"><time>2020-10-31T18:32:04.517</time></trkpt><trkpt lat="55.6541270" lon="38.5334170"><time>2020-10-31T18:32:28.517</time></trkpt><trkpt lat="55.6540180" lon="38.5334650"><time>2020-10-31T18:33:11.513</time></trkpt><trkpt lat="55.6540980" lon="38.5334670"><time>2020-10-31T18:33:36.517</time></trkpt><trkpt lat="55.6540750" lon="38.5335970"><time>2020-10-31T18:34:07.513</time></trkpt><trkpt lat="55.6541420" lon="38.5334870"><time>2020-10-31T18:34:26.520</time></trkpt><trkpt lat="55.6540750" lon="38.5333680"><time>2020-10-31T18:38:13.523</time></trkpt><trkpt lat="55.6541400" lon="38.5334570"><time>2020-10-31T18:38:45.517</time></trkpt><trkpt lat="55.6541780" lon="38.5335280"><time>2020-10-31T18:38:48.520</time></trkpt><trkpt lat="55.6541280" lon="38.5333970"><time>2020-10-31T18:40:32.523</time></trkpt><trkpt lat="55.6541300" lon="38.5335630"><time>2020-10-31T18:46:54.520</time></trkpt><trkpt lat="55.6540450" lon="38.5336170"><time>2020-10-31T18:47:33.520</time></trkpt><trkpt lat="55.6541180" lon="38.5336120"><time>2020-10-31T18:48:38.523</time></trkpt><trkpt lat="55.6540870" lon="38.5335480"><time>2020-10-31T18:49:54.520</time></trkpt><trkpt lat="55.6540550" lon="38.5333880"><time>2020-10-31T18:55:34.523</time></trkpt><trkpt lat="55.6541220" lon="38.5334980"><time>2020-10-31T18:56:08.520</time></trkpt><trkpt lat="55.6542000" lon="38.5336480"><time>2020-10-31T19:00:53.520</time></trkpt><trkpt lat="55.6541630" lon="38.5335070"><time>2020-10-31T19:01:24.523</time></trkpt><trkpt lat="55.6540420" lon="38.5334030"><time>2020-10-31T19:01:45.523</time></trkpt><trkpt lat="55.6541270" lon="38.5335050"><time>2020-10-31T19:02:35.523</time></trkpt><trkpt lat="55.6540350" lon="38.5334350"><time>2020-10-31T19:09:48.523</time></trkpt><trkpt lat="55.6541100" lon="38.5334780"><time>2020-10-31T19:12:50.523</time></trkpt><trkpt lat="55.6541520" lon="38.5336270"><time>2020-10-31T19:13:42.523</time></trkpt><trkpt lat="55.6540750" lon="38.5335450"><time>2020-10-31T19:15:07.527</time></trkpt><trkpt lat="55.6541630" lon="38.5335480"><time>2020-10-31T19:24:24.527</time></trkpt><trkpt lat="55.6540750" lon="38.5335550"><time>2020-10-31T19:25:23.523</time></trkpt><trkpt lat="55.6539770" lon="38.5334980"><time>2020-10-31T19:29:56.530</time></trkpt><trkpt lat="55.6540820" lon="38.5335300"><time>2020-10-31T19:31:46.527</time></trkpt><trkpt lat="55.6541820" lon="38.5334820"><time>2020-10-31T19:34:24.530</time></trkpt><trkpt lat="55.6540920" lon="38.5334580"><time>2020-10-31T19:37:02.530</time></trkpt><trkpt lat="55.6541670" lon="38.5335370"><time>2020-10-31T19:40:55.533</time></trkpt><trkpt lat="55.6540730" lon="38.5335080"><time>2020-10-31T19:44:06.530</time></trkpt><trkpt lat="55.6541630" lon="38.5335450"><time>2020-10-31T19:44:40.530</time></trkpt><trkpt lat="55.6540680" lon="38.5335450"><time>2020-10-31T19:47:22.530</time></trkpt><trkpt lat="55.6541480" lon="38.5335000"><time>2020-10-31T19:48:06.530</time></trkpt><trkpt lat="55.6542150" lon="38.5333470"><time>2020-10-31T19:49:02.530</time></trkpt><trkpt lat="55.6541450" lon="38.5333580"><time>2020-10-31T19:49:24.530</time></trkpt><trkpt lat="55.6541250" lon="38.5335220"><time>2020-10-31T19:50:15.537</time></trkpt><trkpt lat="55.6540500" lon="38.5335030"><time>2020-10-31T19:50:56.530</time></trkpt><trkpt lat="55.6541280" lon="38.5334720"><time>2020-10-31T19:51:35.530</time></trkpt><trkpt lat="55.6540400" lon="38.5334950"><time>2020-10-31T19:53:31.533</time></trkpt><trkpt lat="55.6539580" lon="38.5333920"><time>2020-10-31T19:53:57.533</time></trkpt><trkpt lat="55.6540280" lon="38.5333930"><time>2020-10-31T19:54:20.533</time></trkpt><trkpt lat="55.6540070" lon="38.5335150"><time>2020-10-31T19:55:10.533</time></trkpt><trkpt lat="55.6541100" lon="38.5335550"><time>2020-10-31T19:55:33.537</time></trkpt><trkpt lat="55.6540120" lon="38.5334820"><time>2020-10-31T19:56:08.533</time></trkpt><trkpt lat="55.6540730" lon="38.5334650"><time>2020-10-31T19:56:40.533</time></trkpt><trkpt lat="55.6541530" lon="38.5335320"><time>2020-10-31T19:57:07.537</time></trkpt><trkpt lat="55.6540720" lon="38.5335230"><time>2020-10-31T19:57:44.533</time></trkpt><trkpt lat="55.6541450" lon="38.5334580"><time>2020-10-31T19:57:57.540</time></trkpt><trkpt lat="55.6541980" lon="38.5334400"><time>2020-10-31T19:58:00.537</time></trkpt><trkpt lat="55.6542930" lon="38.5334570"><time>2020-10-31T19:58:12.533</time></trkpt><trkpt lat="55.6541800" lon="38.5334700"><time>2020-10-31T19:58:51.537</time></trkpt><trkpt lat="55.6541170" lon="38.5334500"><time>2020-10-31T19:59:09.537</time></trkpt><trkpt lat="55.6542170" lon="38.5334930"><time>2020-10-31T20:00:18.533</time></trkpt><trkpt lat="55.6541400" lon="38.5334420"><time>2020-10-31T20:01:24.533</time></trkpt><trkpt lat="55.6540520" lon="38.5333630"><time>2020-10-31T20:01:37.537</time></trkpt><trkpt lat="55.6540080" lon="38.5335150"><time>2020-10-31T20:02:41.533</time></trkpt><trkpt lat="55.6540650" lon="38.5335080"><time>2020-10-31T20:02:43.540</time></trkpt><trkpt lat="55.6541600" lon="38.5335080"><time>2020-10-31T20:02:50.537</time></trkpt><trkpt lat="55.6542530" lon="38.5335080"><time>2020-10-31T20:03:11.537</time></trkpt><trkpt lat="55.6543070" lon="38.5334920"><time>2020-10-31T20:03:14.537</time></trkpt><trkpt lat="55.6543970" lon="38.5334680"><time>2020-10-31T20:03:22.537</time></trkpt><trkpt lat="55.6543070" lon="38.5334780"><time>2020-10-31T20:03:33.537</time></trkpt><trkpt lat="55.6542600" lon="38.5334850"><time>2020-10-31T20:03:36.537</time></trkpt><trkpt lat="55.6541670" lon="38.5335050"><time>2020-10-31T20:03:43.537</time></trkpt><trkpt lat="55.6540650" lon="38.5336000"><time>2020-10-31T20:04:08.537</time></trkpt><trkpt lat="55.6541080" lon="38.5334620"><time>2020-10-31T20:04:32.537</time></trkpt><trkpt lat="55.6541980" lon="38.5335650"><time>2020-10-31T20:06:14.540</time></trkpt><trkpt lat="55.6541100" lon="38.5334930"><time>2020-10-31T20:06:31.543</time></trkpt><trkpt lat="55.6540580" lon="38.5334800"><time>2020-10-31T20:06:33.537</time></trkpt><trkpt lat="55.6541350" lon="38.5334470"><time>2020-10-31T20:08:33.540</time></trkpt><trkpt lat="55.6540830" lon="38.5335450"><time>2020-10-31T20:15:34.540</time></trkpt><trkpt lat="55.6541680" lon="38.5334680"><time>2020-10-31T20:21:56.540</time></trkpt><trkpt lat="55.6542650" lon="38.5334150"><time>2020-10-31T20:26:38.543</time></trkpt><trkpt lat="55.6542250" lon="38.5335250"><time>2020-10-31T20:29:35.540</time></trkpt><trkpt lat="55.6541520" lon="38.5336070"><time>2020-10-31T20:31:11.540</time></trkpt><trkpt lat="55.6540600" lon="38.5335850"><time>2020-10-31T20:32:09.547</time></trkpt><trkpt lat="55.6541400" lon="38.5335220"><time>2020-10-31T20:37:52.547</time></trkpt><trkpt lat="55.6540650" lon="38.5334430"><time>2020-10-31T20:38:34.543</time></trkpt><trkpt lat="55.6541200" lon="38.5335330"><time>2020-10-31T20:48:37.543</time></trkpt><trkpt lat="55.6541800" lon="38.5334100"><time>2020-10-31T21:19:18.557</time></trkpt><trkpt lat="55.6541580" lon="38.5335700"><time>2020-10-31T21:24:23.557</time></trkpt><trkpt lat="55.6541250" lon="38.5334200"><time>2020-10-31T21:32:29.560</time></trkpt><trkpt lat="55.6541030" lon="38.5333470"><time>2020-10-31T21:43:10.553</time></trkpt><trkpt lat="55.6540580" lon="38.5333030"><time>2020-10-31T21:43:12.557</time></trkpt><trkpt lat="55.6540680" lon="38.5333820"><time>2020-10-31T21:43:16.557</time></trkpt><trkpt lat="55.6540170" lon="38.5334180"><time>2020-10-31T21:43:18.557</time></trkpt><trkpt lat="55.6540520" lon="38.5334970"><time>2020-10-31T21:43:22.560</time></trkpt><trkpt lat="55.6540480" lon="38.5335900"><time>2020-10-31T21:43:25.557</time></trkpt><trkpt lat="55.6540230" lon="38.5336600"><time>2020-10-31T21:43:29.563</time></trkpt><trkpt lat="55.6540430" lon="38.5335780"><time>2020-10-31T21:44:01.560</time></trkpt><trkpt lat="55.6539950" lon="38.5335730"><time>2020-10-31T21:44:05.557</time></trkpt><trkpt lat="55.6540300" lon="38.5334150"><time>2020-10-31T21:44:49.560</time></trkpt><trkpt lat="55.6541200" lon="38.5334600"><time>2020-10-31T21:45:55.560</time></trkpt><trkpt lat="55.6540530" lon="38.5334080"><time>2020-10-31T21:47:08.560</time></trkpt><trkpt lat="55.6541530" lon="38.5334730"><time>2020-10-31T21:47:41.557</time></trkpt><trkpt lat="55.6540850" lon="38.5334120"><time>2020-10-31T21:48:09.563</time></trkpt><trkpt lat="55.6541080" lon="38.5335730"><time>2020-10-31T21:48:59.557</time></trkpt><trkpt lat="55.6541200" lon="38.5336570"><time>2020-10-31T21:49:02.543</time></trkpt><trkpt lat="55.6540480" lon="38.5337550"><time>2020-10-31T21:49:15.557</time></trkpt><trkpt lat="55.6539830" lon="38.5335900"><time>2020-10-31T21:49:32.557</time></trkpt><trkpt lat="55.6540230" lon="38.5334580"><time>2020-10-31T21:49:44.560</time></trkpt><trkpt lat="55.6540700" lon="38.5333580"><time>2020-10-31T21:49:47.560</time></trkpt><trkpt lat="55.6541120" lon="38.5332770"><time>2020-10-31T21:49:50.557</time></trkpt><trkpt lat="55.6541470" lon="38.5332070"><time>2020-10-31T21:49:52.563</time></trkpt><trkpt lat="55.6541120" lon="38.5334500"><time>2020-10-31T21:50:42.563</time></trkpt><trkpt lat="55.6541130" lon="38.5336270"><time>2020-10-31T21:51:28.557</time></trkpt><trkpt lat="55.6541030" lon="38.5337130"><time>2020-10-31T21:51:31.560</time></trkpt><trkpt lat="55.6540780" lon="38.5335550"><time>2020-10-31T21:52:01.560</time></trkpt><trkpt lat="55.6540630" lon="38.5334530"><time>2020-10-31T21:52:34.557</time></trkpt><trkpt lat="55.6540950" lon="38.5332800"><time>2020-10-31T21:53:05.557</time></trkpt><trkpt lat="55.6541550" lon="38.5331850"><time>2020-10-31T21:53:20.560</time></trkpt><trkpt lat="55.6541970" lon="38.5331370"><time>2020-10-31T21:53:22.560</time></trkpt><trkpt lat="55.6542350" lon="38.5330900"><time>2020-10-31T21:53:24.557</time></trkpt><trkpt lat="55.6542550" lon="38.5331830"><time>2020-10-31T21:53:28.557</time></trkpt><trkpt lat="55.6542100" lon="38.5333380"><time>2020-10-31T21:53:38.557</time></trkpt><trkpt lat="55.6541550" lon="38.5335380"><time>2020-10-31T21:53:56.560</time></trkpt><trkpt lat="55.6540500" lon="38.5335380"><time>2020-10-31T21:55:29.557</time></trkpt><trkpt lat="55.6541120" lon="38.5334430"><time>2020-10-31T21:56:54.560</time></trkpt><trkpt lat="55.6541600" lon="38.5333350"><time>2020-10-31T21:59:24.560</time></trkpt><trkpt lat="55.6541770" lon="38.5332550"><time>2020-10-31T21:59:29.553</time></trkpt><trkpt lat="55.6542700" lon="38.5328470"><time>2020-10-31T22:00:12.553</time></trkpt><trkpt lat="55.6542130" lon="38.5329980"><time>2020-10-31T22:00:17.557</time></trkpt><trkpt lat="55.6541700" lon="38.5330720"><time>2020-10-31T22:00:19.560</time></trkpt><trkpt lat="55.6541200" lon="38.5332150"><time>2020-10-31T22:00:24.557</time></trkpt><trkpt lat="55.6541230" lon="38.5330330"><time>2020-10-31T22:00:53.557</time></trkpt><trkpt lat="55.6541900" lon="38.5331630"><time>2020-10-31T22:02:14.560</time></trkpt><trkpt lat="55.6541830" lon="38.5333270"><time>2020-10-31T22:02:33.557</time></trkpt><trkpt lat="55.6540820" lon="38.5333950"><time>2020-10-31T22:02:50.560</time></trkpt><trkpt lat="55.6539920" lon="38.5332850"><time>2020-10-31T22:03:26.553</time></trkpt><trkpt lat="55.6538650" lon="38.5335580"><time>2020-10-31T22:03:54.553</time></trkpt><trkpt lat="55.6539670" lon="38.5334850"><time>2020-10-31T22:03:58.560</time></trkpt><trkpt lat="55.6540150" lon="38.5335030"><time>2020-10-31T22:04:01.560</time></trkpt><trkpt lat="55.6539470" lon="38.5333950"><time>2020-10-31T22:04:14.560</time></trkpt><trkpt lat="55.6540420" lon="38.5334800"><time>2020-10-31T22:04:23.560</time></trkpt><trkpt lat="55.6539950" lon="38.5335120"><time>2020-10-31T22:05:02.557</time></trkpt><trkpt lat="55.6540920" lon="38.5333620"><time>2020-10-31T22:05:08.560</time></trkpt><trkpt lat="55.6541180" lon="38.5334600"><time>2020-10-31T22:05:21.560</time></trkpt><trkpt lat="55.6541020" lon="38.5336470"><time>2020-10-31T22:06:13.557</time></trkpt><trkpt lat="55.6540400" lon="38.5335400"><time>2020-10-31T22:06:38.560</time></trkpt><trkpt lat="55.6541330" lon="38.5334780"><time>2020-10-31T22:07:21.560</time></trkpt><trkpt lat="55.6541850" lon="38.5334720"><time>2020-10-31T22:07:31.560</time></trkpt><trkpt lat="55.6540720" lon="38.5334620"><time>2020-10-31T22:07:38.557</time></trkpt><trkpt lat="55.6542430" lon="38.5334130"><time>2020-10-31T22:08:04.553</time></trkpt><trkpt lat="55.6541480" lon="38.5334470"><time>2020-10-31T22:08:09.557</time></trkpt><trkpt lat="55.6540620" lon="38.5334950"><time>2020-10-31T22:08:10.557</time></trkpt><trkpt lat="55.6540920" lon="38.5334220"><time>2020-10-31T22:08:12.557</time></trkpt><trkpt lat="55.6539730" lon="38.5334720"><time>2020-10-31T22:08:23.557</time></trkpt><trkpt lat="55.6540230" lon="38.5333150"><time>2020-10-31T22:08:37.557</time></trkpt><trkpt lat="55.6540680" lon="38.5335100"><time>2020-10-31T22:09:21.537</time></trkpt><trkpt lat="55.6539150" lon="38.5337550"><time>2020-10-31T22:11:21.557</time></trkpt><trkpt lat="55.6541180" lon="38.5340280"><time>2020-10-31T22:11:22.557</time></trkpt><trkpt lat="55.6541280" lon="38.5341200"><time>2020-10-31T22:11:27.560</time></trkpt><trkpt lat="55.6541770" lon="38.5339170"><time>2020-10-31T22:11:35.557</time></trkpt><trkpt lat="55.6542120" lon="38.5338300"><time>2020-10-31T22:11:38.557</time></trkpt><trkpt lat="55.6540720" lon="38.5338550"><time>2020-10-31T22:11:42.557</time></trkpt><trkpt lat="55.6541080" lon="38.5336250"><time>2020-10-31T22:12:11.557</time></trkpt><trkpt lat="55.6541250" lon="38.5334880"><time>2020-10-31T22:12:21.560</time></trkpt><trkpt lat="55.6541270" lon="38.5333880"><time>2020-10-31T22:12:23.557</time></trkpt><trkpt lat="55.6541720" lon="38.5335400"><time>2020-10-31T22:12:43.557</time></trkpt><trkpt lat="55.6541500" lon="38.5336420"><time>2020-10-31T22:12:46.557</time></trkpt><trkpt lat="55.6539570" lon="38.5338850"><time>2020-10-31T22:13:53.557</time></trkpt><trkpt lat="55.6540220" lon="38.5337500"><time>2020-10-31T22:13:55.553</time></trkpt><trkpt lat="55.6541150" lon="38.5336170"><time>2020-10-31T22:14:02.557</time></trkpt><trkpt lat="55.6541520" lon="38.5333680"><time>2020-10-31T22:14:04.557</time></trkpt><trkpt lat="55.6541500" lon="38.5332750"><time>2020-10-31T22:14:07.560</time></trkpt><trkpt lat="55.6541120" lon="38.5334250"><time>2020-10-31T22:14:12.560</time></trkpt><trkpt lat="55.6540500" lon="38.5333850"><time>2020-10-31T22:14:32.557</time></trkpt><trkpt lat="55.6540950" lon="38.5332370"><time>2020-10-31T22:15:28.553</time></trkpt><trkpt lat="55.6541530" lon="38.5334550"><time>2020-10-31T22:15:51.557</time></trkpt><trkpt lat="55.6542300" lon="38.5333620"><time>2020-10-31T22:15:53.557</time></trkpt><trkpt lat="55.6541780" lon="38.5333720"><time>2020-10-31T22:15:56.560</time></trkpt><trkpt lat="55.6540870" lon="38.5334270"><time>2020-10-31T22:15:58.557</time></trkpt><trkpt lat="55.6541280" lon="38.5334950"><time>2020-10-31T22:16:01.560</time></trkpt><trkpt lat="55.6544020" lon="38.5331950"><time>2020-10-31T22:16:43.560</time></trkpt><trkpt lat="55.6543750" lon="38.5333900"><time>2020-10-31T22:16:44.560</time></trkpt><trkpt lat="55.6543300" lon="38.5335700"><time>2020-10-31T22:16:45.560</time></trkpt><trkpt lat="55.6542350" lon="38.5336450"><time>2020-10-31T22:16:47.557</time></trkpt><trkpt lat="55.6541850" lon="38.5336420"><time>2020-10-31T22:16:48.553</time></trkpt><trkpt lat="55.6541070" lon="38.5336750"><time>2020-10-31T22:16:49.557</time></trkpt><trkpt lat="55.6540370" lon="38.5335580"><time>2020-10-31T22:17:44.557</time></trkpt><trkpt lat="55.6539820" lon="38.5335050"><time>2020-10-31T22:17:47.557</time></trkpt><trkpt lat="55.6538820" lon="38.5335150"><time>2020-10-31T22:17:51.557</time></trkpt><trkpt lat="55.6539950" lon="38.5335380"><time>2020-10-31T22:17:53.557</time></trkpt><trkpt lat="55.6541020" lon="38.5334500"><time>2020-10-31T22:18:04.557</time></trkpt><trkpt lat="55.6540920" lon="38.5332520"><time>2020-10-31T22:18:27.560</time></trkpt><trkpt lat="55.6541180" lon="38.5331770"><time>2020-10-31T22:18:38.557</time></trkpt><trkpt lat="55.6540750" lon="38.5332170"><time>2020-10-31T22:18:42.557</time></trkpt><trkpt lat="55.6540620" lon="38.5333480"><time>2020-10-31T22:18:59.547</time></trkpt><trkpt lat="55.6541120" lon="38.5333370"><time>2020-10-31T22:19:00.553</time></trkpt><trkpt lat="55.6541620" lon="38.5333850"><time>2020-10-31T22:19:02.553</time></trkpt><trkpt lat="55.6542270" lon="38.5332820"><time>2020-10-31T22:19:36.553</time></trkpt><trkpt lat="55.6542400" lon="38.5332030"><time>2020-10-31T22:19:38.550</time></trkpt><trkpt lat="55.6541180" lon="38.5333000"><time>2020-10-31T22:19:39.553</time></trkpt><trkpt lat="55.6540730" lon="38.5332430"><time>2020-10-31T22:19:45.553</time></trkpt><trkpt lat="55.6540300" lon="38.5333330"><time>2020-10-31T22:19:48.553</time></trkpt><trkpt lat="55.6540430" lon="38.5331700"><time>2020-10-31T22:19:56.550</time></trkpt><trkpt lat="55.6540080" lon="38.5330780"><time>2020-10-31T22:19:59.550</time></trkpt><trkpt lat="55.6539670" lon="38.5331380"><time>2020-10-31T22:20:01.550</time></trkpt><trkpt lat="55.6539880" lon="38.5330630"><time>2020-10-31T22:20:03.553</time></trkpt><trkpt lat="55.6541020" lon="38.5336270"><time>2020-10-31T22:20:16.633</time></trkpt><trkpt lat="55.6540750" lon="38.5335520"><time>2020-10-31T22:20:21.563</time></trkpt><trkpt lat="55.6541670" lon="38.5335550"><time>2020-10-31T22:20:39.557</time></trkpt><trkpt lat="55.6541480" lon="38.5336320"><time>2020-10-31T22:21:17.553</time></trkpt><trkpt lat="55.6541680" lon="38.5334720"><time>2020-10-31T22:21:20.557</time></trkpt><trkpt lat="55.6542000" lon="38.5333820"><time>2020-10-31T22:21:22.553</time></trkpt><trkpt lat="55.6542300" lon="38.5332350"><time>2020-10-31T22:21:26.553</time></trkpt><trkpt lat="55.6535270" lon="38.5340620"><time>2020-10-31T22:22:14.557</time></trkpt><trkpt lat="55.6536250" lon="38.5342370"><time>2020-10-31T22:22:16.557</time></trkpt><trkpt lat="55.6537400" lon="38.5340880"><time>2020-10-31T22:22:17.553</time></trkpt><trkpt lat="55.6538380" lon="38.5339750"><time>2020-10-31T22:22:26.557</time></trkpt><trkpt lat="55.6538670" lon="38.5338950"><time>2020-10-31T22:22:27.560</time></trkpt><trkpt lat="55.6539050" lon="38.5338500"><time>2020-10-31T22:22:29.557</time></trkpt><trkpt lat="55.6540230" lon="38.5337650"><time>2020-10-31T22:22:39.553</time></trkpt><trkpt lat="55.6540380" lon="38.5336720"><time>2020-10-31T22:22:42.557</time></trkpt><trkpt lat="55.6541580" lon="38.5335000"><time>2020-10-31T22:23:35.553</time></trkpt><trkpt lat="55.6540550" lon="38.5335520"><time>2020-10-31T22:23:38.553</time></trkpt><trkpt lat="55.6540100" lon="38.5335480"><time>2020-10-31T22:23:39.557</time></trkpt><trkpt lat="55.6539550" lon="38.5335430"><time>2020-10-31T22:23:41.557</time></trkpt><trkpt lat="55.6539100" lon="38.5335630"><time>2020-10-31T22:23:42.553</time></trkpt><trkpt lat="55.6538750" lon="38.5335120"><time>2020-10-31T22:23:44.553</time></trkpt><trkpt lat="55.6541570" lon="38.5337400"><time>2020-10-31T22:24:36.557</time></trkpt><trkpt lat="55.6540530" lon="38.5337230"><time>2020-10-31T22:24:48.557</time></trkpt><trkpt lat="55.6541420" lon="38.5335930"><time>2020-10-31T22:24:57.563</time></trkpt><trkpt lat="55.6538850" lon="38.5336400"><time>2020-10-31T22:25:31.557</time></trkpt><trkpt lat="55.6540120" lon="38.5335550"><time>2020-10-31T22:25:37.553</time></trkpt><trkpt lat="55.6541500" lon="38.5334980"><time>2020-10-31T22:25:38.557</time></trkpt><trkpt lat="55.6542720" lon="38.5335230"><time>2020-10-31T22:25:40.553</time></trkpt><trkpt lat="55.6543400" lon="38.5335030"><time>2020-10-31T22:26:07.550</time></trkpt><trkpt lat="55.6543850" lon="38.5334730"><time>2020-10-31T22:26:09.553</time></trkpt><trkpt lat="55.6548180" lon="38.5336020"><time>2020-10-31T22:26:42.547</time></trkpt><trkpt lat="55.6547680" lon="38.5337150"><time>2020-10-31T22:26:43.553</time></trkpt><trkpt lat="55.6547000" lon="38.5338950"><time>2020-10-31T22:26:45.557</time></trkpt><trkpt lat="55.6546030" lon="38.5338480"><time>2020-10-31T22:26:48.557</time></trkpt><trkpt lat="55.6544930" lon="38.5337970"><time>2020-10-31T22:26:52.557</time></trkpt><trkpt lat="55.6544400" lon="38.5337300"><time>2020-10-31T22:26:53.557</time></trkpt><trkpt lat="55.6543100" lon="38.5336380"><time>2020-10-31T22:26:54.557</time></trkpt><trkpt lat="55.6542230" lon="38.5335780"><time>2020-10-31T22:26:55.557</time></trkpt><trkpt lat="55.6541250" lon="38.5335480"><time>2020-10-31T22:26:57.557</time></trkpt><trkpt lat="55.6540500" lon="38.5335270"><time>2020-10-31T22:26:58.560</time></trkpt><trkpt lat="55.6539930" lon="38.5335020"><time>2020-10-31T22:27:00.557</time></trkpt><trkpt lat="55.6540270" lon="38.5335980"><time>2020-10-31T22:27:16.553</time></trkpt><trkpt lat="55.6539370" lon="38.5337350"><time>2020-10-31T22:27:27.560</time></trkpt><trkpt lat="55.6538970" lon="38.5337720"><time>2020-10-31T22:27:30.557</time></trkpt><trkpt lat="55.6538480" lon="38.5337380"><time>2020-10-31T22:27:34.557</time></trkpt><trkpt lat="55.6539470" lon="38.5336270"><time>2020-10-31T22:27:55.560</time></trkpt><trkpt lat="55.6539880" lon="38.5335950"><time>2020-10-31T22:27:58.557</time></trkpt><trkpt lat="55.6540680" lon="38.5334750"><time>2020-10-31T22:28:02.557</time></trkpt><trkpt lat="55.6541150" lon="38.5333900"><time>2020-10-31T22:28:03.557</time></trkpt><trkpt lat="55.6541470" lon="38.5333080"><time>2020-10-31T22:28:05.553</time></trkpt><trkpt lat="55.6541650" lon="38.5331980"><time>2020-10-31T22:28:32.550</time></trkpt><trkpt lat="55.6541550" lon="38.5333470"><time>2020-10-31T22:28:54.553</time></trkpt><trkpt lat="55.6541130" lon="38.5333800"><time>2020-10-31T22:28:57.557</time></trkpt><trkpt lat="55.6540300" lon="38.5334620"><time>2020-10-31T22:29:18.557</time></trkpt><trkpt lat="55.6539570" lon="38.5335180"><time>2020-10-31T22:29:43.557</time></trkpt><trkpt lat="55.6539700" lon="38.5336300"><time>2020-10-31T22:30:13.557</time></trkpt><trkpt lat="55.6540750" lon="38.5334520"><time>2020-10-31T22:30:36.557</time></trkpt><trkpt lat="55.6541600" lon="38.5333070"><time>2020-10-31T22:30:51.557</time></trkpt><trkpt lat="55.6541920" lon="38.5332430"><time>2020-10-31T22:31:34.557</time></trkpt><trkpt lat="55.6541470" lon="38.5333020"><time>2020-10-31T22:31:36.557</time></trkpt><trkpt lat="55.6541030" lon="38.5333570"><time>2020-10-31T22:31:39.557</time></trkpt><trkpt lat="55.6540470" lon="38.5334550"><time>2020-10-31T22:31:47.557</time></trkpt><trkpt lat="55.6540130" lon="38.5335150"><time>2020-10-31T22:31:49.557</time></trkpt><trkpt lat="55.6541130" lon="38.5334270"><time>2020-10-31T22:32:15.560</time></trkpt><trkpt lat="55.6540430" lon="38.5334670"><time>2020-10-31T22:32:37.557</time></trkpt><trkpt lat="55.6539750" lon="38.5335130"><time>2020-10-31T22:32:42.557</time></trkpt><trkpt lat="55.6538770" lon="38.5336020"><time>2020-10-31T22:32:50.557</time></trkpt><trkpt lat="55.6539700" lon="38.5335520"><time>2020-10-31T22:33:01.557</time></trkpt><trkpt lat="55.6539080" lon="38.5335920"><time>2020-10-31T22:33:26.557</time></trkpt><trkpt lat="55.6539970" lon="38.5335400"><time>2020-10-31T22:33:37.557</time></trkpt><trkpt lat="55.6540430" lon="38.5335350"><time>2020-10-31T22:33:39.553</time></trkpt><trkpt lat="55.6541420" lon="38.5334270"><time>2020-10-31T22:33:50.550</time></trkpt><trkpt lat="55.6541580" lon="38.5336230"><time>2020-10-31T22:34:07.557</time></trkpt><trkpt lat="55.6540520" lon="38.5336550"><time>2020-10-31T22:34:09.557</time></trkpt><trkpt lat="55.6540180" lon="38.5337220"><time>2020-10-31T22:34:12.553</time></trkpt><trkpt lat="55.6540020" lon="38.5338830"><time>2020-10-31T22:34:15.553</time></trkpt><trkpt lat="55.6544700" lon="38.5329480"><time>2020-10-31T22:35:32.557</time></trkpt><trkpt lat="55.6539520" lon="38.5332130"><time>2020-10-31T22:35:34.557</time></trkpt><trkpt lat="55.6538770" lon="38.5332920"><time>2020-10-31T22:35:35.553</time></trkpt><trkpt lat="55.6538250" lon="38.5333250"><time>2020-10-31T22:35:37.557</time></trkpt><trkpt lat="55.6540050" lon="38.5333830"><time>2020-10-31T22:35:46.557</time></trkpt><trkpt lat="55.6540570" lon="38.5333900"><time>2020-10-31T22:35:47.553</time></trkpt><trkpt lat="55.6541120" lon="38.5333320"><time>2020-10-31T22:35:49.553</time></trkpt><trkpt lat="55.6541750" lon="38.5332750"><time>2020-10-31T22:35:51.557</time></trkpt><trkpt lat="55.6541400" lon="38.5333400"><time>2020-10-31T22:35:54.557</time></trkpt><trkpt lat="55.6542230" lon="38.5331930"><time>2020-10-31T22:36:02.553</time></trkpt><trkpt lat="55.6542800" lon="38.5331530"><time>2020-10-31T22:36:04.553</time></trkpt><trkpt lat="55.6542300" lon="38.5332570"><time>2020-10-31T22:36:11.553</time></trkpt><trkpt lat="55.6541930" lon="38.5333780"><time>2020-10-31T22:36:12.553</time></trkpt><trkpt lat="55.6541720" lon="38.5335180"><time>2020-10-31T22:36:14.557</time></trkpt><trkpt lat="55.6541400" lon="38.5336030"><time>2020-10-31T22:36:16.553</time></trkpt><trkpt lat="55.6541080" lon="38.5335400"><time>2020-10-31T22:36:19.527</time></trkpt><trkpt lat="55.6540030" lon="38.5334730"><time>2020-10-31T22:36:26.553</time></trkpt><trkpt lat="55.6540650" lon="38.5334250"><time>2020-10-31T22:36:35.553</time></trkpt><trkpt lat="55.6541100" lon="38.5334530"><time>2020-10-31T22:36:37.560</time></trkpt><trkpt lat="55.6541970" lon="38.5334600"><time>2020-10-31T22:36:47.553</time></trkpt><trkpt lat="55.6542430" lon="38.5334280"><time>2020-10-31T22:36:49.553</time></trkpt><trkpt lat="55.6538220" lon="38.5337820"><time>2020-10-31T22:37:11.553</time></trkpt><trkpt lat="55.6539420" lon="38.5336130"><time>2020-10-31T22:37:13.557</time></trkpt><trkpt lat="55.6540280" lon="38.5334870"><time>2020-10-31T22:37:14.557</time></trkpt><trkpt lat="55.6539720" lon="38.5334950"><time>2020-10-31T22:37:23.557</time></trkpt><trkpt lat="55.6540720" lon="38.5335150"><time>2020-10-31T22:38:03.557</time></trkpt><trkpt lat="55.6541120" lon="38.5335550"><time>2020-10-31T22:38:10.557</time></trkpt><trkpt lat="55.6540580" lon="38.5337920"><time>2020-10-31T22:38:22.557</time></trkpt><trkpt lat="55.6540120" lon="38.5337470"><time>2020-10-31T22:38:27.557</time></trkpt><trkpt lat="55.6539500" lon="38.5335550"><time>2020-10-31T22:38:58.560</time></trkpt><trkpt lat="55.6538970" lon="38.5336700"><time>2020-10-31T22:39:33.553</time></trkpt><trkpt lat="55.6539620" lon="38.5336270"><time>2020-10-31T22:39:42.557</time></trkpt><trkpt lat="55.6540130" lon="38.5336470"><time>2020-10-31T22:39:56.557</time></trkpt><trkpt lat="55.6540600" lon="38.5335970"><time>2020-10-31T22:39:59.557</time></trkpt><trkpt lat="55.6540880" lon="38.5335250"><time>2020-10-31T22:40:01.557</time></trkpt><trkpt lat="55.6541120" lon="38.5336770"><time>2020-10-31T22:40:16.557</time></trkpt><trkpt lat="55.6540820" lon="38.5337430"><time>2020-10-31T22:40:17.557</time></trkpt><trkpt lat="55.6541070" lon="38.5335720"><time>2020-10-31T22:40:35.560</time></trkpt><trkpt lat="55.6539420" lon="38.5334670"><time>2020-10-31T22:41:13.557</time></trkpt><trkpt lat="55.6538520" lon="38.5335270"><time>2020-10-31T22:41:14.557</time></trkpt><trkpt lat="55.6537950" lon="38.5335350"><time>2020-10-31T22:41:17.550</time></trkpt><trkpt lat="55.6537530" lon="38.5335720"><time>2020-10-31T22:41:18.553</time></trkpt><trkpt lat="55.6538500" lon="38.5335350"><time>2020-10-31T22:41:41.553</time></trkpt><trkpt lat="55.6538650" lon="38.5336220"><time>2020-10-31T22:41:45.553</time></trkpt><trkpt lat="55.6539370" lon="38.5336580"><time>2020-10-31T22:41:47.553</time></trkpt><trkpt lat="55.6539880" lon="38.5336620"><time>2020-10-31T22:41:49.550</time></trkpt><trkpt lat="55.6540220" lon="38.5337330"><time>2020-10-31T22:41:52.557</time></trkpt><trkpt lat="55.6541300" lon="38.5337180"><time>2020-10-31T22:42:10.553</time></trkpt><trkpt lat="55.6540730" lon="38.5336880"><time>2020-10-31T22:42:12.553</time></trkpt><trkpt lat="55.6540100" lon="38.5338500"><time>2020-10-31T22:42:20.550</time></trkpt><trkpt lat="55.6539870" lon="38.5339480"><time>2020-10-31T22:42:22.510</time></trkpt><trkpt lat="55.6539630" lon="38.5340270"><time>2020-10-31T22:42:32.553</time></trkpt><trkpt lat="55.6540800" lon="38.5337420"><time>2020-10-31T22:42:34.550</time></trkpt><trkpt lat="55.6540620" lon="38.5336650"><time>2020-10-31T22:42:37.553</time></trkpt><trkpt lat="55.6541420" lon="38.5336370"><time>2020-10-31T22:42:41.557</time></trkpt><trkpt lat="55.6540920" lon="38.5336430"><time>2020-10-31T22:42:49.553</time></trkpt><trkpt lat="55.6541630" lon="38.5336050"><time>2020-10-31T22:42:56.560</time></trkpt><trkpt lat="55.6542180" lon="38.5336120"><time>2020-10-31T22:43:00.550</time></trkpt><trkpt lat="55.6543680" lon="38.5335830"><time>2020-10-31T22:43:07.557</time></trkpt><trkpt lat="55.6544350" lon="38.5335750"><time>2020-10-31T22:43:08.553</time></trkpt><trkpt lat="55.6545120" lon="38.5335730"><time>2020-10-31T22:43:10.550</time></trkpt><trkpt lat="55.6544900" lon="38.5334950"><time>2020-10-31T22:43:14.553</time></trkpt><trkpt lat="55.6544380" lon="38.5334830"><time>2020-10-31T22:43:17.550</time></trkpt><trkpt lat="55.6544150" lon="38.5335720"><time>2020-10-31T22:43:19.553</time></trkpt><trkpt lat="55.6543380" lon="38.5337100"><time>2020-10-31T22:43:37.557</time></trkpt><trkpt lat="55.6542350" lon="38.5336500"><time>2020-10-31T22:44:13.557</time></trkpt><trkpt lat="55.6542170" lon="38.5335300"><time>2020-10-31T22:44:43.557</time></trkpt><trkpt lat="55.6541530" lon="38.5333900"><time>2020-10-31T22:44:56.557</time></trkpt><trkpt lat="55.6540930" lon="38.5334870"><time>2020-10-31T22:45:05.553</time></trkpt><trkpt lat="55.6540330" lon="38.5335920"><time>2020-10-31T22:45:27.560</time></trkpt><trkpt lat="55.6540900" lon="38.5335750"><time>2020-10-31T22:45:30.557</time></trkpt><trkpt lat="55.6540630" lon="38.5335050"><time>2020-10-31T22:45:45.553</time></trkpt><trkpt lat="55.6540220" lon="38.5334250"><time>2020-10-31T22:45:49.553</time></trkpt><trkpt lat="55.6540780" lon="38.5334500"><time>2020-10-31T22:46:41.553</time></trkpt><trkpt lat="55.6542400" lon="38.5333500"><time>2020-10-31T22:46:47.553</time></trkpt><trkpt lat="55.6543930" lon="38.5333650"><time>2020-10-31T22:46:48.553</time></trkpt><trkpt lat="55.6544500" lon="38.5333320"><time>2020-10-31T22:46:49.553</time></trkpt><trkpt lat="55.6544080" lon="38.5333900"><time>2020-10-31T22:46:51.553</time></trkpt><trkpt lat="55.6543780" lon="38.5335850"><time>2020-10-31T22:46:55.560</time></trkpt><trkpt lat="55.6545300" lon="38.5334620"><time>2020-10-31T22:47:06.557</time></trkpt><trkpt lat="55.6545900" lon="38.5334230"><time>2020-10-31T22:47:07.557</time></trkpt><trkpt lat="55.6546630" lon="38.5333620"><time>2020-10-31T22:47:11.550</time></trkpt><trkpt lat="55.6536780" lon="38.5332000"><time>2020-10-31T22:48:02.550</time></trkpt><trkpt lat="55.6538170" lon="38.5333430"><time>2020-10-31T22:48:03.553</time></trkpt><trkpt lat="55.6538230" lon="38.5334550"><time>2020-10-31T22:48:04.553</time></trkpt><trkpt lat="55.6538750" lon="38.5334680"><time>2020-10-31T22:48:05.553</time></trkpt><trkpt lat="55.6539430" lon="38.5334650"><time>2020-10-31T22:48:06.557</time></trkpt><trkpt lat="55.6540000" lon="38.5334600"><time>2020-10-31T22:48:07.557</time></trkpt><trkpt lat="55.6537520" lon="38.5339870"><time>2020-10-31T22:48:53.550</time></trkpt><trkpt lat="55.6538370" lon="38.5339000"><time>2020-10-31T22:49:00.550</time></trkpt><trkpt lat="55.6539300" lon="38.5338120"><time>2020-10-31T22:49:02.553</time></trkpt><trkpt lat="55.6539830" lon="38.5337780"><time>2020-10-31T22:49:04.553</time></trkpt><trkpt lat="55.6540380" lon="38.5337630"><time>2020-10-31T22:49:07.550</time></trkpt><trkpt lat="55.6540500" lon="38.5338520"><time>2020-10-31T22:49:10.550</time></trkpt><trkpt lat="55.6541480" lon="38.5337750"><time>2020-10-31T22:49:26.553</time></trkpt><trkpt lat="55.6542720" lon="38.5337280"><time>2020-10-31T22:49:44.557</time></trkpt><trkpt lat="55.6543450" lon="38.5336520"><time>2020-10-31T22:49:46.557</time></trkpt><trkpt lat="55.6543220" lon="38.5337850"><time>2020-10-31T22:49:58.550</time></trkpt><trkpt lat="55.6544020" lon="38.5336580"><time>2020-10-31T22:50:06.560</time></trkpt><trkpt lat="55.6544120" lon="38.5335670"><time>2020-10-31T22:50:07.557</time></trkpt><trkpt lat="55.6543900" lon="38.5334880"><time>2020-10-31T22:50:10.557</time></trkpt><trkpt lat="55.6542970" lon="38.5334770"><time>2020-10-31T22:50:33.557</time></trkpt><trkpt lat="55.6542380" lon="38.5336520"><time>2020-10-31T22:50:48.557</time></trkpt><trkpt lat="55.6541970" lon="38.5336950"><time>2020-10-31T22:50:49.557</time></trkpt><trkpt lat="55.6541520" lon="38.5337530"><time>2020-10-31T22:50:50.557</time></trkpt><trkpt lat="55.6541670" lon="38.5336580"><time>2020-10-31T22:50:55.557</time></trkpt><trkpt lat="55.6541970" lon="38.5335650"><time>2020-10-31T22:50:56.560</time></trkpt><trkpt lat="55.6540730" lon="38.5336130"><time>2020-10-31T22:50:59.557</time></trkpt><trkpt lat="55.6541300" lon="38.5336230"><time>2020-10-31T22:51:05.557</time></trkpt><trkpt lat="55.6541550" lon="38.5333870"><time>2020-10-31T22:51:06.560</time></trkpt><trkpt lat="55.6541670" lon="38.5334670"><time>2020-10-31T22:51:08.547</time></trkpt><trkpt lat="55.6540820" lon="38.5335470"><time>2020-10-31T22:51:17.560</time></trkpt><trkpt lat="55.6541720" lon="38.5335100"><time>2020-10-31T22:51:29.560</time></trkpt><trkpt lat="55.6541070" lon="38.5335330"><time>2020-10-31T22:52:03.557</time></trkpt><trkpt lat="55.6540250" lon="38.5335780"><time>2020-10-31T22:52:10.557</time></trkpt><trkpt lat="55.6540630" lon="38.5337500"><time>2020-10-31T22:52:24.553</time></trkpt><trkpt lat="55.6540530" lon="38.5335880"><time>2020-10-31T22:52:49.550</time></trkpt><trkpt lat="55.6541050" lon="38.5334480"><time>2020-10-31T22:53:06.557</time></trkpt><trkpt lat="55.6541430" lon="38.5333670"><time>2020-10-31T22:53:07.557</time></trkpt><trkpt lat="55.6541100" lon="38.5334530"><time>2020-10-31T22:53:13.557</time></trkpt><trkpt lat="55.6540700" lon="38.5335380"><time>2020-10-31T22:53:15.553</time></trkpt><trkpt lat="55.6540000" lon="38.5334430"><time>2020-10-31T22:55:03.557</time></trkpt><trkpt lat="55.6540580" lon="38.5335080"><time>2020-10-31T22:55:16.550</time></trkpt><trkpt lat="55.6541130" lon="38.5336300"><time>2020-10-31T22:55:18.553</time></trkpt><trkpt lat="55.6541480" lon="38.5337320"><time>2020-10-31T22:55:20.550</time></trkpt><trkpt lat="55.6540720" lon="38.5335850"><time>2020-10-31T22:55:30.550</time></trkpt><trkpt lat="55.6540100" lon="38.5333420"><time>2020-10-31T22:55:37.557</time></trkpt><trkpt lat="55.6540070" lon="38.5332530"><time>2020-10-31T22:55:40.550</time></trkpt><trkpt lat="55.6540000" lon="38.5330650"><time>2020-10-31T22:55:47.553</time></trkpt><trkpt lat="55.6540130" lon="38.5329670"><time>2020-10-31T22:55:50.550</time></trkpt><trkpt lat="55.6539800" lon="38.5332450"><time>2020-10-31T22:55:54.550</time></trkpt><trkpt lat="55.6539370" lon="38.5332850"><time>2020-10-31T22:55:56.553</time></trkpt><trkpt lat="55.6538630" lon="38.5333380"><time>2020-10-31T22:55:58.553</time></trkpt><trkpt lat="55.6537670" lon="38.5333270"><time>2020-10-31T22:56:07.553</time></trkpt><trkpt lat="55.6538400" lon="38.5333720"><time>2020-10-31T22:56:08.550</time></trkpt><trkpt lat="55.6538620" lon="38.5334730"><time>2020-10-31T22:56:10.557</time></trkpt><trkpt lat="55.6539020" lon="38.5336020"><time>2020-10-31T22:56:12.553</time></trkpt><trkpt lat="55.6539200" lon="38.5336780"><time>2020-10-31T22:56:13.553</time></trkpt><trkpt lat="55.6539150" lon="38.5338420"><time>2020-10-31T22:56:15.557</time></trkpt><trkpt lat="55.6539100" lon="38.5339380"><time>2020-10-31T22:56:16.553</time></trkpt><trkpt lat="55.6539220" lon="38.5338370"><time>2020-10-31T22:56:19.553</time></trkpt><trkpt lat="55.6539300" lon="38.5337080"><time>2020-10-31T22:56:20.550</time></trkpt><trkpt lat="55.6539300" lon="38.5334720"><time>2020-10-31T22:56:26.557</time></trkpt><trkpt lat="55.6539500" lon="38.5333180"><time>2020-10-31T22:56:27.557</time></trkpt><trkpt lat="55.6540000" lon="38.5334100"><time>2020-10-31T22:56:44.550</time></trkpt><trkpt lat="55.6540180" lon="38.5332770"><time>2020-10-31T22:57:00.550</time></trkpt><trkpt lat="55.6539800" lon="38.5334300"><time>2020-10-31T22:57:10.553</time></trkpt><trkpt lat="55.6539600" lon="38.5335020"><time>2020-10-31T22:57:11.550</time></trkpt><trkpt lat="55.6539270" lon="38.5335800"><time>2020-10-31T22:57:13.550</time></trkpt><trkpt lat="55.6538420" lon="38.5335500"><time>2020-10-31T22:57:23.553</time></trkpt><trkpt lat="55.6537500" lon="38.5337270"><time>2020-10-31T22:57:28.557</time></trkpt><trkpt lat="55.6537680" lon="38.5335730"><time>2020-10-31T22:57:36.557</time></trkpt><trkpt lat="55.6537550" lon="38.5336570"><time>2020-10-31T22:57:42.553</time></trkpt><trkpt lat="55.6538100" lon="38.5335380"><time>2020-10-31T22:57:56.557</time></trkpt><trkpt lat="55.6539620" lon="38.5336300"><time>2020-10-31T22:58:04.557</time></trkpt><trkpt lat="55.6540180" lon="38.5336770"><time>2020-10-31T22:58:06.557</time></trkpt><trkpt lat="55.6539900" lon="38.5335230"><time>2020-10-31T22:58:26.557</time></trkpt><trkpt lat="55.6540120" lon="38.5333670"><time>2020-10-31T22:58:38.527</time></trkpt><trkpt lat="55.6539930" lon="38.5332930"><time>2020-10-31T22:58:44.553</time></trkpt><trkpt lat="55.6539580" lon="38.5334570"><time>2020-10-31T22:59:11.560</time></trkpt><trkpt lat="55.6540050" lon="38.5334430"><time>2020-10-31T22:59:15.557</time></trkpt><trkpt lat="55.6539750" lon="38.5335070"><time>2020-10-31T22:59:16.553</time></trkpt><trkpt lat="55.6539430" lon="38.5336020"><time>2020-10-31T22:59:18.557</time></trkpt><trkpt lat="55.6540330" lon="38.5336530"><time>2020-10-31T22:59:35.553</time></trkpt><trkpt lat="55.6540320" lon="38.5335420"><time>2020-10-31T22:59:44.557</time></trkpt><trkpt lat="55.6539970" lon="38.5334480"><time>2020-10-31T23:00:15.557</time></trkpt><trkpt lat="55.6539150" lon="38.5334400"><time>2020-10-31T23:00:27.557</time></trkpt><trkpt lat="55.6540130" lon="38.5334520"><time>2020-10-31T23:00:54.560</time></trkpt><trkpt lat="55.6540580" lon="38.5334450"><time>2020-10-31T23:00:56.557</time></trkpt><trkpt lat="55.6540370" lon="38.5332900"><time>2020-10-31T23:01:19.557</time></trkpt><trkpt lat="55.6539950" lon="38.5333200"><time>2020-10-31T23:01:30.553</time></trkpt><trkpt lat="55.6540830" lon="38.5334780"><time>2020-10-31T23:01:56.553</time></trkpt><trkpt lat="55.6541350" lon="38.5334950"><time>2020-10-31T23:02:09.563</time></trkpt><trkpt lat="55.6540550" lon="38.5334380"><time>2020-10-31T23:02:53.557</time></trkpt><trkpt lat="55.6541080" lon="38.5335750"><time>2020-10-31T23:03:13.557</time></trkpt><trkpt lat="55.6542000" lon="38.5336550"><time>2020-10-31T23:04:07.560</time></trkpt><trkpt lat="55.6541480" lon="38.5335530"><time>2020-10-31T23:04:55.557</time></trkpt><trkpt lat="55.6542200" lon="38.5336620"><time>2020-10-31T23:05:49.553</time></trkpt><trkpt lat="55.6541150" lon="38.5335400"><time>2020-10-31T23:07:16.557</time></trkpt><trkpt lat="55.6541320" lon="38.5333620"><time>2020-10-31T23:07:35.553</time></trkpt><trkpt lat="55.6541100" lon="38.5335350"><time>2020-10-31T23:07:58.557</time></trkpt><trkpt lat="55.6540000" lon="38.5335730"><time>2020-10-31T23:08:22.553</time></trkpt><trkpt lat="55.6539380" lon="38.5335730"><time>2020-10-31T23:08:26.553</time></trkpt><trkpt lat="55.6538700" lon="38.5333970"><time>2020-10-31T23:08:37.550</time></trkpt><trkpt lat="55.6539320" lon="38.5334430"><time>2020-10-31T23:08:59.557</time></trkpt><trkpt lat="55.6540000" lon="38.5334300"><time>2020-10-31T23:09:01.553</time></trkpt><trkpt lat="55.6540330" lon="38.5333250"><time>2020-10-31T23:09:26.547</time></trkpt><trkpt lat="55.6540730" lon="38.5334030"><time>2020-10-31T23:09:29.557</time></trkpt><trkpt lat="55.6541870" lon="38.5335600"><time>2020-10-31T23:09:36.553</time></trkpt><trkpt lat="55.6542350" lon="38.5334100"><time>2020-10-31T23:09:50.553</time></trkpt><trkpt lat="55.6542680" lon="38.5334750"><time>2020-10-31T23:10:06.550</time></trkpt><trkpt lat="55.6542850" lon="38.5337130"><time>2020-10-31T23:10:17.550</time></trkpt><trkpt lat="55.6542670" lon="38.5338100"><time>2020-10-31T23:10:20.550</time></trkpt><trkpt lat="55.6541980" lon="38.5337030"><time>2020-10-31T23:10:37.557</time></trkpt><trkpt lat="55.6541270" lon="38.5335220"><time>2020-10-31T23:10:46.553</time></trkpt><trkpt lat="55.6540880" lon="38.5334650"><time>2020-10-31T23:10:49.553</time></trkpt><trkpt lat="55.6541620" lon="38.5335670"><time>2020-10-31T23:10:53.513</time></trkpt><trkpt lat="55.6542780" lon="38.5336470"><time>2020-10-31T23:11:04.553</time></trkpt><trkpt lat="55.6542150" lon="38.5334780"><time>2020-10-31T23:11:17.557</time></trkpt><trkpt lat="55.6541030" lon="38.5333470"><time>2020-10-31T23:11:31.557</time></trkpt><trkpt lat="55.6541220" lon="38.5335080"><time>2020-10-31T23:12:02.550</time></trkpt><trkpt lat="55.6540570" lon="38.5334770"><time>2020-10-31T23:12:05.553</time></trkpt><trkpt lat="55.6539600" lon="38.5334350"><time>2020-10-31T23:12:09.553</time></trkpt><trkpt lat="55.6539150" lon="38.5334300"><time>2020-10-31T23:12:12.553</time></trkpt><trkpt lat="55.6538780" lon="38.5332650"><time>2020-10-31T23:12:24.550</time></trkpt><trkpt lat="55.6539880" lon="38.5333470"><time>2020-10-31T23:12:39.557</time></trkpt><trkpt lat="55.6538830" lon="38.5332020"><time>2020-10-31T23:13:07.553</time></trkpt><trkpt lat="55.6539230" lon="38.5331650"><time>2020-10-31T23:13:14.557</time></trkpt><trkpt lat="55.6539880" lon="38.5331970"><time>2020-10-31T23:13:24.550</time></trkpt><trkpt lat="55.6540080" lon="38.5333180"><time>2020-10-31T23:13:38.553</time></trkpt><trkpt lat="55.6540250" lon="38.5334530"><time>2020-10-31T23:13:59.553</time></trkpt><trkpt lat="55.6541200" lon="38.5335070"><time>2020-10-31T23:14:30.557</time></trkpt><trkpt lat="55.6540780" lon="38.5334270"><time>2020-10-31T23:14:39.557</time></trkpt><trkpt lat="55.6539930" lon="38.5334070"><time>2020-10-31T23:14:57.560</time></trkpt><trkpt lat="55.6539630" lon="38.5334820"><time>2020-10-31T23:14:59.560</time></trkpt><trkpt lat="55.6539370" lon="38.5335520"><time>2020-10-31T23:15:00.557</time></trkpt><trkpt lat="55.6539020" lon="38.5336020"><time>2020-10-31T23:15:01.557</time></trkpt><trkpt lat="55.6539030" lon="38.5337020"><time>2020-10-31T23:15:06.550</time></trkpt><trkpt lat="55.6539550" lon="38.5337220"><time>2020-10-31T23:15:08.550</time></trkpt><trkpt lat="55.6539200" lon="38.5334900"><time>2020-10-31T23:15:18.553</time></trkpt><trkpt lat="55.6539770" lon="38.5332150"><time>2020-10-31T23:15:26.553</time></trkpt><trkpt lat="55.6540150" lon="38.5331620"><time>2020-10-31T23:15:27.560</time></trkpt><trkpt lat="55.6541130" lon="38.5332520"><time>2020-10-31T23:15:40.557</time></trkpt><trkpt lat="55.6541570" lon="38.5332900"><time>2020-10-31T23:15:42.557</time></trkpt><trkpt lat="55.6541320" lon="38.5334700"><time>2020-10-31T23:15:56.557</time></trkpt><trkpt lat="55.6540350" lon="38.5335170"><time>2020-10-31T23:16:20.557</time></trkpt><trkpt lat="55.6540250" lon="38.5334150"><time>2020-10-31T23:16:33.557</time></trkpt><trkpt lat="55.6540730" lon="38.5334050"><time>2020-10-31T23:16:44.557</time></trkpt><trkpt lat="55.6541170" lon="38.5334600"><time>2020-10-31T23:16:50.557</time></trkpt><trkpt lat="55.6541850" lon="38.5334980"><time>2020-10-31T23:16:53.557</time></trkpt><trkpt lat="55.6541500" lon="38.5333650"><time>2020-10-31T23:17:13.553</time></trkpt><trkpt lat="55.6540780" lon="38.5334120"><time>2020-10-31T23:17:29.560</time></trkpt><trkpt lat="55.6539870" lon="38.5333870"><time>2020-10-31T23:18:02.557</time></trkpt><trkpt lat="55.6539630" lon="38.5333100"><time>2020-10-31T23:18:05.557</time></trkpt><trkpt lat="55.6539850" lon="38.5334180"><time>2020-10-31T23:18:16.557</time></trkpt><trkpt lat="55.6540250" lon="38.5333650"><time>2020-10-31T23:18:18.557</time></trkpt><trkpt lat="55.6539670" lon="38.5333820"><time>2020-10-31T23:18:22.557</time></trkpt><trkpt lat="55.6540650" lon="38.5333700"><time>2020-10-31T23:19:13.553</time></trkpt><trkpt lat="55.6540100" lon="38.5334420"><time>2020-10-31T23:19:26.553</time></trkpt><trkpt lat="55.6539680" lon="38.5334920"><time>2020-10-31T23:19:28.560</time></trkpt><trkpt lat="55.6539220" lon="38.5334620"><time>2020-10-31T23:19:37.553</time></trkpt><trkpt lat="55.6539980" lon="38.5333070"><time>2020-10-31T23:19:50.557</time></trkpt><trkpt lat="55.6540880" lon="38.5333830"><time>2020-10-31T23:20:00.553</time></trkpt><trkpt lat="55.6541520" lon="38.5334000"><time>2020-10-31T23:20:09.557</time></trkpt><trkpt lat="55.6540850" lon="38.5335000"><time>2020-10-31T23:20:26.553</time></trkpt><trkpt lat="55.6540070" lon="38.5334130"><time>2020-10-31T23:20:44.553</time></trkpt><trkpt lat="55.6539280" lon="38.5332670"><time>2020-10-31T23:20:56.557</time></trkpt><trkpt lat="55.6538920" lon="38.5332170"><time>2020-10-31T23:20:58.557</time></trkpt><trkpt lat="55.6538580" lon="38.5331600"><time>2020-10-31T23:21:03.560</time></trkpt><trkpt lat="55.6540230" lon="38.5332680"><time>2020-10-31T23:21:18.553</time></trkpt><trkpt lat="55.6541000" lon="38.5333520"><time>2020-10-31T23:21:19.560</time></trkpt><trkpt lat="55.6541530" lon="38.5334300"><time>2020-10-31T23:21:20.557</time></trkpt><trkpt lat="55.6542020" lon="38.5334980"><time>2020-10-31T23:21:21.530</time></trkpt><trkpt lat="55.6542550" lon="38.5335500"><time>2020-10-31T23:21:23.557</time></trkpt><trkpt lat="55.6543120" lon="38.5336050"><time>2020-10-31T23:21:26.557</time></trkpt><trkpt lat="55.6543680" lon="38.5336700"><time>2020-10-31T23:21:29.557</time></trkpt><trkpt lat="55.6542750" lon="38.5335300"><time>2020-10-31T23:21:44.523</time></trkpt><trkpt lat="55.6542150" lon="38.5335350"><time>2020-10-31T23:21:45.557</time></trkpt><trkpt lat="55.6541650" lon="38.5334470"><time>2020-10-31T23:21:47.557</time></trkpt><trkpt lat="55.6541350" lon="38.5335080"><time>2020-10-31T23:21:50.513</time></trkpt><trkpt lat="55.6541750" lon="38.5335620"><time>2020-10-31T23:21:53.517</time></trkpt><trkpt lat="55.6541920" lon="38.5334530"><time>2020-10-31T23:21:55.547</time></trkpt><trkpt lat="55.6541600" lon="38.5335270"><time>2020-10-31T23:21:59.550</time></trkpt><trkpt lat="55.6541420" lon="38.5334520"><time>2020-10-31T23:22:04.550</time></trkpt><trkpt lat="55.6541820" lon="38.5334150"><time>2020-10-31T23:22:24.557</time></trkpt><trkpt lat="55.6541300" lon="38.5335470"><time>2020-10-31T23:22:36.560</time></trkpt><trkpt lat="55.6540600" lon="38.5335470"><time>2020-10-31T23:22:38.557</time></trkpt><trkpt lat="55.6540000" lon="38.5335720"><time>2020-10-31T23:22:40.557</time></trkpt><trkpt lat="55.6539400" lon="38.5335470"><time>2020-10-31T23:22:45.563</time></trkpt><trkpt lat="55.6539270" lon="38.5334130"><time>2020-10-31T23:22:59.557</time></trkpt><trkpt lat="55.6539670" lon="38.5334620"><time>2020-10-31T23:23:10.557</time></trkpt><trkpt lat="55.6540200" lon="38.5334930"><time>2020-10-31T23:23:12.560</time></trkpt><trkpt lat="55.6539570" lon="38.5334350"><time>2020-10-31T23:23:20.557</time></trkpt><trkpt lat="55.6540550" lon="38.5334120"><time>2020-10-31T23:23:49.557</time></trkpt><trkpt lat="55.6541350" lon="38.5334800"><time>2020-10-31T23:23:51.560</time></trkpt><trkpt lat="55.6540420" lon="38.5334650"><time>2020-10-31T23:24:30.557</time></trkpt><trkpt lat="55.6541120" lon="38.5335580"><time>2020-10-31T23:24:48.553</time></trkpt><trkpt lat="55.6540320" lon="38.5334420"><time>2020-10-31T23:25:08.560</time></trkpt><trkpt lat="55.6540980" lon="38.5335600"><time>2020-10-31T23:25:24.577</time></trkpt><trkpt lat="55.6541650" lon="38.5336130"><time>2020-10-31T23:25:28.557</time></trkpt><trkpt lat="55.6540970" lon="38.5334500"><time>2020-10-31T23:25:55.557</time></trkpt><trkpt lat="55.6542100" lon="38.5335420"><time>2020-10-31T23:26:04.553</time></trkpt><trkpt lat="55.6542670" lon="38.5335170"><time>2020-10-31T23:26:29.560</time></trkpt><trkpt lat="55.6541680" lon="38.5336120"><time>2020-10-31T23:26:49.557</time></trkpt><trkpt lat="55.6541180" lon="38.5335730"><time>2020-10-31T23:26:51.560</time></trkpt><trkpt lat="55.6540820" lon="38.5335170"><time>2020-10-31T23:26:54.553</time></trkpt><trkpt lat="55.6540420" lon="38.5334720"><time>2020-10-31T23:26:57.553</time></trkpt><trkpt lat="55.6539950" lon="38.5334770"><time>2020-10-31T23:27:04.553</time></trkpt><trkpt lat="55.6540420" lon="38.5335180"><time>2020-10-31T23:27:30.557</time></trkpt><trkpt lat="55.6541270" lon="38.5334480"><time>2020-10-31T23:27:58.557</time></trkpt><trkpt lat="55.6541430" lon="38.5333430"><time>2020-10-31T23:28:23.553</time></trkpt><trkpt lat="55.6540530" lon="38.5333900"><time>2020-10-31T23:28:42.557</time></trkpt><trkpt lat="55.6540580" lon="38.5334870"><time>2020-10-31T23:29:24.560</time></trkpt><trkpt lat="55.6541330" lon="38.5333250"><time>2020-10-31T23:29:40.557</time></trkpt><trkpt lat="55.6541820" lon="38.5333580"><time>2020-10-31T23:29:42.557</time></trkpt><trkpt lat="55.6541380" lon="38.5334720"><time>2020-10-31T23:32:11.560</time></trkpt><trkpt lat="55.6542030" lon="38.5335920"><time>2020-10-31T23:47:40.557</time></trkpt><trkpt lat="55.6541820" lon="38.5334330"><time>2020-10-31T23:48:31.560</time></trkpt><trkpt lat="55.6542100" lon="38.5335900"><time>2020-10-31T23:53:45.560</time></trkpt><trkpt lat="55.6541200" lon="38.5335470"><time>2020-10-31T23:55:49.557</time></trkpt><trkpt lat="55.6541780" lon="38.5337130"><time>2020-10-31T23:57:17.557</time></trkpt><trkpt lat="55.6542380" lon="38.5335780"><time>2020-10-31T23:58:02.557</time></trkpt><trkpt lat="55.6541720" lon="38.5334870"><time>2020-10-31T23:59:10.560</time></trkpt><trkpt lat="55.6542470" lon="38.5334130"><time>2020-11-01T00:02:06.560</time></trkpt><trkpt lat="55.6541850" lon="38.5333230"><time>2020-11-01T00:03:10.557</time></trkpt><trkpt lat="55.6541250" lon="38.5334170"><time>2020-11-01T00:03:32.560</time></trkpt><trkpt lat="55.6542170" lon="38.5334850"><time>2020-11-01T00:05:08.557</time></trkpt><trkpt lat="55.6541800" lon="38.5333580"><time>2020-11-01T00:07:08.560</time></trkpt><trkpt lat="55.6541480" lon="38.5335250"><time>2020-11-01T00:08:14.557</time></trkpt><trkpt lat="55.6540580" lon="38.5335230"><time>2020-11-01T00:12:50.557</time></trkpt><trkpt lat="55.6541550" lon="38.5335120"><time>2020-11-01T00:13:53.560</time></trkpt><trkpt lat="55.6540600" lon="38.5334850"><time>2020-11-01T00:36:31.557</time></trkpt><trkpt lat="55.6541430" lon="38.5335070"><time>2020-11-01T00:39:19.567</time></trkpt><trkpt lat="55.6540720" lon="38.5334100"><time>2020-11-01T00:46:18.563</time></trkpt><trkpt lat="55.6540700" lon="38.5335700"><time>2020-11-01T00:47:28.560</time></trkpt><trkpt lat="55.6540750" lon="38.5334130"><time>2020-11-01T00:49:24.560</time></trkpt><trkpt lat="55.6541620" lon="38.5334000"><time>2020-11-01T00:52:39.567</time></trkpt><trkpt lat="55.6541320" lon="38.5334920"><time>2020-11-01T00:53:20.557</time></trkpt><trkpt lat="55.6540530" lon="38.5336050"><time>2020-11-01T00:54:00.563</time></trkpt><trkpt lat="55.6541380" lon="38.5335920"><time>2020-11-01T00:55:53.560</time></trkpt><trkpt lat="55.6541480" lon="38.5334230"><time>2020-11-01T00:56:44.557</time></trkpt><trkpt lat="55.6541020" lon="38.5335330"><time>2020-11-01T00:58:16.563</time></trkpt><trkpt lat="55.6541220" lon="38.5337180"><time>2020-11-01T01:02:44.557</time></trkpt><trkpt lat="55.6542280" lon="38.5335720"><time>2020-11-01T01:02:54.560</time></trkpt><trkpt lat="55.6541730" lon="38.5335480"><time>2020-11-01T01:02:55.557</time></trkpt><trkpt lat="55.6544270" lon="38.5331070"><time>2020-11-01T01:03:32.557</time></trkpt><trkpt lat="55.6539300" lon="38.5334930"><time>2020-11-01T01:07:20.553</time></trkpt><trkpt lat="55.6540100" lon="38.5338220"><time>2020-11-01T01:07:21.557</time></trkpt><trkpt lat="55.6540720" lon="38.5338180"><time>2020-11-01T01:07:23.557</time></trkpt><trkpt lat="55.6541350" lon="38.5336300"><time>2020-11-01T01:07:30.557</time></trkpt><trkpt lat="55.6541470" lon="38.5335520"><time>2020-11-01T01:07:32.563</time></trkpt><trkpt lat="55.6541230" lon="38.5333430"><time>2020-11-01T01:07:39.557</time></trkpt><trkpt lat="55.6535980" lon="38.5330130"><time>2020-11-01T01:11:04.557</time></trkpt><trkpt lat="55.6536400" lon="38.5331380"><time>2020-11-01T01:11:05.553</time></trkpt><trkpt lat="55.6536880" lon="38.5331270"><time>2020-11-01T01:11:07.563</time></trkpt><trkpt lat="55.6537220" lon="38.5331970"><time>2020-11-01T01:11:08.563</time></trkpt><trkpt lat="55.6537720" lon="38.5332970"><time>2020-11-01T01:11:09.553</time></trkpt><trkpt lat="55.6538050" lon="38.5331470"><time>2020-11-01T01:11:23.557</time></trkpt><trkpt lat="55.6538850" lon="38.5332120"><time>2020-11-01T01:11:44.563</time></trkpt><trkpt lat="55.6539280" lon="38.5332380"><time>2020-11-01T01:11:47.560</time></trkpt><trkpt lat="55.6540170" lon="38.5333200"><time>2020-11-01T01:11:57.563</time></trkpt><trkpt lat="55.6539700" lon="38.5331550"><time>2020-11-01T01:12:22.560</time></trkpt><trkpt lat="55.6540400" lon="38.5332120"><time>2020-11-01T01:12:58.560</time></trkpt><trkpt lat="55.6539870" lon="38.5329850"><time>2020-11-01T01:15:59.553</time></trkpt><trkpt lat="55.6540020" lon="38.5331380"><time>2020-11-01T01:16:00.557</time></trkpt><trkpt lat="55.6540280" lon="38.5332250"><time>2020-11-01T01:16:02.557</time></trkpt><trkpt lat="55.6541270" lon="38.5332630"><time>2020-11-01T01:16:06.553</time></trkpt><trkpt lat="55.6551400" lon="38.5334400"><time>2020-11-01T01:18:42.527</time></trkpt><trkpt lat="55.6550370" lon="38.5334700"><time>2020-11-01T01:18:45.563</time></trkpt><trkpt lat="55.6548080" lon="38.5334730"><time>2020-11-01T01:18:46.557</time></trkpt><trkpt lat="55.6547070" lon="38.5334770"><time>2020-11-01T01:18:47.557</time></trkpt><trkpt lat="55.6546300" lon="38.5334820"><time>2020-11-01T01:18:48.557</time></trkpt><trkpt lat="55.6545650" lon="38.5334750"><time>2020-11-01T01:18:49.563</time></trkpt><trkpt lat="55.6545100" lon="38.5335270"><time>2020-11-01T01:18:53.557</time></trkpt><trkpt lat="55.6544230" lon="38.5336070"><time>2020-11-01T01:18:55.557</time></trkpt><trkpt lat="55.6543400" lon="38.5336830"><time>2020-11-01T01:18:57.563</time></trkpt><trkpt lat="55.6542920" lon="38.5337470"><time>2020-11-01T01:18:58.567</time></trkpt><trkpt lat="55.6541780" lon="38.5337470"><time>2020-11-01T01:19:24.557</time></trkpt><trkpt lat="55.6541580" lon="38.5336680"><time>2020-11-01T01:19:26.560</time></trkpt><trkpt lat="55.6544050" lon="38.5332830"><time>2020-11-01T01:42:43.560</time></trkpt><trkpt lat="55.6543070" lon="38.5333850"><time>2020-11-01T01:42:45.560</time></trkpt><trkpt lat="55.6542500" lon="38.5334150"><time>2020-11-01T01:42:46.560</time></trkpt><trkpt lat="55.6544050" lon="38.5333430"><time>2020-11-01T01:42:47.557</time></trkpt><trkpt lat="55.6544980" lon="38.5333000"><time>2020-11-01T01:42:48.557</time></trkpt><trkpt lat="55.6543780" lon="38.5333550"><time>2020-11-01T01:42:49.557</time></trkpt><trkpt lat="55.6541680" lon="38.5334730"><time>2020-11-01T01:42:50.557</time></trkpt><trkpt lat="55.6541200" lon="38.5334700"><time>2020-11-01T01:42:54.560</time></trkpt><trkpt lat="55.6540720" lon="38.5334950"><time>2020-11-01T01:43:16.560</time></trkpt><trkpt lat="55.6541580" lon="38.5334480"><time>2020-11-01T01:43:23.557</time></trkpt><trkpt lat="55.6540780" lon="38.5335600"><time>2020-11-01T01:43:33.560</time></trkpt><trkpt lat="55.6539530" lon="38.5336430"><time>2020-11-01T01:44:06.563</time></trkpt><trkpt lat="55.6540350" lon="38.5335320"><time>2020-11-01T01:44:18.523</time></trkpt><trkpt lat="55.6539980" lon="38.5336080"><time>2020-11-01T01:44:57.563</time></trkpt><trkpt lat="55.6541300" lon="38.5334620"><time>2020-11-01T01:45:43.563</time></trkpt><trkpt lat="55.6541800" lon="38.5334220"><time>2020-11-01T01:45:45.567</time></trkpt><trkpt lat="55.6541000" lon="38.5335350"><time>2020-11-01T01:46:34.560</time></trkpt><trkpt lat="55.6540030" lon="38.5336020"><time>2020-11-01T01:47:30.560</time></trkpt><trkpt lat="55.6540970" lon="38.5335520"><time>2020-11-01T01:48:26.560</time></trkpt><trkpt lat="55.6541450" lon="38.5334650"><time>2020-11-01T01:48:28.560</time></trkpt><trkpt lat="55.6541070" lon="38.5335670"><time>2020-11-01T01:49:43.563</time></trkpt><trkpt lat="55.6540020" lon="38.5335430"><time>2020-11-01T01:50:27.557</time></trkpt><trkpt lat="55.6540870" lon="38.5335300"><time>2020-11-01T01:50:50.560</time></trkpt><trkpt lat="55.6540250" lon="38.5335530"><time>2020-11-01T01:53:03.560</time></trkpt><trkpt lat="55.6541000" lon="38.5336300"><time>2020-11-01T01:54:12.563</time></trkpt><trkpt lat="55.6540480" lon="38.5336020"><time>2020-11-01T01:54:40.563</time></trkpt><trkpt lat="55.6540670" lon="38.5334370"><time>2020-11-01T01:55:30.563</time></trkpt><trkpt lat="55.6539950" lon="38.5335280"><time>2020-11-01T01:56:37.563</time></trkpt><trkpt lat="55.6539980" lon="38.5336550"><time>2020-11-01T01:56:52.560</time></trkpt><trkpt lat="55.6539420" lon="38.5336530"><time>2020-11-01T01:56:53.560</time></trkpt><trkpt lat="55.6540200" lon="38.5335480"><time>2020-11-01T01:57:03.557</time></trkpt><trkpt lat="55.6540800" lon="38.5335930"><time>2020-11-01T01:57:05.557</time></trkpt><trkpt lat="55.6540220" lon="38.5336020"><time>2020-11-01T01:57:07.557</time></trkpt><trkpt lat="55.6541370" lon="38.5336380"><time>2020-11-01T01:57:21.567</time></trkpt><trkpt lat="55.6541180" lon="38.5335020"><time>2020-11-01T01:57:47.560</time></trkpt><trkpt lat="55.6540320" lon="38.5335380"><time>2020-11-01T01:58:10.563</time></trkpt><trkpt lat="55.6540620" lon="38.5333550"><time>2020-11-01T01:58:56.560</time></trkpt><trkpt lat="55.6541820" lon="38.5333820"><time>2020-11-01T01:59:34.563</time></trkpt><trkpt lat="55.6541020" lon="38.5334470"><time>2020-11-01T01:59:51.563</time></trkpt><trkpt lat="55.6541830" lon="38.5336120"><time>2020-11-01T02:00:16.560</time></trkpt><trkpt lat="55.6541030" lon="38.5335430"><time>2020-11-01T02:01:23.563</time></trkpt><trkpt lat="55.6540550" lon="38.5335500"><time>2020-11-01T02:01:26.560</time></trkpt><trkpt lat="55.6541300" lon="38.5336370"><time>2020-11-01T02:03:22.563</time></trkpt><trkpt lat="55.6540900" lon="38.5335050"><time>2020-11-01T02:04:14.563</time></trkpt><trkpt lat="55.6539830" lon="38.5334800"><time>2020-11-01T02:06:28.563</time></trkpt><trkpt lat="55.6540700" lon="38.5334780"><time>2020-11-01T02:06:47.560</time></trkpt><trkpt lat="55.6541550" lon="38.5335750"><time>2020-11-01T02:07:54.007</time></trkpt><trkpt lat="55.6540600" lon="38.5335050"><time>2020-11-01T02:10:07.560</time></trkpt><trkpt lat="55.6541470" lon="38.5335430"><time>2020-11-01T02:10:31.567</time></trkpt><trkpt lat="55.6540670" lon="38.5335670"><time>2020-11-01T02:18:04.563</time></trkpt><trkpt lat="55.6539830" lon="38.5334280"><time>2020-11-01T02:18:38.557</time></trkpt><trkpt lat="55.6543280" lon="38.5339730"><time>2020-11-01T02:38:43.543</time></trkpt><trkpt lat="55.6543820" lon="38.5340450"><time>2020-11-01T02:38:48.537</time></trkpt><trkpt lat="55.6543250" lon="38.5340200"><time>2020-11-01T02:38:58.537</time></trkpt><trkpt lat="55.6542920" lon="38.5339500"><time>2020-11-01T02:39:00.540</time></trkpt><trkpt lat="55.6541930" lon="38.5335030"><time>2020-11-01T06:10:26.533</time></trkpt><trkpt lat="55.6542170" lon="38.5334270"><time>2020-11-01T06:10:39.547</time></trkpt><trkpt lat="55.6541450" lon="38.5335030"><time>2020-11-01T06:11:54.550</time></trkpt><trkpt lat="55.6541200" lon="38.5335820"><time>2020-11-01T06:12:38.517</time></trkpt><trkpt lat="55.6541830" lon="38.5335400"><time>2020-11-01T06:12:42.547</time></trkpt><trkpt lat="55.6542330" lon="38.5334920"><time>2020-11-01T06:12:43.543</time></trkpt><trkpt lat="55.6542980" lon="38.5334170"><time>2020-11-01T06:12:44.543</time></trkpt><trkpt lat="55.6543470" lon="38.5333580"><time>2020-11-01T06:12:45.547</time></trkpt><trkpt lat="55.6542100" lon="38.5335130"><time>2020-11-01T06:12:46.547</time></trkpt><trkpt lat="55.6541970" lon="38.5334050"><time>2020-11-01T06:12:53.510</time></trkpt><trkpt lat="55.6541500" lon="38.5333100"><time>2020-11-01T06:12:57.523</time></trkpt><trkpt lat="55.6541600" lon="38.5332130"><time>2020-11-01T06:13:00.503</time></trkpt><trkpt lat="55.6541520" lon="38.5333300"><time>2020-11-01T06:13:03.507</time></trkpt><trkpt lat="55.6541050" lon="38.5334480"><time>2020-11-01T06:13:08.507</time></trkpt><trkpt lat="55.6540570" lon="38.5335120"><time>2020-11-01T06:13:18.537</time></trkpt><trkpt lat="55.6540020" lon="38.5335350"><time>2020-11-01T06:13:20.507</time></trkpt><trkpt lat="55.6540380" lon="38.5334880"><time>2020-11-01T06:13:33.550</time></trkpt><trkpt lat="55.6541320" lon="38.5335120"><time>2020-11-01T06:15:24.550</time></trkpt><trkpt lat="55.6540550" lon="38.5334330"><time>2020-11-01T07:14:18.547</time></trkpt><trkpt lat="55.6541500" lon="38.5334680"><time>2020-11-01T07:22:23.547</time></trkpt><trkpt lat="55.6542120" lon="38.5334870"><time>2020-11-01T07:24:59.527</time></trkpt><trkpt lat="55.6540850" lon="38.5335300"><time>2020-11-01T07:25:00.523</time></trkpt><trkpt lat="55.6541520" lon="38.5335170"><time>2020-11-01T07:25:01.547</time></trkpt><trkpt lat="55.6542200" lon="38.5334700"><time>2020-11-01T07:25:04.757</time></trkpt><trkpt lat="55.6542180" lon="38.5333880"><time>2020-11-01T07:25:12.560</time></trkpt><trkpt lat="55.6541270" lon="38.5333770"><time>2020-11-01T07:25:47.517</time></trkpt><trkpt lat="55.6541030" lon="38.5334850"><time>2020-11-01T07:25:51.523</time></trkpt><trkpt lat="55.6541520" lon="38.5334070"><time>2020-11-01T07:29:14.507</time></trkpt><trkpt lat="55.6540750" lon="38.5334770"><time>2020-11-01T07:30:03.520</time></trkpt><trkpt lat="55.6541530" lon="38.5334530"><time>2020-11-01T07:31:24.537</time></trkpt><trkpt lat="55.6541000" lon="38.5336420"><time>2020-11-01T07:33:29.537</time></trkpt><trkpt lat="55.6540120" lon="38.5336670"><time>2020-11-01T07:33:34.533</time></trkpt><trkpt lat="55.6539250" lon="38.5336100"><time>2020-11-01T07:33:35.530</time></trkpt><trkpt lat="55.6538370" lon="38.5335430"><time>2020-11-01T07:33:36.513</time></trkpt><trkpt lat="55.6542930" lon="38.5335050"><time>2020-11-01T07:33:57.510</time></trkpt><trkpt lat="55.6542320" lon="38.5333650"><time>2020-11-01T07:34:03.547</time></trkpt><trkpt lat="55.6541830" lon="38.5334030"><time>2020-11-01T07:34:06.550</time></trkpt><trkpt lat="55.6541300" lon="38.5334080"><time>2020-11-01T07:34:14.543</time></trkpt><trkpt lat="55.6540380" lon="38.5333770"><time>2020-11-01T07:34:24.507</time></trkpt><trkpt lat="55.6540930" lon="38.5334720"><time>2020-11-01T07:34:41.543</time></trkpt><trkpt lat="55.6541380" lon="38.5334380"><time>2020-11-01T07:34:46.547</time></trkpt><trkpt lat="55.6540650" lon="38.5332980"><time>2020-11-01T07:35:46.547</time></trkpt><trkpt lat="55.6541080" lon="38.5332620"><time>2020-11-01T07:36:07.550</time></trkpt><trkpt lat="55.6541450" lon="38.5334600"><time>2020-11-01T07:36:44.547</time></trkpt><trkpt lat="55.6540500" lon="38.5335020"><time>2020-11-01T07:38:29.547</time></trkpt><trkpt lat="55.6540850" lon="38.5333350"><time>2020-11-01T07:41:11.547</time></trkpt><trkpt lat="55.6540500" lon="38.5332780"><time>2020-11-01T07:41:18.547</time></trkpt><trkpt lat="55.6541200" lon="38.5334030"><time>2020-11-01T07:42:09.547</time></trkpt><trkpt lat="55.6541500" lon="38.5332870"><time>2020-11-01T07:42:49.547</time></trkpt><trkpt lat="55.6540400" lon="38.5333120"><time>2020-11-01T07:43:41.547</time></trkpt><trkpt lat="55.6541250" lon="38.5333020"><time>2020-11-01T07:44:27.550</time></trkpt><trkpt lat="55.6542530" lon="38.5333680"><time>2020-11-01T07:44:45.553</time></trkpt><trkpt lat="55.6541750" lon="38.5333630"><time>2020-11-01T07:45:19.550</time></trkpt><trkpt lat="55.6542600" lon="38.5334150"><time>2020-11-01T07:45:59.550</time></trkpt><trkpt lat="55.6541900" lon="38.5335600"><time>2020-11-01T07:46:12.550</time></trkpt><trkpt lat="55.6540880" lon="38.5335180"><time>2020-11-01T07:46:36.547</time></trkpt><trkpt lat="55.6541420" lon="38.5333780"><time>2020-11-01T07:46:57.547</time></trkpt><trkpt lat="55.6541930" lon="38.5333220"><time>2020-11-01T07:47:00.547</time></trkpt><trkpt lat="55.6541000" lon="38.5333730"><time>2020-11-01T07:47:11.547</time></trkpt><trkpt lat="55.6541920" lon="38.5332930"><time>2020-11-01T07:48:58.550</time></trkpt><trkpt lat="55.6541400" lon="38.5333030"><time>2020-11-01T07:49:01.550</time></trkpt><trkpt lat="55.6540680" lon="38.5334030"><time>2020-11-01T07:49:20.550</time></trkpt><trkpt lat="55.6539480" lon="38.5334320"><time>2020-11-01T07:49:33.553</time></trkpt><trkpt lat="55.6539930" lon="38.5334320"><time>2020-11-01T07:50:03.550</time></trkpt><trkpt lat="55.6540850" lon="38.5333970"><time>2020-11-01T07:50:34.550</time></trkpt><trkpt lat="55.6541280" lon="38.5334330"><time>2020-11-01T07:51:09.553</time></trkpt><trkpt lat="55.6540830" lon="38.5334030"><time>2020-11-01T07:51:32.543</time></trkpt><trkpt lat="55.6540180" lon="38.5334050"><time>2020-11-01T07:51:48.577</time></trkpt><trkpt lat="55.6539580" lon="38.5334070"><time>2020-11-01T07:51:53.543</time></trkpt><trkpt lat="55.6540570" lon="38.5333970"><time>2020-11-01T07:52:01.550</time></trkpt><trkpt lat="55.6540020" lon="38.5334930"><time>2020-11-01T07:54:41.547</time></trkpt><trkpt lat="55.6539080" lon="38.5333750"><time>2020-11-01T07:55:20.550</time></trkpt><trkpt lat="55.6538650" lon="38.5334070"><time>2020-11-01T07:55:22.550</time></trkpt><trkpt lat="55.6539450" lon="38.5333850"><time>2020-11-01T07:55:36.547</time></trkpt><trkpt lat="55.6539930" lon="38.5333880"><time>2020-11-01T07:55:39.550</time></trkpt><trkpt lat="55.6540800" lon="38.5334300"><time>2020-11-01T07:55:44.550</time></trkpt><trkpt lat="55.6541250" lon="38.5334020"><time>2020-11-01T07:55:47.547</time></trkpt><trkpt lat="55.6540280" lon="38.5334450"><time>2020-11-01T07:56:11.550</time></trkpt><trkpt lat="55.6539270" lon="38.5333570"><time>2020-11-01T07:56:43.547</time></trkpt><trkpt lat="55.6540030" lon="38.5334180"><time>2020-11-01T07:57:02.553</time></trkpt><trkpt lat="55.6540530" lon="38.5334350"><time>2020-11-01T07:57:05.550</time></trkpt><trkpt lat="55.6540300" lon="38.5335970"><time>2020-11-01T07:57:25.553</time></trkpt><trkpt lat="55.6541300" lon="38.5336750"><time>2020-11-01T07:57:40.550</time></trkpt><trkpt lat="55.6541900" lon="38.5336850"><time>2020-11-01T07:57:44.550</time></trkpt><trkpt lat="55.6542600" lon="38.5335420"><time>2020-11-01T07:58:01.553</time></trkpt><trkpt lat="55.6543730" lon="38.5335370"><time>2020-11-01T07:58:20.550</time></trkpt><trkpt lat="55.6544880" lon="38.5335080"><time>2020-11-01T07:58:33.550</time></trkpt><trkpt lat="55.6546100" lon="38.5335050"><time>2020-11-01T07:58:44.553</time></trkpt><trkpt lat="55.6547300" lon="38.5334750"><time>2020-11-01T07:58:55.553</time></trkpt><trkpt lat="55.6548420" lon="38.5334080"><time>2020-11-01T07:59:06.553</time></trkpt><trkpt lat="55.6549580" lon="38.5333870"><time>2020-11-01T07:59:18.550</time></trkpt><trkpt lat="55.6550020" lon="38.5333500"><time>2020-11-01T07:59:21.553</time></trkpt><trkpt lat="55.6550900" lon="38.5331870"><time>2020-11-01T07:59:36.550</time></trkpt><trkpt lat="55.6551280" lon="38.5331430"><time>2020-11-01T07:59:39.547</time></trkpt><trkpt lat="55.6552120" lon="38.5330580"><time>2020-11-01T07:59:50.517</time></trkpt><trkpt lat="55.6552870" lon="38.5329070"><time>2020-11-01T08:00:16.557</time></trkpt><trkpt lat="55.6551950" lon="38.5328850"><time>2020-11-01T08:00:44.557</time></trkpt><trkpt lat="55.6551350" lon="38.5330200"><time>2020-11-01T08:01:01.553</time></trkpt><trkpt lat="55.6551300" lon="38.5332000"><time>2020-11-01T08:01:17.553</time></trkpt><trkpt lat="55.6551230" lon="38.5334280"><time>2020-11-01T08:01:29.550</time></trkpt><trkpt lat="55.6551530" lon="38.5336570"><time>2020-11-01T08:01:41.553</time></trkpt><trkpt lat="55.6551570" lon="38.5338820"><time>2020-11-01T08:01:54.557</time></trkpt><trkpt lat="55.6551600" lon="38.5341080"><time>2020-11-01T08:02:05.550</time></trkpt><trkpt lat="55.6551470" lon="38.5343180"><time>2020-11-01T08:02:19.550</time></trkpt><trkpt lat="55.6551150" lon="38.5345300"><time>2020-11-01T08:02:34.550</time></trkpt><trkpt lat="55.6550930" lon="38.5347520"><time>2020-11-01T08:02:46.550</time></trkpt><trkpt lat="55.6550820" lon="38.5349830"><time>2020-11-01T08:02:56.550</time></trkpt><trkpt lat="55.6550750" lon="38.5351930"><time>2020-11-01T08:03:07.557</time></trkpt><trkpt lat="55.6550480" lon="38.5354250"><time>2020-11-01T08:03:21.557</time></trkpt><trkpt lat="55.6550400" lon="38.5355100"><time>2020-11-01T08:03:24.557</time></trkpt><trkpt lat="55.6550430" lon="38.5356720"><time>2020-11-01T08:03:31.553</time></trkpt><trkpt lat="55.6550170" lon="38.5359050"><time>2020-11-01T08:03:43.553</time></trkpt><trkpt lat="55.6550180" lon="38.5361070"><time>2020-11-01T08:03:54.553</time></trkpt><trkpt lat="55.6550280" lon="38.5363080"><time>2020-11-01T08:04:07.550</time></trkpt><trkpt lat="55.6550330" lon="38.5365330"><time>2020-11-01T08:04:20.553</time></trkpt><trkpt lat="55.6550470" lon="38.5367400"><time>2020-11-01T08:04:32.553</time></trkpt><trkpt lat="55.6550320" lon="38.5369400"><time>2020-11-01T08:04:43.510</time></trkpt><trkpt lat="55.6550070" lon="38.5370230"><time>2020-11-01T08:04:46.557</time></trkpt><trkpt lat="55.6549630" lon="38.5371770"><time>2020-11-01T08:04:55.553</time></trkpt><trkpt lat="55.6549020" lon="38.5373620"><time>2020-11-01T08:05:05.553</time></trkpt><trkpt lat="55.6548800" lon="38.5375680"><time>2020-11-01T08:05:30.553</time></trkpt><trkpt lat="55.6548570" lon="38.5377580"><time>2020-11-01T08:05:43.557</time></trkpt><trkpt lat="55.6548380" lon="38.5379800"><time>2020-11-01T08:05:58.557</time></trkpt><trkpt lat="55.6547950" lon="38.5381780"><time>2020-11-01T08:06:08.557</time></trkpt><trkpt lat="55.6547600" lon="38.5383980"><time>2020-11-01T08:06:19.553</time></trkpt><trkpt lat="55.6546980" lon="38.5385850"><time>2020-11-01T08:06:28.553</time></trkpt><trkpt lat="55.6546450" lon="38.5387980"><time>2020-11-01T08:06:40.557</time></trkpt><trkpt lat="55.6545980" lon="38.5390170"><time>2020-11-01T08:06:52.553</time></trkpt><trkpt lat="55.6545950" lon="38.5392470"><time>2020-11-01T08:07:02.553</time></trkpt><trkpt lat="55.6545830" lon="38.5394800"><time>2020-11-01T08:07:12.553</time></trkpt><trkpt lat="55.6545820" lon="38.5395620"><time>2020-11-01T08:07:15.547</time></trkpt><trkpt lat="55.6545880" lon="38.5397420"><time>2020-11-01T08:07:23.557</time></trkpt><trkpt lat="55.6545880" lon="38.5398250"><time>2020-11-01T08:07:26.557</time></trkpt><trkpt lat="55.6545670" lon="38.5400000"><time>2020-11-01T08:07:32.553</time></trkpt><trkpt lat="55.6545120" lon="38.5402080"><time>2020-11-01T08:07:45.553</time></trkpt><trkpt lat="55.6545080" lon="38.5404270"><time>2020-11-01T08:07:56.550</time></trkpt><trkpt lat="55.6545100" lon="38.5406250"><time>2020-11-01T08:08:09.560</time></trkpt><trkpt lat="55.6544950" lon="38.5408370"><time>2020-11-01T08:08:25.557</time></trkpt><trkpt lat="55.6544620" lon="38.5410400"><time>2020-11-01T08:08:38.557</time></trkpt><trkpt lat="55.6544570" lon="38.5412650"><time>2020-11-01T08:08:49.557</time></trkpt><trkpt lat="55.6544050" lon="38.5414670"><time>2020-11-01T08:09:00.557</time></trkpt><trkpt lat="55.6544080" lon="38.5416850"><time>2020-11-01T08:09:12.560</time></trkpt><trkpt lat="55.6543600" lon="38.5418830"><time>2020-11-01T08:09:26.557</time></trkpt><trkpt lat="55.6543350" lon="38.5421330"><time>2020-11-01T08:09:36.557</time></trkpt><trkpt lat="55.6543270" lon="38.5422270"><time>2020-11-01T08:09:39.557</time></trkpt><trkpt lat="55.6543220" lon="38.5424220"><time>2020-11-01T08:09:51.553</time></trkpt><trkpt lat="55.6543180" lon="38.5425030"><time>2020-11-01T08:09:53.553</time></trkpt><trkpt lat="55.6543030" lon="38.5427270"><time>2020-11-01T08:10:05.557</time></trkpt><trkpt lat="55.6542970" lon="38.5428130"><time>2020-11-01T08:10:08.557</time></trkpt><trkpt lat="55.6542830" lon="38.5428970"><time>2020-11-01T08:10:13.557</time></trkpt><trkpt lat="55.6542550" lon="38.5430480"><time>2020-11-01T08:10:26.557</time></trkpt><trkpt lat="55.6542400" lon="38.5432270"><time>2020-11-01T08:10:43.553</time></trkpt><trkpt lat="55.6542230" lon="38.5434130"><time>2020-11-01T08:10:57.557</time></trkpt><trkpt lat="55.6541950" lon="38.5436270"><time>2020-11-01T08:11:16.553</time></trkpt><trkpt lat="55.6541930" lon="38.5438400"><time>2020-11-01T08:11:27.557</time></trkpt><trkpt lat="55.6541980" lon="38.5440720"><time>2020-11-01T08:11:39.553</time></trkpt><trkpt lat="55.6541630" lon="38.5442670"><time>2020-11-01T08:11:59.553</time></trkpt><trkpt lat="55.6541330" lon="38.5444800"><time>2020-11-01T08:12:12.553</time></trkpt><trkpt lat="55.6541220" lon="38.5447100"><time>2020-11-01T08:12:24.557</time></trkpt><trkpt lat="55.6541080" lon="38.5449420"><time>2020-11-01T08:12:39.557</time></trkpt><trkpt lat="55.6540350" lon="38.5451230"><time>2020-11-01T08:12:51.557</time></trkpt><trkpt lat="55.6539880" lon="38.5453580"><time>2020-11-01T08:13:03.553</time></trkpt><trkpt lat="55.6539500" lon="38.5455750"><time>2020-11-01T08:13:16.553</time></trkpt><trkpt lat="55.6539400" lon="38.5456550"><time>2020-11-01T08:13:19.557</time></trkpt><trkpt lat="55.6539430" lon="38.5458230"><time>2020-11-01T08:13:29.553</time></trkpt><trkpt lat="55.6539080" lon="38.5460400"><time>2020-11-01T08:13:40.557</time></trkpt><trkpt lat="55.6539200" lon="38.5462500"><time>2020-11-01T08:13:51.557</time></trkpt><trkpt lat="55.6539350" lon="38.5464700"><time>2020-11-01T08:14:03.553</time></trkpt><trkpt lat="55.6539330" lon="38.5466750"><time>2020-11-01T08:14:14.557</time></trkpt><trkpt lat="55.6539120" lon="38.5469080"><time>2020-11-01T08:14:24.557</time></trkpt><trkpt lat="55.6539080" lon="38.5471350"><time>2020-11-01T08:14:35.553</time></trkpt><trkpt lat="55.6539020" lon="38.5473400"><time>2020-11-01T08:14:45.553</time></trkpt><trkpt lat="55.6538850" lon="38.5474430"><time>2020-11-01T08:14:49.557</time></trkpt><trkpt lat="55.6538670" lon="38.5475350"><time>2020-11-01T08:14:53.557</time></trkpt><trkpt lat="55.6538330" lon="38.5476030"><time>2020-11-01T08:14:56.553</time></trkpt><trkpt lat="55.6537770" lon="38.5477520"><time>2020-11-01T08:15:04.557</time></trkpt><trkpt lat="55.6537000" lon="38.5479250"><time>2020-11-01T08:15:14.557</time></trkpt><trkpt lat="55.6537220" lon="38.5481380"><time>2020-11-01T08:15:26.557</time></trkpt><trkpt lat="55.6537220" lon="38.5483820"><time>2020-11-01T08:15:38.560</time></trkpt><trkpt lat="55.6537150" lon="38.5486330"><time>2020-11-01T08:15:51.557</time></trkpt><trkpt lat="55.6537200" lon="38.5488730"><time>2020-11-01T08:16:02.557</time></trkpt><trkpt lat="55.6537200" lon="38.5491050"><time>2020-11-01T08:16:16.557</time></trkpt><trkpt lat="55.6537120" lon="38.5493100"><time>2020-11-01T08:16:28.557</time></trkpt><trkpt lat="55.6536930" lon="38.5494220"><time>2020-11-01T08:16:31.557</time></trkpt><trkpt lat="55.6536700" lon="38.5495850"><time>2020-11-01T08:16:41.557</time></trkpt><trkpt lat="55.6536520" lon="38.5496680"><time>2020-11-01T08:16:44.557</time></trkpt><trkpt lat="55.6536480" lon="38.5498600"><time>2020-11-01T08:16:53.557</time></trkpt><trkpt lat="55.6536250" lon="38.5499330"><time>2020-11-01T08:16:56.557</time></trkpt><trkpt lat="55.6536100" lon="38.5501080"><time>2020-11-01T08:17:07.557</time></trkpt><trkpt lat="55.6536050" lon="38.5502900"><time>2020-11-01T08:17:18.560</time></trkpt><trkpt lat="55.6536220" lon="38.5505370"><time>2020-11-01T08:17:37.553</time></trkpt><trkpt lat="55.6536580" lon="38.5505920"><time>2020-11-01T08:17:40.553</time></trkpt><trkpt lat="55.6537370" lon="38.5506700"><time>2020-11-01T08:17:46.557</time></trkpt><trkpt lat="55.6538230" lon="38.5508550"><time>2020-11-01T08:18:03.557</time></trkpt><trkpt lat="55.6539350" lon="38.5509050"><time>2020-11-01T08:18:16.557</time></trkpt><trkpt lat="55.6539870" lon="38.5510550"><time>2020-11-01T08:18:34.557</time></trkpt><trkpt lat="55.6540830" lon="38.5511970"><time>2020-11-01T08:18:50.557</time></trkpt><trkpt lat="55.6542050" lon="38.5512220"><time>2020-11-01T08:19:03.557</time></trkpt><trkpt lat="55.6543320" lon="38.5511850"><time>2020-11-01T08:19:14.557</time></trkpt><trkpt lat="55.6544570" lon="38.5511700"><time>2020-11-01T08:19:44.557</time></trkpt><trkpt lat="55.6544950" lon="38.5510170"><time>2020-11-01T08:20:36.557</time></trkpt><trkpt lat="55.6545250" lon="38.5508480"><time>2020-11-01T08:21:07.560</time></trkpt><trkpt lat="55.6544430" lon="38.5507030"><time>2020-11-01T08:22:08.557</time></trkpt><trkpt lat="55.6543920" lon="38.5507080"><time>2020-11-01T08:22:46.513</time></trkpt><trkpt lat="55.6543770" lon="38.5506320"><time>2020-11-01T08:22:49.507</time></trkpt><trkpt lat="55.6544220" lon="38.5506280"><time>2020-11-01T08:22:52.527</time></trkpt><trkpt lat="55.6545280" lon="38.5507220"><time>2020-11-01T08:22:58.523</time></trkpt><trkpt lat="55.6546220" lon="38.5507350"><time>2020-11-01T08:23:39.510</time></trkpt><trkpt lat="55.6545250" lon="38.5506380"><time>2020-11-01T08:23:52.540</time></trkpt><trkpt lat="55.6544780" lon="38.5506580"><time>2020-11-01T08:23:53.513</time></trkpt><trkpt lat="55.6545150" lon="38.5507080"><time>2020-11-01T08:24:00.520</time></trkpt><trkpt lat="55.6545330" lon="38.5507880"><time>2020-11-01T08:24:03.517</time></trkpt><trkpt lat="55.6545180" lon="38.5508700"><time>2020-11-01T08:24:09.520</time></trkpt><trkpt lat="55.6544770" lon="38.5506950"><time>2020-11-01T08:24:22.553</time></trkpt><trkpt lat="55.6544350" lon="38.5506520"><time>2020-11-01T08:24:24.547</time></trkpt><trkpt lat="55.6544270" lon="38.5506770"><time>2020-11-01T08:24:28.917</time></trkpt><trkpt lat="55.6545180" lon="38.5506200"><time>2020-11-01T08:24:31.527</time></trkpt><trkpt lat="55.6544600" lon="38.5507670"><time>2020-11-01T08:24:41.553</time></trkpt><trkpt lat="55.6545020" lon="38.5508280"><time>2020-11-01T08:24:45.557</time></trkpt><trkpt lat="55.6545450" lon="38.5508870"><time>2020-11-01T08:24:47.553</time></trkpt><trkpt lat="55.6545600" lon="38.5509620"><time>2020-11-01T08:24:52.553</time></trkpt><trkpt lat="55.6545200" lon="38.5510320"><time>2020-11-01T08:24:56.557</time></trkpt><trkpt lat="55.6545030" lon="38.5511120"><time>2020-11-01T08:25:00.550</time></trkpt><trkpt lat="55.6545580" lon="38.5511180"><time>2020-11-01T08:25:15.557</time></trkpt><trkpt lat="55.6546520" lon="38.5511100"><time>2020-11-01T08:25:36.557</time></trkpt><trkpt lat="55.6547050" lon="38.5509620"><time>2020-11-01T08:25:44.557</time></trkpt><trkpt lat="55.6547130" lon="38.5508680"><time>2020-11-01T08:25:48.553</time></trkpt><trkpt lat="55.6547330" lon="38.5507920"><time>2020-11-01T08:25:53.553</time></trkpt><trkpt lat="55.6548070" lon="38.5506720"><time>2020-11-01T08:26:05.553</time></trkpt><trkpt lat="55.6548820" lon="38.5506370"><time>2020-11-01T08:26:12.557</time></trkpt><trkpt lat="55.6549370" lon="38.5506420"><time>2020-11-01T08:26:14.557</time></trkpt><trkpt lat="55.6549880" lon="38.5506600"><time>2020-11-01T08:26:18.547</time></trkpt><trkpt lat="55.6550370" lon="38.5506720"><time>2020-11-01T08:26:20.557</time></trkpt><trkpt lat="55.6550920" lon="38.5507300"><time>2020-11-01T08:26:23.553</time></trkpt><trkpt lat="55.6551370" lon="38.5507800"><time>2020-11-01T08:26:26.553</time></trkpt><trkpt lat="55.6551780" lon="38.5508830"><time>2020-11-01T08:26:29.553</time></trkpt><trkpt lat="55.6552080" lon="38.5509450"><time>2020-11-01T08:26:30.553</time></trkpt><trkpt lat="55.6552500" lon="38.5510380"><time>2020-11-01T08:26:31.530</time></trkpt><trkpt lat="55.6552720" lon="38.5511320"><time>2020-11-01T08:26:33.557</time></trkpt><trkpt lat="55.6553000" lon="38.5512180"><time>2020-11-01T08:26:35.557</time></trkpt><trkpt lat="55.6553430" lon="38.5512870"><time>2020-11-01T08:26:37.557</time></trkpt><trkpt lat="55.6553500" lon="38.5513670"><time>2020-11-01T08:26:42.557</time></trkpt><trkpt lat="55.6553670" lon="38.5515520"><time>2020-11-01T08:26:52.557</time></trkpt><trkpt lat="55.6554030" lon="38.5516230"><time>2020-11-01T08:26:55.553</time></trkpt><trkpt lat="55.6554350" lon="38.5517350"><time>2020-11-01T08:26:57.557</time></trkpt><trkpt lat="55.6554330" lon="38.5518300"><time>2020-11-01T08:27:00.563</time></trkpt><trkpt lat="55.6554880" lon="38.5519250"><time>2020-11-01T08:27:04.560</time></trkpt><trkpt lat="55.6555450" lon="38.5519950"><time>2020-11-01T08:27:06.553</time></trkpt><trkpt lat="55.6555780" lon="38.5520670"><time>2020-11-01T08:27:08.553</time></trkpt><trkpt lat="55.6555970" lon="38.5521570"><time>2020-11-01T08:27:12.557</time></trkpt><trkpt lat="55.6556230" lon="38.5522400"><time>2020-11-01T08:27:15.553</time></trkpt><trkpt lat="55.6556430" lon="38.5523200"><time>2020-11-01T08:27:17.557</time></trkpt><trkpt lat="55.6556870" lon="38.5524130"><time>2020-11-01T08:27:20.557</time></trkpt><trkpt lat="55.6557770" lon="38.5526080"><time>2020-11-01T08:27:30.557</time></trkpt><trkpt lat="55.6558270" lon="38.5526400"><time>2020-11-01T08:27:33.557</time></trkpt><trkpt lat="55.6558920" lon="38.5526830"><time>2020-11-01T08:27:36.557</time></trkpt><trkpt lat="55.6559200" lon="38.5527600"><time>2020-11-01T08:27:38.557</time></trkpt><trkpt lat="55.6559530" lon="38.5528180"><time>2020-11-01T08:27:40.557</time></trkpt><trkpt lat="55.6559720" lon="38.5529300"><time>2020-11-01T08:27:43.557</time></trkpt><trkpt lat="55.6560130" lon="38.5530030"><time>2020-11-01T08:27:46.557</time></trkpt><trkpt lat="55.6560620" lon="38.5530820"><time>2020-11-01T08:27:50.557</time></trkpt><trkpt lat="55.6561020" lon="38.5531480"><time>2020-11-01T08:27:52.557</time></trkpt><trkpt lat="55.6561600" lon="38.5532230"><time>2020-11-01T08:27:56.557</time></trkpt><trkpt lat="55.6562070" lon="38.5532930"><time>2020-11-01T08:27:58.557</time></trkpt><trkpt lat="55.6562430" lon="38.5534080"><time>2020-11-01T08:28:01.563</time></trkpt><trkpt lat="55.6562720" lon="38.5534730"><time>2020-11-01T08:28:03.553</time></trkpt><trkpt lat="55.6563030" lon="38.5535400"><time>2020-11-01T08:28:06.553</time></trkpt><trkpt lat="55.6563730" lon="38.5536600"><time>2020-11-01T08:28:13.553</time></trkpt><trkpt lat="55.6563970" lon="38.5537350"><time>2020-11-01T08:28:16.557</time></trkpt><trkpt lat="55.6564370" lon="38.5538280"><time>2020-11-01T08:28:19.557</time></trkpt><trkpt lat="55.6564650" lon="38.5539130"><time>2020-11-01T08:28:20.557</time></trkpt><trkpt lat="55.6564770" lon="38.5539950"><time>2020-11-01T08:28:21.557</time></trkpt><trkpt lat="55.6564870" lon="38.5540800"><time>2020-11-01T08:28:22.557</time></trkpt><trkpt lat="55.6565170" lon="38.5541750"><time>2020-11-01T08:28:24.557</time></trkpt><trkpt lat="55.6565570" lon="38.5542820"><time>2020-11-01T08:28:27.557</time></trkpt><trkpt lat="55.6565880" lon="38.5543480"><time>2020-11-01T08:28:30.557</time></trkpt><trkpt lat="55.6566370" lon="38.5544000"><time>2020-11-01T08:28:34.557</time></trkpt><trkpt lat="55.6566830" lon="38.5544530"><time>2020-11-01T08:28:37.557</time></trkpt><trkpt lat="55.6567100" lon="38.5545250"><time>2020-11-01T08:28:39.557</time></trkpt><trkpt lat="55.6567800" lon="38.5547280"><time>2020-11-01T08:28:52.553</time></trkpt><trkpt lat="55.6568230" lon="38.5548220"><time>2020-11-01T08:28:55.557</time></trkpt><trkpt lat="55.6568750" lon="38.5549820"><time>2020-11-01T08:29:03.553</time></trkpt><trkpt lat="55.6569130" lon="38.5550470"><time>2020-11-01T08:29:06.557</time></trkpt><trkpt lat="55.6569670" lon="38.5551930"><time>2020-11-01T08:29:11.553</time></trkpt><trkpt lat="55.6570120" lon="38.5552800"><time>2020-11-01T08:29:13.560</time></trkpt><trkpt lat="55.6570220" lon="38.5553820"><time>2020-11-01T08:29:15.557</time></trkpt><trkpt lat="55.6570680" lon="38.5555830"><time>2020-11-01T08:29:20.557</time></trkpt><trkpt lat="55.6571300" lon="38.5556770"><time>2020-11-01T08:29:22.553</time></trkpt><trkpt lat="55.6571680" lon="38.5557500"><time>2020-11-01T08:29:24.557</time></trkpt><trkpt lat="55.6572570" lon="38.5558820"><time>2020-11-01T08:29:31.563</time></trkpt><trkpt lat="55.6572920" lon="38.5559450"><time>2020-11-01T08:29:33.557</time></trkpt><trkpt lat="55.6573850" lon="38.5561180"><time>2020-11-01T08:29:43.557</time></trkpt><trkpt lat="55.6574420" lon="38.5562730"><time>2020-11-01T08:29:46.557</time></trkpt><trkpt lat="55.6574830" lon="38.5563870"><time>2020-11-01T08:29:47.557</time></trkpt><trkpt lat="55.6575450" lon="38.5565900"><time>2020-11-01T08:29:48.553</time></trkpt><trkpt lat="55.6575670" lon="38.5566850"><time>2020-11-01T08:29:49.557</time></trkpt><trkpt lat="55.6576120" lon="38.5567770"><time>2020-11-01T08:29:51.560</time></trkpt><trkpt lat="55.6576350" lon="38.5568500"><time>2020-11-01T08:29:53.547</time></trkpt><trkpt lat="55.6576730" lon="38.5568920"><time>2020-11-01T08:29:58.550</time></trkpt><trkpt lat="55.6577150" lon="38.5569280"><time>2020-11-01T08:30:01.557</time></trkpt><trkpt lat="55.6577720" lon="38.5570980"><time>2020-11-01T08:30:14.557</time></trkpt><trkpt lat="55.6578550" lon="38.5572880"><time>2020-11-01T08:30:25.557</time></trkpt><trkpt lat="55.6579630" lon="38.5574600"><time>2020-11-01T08:30:34.557</time></trkpt><trkpt lat="55.6580070" lon="38.5575470"><time>2020-11-01T08:30:36.553</time></trkpt><trkpt lat="55.6580580" lon="38.5576420"><time>2020-11-01T08:30:38.560</time></trkpt><trkpt lat="55.6580920" lon="38.5577150"><time>2020-11-01T08:30:40.557</time></trkpt><trkpt lat="55.6581200" lon="38.5577930"><time>2020-11-01T08:30:43.557</time></trkpt><trkpt lat="55.6581820" lon="38.5579620"><time>2020-11-01T08:30:50.557</time></trkpt><trkpt lat="55.6582230" lon="38.5580900"><time>2020-11-01T08:30:56.560</time></trkpt><trkpt lat="55.6582470" lon="38.5581830"><time>2020-11-01T08:30:58.557</time></trkpt><trkpt lat="55.6582830" lon="38.5582500"><time>2020-11-01T08:31:00.560</time></trkpt><trkpt lat="55.6583150" lon="38.5583480"><time>2020-11-01T08:31:03.557</time></trkpt><trkpt lat="55.6583430" lon="38.5584180"><time>2020-11-01T08:31:06.557</time></trkpt><trkpt lat="55.6583800" lon="38.5585070"><time>2020-11-01T08:31:08.530</time></trkpt><trkpt lat="55.6584020" lon="38.5585930"><time>2020-11-01T08:31:10.553</time></trkpt><trkpt lat="55.6584230" lon="38.5587530"><time>2020-11-01T08:31:13.557</time></trkpt><trkpt lat="55.6584550" lon="38.5588450"><time>2020-11-01T08:31:14.560</time></trkpt><trkpt lat="55.6584800" lon="38.5589170"><time>2020-11-01T08:31:15.560</time></trkpt><trkpt lat="55.6584820" lon="38.5590130"><time>2020-11-01T08:31:17.557</time></trkpt><trkpt lat="55.6585000" lon="38.5591200"><time>2020-11-01T08:31:19.557</time></trkpt><trkpt lat="55.6585320" lon="38.5591770"><time>2020-11-01T08:31:21.557</time></trkpt><trkpt lat="55.6585730" lon="38.5592480"><time>2020-11-01T08:31:25.557</time></trkpt><trkpt lat="55.6586150" lon="38.5592800"><time>2020-11-01T08:31:29.553</time></trkpt><trkpt lat="55.6586580" lon="38.5594600"><time>2020-11-01T08:31:40.560</time></trkpt><trkpt lat="55.6587170" lon="38.5595620"><time>2020-11-01T08:31:46.557</time></trkpt><trkpt lat="55.6587450" lon="38.5596350"><time>2020-11-01T08:31:48.557</time></trkpt><trkpt lat="55.6587820" lon="38.5597130"><time>2020-11-01T08:31:52.557</time></trkpt><trkpt lat="55.6588320" lon="38.5597800"><time>2020-11-01T08:31:54.557</time></trkpt><trkpt lat="55.6588650" lon="38.5598520"><time>2020-11-01T08:31:56.557</time></trkpt><trkpt lat="55.6588880" lon="38.5599280"><time>2020-11-01T08:31:58.557</time></trkpt><trkpt lat="55.6589120" lon="38.5600050"><time>2020-11-01T08:32:01.557</time></trkpt><trkpt lat="55.6589780" lon="38.5601300"><time>2020-11-01T08:32:10.557</time></trkpt><trkpt lat="55.6589670" lon="38.5602300"><time>2020-11-01T08:32:14.557</time></trkpt><trkpt lat="55.6589950" lon="38.5603150"><time>2020-11-01T08:32:17.543</time></trkpt><trkpt lat="55.6590330" lon="38.5603780"><time>2020-11-01T08:32:19.557</time></trkpt><trkpt lat="55.6590430" lon="38.5604730"><time>2020-11-01T08:32:24.557</time></trkpt><trkpt lat="55.6590650" lon="38.5605600"><time>2020-11-01T08:32:26.557</time></trkpt><trkpt lat="55.6590830" lon="38.5606850"><time>2020-11-01T08:32:28.557</time></trkpt><trkpt lat="55.6590820" lon="38.5608730"><time>2020-11-01T08:32:30.557</time></trkpt><trkpt lat="55.6591000" lon="38.5609620"><time>2020-11-01T08:32:31.550</time></trkpt><trkpt lat="55.6591520" lon="38.5609700"><time>2020-11-01T08:32:33.557</time></trkpt><trkpt lat="55.6592170" lon="38.5610220"><time>2020-11-01T08:32:35.553</time></trkpt><trkpt lat="55.6592730" lon="38.5610350"><time>2020-11-01T08:32:37.557</time></trkpt><trkpt lat="55.6593300" lon="38.5611070"><time>2020-11-01T08:32:42.560</time></trkpt><trkpt lat="55.6593570" lon="38.5611720"><time>2020-11-01T08:32:44.557</time></trkpt><trkpt lat="55.6594100" lon="38.5612800"><time>2020-11-01T08:32:49.560</time></trkpt><trkpt lat="55.6594650" lon="38.5614380"><time>2020-11-01T08:32:57.557</time></trkpt><trkpt lat="55.6595050" lon="38.5615020"><time>2020-11-01T08:33:00.553</time></trkpt><trkpt lat="55.6595530" lon="38.5615780"><time>2020-11-01T08:33:03.557</time></trkpt><trkpt lat="55.6595980" lon="38.5616800"><time>2020-11-01T08:33:06.557</time></trkpt><trkpt lat="55.6596450" lon="38.5617630"><time>2020-11-01T08:33:08.557</time></trkpt><trkpt lat="55.6596830" lon="38.5618230"><time>2020-11-01T08:33:10.557</time></trkpt><trkpt lat="55.6597280" lon="38.5618750"><time>2020-11-01T08:33:12.557</time></trkpt><trkpt lat="55.6597850" lon="38.5619420"><time>2020-11-01T08:33:15.557</time></trkpt><trkpt lat="55.6598300" lon="38.5619980"><time>2020-11-01T08:33:17.557</time></trkpt><trkpt lat="55.6598730" lon="38.5620250"><time>2020-11-01T08:33:20.553</time></trkpt><trkpt lat="55.6599570" lon="38.5620870"><time>2020-11-01T08:33:27.560</time></trkpt><trkpt lat="55.6600470" lon="38.5622570"><time>2020-11-01T08:33:42.557</time></trkpt><trkpt lat="55.6600500" lon="38.5623820"><time>2020-11-01T08:33:45.560</time></trkpt><trkpt lat="55.6600830" lon="38.5625370"><time>2020-11-01T08:33:47.557</time></trkpt><trkpt lat="55.6601000" lon="38.5626370"><time>2020-11-01T08:33:49.557</time></trkpt><trkpt lat="55.6601120" lon="38.5627250"><time>2020-11-01T08:34:05.553</time></trkpt><trkpt lat="55.6601020" lon="38.5628100"><time>2020-11-01T08:34:09.557</time></trkpt><trkpt lat="55.6600880" lon="38.5629970"><time>2020-11-01T08:34:24.553</time></trkpt><trkpt lat="55.6601600" lon="38.5631600"><time>2020-11-01T08:34:37.557</time></trkpt><trkpt lat="55.6602580" lon="38.5633370"><time>2020-11-01T08:34:56.557</time></trkpt><trkpt lat="55.6602900" lon="38.5634120"><time>2020-11-01T08:35:04.550</time></trkpt><trkpt lat="55.6602830" lon="38.5635070"><time>2020-11-01T08:35:08.557</time></trkpt><trkpt lat="55.6603180" lon="38.5635800"><time>2020-11-01T08:35:12.557</time></trkpt><trkpt lat="55.6603180" lon="38.5637570"><time>2020-11-01T08:35:24.520</time></trkpt><trkpt lat="55.6603000" lon="38.5639570"><time>2020-11-01T08:35:41.557</time></trkpt><trkpt lat="55.6603070" lon="38.5641600"><time>2020-11-01T08:35:54.557</time></trkpt><trkpt lat="55.6602850" lon="38.5642420"><time>2020-11-01T08:35:57.560</time></trkpt><trkpt lat="55.6602620" lon="38.5644080"><time>2020-11-01T08:36:05.557</time></trkpt><trkpt lat="55.6602430" lon="38.5646120"><time>2020-11-01T08:36:31.567</time></trkpt><trkpt lat="55.6602830" lon="38.5647870"><time>2020-11-01T08:36:44.557</time></trkpt><trkpt lat="55.6603580" lon="38.5649480"><time>2020-11-01T08:36:54.520</time></trkpt><trkpt lat="55.6604130" lon="38.5650120"><time>2020-11-01T08:36:57.560</time></trkpt><trkpt lat="55.6604570" lon="38.5650470"><time>2020-11-01T08:36:59.553</time></trkpt><trkpt lat="55.6605130" lon="38.5650880"><time>2020-11-01T08:37:02.563</time></trkpt><trkpt lat="55.6605680" lon="38.5651030"><time>2020-11-01T08:37:06.557</time></trkpt><trkpt lat="55.6606180" lon="38.5650930"><time>2020-11-01T08:37:09.557</time></trkpt><trkpt lat="55.6606600" lon="38.5651380"><time>2020-11-01T08:37:13.560</time></trkpt><trkpt lat="55.6607280" lon="38.5652570"><time>2020-11-01T08:37:24.577</time></trkpt><trkpt lat="55.6608380" lon="38.5653530"><time>2020-11-01T08:37:36.560</time></trkpt><trkpt lat="55.6609430" lon="38.5654900"><time>2020-11-01T08:37:47.557</time></trkpt><trkpt lat="55.6610680" lon="38.5655820"><time>2020-11-01T08:37:57.560</time></trkpt><trkpt lat="55.6611050" lon="38.5656350"><time>2020-11-01T08:38:00.557</time></trkpt><trkpt lat="55.6611750" lon="38.5657650"><time>2020-11-01T08:38:07.560</time></trkpt><trkpt lat="55.6612830" lon="38.5658270"><time>2020-11-01T08:38:24.557</time></trkpt><trkpt lat="55.6613900" lon="38.5659000"><time>2020-11-01T08:38:33.557</time></trkpt><trkpt lat="55.6614250" lon="38.5659520"><time>2020-11-01T08:38:35.520</time></trkpt><trkpt lat="55.6614700" lon="38.5660230"><time>2020-11-01T08:38:37.550</time></trkpt><trkpt lat="55.6615150" lon="38.5660850"><time>2020-11-01T08:38:39.563</time></trkpt><trkpt lat="55.6615700" lon="38.5661670"><time>2020-11-01T08:38:41.557</time></trkpt><trkpt lat="55.6616170" lon="38.5662300"><time>2020-11-01T08:38:43.557</time></trkpt><trkpt lat="55.6616520" lon="38.5663170"><time>2020-11-01T08:38:46.557</time></trkpt><trkpt lat="55.6617000" lon="38.5663950"><time>2020-11-01T08:38:48.563</time></trkpt><trkpt lat="55.6617300" lon="38.5664780"><time>2020-11-01T08:38:51.560</time></trkpt><trkpt lat="55.6617500" lon="38.5665500"><time>2020-11-01T08:38:53.557</time></trkpt><trkpt lat="55.6617720" lon="38.5666300"><time>2020-11-01T08:38:55.560</time></trkpt><trkpt lat="55.6618020" lon="38.5667530"><time>2020-11-01T08:38:58.560</time></trkpt><trkpt lat="55.6618450" lon="38.5668600"><time>2020-11-01T08:39:00.557</time></trkpt><trkpt lat="55.6618920" lon="38.5669600"><time>2020-11-01T08:39:02.553</time></trkpt><trkpt lat="55.6619380" lon="38.5670330"><time>2020-11-01T08:39:04.553</time></trkpt><trkpt lat="55.6619770" lon="38.5670900"><time>2020-11-01T08:39:06.560</time></trkpt><trkpt lat="55.6620170" lon="38.5671530"><time>2020-11-01T08:39:09.563</time></trkpt><trkpt lat="55.6620570" lon="38.5672230"><time>2020-11-01T08:39:12.560</time></trkpt><trkpt lat="55.6620930" lon="38.5672800"><time>2020-11-01T08:39:15.557</time></trkpt><trkpt lat="55.6621380" lon="38.5673080"><time>2020-11-01T08:39:17.557</time></trkpt><trkpt lat="55.6621980" lon="38.5673770"><time>2020-11-01T08:39:21.560</time></trkpt><trkpt lat="55.6622430" lon="38.5674480"><time>2020-11-01T08:39:24.557</time></trkpt><trkpt lat="55.6622800" lon="38.5675150"><time>2020-11-01T08:39:27.557</time></trkpt><trkpt lat="55.6623570" lon="38.5677100"><time>2020-11-01T08:39:36.557</time></trkpt><trkpt lat="55.6623880" lon="38.5677680"><time>2020-11-01T08:39:38.553</time></trkpt><trkpt lat="55.6624170" lon="38.5678350"><time>2020-11-01T08:39:40.563</time></trkpt><trkpt lat="55.6624450" lon="38.5679050"><time>2020-11-01T08:39:43.557</time></trkpt><trkpt lat="55.6624830" lon="38.5680550"><time>2020-11-01T08:39:48.560</time></trkpt><trkpt lat="55.6625150" lon="38.5681470"><time>2020-11-01T08:39:50.553</time></trkpt><trkpt lat="55.6625620" lon="38.5682300"><time>2020-11-01T08:39:52.557</time></trkpt><trkpt lat="55.6625970" lon="38.5683100"><time>2020-11-01T08:39:54.553</time></trkpt><trkpt lat="55.6626330" lon="38.5683920"><time>2020-11-01T08:39:56.557</time></trkpt><trkpt lat="55.6626750" lon="38.5684870"><time>2020-11-01T08:39:59.557</time></trkpt><trkpt lat="55.6627130" lon="38.5685670"><time>2020-11-01T08:40:02.557</time></trkpt><trkpt lat="55.6627400" lon="38.5686420"><time>2020-11-01T08:40:05.557</time></trkpt><trkpt lat="55.6627630" lon="38.5687120"><time>2020-11-01T08:40:07.563</time></trkpt><trkpt lat="55.6627930" lon="38.5687770"><time>2020-11-01T08:40:09.557</time></trkpt><trkpt lat="55.6628430" lon="38.5688720"><time>2020-11-01T08:40:12.557</time></trkpt><trkpt lat="55.6628730" lon="38.5689450"><time>2020-11-01T08:40:14.557</time></trkpt><trkpt lat="55.6628980" lon="38.5690320"><time>2020-11-01T08:40:17.557</time></trkpt><trkpt lat="55.6629370" lon="38.5690780"><time>2020-11-01T08:40:20.557</time></trkpt><trkpt lat="55.6629800" lon="38.5691250"><time>2020-11-01T08:40:22.557</time></trkpt><trkpt lat="55.6630180" lon="38.5691930"><time>2020-11-01T08:40:25.560</time></trkpt><trkpt lat="55.6630450" lon="38.5692630"><time>2020-11-01T08:40:27.560</time></trkpt><trkpt lat="55.6630850" lon="38.5693550"><time>2020-11-01T08:40:30.527</time></trkpt><trkpt lat="55.6631180" lon="38.5694320"><time>2020-11-01T08:40:32.567</time></trkpt><trkpt lat="55.6631430" lon="38.5695220"><time>2020-11-01T08:40:35.560</time></trkpt><trkpt lat="55.6631920" lon="38.5696570"><time>2020-11-01T08:40:40.560</time></trkpt><trkpt lat="55.6632120" lon="38.5697650"><time>2020-11-01T08:40:42.557</time></trkpt><trkpt lat="55.6632300" lon="38.5698600"><time>2020-11-01T08:40:44.563</time></trkpt><trkpt lat="55.6632570" lon="38.5699400"><time>2020-11-01T08:40:46.550</time></trkpt><trkpt lat="55.6632980" lon="38.5700430"><time>2020-11-01T08:40:48.557</time></trkpt><trkpt lat="55.6633320" lon="38.5701220"><time>2020-11-01T08:40:50.560</time></trkpt><trkpt lat="55.6633650" lon="38.5701880"><time>2020-11-01T08:40:52.560</time></trkpt><trkpt lat="55.6634070" lon="38.5702370"><time>2020-11-01T08:40:54.560</time></trkpt><trkpt lat="55.6634520" lon="38.5702980"><time>2020-11-01T08:40:57.560</time></trkpt><trkpt lat="55.6635270" lon="38.5704470"><time>2020-11-01T08:41:02.557</time></trkpt><trkpt lat="55.6635580" lon="38.5705070"><time>2020-11-01T08:41:03.557</time></trkpt><trkpt lat="55.6636000" lon="38.5705850"><time>2020-11-01T08:41:04.560</time></trkpt><trkpt lat="55.6636370" lon="38.5706720"><time>2020-11-01T08:41:05.560</time></trkpt><trkpt lat="55.6636680" lon="38.5708330"><time>2020-11-01T08:41:06.560</time></trkpt><trkpt lat="55.6636930" lon="38.5710070"><time>2020-11-01T08:41:07.560</time></trkpt><trkpt lat="55.6637230" lon="38.5710880"><time>2020-11-01T08:41:08.557</time></trkpt><trkpt lat="55.6637320" lon="38.5712030"><time>2020-11-01T08:41:10.560</time></trkpt><trkpt lat="55.6637320" lon="38.5713000"><time>2020-11-01T08:41:13.557</time></trkpt><trkpt lat="55.6637450" lon="38.5713950"><time>2020-11-01T08:41:17.557</time></trkpt><trkpt lat="55.6637700" lon="38.5714620"><time>2020-11-01T08:41:21.560</time></trkpt><trkpt lat="55.6637770" lon="38.5715520"><time>2020-11-01T08:41:24.557</time></trkpt><trkpt lat="55.6637700" lon="38.5716430"><time>2020-11-01T08:41:27.557</time></trkpt><trkpt lat="55.6637380" lon="38.5717170"><time>2020-11-01T08:41:32.560</time></trkpt><trkpt lat="55.6637220" lon="38.5718800"><time>2020-11-01T08:41:41.560</time></trkpt><trkpt lat="55.6636930" lon="38.5719820"><time>2020-11-01T08:41:45.557</time></trkpt><trkpt lat="55.6636450" lon="38.5720500"><time>2020-11-01T08:41:48.557</time></trkpt><trkpt lat="55.6636280" lon="38.5721270"><time>2020-11-01T08:41:51.560</time></trkpt><trkpt lat="55.6635900" lon="38.5721950"><time>2020-11-01T08:41:53.557</time></trkpt><trkpt lat="55.6635550" lon="38.5722470"><time>2020-11-01T08:41:55.560</time></trkpt><trkpt lat="55.6635070" lon="38.5723420"><time>2020-11-01T08:42:00.557</time></trkpt><trkpt lat="55.6634800" lon="38.5724200"><time>2020-11-01T08:42:03.563</time></trkpt><trkpt lat="55.6634430" lon="38.5724900"><time>2020-11-01T08:42:05.560</time></trkpt><trkpt lat="55.6633750" lon="38.5725620"><time>2020-11-01T08:42:07.560</time></trkpt><trkpt lat="55.6633350" lon="38.5726030"><time>2020-11-01T08:42:09.567</time></trkpt><trkpt lat="55.6633170" lon="38.5726770"><time>2020-11-01T08:42:11.557</time></trkpt><trkpt lat="55.6632850" lon="38.5727550"><time>2020-11-01T08:42:14.563</time></trkpt><trkpt lat="55.6632300" lon="38.5727920"><time>2020-11-01T08:42:17.557</time></trkpt><trkpt lat="55.6630950" lon="38.5728220"><time>2020-11-01T08:42:27.560</time></trkpt><trkpt lat="55.6630300" lon="38.5729030"><time>2020-11-01T08:42:33.567</time></trkpt><trkpt lat="55.6629070" lon="38.5730080"><time>2020-11-01T08:42:45.557</time></trkpt><trkpt lat="55.6628720" lon="38.5730720"><time>2020-11-01T08:42:48.557</time></trkpt><trkpt lat="55.6627980" lon="38.5731870"><time>2020-11-01T08:42:55.560</time></trkpt><trkpt lat="55.6627670" lon="38.5732430"><time>2020-11-01T08:42:58.560</time></trkpt><trkpt lat="55.6627350" lon="38.5733520"><time>2020-11-01T08:43:01.560</time></trkpt><trkpt lat="55.6626770" lon="38.5733700"><time>2020-11-01T08:43:03.560</time></trkpt><trkpt lat="55.6626420" lon="38.5734330"><time>2020-11-01T08:43:04.560</time></trkpt><trkpt lat="55.6625780" lon="38.5734880"><time>2020-11-01T08:43:05.557</time></trkpt><trkpt lat="55.6625300" lon="38.5735380"><time>2020-11-01T08:43:07.560</time></trkpt><trkpt lat="55.6624620" lon="38.5736030"><time>2020-11-01T08:43:09.527</time></trkpt><trkpt lat="55.6624130" lon="38.5736270"><time>2020-11-01T08:43:10.560</time></trkpt><trkpt lat="55.6623630" lon="38.5736700"><time>2020-11-01T08:43:12.563</time></trkpt><trkpt lat="55.6623200" lon="38.5737270"><time>2020-11-01T08:43:14.563</time></trkpt><trkpt lat="55.6622680" lon="38.5737730"><time>2020-11-01T08:43:16.553</time></trkpt><trkpt lat="55.6622150" lon="38.5738470"><time>2020-11-01T08:43:18.560</time></trkpt><trkpt lat="55.6621700" lon="38.5739000"><time>2020-11-01T08:43:19.563</time></trkpt><trkpt lat="55.6621200" lon="38.5739920"><time>2020-11-01T08:43:21.560</time></trkpt><trkpt lat="55.6620730" lon="38.5740770"><time>2020-11-01T08:43:23.560</time></trkpt><trkpt lat="55.6620280" lon="38.5741700"><time>2020-11-01T08:43:25.567</time></trkpt><trkpt lat="55.6619830" lon="38.5742200"><time>2020-11-01T08:43:28.523</time></trkpt><trkpt lat="55.6619080" lon="38.5742650"><time>2020-11-01T08:43:30.560</time></trkpt><trkpt lat="55.6618570" lon="38.5742820"><time>2020-11-01T08:43:32.560</time></trkpt><trkpt lat="55.6617630" lon="38.5743820"><time>2020-11-01T08:43:44.560</time></trkpt><trkpt lat="55.6617300" lon="38.5744420"><time>2020-11-01T08:43:46.553</time></trkpt><trkpt lat="55.6616670" lon="38.5745930"><time>2020-11-01T08:43:56.560</time></trkpt><trkpt lat="55.6616430" lon="38.5746700"><time>2020-11-01T08:43:59.523</time></trkpt><trkpt lat="55.6615950" lon="38.5747230"><time>2020-11-01T08:44:01.563</time></trkpt><trkpt lat="55.6615600" lon="38.5747770"><time>2020-11-01T08:44:03.563</time></trkpt><trkpt lat="55.6615220" lon="38.5748550"><time>2020-11-01T08:44:06.563</time></trkpt><trkpt lat="55.6615030" lon="38.5749470"><time>2020-11-01T08:44:08.560</time></trkpt><trkpt lat="55.6614670" lon="38.5750350"><time>2020-11-01T08:44:11.557</time></trkpt><trkpt lat="55.6614070" lon="38.5750780"><time>2020-11-01T08:44:14.560</time></trkpt><trkpt lat="55.6613230" lon="38.5752400"><time>2020-11-01T08:44:23.553</time></trkpt><trkpt lat="55.6612950" lon="38.5753220"><time>2020-11-01T08:44:25.560</time></trkpt><trkpt lat="55.6612500" lon="38.5754020"><time>2020-11-01T08:44:27.560</time></trkpt><trkpt lat="55.6611780" lon="38.5754400"><time>2020-11-01T08:44:29.557</time></trkpt><trkpt lat="55.6611200" lon="38.5754700"><time>2020-11-01T08:44:31.557</time></trkpt><trkpt lat="55.6610850" lon="38.5755530"><time>2020-11-01T08:44:34.560</time></trkpt><trkpt lat="55.6610380" lon="38.5755850"><time>2020-11-01T08:44:36.557</time></trkpt><trkpt lat="55.6609800" lon="38.5756370"><time>2020-11-01T08:44:39.557</time></trkpt><trkpt lat="55.6609380" lon="38.5757350"><time>2020-11-01T08:44:42.560</time></trkpt><trkpt lat="55.6609070" lon="38.5758000"><time>2020-11-01T08:44:44.560</time></trkpt><trkpt lat="55.6608370" lon="38.5758430"><time>2020-11-01T08:44:46.563</time></trkpt><trkpt lat="55.6607930" lon="38.5758720"><time>2020-11-01T08:44:48.560</time></trkpt><trkpt lat="55.6607470" lon="38.5759120"><time>2020-11-01T08:44:51.560</time></trkpt><trkpt lat="55.6607100" lon="38.5759620"><time>2020-11-01T08:44:53.560</time></trkpt><trkpt lat="55.6606600" lon="38.5760150"><time>2020-11-01T08:44:55.560</time></trkpt><trkpt lat="55.6606280" lon="38.5760720"><time>2020-11-01T08:44:57.563</time></trkpt><trkpt lat="55.6605930" lon="38.5761300"><time>2020-11-01T08:44:59.557</time></trkpt><trkpt lat="55.6605520" lon="38.5761670"><time>2020-11-01T08:45:01.560</time></trkpt><trkpt lat="55.6605050" lon="38.5762020"><time>2020-11-01T08:45:03.563</time></trkpt><trkpt lat="55.6604300" lon="38.5763100"><time>2020-11-01T08:45:08.560</time></trkpt><trkpt lat="55.6603780" lon="38.5763550"><time>2020-11-01T08:45:10.557</time></trkpt><trkpt lat="55.6603270" lon="38.5764330"><time>2020-11-01T08:45:13.560</time></trkpt><trkpt lat="55.6602780" lon="38.5764670"><time>2020-11-01T08:45:15.567</time></trkpt><trkpt lat="55.6602300" lon="38.5765130"><time>2020-11-01T08:45:17.557</time></trkpt><trkpt lat="55.6601780" lon="38.5765800"><time>2020-11-01T08:45:20.563</time></trkpt><trkpt lat="55.6601450" lon="38.5766470"><time>2020-11-01T08:45:23.557</time></trkpt><trkpt lat="55.6601070" lon="38.5767370"><time>2020-11-01T08:45:26.560</time></trkpt><trkpt lat="55.6600650" lon="38.5767900"><time>2020-11-01T08:45:29.557</time></trkpt><trkpt lat="55.6599880" lon="38.5768920"><time>2020-11-01T08:45:35.560</time></trkpt><trkpt lat="55.6599500" lon="38.5769450"><time>2020-11-01T08:45:38.560</time></trkpt><trkpt lat="55.6598900" lon="38.5770000"><time>2020-11-01T08:45:41.557</time></trkpt><trkpt lat="55.6598380" lon="38.5770380"><time>2020-11-01T08:45:43.563</time></trkpt><trkpt lat="55.6598050" lon="38.5771100"><time>2020-11-01T08:45:45.563</time></trkpt><trkpt lat="55.6597550" lon="38.5771570"><time>2020-11-01T08:45:48.560</time></trkpt><trkpt lat="55.6596700" lon="38.5771930"><time>2020-11-01T08:45:53.560</time></trkpt><trkpt lat="55.6596370" lon="38.5772630"><time>2020-11-01T08:45:55.560</time></trkpt><trkpt lat="55.6595400" lon="38.5773970"><time>2020-11-01T08:46:04.560</time></trkpt><trkpt lat="55.6594470" lon="38.5775830"><time>2020-11-01T08:46:12.557</time></trkpt><trkpt lat="55.6594250" lon="38.5776850"><time>2020-11-01T08:46:15.560</time></trkpt><trkpt lat="55.6594000" lon="38.5777930"><time>2020-11-01T08:46:17.563</time></trkpt><trkpt lat="55.6593700" lon="38.5778800"><time>2020-11-01T08:46:19.563</time></trkpt><trkpt lat="55.6593300" lon="38.5779950"><time>2020-11-01T08:46:22.560</time></trkpt><trkpt lat="55.6592930" lon="38.5780750"><time>2020-11-01T08:46:24.557</time></trkpt><trkpt lat="55.6592580" lon="38.5781550"><time>2020-11-01T08:46:26.560</time></trkpt><trkpt lat="55.6592200" lon="38.5782020"><time>2020-11-01T08:46:28.563</time></trkpt><trkpt lat="55.6591720" lon="38.5782870"><time>2020-11-01T08:46:31.560</time></trkpt><trkpt lat="55.6591080" lon="38.5783080"><time>2020-11-01T08:46:32.560</time></trkpt><trkpt lat="55.6590530" lon="38.5783630"><time>2020-11-01T08:46:35.563</time></trkpt><trkpt lat="55.6589980" lon="38.5784230"><time>2020-11-01T08:46:38.560</time></trkpt><trkpt lat="55.6589320" lon="38.5784700"><time>2020-11-01T08:46:41.560</time></trkpt><trkpt lat="55.6588630" lon="38.5784350"><time>2020-11-01T08:46:43.560</time></trkpt><trkpt lat="55.6587480" lon="38.5785430"><time>2020-11-01T08:46:52.560</time></trkpt><trkpt lat="55.6586980" lon="38.5785680"><time>2020-11-01T08:46:54.557</time></trkpt><trkpt lat="55.6586120" lon="38.5785820"><time>2020-11-01T08:46:56.563</time></trkpt><trkpt lat="55.6585480" lon="38.5786220"><time>2020-11-01T08:46:59.560</time></trkpt><trkpt lat="55.6585170" lon="38.5787000"><time>2020-11-01T08:47:01.560</time></trkpt><trkpt lat="55.6584650" lon="38.5787480"><time>2020-11-01T08:47:03.563</time></trkpt><trkpt lat="55.6584150" lon="38.5787800"><time>2020-11-01T08:47:05.560</time></trkpt><trkpt lat="55.6583570" lon="38.5787870"><time>2020-11-01T08:47:07.560</time></trkpt><trkpt lat="55.6583050" lon="38.5787900"><time>2020-11-01T08:47:09.560</time></trkpt><trkpt lat="55.6582730" lon="38.5788500"><time>2020-11-01T08:47:11.560</time></trkpt><trkpt lat="55.6582330" lon="38.5789030"><time>2020-11-01T08:47:13.560</time></trkpt><trkpt lat="55.6581870" lon="38.5789880"><time>2020-11-01T08:47:15.560</time></trkpt><trkpt lat="55.6581430" lon="38.5790400"><time>2020-11-01T08:47:17.557</time></trkpt><trkpt lat="55.6580780" lon="38.5790920"><time>2020-11-01T08:47:20.560</time></trkpt><trkpt lat="55.6580380" lon="38.5791870"><time>2020-11-01T08:47:22.563</time></trkpt><trkpt lat="55.6579950" lon="38.5792430"><time>2020-11-01T08:47:24.560</time></trkpt><trkpt lat="55.6579370" lon="38.5792530"><time>2020-11-01T08:47:26.557</time></trkpt><trkpt lat="55.6578850" lon="38.5793230"><time>2020-11-01T08:47:28.557</time></trkpt><trkpt lat="55.6578800" lon="38.5794330"><time>2020-11-01T08:47:29.560</time></trkpt><trkpt lat="55.6578280" lon="38.5794920"><time>2020-11-01T08:47:32.560</time></trkpt><trkpt lat="55.6577700" lon="38.5795170"><time>2020-11-01T08:47:34.560</time></trkpt><trkpt lat="55.6577270" lon="38.5795450"><time>2020-11-01T08:47:36.560</time></trkpt><trkpt lat="55.6576730" lon="38.5795880"><time>2020-11-01T08:47:39.563</time></trkpt><trkpt lat="55.6576380" lon="38.5797120"><time>2020-11-01T08:47:42.557</time></trkpt><trkpt lat="55.6575880" lon="38.5797620"><time>2020-11-01T08:47:44.563</time></trkpt><trkpt lat="55.6575480" lon="38.5798020"><time>2020-11-01T08:47:46.560</time></trkpt><trkpt lat="55.6575000" lon="38.5798470"><time>2020-11-01T08:47:48.557</time></trkpt><trkpt lat="55.6574480" lon="38.5799080"><time>2020-11-01T08:47:51.560</time></trkpt><trkpt lat="55.6574100" lon="38.5799530"><time>2020-11-01T08:47:53.557</time></trkpt><trkpt lat="55.6573570" lon="38.5799970"><time>2020-11-01T08:47:56.560</time></trkpt><trkpt lat="55.6573150" lon="38.5800630"><time>2020-11-01T08:47:59.557</time></trkpt><trkpt lat="55.6572600" lon="38.5801300"><time>2020-11-01T08:48:02.563</time></trkpt><trkpt lat="55.6572150" lon="38.5801950"><time>2020-11-01T08:48:05.563</time></trkpt><trkpt lat="55.6571730" lon="38.5802550"><time>2020-11-01T08:48:10.560</time></trkpt><trkpt lat="55.6571300" lon="38.5802980"><time>2020-11-01T08:48:13.557</time></trkpt><trkpt lat="55.6570900" lon="38.5803650"><time>2020-11-01T08:48:16.567</time></trkpt><trkpt lat="55.6570670" lon="38.5804480"><time>2020-11-01T08:48:19.560</time></trkpt><trkpt lat="55.6570450" lon="38.5805270"><time>2020-11-01T08:48:21.560</time></trkpt><trkpt lat="55.6569980" lon="38.5805800"><time>2020-11-01T08:48:24.560</time></trkpt><trkpt lat="55.6569620" lon="38.5806380"><time>2020-11-01T08:48:27.567</time></trkpt><trkpt lat="55.6569180" lon="38.5806830"><time>2020-11-01T08:48:29.563</time></trkpt><trkpt lat="55.6568820" lon="38.5807370"><time>2020-11-01T08:48:31.563</time></trkpt><trkpt lat="55.6568370" lon="38.5807930"><time>2020-11-01T08:48:34.557</time></trkpt><trkpt lat="55.6568180" lon="38.5808670"><time>2020-11-01T08:48:36.560</time></trkpt><trkpt lat="55.6567730" lon="38.5808770"><time>2020-11-01T08:48:38.560</time></trkpt><trkpt lat="55.6567450" lon="38.5809470"><time>2020-11-01T08:48:41.563</time></trkpt><trkpt lat="55.6566980" lon="38.5810280"><time>2020-11-01T08:48:44.560</time></trkpt><trkpt lat="55.6566630" lon="38.5811120"><time>2020-11-01T08:48:47.560</time></trkpt><trkpt lat="55.6566370" lon="38.5812220"><time>2020-11-01T08:48:50.560</time></trkpt><trkpt lat="55.6566130" lon="38.5812900"><time>2020-11-01T08:48:52.567</time></trkpt><trkpt lat="55.6565850" lon="38.5813600"><time>2020-11-01T08:48:54.557</time></trkpt><trkpt lat="55.6565400" lon="38.5814170"><time>2020-11-01T08:48:57.560</time></trkpt><trkpt lat="55.6565200" lon="38.5815130"><time>2020-11-01T08:49:00.560</time></trkpt><trkpt lat="55.6564850" lon="38.5816000"><time>2020-11-01T08:49:04.557</time></trkpt><trkpt lat="55.6564380" lon="38.5817130"><time>2020-11-01T08:49:06.527</time></trkpt><trkpt lat="55.6563820" lon="38.5817680"><time>2020-11-01T08:49:07.557</time></trkpt><trkpt lat="55.6561950" lon="38.5817620"><time>2020-11-01T08:49:08.563</time></trkpt><trkpt lat="55.6561280" lon="38.5818130"><time>2020-11-01T08:49:10.557</time></trkpt><trkpt lat="55.6560850" lon="38.5817920"><time>2020-11-01T08:49:11.557</time></trkpt><trkpt lat="55.6560170" lon="38.5818500"><time>2020-11-01T08:49:13.563</time></trkpt><trkpt lat="55.6559450" lon="38.5819000"><time>2020-11-01T08:49:16.563</time></trkpt><trkpt lat="55.6559030" lon="38.5819570"><time>2020-11-01T08:49:18.563</time></trkpt><trkpt lat="55.6558530" lon="38.5820120"><time>2020-11-01T08:49:20.563</time></trkpt><trkpt lat="55.6557950" lon="38.5820630"><time>2020-11-01T08:49:22.560</time></trkpt><trkpt lat="55.6557500" lon="38.5821180"><time>2020-11-01T08:49:25.557</time></trkpt><trkpt lat="55.6556750" lon="38.5822430"><time>2020-11-01T08:49:33.560</time></trkpt><trkpt lat="55.6556670" lon="38.5823370"><time>2020-11-01T08:49:36.560</time></trkpt><trkpt lat="55.6556600" lon="38.5824220"><time>2020-11-01T08:49:38.533</time></trkpt><trkpt lat="55.6556250" lon="38.5825050"><time>2020-11-01T08:49:41.557</time></trkpt><trkpt lat="55.6556150" lon="38.5825850"><time>2020-11-01T08:49:43.560</time></trkpt><trkpt lat="55.6555880" lon="38.5826900"><time>2020-11-01T08:49:46.560</time></trkpt><trkpt lat="55.6555670" lon="38.5827750"><time>2020-11-01T08:49:49.560</time></trkpt><trkpt lat="55.6555530" lon="38.5828600"><time>2020-11-01T08:49:53.557</time></trkpt><trkpt lat="55.6555570" lon="38.5829670"><time>2020-11-01T08:49:56.560</time></trkpt><trkpt lat="55.6555270" lon="38.5830550"><time>2020-11-01T08:49:59.557</time></trkpt><trkpt lat="55.6555200" lon="38.5831350"><time>2020-11-01T08:50:01.563</time></trkpt><trkpt lat="55.6554750" lon="38.5831800"><time>2020-11-01T08:50:05.557</time></trkpt><trkpt lat="55.6554430" lon="38.5832720"><time>2020-11-01T08:50:09.560</time></trkpt><trkpt lat="55.6553430" lon="38.5834020"><time>2020-11-01T08:50:18.560</time></trkpt><trkpt lat="55.6553050" lon="38.5834570"><time>2020-11-01T08:50:20.557</time></trkpt><trkpt lat="55.6552550" lon="38.5835100"><time>2020-11-01T08:50:22.560</time></trkpt><trkpt lat="55.6552020" lon="38.5835470"><time>2020-11-01T08:50:24.533</time></trkpt><trkpt lat="55.6551420" lon="38.5835880"><time>2020-11-01T08:50:26.540</time></trkpt><trkpt lat="55.6550630" lon="38.5836230"><time>2020-11-01T08:50:27.530</time></trkpt><trkpt lat="55.6548700" lon="38.5835080"><time>2020-11-01T08:50:28.557</time></trkpt><trkpt lat="55.6547980" lon="38.5835450"><time>2020-11-01T08:50:29.560</time></trkpt><trkpt lat="55.6546080" lon="38.5835400"><time>2020-11-01T08:50:30.563</time></trkpt><trkpt lat="55.6545630" lon="38.5835550"><time>2020-11-01T08:50:31.560</time></trkpt><trkpt lat="55.6545050" lon="38.5836030"><time>2020-11-01T08:50:32.557</time></trkpt><trkpt lat="55.6544600" lon="38.5836180"><time>2020-11-01T08:50:33.557</time></trkpt><trkpt lat="55.6544230" lon="38.5836800"><time>2020-11-01T08:50:35.007</time></trkpt><trkpt lat="55.6544230" lon="38.5837980"><time>2020-11-05T09:09:58.257</time></trkpt><trkpt lat="55.6543730" lon="38.5838400"><time>2020-11-01T08:50:39.560</time></trkpt><trkpt lat="55.6543150" lon="38.5838530"><time>2020-11-01T08:50:41.560</time></trkpt><trkpt lat="55.6542820" lon="38.5839100"><time>2020-11-01T08:50:44.560</time></trkpt><trkpt lat="55.6541950" lon="38.5840080"><time>2020-11-01T08:50:50.560</time></trkpt><trkpt lat="55.6541550" lon="38.5840620"><time>2020-11-01T08:50:52.560</time></trkpt><trkpt lat="55.6541400" lon="38.5841450"><time>2020-11-01T08:50:54.560</time></trkpt><trkpt lat="55.6541100" lon="38.5842150"><time>2020-11-01T08:50:57.563</time></trkpt><trkpt lat="55.6540900" lon="38.5843030"><time>2020-11-01T08:50:59.563</time></trkpt><trkpt lat="55.6540420" lon="38.5843320"><time>2020-11-01T08:51:01.560</time></trkpt><trkpt lat="55.6539980" lon="38.5843730"><time>2020-11-01T08:51:03.563</time></trkpt><trkpt lat="55.6539500" lon="38.5844220"><time>2020-11-01T08:51:06.560</time></trkpt><trkpt lat="55.6539180" lon="38.5844920"><time>2020-11-01T08:51:09.563</time></trkpt><trkpt lat="55.6539080" lon="38.5845950"><time>2020-11-01T08:51:11.560</time></trkpt><trkpt lat="55.6538780" lon="38.5846900"><time>2020-11-01T08:51:14.563</time></trkpt><trkpt lat="55.6538250" lon="38.5847270"><time>2020-11-01T08:51:16.560</time></trkpt><trkpt lat="55.6537680" lon="38.5847450"><time>2020-11-01T08:51:18.567</time></trkpt><trkpt lat="55.6537170" lon="38.5847920"><time>2020-11-01T08:51:20.563</time></trkpt><trkpt lat="55.6536830" lon="38.5849150"><time>2020-11-01T08:51:23.560</time></trkpt><trkpt lat="55.6536430" lon="38.5849820"><time>2020-11-01T08:51:24.563</time></trkpt><trkpt lat="55.6536230" lon="38.5850580"><time>2020-11-01T08:51:26.567</time></trkpt><trkpt lat="55.6535850" lon="38.5851150"><time>2020-11-01T08:51:28.563</time></trkpt><trkpt lat="55.6535330" lon="38.5851630"><time>2020-11-01T08:51:30.533</time></trkpt><trkpt lat="55.6534830" lon="38.5851920"><time>2020-11-01T08:51:32.563</time></trkpt><trkpt lat="55.6534430" lon="38.5852650"><time>2020-11-01T08:51:35.563</time></trkpt><trkpt lat="55.6534000" lon="38.5853350"><time>2020-11-01T08:51:37.563</time></trkpt><trkpt lat="55.6533720" lon="38.5854080"><time>2020-11-01T08:51:39.567</time></trkpt><trkpt lat="55.6533350" lon="38.5854720"><time>2020-11-01T08:51:41.563</time></trkpt><trkpt lat="55.6532780" lon="38.5855300"><time>2020-11-01T08:51:44.563</time></trkpt><trkpt lat="55.6532300" lon="38.5855900"><time>2020-11-01T08:51:47.560</time></trkpt><trkpt lat="55.6531650" lon="38.5856280"><time>2020-11-01T08:51:50.563</time></trkpt><trkpt lat="55.6531270" lon="38.5856800"><time>2020-11-01T08:51:53.563</time></trkpt><trkpt lat="55.6530820" lon="38.5856970"><time>2020-11-01T08:51:56.563</time></trkpt><trkpt lat="55.6530350" lon="38.5857400"><time>2020-11-01T08:51:59.560</time></trkpt><trkpt lat="55.6530000" lon="38.5858080"><time>2020-11-01T08:52:01.567</time></trkpt><trkpt lat="55.6529500" lon="38.5858870"><time>2020-11-01T08:52:03.563</time></trkpt><trkpt lat="55.6529080" lon="38.5859200"><time>2020-11-01T08:52:04.550</time></trkpt><trkpt lat="55.6528600" lon="38.5859570"><time>2020-11-01T08:52:05.547</time></trkpt><trkpt lat="55.6526450" lon="38.5861830"><time>2020-11-01T08:52:08.970</time></trkpt><trkpt lat="55.6525250" lon="38.5862900"><time>2020-11-01T08:52:09.563</time></trkpt><trkpt lat="55.6525330" lon="38.5864380"><time>2020-11-01T08:52:11.563</time></trkpt><trkpt lat="55.6524850" lon="38.5865180"><time>2020-11-01T08:52:13.560</time></trkpt><trkpt lat="55.6524350" lon="38.5865350"><time>2020-11-01T08:52:16.567</time></trkpt><trkpt lat="55.6523930" lon="38.5866300"><time>2020-11-01T08:52:20.557</time></trkpt><trkpt lat="55.6523320" lon="38.5866370"><time>2020-11-01T08:52:22.557</time></trkpt><trkpt lat="55.6522120" lon="38.5867900"><time>2020-11-01T08:52:27.560</time></trkpt><trkpt lat="55.6521630" lon="38.5868420"><time>2020-11-01T08:52:29.557</time></trkpt><trkpt lat="55.6521180" lon="38.5868950"><time>2020-11-01T08:52:31.557</time></trkpt><trkpt lat="55.6520750" lon="38.5869300"><time>2020-11-01T08:52:34.493</time></trkpt><trkpt lat="55.6520020" lon="38.5870870"><time>2020-11-01T08:52:34.573</time></trkpt><trkpt lat="55.6519570" lon="38.5871220"><time>2020-11-01T08:52:34.607</time></trkpt><trkpt lat="55.6519130" lon="38.5871770"><time>2020-11-01T08:52:35.780</time></trkpt><trkpt lat="55.6518630" lon="38.5872400"><time>2020-11-01T08:52:36.557</time></trkpt><trkpt lat="55.6518000" lon="38.5872420"><time>2020-11-01T08:52:37.563</time></trkpt><trkpt lat="55.6517250" lon="38.5873070"><time>2020-11-01T08:52:39.560</time></trkpt><trkpt lat="55.6516820" lon="38.5873600"><time>2020-11-01T08:52:41.527</time></trkpt><trkpt lat="55.6516120" lon="38.5874450"><time>2020-11-01T08:52:43.557</time></trkpt><trkpt lat="55.6515700" lon="38.5874920"><time>2020-11-01T08:52:45.560</time></trkpt><trkpt lat="55.6515130" lon="38.5875230"><time>2020-11-01T08:52:48.570</time></trkpt><trkpt lat="55.6514600" lon="38.5875500"><time>2020-11-01T08:52:50.577</time></trkpt><trkpt lat="55.6514170" lon="38.5875980"><time>2020-11-01T08:52:52.557</time></trkpt><trkpt lat="55.6513800" lon="38.5876580"><time>2020-11-01T08:52:54.563</time></trkpt><trkpt lat="55.6513480" lon="38.5877450"><time>2020-11-01T08:52:57.563</time></trkpt><trkpt lat="55.6512980" lon="38.5878380"><time>2020-11-01T08:53:00.563</time></trkpt><trkpt lat="55.6512750" lon="38.5879180"><time>2020-11-01T08:53:02.557</time></trkpt><trkpt lat="55.6512480" lon="38.5879900"><time>2020-11-01T08:53:03.567</time></trkpt><trkpt lat="55.6512100" lon="38.5880520"><time>2020-11-01T08:53:06.560</time></trkpt><trkpt lat="55.6511670" lon="38.5881270"><time>2020-11-01T08:53:08.557</time></trkpt><trkpt lat="55.6511350" lon="38.5881870"><time>2020-11-01T08:53:10.563</time></trkpt><trkpt lat="55.6510930" lon="38.5882570"><time>2020-11-01T08:53:12.557</time></trkpt><trkpt lat="55.6510430" lon="38.5883070"><time>2020-11-01T08:53:16.560</time></trkpt><trkpt lat="55.6509970" lon="38.5883750"><time>2020-11-01T08:53:19.533</time></trkpt><trkpt lat="55.6509520" lon="38.5884350"><time>2020-11-01T08:53:21.563</time></trkpt><trkpt lat="55.6509180" lon="38.5884950"><time>2020-11-01T08:53:22.563</time></trkpt><trkpt lat="55.6508800" lon="38.5885670"><time>2020-11-01T08:53:25.563</time></trkpt><trkpt lat="55.6508500" lon="38.5886470"><time>2020-11-01T08:53:27.563</time></trkpt><trkpt lat="55.6507980" lon="38.5887380"><time>2020-11-01T08:53:30.567</time></trkpt><trkpt lat="55.6507570" lon="38.5887930"><time>2020-11-01T08:53:32.557</time></trkpt><trkpt lat="55.6507170" lon="38.5888350"><time>2020-11-01T08:53:34.557</time></trkpt><trkpt lat="55.6506680" lon="38.5888720"><time>2020-11-01T08:53:36.557</time></trkpt><trkpt lat="55.6505980" lon="38.5889700"><time>2020-11-01T08:53:37.563</time></trkpt><trkpt lat="55.6505820" lon="38.5890730"><time>2020-11-01T08:53:39.560</time></trkpt><trkpt lat="55.6505300" lon="38.5891880"><time>2020-11-01T08:53:42.560</time></trkpt><trkpt lat="55.6504880" lon="38.5892620"><time>2020-11-01T08:53:45.563</time></trkpt><trkpt lat="55.6504300" lon="38.5893100"><time>2020-11-01T08:53:48.557</time></trkpt><trkpt lat="55.6503750" lon="38.5893630"><time>2020-11-01T08:53:51.563</time></trkpt><trkpt lat="55.6503370" lon="38.5894270"><time>2020-11-01T08:53:53.547</time></trkpt><trkpt lat="55.6503070" lon="38.5895180"><time>2020-11-01T08:53:55.563</time></trkpt><trkpt lat="55.6502550" lon="38.5895780"><time>2020-11-01T08:53:56.563</time></trkpt><trkpt lat="55.6502130" lon="38.5896230"><time>2020-11-01T08:53:58.537</time></trkpt><trkpt lat="55.6501550" lon="38.5897220"><time>2020-11-01T08:54:01.567</time></trkpt><trkpt lat="55.6501100" lon="38.5898100"><time>2020-11-01T08:54:04.557</time></trkpt><trkpt lat="55.6500770" lon="38.5898670"><time>2020-11-01T08:54:07.563</time></trkpt><trkpt lat="55.6500380" lon="38.5899230"><time>2020-11-01T08:54:09.563</time></trkpt><trkpt lat="55.6499830" lon="38.5899800"><time>2020-11-01T08:54:13.557</time></trkpt><trkpt lat="55.6499430" lon="38.5900400"><time>2020-11-01T08:54:16.557</time></trkpt><trkpt lat="55.6498830" lon="38.5901000"><time>2020-11-01T08:54:18.563</time></trkpt><trkpt lat="55.6498280" lon="38.5901370"><time>2020-11-01T08:54:20.567</time></trkpt><trkpt lat="55.6497820" lon="38.5902120"><time>2020-11-01T08:54:22.563</time></trkpt><trkpt lat="55.6497350" lon="38.5902600"><time>2020-11-01T08:54:24.557</time></trkpt><trkpt lat="55.6496900" lon="38.5903050"><time>2020-11-01T08:54:27.563</time></trkpt><trkpt lat="55.6496450" lon="38.5903300"><time>2020-11-01T08:54:30.560</time></trkpt><trkpt lat="55.6496100" lon="38.5904050"><time>2020-11-01T08:54:32.560</time></trkpt><trkpt lat="55.6495730" lon="38.5904620"><time>2020-11-01T08:54:34.557</time></trkpt><trkpt lat="55.6495230" lon="38.5905070"><time>2020-11-01T08:54:36.567</time></trkpt><trkpt lat="55.6494750" lon="38.5905700"><time>2020-11-01T08:54:39.563</time></trkpt><trkpt lat="55.6494380" lon="38.5906400"><time>2020-11-01T08:54:42.557</time></trkpt><trkpt lat="55.6494020" lon="38.5907100"><time>2020-11-01T08:54:45.567</time></trkpt><trkpt lat="55.6493550" lon="38.5907720"><time>2020-11-01T08:54:48.567</time></trkpt><trkpt lat="55.6493050" lon="38.5908400"><time>2020-11-01T08:54:51.567</time></trkpt><trkpt lat="55.6492720" lon="38.5909030"><time>2020-11-01T08:54:53.560</time></trkpt><trkpt lat="55.6492300" lon="38.5909550"><time>2020-11-01T08:54:55.560</time></trkpt><trkpt lat="55.6491750" lon="38.5910100"><time>2020-11-01T08:54:58.567</time></trkpt><trkpt lat="55.6491330" lon="38.5910520"><time>2020-11-01T08:55:00.563</time></trkpt><trkpt lat="55.6490900" lon="38.5910800"><time>2020-11-01T08:55:03.563</time></trkpt><trkpt lat="55.6490420" lon="38.5911200"><time>2020-11-01T08:55:06.560</time></trkpt><trkpt lat="55.6490020" lon="38.5911570"><time>2020-11-01T08:55:09.567</time></trkpt><trkpt lat="55.6489620" lon="38.5912320"><time>2020-11-01T08:55:13.563</time></trkpt><trkpt lat="55.6489220" lon="38.5912880"><time>2020-11-01T08:55:16.557</time></trkpt><trkpt lat="55.6488730" lon="38.5913700"><time>2020-11-01T08:55:19.563</time></trkpt><trkpt lat="55.6488370" lon="38.5914420"><time>2020-11-01T08:55:22.563</time></trkpt><trkpt lat="55.6488000" lon="38.5914930"><time>2020-11-01T08:55:25.567</time></trkpt><trkpt lat="55.6487420" lon="38.5915250"><time>2020-11-01T08:55:28.560</time></trkpt><trkpt lat="55.6486920" lon="38.5915630"><time>2020-11-01T08:55:30.557</time></trkpt><trkpt lat="55.6486370" lon="38.5916470"><time>2020-11-01T08:55:33.563</time></trkpt><trkpt lat="55.6486020" lon="38.5916970"><time>2020-11-01T08:55:35.517</time></trkpt><trkpt lat="55.6485800" lon="38.5917720"><time>2020-11-01T08:55:37.560</time></trkpt><trkpt lat="55.6485570" lon="38.5918470"><time>2020-11-01T08:55:39.563</time></trkpt><trkpt lat="55.6485300" lon="38.5919120"><time>2020-11-01T08:55:41.560</time></trkpt><trkpt lat="55.6484900" lon="38.5919980"><time>2020-11-01T08:55:44.563</time></trkpt><trkpt lat="55.6484500" lon="38.5920600"><time>2020-11-01T08:55:47.560</time></trkpt><trkpt lat="55.6484030" lon="38.5920930"><time>2020-11-01T08:55:50.560</time></trkpt><trkpt lat="55.6483570" lon="38.5921250"><time>2020-11-01T08:55:53.560</time></trkpt><trkpt lat="55.6483070" lon="38.5921550"><time>2020-11-01T08:55:57.560</time></trkpt><trkpt lat="55.6482580" lon="38.5922080"><time>2020-11-01T08:56:00.557</time></trkpt><trkpt lat="55.6482150" lon="38.5922870"><time>2020-11-01T08:56:03.567</time></trkpt><trkpt lat="55.6481820" lon="38.5923400"><time>2020-11-01T08:56:05.557</time></trkpt><trkpt lat="55.6481430" lon="38.5924000"><time>2020-11-01T08:56:08.563</time></trkpt><trkpt lat="55.6481070" lon="38.5925000"><time>2020-11-01T08:56:11.563</time></trkpt><trkpt lat="55.6480580" lon="38.5925620"><time>2020-11-01T08:56:14.563</time></trkpt><trkpt lat="55.6480300" lon="38.5926430"><time>2020-11-01T08:56:16.557</time></trkpt><trkpt lat="55.6479850" lon="38.5927050"><time>2020-11-01T08:56:18.560</time></trkpt><trkpt lat="55.6479450" lon="38.5927500"><time>2020-11-01T08:56:20.557</time></trkpt><trkpt lat="55.6478980" lon="38.5927900"><time>2020-11-01T08:56:22.563</time></trkpt><trkpt lat="55.6478580" lon="38.5928750"><time>2020-11-01T08:56:25.563</time></trkpt><trkpt lat="55.6478300" lon="38.5929570"><time>2020-11-01T08:56:28.563</time></trkpt><trkpt lat="55.6478020" lon="38.5930220"><time>2020-11-01T08:56:30.563</time></trkpt><trkpt lat="55.6477720" lon="38.5931020"><time>2020-11-01T08:56:33.563</time></trkpt><trkpt lat="55.6477650" lon="38.5931900"><time>2020-11-01T08:56:36.560</time></trkpt><trkpt lat="55.6477330" lon="38.5932930"><time>2020-11-01T08:56:39.563</time></trkpt><trkpt lat="55.6476880" lon="38.5933550"><time>2020-11-01T08:56:42.563</time></trkpt><trkpt lat="55.6476320" lon="38.5933980"><time>2020-11-01T08:56:45.560</time></trkpt><trkpt lat="55.6475920" lon="38.5934680"><time>2020-11-01T08:56:49.557</time></trkpt><trkpt lat="55.6475580" lon="38.5935380"><time>2020-11-01T08:56:51.563</time></trkpt><trkpt lat="55.6475230" lon="38.5936280"><time>2020-11-01T08:56:53.563</time></trkpt><trkpt lat="55.6474820" lon="38.5936880"><time>2020-11-01T08:56:55.563</time></trkpt><trkpt lat="55.6474330" lon="38.5937120"><time>2020-11-01T08:56:57.563</time></trkpt><trkpt lat="55.6473850" lon="38.5937720"><time>2020-11-01T08:57:00.560</time></trkpt><trkpt lat="55.6473430" lon="38.5938330"><time>2020-11-01T08:57:03.570</time></trkpt><trkpt lat="55.6473000" lon="38.5938900"><time>2020-11-01T08:57:06.560</time></trkpt><trkpt lat="55.6472650" lon="38.5939520"><time>2020-11-01T08:57:10.563</time></trkpt><trkpt lat="55.6472200" lon="38.5939680"><time>2020-11-01T08:57:13.563</time></trkpt><trkpt lat="55.6471700" lon="38.5940100"><time>2020-11-01T08:57:16.560</time></trkpt><trkpt lat="55.6471220" lon="38.5940530"><time>2020-11-01T08:57:20.560</time></trkpt><trkpt lat="55.6470720" lon="38.5940980"><time>2020-11-01T08:57:22.557</time></trkpt><trkpt lat="55.6470400" lon="38.5941730"><time>2020-11-01T08:57:24.563</time></trkpt><trkpt lat="55.6470050" lon="38.5942450"><time>2020-11-01T08:57:26.563</time></trkpt><trkpt lat="55.6469520" lon="38.5943130"><time>2020-11-01T08:57:28.557</time></trkpt><trkpt lat="55.6469080" lon="38.5943800"><time>2020-11-01T08:57:31.563</time></trkpt><trkpt lat="55.6468600" lon="38.5944520"><time>2020-11-01T08:57:35.560</time></trkpt><trkpt lat="55.6468230" lon="38.5945030"><time>2020-11-01T08:57:38.560</time></trkpt><trkpt lat="55.6467780" lon="38.5945650"><time>2020-11-01T08:57:40.563</time></trkpt><trkpt lat="55.6467330" lon="38.5946050"><time>2020-11-01T08:57:42.560</time></trkpt><trkpt lat="55.6467000" lon="38.5946580"><time>2020-11-01T08:57:44.560</time></trkpt><trkpt lat="55.6466530" lon="38.5946980"><time>2020-11-01T08:57:47.560</time></trkpt><trkpt lat="55.6466170" lon="38.5947750"><time>2020-11-01T08:57:50.563</time></trkpt><trkpt lat="55.6465880" lon="38.5948430"><time>2020-11-01T08:57:52.563</time></trkpt><trkpt lat="55.6465550" lon="38.5949020"><time>2020-11-01T08:57:54.557</time></trkpt><trkpt lat="55.6465070" lon="38.5949830"><time>2020-11-01T08:57:57.570</time></trkpt><trkpt lat="55.6464680" lon="38.5950680"><time>2020-11-01T08:57:59.557</time></trkpt><trkpt lat="55.6464330" lon="38.5951500"><time>2020-11-01T08:58:01.557</time></trkpt><trkpt lat="55.6464020" lon="38.5952130"><time>2020-11-01T08:58:03.563</time></trkpt><trkpt lat="55.6463750" lon="38.5952830"><time>2020-11-01T08:58:06.557</time></trkpt><trkpt lat="55.6463480" lon="38.5953700"><time>2020-11-01T08:58:10.560</time></trkpt><trkpt lat="55.6463070" lon="38.5954450"><time>2020-11-01T08:58:13.563</time></trkpt><trkpt lat="55.6462700" lon="38.5954950"><time>2020-11-01T08:58:15.560</time></trkpt><trkpt lat="55.6462430" lon="38.5955730"><time>2020-11-01T08:58:17.557</time></trkpt><trkpt lat="55.6461900" lon="38.5956170"><time>2020-11-01T08:58:19.557</time></trkpt><trkpt lat="55.6461530" lon="38.5956770"><time>2020-11-01T08:58:21.563</time></trkpt><trkpt lat="55.6460870" lon="38.5957180"><time>2020-11-01T08:58:23.560</time></trkpt><trkpt lat="55.6460270" lon="38.5957600"><time>2020-11-01T08:58:25.557</time></trkpt><trkpt lat="55.6459580" lon="38.5958430"><time>2020-11-01T08:58:28.563</time></trkpt><trkpt lat="55.6458950" lon="38.5958820"><time>2020-11-01T08:58:30.557</time></trkpt><trkpt lat="55.6458570" lon="38.5959280"><time>2020-11-01T08:58:32.557</time></trkpt><trkpt lat="55.6458150" lon="38.5959920"><time>2020-11-01T08:58:34.567</time></trkpt><trkpt lat="55.6457720" lon="38.5960400"><time>2020-11-01T08:58:36.563</time></trkpt><trkpt lat="55.6457130" lon="38.5960850"><time>2020-11-01T08:58:39.563</time></trkpt><trkpt lat="55.6456820" lon="38.5961450"><time>2020-11-01T08:58:42.563</time></trkpt><trkpt lat="55.6456420" lon="38.5962120"><time>2020-11-01T08:58:45.563</time></trkpt><trkpt lat="55.6456020" lon="38.5962630"><time>2020-11-01T08:58:47.553</time></trkpt><trkpt lat="55.6455550" lon="38.5962900"><time>2020-11-01T08:58:50.567</time></trkpt><trkpt lat="55.6455100" lon="38.5963550"><time>2020-11-01T08:58:52.563</time></trkpt><trkpt lat="55.6454730" lon="38.5964420"><time>2020-11-01T08:58:54.573</time></trkpt><trkpt lat="55.6454430" lon="38.5965070"><time>2020-11-01T08:58:56.557</time></trkpt><trkpt lat="55.6453900" lon="38.5965680"><time>2020-11-01T08:59:00.557</time></trkpt><trkpt lat="55.6453380" lon="38.5966450"><time>2020-11-01T08:59:04.560</time></trkpt><trkpt lat="55.6453050" lon="38.5967130"><time>2020-11-01T08:59:06.557</time></trkpt><trkpt lat="55.6452470" lon="38.5967330"><time>2020-11-01T08:59:09.563</time></trkpt><trkpt lat="55.6451930" lon="38.5968470"><time>2020-11-01T08:59:16.563</time></trkpt><trkpt lat="55.6451550" lon="38.5968970"><time>2020-11-01T08:59:18.563</time></trkpt><trkpt lat="55.6451200" lon="38.5969720"><time>2020-11-01T08:59:21.567</time></trkpt><trkpt lat="55.6450850" lon="38.5970230"><time>2020-11-01T08:59:23.557</time></trkpt><trkpt lat="55.6450270" lon="38.5970780"><time>2020-11-01T08:59:26.563</time></trkpt><trkpt lat="55.6449830" lon="38.5971150"><time>2020-11-01T08:59:28.557</time></trkpt><trkpt lat="55.6449500" lon="38.5972070"><time>2020-11-01T08:59:31.560</time></trkpt><trkpt lat="55.6449100" lon="38.5972450"><time>2020-11-01T08:59:33.560</time></trkpt><trkpt lat="55.6448670" lon="38.5972820"><time>2020-11-01T08:59:36.560</time></trkpt><trkpt lat="55.6448400" lon="38.5973520"><time>2020-11-01T08:59:39.563</time></trkpt><trkpt lat="55.6448030" lon="38.5974600"><time>2020-11-01T08:59:42.563</time></trkpt><trkpt lat="55.6447800" lon="38.5975420"><time>2020-11-01T08:59:44.560</time></trkpt><trkpt lat="55.6447550" lon="38.5976080"><time>2020-11-01T08:59:46.557</time></trkpt><trkpt lat="55.6447070" lon="38.5976830"><time>2020-11-01T08:59:49.560</time></trkpt><trkpt lat="55.6446720" lon="38.5977400"><time>2020-11-01T08:59:51.563</time></trkpt><trkpt lat="55.6446250" lon="38.5978050"><time>2020-11-01T08:59:54.560</time></trkpt><trkpt lat="55.6445850" lon="38.5978430"><time>2020-11-01T08:59:56.557</time></trkpt><trkpt lat="55.6445270" lon="38.5978820"><time>2020-11-01T08:59:59.563</time></trkpt><trkpt lat="55.6444850" lon="38.5979600"><time>2020-11-01T09:00:02.560</time></trkpt><trkpt lat="55.6444550" lon="38.5980370"><time>2020-11-01T09:00:05.557</time></trkpt><trkpt lat="55.6444000" lon="38.5980930"><time>2020-11-01T09:00:08.560</time></trkpt><trkpt lat="55.6443670" lon="38.5981550"><time>2020-11-01T09:00:10.560</time></trkpt><trkpt lat="55.6443300" lon="38.5982180"><time>2020-11-01T09:00:12.557</time></trkpt><trkpt lat="55.6442830" lon="38.5982550"><time>2020-11-01T09:00:14.560</time></trkpt><trkpt lat="55.6442280" lon="38.5983130"><time>2020-11-01T09:00:17.567</time></trkpt><trkpt lat="55.6441830" lon="38.5983620"><time>2020-11-01T09:00:19.563</time></trkpt><trkpt lat="55.6441500" lon="38.5984220"><time>2020-11-01T09:00:21.563</time></trkpt><trkpt lat="55.6441030" lon="38.5984980"><time>2020-11-01T09:00:24.560</time></trkpt><trkpt lat="55.6440620" lon="38.5985720"><time>2020-11-01T09:00:27.567</time></trkpt><trkpt lat="55.6440130" lon="38.5986330"><time>2020-11-01T09:00:31.563</time></trkpt><trkpt lat="55.6439700" lon="38.5987150"><time>2020-11-01T09:00:34.563</time></trkpt><trkpt lat="55.6439150" lon="38.5987630"><time>2020-11-01T09:00:37.560</time></trkpt><trkpt lat="55.6438580" lon="38.5988070"><time>2020-11-01T09:00:40.563</time></trkpt><trkpt lat="55.6438150" lon="38.5988500"><time>2020-11-01T09:00:42.560</time></trkpt><trkpt lat="55.6437800" lon="38.5989430"><time>2020-11-01T09:00:45.567</time></trkpt><trkpt lat="55.6437470" lon="38.5990070"><time>2020-11-01T09:00:48.563</time></trkpt><trkpt lat="55.6437130" lon="38.5991020"><time>2020-11-01T09:00:51.560</time></trkpt><trkpt lat="55.6436800" lon="38.5991650"><time>2020-11-01T09:00:54.563</time></trkpt><trkpt lat="55.6436250" lon="38.5992380"><time>2020-11-01T09:00:57.563</time></trkpt><trkpt lat="55.6435870" lon="38.5992970"><time>2020-11-01T09:00:59.557</time></trkpt><trkpt lat="55.6435580" lon="38.5993650"><time>2020-11-01T09:01:01.563</time></trkpt><trkpt lat="55.6435300" lon="38.5994380"><time>2020-11-01T09:01:04.560</time></trkpt><trkpt lat="55.6435080" lon="38.5995520"><time>2020-11-01T09:01:07.563</time></trkpt><trkpt lat="55.6434620" lon="38.5996350"><time>2020-11-01T09:01:10.563</time></trkpt><trkpt lat="55.6434170" lon="38.5996920"><time>2020-11-01T09:01:13.563</time></trkpt><trkpt lat="55.6433780" lon="38.5997680"><time>2020-11-01T09:01:16.567</time></trkpt><trkpt lat="55.6433320" lon="38.5998350"><time>2020-11-01T09:01:19.567</time></trkpt><trkpt lat="55.6432870" lon="38.5999080"><time>2020-11-01T09:01:22.567</time></trkpt><trkpt lat="55.6432370" lon="38.5999870"><time>2020-11-01T09:01:25.563</time></trkpt><trkpt lat="55.6431980" lon="38.6000820"><time>2020-11-01T09:01:28.557</time></trkpt><trkpt lat="55.6431630" lon="38.6001650"><time>2020-11-01T09:01:30.563</time></trkpt><trkpt lat="55.6431270" lon="38.6002380"><time>2020-11-01T09:01:32.567</time></trkpt><trkpt lat="55.6430980" lon="38.6003030"><time>2020-11-01T09:01:34.563</time></trkpt><trkpt lat="55.6430550" lon="38.6003870"><time>2020-11-01T09:01:36.567</time></trkpt><trkpt lat="55.6430280" lon="38.6004800"><time>2020-11-01T09:01:38.563</time></trkpt><trkpt lat="55.6429950" lon="38.6005620"><time>2020-11-01T09:01:40.563</time></trkpt><trkpt lat="55.6429430" lon="38.6006200"><time>2020-11-01T09:01:42.563</time></trkpt><trkpt lat="55.6428870" lon="38.6007020"><time>2020-11-01T09:01:45.563</time></trkpt><trkpt lat="55.6428570" lon="38.6007770"><time>2020-11-01T09:01:47.557</time></trkpt><trkpt lat="55.6428080" lon="38.6008030"><time>2020-11-01T09:01:50.563</time></trkpt><trkpt lat="55.6427650" lon="38.6008400"><time>2020-11-01T09:01:54.563</time></trkpt><trkpt lat="55.6427500" lon="38.6009370"><time>2020-11-01T09:02:00.563</time></trkpt><trkpt lat="55.6427300" lon="38.6010380"><time>2020-11-01T09:02:04.557</time></trkpt><trkpt lat="55.6427180" lon="38.6011350"><time>2020-11-01T09:02:08.557</time></trkpt><trkpt lat="55.6427020" lon="38.6012130"><time>2020-11-01T09:02:11.557</time></trkpt><trkpt lat="55.6426880" lon="38.6013130"><time>2020-11-01T09:02:16.563</time></trkpt><trkpt lat="55.6426670" lon="38.6014030"><time>2020-11-01T09:02:20.560</time></trkpt><trkpt lat="55.6427050" lon="38.6015170"><time>2020-11-01T09:02:24.563</time></trkpt><trkpt lat="55.6427330" lon="38.6015930"><time>2020-11-01T09:02:26.533</time></trkpt><trkpt lat="55.6427680" lon="38.6016500"><time>2020-11-01T09:02:28.567</time></trkpt><trkpt lat="55.6428020" lon="38.6017280"><time>2020-11-01T09:02:32.557</time></trkpt><trkpt lat="55.6428180" lon="38.6018080"><time>2020-11-01T09:02:36.560</time></trkpt><trkpt lat="55.6428550" lon="38.6018870"><time>2020-11-01T09:02:40.563</time></trkpt><trkpt lat="55.6429020" lon="38.6019500"><time>2020-11-01T09:02:43.563</time></trkpt><trkpt lat="55.6429370" lon="38.6020400"><time>2020-11-01T09:02:46.560</time></trkpt><trkpt lat="55.6429500" lon="38.6021320"><time>2020-11-01T09:02:48.563</time></trkpt><trkpt lat="55.6429580" lon="38.6022330"><time>2020-11-01T09:02:50.563</time></trkpt><trkpt lat="55.6429880" lon="38.6023020"><time>2020-11-01T09:02:51.563</time></trkpt><trkpt lat="55.6430030" lon="38.6024150"><time>2020-11-01T09:02:54.563</time></trkpt><trkpt lat="55.6430270" lon="38.6025170"><time>2020-11-01T09:02:57.567</time></trkpt><trkpt lat="55.6430420" lon="38.6026220"><time>2020-11-01T09:03:01.560</time></trkpt><trkpt lat="55.6430680" lon="38.6026970"><time>2020-11-01T09:03:03.563</time></trkpt><trkpt lat="55.6431030" lon="38.6027650"><time>2020-11-01T09:03:05.560</time></trkpt><trkpt lat="55.6430970" lon="38.6028500"><time>2020-11-01T09:03:08.560</time></trkpt><trkpt lat="55.6431120" lon="38.6029420"><time>2020-11-01T09:03:12.563</time></trkpt><trkpt lat="55.6431400" lon="38.6030200"><time>2020-11-01T09:03:15.563</time></trkpt><trkpt lat="55.6431470" lon="38.6031120"><time>2020-11-01T09:03:18.560</time></trkpt><trkpt lat="55.6431680" lon="38.6032070"><time>2020-11-01T09:03:21.563</time></trkpt><trkpt lat="55.6432050" lon="38.6032730"><time>2020-11-01T09:03:23.563</time></trkpt><trkpt lat="55.6432380" lon="38.6033320"><time>2020-11-01T09:03:25.560</time></trkpt><trkpt lat="55.6432770" lon="38.6034180"><time>2020-11-01T09:03:28.560</time></trkpt><trkpt lat="55.6433200" lon="38.6035030"><time>2020-11-01T09:03:31.563</time></trkpt><trkpt lat="55.6433550" lon="38.6035650"><time>2020-11-01T09:03:34.563</time></trkpt><trkpt lat="55.6433800" lon="38.6036500"><time>2020-11-01T09:03:37.563</time></trkpt><trkpt lat="55.6433930" lon="38.6037520"><time>2020-11-01T09:03:40.560</time></trkpt><trkpt lat="55.6434230" lon="38.6038420"><time>2020-11-01T09:03:43.557</time></trkpt><trkpt lat="55.6434480" lon="38.6039270"><time>2020-11-01T09:03:47.563</time></trkpt><trkpt lat="55.6434680" lon="38.6040050"><time>2020-11-01T09:03:51.563</time></trkpt><trkpt lat="55.6435350" lon="38.6041100"><time>2020-11-01T09:03:55.557</time></trkpt><trkpt lat="55.6435850" lon="38.6041670"><time>2020-11-01T09:03:57.563</time></trkpt><trkpt lat="55.6436030" lon="38.6042520"><time>2020-11-01T09:03:59.577</time></trkpt><trkpt lat="55.6436500" lon="38.6043530"><time>2020-11-01T09:04:02.563</time></trkpt><trkpt lat="55.6436920" lon="38.6044380"><time>2020-11-01T09:04:04.560</time></trkpt><trkpt lat="55.6437370" lon="38.6045200"><time>2020-11-01T09:04:06.563</time></trkpt><trkpt lat="55.6437550" lon="38.6046270"><time>2020-11-01T09:04:09.563</time></trkpt><trkpt lat="55.6437780" lon="38.6047080"><time>2020-11-01T09:04:12.567</time></trkpt><trkpt lat="55.6438050" lon="38.6047770"><time>2020-11-01T09:04:14.560</time></trkpt><trkpt lat="55.6438350" lon="38.6048800"><time>2020-11-01T09:04:17.563</time></trkpt><trkpt lat="55.6438630" lon="38.6049750"><time>2020-11-01T09:04:20.560</time></trkpt><trkpt lat="55.6438970" lon="38.6050450"><time>2020-11-01T09:04:22.563</time></trkpt><trkpt lat="55.6439400" lon="38.6051070"><time>2020-11-01T09:04:25.557</time></trkpt><trkpt lat="55.6439650" lon="38.6052130"><time>2020-11-01T09:04:28.557</time></trkpt><trkpt lat="55.6439930" lon="38.6053250"><time>2020-11-01T09:04:31.563</time></trkpt><trkpt lat="55.6440220" lon="38.6054070"><time>2020-11-01T09:04:33.563</time></trkpt><trkpt lat="55.6440420" lon="38.6054780"><time>2020-11-01T09:04:35.553</time></trkpt><trkpt lat="55.6440600" lon="38.6055520"><time>2020-11-01T09:04:37.560</time></trkpt><trkpt lat="55.6440850" lon="38.6056330"><time>2020-11-01T09:04:39.567</time></trkpt><trkpt lat="55.6441100" lon="38.6057480"><time>2020-11-01T09:04:42.563</time></trkpt><trkpt lat="55.6441370" lon="38.6058430"><time>2020-11-01T09:04:45.567</time></trkpt><trkpt lat="55.6441770" lon="38.6059400"><time>2020-11-01T09:04:48.560</time></trkpt><trkpt lat="55.6442130" lon="38.6060520"><time>2020-11-01T09:04:51.567</time></trkpt><trkpt lat="55.6442530" lon="38.6061430"><time>2020-11-01T09:04:53.560</time></trkpt><trkpt lat="55.6442770" lon="38.6062250"><time>2020-11-01T09:04:55.557</time></trkpt><trkpt lat="55.6443170" lon="38.6062950"><time>2020-11-01T09:04:57.563</time></trkpt><trkpt lat="55.6443580" lon="38.6063700"><time>2020-11-01T09:04:59.557</time></trkpt><trkpt lat="55.6444020" lon="38.6064550"><time>2020-11-01T09:05:01.560</time></trkpt><trkpt lat="55.6444420" lon="38.6065420"><time>2020-11-01T09:05:03.560</time></trkpt><trkpt lat="55.6444730" lon="38.6066400"><time>2020-11-01T09:05:05.557</time></trkpt><trkpt lat="55.6445120" lon="38.6067300"><time>2020-11-01T09:05:07.563</time></trkpt><trkpt lat="55.6445280" lon="38.6068150"><time>2020-11-01T09:05:09.567</time></trkpt><trkpt lat="55.6445570" lon="38.6068850"><time>2020-11-01T09:05:11.563</time></trkpt><trkpt lat="55.6445880" lon="38.6069530"><time>2020-11-01T09:05:13.563</time></trkpt><trkpt lat="55.6446200" lon="38.6070230"><time>2020-11-01T09:05:15.563</time></trkpt><trkpt lat="55.6446300" lon="38.6071350"><time>2020-11-01T09:05:18.557</time></trkpt><trkpt lat="55.6446180" lon="38.6072320"><time>2020-11-01T09:05:22.563</time></trkpt><trkpt lat="55.6445950" lon="38.6073100"><time>2020-11-01T09:05:25.560</time></trkpt><trkpt lat="55.6445650" lon="38.6073930"><time>2020-11-01T09:05:29.560</time></trkpt><trkpt lat="55.6445420" lon="38.6074670"><time>2020-11-01T09:05:33.573</time></trkpt><trkpt lat="55.6444350" lon="38.6075700"><time>2020-11-01T09:05:46.567</time></trkpt><trkpt lat="55.6443220" lon="38.6076700"><time>2020-11-01T09:05:59.557</time></trkpt><trkpt lat="55.6442400" lon="38.6078330"><time>2020-11-01T09:06:21.800</time></trkpt><trkpt lat="55.6442170" lon="38.6078550"><time>2020-11-01T09:06:23.787</time></trkpt><trkpt lat="55.6441900" lon="38.6079130"><time>2020-11-01T09:06:24.530</time></trkpt><trkpt lat="55.6439820" lon="38.6080070"><time>2020-11-01T09:06:25.537</time></trkpt><trkpt lat="55.6431080" lon="38.6080370"><time>2020-11-01T09:06:28.527</time></trkpt><trkpt lat="55.6430580" lon="38.6078750"><time>2020-11-01T09:06:29.520</time></trkpt><trkpt lat="55.6429350" lon="38.6079350"><time>2020-11-01T09:06:30.533</time></trkpt><trkpt lat="55.6427870" lon="38.6079630"><time>2020-11-01T09:06:31.527</time></trkpt><trkpt lat="55.6426870" lon="38.6080530"><time>2020-11-01T09:06:32.527</time></trkpt><trkpt lat="55.6425980" lon="38.6080850"><time>2020-11-01T09:06:33.533</time></trkpt><trkpt lat="55.6424970" lon="38.6081970"><time>2020-11-01T09:06:34.673</time></trkpt><trkpt lat="55.6424230" lon="38.6082320"><time>2020-11-01T09:06:35.570</time></trkpt><trkpt lat="55.6423770" lon="38.6082350"><time>2020-11-01T09:06:36.590</time></trkpt><trkpt lat="55.6423200" lon="38.6082920"><time>2020-11-01T09:06:37.567</time></trkpt><trkpt lat="55.6422400" lon="38.6083480"><time>2020-11-01T09:06:38.527</time></trkpt><trkpt lat="55.6421850" lon="38.6082930"><time>2020-11-01T09:06:40.550</time></trkpt><trkpt lat="55.6421330" lon="38.6083450"><time>2020-11-01T09:06:41.567</time></trkpt><trkpt lat="55.6421800" lon="38.6083420"><time>2020-11-01T09:06:42.517</time></trkpt><trkpt lat="55.6422000" lon="38.6084130"><time>2020-11-01T09:06:49.557</time></trkpt><trkpt lat="55.6422030" lon="38.6085000"><time>2020-11-01T09:06:52.567</time></trkpt><trkpt lat="55.6422220" lon="38.6085770"><time>2020-11-01T09:07:01.567</time></trkpt><trkpt lat="55.6421830" lon="38.6086470"><time>2020-11-01T09:07:05.557</time></trkpt><trkpt lat="55.6421130" lon="38.6086650"><time>2020-11-01T09:07:09.573</time></trkpt><trkpt lat="55.6420570" lon="38.6086800"><time>2020-11-01T09:07:11.530</time></trkpt><trkpt lat="55.6420870" lon="38.6085770"><time>2020-11-01T09:07:12.567</time></trkpt><trkpt lat="55.6421200" lon="38.6086330"><time>2020-11-01T09:07:16.530</time></trkpt><trkpt lat="55.6421380" lon="38.6087620"><time>2020-11-01T09:07:19.527</time></trkpt><trkpt lat="55.6421250" lon="38.6088530"><time>2020-11-01T09:07:21.530</time></trkpt><trkpt lat="55.6421880" lon="38.6089220"><time>2020-11-01T09:07:30.567</time></trkpt><trkpt lat="55.6421430" lon="38.6089770"><time>2020-11-01T09:07:32.563</time></trkpt><trkpt lat="55.6421080" lon="38.6090650"><time>2020-11-01T09:07:35.567</time></trkpt><trkpt lat="55.6420780" lon="38.6091370"><time>2020-11-01T09:07:37.537</time></trkpt><trkpt lat="55.6420280" lon="38.6091950"><time>2020-11-01T09:07:40.567</time></trkpt><trkpt lat="55.6419870" lon="38.6092420"><time>2020-11-01T09:07:42.523</time></trkpt><trkpt lat="55.6419520" lon="38.6093780"><time>2020-11-01T09:07:44.553</time></trkpt><trkpt lat="55.6419870" lon="38.6094880"><time>2020-11-01T09:07:45.567</time></trkpt><trkpt lat="55.6419730" lon="38.6095900"><time>2020-11-01T09:07:47.567</time></trkpt><trkpt lat="55.6419720" lon="38.6096750"><time>2020-11-01T09:07:50.607</time></trkpt><trkpt lat="55.6420170" lon="38.6097470"><time>2020-11-01T09:07:52.527</time></trkpt><trkpt lat="55.6420100" lon="38.6099070"><time>2020-11-01T09:07:53.563</time></trkpt><trkpt lat="55.6419180" lon="38.6099530"><time>2020-11-01T09:07:54.563</time></trkpt><trkpt lat="55.6419500" lon="38.6100370"><time>2020-11-01T09:07:56.543</time></trkpt><trkpt lat="55.6419650" lon="38.6101920"><time>2020-11-01T09:07:59.563</time></trkpt><trkpt lat="55.6419400" lon="38.6102970"><time>2020-11-01T09:08:00.580</time></trkpt><trkpt lat="55.6419080" lon="38.6104620"><time>2020-11-01T09:08:01.560</time></trkpt><trkpt lat="55.6418750" lon="38.6106070"><time>2020-11-01T09:08:02.587</time></trkpt><trkpt lat="55.6418080" lon="38.6106050"><time>2020-11-01T09:08:06.587</time></trkpt><trkpt lat="55.6417520" lon="38.6107430"><time>2020-11-01T09:08:13.557</time></trkpt><trkpt lat="55.6417380" lon="38.6108200"><time>2020-11-01T09:08:14.567</time></trkpt><trkpt lat="55.6416850" lon="38.6110750"><time>2020-11-01T09:08:18.557</time></trkpt><trkpt lat="55.6416420" lon="38.6111450"><time>2020-11-01T09:08:20.570</time></trkpt><trkpt lat="55.6415900" lon="38.6112570"><time>2020-11-01T09:08:22.563</time></trkpt><trkpt lat="55.6415650" lon="38.6113270"><time>2020-11-01T09:08:24.563</time></trkpt><trkpt lat="55.6414830" lon="38.6114370"><time>2020-11-01T09:08:26.560</time></trkpt><trkpt lat="55.6414400" lon="38.6115170"><time>2020-11-01T09:08:28.560</time></trkpt><trkpt lat="55.6413950" lon="38.6115970"><time>2020-11-01T09:08:30.543</time></trkpt><trkpt lat="55.6413600" lon="38.6116750"><time>2020-11-01T09:08:33.523</time></trkpt><trkpt lat="55.6412920" lon="38.6118470"><time>2020-11-01T09:08:35.617</time></trkpt><trkpt lat="55.6412320" lon="38.6119230"><time>2020-11-01T09:08:37.543</time></trkpt><trkpt lat="55.6411730" lon="38.6119750"><time>2020-11-01T09:08:40.527</time></trkpt><trkpt lat="55.6411200" lon="38.6120150"><time>2020-11-01T09:08:42.523</time></trkpt><trkpt lat="55.6410630" lon="38.6120330"><time>2020-11-01T09:08:45.530</time></trkpt><trkpt lat="55.6410030" lon="38.6120630"><time>2020-11-01T09:08:48.570</time></trkpt><trkpt lat="55.6409480" lon="38.6121450"><time>2020-11-01T09:08:51.533</time></trkpt><trkpt lat="55.6409300" lon="38.6122200"><time>2020-11-01T09:08:52.523</time></trkpt><trkpt lat="55.6408970" lon="38.6122770"><time>2020-11-01T09:08:55.557</time></trkpt><trkpt lat="55.6408280" lon="38.6122930"><time>2020-11-01T09:09:02.570</time></trkpt><trkpt lat="55.6407980" lon="38.6123770"><time>2020-11-01T09:09:06.600</time></trkpt><trkpt lat="55.6407600" lon="38.6124400"><time>2020-11-01T09:09:07.557</time></trkpt><trkpt lat="55.6407050" lon="38.6125330"><time>2020-11-01T09:09:09.530</time></trkpt><trkpt lat="55.6406630" lon="38.6125770"><time>2020-11-01T09:09:13.547</time></trkpt><trkpt lat="55.6406250" lon="38.6126220"><time>2020-11-01T09:09:15.523</time></trkpt><trkpt lat="55.6405900" lon="38.6127050"><time>2020-11-01T09:09:18.537</time></trkpt><trkpt lat="55.6405430" lon="38.6127100"><time>2020-11-01T09:09:20.570</time></trkpt><trkpt lat="55.6404950" lon="38.6127220"><time>2020-11-01T09:09:23.567</time></trkpt><trkpt lat="55.6404430" lon="38.6127730"><time>2020-11-01T09:09:25.567</time></trkpt><trkpt lat="55.6403980" lon="38.6128270"><time>2020-11-01T09:09:28.560</time></trkpt><trkpt lat="55.6403550" lon="38.6128720"><time>2020-11-01T09:09:31.567</time></trkpt><trkpt lat="55.6403150" lon="38.6129170"><time>2020-11-01T09:09:33.537</time></trkpt><trkpt lat="55.6402720" lon="38.6129820"><time>2020-11-01T09:09:36.523</time></trkpt><trkpt lat="55.6402300" lon="38.6130420"><time>2020-11-01T09:09:38.560</time></trkpt><trkpt lat="55.6401820" lon="38.6130950"><time>2020-11-01T09:09:41.563</time></trkpt><trkpt lat="55.6401470" lon="38.6131870"><time>2020-11-01T09:09:45.533</time></trkpt><trkpt lat="55.6401170" lon="38.6132680"><time>2020-11-01T09:09:47.523</time></trkpt><trkpt lat="55.6400650" lon="38.6134180"><time>2020-11-01T09:09:49.530</time></trkpt><trkpt lat="55.6399520" lon="38.6135670"><time>2020-11-01T09:10:02.567</time></trkpt><trkpt lat="55.6399120" lon="38.6136270"><time>2020-11-01T09:10:04.567</time></trkpt><trkpt lat="55.6398720" lon="38.6136780"><time>2020-11-01T09:10:07.567</time></trkpt><trkpt lat="55.6398320" lon="38.6137200"><time>2020-11-01T09:10:09.680</time></trkpt><trkpt lat="55.6397830" lon="38.6137570"><time>2020-11-01T09:10:11.567</time></trkpt><trkpt lat="55.6397470" lon="38.6138220"><time>2020-11-01T09:10:14.570</time></trkpt><trkpt lat="55.6397030" lon="38.6138530"><time>2020-11-01T09:10:16.567</time></trkpt><trkpt lat="55.6396280" lon="38.6138970"><time>2020-11-01T09:10:18.567</time></trkpt><trkpt lat="55.6395750" lon="38.6139620"><time>2020-11-01T09:10:23.563</time></trkpt><trkpt lat="55.6395330" lon="38.6139980"><time>2020-11-01T09:10:26.560</time></trkpt><trkpt lat="55.6394920" lon="38.6140630"><time>2020-11-01T09:10:30.567</time></trkpt><trkpt lat="55.6394580" lon="38.6141230"><time>2020-11-01T09:10:33.570</time></trkpt><trkpt lat="55.6394000" lon="38.6142250"><time>2020-11-01T09:10:39.570</time></trkpt><trkpt lat="55.6393470" lon="38.6142720"><time>2020-11-01T09:10:42.560</time></trkpt><trkpt lat="55.6393000" lon="38.6143180"><time>2020-11-01T09:10:45.573</time></trkpt><trkpt lat="55.6392600" lon="38.6143650"><time>2020-11-01T09:10:48.567</time></trkpt><trkpt lat="55.6392200" lon="38.6144380"><time>2020-11-01T09:10:53.563</time></trkpt><trkpt lat="55.6391680" lon="38.6145030"><time>2020-11-01T09:10:56.563</time></trkpt><trkpt lat="55.6391370" lon="38.6145630"><time>2020-11-01T09:10:58.567</time></trkpt><trkpt lat="55.6390970" lon="38.6146150"><time>2020-11-01T09:11:00.567</time></trkpt><trkpt lat="55.6390450" lon="38.6146650"><time>2020-11-01T09:11:03.570</time></trkpt><trkpt lat="55.6389950" lon="38.6147370"><time>2020-11-01T09:11:06.567</time></trkpt><trkpt lat="55.6389570" lon="38.6148100"><time>2020-11-01T09:11:09.567</time></trkpt><trkpt lat="55.6389120" lon="38.6148580"><time>2020-11-01T09:11:12.567</time></trkpt><trkpt lat="55.6388600" lon="38.6149300"><time>2020-11-01T09:11:15.567</time></trkpt><trkpt lat="55.6388170" lon="38.6150030"><time>2020-11-01T09:11:18.560</time></trkpt><trkpt lat="55.6387600" lon="38.6150570"><time>2020-11-01T09:11:21.567</time></trkpt><trkpt lat="55.6387180" lon="38.6150970"><time>2020-11-01T09:11:24.567</time></trkpt><trkpt lat="55.6386700" lon="38.6151470"><time>2020-11-01T09:11:27.567</time></trkpt><trkpt lat="55.6386220" lon="38.6152030"><time>2020-11-01T09:11:29.567</time></trkpt><trkpt lat="55.6385620" lon="38.6152800"><time>2020-11-01T09:11:31.557</time></trkpt><trkpt lat="55.6385150" lon="38.6153330"><time>2020-11-01T09:11:34.570</time></trkpt><trkpt lat="55.6384650" lon="38.6154030"><time>2020-11-01T09:11:37.567</time></trkpt><trkpt lat="55.6384250" lon="38.6154420"><time>2020-11-01T09:11:39.563</time></trkpt><trkpt lat="55.6383850" lon="38.6154780"><time>2020-11-01T09:11:41.567</time></trkpt><trkpt lat="55.6383480" lon="38.6155270"><time>2020-11-01T09:11:43.567</time></trkpt><trkpt lat="55.6383220" lon="38.6155930"><time>2020-11-01T09:11:45.570</time></trkpt><trkpt lat="55.6382870" lon="38.6156620"><time>2020-11-01T09:11:50.563</time></trkpt><trkpt lat="55.6382370" lon="38.6157100"><time>2020-11-01T09:11:53.563</time></trkpt><trkpt lat="55.6381820" lon="38.6157600"><time>2020-11-01T09:11:57.570</time></trkpt><trkpt lat="55.6381520" lon="38.6158480"><time>2020-11-01T09:12:00.567</time></trkpt><trkpt lat="55.6381080" lon="38.6159230"><time>2020-11-01T09:12:03.573</time></trkpt><trkpt lat="55.6380580" lon="38.6160280"><time>2020-11-01T09:12:06.563</time></trkpt><trkpt lat="55.6380000" lon="38.6160930"><time>2020-11-01T09:12:09.570</time></trkpt><trkpt lat="55.6379420" lon="38.6161370"><time>2020-11-01T09:12:12.567</time></trkpt><trkpt lat="55.6378950" lon="38.6161670"><time>2020-11-01T09:12:17.563</time></trkpt><trkpt lat="55.6377880" lon="38.6162780"><time>2020-11-01T09:12:28.563</time></trkpt><trkpt lat="55.6376750" lon="38.6163880"><time>2020-11-01T09:12:39.570</time></trkpt><trkpt lat="55.6375820" lon="38.6165230"><time>2020-11-01T09:13:07.567</time></trkpt><trkpt lat="55.6375020" lon="38.6166380"><time>2020-11-01T09:13:36.567</time></trkpt><trkpt lat="55.6374230" lon="38.6167730"><time>2020-11-01T09:14:01.567</time></trkpt><trkpt lat="55.6373220" lon="38.6168730"><time>2020-11-01T09:14:37.567</time></trkpt><trkpt lat="55.6372670" lon="38.6170250"><time>2020-11-01T09:15:04.567</time></trkpt><trkpt lat="55.6372500" lon="38.6171020"><time>2020-11-01T09:15:07.570</time></trkpt><trkpt lat="55.6372350" lon="38.6171880"><time>2020-11-01T09:15:10.563</time></trkpt><trkpt lat="55.6372000" lon="38.6172480"><time>2020-11-01T09:15:13.570</time></trkpt><trkpt lat="55.6371580" lon="38.6173030"><time>2020-11-01T09:15:15.567</time></trkpt><trkpt lat="55.6371170" lon="38.6173570"><time>2020-11-01T09:15:18.563</time></trkpt><trkpt lat="55.6370730" lon="38.6174170"><time>2020-11-01T09:15:20.563</time></trkpt><trkpt lat="55.6370270" lon="38.6174630"><time>2020-11-01T09:15:22.567</time></trkpt><trkpt lat="55.6369680" lon="38.6175230"><time>2020-11-01T09:15:24.567</time></trkpt><trkpt lat="55.6369070" lon="38.6175900"><time>2020-11-01T09:15:26.567</time></trkpt><trkpt lat="55.6368470" lon="38.6176650"><time>2020-11-01T09:15:28.567</time></trkpt><trkpt lat="55.6367920" lon="38.6177330"><time>2020-11-01T09:15:30.567</time></trkpt><trkpt lat="55.6367400" lon="38.6178000"><time>2020-11-01T09:15:32.560</time></trkpt><trkpt lat="55.6366880" lon="38.6178770"><time>2020-11-01T09:15:34.567</time></trkpt><trkpt lat="55.6366300" lon="38.6179430"><time>2020-11-01T09:15:36.567</time></trkpt><trkpt lat="55.6365780" lon="38.6180000"><time>2020-11-01T09:15:38.567</time></trkpt><trkpt lat="55.6365230" lon="38.6180480"><time>2020-11-01T09:15:40.567</time></trkpt><trkpt lat="55.6364730" lon="38.6180930"><time>2020-11-01T09:15:42.567</time></trkpt><trkpt lat="55.6364050" lon="38.6181430"><time>2020-11-01T09:15:44.563</time></trkpt><trkpt lat="55.6363420" lon="38.6182070"><time>2020-11-01T09:15:46.563</time></trkpt><trkpt lat="55.6362680" lon="38.6182650"><time>2020-11-01T09:15:48.567</time></trkpt><trkpt lat="55.6362120" lon="38.6183250"><time>2020-11-01T09:15:50.563</time></trkpt><trkpt lat="55.6361600" lon="38.6183850"><time>2020-11-01T09:15:52.560</time></trkpt><trkpt lat="55.6361220" lon="38.6184550"><time>2020-11-01T09:15:54.567</time></trkpt><trkpt lat="55.6360520" lon="38.6185280"><time>2020-11-01T09:15:56.567</time></trkpt><trkpt lat="55.6360080" lon="38.6185930"><time>2020-11-01T09:15:58.567</time></trkpt><trkpt lat="55.6359670" lon="38.6186550"><time>2020-11-01T09:16:00.563</time></trkpt><trkpt lat="55.6359230" lon="38.6187120"><time>2020-11-01T09:16:02.567</time></trkpt><trkpt lat="55.6358870" lon="38.6187680"><time>2020-11-01T09:16:04.567</time></trkpt><trkpt lat="55.6358400" lon="38.6188330"><time>2020-11-01T09:16:06.567</time></trkpt><trkpt lat="55.6357830" lon="38.6188920"><time>2020-11-01T09:16:08.563</time></trkpt><trkpt lat="55.6357330" lon="38.6189580"><time>2020-11-01T09:16:10.567</time></trkpt><trkpt lat="55.6356900" lon="38.6190370"><time>2020-11-01T09:16:12.560</time></trkpt><trkpt lat="55.6356480" lon="38.6190980"><time>2020-11-01T09:16:14.577</time></trkpt><trkpt lat="55.6356100" lon="38.6191630"><time>2020-11-01T09:16:16.567</time></trkpt><trkpt lat="55.6355600" lon="38.6192270"><time>2020-11-01T09:16:18.567</time></trkpt><trkpt lat="55.6355080" lon="38.6193230"><time>2020-11-01T09:16:19.567</time></trkpt><trkpt lat="55.6354780" lon="38.6194100"><time>2020-11-01T09:16:20.567</time></trkpt><trkpt lat="55.6354230" lon="38.6194850"><time>2020-11-01T09:16:23.567</time></trkpt><trkpt lat="55.6353730" lon="38.6195580"><time>2020-11-01T09:16:26.567</time></trkpt><trkpt lat="55.6353220" lon="38.6196050"><time>2020-11-01T09:16:29.560</time></trkpt><trkpt lat="55.6352670" lon="38.6196650"><time>2020-11-01T09:16:32.567</time></trkpt><trkpt lat="55.6352230" lon="38.6197180"><time>2020-11-01T09:16:34.567</time></trkpt><trkpt lat="55.6351800" lon="38.6197770"><time>2020-11-01T09:16:35.567</time></trkpt><trkpt lat="55.6351070" lon="38.6198650"><time>2020-11-01T09:16:40.560</time></trkpt><trkpt lat="55.6350700" lon="38.6199380"><time>2020-11-01T09:16:42.567</time></trkpt><trkpt lat="55.6350250" lon="38.6199950"><time>2020-11-01T09:16:44.563</time></trkpt><trkpt lat="55.6349630" lon="38.6200720"><time>2020-11-01T09:16:46.560</time></trkpt><trkpt lat="55.6349020" lon="38.6201270"><time>2020-11-01T09:16:49.567</time></trkpt><trkpt lat="55.6348570" lon="38.6201680"><time>2020-11-01T09:16:52.570</time></trkpt><trkpt lat="55.6347520" lon="38.6202530"><time>2020-11-01T09:17:01.567</time></trkpt><trkpt lat="55.6347050" lon="38.6203580"><time>2020-11-01T09:17:05.563</time></trkpt><trkpt lat="55.6345920" lon="38.6205030"><time>2020-11-01T09:17:17.567</time></trkpt><trkpt lat="55.6345600" lon="38.6205600"><time>2020-11-01T09:17:20.567</time></trkpt><trkpt lat="55.6345080" lon="38.6206170"><time>2020-11-01T09:17:23.567</time></trkpt><trkpt lat="55.6344680" lon="38.6206700"><time>2020-11-01T09:17:26.567</time></trkpt><trkpt lat="55.6344370" lon="38.6207280"><time>2020-11-01T09:17:29.570</time></trkpt><trkpt lat="55.6343280" lon="38.6208720"><time>2020-11-01T09:17:40.567</time></trkpt><trkpt lat="55.6342880" lon="38.6209350"><time>2020-11-01T09:17:43.563</time></trkpt><trkpt lat="55.6341950" lon="38.6210500"><time>2020-11-01T09:17:51.567</time></trkpt><trkpt lat="55.6341480" lon="38.6211150"><time>2020-11-01T09:17:54.567</time></trkpt><trkpt lat="55.6341070" lon="38.6211820"><time>2020-11-01T09:17:56.567</time></trkpt><trkpt lat="55.6340620" lon="38.6212530"><time>2020-11-01T09:17:59.560</time></trkpt><trkpt lat="55.6340150" lon="38.6213070"><time>2020-11-01T09:18:02.560</time></trkpt><trkpt lat="55.6339230" lon="38.6214070"><time>2020-11-01T09:18:09.570</time></trkpt><trkpt lat="55.6338780" lon="38.6214700"><time>2020-11-01T09:18:12.567</time></trkpt><trkpt lat="55.6338370" lon="38.6215520"><time>2020-11-01T09:18:16.567</time></trkpt><trkpt lat="55.6337500" lon="38.6216880"><time>2020-11-01T09:18:27.570</time></trkpt><trkpt lat="55.6336370" lon="38.6218370"><time>2020-11-01T09:18:36.567</time></trkpt><trkpt lat="55.6335930" lon="38.6218800"><time>2020-11-01T09:18:39.570</time></trkpt><trkpt lat="55.6335070" lon="38.6219680"><time>2020-11-01T09:18:44.563</time></trkpt><trkpt lat="55.6334570" lon="38.6220320"><time>2020-11-01T09:18:47.567</time></trkpt><trkpt lat="55.6333400" lon="38.6221230"><time>2020-11-01T09:18:58.567</time></trkpt><trkpt lat="55.6332300" lon="38.6222500"><time>2020-11-01T09:19:13.563</time></trkpt><trkpt lat="55.6331820" lon="38.6222820"><time>2020-11-01T09:19:16.563</time></trkpt><trkpt lat="55.6331070" lon="38.6223730"><time>2020-11-01T09:19:29.567</time></trkpt><trkpt lat="55.6330200" lon="38.6224830"><time>2020-11-01T09:19:47.563</time></trkpt><trkpt lat="55.6329080" lon="38.6225820"><time>2020-11-01T09:19:59.563</time></trkpt><trkpt lat="55.6328200" lon="38.6227150"><time>2020-11-01T09:20:16.563</time></trkpt><trkpt lat="55.6327150" lon="38.6228430"><time>2020-11-01T09:20:33.567</time></trkpt><trkpt lat="55.6326020" lon="38.6229130"><time>2020-11-01T09:20:48.567</time></trkpt><trkpt lat="55.6324930" lon="38.6230220"><time>2020-11-01T09:21:03.567</time></trkpt><trkpt lat="55.6324230" lon="38.6231800"><time>2020-11-01T09:21:15.567</time></trkpt><trkpt lat="55.6323170" lon="38.6233180"><time>2020-11-01T09:21:29.567</time></trkpt><trkpt lat="55.6322030" lon="38.6234070"><time>2020-11-01T09:21:38.537</time></trkpt><trkpt lat="55.6321620" lon="38.6234850"><time>2020-11-01T09:21:40.550</time></trkpt><trkpt lat="55.6321350" lon="38.6235630"><time>2020-11-01T09:21:43.563</time></trkpt><trkpt lat="55.6320380" lon="38.6236530"><time>2020-11-01T09:21:52.567</time></trkpt><trkpt lat="55.6320080" lon="38.6237130"><time>2020-11-01T09:21:54.570</time></trkpt><trkpt lat="55.6319150" lon="38.6237750"><time>2020-11-01T09:22:04.570</time></trkpt><trkpt lat="55.6318150" lon="38.6238980"><time>2020-11-01T09:22:18.570</time></trkpt><trkpt lat="55.6317400" lon="38.6240780"><time>2020-11-01T09:22:32.567</time></trkpt><trkpt lat="55.6316430" lon="38.6241520"><time>2020-11-01T09:23:06.567</time></trkpt><trkpt lat="55.6315270" lon="38.6242100"><time>2020-11-01T09:23:20.567</time></trkpt><trkpt lat="55.6314280" lon="38.6243300"><time>2020-11-01T09:23:38.563</time></trkpt><trkpt lat="55.6313730" lon="38.6243850"><time>2020-11-01T09:23:41.570</time></trkpt><trkpt lat="55.6312870" lon="38.6244780"><time>2020-11-01T09:23:45.570</time></trkpt><trkpt lat="55.6312420" lon="38.6245080"><time>2020-11-01T09:23:47.567</time></trkpt><trkpt lat="55.6311880" lon="38.6245650"><time>2020-11-01T09:23:50.567</time></trkpt><trkpt lat="55.6311370" lon="38.6246250"><time>2020-11-01T09:23:52.567</time></trkpt><trkpt lat="55.6311000" lon="38.6246870"><time>2020-11-01T09:23:54.567</time></trkpt><trkpt lat="55.6310520" lon="38.6247570"><time>2020-11-01T09:23:56.567</time></trkpt><trkpt lat="55.6310080" lon="38.6248470"><time>2020-11-01T09:23:59.563</time></trkpt><trkpt lat="55.6309300" lon="38.6249580"><time>2020-11-01T09:24:05.560</time></trkpt><trkpt lat="55.6308900" lon="38.6250350"><time>2020-11-01T09:24:08.567</time></trkpt><trkpt lat="55.6308300" lon="38.6251600"><time>2020-11-01T09:24:13.567</time></trkpt><trkpt lat="55.6307950" lon="38.6252220"><time>2020-11-01T09:24:16.567</time></trkpt><trkpt lat="55.6307330" lon="38.6253300"><time>2020-11-01T09:24:20.567</time></trkpt><trkpt lat="55.6307030" lon="38.6253900"><time>2020-11-01T09:24:22.567</time></trkpt><trkpt lat="55.6306150" lon="38.6255650"><time>2020-11-01T09:24:31.563</time></trkpt><trkpt lat="55.6305850" lon="38.6256350"><time>2020-11-01T09:24:34.563</time></trkpt><trkpt lat="55.6305370" lon="38.6257100"><time>2020-11-01T09:24:37.567</time></trkpt><trkpt lat="55.6304730" lon="38.6258230"><time>2020-11-01T09:24:39.567</time></trkpt><trkpt lat="55.6304420" lon="38.6258850"><time>2020-11-01T09:24:41.570</time></trkpt><trkpt lat="55.6303170" lon="38.6259680"><time>2020-11-01T09:24:53.563</time></trkpt><trkpt lat="55.6302230" lon="38.6260920"><time>2020-11-01T09:25:07.567</time></trkpt><trkpt lat="55.6301980" lon="38.6261920"><time>2020-11-01T09:25:10.567</time></trkpt><trkpt lat="55.6301620" lon="38.6263400"><time>2020-11-01T09:25:16.567</time></trkpt><trkpt lat="55.6301620" lon="38.6265150"><time>2020-11-01T09:25:39.570</time></trkpt><trkpt lat="55.6301450" lon="38.6267120"><time>2020-11-01T09:25:55.570</time></trkpt><trkpt lat="55.6300830" lon="38.6268900"><time>2020-11-01T09:26:05.570</time></trkpt><trkpt lat="55.6300330" lon="38.6269170"><time>2020-11-01T09:26:07.567</time></trkpt><trkpt lat="55.6299680" lon="38.6269430"><time>2020-11-01T09:26:09.573</time></trkpt><trkpt lat="55.6299080" lon="38.6269530"><time>2020-11-01T09:26:11.567</time></trkpt><trkpt lat="55.6298630" lon="38.6269320"><time>2020-11-01T09:26:13.570</time></trkpt><trkpt lat="55.6298180" lon="38.6269770"><time>2020-11-01T09:26:20.567</time></trkpt><trkpt lat="55.6297220" lon="38.6270370"><time>2020-11-01T09:26:30.567</time></trkpt><trkpt lat="55.6295980" lon="38.6271750"><time>2020-11-01T09:26:40.520</time></trkpt><trkpt lat="55.6295380" lon="38.6271670"><time>2020-11-01T09:26:41.527</time></trkpt><trkpt lat="55.6294430" lon="38.6272200"><time>2020-11-01T09:26:42.537</time></trkpt><trkpt lat="55.6293130" lon="38.6272480"><time>2020-11-01T09:26:43.520</time></trkpt><trkpt lat="55.6292000" lon="38.6272850"><time>2020-11-01T09:26:44.523</time></trkpt><trkpt lat="55.6291320" lon="38.6273650"><time>2020-11-01T09:26:45.520</time></trkpt><trkpt lat="55.6290650" lon="38.6274780"><time>2020-11-01T09:26:47.520</time></trkpt><trkpt lat="55.6289970" lon="38.6275650"><time>2020-11-01T09:26:49.527</time></trkpt><trkpt lat="55.6289630" lon="38.6276250"><time>2020-11-01T09:26:51.530</time></trkpt><trkpt lat="55.6289180" lon="38.6277180"><time>2020-11-01T09:26:54.530</time></trkpt><trkpt lat="55.6289430" lon="38.6277420"><time>2020-11-01T09:27:01.547</time></trkpt><trkpt lat="55.6290730" lon="38.6277870"><time>2020-11-01T09:27:11.563</time></trkpt><trkpt lat="55.6291250" lon="38.6278320"><time>2020-11-01T09:27:13.567</time></trkpt><trkpt lat="55.6291380" lon="38.6279270"><time>2020-11-01T09:27:24.627</time></trkpt><trkpt lat="55.6291520" lon="38.6280180"><time>2020-11-01T09:27:26.563</time></trkpt><trkpt lat="55.6291030" lon="38.6279000"><time>2020-11-01T09:27:31.567</time></trkpt><trkpt lat="55.6289500" lon="38.6277870"><time>2020-11-01T09:27:39.567</time></trkpt><trkpt lat="55.6289480" lon="38.6276220"><time>2020-11-01T09:27:55.567</time></trkpt><trkpt lat="55.6289580" lon="38.6275220"><time>2020-11-01T09:28:15.573</time></trkpt><trkpt lat="55.6290720" lon="38.6275980"><time>2020-11-01T09:28:26.570</time></trkpt><trkpt lat="55.6291230" lon="38.6275820"><time>2020-11-01T09:28:29.567</time></trkpt><trkpt lat="55.6291730" lon="38.6275530"><time>2020-11-01T09:28:33.573</time></trkpt><trkpt lat="55.6292850" lon="38.6275430"><time>2020-11-01T09:28:46.570</time></trkpt><trkpt lat="55.6293930" lon="38.6274550"><time>2020-11-01T09:29:00.573</time></trkpt><trkpt lat="55.6295030" lon="38.6273500"><time>2020-11-01T09:29:10.573</time></trkpt><trkpt lat="55.6296300" lon="38.6272820"><time>2020-11-01T09:29:23.567</time></trkpt><trkpt lat="55.6297120" lon="38.6270920"><time>2020-11-01T09:29:36.573</time></trkpt><trkpt lat="55.6297600" lon="38.6270330"><time>2020-11-01T09:29:40.567</time></trkpt><trkpt lat="55.6297680" lon="38.6269430"><time>2020-11-01T09:29:47.563</time></trkpt><trkpt lat="55.6298080" lon="38.6268730"><time>2020-11-01T09:29:51.570</time></trkpt><trkpt lat="55.6298550" lon="38.6267920"><time>2020-11-01T09:29:55.570</time></trkpt><trkpt lat="55.6298880" lon="38.6267280"><time>2020-11-01T09:29:59.563</time></trkpt><trkpt lat="55.6299270" lon="38.6266700"><time>2020-11-01T09:30:03.570</time></trkpt><trkpt lat="55.6299750" lon="38.6266180"><time>2020-11-01T09:30:07.573</time></trkpt><trkpt lat="55.6300170" lon="38.6265720"><time>2020-11-01T09:30:11.567</time></trkpt><trkpt lat="55.6300520" lon="38.6265170"><time>2020-11-01T09:30:15.577</time></trkpt><trkpt lat="55.6300970" lon="38.6265020"><time>2020-11-01T09:30:18.567</time></trkpt><trkpt lat="55.6301450" lon="38.6264450"><time>2020-11-01T09:30:22.570</time></trkpt><trkpt lat="55.6302320" lon="38.6263920"><time>2020-11-01T09:30:30.560</time></trkpt><trkpt lat="55.6302780" lon="38.6263900"><time>2020-11-01T09:30:34.567</time></trkpt><trkpt lat="55.6303200" lon="38.6263570"><time>2020-11-01T09:30:38.570</time></trkpt><trkpt lat="55.6303550" lon="38.6262770"><time>2020-11-01T09:30:42.570</time></trkpt><trkpt lat="55.6303970" lon="38.6262020"><time>2020-11-01T09:30:46.570</time></trkpt><trkpt lat="55.6304330" lon="38.6261470"><time>2020-11-01T09:30:49.567</time></trkpt><trkpt lat="55.6304900" lon="38.6261480"><time>2020-11-01T09:30:53.560</time></trkpt><trkpt lat="55.6305370" lon="38.6261550"><time>2020-11-01T09:30:55.567</time></trkpt><trkpt lat="55.6306050" lon="38.6261780"><time>2020-11-01T09:30:58.567</time></trkpt><trkpt lat="55.6306700" lon="38.6262070"><time>2020-11-01T09:31:01.563</time></trkpt><trkpt lat="55.6307250" lon="38.6262550"><time>2020-11-01T09:31:04.567</time></trkpt><trkpt lat="55.6307800" lon="38.6263080"><time>2020-11-01T09:31:07.567</time></trkpt><trkpt lat="55.6308320" lon="38.6263550"><time>2020-11-01T09:31:10.567</time></trkpt><trkpt lat="55.6308850" lon="38.6264320"><time>2020-11-01T09:31:13.570</time></trkpt><trkpt lat="55.6309370" lon="38.6264950"><time>2020-11-01T09:31:16.563</time></trkpt><trkpt lat="55.6309830" lon="38.6265520"><time>2020-11-01T09:31:19.570</time></trkpt><trkpt lat="55.6310250" lon="38.6266080"><time>2020-11-01T09:31:21.570</time></trkpt><trkpt lat="55.6310550" lon="38.6266800"><time>2020-11-01T09:31:23.563</time></trkpt><trkpt lat="55.6310820" lon="38.6267580"><time>2020-11-01T09:31:25.570</time></trkpt><trkpt lat="55.6310950" lon="38.6268520"><time>2020-11-01T09:31:27.567</time></trkpt><trkpt lat="55.6311300" lon="38.6269130"><time>2020-11-01T09:31:30.570</time></trkpt><trkpt lat="55.6311700" lon="38.6269680"><time>2020-11-01T09:31:33.567</time></trkpt><trkpt lat="55.6311980" lon="38.6270680"><time>2020-11-01T09:31:36.567</time></trkpt><trkpt lat="55.6312150" lon="38.6271450"><time>2020-11-01T09:31:38.560</time></trkpt><trkpt lat="55.6312450" lon="38.6272330"><time>2020-11-01T09:31:41.567</time></trkpt><trkpt lat="55.6312830" lon="38.6273120"><time>2020-11-01T09:31:44.567</time></trkpt><trkpt lat="55.6313080" lon="38.6273880"><time>2020-11-01T09:31:46.563</time></trkpt><trkpt lat="55.6313320" lon="38.6274630"><time>2020-11-01T09:31:48.573</time></trkpt><trkpt lat="55.6313530" lon="38.6275350"><time>2020-11-01T09:31:50.567</time></trkpt><trkpt lat="55.6313700" lon="38.6276170"><time>2020-11-01T09:31:52.567</time></trkpt><trkpt lat="55.6313930" lon="38.6277170"><time>2020-11-01T09:31:55.567</time></trkpt><trkpt lat="55.6314230" lon="38.6277970"><time>2020-11-01T09:31:58.567</time></trkpt><trkpt lat="55.6314620" lon="38.6278470"><time>2020-11-01T09:32:01.563</time></trkpt><trkpt lat="55.6315050" lon="38.6279270"><time>2020-11-01T09:32:04.567</time></trkpt><trkpt lat="55.6315280" lon="38.6280180"><time>2020-11-01T09:32:07.567</time></trkpt><trkpt lat="55.6315400" lon="38.6281270"><time>2020-11-01T09:32:10.567</time></trkpt><trkpt lat="55.6315830" lon="38.6281870"><time>2020-11-01T09:32:12.563</time></trkpt><trkpt lat="55.6316400" lon="38.6282380"><time>2020-11-01T09:32:15.573</time></trkpt><trkpt lat="55.6316750" lon="38.6283050"><time>2020-11-01T09:32:18.567</time></trkpt><trkpt lat="55.6316820" lon="38.6284150"><time>2020-11-01T09:32:21.567</time></trkpt><trkpt lat="55.6316930" lon="38.6285170"><time>2020-11-01T09:32:24.563</time></trkpt><trkpt lat="55.6317130" lon="38.6286180"><time>2020-11-01T09:32:26.570</time></trkpt><trkpt lat="55.6317280" lon="38.6287070"><time>2020-11-01T09:32:29.567</time></trkpt><trkpt lat="55.6317280" lon="38.6288050"><time>2020-11-01T09:32:32.567</time></trkpt><trkpt lat="55.6317280" lon="38.6288950"><time>2020-11-01T09:32:35.567</time></trkpt><trkpt lat="55.6317500" lon="38.6289950"><time>2020-11-01T09:32:38.560</time></trkpt><trkpt lat="55.6317330" lon="38.6290820"><time>2020-11-01T09:32:40.563</time></trkpt><trkpt lat="55.6317470" lon="38.6291700"><time>2020-11-01T09:32:42.560</time></trkpt><trkpt lat="55.6317600" lon="38.6292520"><time>2020-11-01T09:32:45.567</time></trkpt><trkpt lat="55.6317820" lon="38.6293250"><time>2020-11-01T09:32:48.567</time></trkpt><trkpt lat="55.6318270" lon="38.6293770"><time>2020-11-01T09:32:51.570</time></trkpt><trkpt lat="55.6318680" lon="38.6294250"><time>2020-11-01T09:32:53.567</time></trkpt><trkpt lat="55.6319080" lon="38.6294670"><time>2020-11-01T09:32:55.567</time></trkpt><trkpt lat="55.6319500" lon="38.6295450"><time>2020-11-01T09:32:58.567</time></trkpt><trkpt lat="55.6319730" lon="38.6296230"><time>2020-11-01T09:33:00.563</time></trkpt><trkpt lat="55.6319930" lon="38.6297080"><time>2020-11-01T09:33:02.570</time></trkpt><trkpt lat="55.6320170" lon="38.6297880"><time>2020-11-01T09:33:04.567</time></trkpt><trkpt lat="55.6320300" lon="38.6298730"><time>2020-11-01T09:33:06.570</time></trkpt><trkpt lat="55.6320450" lon="38.6299500"><time>2020-11-01T09:33:08.570</time></trkpt><trkpt lat="55.6320900" lon="38.6300230"><time>2020-11-01T09:33:11.570</time></trkpt><trkpt lat="55.6321250" lon="38.6301300"><time>2020-11-01T09:33:14.563</time></trkpt><trkpt lat="55.6321330" lon="38.6302220"><time>2020-11-01T09:33:16.563</time></trkpt><trkpt lat="55.6321450" lon="38.6303020"><time>2020-11-01T09:33:18.570</time></trkpt><trkpt lat="55.6321800" lon="38.6304030"><time>2020-11-01T09:33:21.573</time></trkpt><trkpt lat="55.6322070" lon="38.6304880"><time>2020-11-01T09:33:23.567</time></trkpt><trkpt lat="55.6322330" lon="38.6305770"><time>2020-11-01T09:33:25.567</time></trkpt><trkpt lat="55.6322520" lon="38.6306670"><time>2020-11-01T09:33:27.570</time></trkpt><trkpt lat="55.6322630" lon="38.6307620"><time>2020-11-01T09:33:29.560</time></trkpt><trkpt lat="55.6322780" lon="38.6308470"><time>2020-11-01T09:33:31.563</time></trkpt><trkpt lat="55.6322870" lon="38.6309470"><time>2020-11-01T09:33:33.570</time></trkpt><trkpt lat="55.6323000" lon="38.6310330"><time>2020-11-01T09:33:35.563</time></trkpt><trkpt lat="55.6323130" lon="38.6311330"><time>2020-11-01T09:33:37.570</time></trkpt><trkpt lat="55.6323180" lon="38.6312330"><time>2020-11-01T09:33:39.573</time></trkpt><trkpt lat="55.6323250" lon="38.6313350"><time>2020-11-01T09:33:41.560</time></trkpt><trkpt lat="55.6323300" lon="38.6314380"><time>2020-11-01T09:33:43.573</time></trkpt><trkpt lat="55.6323530" lon="38.6315070"><time>2020-11-01T09:33:45.567</time></trkpt><trkpt lat="55.6323680" lon="38.6315870"><time>2020-11-01T09:33:47.567</time></trkpt><trkpt lat="55.6323780" lon="38.6316680"><time>2020-11-01T09:33:49.573</time></trkpt><trkpt lat="55.6324150" lon="38.6317320"><time>2020-11-01T09:33:52.570</time></trkpt><trkpt lat="55.6324400" lon="38.6318430"><time>2020-11-01T09:33:55.563</time></trkpt><trkpt lat="55.6324730" lon="38.6319420"><time>2020-11-01T09:33:58.570</time></trkpt><trkpt lat="55.6324650" lon="38.6320600"><time>2020-11-01T09:34:00.567</time></trkpt><trkpt lat="55.6324670" lon="38.6321630"><time>2020-11-01T09:34:02.567</time></trkpt><trkpt lat="55.6324630" lon="38.6322650"><time>2020-11-01T09:34:04.573</time></trkpt><trkpt lat="55.6324670" lon="38.6323450"><time>2020-11-01T09:34:06.570</time></trkpt><trkpt lat="55.6324720" lon="38.6324320"><time>2020-11-01T09:34:08.567</time></trkpt><trkpt lat="55.6324530" lon="38.6325530"><time>2020-11-01T09:34:11.567</time></trkpt><trkpt lat="55.6324350" lon="38.6326550"><time>2020-11-01T09:34:13.567</time></trkpt><trkpt lat="55.6324350" lon="38.6327400"><time>2020-11-01T09:34:15.567</time></trkpt><trkpt lat="55.6324500" lon="38.6328400"><time>2020-11-01T09:34:18.570</time></trkpt><trkpt lat="55.6324850" lon="38.6329230"><time>2020-11-01T09:34:21.573</time></trkpt><trkpt lat="55.6324650" lon="38.6330080"><time>2020-11-01T09:34:25.573</time></trkpt><trkpt lat="55.6324500" lon="38.6331700"><time>2020-11-01T09:34:32.567</time></trkpt><trkpt lat="55.6324370" lon="38.6332580"><time>2020-11-01T09:34:35.570</time></trkpt><trkpt lat="55.6324320" lon="38.6333520"><time>2020-11-01T09:34:38.570</time></trkpt><trkpt lat="55.6324320" lon="38.6334380"><time>2020-11-01T09:34:41.570</time></trkpt><trkpt lat="55.6324320" lon="38.6335400"><time>2020-11-01T09:34:44.567</time></trkpt><trkpt lat="55.6324180" lon="38.6337630"><time>2020-11-01T09:34:58.570</time></trkpt><trkpt lat="55.6324070" lon="38.6339300"><time>2020-11-01T09:35:05.567</time></trkpt><trkpt lat="55.6324050" lon="38.6340470"><time>2020-11-01T09:35:08.563</time></trkpt><trkpt lat="55.6324220" lon="38.6341500"><time>2020-11-01T09:35:11.570</time></trkpt><trkpt lat="55.6324380" lon="38.6342270"><time>2020-11-01T09:35:13.570</time></trkpt><trkpt lat="55.6324670" lon="38.6343370"><time>2020-11-01T09:35:15.577</time></trkpt><trkpt lat="55.6324880" lon="38.6344250"><time>2020-11-01T09:35:17.563</time></trkpt><trkpt lat="55.6325120" lon="38.6345020"><time>2020-11-01T09:35:19.570</time></trkpt><trkpt lat="55.6325300" lon="38.6346120"><time>2020-11-01T09:35:21.570</time></trkpt><trkpt lat="55.6325470" lon="38.6347230"><time>2020-11-01T09:35:23.567</time></trkpt><trkpt lat="55.6325680" lon="38.6348020"><time>2020-11-01T09:35:25.573</time></trkpt><trkpt lat="55.6325800" lon="38.6349030"><time>2020-11-01T09:35:27.573</time></trkpt><trkpt lat="55.6325780" lon="38.6349980"><time>2020-11-01T09:35:29.570</time></trkpt><trkpt lat="55.6325830" lon="38.6351130"><time>2020-11-01T09:35:32.563</time></trkpt><trkpt lat="55.6325730" lon="38.6352050"><time>2020-11-01T09:35:34.567</time></trkpt><trkpt lat="55.6325830" lon="38.6352920"><time>2020-11-01T09:35:37.570</time></trkpt><trkpt lat="55.6325970" lon="38.6353720"><time>2020-11-01T09:35:40.570</time></trkpt><trkpt lat="55.6326000" lon="38.6354550"><time>2020-11-01T09:35:43.567</time></trkpt><trkpt lat="55.6326100" lon="38.6355350"><time>2020-11-01T09:35:46.570</time></trkpt><trkpt lat="55.6326350" lon="38.6356420"><time>2020-11-01T09:35:49.567</time></trkpt><trkpt lat="55.6326550" lon="38.6357450"><time>2020-11-01T09:35:52.567</time></trkpt><trkpt lat="55.6326580" lon="38.6358420"><time>2020-11-01T09:35:55.570</time></trkpt><trkpt lat="55.6326750" lon="38.6359300"><time>2020-11-01T09:35:58.570</time></trkpt><trkpt lat="55.6326880" lon="38.6360070"><time>2020-11-01T09:36:00.567</time></trkpt><trkpt lat="55.6327070" lon="38.6361080"><time>2020-11-01T09:36:03.567</time></trkpt><trkpt lat="55.6327280" lon="38.6362150"><time>2020-11-01T09:36:06.570</time></trkpt><trkpt lat="55.6327500" lon="38.6363220"><time>2020-11-01T09:36:09.570</time></trkpt><trkpt lat="55.6327830" lon="38.6364230"><time>2020-11-01T09:36:12.563</time></trkpt><trkpt lat="55.6327930" lon="38.6365130"><time>2020-11-01T09:36:15.570</time></trkpt><trkpt lat="55.6328150" lon="38.6365920"><time>2020-11-01T09:36:17.563</time></trkpt><trkpt lat="55.6328380" lon="38.6366830"><time>2020-11-01T09:36:19.570</time></trkpt><trkpt lat="55.6328700" lon="38.6367620"><time>2020-11-01T09:36:21.570</time></trkpt><trkpt lat="55.6329020" lon="38.6368670"><time>2020-11-01T09:36:24.567</time></trkpt><trkpt lat="55.6329180" lon="38.6369480"><time>2020-11-01T09:36:26.570</time></trkpt><trkpt lat="55.6329420" lon="38.6370280"><time>2020-11-01T09:36:28.567</time></trkpt><trkpt lat="55.6329630" lon="38.6371080"><time>2020-11-01T09:36:30.570</time></trkpt><trkpt lat="55.6329830" lon="38.6372220"><time>2020-11-01T09:36:33.570</time></trkpt><trkpt lat="55.6330030" lon="38.6373030"><time>2020-11-01T09:36:35.570</time></trkpt><trkpt lat="55.6330120" lon="38.6373850"><time>2020-11-01T09:36:37.573</time></trkpt><trkpt lat="55.6330030" lon="38.6374680"><time>2020-11-01T09:36:40.570</time></trkpt><trkpt lat="55.6330230" lon="38.6375650"><time>2020-11-01T09:36:44.570</time></trkpt><trkpt lat="55.6330370" lon="38.6376720"><time>2020-11-01T09:36:47.563</time></trkpt><trkpt lat="55.6330700" lon="38.6377670"><time>2020-11-01T09:36:50.567</time></trkpt><trkpt lat="55.6330920" lon="38.6378420"><time>2020-11-01T09:36:52.567</time></trkpt><trkpt lat="55.6331200" lon="38.6379200"><time>2020-11-01T09:36:54.570</time></trkpt><trkpt lat="55.6331450" lon="38.6380000"><time>2020-11-01T09:36:56.573</time></trkpt><trkpt lat="55.6331800" lon="38.6380800"><time>2020-11-01T09:36:58.570</time></trkpt><trkpt lat="55.6332220" lon="38.6381680"><time>2020-11-01T09:37:01.577</time></trkpt><trkpt lat="55.6332550" lon="38.6382300"><time>2020-11-01T09:37:03.570</time></trkpt><trkpt lat="55.6332880" lon="38.6383080"><time>2020-11-01T09:37:05.573</time></trkpt><trkpt lat="55.6333150" lon="38.6383880"><time>2020-11-01T09:37:07.573</time></trkpt><trkpt lat="55.6333430" lon="38.6384680"><time>2020-11-01T09:37:09.570</time></trkpt><trkpt lat="55.6333670" lon="38.6385400"><time>2020-11-01T09:37:11.570</time></trkpt><trkpt lat="55.6333880" lon="38.6386200"><time>2020-11-01T09:37:13.577</time></trkpt><trkpt lat="55.6334050" lon="38.6386970"><time>2020-11-01T09:37:15.570</time></trkpt><trkpt lat="55.6334320" lon="38.6387730"><time>2020-11-01T09:37:17.570</time></trkpt><trkpt lat="55.6334570" lon="38.6388530"><time>2020-11-01T09:37:19.573</time></trkpt><trkpt lat="55.6334850" lon="38.6389200"><time>2020-11-01T09:37:21.570</time></trkpt><trkpt lat="55.6335220" lon="38.6389870"><time>2020-11-01T09:37:23.567</time></trkpt><trkpt lat="55.6335570" lon="38.6390570"><time>2020-11-01T09:37:25.573</time></trkpt><trkpt lat="55.6335980" lon="38.6391320"><time>2020-11-01T09:37:28.570</time></trkpt><trkpt lat="55.6336100" lon="38.6392250"><time>2020-11-01T09:37:32.567</time></trkpt><trkpt lat="55.6336300" lon="38.6392980"><time>2020-11-01T09:37:34.567</time></trkpt><trkpt lat="55.6336550" lon="38.6393970"><time>2020-11-01T09:37:37.570</time></trkpt><trkpt lat="55.6336780" lon="38.6394700"><time>2020-11-01T09:37:39.570</time></trkpt><trkpt lat="55.6337100" lon="38.6395620"><time>2020-11-01T09:37:42.570</time></trkpt><trkpt lat="55.6337350" lon="38.6396350"><time>2020-11-01T09:37:44.570</time></trkpt><trkpt lat="55.6337700" lon="38.6396930"><time>2020-11-01T09:37:47.567</time></trkpt><trkpt lat="55.6338080" lon="38.6397720"><time>2020-11-01T09:37:50.563</time></trkpt><trkpt lat="55.6338430" lon="38.6398220"><time>2020-11-01T09:37:52.567</time></trkpt><trkpt lat="55.6338920" lon="38.6398900"><time>2020-11-01T09:37:55.570</time></trkpt><trkpt lat="55.6339270" lon="38.6399420"><time>2020-11-01T09:37:57.570</time></trkpt><trkpt lat="55.6339670" lon="38.6400300"><time>2020-11-01T09:38:00.567</time></trkpt><trkpt lat="55.6340070" lon="38.6401170"><time>2020-11-01T09:38:03.567</time></trkpt><trkpt lat="55.6340370" lon="38.6401870"><time>2020-11-01T09:38:05.567</time></trkpt><trkpt lat="55.6340930" lon="38.6402450"><time>2020-11-01T09:38:08.567</time></trkpt><trkpt lat="55.6341370" lon="38.6402720"><time>2020-11-01T09:38:10.563</time></trkpt><trkpt lat="55.6341750" lon="38.6403270"><time>2020-11-01T09:38:13.567</time></trkpt><trkpt lat="55.6342250" lon="38.6403950"><time>2020-11-01T09:38:16.570</time></trkpt><trkpt lat="55.6342700" lon="38.6404550"><time>2020-11-01T09:38:19.567</time></trkpt><trkpt lat="55.6343120" lon="38.6405380"><time>2020-11-01T09:38:22.567</time></trkpt><trkpt lat="55.6343470" lon="38.6405970"><time>2020-11-01T09:38:24.567</time></trkpt><trkpt lat="55.6343780" lon="38.6406550"><time>2020-11-01T09:38:26.570</time></trkpt><trkpt lat="55.6344050" lon="38.6407200"><time>2020-11-01T09:38:28.570</time></trkpt><trkpt lat="55.6344480" lon="38.6407880"><time>2020-11-01T09:38:32.570</time></trkpt><trkpt lat="55.6344930" lon="38.6408630"><time>2020-11-01T09:38:35.567</time></trkpt><trkpt lat="55.6345250" lon="38.6409480"><time>2020-11-01T09:38:37.563</time></trkpt><trkpt lat="55.6345530" lon="38.6410500"><time>2020-11-01T09:38:40.570</time></trkpt><trkpt lat="55.6345580" lon="38.6411680"><time>2020-11-01T09:38:42.570</time></trkpt><trkpt lat="55.6345620" lon="38.6412930"><time>2020-11-01T09:38:44.567</time></trkpt><trkpt lat="55.6345450" lon="38.6414020"><time>2020-11-01T09:38:47.567</time></trkpt><trkpt lat="55.6345300" lon="38.6414820"><time>2020-11-01T09:38:49.570</time></trkpt><trkpt lat="55.6345080" lon="38.6415780"><time>2020-11-01T09:38:51.570</time></trkpt><trkpt lat="55.6344880" lon="38.6416630"><time>2020-11-01T09:38:53.570</time></trkpt><trkpt lat="55.6344530" lon="38.6417600"><time>2020-11-01T09:38:55.577</time></trkpt><trkpt lat="55.6344120" lon="38.6418450"><time>2020-11-01T09:38:57.567</time></trkpt><trkpt lat="55.6343670" lon="38.6418680"><time>2020-11-01T09:38:59.570</time></trkpt><trkpt lat="55.6343200" lon="38.6418780"><time>2020-11-01T09:39:01.567</time></trkpt><trkpt lat="55.6342830" lon="38.6419550"><time>2020-11-01T09:39:05.567</time></trkpt><trkpt lat="55.6342750" lon="38.6420420"><time>2020-11-01T09:39:08.567</time></trkpt><trkpt lat="55.6341630" lon="38.6420850"><time>2020-11-01T09:39:36.570</time></trkpt><trkpt lat="55.6341250" lon="38.6421270"><time>2020-11-01T09:39:41.567</time></trkpt><trkpt lat="55.6340870" lon="38.6421880"><time>2020-11-01T09:39:45.577</time></trkpt><trkpt lat="55.6340430" lon="38.6422420"><time>2020-11-01T09:39:49.573</time></trkpt><trkpt lat="55.6340070" lon="38.6422950"><time>2020-11-01T09:39:54.567</time></trkpt><trkpt lat="55.6339620" lon="38.6423430"><time>2020-11-01T09:39:59.570</time></trkpt><trkpt lat="55.6338820" lon="38.6423780"><time>2020-11-01T09:40:05.570</time></trkpt><trkpt lat="55.6338130" lon="38.6425220"><time>2020-11-01T09:40:15.577</time></trkpt><trkpt lat="55.6337600" lon="38.6425630"><time>2020-11-01T09:40:18.570</time></trkpt><trkpt lat="55.6337230" lon="38.6426170"><time>2020-11-01T09:40:22.567</time></trkpt><trkpt lat="55.6336800" lon="38.6426570"><time>2020-11-01T09:40:25.573</time></trkpt><trkpt lat="55.6335770" lon="38.6427400"><time>2020-11-01T09:40:36.570</time></trkpt><trkpt lat="55.6334680" lon="38.6428270"><time>2020-11-01T09:40:49.570</time></trkpt><trkpt lat="55.6333830" lon="38.6429670"><time>2020-11-01T09:41:01.573</time></trkpt><trkpt lat="55.6333320" lon="38.6430430"><time>2020-11-01T09:41:04.567</time></trkpt><trkpt lat="55.6333000" lon="38.6431370"><time>2020-11-01T09:41:07.570</time></trkpt><trkpt lat="55.6332630" lon="38.6432230"><time>2020-11-01T09:41:09.570</time></trkpt><trkpt lat="55.6332200" lon="38.6433000"><time>2020-11-01T09:41:12.570</time></trkpt><trkpt lat="55.6331730" lon="38.6433820"><time>2020-11-01T09:41:15.573</time></trkpt><trkpt lat="55.6331420" lon="38.6434450"><time>2020-11-01T09:41:17.567</time></trkpt><trkpt lat="55.6330980" lon="38.6435080"><time>2020-11-01T09:41:20.570</time></trkpt><trkpt lat="55.6330620" lon="38.6435600"><time>2020-11-01T09:41:23.567</time></trkpt><trkpt lat="55.6329780" lon="38.6437080"><time>2020-11-01T09:41:37.573</time></trkpt><trkpt lat="55.6329130" lon="38.6437720"><time>2020-11-01T09:41:45.570</time></trkpt><trkpt lat="55.6328070" lon="38.6438900"><time>2020-11-01T09:41:59.563</time></trkpt><trkpt lat="55.6327600" lon="38.6439420"><time>2020-11-01T09:42:02.563</time></trkpt><trkpt lat="55.6327250" lon="38.6439970"><time>2020-11-01T09:42:05.570</time></trkpt><trkpt lat="55.6326250" lon="38.6440380"><time>2020-11-01T09:42:11.563</time></trkpt><trkpt lat="55.6325800" lon="38.6440550"><time>2020-11-01T09:42:13.567</time></trkpt><trkpt lat="55.6325300" lon="38.6440830"><time>2020-11-01T09:42:15.573</time></trkpt><trkpt lat="55.6324780" lon="38.6441170"><time>2020-11-01T09:42:18.563</time></trkpt><trkpt lat="55.6324470" lon="38.6441770"><time>2020-11-01T09:42:21.570</time></trkpt><trkpt lat="55.6323920" lon="38.6442170"><time>2020-11-01T09:42:25.570</time></trkpt><trkpt lat="55.6323500" lon="38.6442600"><time>2020-11-01T09:42:29.650</time></trkpt><trkpt lat="55.6323020" lon="38.6443630"><time>2020-11-01T09:42:35.570</time></trkpt><trkpt lat="55.6322450" lon="38.6443920"><time>2020-11-01T09:42:38.570</time></trkpt><trkpt lat="55.6321920" lon="38.6444520"><time>2020-11-01T09:42:42.570</time></trkpt><trkpt lat="55.6321720" lon="38.6445380"><time>2020-11-01T09:42:45.570</time></trkpt><trkpt lat="55.6321350" lon="38.6445920"><time>2020-11-01T09:42:48.563</time></trkpt><trkpt lat="55.6320970" lon="38.6446770"><time>2020-11-01T09:42:51.570</time></trkpt><trkpt lat="55.6320580" lon="38.6447400"><time>2020-11-01T09:42:54.563</time></trkpt><trkpt lat="55.6320150" lon="38.6448000"><time>2020-11-01T09:42:56.567</time></trkpt><trkpt lat="55.6319650" lon="38.6448570"><time>2020-11-01T09:42:58.570</time></trkpt><trkpt lat="55.6319250" lon="38.6448980"><time>2020-11-01T09:43:00.567</time></trkpt><trkpt lat="55.6318820" lon="38.6449870"><time>2020-11-01T09:43:04.563</time></trkpt><trkpt lat="55.6318420" lon="38.6450530"><time>2020-11-01T09:43:07.570</time></trkpt><trkpt lat="55.6317930" lon="38.6451050"><time>2020-11-01T09:43:11.570</time></trkpt><trkpt lat="55.6317270" lon="38.6452050"><time>2020-11-01T09:43:17.563</time></trkpt><trkpt lat="55.6316620" lon="38.6452570"><time>2020-11-01T09:43:20.567</time></trkpt><trkpt lat="55.6316270" lon="38.6453100"><time>2020-11-01T09:43:22.570</time></trkpt><trkpt lat="55.6315880" lon="38.6453770"><time>2020-11-01T09:43:26.573</time></trkpt><trkpt lat="55.6315300" lon="38.6455070"><time>2020-11-01T09:43:35.567</time></trkpt><trkpt lat="55.6314850" lon="38.6455700"><time>2020-11-01T09:43:38.570</time></trkpt><trkpt lat="55.6314430" lon="38.6456100"><time>2020-11-01T09:43:41.567</time></trkpt><trkpt lat="55.6313980" lon="38.6456470"><time>2020-11-01T09:43:44.570</time></trkpt><trkpt lat="55.6312880" lon="38.6457720"><time>2020-11-01T09:43:54.570</time></trkpt><trkpt lat="55.6312300" lon="38.6458150"><time>2020-11-01T09:43:57.570</time></trkpt><trkpt lat="55.6311850" lon="38.6458730"><time>2020-11-01T09:44:00.570</time></trkpt><trkpt lat="55.6311430" lon="38.6459150"><time>2020-11-01T09:44:03.573</time></trkpt><trkpt lat="55.6310600" lon="38.6460530"><time>2020-11-01T09:44:16.570</time></trkpt><trkpt lat="55.6309870" lon="38.6461200"><time>2020-11-01T09:44:22.570</time></trkpt><trkpt lat="55.6309680" lon="38.6462280"><time>2020-11-01T09:44:27.530</time></trkpt><trkpt lat="55.6309380" lon="38.6463280"><time>2020-11-01T09:44:29.567</time></trkpt><trkpt lat="55.6309300" lon="38.6464270"><time>2020-11-01T09:44:30.573</time></trkpt><trkpt lat="55.6308970" lon="38.6464850"><time>2020-11-01T09:44:32.567</time></trkpt><trkpt lat="55.6308700" lon="38.6465730"><time>2020-11-01T09:44:34.567</time></trkpt><trkpt lat="55.6308120" lon="38.6467200"><time>2020-11-01T09:44:36.573</time></trkpt><trkpt lat="55.6307770" lon="38.6467720"><time>2020-11-01T09:44:37.563</time></trkpt><trkpt lat="55.6307430" lon="38.6468270"><time>2020-11-01T09:44:38.570</time></trkpt><trkpt lat="55.6307130" lon="38.6469120"><time>2020-11-01T09:44:39.567</time></trkpt><trkpt lat="55.6306730" lon="38.6470050"><time>2020-11-01T09:44:41.573</time></trkpt><trkpt lat="55.6306280" lon="38.6472000"><time>2020-11-01T09:44:43.563</time></trkpt><trkpt lat="55.6305830" lon="38.6473200"><time>2020-11-01T09:44:45.573</time></trkpt><trkpt lat="55.6305680" lon="38.6473970"><time>2020-11-01T09:44:46.570</time></trkpt><trkpt lat="55.6305300" lon="38.6474670"><time>2020-11-01T09:44:48.573</time></trkpt><trkpt lat="55.6304970" lon="38.6475370"><time>2020-11-01T09:44:50.570</time></trkpt><trkpt lat="55.6304650" lon="38.6476300"><time>2020-11-01T09:44:52.577</time></trkpt><trkpt lat="55.6304250" lon="38.6476930"><time>2020-11-01T09:44:54.573</time></trkpt><trkpt lat="55.6303530" lon="38.6477150"><time>2020-11-01T09:44:56.573</time></trkpt><trkpt lat="55.6302950" lon="38.6477530"><time>2020-11-01T09:44:58.570</time></trkpt><trkpt lat="55.6302320" lon="38.6477820"><time>2020-11-01T09:45:00.573</time></trkpt><trkpt lat="55.6301820" lon="38.6478070"><time>2020-11-01T09:45:01.570</time></trkpt><trkpt lat="55.6301000" lon="38.6478580"><time>2020-11-01T09:45:03.580</time></trkpt><trkpt lat="55.6300320" lon="38.6478720"><time>2020-11-01T09:45:04.570</time></trkpt><trkpt lat="55.6299570" lon="38.6479320"><time>2020-11-01T09:45:06.577</time></trkpt><trkpt lat="55.6298970" lon="38.6479950"><time>2020-11-01T09:45:08.573</time></trkpt><trkpt lat="55.6298550" lon="38.6480700"><time>2020-11-01T09:45:10.573</time></trkpt><trkpt lat="55.6298120" lon="38.6481170"><time>2020-11-01T09:45:12.577</time></trkpt><trkpt lat="55.6297630" lon="38.6481680"><time>2020-11-01T09:45:14.573</time></trkpt><trkpt lat="55.6297050" lon="38.6482300"><time>2020-11-01T09:45:16.570</time></trkpt><trkpt lat="55.6296330" lon="38.6482780"><time>2020-11-01T09:45:18.573</time></trkpt><trkpt lat="55.6295680" lon="38.6483350"><time>2020-11-01T09:45:20.570</time></trkpt><trkpt lat="55.6295280" lon="38.6483970"><time>2020-11-01T09:45:22.577</time></trkpt><trkpt lat="55.6294920" lon="38.6484680"><time>2020-11-01T09:45:25.570</time></trkpt><trkpt lat="55.6294400" lon="38.6485330"><time>2020-11-01T09:45:28.567</time></trkpt><trkpt lat="55.6293830" lon="38.6485920"><time>2020-11-01T09:45:31.570</time></trkpt><trkpt lat="55.6293380" lon="38.6486220"><time>2020-11-01T09:45:34.570</time></trkpt><trkpt lat="55.6292880" lon="38.6486800"><time>2020-11-01T09:45:37.573</time></trkpt><trkpt lat="55.6292350" lon="38.6487150"><time>2020-11-01T09:45:39.570</time></trkpt><trkpt lat="55.6291820" lon="38.6487780"><time>2020-11-01T09:45:41.570</time></trkpt><trkpt lat="55.6291180" lon="38.6488320"><time>2020-11-01T09:45:43.567</time></trkpt><trkpt lat="55.6290600" lon="38.6488970"><time>2020-11-01T09:45:45.567</time></trkpt><trkpt lat="55.6290130" lon="38.6489230"><time>2020-11-01T09:45:47.563</time></trkpt><trkpt lat="55.6289700" lon="38.6489870"><time>2020-11-01T09:45:50.570</time></trkpt><trkpt lat="55.6289350" lon="38.6490400"><time>2020-11-01T09:45:53.567</time></trkpt><trkpt lat="55.6288970" lon="38.6490950"><time>2020-11-01T09:45:55.577</time></trkpt><trkpt lat="55.6288280" lon="38.6491080"><time>2020-11-01T09:45:58.570</time></trkpt><trkpt lat="55.6287880" lon="38.6491500"><time>2020-11-01T09:46:03.573</time></trkpt><trkpt lat="55.6287130" lon="38.6492070"><time>2020-11-01T09:46:10.567</time></trkpt><trkpt lat="55.6286730" lon="38.6492830"><time>2020-11-01T09:46:13.577</time></trkpt><trkpt lat="55.6286180" lon="38.6493380"><time>2020-11-01T09:46:16.570</time></trkpt><trkpt lat="55.6285650" lon="38.6493970"><time>2020-11-01T09:46:19.570</time></trkpt><trkpt lat="55.6285230" lon="38.6494350"><time>2020-11-01T09:46:21.573</time></trkpt><trkpt lat="55.6284720" lon="38.6494870"><time>2020-11-01T09:46:24.563</time></trkpt><trkpt lat="55.6284350" lon="38.6495750"><time>2020-11-01T09:46:27.567</time></trkpt><trkpt lat="55.6283830" lon="38.6496220"><time>2020-11-01T09:46:30.567</time></trkpt><trkpt lat="55.6283220" lon="38.6497000"><time>2020-11-01T09:46:34.570</time></trkpt><trkpt lat="55.6282730" lon="38.6497380"><time>2020-11-01T09:46:38.567</time></trkpt><trkpt lat="55.6282180" lon="38.6497750"><time>2020-11-01T09:46:41.563</time></trkpt><trkpt lat="55.6281600" lon="38.6498180"><time>2020-11-01T09:46:44.567</time></trkpt><trkpt lat="55.6281050" lon="38.6498820"><time>2020-11-01T09:46:47.573</time></trkpt><trkpt lat="55.6280530" lon="38.6499620"><time>2020-11-01T09:46:50.570</time></trkpt><trkpt lat="55.6279980" lon="38.6500170"><time>2020-11-01T09:46:53.570</time></trkpt><trkpt lat="55.6279450" lon="38.6500850"><time>2020-11-01T09:46:56.570</time></trkpt><trkpt lat="55.6279080" lon="38.6501470"><time>2020-11-01T09:46:58.570</time></trkpt><trkpt lat="55.6278700" lon="38.6502030"><time>2020-11-01T09:47:00.573</time></trkpt><trkpt lat="55.6278250" lon="38.6502920"><time>2020-11-01T09:47:02.570</time></trkpt><trkpt lat="55.6277730" lon="38.6503570"><time>2020-11-01T09:47:05.570</time></trkpt><trkpt lat="55.6277320" lon="38.6504100"><time>2020-11-01T09:47:07.577</time></trkpt><trkpt lat="55.6276950" lon="38.6504630"><time>2020-11-01T09:47:09.693</time></trkpt><trkpt lat="55.6276620" lon="38.6505180"><time>2020-11-01T09:47:11.570</time></trkpt><trkpt lat="55.6276230" lon="38.6506070"><time>2020-11-01T09:47:14.563</time></trkpt><trkpt lat="55.6275770" lon="38.6506870"><time>2020-11-01T09:47:17.573</time></trkpt><trkpt lat="55.6275420" lon="38.6507520"><time>2020-11-01T09:47:19.563</time></trkpt><trkpt lat="55.6275130" lon="38.6508150"><time>2020-11-01T09:47:21.570</time></trkpt><trkpt lat="55.6274650" lon="38.6508670"><time>2020-11-01T09:47:24.573</time></trkpt><trkpt lat="55.6274320" lon="38.6509750"><time>2020-11-01T09:47:27.570</time></trkpt><trkpt lat="55.6273970" lon="38.6510680"><time>2020-11-01T09:47:30.567</time></trkpt><trkpt lat="55.6272970" lon="38.6511880"><time>2020-11-01T09:47:38.570</time></trkpt><trkpt lat="55.6272370" lon="38.6512600"><time>2020-11-01T09:47:41.563</time></trkpt><trkpt lat="55.6271850" lon="38.6513330"><time>2020-11-01T09:47:44.570</time></trkpt><trkpt lat="55.6270630" lon="38.6514320"><time>2020-11-01T09:47:59.567</time></trkpt><trkpt lat="55.6269830" lon="38.6514730"><time>2020-11-01T09:48:05.567</time></trkpt><trkpt lat="55.6269170" lon="38.6514830"><time>2020-11-01T09:48:08.567</time></trkpt><trkpt lat="55.6268580" lon="38.6515280"><time>2020-11-01T09:48:11.567</time></trkpt><trkpt lat="55.6268080" lon="38.6515930"><time>2020-11-01T09:48:15.573</time></trkpt><trkpt lat="55.6267500" lon="38.6515950"><time>2020-11-01T09:48:17.570</time></trkpt><trkpt lat="55.6266930" lon="38.6516250"><time>2020-11-01T09:48:19.567</time></trkpt><trkpt lat="55.6266270" lon="38.6516530"><time>2020-11-01T09:48:21.573</time></trkpt><trkpt lat="55.6265630" lon="38.6516870"><time>2020-11-01T09:48:23.567</time></trkpt><trkpt lat="55.6265150" lon="38.6517400"><time>2020-11-01T09:48:25.570</time></trkpt><trkpt lat="55.6264780" lon="38.6517870"><time>2020-11-01T09:48:27.570</time></trkpt><trkpt lat="55.6264380" lon="38.6518400"><time>2020-11-01T09:48:29.570</time></trkpt><trkpt lat="55.6263980" lon="38.6519020"><time>2020-11-01T09:48:31.570</time></trkpt><trkpt lat="55.6263570" lon="38.6519420"><time>2020-11-01T09:48:33.573</time></trkpt><trkpt lat="55.6263070" lon="38.6520120"><time>2020-11-01T09:48:36.567</time></trkpt><trkpt lat="55.6262600" lon="38.6520700"><time>2020-11-01T09:48:38.570</time></trkpt><trkpt lat="55.6262050" lon="38.6521250"><time>2020-11-01T09:48:41.567</time></trkpt><trkpt lat="55.6261470" lon="38.6521980"><time>2020-11-01T09:48:44.570</time></trkpt><trkpt lat="55.6260970" lon="38.6522670"><time>2020-11-01T09:48:47.567</time></trkpt><trkpt lat="55.6260600" lon="38.6523280"><time>2020-11-01T09:48:49.570</time></trkpt><trkpt lat="55.6260130" lon="38.6524320"><time>2020-11-01T09:48:51.573</time></trkpt><trkpt lat="55.6259730" lon="38.6525350"><time>2020-11-01T09:48:53.570</time></trkpt><trkpt lat="55.6259370" lon="38.6526020"><time>2020-11-01T09:48:55.567</time></trkpt><trkpt lat="55.6258950" lon="38.6526630"><time>2020-11-01T09:48:57.563</time></trkpt><trkpt lat="55.6258450" lon="38.6527300"><time>2020-11-01T09:49:00.570</time></trkpt><trkpt lat="55.6258070" lon="38.6528050"><time>2020-11-01T09:49:02.570</time></trkpt><trkpt lat="55.6257370" lon="38.6529700"><time>2020-11-01T09:49:12.573</time></trkpt><trkpt lat="55.6257100" lon="38.6530450"><time>2020-11-01T09:49:15.573</time></trkpt><trkpt lat="55.6256780" lon="38.6531220"><time>2020-11-01T09:49:19.567</time></trkpt><trkpt lat="55.6256370" lon="38.6531750"><time>2020-11-01T09:49:22.577</time></trkpt><trkpt lat="55.6255920" lon="38.6532320"><time>2020-11-01T09:49:25.567</time></trkpt><trkpt lat="55.6255530" lon="38.6532920"><time>2020-11-01T09:49:28.570</time></trkpt><trkpt lat="55.6254950" lon="38.6533380"><time>2020-11-01T09:49:32.570</time></trkpt><trkpt lat="55.6254550" lon="38.6533770"><time>2020-11-01T09:49:35.563</time></trkpt><trkpt lat="55.6254100" lon="38.6534080"><time>2020-11-01T09:49:37.567</time></trkpt><trkpt lat="55.6253650" lon="38.6534420"><time>2020-11-01T09:49:40.573</time></trkpt><trkpt lat="55.6253300" lon="38.6534930"><time>2020-11-01T09:49:43.567</time></trkpt><trkpt lat="55.6252970" lon="38.6535630"><time>2020-11-01T09:49:47.567</time></trkpt><trkpt lat="55.6252570" lon="38.6536080"><time>2020-11-01T09:49:50.573</time></trkpt><trkpt lat="55.6252070" lon="38.6536680"><time>2020-11-01T09:49:53.570</time></trkpt><trkpt lat="55.6251520" lon="38.6537380"><time>2020-11-01T09:49:55.570</time></trkpt><trkpt lat="55.6251020" lon="38.6537980"><time>2020-11-01T09:49:57.570</time></trkpt><trkpt lat="55.6250580" lon="38.6538500"><time>2020-11-01T09:50:00.573</time></trkpt><trkpt lat="55.6250230" lon="38.6539000"><time>2020-11-01T09:50:03.573</time></trkpt><trkpt lat="55.6249880" lon="38.6539730"><time>2020-11-01T09:50:07.570</time></trkpt><trkpt lat="55.6249350" lon="38.6540300"><time>2020-11-01T09:50:09.573</time></trkpt><trkpt lat="55.6248900" lon="38.6540830"><time>2020-11-01T09:50:11.573</time></trkpt><trkpt lat="55.6248550" lon="38.6541430"><time>2020-11-01T09:50:13.567</time></trkpt><trkpt lat="55.6248130" lon="38.6542130"><time>2020-11-01T09:50:16.570</time></trkpt><trkpt lat="55.6247620" lon="38.6543420"><time>2020-11-01T09:50:19.573</time></trkpt><trkpt lat="55.6247230" lon="38.6544170"><time>2020-11-01T09:50:22.573</time></trkpt><trkpt lat="55.6246850" lon="38.6544600"><time>2020-11-01T09:50:24.570</time></trkpt><trkpt lat="55.6246470" lon="38.6545250"><time>2020-11-01T09:50:27.573</time></trkpt><trkpt lat="55.6245870" lon="38.6545800"><time>2020-11-01T09:50:32.570</time></trkpt><trkpt lat="55.6244700" lon="38.6546650"><time>2020-11-01T09:50:42.570</time></trkpt><trkpt lat="55.6244220" lon="38.6546820"><time>2020-11-01T09:50:45.570</time></trkpt><trkpt lat="55.6243130" lon="38.6546370"><time>2020-11-01T09:50:50.570</time></trkpt><trkpt lat="55.6242050" lon="38.6546770"><time>2020-11-01T09:51:00.573</time></trkpt><trkpt lat="55.6240870" lon="38.6547670"><time>2020-11-01T09:51:09.573</time></trkpt><trkpt lat="55.6239680" lon="38.6548800"><time>2020-11-01T09:51:20.570</time></trkpt><trkpt lat="55.6238850" lon="38.6549880"><time>2020-11-01T09:51:26.570</time></trkpt><trkpt lat="55.6238380" lon="38.6550270"><time>2020-11-01T09:51:28.570</time></trkpt><trkpt lat="55.6237920" lon="38.6550780"><time>2020-11-01T09:51:30.570</time></trkpt><trkpt lat="55.6237530" lon="38.6551420"><time>2020-11-01T09:51:32.573</time></trkpt><trkpt lat="55.6237100" lon="38.6552080"><time>2020-11-01T09:51:34.573</time></trkpt><trkpt lat="55.6236680" lon="38.6553050"><time>2020-11-01T09:51:36.573</time></trkpt><trkpt lat="55.6236250" lon="38.6553750"><time>2020-11-01T09:51:39.573</time></trkpt><trkpt lat="55.6235880" lon="38.6554550"><time>2020-11-01T09:51:42.570</time></trkpt><trkpt lat="55.6235530" lon="38.6555070"><time>2020-11-01T09:51:44.573</time></trkpt><trkpt lat="55.6235150" lon="38.6555620"><time>2020-11-01T09:51:46.573</time></trkpt><trkpt lat="55.6234770" lon="38.6556130"><time>2020-11-01T09:51:48.573</time></trkpt><trkpt lat="55.6234320" lon="38.6556650"><time>2020-11-01T09:51:50.573</time></trkpt><trkpt lat="55.6233920" lon="38.6557280"><time>2020-11-01T09:51:52.570</time></trkpt><trkpt lat="55.6233480" lon="38.6558180"><time>2020-11-01T09:51:55.570</time></trkpt><trkpt lat="55.6232900" lon="38.6559630"><time>2020-11-01T09:51:58.570</time></trkpt><trkpt lat="55.6232550" lon="38.6560330"><time>2020-11-01T09:52:01.573</time></trkpt><trkpt lat="55.6232200" lon="38.6561130"><time>2020-11-01T09:52:04.573</time></trkpt><trkpt lat="55.6231770" lon="38.6561720"><time>2020-11-01T09:52:06.570</time></trkpt><trkpt lat="55.6231350" lon="38.6562330"><time>2020-11-01T09:52:09.573</time></trkpt><trkpt lat="55.6230980" lon="38.6563020"><time>2020-11-01T09:52:11.563</time></trkpt><trkpt lat="55.6230580" lon="38.6563670"><time>2020-11-01T09:52:13.570</time></trkpt><trkpt lat="55.6230180" lon="38.6564370"><time>2020-11-01T09:52:15.573</time></trkpt><trkpt lat="55.6229280" lon="38.6565100"><time>2020-11-01T09:52:20.573</time></trkpt><trkpt lat="55.6228630" lon="38.6565230"><time>2020-11-01T09:52:22.570</time></trkpt><trkpt lat="55.6228170" lon="38.6565750"><time>2020-11-01T09:52:25.573</time></trkpt><trkpt lat="55.6227470" lon="38.6566800"><time>2020-11-01T09:52:32.567</time></trkpt><trkpt lat="55.6227070" lon="38.6567330"><time>2020-11-01T09:52:34.573</time></trkpt><trkpt lat="55.6226670" lon="38.6567880"><time>2020-11-01T09:52:36.567</time></trkpt><trkpt lat="55.6225980" lon="38.6569400"><time>2020-11-01T09:52:39.577</time></trkpt><trkpt lat="55.6225550" lon="38.6569930"><time>2020-11-01T09:52:42.573</time></trkpt><trkpt lat="55.6225120" lon="38.6570470"><time>2020-11-01T09:52:44.567</time></trkpt><trkpt lat="55.6224700" lon="38.6571030"><time>2020-11-01T09:52:46.900</time></trkpt><trkpt lat="55.6224180" lon="38.6571930"><time>2020-11-01T09:52:49.573</time></trkpt><trkpt lat="55.6223780" lon="38.6572470"><time>2020-11-01T09:52:51.577</time></trkpt><trkpt lat="55.6223430" lon="38.6573120"><time>2020-11-01T09:52:53.570</time></trkpt><trkpt lat="55.6223080" lon="38.6573780"><time>2020-11-01T09:52:55.577</time></trkpt><trkpt lat="55.6222620" lon="38.6574600"><time>2020-11-01T09:52:58.570</time></trkpt><trkpt lat="55.6222230" lon="38.6575080"><time>2020-11-01T09:53:00.573</time></trkpt><trkpt lat="55.6221850" lon="38.6575520"><time>2020-11-01T09:53:02.567</time></trkpt><trkpt lat="55.6221370" lon="38.6576150"><time>2020-11-01T09:53:04.570</time></trkpt><trkpt lat="55.6221120" lon="38.6577030"><time>2020-11-01T09:53:05.573</time></trkpt><trkpt lat="55.6220700" lon="38.6577920"><time>2020-11-01T09:53:07.567</time></trkpt><trkpt lat="55.6220170" lon="38.6578970"><time>2020-11-01T09:53:09.577</time></trkpt><trkpt lat="55.6219750" lon="38.6579780"><time>2020-11-01T09:53:11.567</time></trkpt><trkpt lat="55.6219300" lon="38.6580650"><time>2020-11-01T09:53:13.570</time></trkpt><trkpt lat="55.6218830" lon="38.6581620"><time>2020-11-01T09:53:15.573</time></trkpt><trkpt lat="55.6218280" lon="38.6582480"><time>2020-11-01T09:53:17.567</time></trkpt><trkpt lat="55.6217670" lon="38.6583370"><time>2020-11-01T09:53:19.567</time></trkpt><trkpt lat="55.6217250" lon="38.6583830"><time>2020-11-01T09:53:20.543</time></trkpt><trkpt lat="55.6216630" lon="38.6584700"><time>2020-11-01T09:53:22.577</time></trkpt><trkpt lat="55.6215920" lon="38.6585880"><time>2020-11-01T09:53:24.573</time></trkpt><trkpt lat="55.6215500" lon="38.6586450"><time>2020-11-01T09:53:26.577</time></trkpt><trkpt lat="55.6215100" lon="38.6587070"><time>2020-11-01T09:53:28.573</time></trkpt><trkpt lat="55.6214630" lon="38.6587620"><time>2020-11-01T09:53:30.573</time></trkpt><trkpt lat="55.6214230" lon="38.6588120"><time>2020-11-01T09:53:32.573</time></trkpt><trkpt lat="55.6213730" lon="38.6588920"><time>2020-11-01T09:53:35.707</time></trkpt><trkpt lat="55.6213180" lon="38.6589630"><time>2020-11-01T09:53:38.573</time></trkpt><trkpt lat="55.6212780" lon="38.6590430"><time>2020-11-01T09:53:41.567</time></trkpt><trkpt lat="55.6212320" lon="38.6591080"><time>2020-11-01T09:53:44.577</time></trkpt><trkpt lat="55.6211870" lon="38.6591720"><time>2020-11-01T09:53:47.567</time></trkpt><trkpt lat="55.6211370" lon="38.6592080"><time>2020-11-01T09:53:50.577</time></trkpt><trkpt lat="55.6210780" lon="38.6592630"><time>2020-11-01T09:53:53.570</time></trkpt><trkpt lat="55.6210200" lon="38.6593370"><time>2020-11-01T09:53:57.573</time></trkpt><trkpt lat="55.6209800" lon="38.6593800"><time>2020-11-01T09:53:59.567</time></trkpt><trkpt lat="55.6209300" lon="38.6594420"><time>2020-11-01T09:54:02.573</time></trkpt><trkpt lat="55.6208050" lon="38.6596130"><time>2020-11-01T09:54:08.573</time></trkpt><trkpt lat="55.6207730" lon="38.6596720"><time>2020-11-01T09:54:10.577</time></trkpt><trkpt lat="55.6207350" lon="38.6597130"><time>2020-11-01T09:54:12.573</time></trkpt><trkpt lat="55.6206830" lon="38.6597680"><time>2020-11-01T09:54:15.577</time></trkpt><trkpt lat="55.6206400" lon="38.6598000"><time>2020-11-01T09:54:18.573</time></trkpt><trkpt lat="55.6205830" lon="38.6598470"><time>2020-11-01T09:54:21.573</time></trkpt><trkpt lat="55.6205370" lon="38.6598800"><time>2020-11-01T09:54:24.570</time></trkpt><trkpt lat="55.6205020" lon="38.6599550"><time>2020-11-01T09:54:27.570</time></trkpt><trkpt lat="55.6204330" lon="38.6600650"><time>2020-11-01T09:54:29.567</time></trkpt><trkpt lat="55.6203850" lon="38.6601500"><time>2020-11-01T09:54:31.577</time></trkpt><trkpt lat="55.6203350" lon="38.6602220"><time>2020-11-01T09:54:33.573</time></trkpt><trkpt lat="55.6203030" lon="38.6602850"><time>2020-11-01T09:54:35.567</time></trkpt><trkpt lat="55.6202600" lon="38.6603420"><time>2020-11-01T09:54:38.573</time></trkpt><trkpt lat="55.6201970" lon="38.6604450"><time>2020-11-01T09:54:43.573</time></trkpt><trkpt lat="55.6201550" lon="38.6604920"><time>2020-11-01T09:54:44.573</time></trkpt><trkpt lat="55.6201070" lon="38.6605600"><time>2020-11-01T09:54:46.570</time></trkpt><trkpt lat="55.6200650" lon="38.6606250"><time>2020-11-01T09:54:48.613</time></trkpt><trkpt lat="55.6200100" lon="38.6606580"><time>2020-11-01T09:54:50.570</time></trkpt><trkpt lat="55.6199580" lon="38.6607070"><time>2020-11-01T09:54:52.573</time></trkpt><trkpt lat="55.6199170" lon="38.6607380"><time>2020-11-01T09:54:54.573</time></trkpt><trkpt lat="55.6198350" lon="38.6608300"><time>2020-11-01T09:55:00.573</time></trkpt><trkpt lat="55.6197900" lon="38.6608720"><time>2020-11-01T09:55:03.570</time></trkpt><trkpt lat="55.6197550" lon="38.6609450"><time>2020-11-01T09:55:07.573</time></trkpt><trkpt lat="55.6196930" lon="38.6609620"><time>2020-11-01T09:55:10.573</time></trkpt><trkpt lat="55.6196420" lon="38.6609850"><time>2020-11-01T09:55:13.567</time></trkpt><trkpt lat="55.6195950" lon="38.6610520"><time>2020-11-01T09:55:17.570</time></trkpt><trkpt lat="55.6194970" lon="38.6611850"><time>2020-11-01T09:55:28.573</time></trkpt><trkpt lat="55.6193850" lon="38.6613020"><time>2020-11-01T09:55:43.573</time></trkpt><trkpt lat="55.6193370" lon="38.6613430"><time>2020-11-01T09:55:46.573</time></trkpt><trkpt lat="55.6192930" lon="38.6614030"><time>2020-11-01T09:55:48.570</time></trkpt><trkpt lat="55.6192380" lon="38.6615150"><time>2020-11-01T09:55:50.577</time></trkpt><trkpt lat="55.6191870" lon="38.6615780"><time>2020-11-01T09:55:52.573</time></trkpt><trkpt lat="55.6191350" lon="38.6616120"><time>2020-11-01T09:55:54.573</time></trkpt><trkpt lat="55.6190870" lon="38.6616020"><time>2020-11-01T09:55:56.570</time></trkpt><trkpt lat="55.6190280" lon="38.6616170"><time>2020-11-01T09:55:59.573</time></trkpt><trkpt lat="55.6189730" lon="38.6616870"><time>2020-11-01T09:56:02.570</time></trkpt><trkpt lat="55.6189370" lon="38.6617780"><time>2020-11-01T09:56:04.573</time></trkpt><trkpt lat="55.6188920" lon="38.6619150"><time>2020-11-01T09:56:06.573</time></trkpt><trkpt lat="55.6188630" lon="38.6619880"><time>2020-11-01T09:56:07.573</time></trkpt><trkpt lat="55.6188300" lon="38.6620670"><time>2020-11-01T09:56:08.573</time></trkpt><trkpt lat="55.6187830" lon="38.6621700"><time>2020-11-01T09:56:09.577</time></trkpt><trkpt lat="55.6187430" lon="38.6622150"><time>2020-11-01T09:56:11.573</time></trkpt><trkpt lat="55.6186970" lon="38.6622870"><time>2020-11-01T09:56:13.573</time></trkpt><trkpt lat="55.6186400" lon="38.6623630"><time>2020-11-01T09:56:15.573</time></trkpt><trkpt lat="55.6186050" lon="38.6624580"><time>2020-11-01T09:56:17.567</time></trkpt><trkpt lat="55.6185670" lon="38.6625150"><time>2020-11-01T09:56:19.573</time></trkpt><trkpt lat="55.6185270" lon="38.6625730"><time>2020-11-01T09:56:21.573</time></trkpt><trkpt lat="55.6184680" lon="38.6625850"><time>2020-11-01T09:56:24.570</time></trkpt><trkpt lat="55.6183280" lon="38.6626180"><time>2020-11-01T09:56:37.573</time></trkpt><trkpt lat="55.6182780" lon="38.6626880"><time>2020-11-01T09:56:39.573</time></trkpt><trkpt lat="55.6182450" lon="38.6627500"><time>2020-11-01T09:56:41.567</time></trkpt><trkpt lat="55.6181980" lon="38.6628200"><time>2020-11-01T09:56:44.570</time></trkpt><trkpt lat="55.6181570" lon="38.6628500"><time>2020-11-01T09:56:46.573</time></trkpt><trkpt lat="55.6181100" lon="38.6629100"><time>2020-11-01T09:56:50.570</time></trkpt><trkpt lat="55.6180800" lon="38.6629950"><time>2020-11-01T09:56:53.570</time></trkpt><trkpt lat="55.6180350" lon="38.6630630"><time>2020-11-01T09:56:56.567</time></trkpt><trkpt lat="55.6179920" lon="38.6631500"><time>2020-11-01T09:56:59.573</time></trkpt><trkpt lat="55.6179470" lon="38.6631980"><time>2020-11-01T09:57:02.573</time></trkpt><trkpt lat="55.6178380" lon="38.6632620"><time>2020-11-01T09:57:10.573</time></trkpt><trkpt lat="55.6177920" lon="38.6632950"><time>2020-11-01T09:57:12.573</time></trkpt><trkpt lat="55.6177430" lon="38.6633250"><time>2020-11-01T09:57:14.573</time></trkpt><trkpt lat="55.6176780" lon="38.6633550"><time>2020-11-01T09:57:17.573</time></trkpt><trkpt lat="55.6176350" lon="38.6633770"><time>2020-11-01T09:57:19.573</time></trkpt><trkpt lat="55.6175980" lon="38.6634970"><time>2020-11-01T09:57:22.567</time></trkpt><trkpt lat="55.6175670" lon="38.6636100"><time>2020-11-01T09:57:24.570</time></trkpt><trkpt lat="55.6175430" lon="38.6637120"><time>2020-11-01T09:57:26.577</time></trkpt><trkpt lat="55.6175120" lon="38.6637800"><time>2020-11-01T09:57:29.573</time></trkpt><trkpt lat="55.6174920" lon="38.6639250"><time>2020-11-01T09:57:31.573</time></trkpt><trkpt lat="55.6174320" lon="38.6640020"><time>2020-11-01T09:57:33.580</time></trkpt><trkpt lat="55.6173800" lon="38.6640980"><time>2020-11-01T09:57:35.567</time></trkpt><trkpt lat="55.6173470" lon="38.6641780"><time>2020-11-01T09:57:38.573</time></trkpt><trkpt lat="55.6172880" lon="38.6643720"><time>2020-11-01T09:57:48.577</time></trkpt><trkpt lat="55.6172550" lon="38.6644430"><time>2020-11-01T09:57:50.573</time></trkpt><trkpt lat="55.6172030" lon="38.6645200"><time>2020-11-01T09:57:53.573</time></trkpt><trkpt lat="55.6171570" lon="38.6645970"><time>2020-11-01T09:57:57.573</time></trkpt><trkpt lat="55.6171220" lon="38.6646820"><time>2020-11-01T09:57:59.573</time></trkpt><trkpt lat="55.6170720" lon="38.6647550"><time>2020-11-01T09:58:02.573</time></trkpt><trkpt lat="55.6170300" lon="38.6648330"><time>2020-11-01T09:58:05.567</time></trkpt><trkpt lat="55.6169900" lon="38.6648920"><time>2020-11-01T09:58:07.573</time></trkpt><trkpt lat="55.6169520" lon="38.6649420"><time>2020-11-01T09:58:09.580</time></trkpt><trkpt lat="55.6169030" lon="38.6650080"><time>2020-11-01T09:58:12.570</time></trkpt><trkpt lat="55.6168580" lon="38.6650530"><time>2020-11-01T09:58:15.577</time></trkpt><trkpt lat="55.6168170" lon="38.6651100"><time>2020-11-01T09:58:19.570</time></trkpt><trkpt lat="55.6167780" lon="38.6651580"><time>2020-11-01T09:58:21.580</time></trkpt><trkpt lat="55.6167250" lon="38.6652350"><time>2020-11-01T09:58:24.573</time></trkpt><trkpt lat="55.6166830" lon="38.6652870"><time>2020-11-01T09:58:27.573</time></trkpt><trkpt lat="55.6166370" lon="38.6653380"><time>2020-11-01T09:58:31.570</time></trkpt><trkpt lat="55.6166000" lon="38.6653920"><time>2020-11-01T09:58:34.577</time></trkpt><trkpt lat="55.6165570" lon="38.6654550"><time>2020-11-01T09:58:38.577</time></trkpt><trkpt lat="55.6165100" lon="38.6655270"><time>2020-11-01T09:58:41.570</time></trkpt><trkpt lat="55.6164350" lon="38.6655870"><time>2020-11-01T09:58:43.580</time></trkpt><trkpt lat="55.6163650" lon="38.6656530"><time>2020-11-01T09:58:45.577</time></trkpt><trkpt lat="55.6163450" lon="38.6657280"><time>2020-11-01T09:58:46.573</time></trkpt><trkpt lat="55.6163180" lon="38.6658020"><time>2020-11-01T09:58:48.567</time></trkpt><trkpt lat="55.6163000" lon="38.6659100"><time>2020-11-01T09:58:50.567</time></trkpt><trkpt lat="55.6162680" lon="38.6659750"><time>2020-11-01T09:58:52.570</time></trkpt><trkpt lat="55.6162200" lon="38.6660550"><time>2020-11-01T09:58:55.573</time></trkpt><trkpt lat="55.6161780" lon="38.6661320"><time>2020-11-01T09:58:58.567</time></trkpt><trkpt lat="55.6161250" lon="38.6662030"><time>2020-11-01T09:59:00.573</time></trkpt><trkpt lat="55.6160670" lon="38.6662800"><time>2020-11-01T09:59:02.573</time></trkpt><trkpt lat="55.6160180" lon="38.6664020"><time>2020-11-01T09:59:05.573</time></trkpt><trkpt lat="55.6159550" lon="38.6664470"><time>2020-11-01T09:59:07.577</time></trkpt><trkpt lat="55.6159050" lon="38.6664780"><time>2020-11-01T09:59:10.570</time></trkpt><trkpt lat="55.6158420" lon="38.6665500"><time>2020-11-01T09:59:15.573</time></trkpt><trkpt lat="55.6158070" lon="38.6666080"><time>2020-11-01T09:59:18.573</time></trkpt><trkpt lat="55.6157530" lon="38.6666630"><time>2020-11-01T09:59:21.577</time></trkpt><trkpt lat="55.6157130" lon="38.6667120"><time>2020-11-01T09:59:23.573</time></trkpt><trkpt lat="55.6156720" lon="38.6667700"><time>2020-11-01T09:59:26.570</time></trkpt><trkpt lat="55.6156230" lon="38.6668530"><time>2020-11-01T09:59:30.573</time></trkpt><trkpt lat="55.6155050" lon="38.6669520"><time>2020-11-01T09:59:42.573</time></trkpt><trkpt lat="55.6153920" lon="38.6670480"><time>2020-11-01T09:59:54.573</time></trkpt><trkpt lat="55.6152830" lon="38.6671520"><time>2020-11-01T10:00:09.573</time></trkpt><trkpt lat="55.6152330" lon="38.6671420"><time>2020-11-01T10:00:13.573</time></trkpt><trkpt lat="55.6151520" lon="38.6671850"><time>2020-11-01T10:00:16.703</time></trkpt><trkpt lat="55.6150820" lon="38.6672750"><time>2020-11-01T10:00:18.573</time></trkpt><trkpt lat="55.6150500" lon="38.6673800"><time>2020-11-01T10:00:19.567</time></trkpt><trkpt lat="55.6150220" lon="38.6674520"><time>2020-11-01T10:00:20.573</time></trkpt><trkpt lat="55.6149620" lon="38.6675520"><time>2020-11-01T10:00:23.570</time></trkpt><trkpt lat="55.6149480" lon="38.6676380"><time>2020-11-01T10:00:25.570</time></trkpt><trkpt lat="55.6149220" lon="38.6677170"><time>2020-11-01T10:00:28.573</time></trkpt><trkpt lat="55.6148470" lon="38.6678630"><time>2020-11-01T10:00:39.570</time></trkpt><trkpt lat="55.6147830" lon="38.6680580"><time>2020-11-01T10:00:57.573</time></trkpt><trkpt lat="55.6146830" lon="38.6681730"><time>2020-11-01T10:01:11.573</time></trkpt><trkpt lat="55.6146420" lon="38.6682270"><time>2020-11-01T10:01:17.573</time></trkpt><trkpt lat="55.6145270" lon="38.6682330"><time>2020-11-01T10:01:27.700</time></trkpt><trkpt lat="55.6144100" lon="38.6683370"><time>2020-11-01T10:01:39.567</time></trkpt><trkpt lat="55.6143470" lon="38.6684880"><time>2020-11-01T10:01:54.577</time></trkpt><trkpt lat="55.6142200" lon="38.6685570"><time>2020-11-01T10:02:03.570</time></trkpt><trkpt lat="55.6141730" lon="38.6685700"><time>2020-11-01T10:02:06.570</time></trkpt><trkpt lat="55.6140820" lon="38.6686120"><time>2020-11-01T10:02:13.567</time></trkpt><trkpt lat="55.6140430" lon="38.6686580"><time>2020-11-01T10:02:16.577</time></trkpt><trkpt lat="55.6139650" lon="38.6687430"><time>2020-11-01T10:02:21.570</time></trkpt><trkpt lat="55.6138730" lon="38.6689420"><time>2020-11-01T10:02:32.567</time></trkpt><trkpt lat="55.6138370" lon="38.6689920"><time>2020-11-01T10:02:34.570</time></trkpt><trkpt lat="55.6137700" lon="38.6691130"><time>2020-11-01T10:02:39.567</time></trkpt><trkpt lat="55.6137320" lon="38.6691680"><time>2020-11-01T10:02:42.573</time></trkpt><trkpt lat="55.6136330" lon="38.6693130"><time>2020-11-01T10:02:49.570</time></trkpt><trkpt lat="55.6136000" lon="38.6693750"><time>2020-11-01T10:02:52.573</time></trkpt><trkpt lat="55.6135180" lon="38.6694750"><time>2020-11-01T10:03:02.573</time></trkpt><trkpt lat="55.6134630" lon="38.6695150"><time>2020-11-01T10:03:05.570</time></trkpt><trkpt lat="55.6134250" lon="38.6695620"><time>2020-11-01T10:03:07.573</time></trkpt><trkpt lat="55.6133920" lon="38.6696600"><time>2020-11-01T10:03:08.573</time></trkpt><trkpt lat="55.6133480" lon="38.6697630"><time>2020-11-01T10:03:09.577</time></trkpt><trkpt lat="55.6133220" lon="38.6698700"><time>2020-11-01T10:03:11.570</time></trkpt><trkpt lat="55.6132850" lon="38.6699550"><time>2020-11-01T10:03:14.567</time></trkpt><trkpt lat="55.6132220" lon="38.6700930"><time>2020-11-01T10:03:22.577</time></trkpt><trkpt lat="55.6131800" lon="38.6701700"><time>2020-11-01T10:03:25.570</time></trkpt><trkpt lat="55.6131150" lon="38.6703130"><time>2020-11-01T10:03:33.570</time></trkpt><trkpt lat="55.6130220" lon="38.6704650"><time>2020-11-01T10:03:46.567</time></trkpt><trkpt lat="55.6129180" lon="38.6706430"><time>2020-11-01T10:03:56.577</time></trkpt><trkpt lat="55.6128480" lon="38.6708130"><time>2020-11-01T10:04:08.577</time></trkpt><trkpt lat="55.6127580" lon="38.6709700"><time>2020-11-01T10:04:18.573</time></trkpt><trkpt lat="55.6127080" lon="38.6711680"><time>2020-11-01T10:04:26.540</time></trkpt><trkpt lat="55.6126370" lon="38.6712120"><time>2020-11-01T10:04:27.533</time></trkpt><trkpt lat="55.6125920" lon="38.6713180"><time>2020-11-01T10:04:28.533</time></trkpt><trkpt lat="55.6125800" lon="38.6713980"><time>2020-11-01T10:04:30.783</time></trkpt><trkpt lat="55.6125370" lon="38.6714780"><time>2020-11-01T10:04:32.547</time></trkpt><trkpt lat="55.6124420" lon="38.6715350"><time>2020-11-01T10:04:33.567</time></trkpt><trkpt lat="55.6123850" lon="38.6715620"><time>2020-11-01T10:04:35.540</time></trkpt><trkpt lat="55.6122720" lon="38.6717880"><time>2020-11-01T10:04:41.537</time></trkpt><trkpt lat="55.6121600" lon="38.6718750"><time>2020-11-01T10:04:47.567</time></trkpt><trkpt lat="55.6121100" lon="38.6720850"><time>2020-11-01T10:04:48.567</time></trkpt><trkpt lat="55.6121100" lon="38.6722130"><time>2020-11-01T10:04:49.570</time></trkpt><trkpt lat="55.6120980" lon="38.6719780"><time>2020-11-01T10:04:51.577</time></trkpt><trkpt lat="55.6121130" lon="38.6718830"><time>2020-11-01T10:04:52.573</time></trkpt><trkpt lat="55.6120870" lon="38.6717830"><time>2020-11-01T10:04:53.573</time></trkpt><trkpt lat="55.6121180" lon="38.6716870"><time>2020-11-01T10:04:54.573</time></trkpt><trkpt lat="55.6121330" lon="38.6715880"><time>2020-11-01T10:04:57.573</time></trkpt><trkpt lat="55.6121880" lon="38.6715470"><time>2020-11-01T10:05:01.573</time></trkpt><trkpt lat="55.6122320" lon="38.6715770"><time>2020-11-01T10:05:04.573</time></trkpt><trkpt lat="55.6122550" lon="38.6714150"><time>2020-11-01T10:05:19.573</time></trkpt><trkpt lat="55.6123420" lon="38.6712400"><time>2020-11-01T10:05:33.577</time></trkpt><trkpt lat="55.6122550" lon="38.6710950"><time>2020-11-01T10:05:49.577</time></trkpt><trkpt lat="55.6122430" lon="38.6709130"><time>2020-11-01T10:06:00.577</time></trkpt><trkpt lat="55.6122330" lon="38.6707120"><time>2020-11-01T10:06:14.577</time></trkpt><trkpt lat="55.6121950" lon="38.6706450"><time>2020-11-01T10:06:17.577</time></trkpt><trkpt lat="55.6121130" lon="38.6704650"><time>2020-11-01T10:06:25.570</time></trkpt><trkpt lat="55.6120650" lon="38.6704450"><time>2020-11-01T10:06:28.570</time></trkpt><trkpt lat="55.6120370" lon="38.6703600"><time>2020-11-01T10:06:31.573</time></trkpt><trkpt lat="55.6119730" lon="38.6702100"><time>2020-11-01T10:06:44.573</time></trkpt><trkpt lat="55.6119220" lon="38.6700450"><time>2020-11-01T10:06:58.577</time></trkpt><trkpt lat="55.6118750" lon="38.6700530"><time>2020-11-01T10:07:01.573</time></trkpt><trkpt lat="55.6117750" lon="38.6700300"><time>2020-11-01T10:07:08.573</time></trkpt><trkpt lat="55.6117680" lon="38.6699430"><time>2020-11-01T10:07:11.570</time></trkpt><trkpt lat="55.6116980" lon="38.6698380"><time>2020-11-01T10:07:20.570</time></trkpt><trkpt lat="55.6116020" lon="38.6697030"><time>2020-11-01T10:07:30.570</time></trkpt><trkpt lat="55.6115080" lon="38.6695530"><time>2020-11-01T10:07:39.567</time></trkpt><trkpt lat="55.6114720" lon="38.6695000"><time>2020-11-01T10:07:42.573</time></trkpt><trkpt lat="55.6114170" lon="38.6693330"><time>2020-11-01T10:07:49.577</time></trkpt><trkpt lat="55.6113830" lon="38.6692420"><time>2020-11-01T10:07:52.577</time></trkpt><trkpt lat="55.6113120" lon="38.6691430"><time>2020-11-01T10:07:56.577</time></trkpt><trkpt lat="55.6112750" lon="38.6690920"><time>2020-11-01T10:07:59.573</time></trkpt><trkpt lat="55.6112130" lon="38.6689550"><time>2020-11-01T10:08:04.577</time></trkpt><trkpt lat="55.6111770" lon="38.6688320"><time>2020-11-01T10:08:07.580</time></trkpt><trkpt lat="55.6111520" lon="38.6687350"><time>2020-11-01T10:08:09.577</time></trkpt><trkpt lat="55.6111380" lon="38.6686270"><time>2020-11-01T10:08:12.580</time></trkpt><trkpt lat="55.6110830" lon="38.6686000"><time>2020-11-01T10:08:16.577</time></trkpt><trkpt lat="55.6110230" lon="38.6685730"><time>2020-11-01T10:08:19.580</time></trkpt><trkpt lat="55.6109780" lon="38.6685520"><time>2020-11-01T10:08:22.577</time></trkpt><trkpt lat="55.6109250" lon="38.6685530"><time>2020-11-01T10:08:25.577</time></trkpt><trkpt lat="55.6108750" lon="38.6685520"><time>2020-11-01T10:08:28.577</time></trkpt><trkpt lat="55.6108150" lon="38.6685150"><time>2020-11-01T10:08:32.573</time></trkpt><trkpt lat="55.6107580" lon="38.6685070"><time>2020-11-01T10:08:36.577</time></trkpt><trkpt lat="55.6107070" lon="38.6685130"><time>2020-11-01T10:08:39.577</time></trkpt><trkpt lat="55.6106550" lon="38.6685070"><time>2020-11-01T10:08:42.570</time></trkpt><trkpt lat="55.6106080" lon="38.6685030"><time>2020-11-01T10:08:45.577</time></trkpt><trkpt lat="55.6105030" lon="38.6684270"><time>2020-11-01T10:08:57.577</time></trkpt><trkpt lat="55.6104570" lon="38.6684070"><time>2020-11-01T10:08:59.573</time></trkpt><trkpt lat="55.6104080" lon="38.6683920"><time>2020-11-01T10:09:03.577</time></trkpt><trkpt lat="55.6103500" lon="38.6683770"><time>2020-11-01T10:09:06.577</time></trkpt><trkpt lat="55.6102980" lon="38.6683700"><time>2020-11-01T10:09:09.570</time></trkpt><trkpt lat="55.6102520" lon="38.6683420"><time>2020-11-01T10:09:12.570</time></trkpt><trkpt lat="55.6102000" lon="38.6683450"><time>2020-11-01T10:09:15.577</time></trkpt><trkpt lat="55.6101420" lon="38.6683920"><time>2020-11-01T10:09:18.570</time></trkpt><trkpt lat="55.6100900" lon="38.6684100"><time>2020-11-01T10:09:21.577</time></trkpt><trkpt lat="55.6100370" lon="38.6684230"><time>2020-11-01T10:09:24.570</time></trkpt><trkpt lat="55.6099720" lon="38.6684350"><time>2020-11-01T10:09:27.577</time></trkpt><trkpt lat="55.6099100" lon="38.6684450"><time>2020-11-01T10:09:30.570</time></trkpt><trkpt lat="55.6098580" lon="38.6684550"><time>2020-11-01T10:09:33.570</time></trkpt><trkpt lat="55.6098100" lon="38.6684770"><time>2020-11-01T10:09:36.577</time></trkpt><trkpt lat="55.6097500" lon="38.6685150"><time>2020-11-01T10:09:39.577</time></trkpt><trkpt lat="55.6096980" lon="38.6685470"><time>2020-11-01T10:09:42.577</time></trkpt><trkpt lat="55.6096530" lon="38.6685630"><time>2020-11-01T10:09:44.573</time></trkpt><trkpt lat="55.6096030" lon="38.6685820"><time>2020-11-01T10:09:46.577</time></trkpt><trkpt lat="55.6095550" lon="38.6686020"><time>2020-11-01T10:09:48.577</time></trkpt><trkpt lat="55.6094980" lon="38.6686200"><time>2020-11-01T10:09:51.577</time></trkpt><trkpt lat="55.6094320" lon="38.6686450"><time>2020-11-01T10:09:54.577</time></trkpt><trkpt lat="55.6093780" lon="38.6686500"><time>2020-11-01T10:09:56.577</time></trkpt><trkpt lat="55.6093330" lon="38.6686600"><time>2020-11-01T10:09:58.577</time></trkpt><trkpt lat="55.6092850" lon="38.6686670"><time>2020-11-01T10:10:00.570</time></trkpt><trkpt lat="55.6092380" lon="38.6686800"><time>2020-11-01T10:10:02.573</time></trkpt><trkpt lat="55.6091750" lon="38.6686820"><time>2020-11-01T10:10:05.570</time></trkpt><trkpt lat="55.6091300" lon="38.6686920"><time>2020-11-01T10:10:07.577</time></trkpt><trkpt lat="55.6090800" lon="38.6687130"><time>2020-11-01T10:10:09.570</time></trkpt><trkpt lat="55.6090330" lon="38.6687330"><time>2020-11-01T10:10:11.577</time></trkpt><trkpt lat="55.6089900" lon="38.6687700"><time>2020-11-01T10:10:13.577</time></trkpt><trkpt lat="55.6089370" lon="38.6687930"><time>2020-11-01T10:10:16.573</time></trkpt><trkpt lat="55.6088930" lon="38.6688250"><time>2020-11-01T10:10:18.570</time></trkpt><trkpt lat="55.6088370" lon="38.6688520"><time>2020-11-01T10:10:21.580</time></trkpt><trkpt lat="55.6087830" lon="38.6688570"><time>2020-11-01T10:10:23.573</time></trkpt><trkpt lat="55.6087380" lon="38.6688580"><time>2020-11-01T10:10:25.580</time></trkpt><trkpt lat="55.6086770" lon="38.6688850"><time>2020-11-01T10:10:28.580</time></trkpt><trkpt lat="55.6086270" lon="38.6688780"><time>2020-11-01T10:10:30.570</time></trkpt><trkpt lat="55.6085820" lon="38.6688730"><time>2020-11-01T10:10:32.573</time></trkpt><trkpt lat="55.6085350" lon="38.6688970"><time>2020-11-01T10:10:35.577</time></trkpt><trkpt lat="55.6084650" lon="38.6690250"><time>2020-11-01T10:10:44.570</time></trkpt><trkpt lat="55.6083650" lon="38.6690650"><time>2020-11-01T10:11:06.577</time></trkpt><trkpt lat="55.6083120" lon="38.6690920"><time>2020-11-01T10:11:11.577</time></trkpt><trkpt lat="55.6082680" lon="38.6691470"><time>2020-11-01T10:11:15.573</time></trkpt><trkpt lat="55.6082230" lon="38.6691920"><time>2020-11-01T10:11:18.573</time></trkpt><trkpt lat="55.6081630" lon="38.6692320"><time>2020-11-01T10:11:21.577</time></trkpt><trkpt lat="55.6081070" lon="38.6692650"><time>2020-11-01T10:11:23.577</time></trkpt><trkpt lat="55.6080480" lon="38.6692970"><time>2020-11-01T10:11:26.573</time></trkpt><trkpt lat="55.6079970" lon="38.6693250"><time>2020-11-01T10:11:29.573</time></trkpt><trkpt lat="55.6079230" lon="38.6694280"><time>2020-11-01T10:11:38.573</time></trkpt><trkpt lat="55.6078650" lon="38.6694520"><time>2020-11-01T10:11:42.577</time></trkpt><trkpt lat="55.6078050" lon="38.6694880"><time>2020-11-01T10:11:46.573</time></trkpt><trkpt lat="55.6077470" lon="38.6695280"><time>2020-11-01T10:11:49.577</time></trkpt><trkpt lat="55.6076870" lon="38.6695750"><time>2020-11-01T10:11:52.573</time></trkpt><trkpt lat="55.6076280" lon="38.6696000"><time>2020-11-01T10:11:55.577</time></trkpt><trkpt lat="55.6075670" lon="38.6696120"><time>2020-11-01T10:11:58.577</time></trkpt><trkpt lat="55.6075170" lon="38.6696330"><time>2020-11-01T10:12:00.577</time></trkpt><trkpt lat="55.6074730" lon="38.6696650"><time>2020-11-01T10:12:02.573</time></trkpt><trkpt lat="55.6074230" lon="38.6696970"><time>2020-11-01T10:12:04.577</time></trkpt><trkpt lat="55.6073750" lon="38.6697450"><time>2020-11-01T10:12:06.573</time></trkpt><trkpt lat="55.6073270" lon="38.6697720"><time>2020-11-01T10:12:08.577</time></trkpt><trkpt lat="55.6072720" lon="38.6698120"><time>2020-11-01T10:12:11.570</time></trkpt><trkpt lat="55.6072130" lon="38.6698320"><time>2020-11-01T10:12:14.573</time></trkpt><trkpt lat="55.6071720" lon="38.6698700"><time>2020-11-01T10:12:16.577</time></trkpt><trkpt lat="55.6071150" lon="38.6699230"><time>2020-11-01T10:12:18.570</time></trkpt><trkpt lat="55.6070670" lon="38.6699680"><time>2020-11-01T10:12:20.577</time></trkpt><trkpt lat="55.6070170" lon="38.6700000"><time>2020-11-01T10:12:22.577</time></trkpt><trkpt lat="55.6069700" lon="38.6700370"><time>2020-11-01T10:12:24.577</time></trkpt><trkpt lat="55.6069120" lon="38.6700580"><time>2020-11-01T10:12:26.570</time></trkpt><trkpt lat="55.6068570" lon="38.6700720"><time>2020-11-01T10:12:28.570</time></trkpt><trkpt lat="55.6068080" lon="38.6701000"><time>2020-11-01T10:12:30.577</time></trkpt><trkpt lat="55.6067650" lon="38.6701220"><time>2020-11-01T10:12:32.570</time></trkpt><trkpt lat="55.6067080" lon="38.6701470"><time>2020-11-01T10:12:35.577</time></trkpt><trkpt lat="55.6066500" lon="38.6701700"><time>2020-11-01T10:12:39.577</time></trkpt><trkpt lat="55.6065920" lon="38.6701750"><time>2020-11-01T10:12:42.577</time></trkpt><trkpt lat="55.6065430" lon="38.6701870"><time>2020-11-01T10:12:46.577</time></trkpt><trkpt lat="55.6064800" lon="38.6701900"><time>2020-11-01T10:12:49.573</time></trkpt><trkpt lat="55.6064230" lon="38.6701850"><time>2020-11-01T10:12:51.577</time></trkpt><trkpt lat="55.6063750" lon="38.6701720"><time>2020-11-01T10:12:53.573</time></trkpt><trkpt lat="55.6063280" lon="38.6701620"><time>2020-11-01T10:12:55.573</time></trkpt><trkpt lat="55.6062800" lon="38.6701400"><time>2020-11-01T10:12:58.573</time></trkpt><trkpt lat="55.6062070" lon="38.6700950"><time>2020-11-01T10:13:07.580</time></trkpt><trkpt lat="55.6061620" lon="38.6701270"><time>2020-11-01T10:13:11.573</time></trkpt><trkpt lat="55.6061150" lon="38.6701550"><time>2020-11-01T10:13:15.577</time></trkpt><trkpt lat="55.6060680" lon="38.6701970"><time>2020-11-01T10:13:18.577</time></trkpt><trkpt lat="55.6060250" lon="38.6702280"><time>2020-11-01T10:13:20.573</time></trkpt><trkpt lat="55.6059780" lon="38.6702880"><time>2020-11-01T10:13:23.570</time></trkpt><trkpt lat="55.6059400" lon="38.6703400"><time>2020-11-01T10:13:26.577</time></trkpt><trkpt lat="55.6058920" lon="38.6703830"><time>2020-11-01T10:13:28.577</time></trkpt><trkpt lat="55.6058400" lon="38.6704080"><time>2020-11-01T10:13:30.577</time></trkpt><trkpt lat="55.6057730" lon="38.6704300"><time>2020-11-01T10:13:33.577</time></trkpt><trkpt lat="55.6057150" lon="38.6704350"><time>2020-11-01T10:13:36.577</time></trkpt><trkpt lat="55.6056580" lon="38.6704600"><time>2020-11-01T10:13:38.577</time></trkpt><trkpt lat="55.6056120" lon="38.6704750"><time>2020-11-01T10:13:40.573</time></trkpt><trkpt lat="55.6055650" lon="38.6704970"><time>2020-11-01T10:13:42.577</time></trkpt><trkpt lat="55.6055100" lon="38.6704720"><time>2020-11-01T10:13:45.577</time></trkpt><trkpt lat="55.6054550" lon="38.6704500"><time>2020-11-01T10:13:48.577</time></trkpt><trkpt lat="55.6053970" lon="38.6704520"><time>2020-11-01T10:13:51.577</time></trkpt><trkpt lat="55.6053350" lon="38.6704820"><time>2020-11-01T10:13:54.570</time></trkpt><trkpt lat="55.6052770" lon="38.6705070"><time>2020-11-01T10:13:57.577</time></trkpt><trkpt lat="55.6052130" lon="38.6705370"><time>2020-11-01T10:14:00.573</time></trkpt><trkpt lat="55.6051670" lon="38.6705530"><time>2020-11-01T10:14:02.573</time></trkpt><trkpt lat="55.6051130" lon="38.6705680"><time>2020-11-01T10:14:04.577</time></trkpt><trkpt lat="55.6050480" lon="38.6705880"><time>2020-11-01T10:14:06.577</time></trkpt><trkpt lat="55.6049870" lon="38.6706170"><time>2020-11-01T10:14:08.577</time></trkpt><trkpt lat="55.6049380" lon="38.6706580"><time>2020-11-01T10:14:10.577</time></trkpt><trkpt lat="55.6048770" lon="38.6706800"><time>2020-11-01T10:14:13.577</time></trkpt><trkpt lat="55.6048120" lon="38.6707120"><time>2020-11-01T10:14:16.577</time></trkpt><trkpt lat="55.6047600" lon="38.6707320"><time>2020-11-01T10:14:18.577</time></trkpt><trkpt lat="55.6047100" lon="38.6707620"><time>2020-11-01T10:14:20.577</time></trkpt><trkpt lat="55.6046630" lon="38.6707850"><time>2020-11-01T10:14:22.577</time></trkpt><trkpt lat="55.6046150" lon="38.6707870"><time>2020-11-01T10:14:24.577</time></trkpt><trkpt lat="55.6045570" lon="38.6708100"><time>2020-11-01T10:14:26.577</time></trkpt><trkpt lat="55.6045000" lon="38.6708150"><time>2020-11-01T10:14:28.577</time></trkpt><trkpt lat="55.6044530" lon="38.6708270"><time>2020-11-01T10:14:30.577</time></trkpt><trkpt lat="55.6044020" lon="38.6708600"><time>2020-11-01T10:14:32.580</time></trkpt><trkpt lat="55.6043470" lon="38.6709020"><time>2020-11-01T10:14:34.573</time></trkpt><trkpt lat="55.6042980" lon="38.6709230"><time>2020-11-01T10:14:36.573</time></trkpt><trkpt lat="55.6042500" lon="38.6709370"><time>2020-11-01T10:14:38.577</time></trkpt><trkpt lat="55.6042000" lon="38.6709720"><time>2020-11-01T10:14:40.573</time></trkpt><trkpt lat="55.6041480" lon="38.6709980"><time>2020-11-01T10:14:42.577</time></trkpt><trkpt lat="55.6040970" lon="38.6710220"><time>2020-11-01T10:14:44.577</time></trkpt><trkpt lat="55.6040370" lon="38.6710300"><time>2020-11-01T10:14:46.570</time></trkpt><trkpt lat="55.6039950" lon="38.6710600"><time>2020-11-01T10:14:48.577</time></trkpt><trkpt lat="55.6039430" lon="38.6710770"><time>2020-11-01T10:14:51.583</time></trkpt><trkpt lat="55.6038850" lon="38.6711070"><time>2020-11-01T10:14:54.577</time></trkpt><trkpt lat="55.6038270" lon="38.6711070"><time>2020-11-01T10:14:57.577</time></trkpt><trkpt lat="55.6037700" lon="38.6711180"><time>2020-11-01T10:15:00.573</time></trkpt><trkpt lat="55.6037230" lon="38.6711380"><time>2020-11-01T10:15:03.573</time></trkpt><trkpt lat="55.6036600" lon="38.6711720"><time>2020-11-01T10:15:06.577</time></trkpt><trkpt lat="55.6036020" lon="38.6711930"><time>2020-11-01T10:15:09.577</time></trkpt><trkpt lat="55.6035550" lon="38.6711780"><time>2020-11-01T10:15:13.570</time></trkpt><trkpt lat="55.6034600" lon="38.6712070"><time>2020-11-01T10:15:22.577</time></trkpt><trkpt lat="55.6034150" lon="38.6712120"><time>2020-11-01T10:15:24.570</time></trkpt><trkpt lat="55.6033680" lon="38.6712230"><time>2020-11-01T10:15:26.573</time></trkpt><trkpt lat="55.6033230" lon="38.6712400"><time>2020-11-01T10:15:28.577</time></trkpt><trkpt lat="55.6032770" lon="38.6713030"><time>2020-11-01T10:15:30.577</time></trkpt><trkpt lat="55.6032270" lon="38.6713800"><time>2020-11-01T10:15:33.577</time></trkpt><trkpt lat="55.6031930" lon="38.6714420"><time>2020-11-01T10:15:35.577</time></trkpt><trkpt lat="55.6031600" lon="38.6715050"><time>2020-11-01T10:15:37.580</time></trkpt><trkpt lat="55.6031270" lon="38.6715750"><time>2020-11-01T10:15:39.573</time></trkpt><trkpt lat="55.6030930" lon="38.6716330"><time>2020-11-01T10:15:41.577</time></trkpt><trkpt lat="55.6030430" lon="38.6717020"><time>2020-11-01T10:15:44.573</time></trkpt><trkpt lat="55.6029870" lon="38.6717450"><time>2020-11-01T10:15:47.577</time></trkpt><trkpt lat="55.6029330" lon="38.6717930"><time>2020-11-01T10:15:50.580</time></trkpt><trkpt lat="55.6028850" lon="38.6718480"><time>2020-11-01T10:15:52.573</time></trkpt><trkpt lat="55.6028470" lon="38.6718950"><time>2020-11-01T10:15:54.573</time></trkpt><trkpt lat="55.6027970" lon="38.6719150"><time>2020-11-01T10:15:56.577</time></trkpt><trkpt lat="55.6027330" lon="38.6719530"><time>2020-11-01T10:15:59.577</time></trkpt><trkpt lat="55.6026770" lon="38.6719800"><time>2020-11-01T10:16:02.570</time></trkpt><trkpt lat="55.6026150" lon="38.6720020"><time>2020-11-01T10:16:05.577</time></trkpt><trkpt lat="55.6025580" lon="38.6720520"><time>2020-11-01T10:16:08.577</time></trkpt><trkpt lat="55.6025130" lon="38.6720700"><time>2020-11-01T10:16:10.577</time></trkpt><trkpt lat="55.6024620" lon="38.6720780"><time>2020-11-01T10:16:12.577</time></trkpt><trkpt lat="55.6024170" lon="38.6721000"><time>2020-11-01T10:16:14.577</time></trkpt><trkpt lat="55.6023780" lon="38.6721450"><time>2020-11-01T10:16:16.577</time></trkpt><trkpt lat="55.6023100" lon="38.6721700"><time>2020-11-01T10:16:21.577</time></trkpt><trkpt lat="55.6022420" lon="38.6721970"><time>2020-11-01T10:16:26.577</time></trkpt><trkpt lat="55.6021970" lon="38.6722100"><time>2020-11-01T10:16:29.577</time></trkpt><trkpt lat="55.6021370" lon="38.6722370"><time>2020-11-01T10:16:32.577</time></trkpt><trkpt lat="55.6020720" lon="38.6722720"><time>2020-11-01T10:16:35.570</time></trkpt><trkpt lat="55.6020270" lon="38.6723070"><time>2020-11-01T10:16:37.573</time></trkpt><trkpt lat="55.6019800" lon="38.6723250"><time>2020-11-01T10:16:39.573</time></trkpt><trkpt lat="55.6019350" lon="38.6723400"><time>2020-11-01T10:16:42.570</time></trkpt><trkpt lat="55.6018820" lon="38.6723550"><time>2020-11-01T10:16:46.577</time></trkpt><trkpt lat="55.6018270" lon="38.6723770"><time>2020-11-01T10:16:49.573</time></trkpt><trkpt lat="55.6017530" lon="38.6724100"><time>2020-11-01T10:16:54.573</time></trkpt><trkpt lat="55.6017020" lon="38.6724320"><time>2020-11-01T10:16:57.577</time></trkpt><trkpt lat="55.6016530" lon="38.6724730"><time>2020-11-01T10:16:58.570</time></trkpt><trkpt lat="55.6016150" lon="38.6725370"><time>2020-11-01T10:17:03.573</time></trkpt><trkpt lat="55.6015880" lon="38.6726130"><time>2020-11-01T10:17:08.567</time></trkpt><trkpt lat="55.6015620" lon="38.6726950"><time>2020-11-01T10:17:12.570</time></trkpt><trkpt lat="55.6014930" lon="38.6727350"><time>2020-11-01T10:17:15.570</time></trkpt><trkpt lat="55.6015020" lon="38.6728220"><time>2020-11-01T10:17:22.577</time></trkpt><trkpt lat="55.6015150" lon="38.6729080"><time>2020-11-01T10:17:26.570</time></trkpt><trkpt lat="55.6015370" lon="38.6729870"><time>2020-11-01T10:17:31.577</time></trkpt><trkpt lat="55.6015670" lon="38.6730500"><time>2020-11-01T10:17:34.570</time></trkpt><trkpt lat="55.6015750" lon="38.6732520"><time>2020-11-01T10:17:48.573</time></trkpt><trkpt lat="55.6015800" lon="38.6733370"><time>2020-11-01T10:17:55.573</time></trkpt><trkpt lat="55.6015650" lon="38.6734200"><time>2020-11-01T10:18:07.570</time></trkpt><trkpt lat="55.6015220" lon="38.6734500"><time>2020-11-01T10:18:10.570</time></trkpt><trkpt lat="55.6015130" lon="38.6736550"><time>2020-11-01T10:18:34.573</time></trkpt><trkpt lat="55.6014080" lon="38.6736530"><time>2020-11-01T10:18:50.573</time></trkpt><trkpt lat="55.6013120" lon="38.6737270"><time>2020-11-01T10:18:58.567</time></trkpt><trkpt lat="55.6012670" lon="38.6737320"><time>2020-11-01T10:19:00.573</time></trkpt><trkpt lat="55.6012380" lon="38.6737970"><time>2020-11-01T10:19:06.573</time></trkpt><trkpt lat="55.6012480" lon="38.6738830"><time>2020-11-01T10:19:12.573</time></trkpt><trkpt lat="55.6012900" lon="38.6740430"><time>2020-11-01T10:19:26.567</time></trkpt><trkpt lat="55.6012880" lon="38.6741400"><time>2020-11-01T10:19:32.573</time></trkpt><trkpt lat="55.6012930" lon="38.6742370"><time>2020-11-01T10:19:36.577</time></trkpt><trkpt lat="55.6013380" lon="38.6743320"><time>2020-11-01T10:19:42.570</time></trkpt><trkpt lat="55.6013820" lon="38.6744100"><time>2020-11-01T10:19:49.577</time></trkpt><trkpt lat="55.6014180" lon="38.6744650"><time>2020-11-01T10:19:54.573</time></trkpt><trkpt lat="55.6014250" lon="38.6745630"><time>2020-11-01T10:19:58.573</time></trkpt><trkpt lat="55.6014630" lon="38.6747550"><time>2020-11-01T10:20:13.570</time></trkpt><trkpt lat="55.6014800" lon="38.6749530"><time>2020-11-01T10:20:29.570</time></trkpt><trkpt lat="55.6014450" lon="38.6751530"><time>2020-11-01T10:20:44.577</time></trkpt><trkpt lat="55.6014200" lon="38.6753600"><time>2020-11-01T10:20:59.567</time></trkpt><trkpt lat="55.6014180" lon="38.6755750"><time>2020-11-01T10:21:14.573</time></trkpt><trkpt lat="55.6014880" lon="38.6757730"><time>2020-11-01T10:21:28.570</time></trkpt><trkpt lat="55.6015030" lon="38.6759050"><time>2020-11-01T10:21:32.537</time></trkpt><trkpt lat="55.6015330" lon="38.6761980"><time>2020-11-01T10:21:33.527</time></trkpt><trkpt lat="55.6015500" lon="38.6765820"><time>2020-11-01T10:21:34.530</time></trkpt><trkpt lat="55.6014980" lon="38.6770080"><time>2020-11-01T10:21:35.527</time></trkpt><trkpt lat="55.6014800" lon="38.6771130"><time>2020-11-01T10:21:36.537</time></trkpt><trkpt lat="55.6014270" lon="38.6775000"><time>2020-11-01T10:21:37.533</time></trkpt><trkpt lat="55.6013450" lon="38.6778480"><time>2020-11-01T10:21:38.530</time></trkpt><trkpt lat="55.6012180" lon="38.6781070"><time>2020-11-01T10:21:39.527</time></trkpt><trkpt lat="55.6010370" lon="38.6784230"><time>2020-11-01T10:21:40.553</time></trkpt><trkpt lat="55.6008520" lon="38.6787430"><time>2020-11-01T10:21:41.537</time></trkpt><trkpt lat="55.6007650" lon="38.6789670"><time>2020-11-01T10:21:42.540</time></trkpt><trkpt lat="55.6007650" lon="38.6789670"><time>2020-11-01T10:21:42.867</time></trkpt><trkpt lat="55.6003770" lon="38.6794830"><time>2020-11-01T10:21:47.563</time></trkpt><trkpt lat="55.6004630" lon="38.6793470"><time>2020-11-01T10:21:48.563</time></trkpt><trkpt lat="55.6005620" lon="38.6791230"><time>2020-11-01T10:21:49.527</time></trkpt><trkpt lat="55.6005000" lon="38.6791870"><time>2020-11-01T10:21:51.570</time></trkpt><trkpt lat="55.6004170" lon="38.6790250"><time>2020-11-01T10:21:52.570</time></trkpt><trkpt lat="55.6003720" lon="38.6790470"><time>2020-11-01T10:21:53.567</time></trkpt><trkpt lat="55.6003100" lon="38.6790550"><time>2020-11-01T10:21:55.577</time></trkpt><trkpt lat="55.6003630" lon="38.6790100"><time>2020-11-01T10:21:57.573</time></trkpt><trkpt lat="55.6004080" lon="38.6789320"><time>2020-11-01T10:22:00.577</time></trkpt><trkpt lat="55.6004350" lon="38.6788380"><time>2020-11-01T10:22:02.577</time></trkpt><trkpt lat="55.6005170" lon="38.6787070"><time>2020-11-01T10:22:08.577</time></trkpt><trkpt lat="55.6005720" lon="38.6786600"><time>2020-11-01T10:22:11.577</time></trkpt><trkpt lat="55.6006600" lon="38.6786130"><time>2020-11-01T10:22:15.577</time></trkpt><trkpt lat="55.6006930" lon="38.6785450"><time>2020-11-01T10:22:17.573</time></trkpt><trkpt lat="55.6007720" lon="38.6783600"><time>2020-11-01T10:22:25.580</time></trkpt><trkpt lat="55.6008120" lon="38.6783200"><time>2020-11-01T10:22:27.577</time></trkpt><trkpt lat="55.6008450" lon="38.6781370"><time>2020-11-01T10:22:34.573</time></trkpt><trkpt lat="55.6009030" lon="38.6779270"><time>2020-11-01T10:22:45.573</time></trkpt><trkpt lat="55.6010130" lon="38.6777700"><time>2020-11-01T10:22:57.573</time></trkpt><trkpt lat="55.6010620" lon="38.6777370"><time>2020-11-01T10:23:00.573</time></trkpt><trkpt lat="55.6011420" lon="38.6776580"><time>2020-11-01T10:23:05.577</time></trkpt><trkpt lat="55.6012230" lon="38.6774730"><time>2020-11-01T10:23:17.573</time></trkpt><trkpt lat="55.6012370" lon="38.6773930"><time>2020-11-01T10:23:20.573</time></trkpt><trkpt lat="55.6012750" lon="38.6772320"><time>2020-11-01T10:23:27.577</time></trkpt><trkpt lat="55.6012970" lon="38.6771600"><time>2020-11-01T10:23:30.573</time></trkpt><trkpt lat="55.6013330" lon="38.6770770"><time>2020-11-01T10:23:32.573</time></trkpt><trkpt lat="55.6013530" lon="38.6769850"><time>2020-11-01T10:23:35.570</time></trkpt><trkpt lat="55.6014130" lon="38.6768180"><time>2020-11-01T10:23:47.567</time></trkpt><trkpt lat="55.6015120" lon="38.6766770"><time>2020-11-01T10:24:01.573</time></trkpt><trkpt lat="55.6015000" lon="38.6764420"><time>2020-11-01T10:24:10.573</time></trkpt><trkpt lat="55.6015250" lon="38.6762150"><time>2020-11-01T10:24:21.580</time></trkpt><trkpt lat="55.6014280" lon="38.6761230"><time>2020-11-01T10:24:33.573</time></trkpt><trkpt lat="55.6013570" lon="38.6761030"><time>2020-11-01T10:24:39.567</time></trkpt><trkpt lat="55.6013130" lon="38.6760680"><time>2020-11-01T10:24:43.573</time></trkpt><trkpt lat="55.6012450" lon="38.6760850"><time>2020-11-01T10:24:47.573</time></trkpt><trkpt lat="55.6011850" lon="38.6760600"><time>2020-11-01T10:24:51.580</time></trkpt><trkpt lat="55.6011370" lon="38.6760570"><time>2020-11-01T10:24:55.577</time></trkpt><trkpt lat="55.6010070" lon="38.6761100"><time>2020-11-01T10:25:05.577</time></trkpt><trkpt lat="55.6008670" lon="38.6761180"><time>2020-11-01T10:25:15.567</time></trkpt><trkpt lat="55.6008220" lon="38.6761030"><time>2020-11-01T10:25:17.567</time></trkpt><trkpt lat="55.6007250" lon="38.6760820"><time>2020-11-01T10:25:27.573</time></trkpt><trkpt lat="55.6006450" lon="38.6761130"><time>2020-11-01T10:25:32.573</time></trkpt><trkpt lat="55.6005900" lon="38.6761170"><time>2020-11-01T10:25:34.570</time></trkpt><trkpt lat="55.6005250" lon="38.6761030"><time>2020-11-01T10:25:36.570</time></trkpt><trkpt lat="55.6004630" lon="38.6761070"><time>2020-11-01T10:25:39.577</time></trkpt><trkpt lat="55.6004000" lon="38.6760830"><time>2020-11-01T10:25:41.573</time></trkpt><trkpt lat="55.6003400" lon="38.6760680"><time>2020-11-01T10:25:43.570</time></trkpt><trkpt lat="55.6002880" lon="38.6760330"><time>2020-11-01T10:25:45.570</time></trkpt><trkpt lat="55.6002320" lon="38.6760170"><time>2020-11-01T10:25:47.573</time></trkpt><trkpt lat="55.6001730" lon="38.6759730"><time>2020-11-01T10:25:49.573</time></trkpt><trkpt lat="55.6001180" lon="38.6759530"><time>2020-11-01T10:25:51.577</time></trkpt><trkpt lat="55.6000550" lon="38.6759630"><time>2020-11-01T10:25:53.580</time></trkpt><trkpt lat="55.5999870" lon="38.6759800"><time>2020-11-01T10:25:55.577</time></trkpt><trkpt lat="55.5999120" lon="38.6759950"><time>2020-11-01T10:25:57.577</time></trkpt><trkpt lat="55.5998430" lon="38.6759980"><time>2020-11-01T10:25:59.567</time></trkpt><trkpt lat="55.5997820" lon="38.6760080"><time>2020-11-01T10:26:01.577</time></trkpt><trkpt lat="55.5997280" lon="38.6760180"><time>2020-11-01T10:26:04.573</time></trkpt><trkpt lat="55.5996250" lon="38.6760350"><time>2020-11-01T10:26:09.577</time></trkpt><trkpt lat="55.5994570" lon="38.6760600"><time>2020-11-01T10:26:17.577</time></trkpt><trkpt lat="55.5993780" lon="38.6760800"><time>2020-11-01T10:26:18.577</time></trkpt><trkpt lat="55.5992500" lon="38.6760870"><time>2020-11-01T10:26:19.570</time></trkpt><trkpt lat="55.5991870" lon="38.6761320"><time>2020-11-01T10:26:20.573</time></trkpt><trkpt lat="55.5990900" lon="38.6761130"><time>2020-11-01T10:26:21.573</time></trkpt><trkpt lat="55.5990350" lon="38.6760850"><time>2020-11-01T10:26:23.567</time></trkpt><trkpt lat="55.5989680" lon="38.6761120"><time>2020-11-01T10:26:24.580</time></trkpt><trkpt lat="55.5989080" lon="38.6761070"><time>2020-11-01T10:26:25.577</time></trkpt><trkpt lat="55.5988580" lon="38.6760550"><time>2020-11-01T10:26:31.573</time></trkpt><trkpt lat="55.5987280" lon="38.6760650"><time>2020-11-01T10:26:42.560</time></trkpt><trkpt lat="55.5986780" lon="38.6760720"><time>2020-11-01T10:26:43.580</time></trkpt><trkpt lat="55.5985930" lon="38.6759980"><time>2020-11-01T10:26:50.577</time></trkpt><trkpt lat="55.5984550" lon="38.6759620"><time>2020-11-01T10:27:02.580</time></trkpt><trkpt lat="55.5983950" lon="38.6759680"><time>2020-11-01T10:27:04.573</time></trkpt><trkpt lat="55.5983350" lon="38.6759680"><time>2020-11-01T10:27:06.573</time></trkpt><trkpt lat="55.5982830" lon="38.6759720"><time>2020-11-01T10:27:09.590</time></trkpt><trkpt lat="55.5982050" lon="38.6759930"><time>2020-11-01T10:27:16.567</time></trkpt><trkpt lat="55.5981150" lon="38.6761070"><time>2020-11-01T10:27:30.570</time></trkpt><trkpt lat="55.5980730" lon="38.6761380"><time>2020-11-01T10:27:33.570</time></trkpt><trkpt lat="55.5979850" lon="38.6761200"><time>2020-11-01T10:27:43.577</time></trkpt><trkpt lat="55.5978720" lon="38.6760330"><time>2020-11-01T10:27:59.573</time></trkpt><trkpt lat="55.5977330" lon="38.6760230"><time>2020-11-01T10:28:10.573</time></trkpt><trkpt lat="55.5975970" lon="38.6760700"><time>2020-11-01T10:28:19.577</time></trkpt><trkpt lat="55.5975580" lon="38.6761150"><time>2020-11-01T10:28:22.573</time></trkpt><trkpt lat="55.5974700" lon="38.6761830"><time>2020-11-01T10:28:30.577</time></trkpt><trkpt lat="55.5973530" lon="38.6762620"><time>2020-11-01T10:28:41.573</time></trkpt><trkpt lat="55.5972430" lon="38.6763620"><time>2020-11-01T10:28:49.570</time></trkpt><trkpt lat="55.5971050" lon="38.6764120"><time>2020-11-01T10:29:02.570</time></trkpt><trkpt lat="55.5970000" lon="38.6763770"><time>2020-11-01T10:29:13.573</time></trkpt><trkpt lat="55.5968820" lon="38.6763750"><time>2020-11-01T10:29:23.577</time></trkpt><trkpt lat="55.5968130" lon="38.6763420"><time>2020-11-01T10:29:26.553</time></trkpt><trkpt lat="55.5967200" lon="38.6762970"><time>2020-11-01T10:29:33.577</time></trkpt><trkpt lat="55.5965980" lon="38.6762050"><time>2020-11-01T10:29:47.560</time></trkpt><trkpt lat="55.5965470" lon="38.6762100"><time>2020-11-01T10:29:50.570</time></trkpt><trkpt lat="55.5964600" lon="38.6762230"><time>2020-11-01T10:29:56.577</time></trkpt><trkpt lat="55.5964150" lon="38.6762580"><time>2020-11-01T10:29:59.557</time></trkpt><trkpt lat="55.5963620" lon="38.6762750"><time>2020-11-01T10:30:01.573</time></trkpt><trkpt lat="55.5962680" lon="38.6763480"><time>2020-11-01T10:30:08.570</time></trkpt><trkpt lat="55.5962170" lon="38.6763420"><time>2020-11-01T10:30:12.577</time></trkpt><trkpt lat="55.5961320" lon="38.6764070"><time>2020-11-01T10:30:19.583</time></trkpt><trkpt lat="55.5960830" lon="38.6764430"><time>2020-11-01T10:30:22.530</time></trkpt><trkpt lat="55.5960280" lon="38.6764780"><time>2020-11-01T10:30:24.567</time></trkpt><trkpt lat="55.5959580" lon="38.6765100"><time>2020-11-01T10:30:26.577</time></trkpt><trkpt lat="55.5959000" lon="38.6765550"><time>2020-11-01T10:30:29.573</time></trkpt><trkpt lat="55.5957650" lon="38.6766520"><time>2020-11-01T10:30:39.577</time></trkpt><trkpt lat="55.5957000" lon="38.6767030"><time>2020-11-01T10:30:42.577</time></trkpt><trkpt lat="55.5956680" lon="38.6767720"><time>2020-11-01T10:30:44.583</time></trkpt><trkpt lat="55.5956330" lon="38.6768620"><time>2020-11-01T10:30:46.577</time></trkpt><trkpt lat="55.5955930" lon="38.6769220"><time>2020-11-01T10:30:48.577</time></trkpt><trkpt lat="55.5955550" lon="38.6769830"><time>2020-11-01T10:30:51.570</time></trkpt><trkpt lat="55.5954900" lon="38.6770450"><time>2020-11-01T10:30:53.567</time></trkpt><trkpt lat="55.5954450" lon="38.6770950"><time>2020-11-01T10:30:55.573</time></trkpt><trkpt lat="55.5954120" lon="38.6771620"><time>2020-11-01T10:30:57.580</time></trkpt><trkpt lat="55.5953620" lon="38.6772420"><time>2020-11-01T10:30:59.533</time></trkpt><trkpt lat="55.5953170" lon="38.6773200"><time>2020-11-01T10:31:01.563</time></trkpt><trkpt lat="55.5952470" lon="38.6773770"><time>2020-11-01T10:31:03.577</time></trkpt><trkpt lat="55.5952080" lon="38.6774450"><time>2020-11-01T10:31:07.577</time></trkpt><trkpt lat="55.5951730" lon="38.6775000"><time>2020-11-01T10:31:09.547</time></trkpt><trkpt lat="55.5950670" lon="38.6776570"><time>2020-11-01T10:31:23.573</time></trkpt><trkpt lat="55.5949530" lon="38.6777780"><time>2020-11-01T10:31:32.577</time></trkpt><trkpt lat="55.5949170" lon="38.6779750"><time>2020-11-01T10:31:44.580</time></trkpt><trkpt lat="55.5948550" lon="38.6782100"><time>2020-11-01T10:31:58.573</time></trkpt><trkpt lat="55.5948130" lon="38.6783980"><time>2020-11-01T10:32:09.573</time></trkpt><trkpt lat="55.5947200" lon="38.6785480"><time>2020-11-01T10:32:18.577</time></trkpt><trkpt lat="55.5946930" lon="38.6786430"><time>2020-11-01T10:32:20.573</time></trkpt><trkpt lat="55.5946820" lon="38.6787320"><time>2020-11-01T10:32:22.570</time></trkpt><trkpt lat="55.5946720" lon="38.6788120"><time>2020-11-01T10:32:24.577</time></trkpt><trkpt lat="55.5946630" lon="38.6788920"><time>2020-11-01T10:32:26.573</time></trkpt><trkpt lat="55.5946430" lon="38.6789850"><time>2020-11-01T10:32:29.573</time></trkpt><trkpt lat="55.5946130" lon="38.6790780"><time>2020-11-01T10:32:32.577</time></trkpt><trkpt lat="55.5945970" lon="38.6791530"><time>2020-11-01T10:32:34.577</time></trkpt><trkpt lat="55.5945930" lon="38.6792380"><time>2020-11-01T10:32:36.533</time></trkpt><trkpt lat="55.5945830" lon="38.6793280"><time>2020-11-01T10:32:38.573</time></trkpt><trkpt lat="55.5945700" lon="38.6794100"><time>2020-11-01T10:32:40.580</time></trkpt><trkpt lat="55.5945420" lon="38.6794780"><time>2020-11-01T10:32:42.570</time></trkpt><trkpt lat="55.5945170" lon="38.6795730"><time>2020-11-01T10:32:45.580</time></trkpt><trkpt lat="55.5944970" lon="38.6796530"><time>2020-11-01T10:32:48.577</time></trkpt><trkpt lat="55.5944580" lon="38.6797330"><time>2020-11-01T10:32:51.580</time></trkpt><trkpt lat="55.5943850" lon="38.6798780"><time>2020-11-01T10:32:59.573</time></trkpt><trkpt lat="55.5943370" lon="38.6799070"><time>2020-11-01T10:33:01.573</time></trkpt><trkpt lat="55.5942280" lon="38.6800280"><time>2020-11-01T10:33:10.573</time></trkpt><trkpt lat="55.5941780" lon="38.6800550"><time>2020-11-01T10:33:13.577</time></trkpt><trkpt lat="55.5940850" lon="38.6801280"><time>2020-11-01T10:33:19.573</time></trkpt><trkpt lat="55.5940280" lon="38.6801600"><time>2020-11-01T10:33:22.573</time></trkpt><trkpt lat="55.5939650" lon="38.6802850"><time>2020-11-01T10:33:29.577</time></trkpt><trkpt lat="55.5938450" lon="38.6803550"><time>2020-11-01T10:33:39.533</time></trkpt><trkpt lat="55.5938000" lon="38.6803600"><time>2020-11-01T10:33:41.567</time></trkpt><trkpt lat="55.5936820" lon="38.6804180"><time>2020-11-01T10:33:47.573</time></trkpt><trkpt lat="55.5935800" lon="38.6805370"><time>2020-11-01T10:33:54.577</time></trkpt><trkpt lat="55.5935270" lon="38.6805870"><time>2020-11-01T10:33:57.577</time></trkpt><trkpt lat="55.5934670" lon="38.6807180"><time>2020-11-01T10:34:07.570</time></trkpt><trkpt lat="55.5934330" lon="38.6807770"><time>2020-11-01T10:34:10.567</time></trkpt><trkpt lat="55.5933620" lon="38.6808970"><time>2020-11-01T10:34:17.577</time></trkpt><trkpt lat="55.5932450" lon="38.6810470"><time>2020-11-01T10:34:27.573</time></trkpt><trkpt lat="55.5932170" lon="38.6811620"><time>2020-11-01T10:34:31.577</time></trkpt><trkpt lat="55.5931670" lon="38.6812600"><time>2020-11-01T10:34:33.573</time></trkpt><trkpt lat="55.5931030" lon="38.6813150"><time>2020-11-01T10:34:35.560</time></trkpt><trkpt lat="55.5930700" lon="38.6813720"><time>2020-11-01T10:34:36.573</time></trkpt><trkpt lat="55.5930450" lon="38.6814380"><time>2020-11-01T10:34:38.577</time></trkpt><trkpt lat="55.5930470" lon="38.6816320"><time>2020-11-01T10:34:45.577</time></trkpt><trkpt lat="55.5930020" lon="38.6817980"><time>2020-11-01T10:34:51.577</time></trkpt><trkpt lat="55.5929820" lon="38.6818730"><time>2020-11-01T10:34:53.577</time></trkpt><trkpt lat="55.5928800" lon="38.6819980"><time>2020-11-01T10:35:00.553</time></trkpt><trkpt lat="55.5928370" lon="38.6821880"><time>2020-11-01T10:35:08.573</time></trkpt><trkpt lat="55.5928120" lon="38.6822550"><time>2020-11-01T10:35:10.573</time></trkpt><trkpt lat="55.5927850" lon="38.6823730"><time>2020-11-01T10:35:12.573</time></trkpt><trkpt lat="55.5927650" lon="38.6825150"><time>2020-11-01T10:35:14.570</time></trkpt><trkpt lat="55.5927300" lon="38.6826080"><time>2020-11-01T10:35:16.567</time></trkpt><trkpt lat="55.5926870" lon="38.6827150"><time>2020-11-01T10:35:19.577</time></trkpt><trkpt lat="55.5926530" lon="38.6828320"><time>2020-11-01T10:35:21.583</time></trkpt><trkpt lat="55.5926280" lon="38.6829330"><time>2020-11-01T10:35:23.573</time></trkpt><trkpt lat="55.5926070" lon="38.6830230"><time>2020-11-01T10:35:25.570</time></trkpt><trkpt lat="55.5925570" lon="38.6830980"><time>2020-11-01T10:35:28.583</time></trkpt><trkpt lat="55.5925300" lon="38.6831750"><time>2020-11-01T10:35:30.577</time></trkpt><trkpt lat="55.5924800" lon="38.6832350"><time>2020-11-01T10:35:32.573</time></trkpt><trkpt lat="55.5924200" lon="38.6832870"><time>2020-11-01T10:35:35.570</time></trkpt><trkpt lat="55.5923780" lon="38.6833670"><time>2020-11-01T10:35:36.577</time></trkpt><trkpt lat="55.5923200" lon="38.6834120"><time>2020-11-01T10:35:38.577</time></trkpt><trkpt lat="55.5922620" lon="38.6834530"><time>2020-11-01T10:35:41.573</time></trkpt><trkpt lat="55.5922020" lon="38.6834880"><time>2020-11-01T10:35:44.577</time></trkpt><trkpt lat="55.5920520" lon="38.6836450"><time>2020-11-01T10:35:45.577</time></trkpt><trkpt lat="55.5919420" lon="38.6837630"><time>2020-11-01T10:35:46.577</time></trkpt><trkpt lat="55.5918430" lon="38.6838380"><time>2020-11-01T10:35:47.570</time></trkpt><trkpt lat="55.5917120" lon="38.6838970"><time>2020-11-01T10:35:52.567</time></trkpt><trkpt lat="55.5916780" lon="38.6838380"><time>2020-11-01T10:35:53.560</time></trkpt><trkpt lat="55.5916300" lon="38.6841400"><time>2020-11-01T10:35:54.573</time></trkpt><trkpt lat="55.5915720" lon="38.6841450"><time>2020-11-01T10:35:55.583</time></trkpt><trkpt lat="55.5914970" lon="38.6841000"><time>2020-11-01T10:35:56.577</time></trkpt><trkpt lat="55.5913930" lon="38.6845320"><time>2020-11-01T10:35:57.553</time></trkpt><trkpt lat="55.5911530" lon="38.6847270"><time>2020-11-01T10:35:58.577</time></trkpt><trkpt lat="55.5910800" lon="38.6848900"><time>2020-11-01T10:35:59.583</time></trkpt><trkpt lat="55.5910370" lon="38.6849650"><time>2020-11-01T10:36:00.583</time></trkpt><trkpt lat="55.5909850" lon="38.6851130"><time>2020-11-01T10:36:01.573</time></trkpt><trkpt lat="55.5909080" lon="38.6852530"><time>2020-11-01T10:36:02.577</time></trkpt><trkpt lat="55.5908720" lon="38.6853200"><time>2020-11-01T10:36:03.573</time></trkpt><trkpt lat="55.5908180" lon="38.6853750"><time>2020-11-01T10:36:04.577</time></trkpt><trkpt lat="55.5907700" lon="38.6854470"><time>2020-11-01T10:36:06.577</time></trkpt><trkpt lat="55.5907120" lon="38.6855150"><time>2020-11-01T10:36:08.573</time></trkpt><trkpt lat="55.5906600" lon="38.6855400"><time>2020-11-01T10:36:12.577</time></trkpt><trkpt lat="55.5906030" lon="38.6855330"><time>2020-11-01T10:36:17.573</time></trkpt><trkpt lat="55.5905450" lon="38.6855330"><time>2020-11-01T10:36:21.577</time></trkpt><trkpt lat="55.5904730" lon="38.6855230"><time>2020-11-01T10:36:25.573</time></trkpt><trkpt lat="55.5904280" lon="38.6855200"><time>2020-11-01T10:36:27.577</time></trkpt><trkpt lat="55.5903670" lon="38.6854520"><time>2020-11-01T10:36:30.567</time></trkpt><trkpt lat="55.5903100" lon="38.6854650"><time>2020-11-01T10:36:33.553</time></trkpt><trkpt lat="55.5902570" lon="38.6854330"><time>2020-11-01T10:36:36.567</time></trkpt><trkpt lat="55.5902030" lon="38.6853950"><time>2020-11-01T10:36:39.573</time></trkpt><trkpt lat="55.5901470" lon="38.6853520"><time>2020-11-01T10:36:41.573</time></trkpt><trkpt lat="55.5900750" lon="38.6853250"><time>2020-11-01T10:36:44.570</time></trkpt><trkpt lat="55.5900020" lon="38.6852920"><time>2020-11-01T10:36:46.573</time></trkpt><trkpt lat="55.5899530" lon="38.6852850"><time>2020-11-01T10:36:48.533</time></trkpt><trkpt lat="55.5899050" lon="38.6852730"><time>2020-11-01T10:36:50.580</time></trkpt><trkpt lat="55.5898580" lon="38.6852450"><time>2020-11-01T10:36:52.577</time></trkpt><trkpt lat="55.5898070" lon="38.6852400"><time>2020-11-01T10:36:54.560</time></trkpt><trkpt lat="55.5897530" lon="38.6852300"><time>2020-11-01T10:36:56.577</time></trkpt><trkpt lat="55.5896900" lon="38.6852100"><time>2020-11-01T10:36:58.577</time></trkpt><trkpt lat="55.5896280" lon="38.6851850"><time>2020-11-01T10:37:00.577</time></trkpt><trkpt lat="55.5895820" lon="38.6851750"><time>2020-11-01T10:37:02.570</time></trkpt><trkpt lat="55.5895280" lon="38.6851750"><time>2020-11-01T10:37:04.573</time></trkpt><trkpt lat="55.5894620" lon="38.6851730"><time>2020-11-01T10:37:06.570</time></trkpt><trkpt lat="55.5893930" lon="38.6851750"><time>2020-11-01T10:37:08.570</time></trkpt><trkpt lat="55.5893300" lon="38.6851880"><time>2020-11-01T10:37:10.577</time></trkpt><trkpt lat="55.5892870" lon="38.6852180"><time>2020-11-01T10:37:12.583</time></trkpt><trkpt lat="55.5892430" lon="38.6852550"><time>2020-11-01T10:37:14.573</time></trkpt><trkpt lat="55.5891930" lon="38.6852970"><time>2020-11-01T10:37:16.583</time></trkpt><trkpt lat="55.5891450" lon="38.6853480"><time>2020-11-01T10:37:18.577</time></trkpt><trkpt lat="55.5890920" lon="38.6853930"><time>2020-11-01T10:37:20.940</time></trkpt><trkpt lat="55.5890380" lon="38.6854580"><time>2020-11-01T10:37:23.580</time></trkpt><trkpt lat="55.5889870" lon="38.6855100"><time>2020-11-01T10:37:26.580</time></trkpt><trkpt lat="55.5889280" lon="38.6855430"><time>2020-11-01T10:37:28.587</time></trkpt><trkpt lat="55.5888750" lon="38.6855670"><time>2020-11-01T10:37:30.580</time></trkpt><trkpt lat="55.5888270" lon="38.6855830"><time>2020-11-01T10:37:32.567</time></trkpt><trkpt lat="55.5887770" lon="38.6855970"><time>2020-11-01T10:37:34.577</time></trkpt><trkpt lat="55.5887320" lon="38.6856130"><time>2020-11-01T10:37:36.573</time></trkpt><trkpt lat="55.5886800" lon="38.6856300"><time>2020-11-01T10:37:39.583</time></trkpt><trkpt lat="55.5886180" lon="38.6856530"><time>2020-11-01T10:37:42.580</time></trkpt><trkpt lat="55.5885570" lon="38.6856820"><time>2020-11-01T10:37:45.563</time></trkpt><trkpt lat="55.5884980" lon="38.6857230"><time>2020-11-01T10:37:48.567</time></trkpt><trkpt lat="55.5884370" lon="38.6857570"><time>2020-11-01T10:37:51.590</time></trkpt><trkpt lat="55.5883880" lon="38.6858120"><time>2020-11-01T10:37:54.577</time></trkpt><trkpt lat="55.5883300" lon="38.6858570"><time>2020-11-01T10:37:57.587</time></trkpt><trkpt lat="55.5882880" lon="38.6858900"><time>2020-11-01T10:37:59.577</time></trkpt><trkpt lat="55.5882380" lon="38.6859400"><time>2020-11-01T10:38:02.570</time></trkpt><trkpt lat="55.5881920" lon="38.6859950"><time>2020-11-01T10:38:05.573</time></trkpt><trkpt lat="55.5881570" lon="38.6860520"><time>2020-11-01T10:38:08.577</time></trkpt><trkpt lat="55.5881080" lon="38.6861000"><time>2020-11-01T10:38:11.573</time></trkpt><trkpt lat="55.5880620" lon="38.6861620"><time>2020-11-01T10:38:15.577</time></trkpt><trkpt lat="55.5880250" lon="38.6862100"><time>2020-11-01T10:38:18.563</time></trkpt><trkpt lat="55.5879770" lon="38.6862680"><time>2020-11-01T10:38:21.577</time></trkpt><trkpt lat="55.5879380" lon="38.6863250"><time>2020-11-01T10:38:24.577</time></trkpt><trkpt lat="55.5879000" lon="38.6863720"><time>2020-11-01T10:38:27.577</time></trkpt><trkpt lat="55.5878650" lon="38.6864220"><time>2020-11-01T10:38:30.570</time></trkpt><trkpt lat="55.5878370" lon="38.6864850"><time>2020-11-01T10:38:33.577</time></trkpt><trkpt lat="55.5877930" lon="38.6865670"><time>2020-11-01T10:38:36.587</time></trkpt><trkpt lat="55.5877480" lon="38.6866420"><time>2020-11-01T10:38:39.577</time></trkpt><trkpt lat="55.5877080" lon="38.6867150"><time>2020-11-01T10:38:42.573</time></trkpt><trkpt lat="55.5876730" lon="38.6867770"><time>2020-11-01T10:38:45.573</time></trkpt><trkpt lat="55.5876370" lon="38.6868270"><time>2020-11-01T10:38:48.577</time></trkpt><trkpt lat="55.5876020" lon="38.6868850"><time>2020-11-01T10:38:51.577</time></trkpt><trkpt lat="55.5875630" lon="38.6869450"><time>2020-11-01T10:38:56.583</time></trkpt><trkpt lat="55.5875280" lon="38.6870280"><time>2020-11-01T10:39:02.577</time></trkpt><trkpt lat="55.5874950" lon="38.6871330"><time>2020-11-01T10:39:09.580</time></trkpt><trkpt lat="55.5874600" lon="38.6872050"><time>2020-11-01T10:39:12.577</time></trkpt><trkpt lat="55.5874320" lon="38.6872700"><time>2020-11-01T10:39:15.587</time></trkpt><trkpt lat="55.5874000" lon="38.6873430"><time>2020-11-01T10:39:19.583</time></trkpt><trkpt lat="55.5873680" lon="38.6874330"><time>2020-11-01T10:39:24.583</time></trkpt><trkpt lat="55.5873370" lon="38.6875200"><time>2020-11-01T10:39:27.583</time></trkpt><trkpt lat="55.5872980" lon="38.6875850"><time>2020-11-01T10:39:30.577</time></trkpt><trkpt lat="55.5872620" lon="38.6876450"><time>2020-11-01T10:39:34.577</time></trkpt><trkpt lat="55.5872170" lon="38.6876370"><time>2020-11-01T10:39:39.573</time></trkpt><trkpt lat="55.5871750" lon="38.6875970"><time>2020-11-01T10:39:45.580</time></trkpt><trkpt lat="55.5871250" lon="38.6875530"><time>2020-11-01T10:39:49.577</time></trkpt><trkpt lat="55.5870950" lon="38.6874820"><time>2020-11-01T10:39:55.573</time></trkpt><trkpt lat="55.5870750" lon="38.6873920"><time>2020-11-01T10:39:59.563</time></trkpt><trkpt lat="55.5870370" lon="38.6873180"><time>2020-11-01T10:40:05.570</time></trkpt><trkpt lat="55.5869880" lon="38.6872680"><time>2020-11-01T10:40:09.570</time></trkpt><trkpt lat="55.5869420" lon="38.6872150"><time>2020-11-01T10:40:14.577</time></trkpt><trkpt lat="55.5868970" lon="38.6871620"><time>2020-11-01T10:40:18.577</time></trkpt><trkpt lat="55.5868700" lon="38.6870820"><time>2020-11-01T10:40:22.580</time></trkpt><trkpt lat="55.5867800" lon="38.6869950"><time>2020-11-01T10:40:35.580</time></trkpt><trkpt lat="55.5867520" lon="38.6868980"><time>2020-11-01T10:40:38.580</time></trkpt><trkpt lat="55.5867430" lon="38.6868050"><time>2020-11-01T10:40:41.577</time></trkpt><trkpt lat="55.5867180" lon="38.6867320"><time>2020-11-01T10:40:46.580</time></trkpt><trkpt lat="55.5867150" lon="38.6866370"><time>2020-11-01T10:40:50.577</time></trkpt><trkpt lat="55.5867100" lon="38.6865530"><time>2020-11-01T10:40:56.580</time></trkpt><trkpt lat="55.5866700" lon="38.6863570"><time>2020-11-01T10:41:15.580</time></trkpt><trkpt lat="55.5865950" lon="38.6861770"><time>2020-11-01T10:41:28.577</time></trkpt><trkpt lat="55.5865530" lon="38.6860980"><time>2020-11-01T10:41:35.583</time></trkpt><trkpt lat="55.5864720" lon="38.6860380"><time>2020-11-01T10:41:44.577</time></trkpt><trkpt lat="55.5864330" lon="38.6859680"><time>2020-11-01T10:41:48.577</time></trkpt><trkpt lat="55.5863570" lon="38.6859130"><time>2020-11-01T10:42:08.550</time></trkpt><trkpt lat="55.5863030" lon="38.6859120"><time>2020-11-01T10:42:09.547</time></trkpt><trkpt lat="55.5862620" lon="38.6858700"><time>2020-11-01T10:42:11.550</time></trkpt><trkpt lat="55.5861180" lon="38.6859170"><time>2020-11-01T10:42:25.580</time></trkpt><trkpt lat="55.5860700" lon="38.6858500"><time>2020-11-01T10:42:37.573</time></trkpt><trkpt lat="55.5860570" lon="38.6857620"><time>2020-11-01T10:42:41.577</time></trkpt><trkpt lat="55.5860280" lon="38.6856900"><time>2020-11-01T10:42:45.580</time></trkpt><trkpt lat="55.5860280" lon="38.6856070"><time>2020-11-01T10:42:50.550</time></trkpt><trkpt lat="55.5860320" lon="38.6855250"><time>2020-11-01T10:42:51.533</time></trkpt><trkpt lat="55.5860320" lon="38.6854470"><time>2020-11-01T10:42:52.860</time></trkpt><trkpt lat="55.5860220" lon="38.6854070"><time>2020-11-01T10:42:53.533</time></trkpt><trkpt lat="55.5859220" lon="38.6857100"><time>2020-11-01T10:42:54.530</time></trkpt><trkpt lat="55.5859850" lon="38.6857100"><time>2020-11-01T10:42:56.533</time></trkpt><trkpt lat="55.5860420" lon="38.6858250"><time>2020-11-01T10:42:57.550</time></trkpt><trkpt lat="55.5860780" lon="38.6857270"><time>2020-11-01T10:43:02.563</time></trkpt><trkpt lat="55.5861070" lon="38.6856230"><time>2020-11-01T10:43:03.553</time></trkpt><trkpt lat="55.5861430" lon="38.6855050"><time>2020-11-01T10:43:04.547</time></trkpt><trkpt lat="55.5861770" lon="38.6853820"><time>2020-11-01T10:43:05.537</time></trkpt><trkpt lat="55.5862050" lon="38.6852230"><time>2020-11-01T10:43:06.540</time></trkpt><trkpt lat="55.5862400" lon="38.6850650"><time>2020-11-01T10:43:07.540</time></trkpt><trkpt lat="55.5862120" lon="38.6851980"><time>2020-11-01T10:43:10.577</time></trkpt><trkpt lat="55.5861820" lon="38.6853680"><time>2020-11-01T10:43:11.553</time></trkpt><trkpt lat="55.5861430" lon="38.6855620"><time>2020-11-01T10:43:12.537</time></trkpt><trkpt lat="55.5860700" lon="38.6857430"><time>2020-11-01T10:43:13.550</time></trkpt><trkpt lat="55.5860370" lon="38.6858150"><time>2020-11-01T10:43:14.573</time></trkpt><trkpt lat="55.5859830" lon="38.6859250"><time>2020-11-01T10:43:16.577</time></trkpt><trkpt lat="55.5859350" lon="38.6859530"><time>2020-11-01T10:43:22.560</time></trkpt><trkpt lat="55.5859330" lon="38.6860670"><time>2020-11-01T10:43:26.570</time></trkpt><trkpt lat="55.5859350" lon="38.6861580"><time>2020-11-01T10:43:32.570</time></trkpt><trkpt lat="55.5859320" lon="38.6862500"><time>2020-11-01T10:43:39.553</time></trkpt><trkpt lat="55.5859070" lon="38.6863220"><time>2020-11-01T10:43:46.577</time></trkpt><trkpt lat="55.5858720" lon="38.6864070"><time>2020-11-01T10:43:52.587</time></trkpt><trkpt lat="55.5858730" lon="38.6864950"><time>2020-11-01T10:43:58.583</time></trkpt><trkpt lat="55.5858570" lon="38.6865750"><time>2020-11-01T10:44:03.580</time></trkpt><trkpt lat="55.5858400" lon="38.6866570"><time>2020-11-01T10:44:07.587</time></trkpt><trkpt lat="55.5858270" lon="38.6867350"><time>2020-11-01T10:44:11.577</time></trkpt><trkpt lat="55.5857980" lon="38.6867970"><time>2020-11-01T10:44:15.583</time></trkpt><trkpt lat="55.5857580" lon="38.6868650"><time>2020-11-01T10:44:18.577</time></trkpt><trkpt lat="55.5857170" lon="38.6869750"><time>2020-11-01T10:44:26.577</time></trkpt><trkpt lat="55.5857080" lon="38.6870600"><time>2020-11-01T10:44:31.587</time></trkpt><trkpt lat="55.5856800" lon="38.6871520"><time>2020-11-01T10:44:38.580</time></trkpt><trkpt lat="55.5856620" lon="38.6872320"><time>2020-11-01T10:44:42.593</time></trkpt><trkpt lat="55.5856030" lon="38.6873750"><time>2020-11-01T10:44:54.580</time></trkpt><trkpt lat="55.5855750" lon="38.6874370"><time>2020-11-01T10:44:58.577</time></trkpt><trkpt lat="55.5855250" lon="38.6875680"><time>2020-11-01T10:45:14.570</time></trkpt><trkpt lat="55.5854280" lon="38.6876770"><time>2020-11-01T10:45:24.580</time></trkpt><trkpt lat="55.5853820" lon="38.6877070"><time>2020-11-01T10:45:27.580</time></trkpt><trkpt lat="55.5852800" lon="38.6877600"><time>2020-11-01T10:45:36.573</time></trkpt><trkpt lat="55.5852330" lon="38.6877770"><time>2020-11-01T10:45:38.580</time></trkpt><trkpt lat="55.5851750" lon="38.6877830"><time>2020-11-01T10:45:41.577</time></trkpt><trkpt lat="55.5850630" lon="38.6878770"><time>2020-11-01T10:45:56.583</time></trkpt><trkpt lat="55.5849320" lon="38.6879320"><time>2020-11-01T10:46:06.577</time></trkpt><trkpt lat="55.5848580" lon="38.6879570"><time>2020-11-01T10:46:09.580</time></trkpt><trkpt lat="55.5848100" lon="38.6879600"><time>2020-11-01T10:46:12.583</time></trkpt><trkpt lat="55.5847220" lon="38.6879980"><time>2020-11-01T10:46:18.577</time></trkpt><trkpt lat="55.5846750" lon="38.6880380"><time>2020-11-01T10:46:21.580</time></trkpt><trkpt lat="55.5845780" lon="38.6880600"><time>2020-11-01T10:46:27.583</time></trkpt><trkpt lat="55.5844880" lon="38.6880880"><time>2020-11-01T10:46:39.577</time></trkpt><trkpt lat="55.5843980" lon="38.6880600"><time>2020-11-01T10:46:49.577</time></trkpt><trkpt lat="55.5842570" lon="38.6880880"><time>2020-11-01T10:47:02.580</time></trkpt><trkpt lat="55.5842100" lon="38.6880770"><time>2020-11-01T10:47:05.580</time></trkpt><trkpt lat="55.5841030" lon="38.6880470"><time>2020-11-01T10:47:11.577</time></trkpt><trkpt lat="55.5840420" lon="38.6880300"><time>2020-11-01T10:47:14.580</time></trkpt><trkpt lat="55.5839430" lon="38.6880520"><time>2020-11-01T10:47:19.577</time></trkpt><trkpt lat="55.5838970" lon="38.6880750"><time>2020-11-01T10:47:21.577</time></trkpt><trkpt lat="55.5837930" lon="38.6880930"><time>2020-11-01T10:47:29.573</time></trkpt><trkpt lat="55.5836700" lon="38.6881520"><time>2020-11-01T10:47:46.573</time></trkpt><trkpt lat="55.5836280" lon="38.6881930"><time>2020-11-01T10:47:49.577</time></trkpt><trkpt lat="55.5835330" lon="38.6882730"><time>2020-11-01T10:47:56.577</time></trkpt><trkpt lat="55.5834170" lon="38.6884120"><time>2020-11-01T10:48:05.577</time></trkpt><trkpt lat="55.5833830" lon="38.6884730"><time>2020-11-01T10:48:08.577</time></trkpt><trkpt lat="55.5832980" lon="38.6885380"><time>2020-11-01T10:48:16.580</time></trkpt><trkpt lat="55.5831870" lon="38.6885420"><time>2020-11-01T10:48:30.577</time></trkpt><trkpt lat="55.5830680" lon="38.6885280"><time>2020-11-01T10:48:47.580</time></trkpt><trkpt lat="55.5830230" lon="38.6885100"><time>2020-11-01T10:48:50.577</time></trkpt><trkpt lat="55.5829750" lon="38.6884830"><time>2020-11-01T10:48:53.580</time></trkpt><trkpt lat="55.5829230" lon="38.6884620"><time>2020-11-01T10:48:55.587</time></trkpt><trkpt lat="55.5828120" lon="38.6884830"><time>2020-11-01T10:49:05.573</time></trkpt><trkpt lat="55.5826100" lon="38.6884380"><time>2020-11-01T10:49:15.583</time></trkpt><trkpt lat="55.5825620" lon="38.6884300"><time>2020-11-01T10:49:18.580</time></trkpt><trkpt lat="55.5823870" lon="38.6883550"><time>2020-11-01T10:49:21.560</time></trkpt><trkpt lat="55.5822620" lon="38.6883020"><time>2020-11-01T10:49:22.580</time></trkpt><trkpt lat="55.5821530" lon="38.6882780"><time>2020-11-01T10:49:24.583</time></trkpt><trkpt lat="55.5820270" lon="38.6882420"><time>2020-11-01T10:49:26.580</time></trkpt><trkpt lat="55.5819000" lon="38.6882200"><time>2020-11-01T10:49:28.580</time></trkpt><trkpt lat="55.5817730" lon="38.6881580"><time>2020-11-01T10:49:31.580</time></trkpt><trkpt lat="55.5816120" lon="38.6881120"><time>2020-11-01T10:49:35.573</time></trkpt><trkpt lat="55.5815500" lon="38.6880750"><time>2020-11-01T10:49:37.587</time></trkpt><trkpt lat="55.5815000" lon="38.6879930"><time>2020-11-01T10:49:38.580</time></trkpt><trkpt lat="55.5814180" lon="38.6879680"><time>2020-11-01T10:49:40.580</time></trkpt><trkpt lat="55.5813000" lon="38.6878800"><time>2020-11-01T10:49:48.573</time></trkpt><trkpt lat="55.5812550" lon="38.6878780"><time>2020-11-01T10:49:50.580</time></trkpt><trkpt lat="55.5811570" lon="38.6877970"><time>2020-11-01T10:49:57.580</time></trkpt><trkpt lat="55.5811280" lon="38.6877120"><time>2020-11-01T10:50:00.580</time></trkpt><trkpt lat="55.5810550" lon="38.6876670"><time>2020-11-01T10:50:02.580</time></trkpt><trkpt lat="55.5810030" lon="38.6876400"><time>2020-11-01T10:50:03.580</time></trkpt><trkpt lat="55.5809380" lon="38.6876150"><time>2020-11-01T10:50:05.577</time></trkpt><trkpt lat="55.5808830" lon="38.6875780"><time>2020-11-01T10:50:07.577</time></trkpt><trkpt lat="55.5808280" lon="38.6875230"><time>2020-11-01T10:50:09.583</time></trkpt><trkpt lat="55.5807820" lon="38.6874680"><time>2020-11-01T10:50:11.580</time></trkpt><trkpt lat="55.5807070" lon="38.6873670"><time>2020-11-01T10:50:13.577</time></trkpt><trkpt lat="55.5806700" lon="38.6872950"><time>2020-11-01T10:50:15.587</time></trkpt><trkpt lat="55.5806050" lon="38.6872480"><time>2020-11-01T10:50:17.577</time></trkpt><trkpt lat="55.5805580" lon="38.6872370"><time>2020-11-01T10:50:20.580</time></trkpt><trkpt lat="55.5804970" lon="38.6872580"><time>2020-11-01T10:50:25.577</time></trkpt><trkpt lat="55.5804480" lon="38.6872530"><time>2020-11-01T10:50:28.573</time></trkpt><trkpt lat="55.5804030" lon="38.6872780"><time>2020-11-01T10:50:34.583</time></trkpt><trkpt lat="55.5803470" lon="38.6873150"><time>2020-11-01T10:50:37.587</time></trkpt><trkpt lat="55.5803000" lon="38.6873420"><time>2020-11-01T10:50:41.583</time></trkpt><trkpt lat="55.5802550" lon="38.6873680"><time>2020-11-01T10:50:45.587</time></trkpt><trkpt lat="55.5801850" lon="38.6874250"><time>2020-11-01T10:50:52.573</time></trkpt><trkpt lat="55.5801420" lon="38.6874530"><time>2020-11-01T10:50:55.580</time></trkpt><trkpt lat="55.5800970" lon="38.6874750"><time>2020-11-01T10:50:58.583</time></trkpt><trkpt lat="55.5800470" lon="38.6874930"><time>2020-11-01T10:51:02.577</time></trkpt><trkpt lat="55.5799680" lon="38.6875480"><time>2020-11-01T10:51:08.583</time></trkpt><trkpt lat="55.5799120" lon="38.6875830"><time>2020-11-01T10:51:11.577</time></trkpt><trkpt lat="55.5798720" lon="38.6876250"><time>2020-11-01T10:51:15.577</time></trkpt><trkpt lat="55.5798280" lon="38.6877030"><time>2020-11-01T10:51:25.577</time></trkpt><trkpt lat="55.5797320" lon="38.6878030"><time>2020-11-01T10:51:44.577</time></trkpt><trkpt lat="55.5796930" lon="38.6879380"><time>2020-11-01T10:51:56.580</time></trkpt><trkpt lat="55.5796650" lon="38.6880100"><time>2020-11-01T10:52:00.583</time></trkpt><trkpt lat="55.5796270" lon="38.6880670"><time>2020-11-01T10:52:03.590</time></trkpt><trkpt lat="55.5795830" lon="38.6881320"><time>2020-11-01T10:52:06.580</time></trkpt><trkpt lat="55.5795430" lon="38.6881950"><time>2020-11-01T10:52:09.580</time></trkpt><trkpt lat="55.5795000" lon="38.6882380"><time>2020-11-01T10:52:12.583</time></trkpt><trkpt lat="55.5794530" lon="38.6882770"><time>2020-11-01T10:52:16.577</time></trkpt><trkpt lat="55.5794180" lon="38.6883430"><time>2020-11-01T10:52:20.583</time></trkpt><trkpt lat="55.5793780" lon="38.6884320"><time>2020-11-01T10:52:23.580</time></trkpt><trkpt lat="55.5793330" lon="38.6885100"><time>2020-11-01T10:52:28.577</time></trkpt><trkpt lat="55.5793380" lon="38.6885920"><time>2020-11-01T10:52:31.583</time></trkpt><trkpt lat="55.5793020" lon="38.6887850"><time>2020-11-01T10:52:45.583</time></trkpt><trkpt lat="55.5792080" lon="38.6889300"><time>2020-11-01T10:52:59.550</time></trkpt><trkpt lat="55.5791670" lon="38.6889730"><time>2020-11-01T10:53:03.580</time></trkpt><trkpt lat="55.5791300" lon="38.6890370"><time>2020-11-01T10:53:05.583</time></trkpt><trkpt lat="55.5790850" lon="38.6890900"><time>2020-11-01T10:53:08.583</time></trkpt><trkpt lat="55.5790330" lon="38.6891430"><time>2020-11-01T10:53:12.580</time></trkpt><trkpt lat="55.5789480" lon="38.6892850"><time>2020-11-01T10:53:19.580</time></trkpt><trkpt lat="55.5789020" lon="38.6893200"><time>2020-11-01T10:53:24.580</time></trkpt><trkpt lat="55.5788330" lon="38.6894550"><time>2020-11-01T10:53:38.580</time></trkpt><trkpt lat="55.5787330" lon="38.6895580"><time>2020-11-01T10:53:50.573</time></trkpt><trkpt lat="55.5786230" lon="38.6895630"><time>2020-11-01T10:54:02.580</time></trkpt><trkpt lat="55.5784950" lon="38.6895650"><time>2020-11-01T10:54:14.583</time></trkpt><trkpt lat="55.5784420" lon="38.6895370"><time>2020-11-01T10:54:17.580</time></trkpt><trkpt lat="55.5783920" lon="38.6895300"><time>2020-11-01T10:54:21.583</time></trkpt><trkpt lat="55.5783480" lon="38.6894720"><time>2020-11-01T10:54:23.577</time></trkpt><trkpt lat="55.5782920" lon="38.6893380"><time>2020-11-01T10:54:37.577</time></trkpt><trkpt lat="55.5782530" lon="38.6892930"><time>2020-11-01T10:54:41.577</time></trkpt><trkpt lat="55.5781450" lon="38.6893150"><time>2020-11-01T10:55:03.577</time></trkpt><trkpt lat="55.5781480" lon="38.6894000"><time>2020-11-01T10:55:15.583</time></trkpt><trkpt lat="55.5781430" lon="38.6894870"><time>2020-11-01T10:55:20.573</time></trkpt><trkpt lat="55.5781450" lon="38.6896630"><time>2020-11-01T10:55:32.573</time></trkpt><trkpt lat="55.5781180" lon="38.6897380"><time>2020-11-01T10:55:35.573</time></trkpt><trkpt lat="55.5781470" lon="38.6898120"><time>2020-11-01T10:55:43.577</time></trkpt><trkpt lat="55.5781830" lon="38.6899530"><time>2020-11-01T10:55:56.573</time></trkpt><trkpt lat="55.5782030" lon="38.6900330"><time>2020-11-01T10:56:00.580</time></trkpt><trkpt lat="55.5782320" lon="38.6901080"><time>2020-11-01T10:56:05.577</time></trkpt><trkpt lat="55.5782300" lon="38.6902180"><time>2020-11-01T10:56:09.580</time></trkpt><trkpt lat="55.5782350" lon="38.6903120"><time>2020-11-01T10:56:13.573</time></trkpt><trkpt lat="55.5782750" lon="38.6904680"><time>2020-11-01T10:56:19.583</time></trkpt><trkpt lat="55.5783200" lon="38.6905130"><time>2020-11-01T10:56:21.580</time></trkpt><trkpt lat="55.5782980" lon="38.6906020"><time>2020-11-01T10:56:22.577</time></trkpt><trkpt lat="55.5783330" lon="38.6906600"><time>2020-11-01T10:56:26.577</time></trkpt><trkpt lat="55.5783920" lon="38.6908000"><time>2020-11-01T10:56:37.583</time></trkpt><trkpt lat="55.5784920" lon="38.6909570"><time>2020-11-01T10:56:52.577</time></trkpt><trkpt lat="55.5785820" lon="38.6911520"><time>2020-11-01T10:57:03.580</time></trkpt><trkpt lat="55.5786580" lon="38.6913450"><time>2020-11-01T10:57:15.580</time></trkpt><trkpt lat="55.5787230" lon="38.6914930"><time>2020-11-01T10:57:33.577</time></trkpt><trkpt lat="55.5787620" lon="38.6917000"><time>2020-11-01T10:57:47.573</time></trkpt><trkpt lat="55.5788550" lon="38.6918550"><time>2020-11-01T10:58:00.577</time></trkpt><trkpt lat="55.5789330" lon="38.6920050"><time>2020-11-01T10:58:16.580</time></trkpt><trkpt lat="55.5790230" lon="38.6921600"><time>2020-11-01T10:58:26.580</time></trkpt><trkpt lat="55.5791120" lon="38.6922930"><time>2020-11-01T10:58:37.577</time></trkpt><trkpt lat="55.5792200" lon="38.6924000"><time>2020-11-01T10:58:50.577</time></trkpt><trkpt lat="55.5793330" lon="38.6925020"><time>2020-11-01T10:59:03.577</time></trkpt><trkpt lat="55.5792600" lon="38.6929570"><time>2020-11-01T10:59:19.573</time></trkpt><trkpt lat="55.5793570" lon="38.6931030"><time>2020-11-01T10:59:21.587</time></trkpt><trkpt lat="55.5794070" lon="38.6931480"><time>2020-11-01T10:59:22.573</time></trkpt><trkpt lat="55.5795100" lon="38.6932120"><time>2020-11-01T10:59:25.577</time></trkpt><trkpt lat="55.5795570" lon="38.6932680"><time>2020-11-01T10:59:27.580</time></trkpt><trkpt lat="55.5795970" lon="38.6933100"><time>2020-11-01T10:59:28.580</time></trkpt><trkpt lat="55.5796900" lon="38.6933480"><time>2020-11-01T10:59:32.577</time></trkpt><trkpt lat="55.5797350" lon="38.6933680"><time>2020-11-01T10:59:34.580</time></trkpt><trkpt lat="55.5798350" lon="38.6934380"><time>2020-11-01T10:59:49.580</time></trkpt><trkpt lat="55.5798970" lon="38.6934530"><time>2020-11-01T10:59:52.573</time></trkpt><trkpt lat="55.5799770" lon="38.6935320"><time>2020-11-01T10:59:59.573</time></trkpt><trkpt lat="55.5800620" lon="38.6936670"><time>2020-11-01T11:00:12.573</time></trkpt><trkpt lat="55.5801580" lon="38.6937830"><time>2020-11-01T11:00:24.580</time></trkpt><trkpt lat="55.5800750" lon="38.6940500"><time>2020-11-01T11:00:31.580</time></trkpt><trkpt lat="55.5801170" lon="38.6939820"><time>2020-11-01T11:00:33.587</time></trkpt><trkpt lat="55.5802130" lon="38.6940350"><time>2020-11-01T11:00:38.573</time></trkpt><trkpt lat="55.5802680" lon="38.6940480"><time>2020-11-01T11:00:40.577</time></trkpt><trkpt lat="55.5803850" lon="38.6941030"><time>2020-11-01T11:00:49.583</time></trkpt><trkpt lat="55.5804300" lon="38.6943770"><time>2020-11-01T11:00:59.580</time></trkpt><trkpt lat="55.5804470" lon="38.6945130"><time>2020-11-01T11:01:00.580</time></trkpt><trkpt lat="55.5805250" lon="38.6946350"><time>2020-11-01T11:01:15.577</time></trkpt><trkpt lat="55.5805180" lon="38.6950930"><time>2020-11-01T11:01:50.580</time></trkpt><trkpt lat="55.5804320" lon="38.6952020"><time>2020-11-01T11:01:59.577</time></trkpt><trkpt lat="55.5804020" lon="38.6952650"><time>2020-11-01T11:02:02.580</time></trkpt><trkpt lat="55.5803430" lon="38.6953880"><time>2020-11-01T11:02:10.583</time></trkpt><trkpt lat="55.5802980" lon="38.6955670"><time>2020-11-01T11:02:25.577</time></trkpt><trkpt lat="55.5802500" lon="38.6957370"><time>2020-11-01T11:02:36.583</time></trkpt><trkpt lat="55.5802370" lon="38.6958130"><time>2020-11-01T11:02:39.577</time></trkpt><trkpt lat="55.5801920" lon="38.6959650"><time>2020-11-01T11:02:50.580</time></trkpt><trkpt lat="55.5801730" lon="38.6961630"><time>2020-11-01T11:03:04.577</time></trkpt><trkpt lat="55.5801080" lon="38.6963370"><time>2020-11-01T11:03:12.577</time></trkpt><trkpt lat="55.5800870" lon="38.6964080"><time>2020-11-01T11:03:14.580</time></trkpt><trkpt lat="55.5800470" lon="38.6965820"><time>2020-11-01T11:03:23.573</time></trkpt><trkpt lat="55.5799330" lon="38.6969750"><time>2020-11-01T11:03:33.583</time></trkpt><trkpt lat="55.5798420" lon="38.6970100"><time>2020-11-01T11:03:34.577</time></trkpt><trkpt lat="55.5799100" lon="38.6968550"><time>2020-11-01T11:03:38.577</time></trkpt><trkpt lat="55.5799630" lon="38.6971050"><time>2020-11-01T11:03:40.577</time></trkpt><trkpt lat="55.5799980" lon="38.6971620"><time>2020-11-01T11:03:42.577</time></trkpt><trkpt lat="55.5800130" lon="38.6973700"><time>2020-11-01T11:03:47.577</time></trkpt><trkpt lat="55.5799050" lon="38.6974880"><time>2020-11-01T11:04:12.577</time></trkpt><trkpt lat="55.5798970" lon="38.6975700"><time>2020-11-01T11:04:16.580</time></trkpt><trkpt lat="55.5797950" lon="38.6976450"><time>2020-11-01T11:04:41.537</time></trkpt><trkpt lat="55.5797100" lon="38.6978730"><time>2020-11-01T11:05:09.580</time></trkpt><trkpt lat="55.5797020" lon="38.6980900"><time>2020-11-01T11:05:22.583</time></trkpt><trkpt lat="55.5796680" lon="38.6982980"><time>2020-11-01T11:05:33.580</time></trkpt><trkpt lat="55.5795500" lon="38.6986450"><time>2020-11-01T11:05:34.577</time></trkpt><trkpt lat="55.5795000" lon="38.6988070"><time>2020-11-01T11:05:45.583</time></trkpt><trkpt lat="55.5794200" lon="38.6989530"><time>2020-11-01T11:06:06.557</time></trkpt><trkpt lat="55.5793950" lon="38.6990270"><time>2020-11-01T11:06:09.580</time></trkpt><trkpt lat="55.5793330" lon="38.6992130"><time>2020-11-01T11:06:21.587</time></trkpt><trkpt lat="55.5793000" lon="38.6993180"><time>2020-11-01T11:06:23.583</time></trkpt><trkpt lat="55.5792070" lon="38.6994970"><time>2020-11-01T11:06:34.577</time></trkpt><trkpt lat="55.5791070" lon="38.6996000"><time>2020-11-01T11:06:48.580</time></trkpt><trkpt lat="55.5790780" lon="38.6997050"><time>2020-11-01T11:06:50.580</time></trkpt><trkpt lat="55.5790720" lon="38.6998630"><time>2020-11-01T11:07:05.580</time></trkpt><trkpt lat="55.5790450" lon="38.6999370"><time>2020-11-01T11:07:11.577</time></trkpt><trkpt lat="55.5789870" lon="38.7000880"><time>2020-11-01T11:07:31.577</time></trkpt><trkpt lat="55.5789250" lon="38.7002900"><time>2020-11-01T11:07:46.547</time></trkpt><trkpt lat="55.5789900" lon="38.7004630"><time>2020-11-01T11:08:16.583</time></trkpt><trkpt lat="55.5790200" lon="38.7006380"><time>2020-11-01T11:08:36.577</time></trkpt><trkpt lat="55.5789130" lon="38.7010830"><time>2020-11-01T11:08:44.580</time></trkpt><trkpt lat="55.5788680" lon="38.7012650"><time>2020-11-01T11:08:59.580</time></trkpt><trkpt lat="55.5789430" lon="38.7014150"><time>2020-11-01T11:09:21.587</time></trkpt><trkpt lat="55.5789430" lon="38.7016180"><time>2020-11-01T11:09:36.580</time></trkpt><trkpt lat="55.5788970" lon="38.7019700"><time>2020-11-01T11:09:42.580</time></trkpt><trkpt lat="55.5789320" lon="38.7020570"><time>2020-11-01T11:09:43.580</time></trkpt><trkpt lat="55.5789430" lon="38.7021420"><time>2020-11-01T11:09:45.580</time></trkpt><trkpt lat="55.5788820" lon="38.7023220"><time>2020-11-01T11:09:52.580</time></trkpt><trkpt lat="55.5788500" lon="38.7023830"><time>2020-11-01T11:09:55.580</time></trkpt><trkpt lat="55.5788230" lon="38.7025520"><time>2020-11-01T11:09:59.580</time></trkpt><trkpt lat="55.5788230" lon="38.7027620"><time>2020-11-01T11:10:40.580</time></trkpt><trkpt lat="55.5789180" lon="38.7028470"><time>2020-11-01T11:11:00.583</time></trkpt><trkpt lat="55.5789880" lon="38.7029830"><time>2020-11-01T11:11:20.583</time></trkpt><trkpt lat="55.5790700" lon="38.7031380"><time>2020-11-01T11:11:34.577</time></trkpt><trkpt lat="55.5790730" lon="38.7033750"><time>2020-11-01T11:11:59.580</time></trkpt><trkpt lat="55.5790650" lon="38.7035930"><time>2020-11-01T11:12:10.583</time></trkpt><trkpt lat="55.5790270" lon="38.7038450"><time>2020-11-01T11:12:16.587</time></trkpt><trkpt lat="55.5789770" lon="38.7040200"><time>2020-11-01T11:12:17.583</time></trkpt><trkpt lat="55.5789580" lon="38.7041180"><time>2020-11-01T11:12:18.583</time></trkpt><trkpt lat="55.5789270" lon="38.7043920"><time>2020-11-01T11:12:19.583</time></trkpt><trkpt lat="55.5790070" lon="38.7045470"><time>2020-11-01T11:12:21.583</time></trkpt><trkpt lat="55.5790430" lon="38.7046220"><time>2020-11-01T11:12:24.580</time></trkpt><trkpt lat="55.5790780" lon="38.7047730"><time>2020-11-01T11:12:36.577</time></trkpt><trkpt lat="55.5792070" lon="38.7047200"><time>2020-11-01T11:12:51.580</time></trkpt><trkpt lat="55.5791880" lon="38.7049550"><time>2020-11-01T11:13:12.580</time></trkpt><trkpt lat="55.5792530" lon="38.7049530"><time>2020-11-01T11:13:14.583</time></trkpt><trkpt lat="55.5793620" lon="38.7049580"><time>2020-11-01T11:13:23.573</time></trkpt><trkpt lat="55.5794420" lon="38.7048200"><time>2020-11-01T11:13:41.580</time></trkpt><trkpt lat="55.5760580" lon="38.7219350"><time>2020-11-01T11:13:49.573</time></trkpt><trkpt lat="55.5760420" lon="38.7220330"><time>2020-11-01T11:13:51.580</time></trkpt><trkpt lat="55.5759200" lon="38.7220650"><time>2020-11-01T11:13:55.580</time></trkpt><trkpt lat="55.5758480" lon="38.7220300"><time>2020-11-01T11:13:56.583</time></trkpt><trkpt lat="55.5758000" lon="38.7220120"><time>2020-11-01T11:13:57.587</time></trkpt><trkpt lat="55.5758200" lon="38.7218850"><time>2020-11-01T11:14:12.580</time></trkpt><trkpt lat="55.5759030" lon="38.7217330"><time>2020-11-01T11:14:25.580</time></trkpt><trkpt lat="55.5759980" lon="38.7216280"><time>2020-11-01T11:14:38.573</time></trkpt><trkpt lat="55.5761170" lon="38.7215300"><time>2020-11-01T11:14:56.580</time></trkpt><trkpt lat="55.5762230" lon="38.7214130"><time>2020-11-01T11:15:11.583</time></trkpt><trkpt lat="55.5763200" lon="38.7212850"><time>2020-11-01T11:15:23.580</time></trkpt><trkpt lat="55.5763650" lon="38.7211580"><time>2020-11-01T11:15:27.583</time></trkpt><trkpt lat="55.5764780" lon="38.7210650"><time>2020-11-01T11:15:40.583</time></trkpt><trkpt lat="55.5765220" lon="38.7210080"><time>2020-11-01T11:15:43.580</time></trkpt><trkpt lat="55.5766000" lon="38.7209050"><time>2020-11-01T11:15:57.580</time></trkpt><trkpt lat="55.5767050" lon="38.7207570"><time>2020-11-01T11:16:06.580</time></trkpt><trkpt lat="55.5767750" lon="38.7208650"><time>2020-11-01T11:16:45.590</time></trkpt><trkpt lat="55.5768480" lon="38.7207950"><time>2020-11-01T11:17:50.580</time></trkpt><trkpt lat="55.5769580" lon="38.7207900"><time>2020-11-01T11:18:26.577</time></trkpt><trkpt lat="55.5770020" lon="38.7209430"><time>2020-11-01T11:18:49.577</time></trkpt><trkpt lat="55.5754780" lon="38.7182680"><time>2020-11-01T11:19:03.580</time></trkpt><trkpt lat="55.5755370" lon="38.7182070"><time>2020-11-01T11:19:04.577</time></trkpt><trkpt lat="55.5755920" lon="38.7183130"><time>2020-11-01T11:19:05.580</time></trkpt><trkpt lat="55.5755630" lon="38.7181800"><time>2020-11-01T11:19:06.577</time></trkpt><trkpt lat="55.5756270" lon="38.7183100"><time>2020-11-01T11:19:08.580</time></trkpt><trkpt lat="55.5757020" lon="38.7181400"><time>2020-11-01T11:19:59.580</time></trkpt><trkpt lat="55.5757680" lon="38.7181650"><time>2020-11-01T11:20:01.580</time></trkpt><trkpt lat="55.5758250" lon="38.7182020"><time>2020-11-01T11:20:02.583</time></trkpt><trkpt lat="55.5759380" lon="38.7182420"><time>2020-11-01T11:20:09.583</time></trkpt><trkpt lat="55.5759980" lon="38.7182700"><time>2020-11-01T11:20:12.580</time></trkpt><trkpt lat="55.5760850" lon="38.7183220"><time>2020-11-01T11:20:17.580</time></trkpt><trkpt lat="55.5761900" lon="38.7183270"><time>2020-11-01T11:20:25.580</time></trkpt><trkpt lat="55.5762770" lon="38.7182730"><time>2020-11-01T11:20:34.550</time></trkpt><trkpt lat="55.5762300" lon="38.7182680"><time>2020-11-01T11:20:36.583</time></trkpt><trkpt lat="55.5763270" lon="38.7182450"><time>2020-11-01T11:20:57.587</time></trkpt><trkpt lat="55.5763570" lon="38.7182980"><time>2020-11-01T11:21:02.263</time></trkpt><trkpt lat="55.5763620" lon="38.7183080"><time>2020-11-01T11:21:02.450</time></trkpt><trkpt lat="55.5807470" lon="38.7194370"><time>2020-11-01T11:21:05.537</time></trkpt><trkpt lat="55.5807620" lon="38.7193550"><time>2020-11-01T11:21:10.577</time></trkpt><trkpt lat="55.5805780" lon="38.7192150"><time>2020-11-01T11:21:11.580</time></trkpt><trkpt lat="55.5805130" lon="38.7191000"><time>2020-11-01T11:21:12.580</time></trkpt><trkpt lat="55.5804400" lon="38.7190320"><time>2020-11-01T11:21:13.583</time></trkpt><trkpt lat="55.5803880" lon="38.7189670"><time>2020-11-01T11:21:14.583</time></trkpt><trkpt lat="55.5803250" lon="38.7189430"><time>2020-11-01T11:21:15.583</time></trkpt><trkpt lat="55.5802700" lon="38.7189370"><time>2020-11-01T11:21:16.583</time></trkpt><trkpt lat="55.5801150" lon="38.7188320"><time>2020-11-01T11:21:20.583</time></trkpt><trkpt lat="55.5800480" lon="38.7187970"><time>2020-11-01T11:21:22.577</time></trkpt><trkpt lat="55.5800070" lon="38.7187630"><time>2020-11-01T11:21:23.767</time></trkpt><trkpt lat="55.5799170" lon="38.7186970"><time>2020-11-01T11:21:26.580</time></trkpt><trkpt lat="55.5798880" lon="38.7186350"><time>2020-11-01T11:21:28.583</time></trkpt><trkpt lat="55.5797750" lon="38.7186950"><time>2020-11-01T11:21:36.543</time></trkpt><trkpt lat="55.5796950" lon="38.7187120"><time>2020-11-01T11:21:38.543</time></trkpt><trkpt lat="55.5796070" lon="38.7187050"><time>2020-11-01T11:21:39.547</time></trkpt><trkpt lat="55.5795220" lon="38.7186920"><time>2020-11-01T11:21:41.583</time></trkpt><trkpt lat="55.5794770" lon="38.7186820"><time>2020-11-01T11:21:43.580</time></trkpt><trkpt lat="55.5794300" lon="38.7186700"><time>2020-11-01T11:21:46.583</time></trkpt><trkpt lat="55.5793820" lon="38.7187150"><time>2020-11-01T11:21:47.577</time></trkpt><trkpt lat="55.5793280" lon="38.7187350"><time>2020-11-01T11:21:51.583</time></trkpt><trkpt lat="55.5792350" lon="38.7187670"><time>2020-11-01T11:22:00.580</time></trkpt><trkpt lat="55.5792050" lon="38.7189170"><time>2020-11-01T11:22:27.587</time></trkpt><trkpt lat="55.5791330" lon="38.7190570"><time>2020-11-01T11:22:45.580</time></trkpt><trkpt lat="55.5791630" lon="38.7189950"><time>2020-11-01T11:22:50.577</time></trkpt><trkpt lat="55.5791600" lon="38.7191300"><time>2020-11-01T11:23:01.580</time></trkpt><trkpt lat="55.5790900" lon="38.7191850"><time>2020-11-01T11:23:03.583</time></trkpt><trkpt lat="55.5790450" lon="38.7191900"><time>2020-11-01T11:23:04.580</time></trkpt><trkpt lat="55.5789400" lon="38.7192200"><time>2020-11-01T11:23:08.573</time></trkpt><trkpt lat="55.5788800" lon="38.7192330"><time>2020-11-01T11:23:11.580</time></trkpt><trkpt lat="55.5787770" lon="38.7192150"><time>2020-11-01T11:23:17.580</time></trkpt><trkpt lat="55.5787370" lon="38.7192700"><time>2020-11-01T11:23:20.583</time></trkpt><trkpt lat="55.5786380" lon="38.7192900"><time>2020-11-01T11:23:31.577</time></trkpt><trkpt lat="55.5785350" lon="38.7193270"><time>2020-11-01T11:23:44.580</time></trkpt><trkpt lat="55.5784800" lon="38.7193200"><time>2020-11-01T11:23:46.577</time></trkpt><trkpt lat="55.5783530" lon="38.7193080"><time>2020-11-01T11:23:54.583</time></trkpt><trkpt lat="55.5783050" lon="38.7193080"><time>2020-11-01T11:23:57.583</time></trkpt><trkpt lat="55.5781930" lon="38.7193020"><time>2020-11-01T11:24:03.580</time></trkpt><trkpt lat="55.5781450" lon="38.7192580"><time>2020-11-01T11:24:06.583</time></trkpt><trkpt lat="55.5780580" lon="38.7191980"><time>2020-11-01T11:24:12.583</time></trkpt><trkpt lat="55.5779200" lon="38.7191550"><time>2020-11-01T11:24:22.580</time></trkpt><trkpt lat="55.5777850" lon="38.7191420"><time>2020-11-01T11:24:33.583</time></trkpt><trkpt lat="55.5777330" lon="38.7191450"><time>2020-11-01T11:24:36.580</time></trkpt><trkpt lat="55.5776580" lon="38.7191580"><time>2020-11-01T11:24:39.583</time></trkpt><trkpt lat="55.5776120" lon="38.7191680"><time>2020-11-01T11:24:42.583</time></trkpt><trkpt lat="55.5775180" lon="38.7191830"><time>2020-11-01T11:24:53.577</time></trkpt><trkpt lat="55.5773870" lon="38.7192480"><time>2020-11-01T11:25:07.583</time></trkpt><trkpt lat="55.5773350" lon="38.7192550"><time>2020-11-01T11:25:10.580</time></trkpt><trkpt lat="55.5772450" lon="38.7192750"><time>2020-11-01T11:25:14.580</time></trkpt><trkpt lat="55.5771880" lon="38.7192700"><time>2020-11-01T11:25:16.580</time></trkpt><trkpt lat="55.5771280" lon="38.7192630"><time>2020-11-01T11:25:18.580</time></trkpt><trkpt lat="55.5770750" lon="38.7192480"><time>2020-11-01T11:25:20.580</time></trkpt><trkpt lat="55.5770280" lon="38.7192320"><time>2020-11-01T11:25:22.580</time></trkpt><trkpt lat="55.5769230" lon="38.7192920"><time>2020-11-01T11:25:35.580</time></trkpt><trkpt lat="55.5768000" lon="38.7193430"><time>2020-11-01T11:25:48.577</time></trkpt><trkpt lat="55.5766750" lon="38.7193650"><time>2020-11-01T11:25:57.583</time></trkpt><trkpt lat="55.5765550" lon="38.7194130"><time>2020-11-01T11:26:07.573</time></trkpt><trkpt lat="55.5764330" lon="38.7195020"><time>2020-11-01T11:26:18.583</time></trkpt><trkpt lat="55.5763900" lon="38.7195370"><time>2020-11-01T11:26:21.583</time></trkpt><trkpt lat="55.5762980" lon="38.7196170"><time>2020-11-01T11:26:28.580</time></trkpt><trkpt lat="55.5762450" lon="38.7196580"><time>2020-11-01T11:26:31.577</time></trkpt><trkpt lat="55.5762180" lon="38.7197570"><time>2020-11-01T11:26:35.580</time></trkpt><trkpt lat="55.5761180" lon="38.7198500"><time>2020-11-01T11:26:49.577</time></trkpt><trkpt lat="55.5760770" lon="38.7198830"><time>2020-11-01T11:26:52.583</time></trkpt><trkpt lat="55.5760130" lon="38.7199120"><time>2020-11-01T11:26:54.583</time></trkpt><trkpt lat="55.5759630" lon="38.7198830"><time>2020-11-01T11:26:56.577</time></trkpt><trkpt lat="55.5759020" lon="38.7199180"><time>2020-11-01T11:27:06.580</time></trkpt><trkpt lat="55.5758180" lon="38.7200050"><time>2020-11-01T11:27:18.583</time></trkpt><trkpt lat="55.5757230" lon="38.7201350"><time>2020-11-01T11:27:27.583</time></trkpt><trkpt lat="55.5756570" lon="38.7203130"><time>2020-11-01T11:27:45.587</time></trkpt><trkpt lat="55.5756250" lon="38.7205320"><time>2020-11-01T11:27:58.580</time></trkpt><trkpt lat="55.5755880" lon="38.7207100"><time>2020-11-01T11:28:11.580</time></trkpt><trkpt lat="55.5756070" lon="38.7209180"><time>2020-11-01T11:28:28.583</time></trkpt><trkpt lat="55.5756530" lon="38.7210800"><time>2020-11-01T11:28:40.580</time></trkpt><trkpt lat="55.5756680" lon="38.7211680"><time>2020-11-01T11:28:43.583</time></trkpt><trkpt lat="55.5756730" lon="38.7212800"><time>2020-11-01T11:28:46.583</time></trkpt><trkpt lat="55.5756520" lon="38.7213870"><time>2020-11-01T11:28:48.583</time></trkpt><trkpt lat="55.5756330" lon="38.7214800"><time>2020-11-01T11:28:50.587</time></trkpt><trkpt lat="55.5756320" lon="38.7215680"><time>2020-11-01T11:28:53.580</time></trkpt><trkpt lat="55.5756470" lon="38.7217500"><time>2020-11-01T11:29:03.587</time></trkpt><trkpt lat="55.5756930" lon="38.7219600"><time>2020-11-01T11:29:15.590</time></trkpt><trkpt lat="55.5757270" lon="38.7222120"><time>2020-11-01T11:29:26.577</time></trkpt><trkpt lat="55.5757180" lon="38.7222920"><time>2020-11-01T11:29:28.583</time></trkpt><trkpt lat="55.5757150" lon="38.7225130"><time>2020-11-01T11:29:34.580</time></trkpt><trkpt lat="55.5757250" lon="38.7226030"><time>2020-11-01T11:29:36.583</time></trkpt><trkpt lat="55.5756970" lon="38.7228130"><time>2020-11-01T11:29:43.583</time></trkpt><trkpt lat="55.5757230" lon="38.7230420"><time>2020-11-01T11:29:53.583</time></trkpt><trkpt lat="55.5757850" lon="38.7232600"><time>2020-11-01T11:30:04.577</time></trkpt><trkpt lat="55.5758300" lon="38.7234780"><time>2020-11-01T11:30:13.583</time></trkpt><trkpt lat="55.5758100" lon="38.7237130"><time>2020-11-01T11:30:23.580</time></trkpt><trkpt lat="55.5758120" lon="38.7239430"><time>2020-11-01T11:30:34.583</time></trkpt><trkpt lat="55.5758120" lon="38.7240380"><time>2020-11-01T11:30:37.587</time></trkpt><trkpt lat="55.5757980" lon="38.7241980"><time>2020-11-01T11:30:43.583</time></trkpt><trkpt lat="55.5758270" lon="38.7244380"><time>2020-11-01T11:30:53.580</time></trkpt><trkpt lat="55.5758280" lon="38.7245180"><time>2020-11-01T11:30:55.583</time></trkpt><trkpt lat="55.5758170" lon="38.7247150"><time>2020-11-01T11:31:02.580</time></trkpt><trkpt lat="55.5758200" lon="38.7247980"><time>2020-11-01T11:31:05.580</time></trkpt><trkpt lat="55.5758270" lon="38.7249870"><time>2020-11-01T11:31:11.583</time></trkpt><trkpt lat="55.5758230" lon="38.7250670"><time>2020-11-01T11:31:13.583</time></trkpt><trkpt lat="55.5758130" lon="38.7252150"><time>2020-11-01T11:31:15.583</time></trkpt><trkpt lat="55.5758070" lon="38.7253320"><time>2020-11-01T11:31:17.583</time></trkpt><trkpt lat="55.5758120" lon="38.7254150"><time>2020-11-01T11:31:19.577</time></trkpt><trkpt lat="55.5758170" lon="38.7255830"><time>2020-11-01T11:31:27.587</time></trkpt><trkpt lat="55.5757970" lon="38.7256720"><time>2020-11-01T11:31:31.567</time></trkpt><trkpt lat="55.5757050" lon="38.7258570"><time>2020-11-01T11:31:45.587</time></trkpt><trkpt lat="55.5756480" lon="38.7260730"><time>2020-11-01T11:31:57.587</time></trkpt><trkpt lat="55.5755600" lon="38.7261950"><time>2020-11-01T11:32:09.590</time></trkpt><trkpt lat="55.5754500" lon="38.7263470"><time>2020-11-01T11:32:22.580</time></trkpt><trkpt lat="55.5753520" lon="38.7264100"><time>2020-11-01T11:32:28.580</time></trkpt><trkpt lat="55.5753020" lon="38.7264420"><time>2020-11-01T11:32:30.580</time></trkpt><trkpt lat="55.5752520" lon="38.7264870"><time>2020-11-01T11:32:33.587</time></trkpt><trkpt lat="55.5752000" lon="38.7265430"><time>2020-11-01T11:32:36.583</time></trkpt><trkpt lat="55.5750900" lon="38.7265900"><time>2020-11-01T11:32:49.583</time></trkpt><trkpt lat="55.5750450" lon="38.7268180"><time>2020-11-01T11:32:59.580</time></trkpt><trkpt lat="55.5750350" lon="38.7269100"><time>2020-11-01T11:33:00.580</time></trkpt><trkpt lat="55.5750020" lon="38.7270080"><time>2020-11-01T11:33:01.587</time></trkpt><trkpt lat="55.5749580" lon="38.7270980"><time>2020-11-01T11:33:02.577</time></trkpt><trkpt lat="55.5748820" lon="38.7272230"><time>2020-11-01T11:33:03.583</time></trkpt><trkpt lat="55.5748250" lon="38.7273350"><time>2020-11-01T11:33:04.583</time></trkpt><trkpt lat="55.5747770" lon="38.7274600"><time>2020-11-01T11:33:05.583</time></trkpt><trkpt lat="55.5747280" lon="38.7275620"><time>2020-11-01T11:33:06.587</time></trkpt><trkpt lat="55.5746880" lon="38.7276830"><time>2020-11-01T11:33:07.583</time></trkpt><trkpt lat="55.5746670" lon="38.7277920"><time>2020-11-01T11:33:08.583</time></trkpt><trkpt lat="55.5746500" lon="38.7278730"><time>2020-11-01T11:33:09.587</time></trkpt><trkpt lat="55.5746400" lon="38.7279870"><time>2020-11-01T11:33:10.580</time></trkpt><trkpt lat="55.5746180" lon="38.7281180"><time>2020-11-01T11:33:12.583</time></trkpt><trkpt lat="55.5746030" lon="38.7281930"><time>2020-11-01T11:33:14.587</time></trkpt><trkpt lat="55.5745820" lon="38.7281220"><time>2020-11-01T11:33:19.583</time></trkpt><trkpt lat="55.5745370" lon="38.7281430"><time>2020-11-01T11:33:25.583</time></trkpt><trkpt lat="55.5744650" lon="38.7280980"><time>2020-11-01T11:33:27.587</time></trkpt><trkpt lat="55.5744080" lon="38.7280420"><time>2020-11-01T11:33:29.583</time></trkpt><trkpt lat="55.5743220" lon="38.7280000"><time>2020-11-01T11:33:33.587</time></trkpt><trkpt lat="55.5742330" lon="38.7280230"><time>2020-11-01T11:33:35.583</time></trkpt><trkpt lat="55.5741700" lon="38.7280180"><time>2020-11-01T11:33:36.590</time></trkpt><trkpt lat="55.5741200" lon="38.7279780"><time>2020-11-01T11:33:38.583</time></trkpt><trkpt lat="55.5740580" lon="38.7279750"><time>2020-11-01T11:33:46.583</time></trkpt><trkpt lat="55.5740030" lon="38.7281330"><time>2020-11-01T11:34:13.587</time></trkpt><trkpt lat="55.5739580" lon="38.7281350"><time>2020-11-01T11:34:15.590</time></trkpt><trkpt lat="55.5738600" lon="38.7280970"><time>2020-11-01T11:34:27.587</time></trkpt><trkpt lat="55.5738300" lon="38.7281580"><time>2020-11-01T11:34:32.577</time></trkpt><trkpt lat="55.5737370" lon="38.7281380"><time>2020-11-01T11:34:52.583</time></trkpt><trkpt lat="55.5736100" lon="38.7281480"><time>2020-11-01T11:35:04.583</time></trkpt><trkpt lat="55.5734820" lon="38.7280870"><time>2020-11-01T11:35:13.587</time></trkpt><trkpt lat="55.5734320" lon="38.7280680"><time>2020-11-01T11:35:15.587</time></trkpt><trkpt lat="55.5733150" lon="38.7280180"><time>2020-11-01T11:35:23.583</time></trkpt><trkpt lat="55.5732720" lon="38.7279830"><time>2020-11-01T11:35:26.583</time></trkpt><trkpt lat="55.5731780" lon="38.7279580"><time>2020-11-01T11:35:34.583</time></trkpt><trkpt lat="55.5731270" lon="38.7279500"><time>2020-11-01T11:35:37.587</time></trkpt><trkpt lat="55.5730650" lon="38.7279630"><time>2020-11-01T11:35:40.583</time></trkpt><trkpt lat="55.5729370" lon="38.7279780"><time>2020-11-01T11:35:54.587</time></trkpt><trkpt lat="55.5728850" lon="38.7279830"><time>2020-11-01T11:35:57.583</time></trkpt><trkpt lat="55.5727880" lon="38.7279180"><time>2020-11-01T11:36:10.577</time></trkpt><trkpt lat="55.5726700" lon="38.7279770"><time>2020-11-01T11:36:22.580</time></trkpt><trkpt lat="55.5725650" lon="38.7280320"><time>2020-11-01T11:36:37.583</time></trkpt><trkpt lat="55.5724730" lon="38.7281550"><time>2020-11-01T11:36:45.587</time></trkpt><trkpt lat="55.5724450" lon="38.7282620"><time>2020-11-01T11:36:47.577</time></trkpt><trkpt lat="55.5724320" lon="38.7283470"><time>2020-11-01T11:36:49.587</time></trkpt><trkpt lat="55.5724050" lon="38.7284550"><time>2020-11-01T11:36:52.583</time></trkpt><trkpt lat="55.5723630" lon="38.7284980"><time>2020-11-01T11:36:55.640</time></trkpt><trkpt lat="55.5722930" lon="38.7286800"><time>2020-11-01T11:37:10.580</time></trkpt><trkpt lat="55.5722130" lon="38.7288320"><time>2020-11-01T11:37:26.583</time></trkpt><trkpt lat="55.5721720" lon="38.7288620"><time>2020-11-01T11:37:28.580</time></trkpt><trkpt lat="55.5721270" lon="38.7289020"><time>2020-11-01T11:37:30.587</time></trkpt><trkpt lat="55.5719900" lon="38.7289680"><time>2020-11-01T11:37:43.587</time></trkpt><trkpt lat="55.5719450" lon="38.7290330"><time>2020-11-01T11:37:45.583</time></trkpt><trkpt lat="55.5719030" lon="38.7291100"><time>2020-11-01T11:37:48.577</time></trkpt><trkpt lat="55.5718580" lon="38.7291220"><time>2020-11-01T11:37:54.587</time></trkpt><trkpt lat="55.5717500" lon="38.7291970"><time>2020-11-01T11:38:08.587</time></trkpt><trkpt lat="55.5717050" lon="38.7293750"><time>2020-11-01T11:38:24.583</time></trkpt><trkpt lat="55.5716420" lon="38.7295780"><time>2020-11-01T11:38:37.580</time></trkpt><trkpt lat="55.5715880" lon="38.7297880"><time>2020-11-01T11:38:49.587</time></trkpt><trkpt lat="55.5714800" lon="38.7299280"><time>2020-11-01T11:39:06.583</time></trkpt><trkpt lat="55.5714050" lon="38.7301070"><time>2020-11-01T11:39:18.587</time></trkpt><trkpt lat="55.5713000" lon="38.7302580"><time>2020-11-01T11:39:27.583</time></trkpt><trkpt lat="55.5712380" lon="38.7302780"><time>2020-11-01T11:39:31.580</time></trkpt><trkpt lat="55.5711930" lon="38.7303000"><time>2020-11-01T11:39:33.583</time></trkpt><trkpt lat="55.5711450" lon="38.7302900"><time>2020-11-01T11:39:36.580</time></trkpt><trkpt lat="55.5710800" lon="38.7304130"><time>2020-11-01T11:39:47.583</time></trkpt><trkpt lat="55.5709730" lon="38.7304850"><time>2020-11-01T11:40:03.587</time></trkpt><trkpt lat="55.5709280" lon="38.7305370"><time>2020-11-01T11:40:07.580</time></trkpt><trkpt lat="55.5708230" lon="38.7306480"><time>2020-11-01T11:40:16.587</time></trkpt><trkpt lat="55.5707670" lon="38.7306420"><time>2020-11-01T11:40:18.583</time></trkpt><trkpt lat="55.5706350" lon="38.7307150"><time>2020-11-01T11:40:38.587</time></trkpt><trkpt lat="55.5706020" lon="38.7307750"><time>2020-11-01T11:40:40.587</time></trkpt><trkpt lat="55.5706550" lon="38.7309370"><time>2020-11-01T11:40:58.580</time></trkpt><trkpt lat="55.5706680" lon="38.7310580"><time>2020-11-01T11:41:05.583</time></trkpt><trkpt lat="55.5706700" lon="38.7311380"><time>2020-11-01T11:41:07.583</time></trkpt><trkpt lat="55.5706680" lon="38.7312300"><time>2020-11-01T11:41:15.587</time></trkpt><trkpt lat="55.5707050" lon="38.7313850"><time>2020-11-01T11:41:27.717</time></trkpt><trkpt lat="55.5706970" lon="38.7314930"><time>2020-11-01T11:41:30.587</time></trkpt><trkpt lat="55.5706570" lon="38.7315500"><time>2020-11-01T11:41:37.587</time></trkpt><trkpt lat="55.5705880" lon="38.7316600"><time>2020-11-01T11:41:48.583</time></trkpt><trkpt lat="55.5705280" lon="38.7317930"><time>2020-11-01T11:42:10.580</time></trkpt><trkpt lat="55.5704730" lon="38.7318320"><time>2020-11-01T11:42:15.590</time></trkpt><trkpt lat="55.5703930" lon="38.7319800"><time>2020-11-01T11:42:33.587</time></trkpt><trkpt lat="55.5703330" lon="38.7321770"><time>2020-11-01T11:42:45.587</time></trkpt><trkpt lat="55.5702480" lon="38.7322920"><time>2020-11-01T11:43:08.583</time></trkpt><trkpt lat="55.5701330" lon="38.7322930"><time>2020-11-01T11:43:21.587</time></trkpt><trkpt lat="55.5700230" lon="38.7323030"><time>2020-11-01T11:43:36.580</time></trkpt><trkpt lat="55.5699670" lon="38.7324350"><time>2020-11-01T11:43:56.587</time></trkpt><trkpt lat="55.5699500" lon="38.7326600"><time>2020-11-01T11:44:08.587</time></trkpt><trkpt lat="55.5699670" lon="38.7327350"><time>2020-11-01T11:44:11.587</time></trkpt><trkpt lat="55.5699620" lon="38.7328230"><time>2020-11-01T11:44:13.587</time></trkpt><trkpt lat="55.5699480" lon="38.7329100"><time>2020-11-01T11:44:16.547</time></trkpt><trkpt lat="55.5699530" lon="38.7329970"><time>2020-11-01T11:44:19.583</time></trkpt><trkpt lat="55.5699570" lon="38.7331020"><time>2020-11-01T11:44:26.580</time></trkpt><trkpt lat="55.5700180" lon="38.7333180"><time>2020-11-01T11:44:40.587</time></trkpt><trkpt lat="55.5700680" lon="38.7335220"><time>2020-11-01T11:44:53.587</time></trkpt><trkpt lat="55.5701200" lon="38.7336920"><time>2020-11-01T11:45:00.590</time></trkpt><trkpt lat="55.5701350" lon="38.7337800"><time>2020-11-01T11:45:02.583</time></trkpt><trkpt lat="55.5701420" lon="38.7339130"><time>2020-11-01T11:45:04.583</time></trkpt><trkpt lat="55.5701630" lon="38.7340280"><time>2020-11-01T11:45:05.587</time></trkpt><trkpt lat="55.5701630" lon="38.7341350"><time>2020-11-01T11:45:06.590</time></trkpt><trkpt lat="55.5701430" lon="38.7342880"><time>2020-11-01T11:45:08.587</time></trkpt><trkpt lat="55.5701400" lon="38.7344420"><time>2020-11-01T11:45:10.587</time></trkpt><trkpt lat="55.5701380" lon="38.7345220"><time>2020-11-01T11:45:11.587</time></trkpt><trkpt lat="55.5701320" lon="38.7346230"><time>2020-11-01T11:45:13.583</time></trkpt><trkpt lat="55.5701180" lon="38.7347120"><time>2020-11-01T11:45:15.587</time></trkpt><trkpt lat="55.5701100" lon="38.7348450"><time>2020-11-01T11:45:17.583</time></trkpt><trkpt lat="55.5701200" lon="38.7349500"><time>2020-11-01T11:45:20.587</time></trkpt><trkpt lat="55.5701170" lon="38.7350330"><time>2020-11-01T11:45:23.587</time></trkpt><trkpt lat="55.5701330" lon="38.7352200"><time>2020-11-01T11:45:30.587</time></trkpt><trkpt lat="55.5702030" lon="38.7354070"><time>2020-11-01T11:45:44.540</time></trkpt><trkpt lat="55.5702300" lon="38.7354770"><time>2020-11-01T11:45:47.587</time></trkpt><trkpt lat="55.5702350" lon="38.7355780"><time>2020-11-01T11:45:50.590</time></trkpt><trkpt lat="55.5702370" lon="38.7356930"><time>2020-11-01T11:45:52.587</time></trkpt><trkpt lat="55.5702320" lon="38.7358520"><time>2020-11-01T11:45:54.583</time></trkpt><trkpt lat="55.5702280" lon="38.7359370"><time>2020-11-01T11:45:55.583</time></trkpt><trkpt lat="55.5702300" lon="38.7360970"><time>2020-11-01T11:45:57.587</time></trkpt><trkpt lat="55.5701970" lon="38.7363120"><time>2020-11-01T11:46:05.587</time></trkpt><trkpt lat="55.5701250" lon="38.7364500"><time>2020-11-01T11:46:13.587</time></trkpt><trkpt lat="55.5700770" lon="38.7364730"><time>2020-11-01T11:46:15.587</time></trkpt><trkpt lat="55.5700270" lon="38.7365220"><time>2020-11-01T11:46:18.583</time></trkpt><trkpt lat="55.5699820" lon="38.7365830"><time>2020-11-01T11:46:20.587</time></trkpt><trkpt lat="55.5699220" lon="38.7366100"><time>2020-11-01T11:46:23.587</time></trkpt><trkpt lat="55.5698520" lon="38.7366370"><time>2020-11-01T11:46:26.587</time></trkpt><trkpt lat="55.5698000" lon="38.7366520"><time>2020-11-01T11:46:29.580</time></trkpt><trkpt lat="55.5697320" lon="38.7366500"><time>2020-11-01T11:46:31.587</time></trkpt><trkpt lat="55.5696880" lon="38.7366250"><time>2020-11-01T11:46:32.583</time></trkpt><trkpt lat="55.5696370" lon="38.7366270"><time>2020-11-01T11:46:34.587</time></trkpt><trkpt lat="55.5695830" lon="38.7366020"><time>2020-11-01T11:46:36.587</time></trkpt><trkpt lat="55.5695020" lon="38.7365730"><time>2020-11-01T11:46:39.587</time></trkpt><trkpt lat="55.5694470" lon="38.7365950"><time>2020-11-01T11:46:43.590</time></trkpt><trkpt lat="55.5694020" lon="38.7366170"><time>2020-11-01T11:46:45.587</time></trkpt><trkpt lat="55.5693550" lon="38.7366120"><time>2020-11-01T11:46:46.583</time></trkpt><trkpt lat="55.5693020" lon="38.7366050"><time>2020-11-01T11:46:48.587</time></trkpt><trkpt lat="55.5692570" lon="38.7366050"><time>2020-11-01T11:46:51.587</time></trkpt><trkpt lat="55.5691980" lon="38.7366250"><time>2020-11-01T11:46:54.563</time></trkpt><trkpt lat="55.5691450" lon="38.7366330"><time>2020-11-01T11:46:56.587</time></trkpt><trkpt lat="55.5690950" lon="38.7366750"><time>2020-11-01T11:47:00.587</time></trkpt><trkpt lat="55.5690470" lon="38.7366920"><time>2020-11-01T11:47:03.587</time></trkpt><trkpt lat="55.5689550" lon="38.7366980"><time>2020-11-01T11:47:09.593</time></trkpt><trkpt lat="55.5689020" lon="38.7366730"><time>2020-11-01T11:47:12.587</time></trkpt><trkpt lat="55.5688520" lon="38.7366730"><time>2020-11-01T11:47:16.587</time></trkpt><trkpt lat="55.5687930" lon="38.7366650"><time>2020-11-01T11:47:19.587</time></trkpt><trkpt lat="55.5687450" lon="38.7366700"><time>2020-11-01T11:47:23.587</time></trkpt><trkpt lat="55.5686700" lon="38.7366620"><time>2020-11-01T11:47:27.590</time></trkpt><trkpt lat="55.5686220" lon="38.7366880"><time>2020-11-01T11:47:29.587</time></trkpt><trkpt lat="55.5685480" lon="38.7366880"><time>2020-11-01T11:47:31.587</time></trkpt><trkpt lat="55.5684920" lon="38.7366870"><time>2020-11-01T11:47:33.590</time></trkpt><trkpt lat="55.5684370" lon="38.7366920"><time>2020-11-01T11:47:36.590</time></trkpt><trkpt lat="55.5683470" lon="38.7367270"><time>2020-11-01T11:47:43.590</time></trkpt><trkpt lat="55.5682770" lon="38.7367470"><time>2020-11-01T11:47:48.590</time></trkpt><trkpt lat="55.5682130" lon="38.7367550"><time>2020-11-01T11:47:51.583</time></trkpt><trkpt lat="55.5681370" lon="38.7367900"><time>2020-11-01T11:47:57.587</time></trkpt><trkpt lat="55.5680230" lon="38.7368400"><time>2020-11-01T11:48:07.580</time></trkpt><trkpt lat="55.5679770" lon="38.7368620"><time>2020-11-01T11:48:10.583</time></trkpt><trkpt lat="55.5679270" lon="38.7368330"><time>2020-11-01T11:48:11.587</time></trkpt><trkpt lat="55.5678680" lon="38.7368020"><time>2020-11-01T11:48:13.587</time></trkpt><trkpt lat="55.5678170" lon="38.7367970"><time>2020-11-01T11:48:15.587</time></trkpt><trkpt lat="55.5677650" lon="38.7367820"><time>2020-11-01T11:48:17.587</time></trkpt><trkpt lat="55.5677180" lon="38.7367370"><time>2020-11-01T11:48:19.587</time></trkpt><trkpt lat="55.5676750" lon="38.7366880"><time>2020-11-01T11:48:21.597</time></trkpt><trkpt lat="55.5675820" lon="38.7366230"><time>2020-11-01T11:48:28.587</time></trkpt><trkpt lat="55.5675180" lon="38.7365900"><time>2020-11-01T11:48:31.587</time></trkpt><trkpt lat="55.5674120" lon="38.7365420"><time>2020-11-01T11:48:36.587</time></trkpt><trkpt lat="55.5673650" lon="38.7365720"><time>2020-11-01T11:48:38.587</time></trkpt><trkpt lat="55.5673080" lon="38.7365520"><time>2020-11-01T11:48:40.587</time></trkpt><trkpt lat="55.5672470" lon="38.7365870"><time>2020-11-01T11:48:42.587</time></trkpt><trkpt lat="55.5671970" lon="38.7366380"><time>2020-11-01T11:48:45.590</time></trkpt><trkpt lat="55.5671450" lon="38.7366320"><time>2020-11-01T11:48:48.587</time></trkpt><trkpt lat="55.5670900" lon="38.7366270"><time>2020-11-01T11:48:51.590</time></trkpt><trkpt lat="55.5670430" lon="38.7366150"><time>2020-11-01T11:48:53.587</time></trkpt><trkpt lat="55.5669870" lon="38.7365980"><time>2020-11-01T11:48:55.590</time></trkpt><trkpt lat="55.5669300" lon="38.7365720"><time>2020-11-01T11:48:57.590</time></trkpt><trkpt lat="55.5668670" lon="38.7365520"><time>2020-11-01T11:48:59.587</time></trkpt><trkpt lat="55.5668180" lon="38.7365480"><time>2020-11-01T11:49:01.590</time></trkpt><trkpt lat="55.5667550" lon="38.7365620"><time>2020-11-01T11:49:03.587</time></trkpt><trkpt lat="55.5667100" lon="38.7365570"><time>2020-11-01T11:49:06.587</time></trkpt><trkpt lat="55.5665970" lon="38.7366280"><time>2020-11-01T11:49:14.583</time></trkpt><trkpt lat="55.5665320" lon="38.7366220"><time>2020-11-01T11:49:16.583</time></trkpt><trkpt lat="55.5664600" lon="38.7365470"><time>2020-11-01T11:49:18.587</time></trkpt><trkpt lat="55.5664070" lon="38.7365180"><time>2020-11-01T11:49:20.583</time></trkpt><trkpt lat="55.5663430" lon="38.7364980"><time>2020-11-01T11:49:23.587</time></trkpt><trkpt lat="55.5662880" lon="38.7364720"><time>2020-11-01T11:49:25.587</time></trkpt><trkpt lat="55.5662400" lon="38.7364600"><time>2020-11-01T11:49:27.587</time></trkpt><trkpt lat="55.5661930" lon="38.7364380"><time>2020-11-01T11:49:29.583</time></trkpt><trkpt lat="55.5661370" lon="38.7364420"><time>2020-11-01T11:49:32.587</time></trkpt><trkpt lat="55.5660920" lon="38.7364600"><time>2020-11-01T11:49:35.587</time></trkpt><trkpt lat="55.5660430" lon="38.7364620"><time>2020-11-01T11:49:37.590</time></trkpt><trkpt lat="55.5659930" lon="38.7364320"><time>2020-11-01T11:49:39.590</time></trkpt><trkpt lat="55.5659470" lon="38.7364370"><time>2020-11-01T11:49:42.587</time></trkpt><trkpt lat="55.5658580" lon="38.7364220"><time>2020-11-01T11:49:44.587</time></trkpt><trkpt lat="55.5658020" lon="38.7364120"><time>2020-11-01T11:49:45.590</time></trkpt><trkpt lat="55.5657330" lon="38.7363720"><time>2020-11-01T11:49:47.590</time></trkpt><trkpt lat="55.5656800" lon="38.7363470"><time>2020-11-01T11:49:49.583</time></trkpt><trkpt lat="55.5656220" lon="38.7363350"><time>2020-11-01T11:49:51.587</time></trkpt><trkpt lat="55.5655550" lon="38.7363430"><time>2020-11-01T11:49:54.587</time></trkpt><trkpt lat="55.5655020" lon="38.7363520"><time>2020-11-01T11:49:57.587</time></trkpt><trkpt lat="55.5653830" lon="38.7363270"><time>2020-11-01T11:50:09.587</time></trkpt><trkpt lat="55.5653220" lon="38.7363220"><time>2020-11-01T11:50:12.587</time></trkpt><trkpt lat="55.5652530" lon="38.7363320"><time>2020-11-01T11:50:14.587</time></trkpt><trkpt lat="55.5652070" lon="38.7363630"><time>2020-11-01T11:50:17.583</time></trkpt><trkpt lat="55.5651670" lon="38.7364270"><time>2020-11-01T11:50:20.587</time></trkpt><trkpt lat="55.5651050" lon="38.7364470"><time>2020-11-01T11:50:23.587</time></trkpt><trkpt lat="55.5650530" lon="38.7364230"><time>2020-11-01T11:50:26.587</time></trkpt><trkpt lat="55.5649750" lon="38.7364200"><time>2020-11-01T11:50:31.587</time></trkpt><trkpt lat="55.5649270" lon="38.7364270"><time>2020-11-01T11:50:34.587</time></trkpt><trkpt lat="55.5648170" lon="38.7364120"><time>2020-11-01T11:50:36.590</time></trkpt><trkpt lat="55.5647600" lon="38.7363800"><time>2020-11-01T11:50:37.590</time></trkpt><trkpt lat="55.5647030" lon="38.7363720"><time>2020-11-01T11:50:40.587</time></trkpt><trkpt lat="55.5646580" lon="38.7363400"><time>2020-11-01T11:50:42.583</time></trkpt><trkpt lat="55.5646170" lon="38.7362980"><time>2020-11-01T11:50:45.587</time></trkpt><trkpt lat="55.5645650" lon="38.7363080"><time>2020-11-01T11:50:48.583</time></trkpt><trkpt lat="55.5645150" lon="38.7363080"><time>2020-11-01T11:50:52.553</time></trkpt><trkpt lat="55.5644700" lon="38.7362870"><time>2020-11-01T11:50:54.587</time></trkpt><trkpt lat="55.5644070" lon="38.7362650"><time>2020-11-01T11:50:57.590</time></trkpt><trkpt lat="55.5643630" lon="38.7363100"><time>2020-11-01T11:50:59.587</time></trkpt><trkpt lat="55.5643170" lon="38.7363130"><time>2020-11-01T11:51:03.590</time></trkpt><trkpt lat="55.5642230" lon="38.7363200"><time>2020-11-01T11:51:09.590</time></trkpt><trkpt lat="55.5641730" lon="38.7363370"><time>2020-11-01T11:51:12.590</time></trkpt><trkpt lat="55.5641130" lon="38.7363400"><time>2020-11-01T11:51:15.590</time></trkpt><trkpt lat="55.5640700" lon="38.7364080"><time>2020-11-01T11:51:18.587</time></trkpt><trkpt lat="55.5640220" lon="38.7364170"><time>2020-11-01T11:51:20.587</time></trkpt><trkpt lat="55.5639620" lon="38.7364000"><time>2020-11-01T11:51:23.587</time></trkpt><trkpt lat="55.5638980" lon="38.7363830"><time>2020-11-01T11:51:25.587</time></trkpt><trkpt lat="55.5638520" lon="38.7363800"><time>2020-11-01T11:51:27.590</time></trkpt><trkpt lat="55.5637880" lon="38.7363320"><time>2020-11-01T11:51:32.587</time></trkpt><trkpt lat="55.5637280" lon="38.7363220"><time>2020-11-01T11:51:35.590</time></trkpt><trkpt lat="55.5636420" lon="38.7363020"><time>2020-11-01T11:51:42.590</time></trkpt><trkpt lat="55.5635930" lon="38.7363000"><time>2020-11-01T11:51:43.583</time></trkpt><trkpt lat="55.5635400" lon="38.7362930"><time>2020-11-01T11:51:46.587</time></trkpt><trkpt lat="55.5634470" lon="38.7363820"><time>2020-11-01T11:52:03.587</time></trkpt><trkpt lat="55.5633370" lon="38.7364830"><time>2020-11-01T11:52:12.587</time></trkpt><trkpt lat="55.5632880" lon="38.7365020"><time>2020-11-01T11:52:13.593</time></trkpt><trkpt lat="55.5632270" lon="38.7365530"><time>2020-11-01T11:52:15.597</time></trkpt><trkpt lat="55.5631680" lon="38.7365870"><time>2020-11-01T11:52:17.587</time></trkpt><trkpt lat="55.5631470" lon="38.7366870"><time>2020-11-01T11:52:20.587</time></trkpt><trkpt lat="55.5631080" lon="38.7367520"><time>2020-11-01T11:52:24.583</time></trkpt><trkpt lat="55.5630600" lon="38.7367620"><time>2020-11-01T11:52:26.587</time></trkpt><trkpt lat="55.5630150" lon="38.7367870"><time>2020-11-01T11:52:29.587</time></trkpt><trkpt lat="55.5629120" lon="38.7368000"><time>2020-11-01T11:52:34.587</time></trkpt><trkpt lat="55.5627780" lon="38.7367730"><time>2020-11-01T11:52:43.560</time></trkpt><trkpt lat="55.5627630" lon="38.7368580"><time>2020-11-01T11:52:45.540</time></trkpt><trkpt lat="55.5628420" lon="38.7368500"><time>2020-11-01T11:52:47.557</time></trkpt><trkpt lat="55.5628880" lon="38.7368630"><time>2020-11-01T11:52:48.553</time></trkpt><trkpt lat="55.5628500" lon="38.7369270"><time>2020-11-01T11:52:52.547</time></trkpt><trkpt lat="55.5627880" lon="38.7369650"><time>2020-11-01T11:52:55.550</time></trkpt><trkpt lat="55.5627330" lon="38.7369670"><time>2020-11-01T11:52:58.543</time></trkpt><trkpt lat="55.5626900" lon="38.7370270"><time>2020-11-01T11:53:00.567</time></trkpt><trkpt lat="55.5626570" lon="38.7371180"><time>2020-11-01T11:53:02.563</time></trkpt><trkpt lat="55.5626350" lon="38.7371930"><time>2020-11-01T11:53:05.557</time></trkpt><trkpt lat="55.5620830" lon="38.7372120"><time>2020-11-01T11:53:18.587</time></trkpt><trkpt lat="55.5621550" lon="38.7372750"><time>2020-11-01T11:53:19.587</time></trkpt><trkpt lat="55.5622150" lon="38.7373320"><time>2020-11-01T11:53:20.597</time></trkpt><trkpt lat="55.5622820" lon="38.7373420"><time>2020-11-01T11:53:22.020</time></trkpt><trkpt lat="55.5623880" lon="38.7373520"><time>2020-11-01T11:53:23.550</time></trkpt><trkpt lat="55.5624550" lon="38.7373200"><time>2020-11-01T11:53:26.637</time></trkpt><trkpt lat="55.5624230" lon="38.7368400"><time>2020-11-01T11:53:32.583</time></trkpt><trkpt lat="55.5624180" lon="38.7367470"><time>2020-11-01T11:53:33.547</time></trkpt><trkpt lat="55.5623900" lon="38.7369470"><time>2020-11-01T11:53:35.553</time></trkpt><trkpt lat="55.5624530" lon="38.7369400"><time>2020-11-01T11:53:39.567</time></trkpt><trkpt lat="55.5621900" lon="38.7369470"><time>2020-11-01T11:53:42.543</time></trkpt><trkpt lat="55.5619670" lon="38.7369150"><time>2020-11-01T11:53:43.540</time></trkpt><trkpt lat="55.5620230" lon="38.7369400"><time>2020-11-01T11:53:44.540</time></trkpt><trkpt lat="55.5620930" lon="38.7369630"><time>2020-11-01T11:53:45.547</time></trkpt><trkpt lat="55.5621600" lon="38.7369230"><time>2020-11-01T11:53:47.537</time></trkpt><trkpt lat="55.5622880" lon="38.7369020"><time>2020-11-01T11:53:51.547</time></trkpt><trkpt lat="55.5623930" lon="38.7369670"><time>2020-11-01T11:53:54.543</time></trkpt><trkpt lat="55.5625220" lon="38.7369230"><time>2020-11-01T11:54:00.550</time></trkpt><trkpt lat="55.5625880" lon="38.7367320"><time>2020-11-01T11:54:12.547</time></trkpt><trkpt lat="55.5625220" lon="38.7365250"><time>2020-11-01T11:54:23.537</time></trkpt><trkpt lat="55.5624600" lon="38.7364400"><time>2020-11-01T11:54:32.587</time></trkpt><trkpt lat="55.5623430" lon="38.7363530"><time>2020-11-01T11:54:49.547</time></trkpt><trkpt lat="55.5622720" lon="38.7363070"><time>2020-11-01T11:55:03.547</time></trkpt><trkpt lat="55.5621500" lon="38.7362270"><time>2020-11-01T11:55:21.557</time></trkpt><trkpt lat="55.5620980" lon="38.7362600"><time>2020-11-01T11:55:22.583</time></trkpt><trkpt lat="55.5620480" lon="38.7361980"><time>2020-11-01T11:55:25.587</time></trkpt><trkpt lat="55.5619950" lon="38.7361480"><time>2020-11-01T11:55:27.723</time></trkpt><trkpt lat="55.5619530" lon="38.7361020"><time>2020-11-01T11:55:30.583</time></trkpt><trkpt lat="55.5619050" lon="38.7360930"><time>2020-11-01T11:55:37.583</time></trkpt><trkpt lat="55.5618320" lon="38.7360920"><time>2020-11-01T11:55:40.540</time></trkpt><trkpt lat="55.5617850" lon="38.7360430"><time>2020-11-01T11:55:43.550</time></trkpt><trkpt lat="55.5617480" lon="38.7359950"><time>2020-11-01T11:55:46.573</time></trkpt><trkpt lat="55.5616850" lon="38.7359820"><time>2020-11-01T11:55:48.550</time></trkpt><trkpt lat="55.5616350" lon="38.7360170"><time>2020-11-01T11:55:51.583</time></trkpt><trkpt lat="55.5615770" lon="38.7360070"><time>2020-11-01T11:55:53.557</time></trkpt><trkpt lat="55.5614730" lon="38.7359700"><time>2020-11-01T11:56:02.567</time></trkpt><trkpt lat="55.5614050" lon="38.7359480"><time>2020-11-01T11:56:08.543</time></trkpt><trkpt lat="55.5613480" lon="38.7359530"><time>2020-11-01T11:56:11.547</time></trkpt><trkpt lat="55.5612870" lon="38.7359420"><time>2020-11-01T11:56:14.543</time></trkpt><trkpt lat="55.5612380" lon="38.7359550"><time>2020-11-01T11:56:16.547</time></trkpt><trkpt lat="55.5611870" lon="38.7359700"><time>2020-11-01T11:56:18.547</time></trkpt><trkpt lat="55.5611100" lon="38.7360180"><time>2020-11-01T11:56:22.547</time></trkpt><trkpt lat="55.5610620" lon="38.7360520"><time>2020-11-01T11:56:24.577</time></trkpt><trkpt lat="55.5610180" lon="38.7360870"><time>2020-11-01T11:56:26.553</time></trkpt><trkpt lat="55.5609470" lon="38.7361250"><time>2020-11-01T11:56:29.577</time></trkpt><trkpt lat="55.5608700" lon="38.7361300"><time>2020-11-01T11:56:31.547</time></trkpt><trkpt lat="55.5608150" lon="38.7361130"><time>2020-11-01T11:56:33.543</time></trkpt><trkpt lat="55.5607620" lon="38.7360550"><time>2020-11-01T11:56:35.540</time></trkpt><trkpt lat="55.5606900" lon="38.7360200"><time>2020-11-01T11:56:37.553</time></trkpt><trkpt lat="55.5605830" lon="38.7360630"><time>2020-11-01T11:56:52.540</time></trkpt><trkpt lat="55.5605950" lon="38.7362200"><time>2020-11-01T11:57:02.547</time></trkpt><trkpt lat="55.5605770" lon="38.7362980"><time>2020-11-01T11:57:05.547</time></trkpt><trkpt lat="55.5605470" lon="38.7365270"><time>2020-11-01T11:57:43.583</time></trkpt><trkpt lat="55.5605630" lon="38.7367650"><time>2020-11-01T11:57:58.547</time></trkpt><trkpt lat="55.5605530" lon="38.7368470"><time>2020-11-01T11:58:02.580</time></trkpt><trkpt lat="55.5605500" lon="38.7370270"><time>2020-11-01T11:58:12.577</time></trkpt><trkpt lat="55.5605970" lon="38.7370600"><time>2020-11-01T11:58:15.547</time></trkpt><trkpt lat="55.5606200" lon="38.7372350"><time>2020-11-01T11:58:24.543</time></trkpt><trkpt lat="55.5606430" lon="38.7374650"><time>2020-11-01T11:58:39.580</time></trkpt><trkpt lat="55.5606380" lon="38.7375550"><time>2020-11-01T11:58:42.587</time></trkpt><trkpt lat="55.5606380" lon="38.7377300"><time>2020-11-01T11:58:47.587</time></trkpt><trkpt lat="55.5606330" lon="38.7378500"><time>2020-11-01T11:58:49.593</time></trkpt><trkpt lat="55.5606850" lon="38.7380600"><time>2020-11-01T11:58:56.587</time></trkpt><trkpt lat="55.5606980" lon="38.7381670"><time>2020-11-01T11:58:59.587</time></trkpt><trkpt lat="55.5606950" lon="38.7383980"><time>2020-11-01T11:59:08.590</time></trkpt><trkpt lat="55.5606930" lon="38.7384870"><time>2020-11-01T11:59:11.587</time></trkpt><trkpt lat="55.5606900" lon="38.7386480"><time>2020-11-01T11:59:16.587</time></trkpt><trkpt lat="55.5606550" lon="38.7388900"><time>2020-11-01T11:59:24.607</time></trkpt><trkpt lat="55.5606600" lon="38.7389800"><time>2020-11-01T11:59:27.590</time></trkpt><trkpt lat="55.5606850" lon="38.7391400"><time>2020-11-01T11:59:33.593</time></trkpt><trkpt lat="55.5607580" lon="38.7393430"><time>2020-11-01T11:59:45.590</time></trkpt><trkpt lat="55.5607800" lon="38.7394150"><time>2020-11-01T11:59:48.587</time></trkpt><trkpt lat="55.5608000" lon="38.7397350"><time>2020-11-01T11:59:55.590</time></trkpt><trkpt lat="55.5607650" lon="38.7399270"><time>2020-11-01T11:59:57.593</time></trkpt><trkpt lat="55.5608020" lon="38.7400030"><time>2020-11-01T11:59:58.590</time></trkpt><trkpt lat="55.5608180" lon="38.7401320"><time>2020-11-01T12:00:00.587</time></trkpt><trkpt lat="55.5608280" lon="38.7402630"><time>2020-11-01T12:00:03.587</time></trkpt><trkpt lat="55.5608600" lon="38.7404220"><time>2020-11-01T12:00:07.593</time></trkpt><trkpt lat="55.5608850" lon="38.7405020"><time>2020-11-01T12:00:10.587</time></trkpt><trkpt lat="55.5609280" lon="38.7406750"><time>2020-11-01T12:00:16.590</time></trkpt><trkpt lat="55.5609550" lon="38.7409350"><time>2020-11-01T12:00:24.587</time></trkpt><trkpt lat="55.5609600" lon="38.7411970"><time>2020-11-01T12:00:33.587</time></trkpt><trkpt lat="55.5609680" lon="38.7412970"><time>2020-11-01T12:00:36.587</time></trkpt><trkpt lat="55.5609770" lon="38.7414770"><time>2020-11-01T12:00:42.590</time></trkpt><trkpt lat="55.5609670" lon="38.7415630"><time>2020-11-01T12:00:44.590</time></trkpt><trkpt lat="55.5609300" lon="38.7417270"><time>2020-11-01T12:00:51.593</time></trkpt><trkpt lat="55.5609200" lon="38.7418250"><time>2020-11-01T12:00:54.667</time></trkpt><trkpt lat="55.5609170" lon="38.7420600"><time>2020-11-01T12:00:58.590</time></trkpt><trkpt lat="55.5609230" lon="38.7421430"><time>2020-11-01T12:00:59.587</time></trkpt><trkpt lat="55.5608950" lon="38.7422850"><time>2020-11-01T12:01:01.597</time></trkpt><trkpt lat="55.5608850" lon="38.7423680"><time>2020-11-01T12:01:02.587</time></trkpt><trkpt lat="55.5608680" lon="38.7424470"><time>2020-11-01T12:01:03.587</time></trkpt><trkpt lat="55.5608450" lon="38.7425980"><time>2020-11-01T12:01:05.587</time></trkpt><trkpt lat="55.5608380" lon="38.7427580"><time>2020-11-01T12:01:07.590</time></trkpt><trkpt lat="55.5608570" lon="38.7428980"><time>2020-11-01T12:01:09.587</time></trkpt><trkpt lat="55.5608950" lon="38.7431350"><time>2020-11-01T12:01:18.590</time></trkpt><trkpt lat="55.5608870" lon="38.7432300"><time>2020-11-01T12:01:20.587</time></trkpt><trkpt lat="55.5608630" lon="38.7434670"><time>2020-11-01T12:01:28.587</time></trkpt><trkpt lat="55.5608270" lon="38.7435430"><time>2020-11-01T12:01:30.583</time></trkpt><trkpt lat="55.5608330" lon="38.7437450"><time>2020-11-01T12:01:38.590</time></trkpt><trkpt lat="55.5608080" lon="38.7438300"><time>2020-11-01T12:01:40.590</time></trkpt><trkpt lat="55.5607800" lon="38.7439180"><time>2020-11-01T12:01:42.590</time></trkpt><trkpt lat="55.5607650" lon="38.7440470"><time>2020-11-01T12:01:44.583</time></trkpt><trkpt lat="55.5607430" lon="38.7441980"><time>2020-11-01T12:01:46.593</time></trkpt><trkpt lat="55.5607680" lon="38.7443980"><time>2020-11-01T12:01:56.593</time></trkpt><trkpt lat="55.5607820" lon="38.7444980"><time>2020-11-01T12:01:59.590</time></trkpt><trkpt lat="55.5608000" lon="38.7446650"><time>2020-11-01T12:02:03.590</time></trkpt><trkpt lat="55.5608220" lon="38.7447380"><time>2020-11-01T12:02:06.590</time></trkpt><trkpt lat="55.5608070" lon="38.7449100"><time>2020-11-01T12:02:14.590</time></trkpt><trkpt lat="55.5607720" lon="38.7451550"><time>2020-11-01T12:02:25.590</time></trkpt><trkpt lat="55.5607450" lon="38.7453950"><time>2020-11-01T12:02:35.593</time></trkpt><trkpt lat="55.5607530" lon="38.7454730"><time>2020-11-01T12:02:38.593</time></trkpt><trkpt lat="55.5607250" lon="38.7456400"><time>2020-11-01T12:02:44.587</time></trkpt><trkpt lat="55.5607100" lon="38.7457170"><time>2020-11-01T12:02:47.590</time></trkpt><trkpt lat="55.5606880" lon="38.7458820"><time>2020-11-01T12:02:53.587</time></trkpt><trkpt lat="55.5607120" lon="38.7459570"><time>2020-11-01T12:02:56.593</time></trkpt><trkpt lat="55.5607030" lon="38.7461300"><time>2020-11-01T12:03:05.590</time></trkpt><trkpt lat="55.5606850" lon="38.7463720"><time>2020-11-01T12:03:16.593</time></trkpt><trkpt lat="55.5606900" lon="38.7464530"><time>2020-11-01T12:03:19.593</time></trkpt><trkpt lat="55.5607150" lon="38.7466080"><time>2020-11-01T12:03:25.590</time></trkpt><trkpt lat="55.5607020" lon="38.7466850"><time>2020-11-01T12:03:28.590</time></trkpt><trkpt lat="55.5606950" lon="38.7468580"><time>2020-11-01T12:03:36.593</time></trkpt><trkpt lat="55.5606570" lon="38.7470920"><time>2020-11-01T12:03:49.590</time></trkpt><trkpt lat="55.5606100" lon="38.7472820"><time>2020-11-01T12:04:02.593</time></trkpt><trkpt lat="55.5605750" lon="38.7475000"><time>2020-11-01T12:04:14.590</time></trkpt><trkpt lat="55.5605670" lon="38.7475800"><time>2020-11-01T12:04:17.587</time></trkpt><trkpt lat="55.5605280" lon="38.7477230"><time>2020-11-01T12:04:26.590</time></trkpt><trkpt lat="55.5604620" lon="38.7479450"><time>2020-11-01T12:04:34.590</time></trkpt><trkpt lat="55.5604470" lon="38.7480200"><time>2020-11-01T12:04:36.590</time></trkpt><trkpt lat="55.5604280" lon="38.7482050"><time>2020-11-01T12:04:47.587</time></trkpt><trkpt lat="55.5603600" lon="38.7484020"><time>2020-11-01T12:04:59.590</time></trkpt><trkpt lat="55.5603380" lon="38.7484870"><time>2020-11-01T12:05:02.590</time></trkpt><trkpt lat="55.5602900" lon="38.7486500"><time>2020-11-01T12:05:10.593</time></trkpt><trkpt lat="55.5602270" lon="38.7488100"><time>2020-11-01T12:05:21.597</time></trkpt><trkpt lat="55.5601220" lon="38.7489300"><time>2020-11-01T12:05:34.587</time></trkpt><trkpt lat="55.5600450" lon="38.7491000"><time>2020-11-01T12:05:45.583</time></trkpt><trkpt lat="55.5600450" lon="38.7493550"><time>2020-11-01T12:05:55.593</time></trkpt><trkpt lat="55.5600450" lon="38.7494350"><time>2020-11-01T12:05:58.590</time></trkpt><trkpt lat="55.5600650" lon="38.7495930"><time>2020-11-01T12:06:04.593</time></trkpt><trkpt lat="55.5601070" lon="38.7498020"><time>2020-11-01T12:06:14.587</time></trkpt><trkpt lat="55.5601170" lon="38.7498870"><time>2020-11-01T12:06:17.590</time></trkpt><trkpt lat="55.5601150" lon="38.7500580"><time>2020-11-01T12:06:26.590</time></trkpt><trkpt lat="55.5600850" lon="38.7502830"><time>2020-11-01T12:06:41.590</time></trkpt><trkpt lat="55.5600650" lon="38.7504800"><time>2020-11-01T12:07:00.593</time></trkpt><trkpt lat="55.5601120" lon="38.7506620"><time>2020-11-01T12:08:06.587</time></trkpt><trkpt lat="55.5601080" lon="38.7512800"><time>2020-11-01T12:08:11.547</time></trkpt><trkpt lat="55.5602500" lon="38.7513300"><time>2020-11-01T12:08:12.543</time></trkpt><trkpt lat="55.5602500" lon="38.7516780"><time>2020-11-01T12:08:14.647</time></trkpt><trkpt lat="55.5606400" lon="38.7537530"><time>2020-11-01T12:08:15.547</time></trkpt><trkpt lat="55.5606400" lon="38.7537530"><time>2020-11-01T12:08:16.113</time></trkpt><trkpt lat="55.5607200" lon="38.7557680"><time>2020-11-01T12:08:16.550</time></trkpt><trkpt lat="55.5607000" lon="38.7567870"><time>2020-11-01T12:08:21.587</time></trkpt><trkpt lat="55.5608200" lon="38.7571680"><time>2020-11-01T12:08:22.587</time></trkpt><trkpt lat="55.5609330" lon="38.7574780"><time>2020-11-01T12:08:23.583</time></trkpt><trkpt lat="55.5608700" lon="38.7572630"><time>2020-11-01T12:08:24.583</time></trkpt><trkpt lat="55.5606070" lon="38.7569830"><time>2020-11-01T12:08:25.587</time></trkpt><trkpt lat="55.5608280" lon="38.7571770"><time>2020-11-01T12:08:26.587</time></trkpt><trkpt lat="55.5609200" lon="38.7572970"><time>2020-11-01T12:08:27.590</time></trkpt><trkpt lat="55.5608750" lon="38.7572070"><time>2020-11-01T12:08:30.583</time></trkpt><trkpt lat="55.5608430" lon="38.7571370"><time>2020-11-01T12:08:33.590</time></trkpt><trkpt lat="55.5609520" lon="38.7571970"><time>2020-11-01T12:08:36.590</time></trkpt><trkpt lat="55.5610730" lon="38.7572270"><time>2020-11-01T12:08:37.597</time></trkpt><trkpt lat="55.5611850" lon="38.7572100"><time>2020-11-01T12:08:38.597</time></trkpt><trkpt lat="55.5612630" lon="38.7571580"><time>2020-11-01T12:08:41.593</time></trkpt><trkpt lat="55.5613130" lon="38.7571220"><time>2020-11-01T12:08:44.590</time></trkpt><trkpt lat="55.5613070" lon="38.7569580"><time>2020-11-01T12:09:25.597</time></trkpt><trkpt lat="55.5613030" lon="38.7567750"><time>2020-11-01T12:09:48.593</time></trkpt><trkpt lat="55.5613530" lon="38.7568520"><time>2020-11-01T12:10:21.597</time></trkpt><trkpt lat="55.5614320" lon="38.7570050"><time>2020-11-01T12:10:42.587</time></trkpt><trkpt lat="55.5614850" lon="38.7571870"><time>2020-11-01T12:11:00.593</time></trkpt><trkpt lat="55.5615230" lon="38.7573880"><time>2020-11-01T12:11:12.593</time></trkpt><trkpt lat="55.5615780" lon="38.7576170"><time>2020-11-01T12:11:22.593</time></trkpt><trkpt lat="55.5615900" lon="38.7578550"><time>2020-11-01T12:11:33.587</time></trkpt><trkpt lat="55.5616030" lon="38.7579420"><time>2020-11-01T12:11:36.597</time></trkpt><trkpt lat="55.5616530" lon="38.7580850"><time>2020-11-01T12:11:42.590</time></trkpt><trkpt lat="55.5616650" lon="38.7581820"><time>2020-11-01T12:11:45.593</time></trkpt><trkpt lat="55.5617250" lon="38.7583500"><time>2020-11-01T12:11:55.587</time></trkpt><trkpt lat="55.5617450" lon="38.7584270"><time>2020-11-01T12:11:58.593</time></trkpt><trkpt lat="55.5617820" lon="38.7585870"><time>2020-11-01T12:12:05.590</time></trkpt><trkpt lat="55.5617930" lon="38.7586770"><time>2020-11-01T12:12:08.593</time></trkpt><trkpt lat="55.5618220" lon="38.7588330"><time>2020-11-01T12:12:14.590</time></trkpt><trkpt lat="55.5618450" lon="38.7589220"><time>2020-11-01T12:12:17.593</time></trkpt><trkpt lat="55.5618850" lon="38.7590750"><time>2020-11-01T12:12:23.593</time></trkpt><trkpt lat="55.5619130" lon="38.7591850"><time>2020-11-01T12:12:26.590</time></trkpt><trkpt lat="55.5619800" lon="38.7593150"><time>2020-11-01T12:12:31.593</time></trkpt><trkpt lat="55.5620400" lon="38.7595230"><time>2020-11-01T12:12:43.597</time></trkpt><trkpt lat="55.5620380" lon="38.7597230"><time>2020-11-01T12:12:51.593</time></trkpt><trkpt lat="55.5620370" lon="38.7598170"><time>2020-11-01T12:12:53.593</time></trkpt><trkpt lat="55.5620250" lon="38.7600320"><time>2020-11-01T12:13:03.587</time></trkpt><trkpt lat="55.5620430" lon="38.7602700"><time>2020-11-01T12:13:11.593</time></trkpt><trkpt lat="55.5620720" lon="38.7603920"><time>2020-11-01T12:13:14.587</time></trkpt><trkpt lat="55.5620980" lon="38.7605530"><time>2020-11-01T12:13:19.597</time></trkpt><trkpt lat="55.5620650" lon="38.7607520"><time>2020-11-01T12:13:29.590</time></trkpt><trkpt lat="55.5620320" lon="38.7608330"><time>2020-11-01T12:13:33.590</time></trkpt><trkpt lat="55.5620070" lon="38.7609080"><time>2020-11-01T12:13:36.593</time></trkpt><trkpt lat="55.5619630" lon="38.7609800"><time>2020-11-01T12:13:40.590</time></trkpt><trkpt lat="55.5619200" lon="38.7610130"><time>2020-11-01T12:13:44.590</time></trkpt><trkpt lat="55.5618520" lon="38.7609950"><time>2020-11-01T12:13:47.587</time></trkpt><trkpt lat="55.5618050" lon="38.7609950"><time>2020-11-01T12:13:49.593</time></trkpt><trkpt lat="55.5617420" lon="38.7609880"><time>2020-11-01T12:13:51.597</time></trkpt><trkpt lat="55.5616750" lon="38.7609600"><time>2020-11-01T12:13:53.593</time></trkpt><trkpt lat="55.5616150" lon="38.7609400"><time>2020-11-01T12:13:55.593</time></trkpt><trkpt lat="55.5615730" lon="38.7609700"><time>2020-11-01T12:13:57.597</time></trkpt><trkpt lat="55.5615400" lon="38.7610320"><time>2020-11-01T12:13:59.590</time></trkpt><trkpt lat="55.5614830" lon="38.7610520"><time>2020-11-01T12:14:02.587</time></trkpt><trkpt lat="55.5614380" lon="38.7610700"><time>2020-11-01T12:14:04.590</time></trkpt><trkpt lat="55.5613300" lon="38.7610720"><time>2020-11-01T12:14:15.593</time></trkpt><trkpt lat="55.5611930" lon="38.7610580"><time>2020-11-01T12:14:22.597</time></trkpt><trkpt lat="55.5611170" lon="38.7610970"><time>2020-11-01T12:14:24.587</time></trkpt><trkpt lat="55.5610370" lon="38.7611430"><time>2020-11-01T12:14:26.593</time></trkpt><trkpt lat="55.5609850" lon="38.7611900"><time>2020-11-01T12:14:28.590</time></trkpt><trkpt lat="55.5609370" lon="38.7612220"><time>2020-11-01T12:14:31.593</time></trkpt><trkpt lat="55.5608900" lon="38.7612620"><time>2020-11-01T12:14:35.597</time></trkpt><trkpt lat="55.5607970" lon="38.7613180"><time>2020-11-01T12:14:44.587</time></trkpt><trkpt lat="55.5607350" lon="38.7613350"><time>2020-11-01T12:14:48.593</time></trkpt><trkpt lat="55.5606870" lon="38.7613370"><time>2020-11-01T12:14:50.593</time></trkpt><trkpt lat="55.5606120" lon="38.7613580"><time>2020-11-01T12:14:54.593</time></trkpt><trkpt lat="55.5604620" lon="38.7613780"><time>2020-11-01T12:14:59.583</time></trkpt><trkpt lat="55.5604080" lon="38.7613830"><time>2020-11-01T12:15:01.583</time></trkpt><trkpt lat="55.5603530" lon="38.7613530"><time>2020-11-01T12:15:03.590</time></trkpt><trkpt lat="55.5602950" lon="38.7613680"><time>2020-11-01T12:15:05.587</time></trkpt><trkpt lat="55.5602420" lon="38.7613920"><time>2020-11-01T12:15:07.587</time></trkpt><trkpt lat="55.5601950" lon="38.7613870"><time>2020-11-01T12:15:09.587</time></trkpt><trkpt lat="55.5601450" lon="38.7613850"><time>2020-11-01T12:15:11.587</time></trkpt><trkpt lat="55.5600920" lon="38.7613950"><time>2020-11-01T12:15:14.587</time></trkpt><trkpt lat="55.5600450" lon="38.7613700"><time>2020-11-01T12:15:16.590</time></trkpt><trkpt lat="55.5599980" lon="38.7613330"><time>2020-11-01T12:15:19.590</time></trkpt><trkpt lat="55.5599520" lon="38.7613280"><time>2020-11-01T12:15:22.583</time></trkpt><trkpt lat="55.5598970" lon="38.7613470"><time>2020-11-01T12:15:28.590</time></trkpt><trkpt lat="55.5598220" lon="38.7613770"><time>2020-11-01T12:15:33.587</time></trkpt><trkpt lat="55.5597750" lon="38.7613600"><time>2020-11-01T12:15:36.583</time></trkpt><trkpt lat="55.5597030" lon="38.7613370"><time>2020-11-01T12:15:39.587</time></trkpt><trkpt lat="55.5596300" lon="38.7613480"><time>2020-11-01T12:15:41.587</time></trkpt><trkpt lat="55.5595800" lon="38.7613580"><time>2020-11-01T12:15:43.590</time></trkpt><trkpt lat="55.5594870" lon="38.7613650"><time>2020-11-01T12:15:48.587</time></trkpt><trkpt lat="55.5594370" lon="38.7613530"><time>2020-11-01T12:15:50.590</time></trkpt><trkpt lat="55.5593920" lon="38.7613280"><time>2020-11-01T12:15:52.590</time></trkpt><trkpt lat="55.5593370" lon="38.7613330"><time>2020-11-01T12:15:54.593</time></trkpt><trkpt lat="55.5592730" lon="38.7613570"><time>2020-11-01T12:15:56.590</time></trkpt><trkpt lat="55.5592180" lon="38.7613980"><time>2020-11-01T12:15:58.587</time></trkpt><trkpt lat="55.5593070" lon="38.7643630"><time>2020-11-01T12:16:01.590</time></trkpt><trkpt lat="55.5593420" lon="38.7644880"><time>2020-11-01T12:16:02.587</time></trkpt><trkpt lat="55.5593530" lon="38.7645780"><time>2020-11-01T12:16:04.587</time></trkpt><trkpt lat="55.5593350" lon="38.7646700"><time>2020-11-01T12:16:08.593</time></trkpt><trkpt lat="55.5592820" lon="38.7646430"><time>2020-11-01T12:16:17.590</time></trkpt><trkpt lat="55.5592280" lon="38.7646530"><time>2020-11-01T12:16:20.587</time></trkpt><trkpt lat="55.5591700" lon="38.7646750"><time>2020-11-01T12:16:23.590</time></trkpt><trkpt lat="55.5591170" lon="38.7646780"><time>2020-11-01T12:16:26.587</time></trkpt><trkpt lat="55.5590730" lon="38.7647000"><time>2020-11-01T12:16:30.587</time></trkpt><trkpt lat="55.5590230" lon="38.7647320"><time>2020-11-01T12:16:33.590</time></trkpt><trkpt lat="55.5589650" lon="38.7647480"><time>2020-11-01T12:16:36.587</time></trkpt><trkpt lat="55.5589180" lon="38.7647850"><time>2020-11-01T12:16:38.583</time></trkpt><trkpt lat="55.5588580" lon="38.7648020"><time>2020-11-01T12:16:42.590</time></trkpt><trkpt lat="55.5588080" lon="38.7648280"><time>2020-11-01T12:16:48.587</time></trkpt><trkpt lat="55.5587550" lon="38.7648030"><time>2020-11-01T12:16:52.590</time></trkpt><trkpt lat="55.5587120" lon="38.7647670"><time>2020-11-01T12:16:57.590</time></trkpt><trkpt lat="55.5586570" lon="38.7647330"><time>2020-11-01T12:17:04.587</time></trkpt><trkpt lat="55.5586050" lon="38.7647120"><time>2020-11-01T12:17:08.590</time></trkpt><trkpt lat="55.5585520" lon="38.7647050"><time>2020-11-01T12:17:11.583</time></trkpt><trkpt lat="55.5584980" lon="38.7647130"><time>2020-11-01T12:17:15.590</time></trkpt><trkpt lat="55.5584430" lon="38.7647470"><time>2020-11-01T12:17:21.590</time></trkpt><trkpt lat="55.5583870" lon="38.7647430"><time>2020-11-01T12:17:24.587</time></trkpt><trkpt lat="55.5583330" lon="38.7647250"><time>2020-11-01T12:17:29.550</time></trkpt><trkpt lat="55.5582900" lon="38.7646930"><time>2020-11-01T12:17:32.590</time></trkpt><trkpt lat="55.5582020" lon="38.7647180"><time>2020-11-01T12:17:37.590</time></trkpt><trkpt lat="55.5581430" lon="38.7647220"><time>2020-11-01T12:17:39.590</time></trkpt><trkpt lat="55.5580900" lon="38.7647320"><time>2020-11-01T12:17:41.587</time></trkpt><trkpt lat="55.5580430" lon="38.7647400"><time>2020-11-01T12:17:43.593</time></trkpt><trkpt lat="55.5579880" lon="38.7647650"><time>2020-11-01T12:17:45.587</time></trkpt><trkpt lat="55.5579280" lon="38.7647730"><time>2020-11-01T12:17:47.583</time></trkpt><trkpt lat="55.5578630" lon="38.7647770"><time>2020-11-01T12:17:50.590</time></trkpt><trkpt lat="55.5578020" lon="38.7647850"><time>2020-11-01T12:17:53.587</time></trkpt><trkpt lat="55.5577450" lon="38.7647800"><time>2020-11-01T12:17:56.587</time></trkpt><trkpt lat="55.5576870" lon="38.7647650"><time>2020-11-01T12:17:59.590</time></trkpt><trkpt lat="55.5576320" lon="38.7647800"><time>2020-11-01T12:18:01.587</time></trkpt><trkpt lat="55.5575670" lon="38.7647970"><time>2020-11-01T12:18:04.593</time></trkpt><trkpt lat="55.5575130" lon="38.7647920"><time>2020-11-01T12:18:07.590</time></trkpt><trkpt lat="55.5574620" lon="38.7648130"><time>2020-11-01T12:18:10.590</time></trkpt><trkpt lat="55.5574050" lon="38.7648150"><time>2020-11-01T12:18:12.593</time></trkpt><trkpt lat="55.5573550" lon="38.7648080"><time>2020-11-01T12:18:14.587</time></trkpt><trkpt lat="55.5573030" lon="38.7648080"><time>2020-11-01T12:18:16.587</time></trkpt><trkpt lat="55.5572530" lon="38.7648270"><time>2020-11-01T12:18:18.587</time></trkpt><trkpt lat="55.5572050" lon="38.7648300"><time>2020-11-01T12:18:20.590</time></trkpt><trkpt lat="55.5563230" lon="38.7655780"><time>2020-11-01T12:18:26.583</time></trkpt><trkpt lat="55.5563950" lon="38.7655100"><time>2020-11-01T12:18:27.593</time></trkpt><trkpt lat="55.5563520" lon="38.7654670"><time>2020-11-01T12:18:28.587</time></trkpt><trkpt lat="55.5562770" lon="38.7654900"><time>2020-11-01T12:18:29.590</time></trkpt><trkpt lat="55.5562070" lon="38.7655080"><time>2020-11-01T12:18:30.590</time></trkpt><trkpt lat="55.5561430" lon="38.7654950"><time>2020-11-01T12:18:31.593</time></trkpt><trkpt lat="55.5560850" lon="38.7654770"><time>2020-11-01T12:18:32.587</time></trkpt><trkpt lat="55.5560280" lon="38.7654630"><time>2020-11-01T12:18:33.587</time></trkpt><trkpt lat="55.5559730" lon="38.7653800"><time>2020-11-01T12:18:35.590</time></trkpt><trkpt lat="55.5559230" lon="38.7653800"><time>2020-11-01T12:18:36.590</time></trkpt><trkpt lat="55.5558780" lon="38.7653620"><time>2020-11-01T12:18:37.587</time></trkpt><trkpt lat="55.5558000" lon="38.7653250"><time>2020-11-01T12:18:39.587</time></trkpt><trkpt lat="55.5557600" lon="38.7652780"><time>2020-11-01T12:18:41.587</time></trkpt><trkpt lat="55.5557070" lon="38.7652950"><time>2020-11-01T12:18:42.590</time></trkpt><trkpt lat="55.5556600" lon="38.7653020"><time>2020-11-01T12:18:43.590</time></trkpt><trkpt lat="55.5555800" lon="38.7652950"><time>2020-11-01T12:18:45.587</time></trkpt><trkpt lat="55.5554950" lon="38.7653130"><time>2020-11-01T12:18:47.583</time></trkpt><trkpt lat="55.5554300" lon="38.7652870"><time>2020-11-01T12:18:49.590</time></trkpt><trkpt lat="55.5553680" lon="38.7652650"><time>2020-11-01T12:18:52.593</time></trkpt><trkpt lat="55.5552780" lon="38.7652400"><time>2020-11-01T12:18:55.587</time></trkpt><trkpt lat="55.5552170" lon="38.7652050"><time>2020-11-01T12:18:58.587</time></trkpt><trkpt lat="55.5551550" lon="38.7651600"><time>2020-11-01T12:19:00.590</time></trkpt><trkpt lat="55.5551030" lon="38.7651750"><time>2020-11-01T12:19:02.587</time></trkpt><trkpt lat="55.5550180" lon="38.7651720"><time>2020-11-01T12:19:05.590</time></trkpt><trkpt lat="55.5549630" lon="38.7651420"><time>2020-11-01T12:19:07.590</time></trkpt><trkpt lat="55.5549170" lon="38.7651130"><time>2020-11-01T12:19:09.593</time></trkpt><trkpt lat="55.5548550" lon="38.7651130"><time>2020-11-01T12:19:11.590</time></trkpt><trkpt lat="55.5547650" lon="38.7651470"><time>2020-11-01T12:19:14.593</time></trkpt><trkpt lat="55.5547050" lon="38.7651080"><time>2020-11-01T12:19:17.583</time></trkpt><trkpt lat="55.5546270" lon="38.7651400"><time>2020-11-01T12:19:19.593</time></trkpt><trkpt lat="55.5545500" lon="38.7651370"><time>2020-11-01T12:19:21.587</time></trkpt><trkpt lat="55.5545020" lon="38.7651400"><time>2020-11-01T12:19:22.590</time></trkpt><trkpt lat="55.5544220" lon="38.7651220"><time>2020-11-01T12:19:24.590</time></trkpt><trkpt lat="55.5543770" lon="38.7650980"><time>2020-11-01T12:19:25.590</time></trkpt><trkpt lat="55.5543120" lon="38.7650370"><time>2020-11-01T12:19:26.590</time></trkpt><trkpt lat="55.5542350" lon="38.7650050"><time>2020-11-01T12:19:28.587</time></trkpt><trkpt lat="55.5541870" lon="38.7650050"><time>2020-11-01T12:19:29.593</time></trkpt><trkpt lat="55.5541030" lon="38.7649630"><time>2020-11-01T12:19:31.590</time></trkpt><trkpt lat="55.5540250" lon="38.7649130"><time>2020-11-01T12:19:33.590</time></trkpt><trkpt lat="55.5539400" lon="38.7648870"><time>2020-11-01T12:19:34.587</time></trkpt><trkpt lat="55.5539000" lon="38.7648430"><time>2020-11-01T12:19:35.590</time></trkpt><trkpt lat="55.5538380" lon="38.7647680"><time>2020-11-01T12:19:37.587</time></trkpt><trkpt lat="55.5537880" lon="38.7647270"><time>2020-11-01T12:19:39.583</time></trkpt><trkpt lat="55.5537320" lon="38.7647220"><time>2020-11-01T12:19:42.587</time></trkpt><trkpt lat="55.5536380" lon="38.7647720"><time>2020-11-01T12:19:46.587</time></trkpt><trkpt lat="55.5535700" lon="38.7648000"><time>2020-11-01T12:19:48.590</time></trkpt><trkpt lat="55.5535080" lon="38.7648120"><time>2020-11-01T12:19:50.583</time></trkpt><trkpt lat="55.5534220" lon="38.7648480"><time>2020-11-01T12:19:52.587</time></trkpt><trkpt lat="55.5533580" lon="38.7648980"><time>2020-11-01T12:19:54.590</time></trkpt><trkpt lat="55.5532970" lon="38.7648820"><time>2020-11-01T12:19:56.587</time></trkpt><trkpt lat="55.5531770" lon="38.7648570"><time>2020-11-01T12:20:02.590</time></trkpt><trkpt lat="55.5531100" lon="38.7648580"><time>2020-11-01T12:20:04.590</time></trkpt><trkpt lat="55.5530430" lon="38.7648420"><time>2020-11-01T12:20:06.590</time></trkpt><trkpt lat="55.5529930" lon="38.7648580"><time>2020-11-01T12:20:08.587</time></trkpt><trkpt lat="55.5529350" lon="38.7648830"><time>2020-11-01T12:20:10.590</time></trkpt><trkpt lat="55.5528730" lon="38.7648670"><time>2020-11-01T12:20:12.587</time></trkpt><trkpt lat="55.5528200" lon="38.7648680"><time>2020-11-01T12:20:14.590</time></trkpt><trkpt lat="55.5527570" lon="38.7648730"><time>2020-11-01T12:20:16.587</time></trkpt><trkpt lat="55.5527100" lon="38.7648800"><time>2020-11-01T12:20:18.590</time></trkpt><trkpt lat="55.5526530" lon="38.7648970"><time>2020-11-01T12:20:21.593</time></trkpt><trkpt lat="55.5525880" lon="38.7649380"><time>2020-11-01T12:20:23.583</time></trkpt><trkpt lat="55.5525230" lon="38.7649250"><time>2020-11-01T12:20:25.587</time></trkpt><trkpt lat="55.5524720" lon="38.7649470"><time>2020-11-01T12:20:27.593</time></trkpt><trkpt lat="55.5523870" lon="38.7649350"><time>2020-11-01T12:20:29.583</time></trkpt><trkpt lat="55.5523120" lon="38.7648900"><time>2020-11-01T12:20:31.590</time></trkpt><trkpt lat="55.5522570" lon="38.7648700"><time>2020-11-01T12:20:32.590</time></trkpt><trkpt lat="55.5521850" lon="38.7648600"><time>2020-11-01T12:20:33.590</time></trkpt><trkpt lat="55.5520970" lon="38.7648400"><time>2020-11-01T12:20:34.587</time></trkpt><trkpt lat="55.5520370" lon="38.7648220"><time>2020-11-01T12:20:35.587</time></trkpt><trkpt lat="55.5519700" lon="38.7648000"><time>2020-11-01T12:20:36.590</time></trkpt><trkpt lat="55.5519070" lon="38.7648050"><time>2020-11-01T12:20:37.590</time></trkpt><trkpt lat="55.5518230" lon="38.7648280"><time>2020-11-01T12:20:39.593</time></trkpt><trkpt lat="55.5517450" lon="38.7648150"><time>2020-11-01T12:20:41.587</time></trkpt><trkpt lat="55.5516700" lon="38.7648100"><time>2020-11-01T12:20:43.587</time></trkpt><trkpt lat="55.5516130" lon="38.7648320"><time>2020-11-01T12:20:45.590</time></trkpt><trkpt lat="55.5515480" lon="38.7648550"><time>2020-11-01T12:20:47.587</time></trkpt><trkpt lat="55.5514980" lon="38.7648520"><time>2020-11-01T12:20:49.593</time></trkpt><trkpt lat="55.5514530" lon="38.7648550"><time>2020-11-01T12:20:51.590</time></trkpt><trkpt lat="55.5513880" lon="38.7648650"><time>2020-11-01T12:20:53.590</time></trkpt><trkpt lat="55.5513420" lon="38.7648630"><time>2020-11-01T12:20:54.590</time></trkpt><trkpt lat="55.5512700" lon="38.7648530"><time>2020-11-01T12:20:56.590</time></trkpt><trkpt lat="55.5512130" lon="38.7648550"><time>2020-11-01T12:20:58.553</time></trkpt><trkpt lat="55.5511550" lon="38.7648550"><time>2020-11-01T12:21:00.590</time></trkpt><trkpt lat="55.5510920" lon="38.7648820"><time>2020-11-01T12:21:03.590</time></trkpt><trkpt lat="55.5510470" lon="38.7648850"><time>2020-11-01T12:21:05.590</time></trkpt><trkpt lat="55.5510030" lon="38.7648630"><time>2020-11-01T12:21:08.590</time></trkpt><trkpt lat="55.5509520" lon="38.7648530"><time>2020-11-01T12:21:11.590</time></trkpt><trkpt lat="55.5509000" lon="38.7648730"><time>2020-11-01T12:21:14.590</time></trkpt><trkpt lat="55.5508320" lon="38.7648550"><time>2020-11-01T12:21:17.583</time></trkpt><trkpt lat="55.5507650" lon="38.7648500"><time>2020-11-01T12:21:19.593</time></trkpt><trkpt lat="55.5507170" lon="38.7648530"><time>2020-11-01T12:21:21.597</time></trkpt><trkpt lat="55.5506580" lon="38.7648680"><time>2020-11-01T12:21:24.587</time></trkpt><trkpt lat="55.5506020" lon="38.7648680"><time>2020-11-01T12:21:27.593</time></trkpt><trkpt lat="55.5505480" lon="38.7648700"><time>2020-11-01T12:21:29.583</time></trkpt><trkpt lat="55.5504880" lon="38.7648730"><time>2020-11-01T12:21:32.587</time></trkpt><trkpt lat="55.5504400" lon="38.7649030"><time>2020-11-01T12:21:35.590</time></trkpt><trkpt lat="55.5503830" lon="38.7649130"><time>2020-11-01T12:21:38.590</time></trkpt><trkpt lat="55.5503070" lon="38.7649220"><time>2020-11-01T12:21:41.590</time></trkpt><trkpt lat="55.5502520" lon="38.7649400"><time>2020-11-01T12:21:43.593</time></trkpt><trkpt lat="55.5501980" lon="38.7649420"><time>2020-11-01T12:21:45.590</time></trkpt><trkpt lat="55.5501520" lon="38.7649480"><time>2020-11-01T12:21:47.583</time></trkpt><trkpt lat="55.5500980" lon="38.7649300"><time>2020-11-01T12:21:49.587</time></trkpt><trkpt lat="55.5500450" lon="38.7648900"><time>2020-11-01T12:21:52.593</time></trkpt><trkpt lat="55.5499930" lon="38.7648750"><time>2020-11-01T12:21:54.597</time></trkpt><trkpt lat="55.5499450" lon="38.7648730"><time>2020-11-01T12:21:56.590</time></trkpt><trkpt lat="55.5498950" lon="38.7648600"><time>2020-11-01T12:21:58.593</time></trkpt><trkpt lat="55.5498480" lon="38.7647980"><time>2020-11-01T12:22:00.590</time></trkpt><trkpt lat="55.5497680" lon="38.7647900"><time>2020-11-01T12:22:02.560</time></trkpt><trkpt lat="55.5497230" lon="38.7647720"><time>2020-11-01T12:22:04.590</time></trkpt><trkpt lat="55.5496730" lon="38.7647350"><time>2020-11-01T12:22:06.593</time></trkpt><trkpt lat="55.5496100" lon="38.7647280"><time>2020-11-01T12:22:09.587</time></trkpt><trkpt lat="55.5495400" lon="38.7647180"><time>2020-11-01T12:22:12.590</time></trkpt><trkpt lat="55.5494880" lon="38.7646970"><time>2020-11-01T12:22:14.593</time></trkpt><trkpt lat="55.5494430" lon="38.7646850"><time>2020-11-01T12:22:16.590</time></trkpt><trkpt lat="55.5493750" lon="38.7646770"><time>2020-11-01T12:22:18.587</time></trkpt><trkpt lat="55.5493170" lon="38.7646670"><time>2020-11-01T12:22:20.587</time></trkpt><trkpt lat="55.5492580" lon="38.7646670"><time>2020-11-01T12:22:22.590</time></trkpt><trkpt lat="55.5491950" lon="38.7646620"><time>2020-11-01T12:22:24.593</time></trkpt><trkpt lat="55.5491500" lon="38.7646670"><time>2020-11-01T12:22:25.587</time></trkpt><trkpt lat="55.5490680" lon="38.7646720"><time>2020-11-01T12:22:27.590</time></trkpt><trkpt lat="55.5490200" lon="38.7646670"><time>2020-11-01T12:22:29.553</time></trkpt><trkpt lat="55.5489720" lon="38.7646400"><time>2020-11-01T12:22:31.593</time></trkpt><trkpt lat="55.5489250" lon="38.7646250"><time>2020-11-01T12:22:33.587</time></trkpt><trkpt lat="55.5488770" lon="38.7646130"><time>2020-11-01T12:22:35.590</time></trkpt><trkpt lat="55.5488100" lon="38.7645830"><time>2020-11-01T12:22:38.590</time></trkpt><trkpt lat="55.5487630" lon="38.7645930"><time>2020-11-01T12:22:40.587</time></trkpt><trkpt lat="55.5486970" lon="38.7646030"><time>2020-11-01T12:22:43.587</time></trkpt><trkpt lat="55.5486520" lon="38.7646100"><time>2020-11-01T12:22:46.590</time></trkpt><trkpt lat="55.5485950" lon="38.7646380"><time>2020-11-01T12:22:49.587</time></trkpt><trkpt lat="55.5485320" lon="38.7646500"><time>2020-11-01T12:22:52.553</time></trkpt><trkpt lat="55.5484820" lon="38.7646600"><time>2020-11-01T12:22:55.590</time></trkpt><trkpt lat="55.5484180" lon="38.7646700"><time>2020-11-01T12:22:58.587</time></trkpt><trkpt lat="55.5483570" lon="38.7646580"><time>2020-11-01T12:23:01.590</time></trkpt><trkpt lat="55.5483120" lon="38.7646580"><time>2020-11-01T12:23:03.590</time></trkpt><trkpt lat="55.5482650" lon="38.7646820"><time>2020-11-01T12:23:06.593</time></trkpt><trkpt lat="55.5482180" lon="38.7646820"><time>2020-11-01T12:23:08.590</time></trkpt><trkpt lat="55.5481520" lon="38.7646980"><time>2020-11-01T12:23:11.590</time></trkpt><trkpt lat="55.5481050" lon="38.7647080"><time>2020-11-01T12:23:13.587</time></trkpt><trkpt lat="55.5480500" lon="38.7647150"><time>2020-11-01T12:23:15.590</time></trkpt><trkpt lat="55.5479780" lon="38.7647370"><time>2020-11-01T12:23:18.593</time></trkpt><trkpt lat="55.5479170" lon="38.7647550"><time>2020-11-01T12:23:21.593</time></trkpt><trkpt lat="55.5478530" lon="38.7647520"><time>2020-11-01T12:23:24.593</time></trkpt><trkpt lat="55.5477930" lon="38.7647680"><time>2020-11-01T12:23:26.553</time></trkpt><trkpt lat="55.5477420" lon="38.7647780"><time>2020-11-01T12:23:28.593</time></trkpt><trkpt lat="55.5476920" lon="38.7647650"><time>2020-11-01T12:23:30.587</time></trkpt><trkpt lat="55.5476350" lon="38.7647330"><time>2020-11-01T12:23:32.587</time></trkpt><trkpt lat="55.5475650" lon="38.7647080"><time>2020-11-01T12:23:34.587</time></trkpt><trkpt lat="55.5474730" lon="38.7646970"><time>2020-11-01T12:23:36.593</time></trkpt><trkpt lat="55.5474280" lon="38.7646750"><time>2020-11-01T12:23:38.590</time></trkpt><trkpt lat="55.5473900" lon="38.7646280"><time>2020-11-01T12:23:40.593</time></trkpt><trkpt lat="55.5473370" lon="38.7646200"><time>2020-11-01T12:23:43.593</time></trkpt><trkpt lat="55.5472880" lon="38.7646200"><time>2020-11-01T12:23:45.593</time></trkpt><trkpt lat="55.5472280" lon="38.7645930"><time>2020-11-01T12:23:48.593</time></trkpt><trkpt lat="55.5471820" lon="38.7645780"><time>2020-11-01T12:23:50.590</time></trkpt><trkpt lat="55.5471280" lon="38.7645600"><time>2020-11-01T12:23:54.590</time></trkpt><trkpt lat="55.5470680" lon="38.7645870"><time>2020-11-01T12:23:57.593</time></trkpt><trkpt lat="55.5469900" lon="38.7646220"><time>2020-11-01T12:23:59.593</time></trkpt><trkpt lat="55.5469430" lon="38.7646250"><time>2020-11-01T12:24:01.593</time></trkpt><trkpt lat="55.5468780" lon="38.7646130"><time>2020-11-01T12:24:04.590</time></trkpt><trkpt lat="55.5468000" lon="38.7646550"><time>2020-11-01T12:24:07.593</time></trkpt><trkpt lat="55.5467500" lon="38.7646570"><time>2020-11-01T12:24:09.553</time></trkpt><trkpt lat="55.5466820" lon="38.7646850"><time>2020-11-01T12:24:12.590</time></trkpt><trkpt lat="55.5466300" lon="38.7646950"><time>2020-11-01T12:24:14.590</time></trkpt><trkpt lat="55.5465780" lon="38.7646950"><time>2020-11-01T12:24:16.593</time></trkpt><trkpt lat="55.5465080" lon="38.7646980"><time>2020-11-01T12:24:19.593</time></trkpt><trkpt lat="55.5464550" lon="38.7647120"><time>2020-11-01T12:24:21.597</time></trkpt><trkpt lat="55.5463970" lon="38.7647120"><time>2020-11-01T12:24:23.590</time></trkpt><trkpt lat="55.5463380" lon="38.7647050"><time>2020-11-01T12:24:25.590</time></trkpt><trkpt lat="55.5462850" lon="38.7646880"><time>2020-11-01T12:24:27.600</time></trkpt><trkpt lat="55.5462330" lon="38.7646670"><time>2020-11-01T12:24:29.590</time></trkpt><trkpt lat="55.5461700" lon="38.7646520"><time>2020-11-01T12:24:31.587</time></trkpt><trkpt lat="55.5461170" lon="38.7646480"><time>2020-11-01T12:24:33.587</time></trkpt><trkpt lat="55.5460620" lon="38.7646100"><time>2020-11-01T12:24:36.597</time></trkpt><trkpt lat="55.5460200" lon="38.7645730"><time>2020-11-01T12:24:39.590</time></trkpt><trkpt lat="55.5459620" lon="38.7645320"><time>2020-11-01T12:24:43.593</time></trkpt><trkpt lat="55.5459130" lon="38.7645120"><time>2020-11-01T12:24:46.593</time></trkpt><trkpt lat="55.5458580" lon="38.7644800"><time>2020-11-01T12:24:48.593</time></trkpt><trkpt lat="55.5458120" lon="38.7644550"><time>2020-11-01T12:24:51.593</time></trkpt><trkpt lat="55.5457430" lon="38.7644630"><time>2020-11-01T12:24:53.593</time></trkpt><trkpt lat="55.5456800" lon="38.7644820"><time>2020-11-01T12:24:55.590</time></trkpt><trkpt lat="55.5456150" lon="38.7644880"><time>2020-11-01T12:24:58.590</time></trkpt><trkpt lat="55.5455720" lon="38.7645170"><time>2020-11-01T12:25:00.587</time></trkpt><trkpt lat="55.5455100" lon="38.7645450"><time>2020-11-01T12:25:02.587</time></trkpt><trkpt lat="55.5454520" lon="38.7645600"><time>2020-11-01T12:25:04.593</time></trkpt><trkpt lat="55.5453980" lon="38.7645820"><time>2020-11-01T12:25:06.593</time></trkpt><trkpt lat="55.5453470" lon="38.7646120"><time>2020-11-01T12:25:08.587</time></trkpt><trkpt lat="55.5453000" lon="38.7645920"><time>2020-11-01T12:25:11.590</time></trkpt><trkpt lat="55.5452520" lon="38.7645800"><time>2020-11-01T12:25:14.597</time></trkpt><trkpt lat="55.5451620" lon="38.7645700"><time>2020-11-01T12:25:18.593</time></trkpt><trkpt lat="55.5451100" lon="38.7645580"><time>2020-11-01T12:25:20.593</time></trkpt><trkpt lat="55.5450550" lon="38.7645130"><time>2020-11-01T12:25:21.597</time></trkpt><trkpt lat="55.5449850" lon="38.7645280"><time>2020-11-01T12:25:24.590</time></trkpt><trkpt lat="55.5449330" lon="38.7645450"><time>2020-11-01T12:25:28.217</time></trkpt><trkpt lat="55.5448570" lon="38.7645300"><time>2020-11-01T12:25:29.590</time></trkpt><trkpt lat="55.5447970" lon="38.7645000"><time>2020-11-01T12:25:33.590</time></trkpt><trkpt lat="55.5447550" lon="38.7645320"><time>2020-11-01T12:25:35.590</time></trkpt><trkpt lat="55.5446980" lon="38.7645600"><time>2020-11-01T12:25:38.590</time></trkpt><trkpt lat="55.5446530" lon="38.7645830"><time>2020-11-01T12:25:40.590</time></trkpt><trkpt lat="55.5446100" lon="38.7646080"><time>2020-11-01T12:25:42.593</time></trkpt><trkpt lat="55.5445630" lon="38.7646150"><time>2020-11-01T12:25:45.587</time></trkpt><trkpt lat="55.5445020" lon="38.7646200"><time>2020-11-01T12:25:48.590</time></trkpt><trkpt lat="55.5444480" lon="38.7646100"><time>2020-11-01T12:25:50.593</time></trkpt><trkpt lat="55.5444020" lon="38.7645980"><time>2020-11-01T12:25:52.593</time></trkpt><trkpt lat="55.5443270" lon="38.7645820"><time>2020-11-01T12:25:58.557</time></trkpt><trkpt lat="55.5442480" lon="38.7645850"><time>2020-11-01T12:26:00.593</time></trkpt><trkpt lat="55.5441970" lon="38.7645920"><time>2020-11-01T12:26:02.590</time></trkpt><trkpt lat="55.5441180" lon="38.7646000"><time>2020-11-01T12:26:04.590</time></trkpt><trkpt lat="55.5440680" lon="38.7646130"><time>2020-11-01T12:26:05.590</time></trkpt><trkpt lat="55.5440220" lon="38.7646050"><time>2020-11-01T12:26:07.593</time></trkpt><trkpt lat="55.5439520" lon="38.7646080"><time>2020-11-01T12:26:09.590</time></trkpt><trkpt lat="55.5438880" lon="38.7645920"><time>2020-11-01T12:26:11.593</time></trkpt><trkpt lat="55.5438280" lon="38.7645880"><time>2020-11-01T12:26:13.593</time></trkpt><trkpt lat="55.5437800" lon="38.7646180"><time>2020-11-01T12:26:16.597</time></trkpt><trkpt lat="55.5437320" lon="38.7646980"><time>2020-11-01T12:26:19.597</time></trkpt><trkpt lat="55.5436920" lon="38.7647450"><time>2020-11-01T12:26:21.590</time></trkpt><trkpt lat="55.5436800" lon="38.7648330"><time>2020-11-01T12:26:24.587</time></trkpt><trkpt lat="55.5436820" lon="38.7649270"><time>2020-11-01T12:26:27.593</time></trkpt><trkpt lat="55.5436780" lon="38.7650270"><time>2020-11-01T12:26:30.593</time></trkpt><trkpt lat="55.5436900" lon="38.7651230"><time>2020-11-01T12:26:34.593</time></trkpt><trkpt lat="55.5436620" lon="38.7652220"><time>2020-11-01T12:26:37.593</time></trkpt><trkpt lat="55.5436400" lon="38.7653070"><time>2020-11-01T12:26:39.593</time></trkpt><trkpt lat="55.5436270" lon="38.7653830"><time>2020-11-01T12:26:41.593</time></trkpt><trkpt lat="55.5436350" lon="38.7654930"><time>2020-11-01T12:26:44.590</time></trkpt><trkpt lat="55.5436350" lon="38.7655850"><time>2020-11-01T12:26:47.593</time></trkpt><trkpt lat="55.5436270" lon="38.7656650"><time>2020-11-01T12:26:49.597</time></trkpt><trkpt lat="55.5436170" lon="38.7657670"><time>2020-11-01T12:26:52.590</time></trkpt><trkpt lat="55.5436030" lon="38.7658720"><time>2020-11-01T12:26:55.593</time></trkpt><trkpt lat="55.5435930" lon="38.7659500"><time>2020-11-01T12:26:57.597</time></trkpt><trkpt lat="55.5436080" lon="38.7660570"><time>2020-11-01T12:27:00.587</time></trkpt><trkpt lat="55.5435980" lon="38.7661630"><time>2020-11-01T12:27:02.593</time></trkpt><trkpt lat="55.5435850" lon="38.7662630"><time>2020-11-01T12:27:04.593</time></trkpt><trkpt lat="55.5435700" lon="38.7663630"><time>2020-11-01T12:27:06.597</time></trkpt><trkpt lat="55.5435620" lon="38.7664700"><time>2020-11-01T12:27:09.590</time></trkpt><trkpt lat="55.5435850" lon="38.7665670"><time>2020-11-01T12:27:12.593</time></trkpt><trkpt lat="55.5436000" lon="38.7666680"><time>2020-11-01T12:27:15.587</time></trkpt><trkpt lat="55.5435830" lon="38.7667500"><time>2020-11-01T12:27:17.590</time></trkpt><trkpt lat="55.5436020" lon="38.7668280"><time>2020-11-01T12:27:19.593</time></trkpt><trkpt lat="55.5436070" lon="38.7669300"><time>2020-11-01T12:27:22.587</time></trkpt><trkpt lat="55.5435930" lon="38.7670430"><time>2020-11-01T12:27:25.590</time></trkpt><trkpt lat="55.5435730" lon="38.7671350"><time>2020-11-01T12:27:27.590</time></trkpt><trkpt lat="55.5435570" lon="38.7672250"><time>2020-11-01T12:27:30.593</time></trkpt><trkpt lat="55.5435500" lon="38.7673030"><time>2020-11-01T12:27:32.587</time></trkpt><trkpt lat="55.5435730" lon="38.7673900"><time>2020-11-01T12:27:35.590</time></trkpt><trkpt lat="55.5435980" lon="38.7674780"><time>2020-11-01T12:27:38.587</time></trkpt><trkpt lat="55.5436130" lon="38.7675830"><time>2020-11-01T12:27:41.590</time></trkpt><trkpt lat="55.5435930" lon="38.7676630"><time>2020-11-01T12:27:44.593</time></trkpt><trkpt lat="55.5435580" lon="38.7677380"><time>2020-11-01T12:27:47.590</time></trkpt><trkpt lat="55.5435320" lon="38.7678050"><time>2020-11-01T12:27:49.593</time></trkpt><trkpt lat="55.5435130" lon="38.7678920"><time>2020-11-01T12:27:52.590</time></trkpt><trkpt lat="55.5434980" lon="38.7679850"><time>2020-11-01T12:27:54.587</time></trkpt><trkpt lat="55.5435030" lon="38.7680730"><time>2020-11-01T12:27:56.593</time></trkpt><trkpt lat="55.5435070" lon="38.7681780"><time>2020-11-01T12:27:58.590</time></trkpt><trkpt lat="55.5435130" lon="38.7682600"><time>2020-11-01T12:28:00.590</time></trkpt><trkpt lat="55.5435170" lon="38.7683630"><time>2020-11-01T12:28:03.590</time></trkpt><trkpt lat="55.5435220" lon="38.7684620"><time>2020-11-01T12:28:06.587</time></trkpt><trkpt lat="55.5435080" lon="38.7685900"><time>2020-11-01T12:28:08.593</time></trkpt><trkpt lat="55.5435030" lon="38.7686720"><time>2020-11-01T12:28:09.587</time></trkpt><trkpt lat="55.5435030" lon="38.7687520"><time>2020-11-01T12:28:10.590</time></trkpt><trkpt lat="55.5435070" lon="38.7688450"><time>2020-11-01T12:28:12.593</time></trkpt><trkpt lat="55.5435420" lon="38.7689100"><time>2020-11-01T12:28:15.593</time></trkpt><trkpt lat="55.5435680" lon="38.7690070"><time>2020-11-01T12:28:19.593</time></trkpt><trkpt lat="55.5435700" lon="38.7691070"><time>2020-11-01T12:28:22.590</time></trkpt><trkpt lat="55.5435500" lon="38.7692050"><time>2020-11-01T12:28:25.557</time></trkpt><trkpt lat="55.5435570" lon="38.7692970"><time>2020-11-01T12:28:28.597</time></trkpt><trkpt lat="55.5435750" lon="38.7693720"><time>2020-11-01T12:28:31.590</time></trkpt><trkpt lat="55.5435800" lon="38.7694650"><time>2020-11-01T12:28:40.587</time></trkpt><trkpt lat="55.5435500" lon="38.7695570"><time>2020-11-01T12:28:42.593</time></trkpt><trkpt lat="55.5435550" lon="38.7696420"><time>2020-11-01T12:28:44.593</time></trkpt><trkpt lat="55.5435980" lon="38.7697120"><time>2020-11-01T12:28:47.587</time></trkpt><trkpt lat="55.5435970" lon="38.7698080"><time>2020-11-01T12:28:50.590</time></trkpt><trkpt lat="55.5435850" lon="38.7698950"><time>2020-11-01T12:28:53.590</time></trkpt><trkpt lat="55.5435680" lon="38.7700070"><time>2020-11-01T12:28:56.593</time></trkpt><trkpt lat="55.5435620" lon="38.7700980"><time>2020-11-01T12:28:58.587</time></trkpt><trkpt lat="55.5435470" lon="38.7701830"><time>2020-11-01T12:29:01.593</time></trkpt><trkpt lat="55.5435380" lon="38.7702730"><time>2020-11-01T12:29:05.593</time></trkpt><trkpt lat="55.5435330" lon="38.7703770"><time>2020-11-01T12:29:07.590</time></trkpt><trkpt lat="55.5435330" lon="38.7704670"><time>2020-11-01T12:29:09.590</time></trkpt><trkpt lat="55.5435570" lon="38.7705570"><time>2020-11-01T12:29:12.593</time></trkpt><trkpt lat="55.5435780" lon="38.7706630"><time>2020-11-01T12:29:15.593</time></trkpt><trkpt lat="55.5435950" lon="38.7707750"><time>2020-11-01T12:29:17.593</time></trkpt><trkpt lat="55.5436080" lon="38.7708720"><time>2020-11-01T12:29:19.593</time></trkpt><trkpt lat="55.5436370" lon="38.7709480"><time>2020-11-01T12:29:22.593</time></trkpt><trkpt lat="55.5436470" lon="38.7710520"><time>2020-11-01T12:29:26.590</time></trkpt><trkpt lat="55.5436370" lon="38.7711420"><time>2020-11-01T12:29:29.587</time></trkpt><trkpt lat="55.5436170" lon="38.7712430"><time>2020-11-01T12:29:32.587</time></trkpt><trkpt lat="55.5436170" lon="38.7713250"><time>2020-11-01T12:29:34.590</time></trkpt><trkpt lat="55.5436250" lon="38.7714100"><time>2020-11-01T12:29:36.593</time></trkpt><trkpt lat="55.5436270" lon="38.7715250"><time>2020-11-01T12:29:39.590</time></trkpt><trkpt lat="55.5436430" lon="38.7716350"><time>2020-11-01T12:29:42.593</time></trkpt><trkpt lat="55.5436530" lon="38.7717150"><time>2020-11-01T12:29:44.593</time></trkpt><trkpt lat="55.5436580" lon="38.7718120"><time>2020-11-01T12:29:46.593</time></trkpt><trkpt lat="55.5436670" lon="38.7719170"><time>2020-11-01T12:29:49.597</time></trkpt><trkpt lat="55.5436480" lon="38.7720350"><time>2020-11-01T12:29:54.593</time></trkpt><trkpt lat="55.5436400" lon="38.7721180"><time>2020-11-01T12:29:56.590</time></trkpt><trkpt lat="55.5436550" lon="38.7722330"><time>2020-11-01T12:29:59.590</time></trkpt><trkpt lat="55.5436520" lon="38.7723520"><time>2020-11-01T12:30:02.587</time></trkpt><trkpt lat="55.5436420" lon="38.7724450"><time>2020-11-01T12:30:04.593</time></trkpt><trkpt lat="55.5436500" lon="38.7725450"><time>2020-11-01T12:30:06.593</time></trkpt><trkpt lat="55.5436730" lon="38.7726450"><time>2020-11-01T12:30:09.593</time></trkpt><trkpt lat="55.5436430" lon="38.7727080"><time>2020-11-01T12:30:11.590</time></trkpt><trkpt lat="55.5436420" lon="38.7727950"><time>2020-11-01T12:30:15.587</time></trkpt><trkpt lat="55.5436330" lon="38.7728870"><time>2020-11-01T12:30:17.587</time></trkpt><trkpt lat="55.5436320" lon="38.7730080"><time>2020-11-01T12:30:20.593</time></trkpt><trkpt lat="55.5436330" lon="38.7730920"><time>2020-11-01T12:30:22.590</time></trkpt><trkpt lat="55.5436380" lon="38.7732050"><time>2020-11-01T12:30:25.593</time></trkpt><trkpt lat="55.5436350" lon="38.7732880"><time>2020-11-01T12:30:27.597</time></trkpt><trkpt lat="55.5436380" lon="38.7733720"><time>2020-11-01T12:30:29.593</time></trkpt><trkpt lat="55.5436350" lon="38.7734520"><time>2020-11-01T12:30:31.597</time></trkpt><trkpt lat="55.5436500" lon="38.7735650"><time>2020-11-01T12:30:34.593</time></trkpt><trkpt lat="55.5436630" lon="38.7736630"><time>2020-11-01T12:30:37.593</time></trkpt><trkpt lat="55.5436680" lon="38.7737680"><time>2020-11-01T12:30:40.593</time></trkpt><trkpt lat="55.5436630" lon="38.7738800"><time>2020-11-01T12:30:43.593</time></trkpt><trkpt lat="55.5436650" lon="38.7739620"><time>2020-11-01T12:30:45.587</time></trkpt><trkpt lat="55.5436870" lon="38.7740320"><time>2020-11-01T12:30:47.593</time></trkpt><trkpt lat="55.5436870" lon="38.7741250"><time>2020-11-01T12:30:49.593</time></trkpt><trkpt lat="55.5436870" lon="38.7742480"><time>2020-11-01T12:30:52.593</time></trkpt><trkpt lat="55.5436800" lon="38.7743420"><time>2020-11-01T12:30:54.593</time></trkpt><trkpt lat="55.5436730" lon="38.7744320"><time>2020-11-01T12:30:56.590</time></trkpt><trkpt lat="55.5436700" lon="38.7745500"><time>2020-11-01T12:30:59.593</time></trkpt><trkpt lat="55.5436670" lon="38.7746400"><time>2020-11-01T12:31:01.593</time></trkpt><trkpt lat="55.5436720" lon="38.7747220"><time>2020-11-01T12:31:03.593</time></trkpt><trkpt lat="55.5436780" lon="38.7748400"><time>2020-11-01T12:31:06.593</time></trkpt><trkpt lat="55.5436850" lon="38.7749180"><time>2020-11-01T12:31:08.597</time></trkpt><trkpt lat="55.5436900" lon="38.7750320"><time>2020-11-01T12:31:11.590</time></trkpt><trkpt lat="55.5436880" lon="38.7751450"><time>2020-11-01T12:31:14.593</time></trkpt><trkpt lat="55.5436670" lon="38.7752270"><time>2020-11-01T12:31:16.593</time></trkpt><trkpt lat="55.5436430" lon="38.7753070"><time>2020-11-01T12:31:18.593</time></trkpt><trkpt lat="55.5436130" lon="38.7753870"><time>2020-11-01T12:31:21.597</time></trkpt><trkpt lat="55.5435850" lon="38.7754600"><time>2020-11-01T12:31:24.597</time></trkpt><trkpt lat="55.5435330" lon="38.7755250"><time>2020-11-01T12:31:26.593</time></trkpt><trkpt lat="55.5435020" lon="38.7755830"><time>2020-11-01T12:31:28.597</time></trkpt><trkpt lat="55.5434770" lon="38.7756770"><time>2020-11-01T12:31:32.593</time></trkpt><trkpt lat="55.5434680" lon="38.7757580"><time>2020-11-01T12:31:35.590</time></trkpt><trkpt lat="55.5434630" lon="38.7758570"><time>2020-11-01T12:31:38.590</time></trkpt><trkpt lat="55.5434950" lon="38.7759570"><time>2020-11-01T12:31:41.590</time></trkpt><trkpt lat="55.5435120" lon="38.7760580"><time>2020-11-01T12:31:45.593</time></trkpt><trkpt lat="55.5435220" lon="38.7761380"><time>2020-11-01T12:31:48.593</time></trkpt><trkpt lat="55.5435280" lon="38.7762570"><time>2020-11-01T12:31:56.593</time></trkpt><trkpt lat="55.5435620" lon="38.7763430"><time>2020-11-01T12:31:58.593</time></trkpt><trkpt lat="55.5435650" lon="38.7764370"><time>2020-11-01T12:32:00.590</time></trkpt><trkpt lat="55.5435770" lon="38.7765320"><time>2020-11-01T12:32:02.593</time></trkpt><trkpt lat="55.5435520" lon="38.7766470"><time>2020-11-01T12:32:05.593</time></trkpt><trkpt lat="55.5435500" lon="38.7767680"><time>2020-11-01T12:32:07.597</time></trkpt><trkpt lat="55.5435470" lon="38.7768780"><time>2020-11-01T12:32:10.593</time></trkpt><trkpt lat="55.5435220" lon="38.7769880"><time>2020-11-01T12:32:16.597</time></trkpt><trkpt lat="55.5435200" lon="38.7770680"><time>2020-11-01T12:32:19.593</time></trkpt><trkpt lat="55.5435170" lon="38.7771750"><time>2020-11-01T12:32:24.593</time></trkpt><trkpt lat="55.5435270" lon="38.7772770"><time>2020-11-01T12:32:28.597</time></trkpt><trkpt lat="55.5435550" lon="38.7773720"><time>2020-11-01T12:32:31.597</time></trkpt><trkpt lat="55.5435430" lon="38.7774530"><time>2020-11-01T12:32:34.597</time></trkpt><trkpt lat="55.5435630" lon="38.7775330"><time>2020-11-01T12:32:37.597</time></trkpt><trkpt lat="55.5435350" lon="38.7774720"><time>2020-11-01T12:32:49.590</time></trkpt><trkpt lat="55.5434770" lon="38.7775130"><time>2020-11-01T12:32:52.593</time></trkpt><trkpt lat="55.5434330" lon="38.7775470"><time>2020-11-01T12:32:56.593</time></trkpt><trkpt lat="55.5433370" lon="38.7775670"><time>2020-11-01T12:33:02.593</time></trkpt><trkpt lat="55.5432870" lon="38.7775920"><time>2020-11-01T12:33:05.593</time></trkpt><trkpt lat="55.5431920" lon="38.7775420"><time>2020-11-01T12:33:17.597</time></trkpt><trkpt lat="55.5431400" lon="38.7775000"><time>2020-11-01T12:33:20.593</time></trkpt><trkpt lat="55.5431020" lon="38.7774480"><time>2020-11-01T12:33:23.593</time></trkpt><trkpt lat="55.5430580" lon="38.7773980"><time>2020-11-01T12:33:26.593</time></trkpt><trkpt lat="55.5430200" lon="38.7773420"><time>2020-11-01T12:33:29.593</time></trkpt><trkpt lat="55.5429650" lon="38.7773220"><time>2020-11-01T12:33:32.597</time></trkpt><trkpt lat="55.5429350" lon="38.7772400"><time>2020-11-01T12:33:36.590</time></trkpt><trkpt lat="55.5428970" lon="38.7771720"><time>2020-11-01T12:33:40.590</time></trkpt><trkpt lat="55.5428470" lon="38.7771500"><time>2020-11-01T12:33:44.597</time></trkpt><trkpt lat="55.5427900" lon="38.7771180"><time>2020-11-01T12:33:48.597</time></trkpt><trkpt lat="55.5427330" lon="38.7771170"><time>2020-11-01T12:33:53.587</time></trkpt><trkpt lat="55.5426930" lon="38.7770600"><time>2020-11-01T12:33:56.597</time></trkpt><trkpt lat="55.5426570" lon="38.7770120"><time>2020-11-01T12:33:59.593</time></trkpt><trkpt lat="55.5426170" lon="38.7769650"><time>2020-11-01T12:34:02.590</time></trkpt><trkpt lat="55.5425270" lon="38.7769370"><time>2020-11-01T12:34:10.590</time></trkpt><trkpt lat="55.5424370" lon="38.7768570"><time>2020-11-01T12:34:18.593</time></trkpt><trkpt lat="55.5423950" lon="38.7767820"><time>2020-11-01T12:34:21.593</time></trkpt><trkpt lat="55.5423530" lon="38.7767480"><time>2020-11-01T12:34:23.557</time></trkpt><trkpt lat="55.5422970" lon="38.7766930"><time>2020-11-01T12:34:26.593</time></trkpt><trkpt lat="55.5422480" lon="38.7766380"><time>2020-11-01T12:34:29.593</time></trkpt><trkpt lat="55.5421900" lon="38.7766080"><time>2020-11-01T12:34:32.587</time></trkpt><trkpt lat="55.5421570" lon="38.7765430"><time>2020-11-01T12:34:35.593</time></trkpt><trkpt lat="55.5421030" lon="38.7764930"><time>2020-11-01T12:34:38.593</time></trkpt><trkpt lat="55.5420620" lon="38.7764280"><time>2020-11-01T12:34:42.597</time></trkpt><trkpt lat="55.5420620" lon="38.7763220"><time>2020-11-01T12:34:46.593</time></trkpt><trkpt lat="55.5419770" lon="38.7763900"><time>2020-11-01T12:35:01.593</time></trkpt><trkpt lat="55.5419070" lon="38.7763730"><time>2020-11-01T12:35:08.593</time></trkpt><trkpt lat="55.5418600" lon="38.7763130"><time>2020-11-01T12:35:12.597</time></trkpt><trkpt lat="55.5418070" lon="38.7763270"><time>2020-11-01T12:35:16.593</time></trkpt><trkpt lat="55.5417620" lon="38.7762980"><time>2020-11-01T12:35:21.593</time></trkpt><trkpt lat="55.5416650" lon="38.7761830"><time>2020-11-01T12:35:36.593</time></trkpt><trkpt lat="55.5415570" lon="38.7760780"><time>2020-11-01T12:35:49.590</time></trkpt><trkpt lat="55.5414570" lon="38.7759970"><time>2020-11-01T12:36:02.593</time></trkpt><trkpt lat="55.5413300" lon="38.7759280"><time>2020-11-01T12:36:22.590</time></trkpt><trkpt lat="55.5412720" lon="38.7759580"><time>2020-11-01T12:36:27.593</time></trkpt><trkpt lat="55.5411650" lon="38.7759920"><time>2020-11-01T12:36:38.593</time></trkpt><trkpt lat="55.5411180" lon="38.7760020"><time>2020-11-01T12:36:40.590</time></trkpt><trkpt lat="55.5410620" lon="38.7759950"><time>2020-11-01T12:36:43.597</time></trkpt><trkpt lat="55.5410050" lon="38.7760050"><time>2020-11-01T12:36:46.593</time></trkpt><trkpt lat="55.5409600" lon="38.7760500"><time>2020-11-01T12:36:50.597</time></trkpt><trkpt lat="55.5408580" lon="38.7761020"><time>2020-11-01T12:37:06.597</time></trkpt><trkpt lat="55.5407700" lon="38.7762450"><time>2020-11-01T12:37:20.597</time></trkpt><trkpt lat="55.5406500" lon="38.7762870"><time>2020-11-01T12:37:34.590</time></trkpt><trkpt lat="55.5405550" lon="38.7762370"><time>2020-11-01T12:37:53.590</time></trkpt><trkpt lat="55.5404830" lon="38.7762220"><time>2020-11-01T12:37:56.597</time></trkpt><trkpt lat="55.5404320" lon="38.7762200"><time>2020-11-01T12:37:58.597</time></trkpt><trkpt lat="55.5403800" lon="38.7762230"><time>2020-11-01T12:38:02.590</time></trkpt><trkpt lat="55.5403020" lon="38.7762120"><time>2020-11-01T12:38:05.593</time></trkpt><trkpt lat="55.5402300" lon="38.7761800"><time>2020-11-01T12:38:07.597</time></trkpt><trkpt lat="55.5402680" lon="38.7761000"><time>2020-11-01T12:38:37.667</time></trkpt><trkpt lat="55.5403200" lon="38.7760750"><time>2020-11-01T12:38:49.593</time></trkpt><trkpt lat="55.5404180" lon="38.7760700"><time>2020-11-01T12:39:08.593</time></trkpt><trkpt lat="55.5404630" lon="38.7760430"><time>2020-11-01T12:39:18.590</time></trkpt><trkpt lat="55.5403530" lon="38.7760350"><time>2020-11-01T12:40:16.593</time></trkpt><trkpt lat="55.5402750" lon="38.7760820"><time>2020-11-01T12:40:21.597</time></trkpt><trkpt lat="55.5402230" lon="38.7761070"><time>2020-11-01T12:40:24.597</time></trkpt><trkpt lat="55.5401820" lon="38.7761750"><time>2020-11-01T12:40:28.593</time></trkpt><trkpt lat="55.5401600" lon="38.7762480"><time>2020-11-01T12:40:32.597</time></trkpt><trkpt lat="55.5401230" lon="38.7764150"><time>2020-11-01T12:40:49.597</time></trkpt><trkpt lat="55.5400800" lon="38.7764780"><time>2020-11-01T12:40:54.597</time></trkpt><trkpt lat="55.5399720" lon="38.7765220"><time>2020-11-01T12:41:06.597</time></trkpt><trkpt lat="55.5398770" lon="38.7766320"><time>2020-11-01T12:41:20.593</time></trkpt><trkpt lat="55.5398520" lon="38.7767670"><time>2020-11-01T12:41:30.593</time></trkpt><trkpt lat="55.5397920" lon="38.7767550"><time>2020-11-01T12:41:34.600</time></trkpt><trkpt lat="55.5397830" lon="38.7766500"><time>2020-11-01T12:41:38.560</time></trkpt><trkpt lat="55.5398680" lon="38.7765980"><time>2020-11-01T12:41:47.587</time></trkpt><trkpt lat="55.5399200" lon="38.7766280"><time>2020-11-01T12:41:50.593</time></trkpt><trkpt lat="55.5399770" lon="38.7765980"><time>2020-11-01T12:41:52.593</time></trkpt><trkpt lat="55.5400230" lon="38.7765830"><time>2020-11-01T12:41:54.597</time></trkpt><trkpt lat="55.5400080" lon="38.7765030"><time>2020-11-01T12:41:57.593</time></trkpt><trkpt lat="55.5400020" lon="38.7765850"><time>2020-11-01T12:42:07.590</time></trkpt><trkpt lat="55.5399600" lon="38.7765350"><time>2020-11-01T12:42:11.593</time></trkpt><trkpt lat="55.5399180" lon="38.7764900"><time>2020-11-01T12:42:15.593</time></trkpt><trkpt lat="55.5398720" lon="38.7764800"><time>2020-11-01T12:42:19.593</time></trkpt><trkpt lat="55.5399000" lon="38.7765550"><time>2020-11-01T12:42:23.590</time></trkpt><trkpt lat="55.5399470" lon="38.7765680"><time>2020-11-01T12:42:31.587</time></trkpt><trkpt lat="55.5398230" lon="38.7765820"><time>2020-11-01T12:42:57.597</time></trkpt><trkpt lat="55.5396970" lon="38.7766330"><time>2020-11-01T12:43:08.597</time></trkpt><trkpt lat="55.5395900" lon="38.7767100"><time>2020-11-01T12:43:20.590</time></trkpt><trkpt lat="55.5395180" lon="38.7769000"><time>2020-11-01T12:43:36.597</time></trkpt><trkpt lat="55.5394350" lon="38.7770080"><time>2020-11-01T12:43:48.597</time></trkpt><trkpt lat="55.5393600" lon="38.7771480"><time>2020-11-01T12:43:57.600</time></trkpt><trkpt lat="55.5392830" lon="38.7773470"><time>2020-11-01T12:44:12.597</time></trkpt><trkpt lat="55.5392070" lon="38.7775200"><time>2020-11-01T12:44:27.600</time></trkpt><trkpt lat="55.5391520" lon="38.7777170"><time>2020-11-01T12:44:42.593</time></trkpt><trkpt lat="55.5390720" lon="38.7779200"><time>2020-11-01T12:44:52.600</time></trkpt><trkpt lat="55.5390200" lon="38.7780100"><time>2020-11-01T12:44:55.597</time></trkpt><trkpt lat="55.5389850" lon="38.7780970"><time>2020-11-01T12:44:57.597</time></trkpt><trkpt lat="55.5389520" lon="38.7781680"><time>2020-11-01T12:44:59.597</time></trkpt><trkpt lat="55.5389230" lon="38.7782330"><time>2020-11-01T12:45:01.593</time></trkpt><trkpt lat="55.5389000" lon="38.7783100"><time>2020-11-01T12:45:05.593</time></trkpt><trkpt lat="55.5388580" lon="38.7784880"><time>2020-11-01T12:45:18.593</time></trkpt><trkpt lat="55.5388530" lon="38.7786930"><time>2020-11-01T12:45:34.593</time></trkpt><trkpt lat="55.5388530" lon="38.7789300"><time>2020-11-01T12:45:50.593</time></trkpt><trkpt lat="55.5388230" lon="38.7791350"><time>2020-11-01T12:46:05.593</time></trkpt><trkpt lat="55.5387970" lon="38.7792220"><time>2020-11-01T12:46:08.593</time></trkpt><trkpt lat="55.5387720" lon="38.7793780"><time>2020-11-01T12:46:14.593</time></trkpt><trkpt lat="55.5387630" lon="38.7795970"><time>2020-11-01T12:46:29.593</time></trkpt><trkpt lat="55.5387800" lon="38.7798020"><time>2020-11-01T12:46:42.597</time></trkpt><trkpt lat="55.5387500" lon="38.7800280"><time>2020-11-01T12:46:53.597</time></trkpt><trkpt lat="55.5387620" lon="38.7801280"><time>2020-11-01T12:46:56.593</time></trkpt><trkpt lat="55.5387650" lon="38.7802900"><time>2020-11-01T12:47:04.593</time></trkpt><trkpt lat="55.5387200" lon="38.7804950"><time>2020-11-01T12:47:15.597</time></trkpt><trkpt lat="55.5387620" lon="38.7807130"><time>2020-11-01T12:47:28.597</time></trkpt><trkpt lat="55.5388330" lon="38.7808850"><time>2020-11-01T12:47:41.597</time></trkpt><trkpt lat="55.5388920" lon="38.7810750"><time>2020-11-01T12:47:54.590</time></trkpt><trkpt lat="55.5388970" lon="38.7811770"><time>2020-11-01T12:47:57.597</time></trkpt><trkpt lat="55.5388920" lon="38.7813350"><time>2020-11-01T12:48:03.597</time></trkpt><trkpt lat="55.5388920" lon="38.7814270"><time>2020-11-01T12:48:05.597</time></trkpt><trkpt lat="55.5389070" lon="38.7816180"><time>2020-11-01T12:48:12.593</time></trkpt><trkpt lat="55.5389070" lon="38.7817050"><time>2020-11-01T12:48:15.593</time></trkpt><trkpt lat="55.5388850" lon="38.7818820"><time>2020-11-01T12:48:21.600</time></trkpt><trkpt lat="55.5388970" lon="38.7819620"><time>2020-11-01T12:48:24.593</time></trkpt><trkpt lat="55.5389180" lon="38.7821270"><time>2020-11-01T12:48:32.600</time></trkpt><trkpt lat="55.5389280" lon="38.7822980"><time>2020-11-01T12:48:38.597</time></trkpt><trkpt lat="55.5389230" lon="38.7824030"><time>2020-11-01T12:48:41.597</time></trkpt><trkpt lat="55.5389280" lon="38.7824900"><time>2020-11-01T12:48:45.593</time></trkpt><trkpt lat="55.5389400" lon="38.7825730"><time>2020-11-01T12:48:48.597</time></trkpt><trkpt lat="55.5389180" lon="38.7826600"><time>2020-11-01T12:48:51.597</time></trkpt><trkpt lat="55.5388920" lon="38.7827600"><time>2020-11-01T12:48:55.593</time></trkpt><trkpt lat="55.5388630" lon="38.7828330"><time>2020-11-01T12:48:58.597</time></trkpt><trkpt lat="55.5388430" lon="38.7829150"><time>2020-11-01T12:49:01.597</time></trkpt><trkpt lat="55.5388420" lon="38.7829980"><time>2020-11-01T12:49:07.597</time></trkpt><trkpt lat="55.5388800" lon="38.7831450"><time>2020-11-01T12:49:15.597</time></trkpt><trkpt lat="55.5389020" lon="38.7832300"><time>2020-11-01T12:49:18.597</time></trkpt><trkpt lat="55.5389770" lon="38.7833880"><time>2020-11-01T12:49:37.597</time></trkpt><trkpt lat="55.5389880" lon="38.7835830"><time>2020-11-01T12:49:54.597</time></trkpt><trkpt lat="55.5390180" lon="38.7837870"><time>2020-11-01T12:50:06.597</time></trkpt><trkpt lat="55.5389780" lon="38.7840350"><time>2020-11-01T12:50:15.593</time></trkpt><trkpt lat="55.5389550" lon="38.7841330"><time>2020-11-01T12:50:17.590</time></trkpt><trkpt lat="55.5389470" lon="38.7842380"><time>2020-11-01T12:50:20.593</time></trkpt><trkpt lat="55.5389330" lon="38.7843270"><time>2020-11-01T12:50:22.597</time></trkpt><trkpt lat="55.5389370" lon="38.7844100"><time>2020-11-01T12:50:26.593</time></trkpt><trkpt lat="55.5389100" lon="38.7845100"><time>2020-11-01T12:50:32.590</time></trkpt><trkpt lat="55.5388830" lon="38.7846080"><time>2020-11-01T12:50:36.597</time></trkpt><trkpt lat="55.5388580" lon="38.7846970"><time>2020-11-01T12:50:43.597</time></trkpt><trkpt lat="55.5388580" lon="38.7848580"><time>2020-11-01T12:50:54.597</time></trkpt><trkpt lat="55.5388950" lon="38.7849930"><time>2020-11-01T12:51:09.590</time></trkpt><trkpt lat="55.5388770" lon="38.7850870"><time>2020-11-01T12:51:11.597</time></trkpt><trkpt lat="55.5389000" lon="38.7851580"><time>2020-11-01T12:51:19.597</time></trkpt><trkpt lat="55.5388970" lon="38.7853550"><time>2020-11-01T12:51:32.597</time></trkpt><trkpt lat="55.5388600" lon="38.7854450"><time>2020-11-01T12:51:34.597</time></trkpt><trkpt lat="55.5388220" lon="38.7855330"><time>2020-11-01T12:51:37.597</time></trkpt><trkpt lat="55.5387970" lon="38.7856050"><time>2020-11-01T12:51:40.597</time></trkpt><trkpt lat="55.5388770" lon="38.7857320"><time>2020-11-01T12:51:52.597</time></trkpt><trkpt lat="55.5389300" lon="38.7857730"><time>2020-11-01T12:51:55.593</time></trkpt><trkpt lat="55.5389580" lon="38.7859620"><time>2020-11-01T12:52:05.597</time></trkpt><trkpt lat="55.5389800" lon="38.7860380"><time>2020-11-01T12:52:08.557</time></trkpt><trkpt lat="55.5389880" lon="38.7862230"><time>2020-11-01T12:52:11.557</time></trkpt><trkpt lat="55.5390430" lon="38.7864180"><time>2020-11-01T12:52:12.600</time></trkpt><trkpt lat="55.5390800" lon="38.7865680"><time>2020-11-01T12:52:13.557</time></trkpt><trkpt lat="55.5391070" lon="38.7866870"><time>2020-11-01T12:52:14.603</time></trkpt><trkpt lat="55.5392050" lon="38.7866050"><time>2020-11-01T12:52:16.600</time></trkpt><trkpt lat="55.5392230" lon="38.7865200"><time>2020-11-01T12:52:18.600</time></trkpt><trkpt lat="55.5392720" lon="38.7864250"><time>2020-11-01T12:52:20.597</time></trkpt><trkpt lat="55.5393500" lon="38.7863350"><time>2020-11-01T12:52:22.597</time></trkpt><trkpt lat="55.5393720" lon="38.7862630"><time>2020-11-01T12:52:24.600</time></trkpt><trkpt lat="55.5394200" lon="38.7862750"><time>2020-11-01T12:52:29.597</time></trkpt><trkpt lat="55.5395050" lon="38.7863680"><time>2020-11-01T12:52:43.597</time></trkpt><trkpt lat="55.5395470" lon="38.7864120"><time>2020-11-01T12:52:45.597</time></trkpt><trkpt lat="55.5396300" lon="38.7863220"><time>2020-11-01T12:53:06.597</time></trkpt><trkpt lat="55.5396900" lon="38.7863270"><time>2020-11-01T12:53:11.593</time></trkpt><trkpt lat="55.5398170" lon="38.7863370"><time>2020-11-01T12:53:25.597</time></trkpt><trkpt lat="55.5399400" lon="38.7863330"><time>2020-11-01T12:53:38.600</time></trkpt><trkpt lat="55.5400280" lon="38.7864470"><time>2020-11-01T12:53:47.590</time></trkpt><trkpt lat="55.5400980" lon="38.7865930"><time>2020-11-01T12:53:55.597</time></trkpt><trkpt lat="55.5401180" lon="38.7866900"><time>2020-11-01T12:53:58.597</time></trkpt><trkpt lat="55.5401300" lon="38.7867780"><time>2020-11-01T12:54:00.593</time></trkpt><trkpt lat="55.5401430" lon="38.7868580"><time>2020-11-01T12:54:03.593</time></trkpt><trkpt lat="55.5401320" lon="38.7869600"><time>2020-11-01T12:54:06.597</time></trkpt><trkpt lat="55.5401430" lon="38.7870520"><time>2020-11-01T12:54:08.597</time></trkpt><trkpt lat="55.5401720" lon="38.7871550"><time>2020-11-01T12:54:10.593</time></trkpt><trkpt lat="55.5402050" lon="38.7872220"><time>2020-11-01T12:54:12.593</time></trkpt><trkpt lat="55.5402650" lon="38.7872930"><time>2020-11-01T12:54:16.597</time></trkpt><trkpt lat="55.5402700" lon="38.7873870"><time>2020-11-01T12:54:18.590</time></trkpt><trkpt lat="55.5402770" lon="38.7874780"><time>2020-11-01T12:54:20.597</time></trkpt><trkpt lat="55.5402580" lon="38.7876080"><time>2020-11-01T12:54:23.593</time></trkpt><trkpt lat="55.5402400" lon="38.7877150"><time>2020-11-01T12:54:25.593</time></trkpt><trkpt lat="55.5402300" lon="38.7878080"><time>2020-11-01T12:54:27.597</time></trkpt><trkpt lat="55.5402170" lon="38.7879050"><time>2020-11-01T12:54:29.597</time></trkpt><trkpt lat="55.5402300" lon="38.7879970"><time>2020-11-01T12:54:31.597</time></trkpt><trkpt lat="55.5402230" lon="38.7880830"><time>2020-11-01T12:54:34.600</time></trkpt><trkpt lat="55.5402050" lon="38.7881700"><time>2020-11-01T12:54:35.597</time></trkpt><trkpt lat="55.5402030" lon="38.7882750"><time>2020-11-01T12:54:38.597</time></trkpt><trkpt lat="55.5402770" lon="38.7883620"><time>2020-11-01T12:54:47.597</time></trkpt><trkpt lat="55.5403020" lon="38.7884430"><time>2020-11-01T12:54:50.593</time></trkpt><trkpt lat="55.5403380" lon="38.7885270"><time>2020-11-01T12:54:53.597</time></trkpt><trkpt lat="55.5403720" lon="38.7885970"><time>2020-11-01T12:54:58.597</time></trkpt><trkpt lat="55.5404100" lon="38.7886600"><time>2020-11-01T12:55:01.593</time></trkpt><trkpt lat="55.5404670" lon="38.7887080"><time>2020-11-01T12:55:03.590</time></trkpt><trkpt lat="55.5405120" lon="38.7887430"><time>2020-11-01T12:55:05.593</time></trkpt><trkpt lat="55.5405720" lon="38.7888070"><time>2020-11-01T12:55:09.597</time></trkpt><trkpt lat="55.5406180" lon="38.7888150"><time>2020-11-01T12:55:12.597</time></trkpt><trkpt lat="55.5406620" lon="38.7888720"><time>2020-11-01T12:55:15.597</time></trkpt><trkpt lat="55.5407120" lon="38.7889380"><time>2020-11-01T12:55:18.597</time></trkpt><trkpt lat="55.5407650" lon="38.7889680"><time>2020-11-01T12:55:23.593</time></trkpt><trkpt lat="55.5408320" lon="38.7890100"><time>2020-11-01T12:55:27.600</time></trkpt><trkpt lat="55.5408820" lon="38.7890570"><time>2020-11-01T12:55:30.597</time></trkpt><trkpt lat="55.5409030" lon="38.7891430"><time>2020-11-01T12:55:33.597</time></trkpt><trkpt lat="55.5409320" lon="38.7892280"><time>2020-11-01T12:55:36.590</time></trkpt><trkpt lat="55.5409500" lon="38.7893120"><time>2020-11-01T12:55:38.593</time></trkpt><trkpt lat="55.5409800" lon="38.7893970"><time>2020-11-01T12:55:40.600</time></trkpt><trkpt lat="55.5409920" lon="38.7894820"><time>2020-11-01T12:55:41.597</time></trkpt><trkpt lat="55.5410120" lon="38.7895820"><time>2020-11-01T12:55:44.600</time></trkpt><trkpt lat="55.5410370" lon="38.7896830"><time>2020-11-01T12:55:47.597</time></trkpt><trkpt lat="55.5410470" lon="38.7897750"><time>2020-11-01T12:55:50.600</time></trkpt><trkpt lat="55.5410820" lon="38.7899320"><time>2020-11-01T12:55:57.600</time></trkpt><trkpt lat="55.5411030" lon="38.7900330"><time>2020-11-01T12:56:00.600</time></trkpt><trkpt lat="55.5411400" lon="38.7901000"><time>2020-11-01T12:56:04.600</time></trkpt><trkpt lat="55.5411850" lon="38.7901720"><time>2020-11-01T12:56:07.600</time></trkpt><trkpt lat="55.5412050" lon="38.7902480"><time>2020-11-01T12:56:09.600</time></trkpt><trkpt lat="55.5412230" lon="38.7903370"><time>2020-11-01T12:56:12.597</time></trkpt><trkpt lat="55.5412370" lon="38.7904280"><time>2020-11-01T12:56:15.593</time></trkpt><trkpt lat="55.5412600" lon="38.7905230"><time>2020-11-01T12:56:18.597</time></trkpt><trkpt lat="55.5412830" lon="38.7906100"><time>2020-11-01T12:56:21.600</time></trkpt><trkpt lat="55.5413620" lon="38.7907670"><time>2020-11-01T12:56:31.597</time></trkpt><trkpt lat="55.5414480" lon="38.7909350"><time>2020-11-01T12:56:42.600</time></trkpt><trkpt lat="55.5415000" lon="38.7910000"><time>2020-11-01T12:56:45.600</time></trkpt><trkpt lat="55.5415880" lon="38.7910970"><time>2020-11-01T12:56:50.600</time></trkpt><trkpt lat="55.5416350" lon="38.7911570"><time>2020-11-01T12:56:53.560</time></trkpt><trkpt lat="55.5416730" lon="38.7912330"><time>2020-11-01T12:56:56.600</time></trkpt><trkpt lat="55.5416950" lon="38.7913080"><time>2020-11-01T12:56:59.597</time></trkpt><trkpt lat="55.5417080" lon="38.7913930"><time>2020-11-01T12:57:02.597</time></trkpt><trkpt lat="55.5417200" lon="38.7914820"><time>2020-11-01T12:57:06.597</time></trkpt><trkpt lat="55.5418250" lon="38.7915980"><time>2020-11-01T12:57:23.597</time></trkpt><trkpt lat="55.5418650" lon="38.7916680"><time>2020-11-01T12:57:26.597</time></trkpt><trkpt lat="55.5419100" lon="38.7917380"><time>2020-11-01T12:57:28.600</time></trkpt><trkpt lat="55.5419330" lon="38.7918180"><time>2020-11-01T12:57:31.597</time></trkpt><trkpt lat="55.5419750" lon="38.7919720"><time>2020-11-01T12:57:40.603</time></trkpt><trkpt lat="55.5420550" lon="38.7920600"><time>2020-11-01T12:57:44.600</time></trkpt><trkpt lat="55.5421050" lon="38.7921150"><time>2020-11-01T12:57:45.593</time></trkpt><trkpt lat="55.5421370" lon="38.7921920"><time>2020-11-01T12:57:46.597</time></trkpt><trkpt lat="55.5421720" lon="38.7922850"><time>2020-11-01T12:57:47.597</time></trkpt><trkpt lat="55.5421980" lon="38.7924030"><time>2020-11-01T12:57:48.603</time></trkpt><trkpt lat="55.5422280" lon="38.7924850"><time>2020-11-01T12:57:49.600</time></trkpt><trkpt lat="55.5422630" lon="38.7925900"><time>2020-11-01T12:57:50.603</time></trkpt><trkpt lat="55.5422950" lon="38.7926920"><time>2020-11-01T12:57:51.603</time></trkpt><trkpt lat="55.5423020" lon="38.7927780"><time>2020-11-01T12:57:52.600</time></trkpt><trkpt lat="55.5423250" lon="38.7929050"><time>2020-11-01T12:57:54.600</time></trkpt><trkpt lat="55.5423330" lon="38.7930000"><time>2020-11-01T12:57:56.600</time></trkpt><trkpt lat="55.5423230" lon="38.7931080"><time>2020-11-01T12:57:58.603</time></trkpt><trkpt lat="55.5423130" lon="38.7932120"><time>2020-11-01T12:58:00.600</time></trkpt><trkpt lat="55.5423200" lon="38.7932950"><time>2020-11-01T12:58:02.600</time></trkpt><trkpt lat="55.5423620" lon="38.7933770"><time>2020-11-01T12:58:04.600</time></trkpt><trkpt lat="55.5424050" lon="38.7934330"><time>2020-11-01T12:58:07.600</time></trkpt><trkpt lat="55.5424300" lon="38.7935300"><time>2020-11-01T12:58:11.597</time></trkpt><trkpt lat="55.5424470" lon="38.7936080"><time>2020-11-01T12:58:15.597</time></trkpt><trkpt lat="55.5424000" lon="38.7937750"><time>2020-11-01T12:58:32.597</time></trkpt><trkpt lat="55.5423180" lon="38.7939280"><time>2020-11-01T12:58:45.600</time></trkpt><trkpt lat="55.5422920" lon="38.7939970"><time>2020-11-01T12:58:46.593</time></trkpt><trkpt lat="55.5422550" lon="38.7941020"><time>2020-11-01T12:58:48.600</time></trkpt><trkpt lat="55.5422130" lon="38.7941730"><time>2020-11-01T12:58:50.600</time></trkpt><trkpt lat="55.5421920" lon="38.7942620"><time>2020-11-01T12:58:53.597</time></trkpt><trkpt lat="55.5421970" lon="38.7943730"><time>2020-11-01T12:58:56.600</time></trkpt><trkpt lat="55.5421980" lon="38.7944680"><time>2020-11-01T12:58:58.597</time></trkpt><trkpt lat="55.5421930" lon="38.7945680"><time>2020-11-01T12:59:00.597</time></trkpt><trkpt lat="55.5422070" lon="38.7946500"><time>2020-11-01T12:59:02.600</time></trkpt><trkpt lat="55.5422250" lon="38.7947400"><time>2020-11-01T12:59:05.600</time></trkpt><trkpt lat="55.5422300" lon="38.7948380"><time>2020-11-01T12:59:08.600</time></trkpt><trkpt lat="55.5422050" lon="38.7950580"><time>2020-11-01T12:59:15.600</time></trkpt><trkpt lat="55.5422170" lon="38.7951820"><time>2020-11-01T12:59:18.603</time></trkpt><trkpt lat="55.5422320" lon="38.7952900"><time>2020-11-01T12:59:20.600</time></trkpt><trkpt lat="55.5422550" lon="38.7953750"><time>2020-11-01T12:59:22.600</time></trkpt><trkpt lat="55.5422720" lon="38.7954750"><time>2020-11-01T12:59:24.600</time></trkpt><trkpt lat="55.5422980" lon="38.7955880"><time>2020-11-01T12:59:27.600</time></trkpt><trkpt lat="55.5423550" lon="38.7957970"><time>2020-11-01T12:59:40.603</time></trkpt><trkpt lat="55.5423320" lon="38.7959250"><time>2020-11-01T12:59:42.593</time></trkpt><trkpt lat="55.5423180" lon="38.7961500"><time>2020-11-01T12:59:47.597</time></trkpt><trkpt lat="55.5423520" lon="38.7963600"><time>2020-11-01T12:59:50.603</time></trkpt><trkpt lat="55.5423920" lon="38.7964530"><time>2020-11-01T12:59:51.597</time></trkpt><trkpt lat="55.5424080" lon="38.7965430"><time>2020-11-01T12:59:52.600</time></trkpt><trkpt lat="55.5424050" lon="38.7966230"><time>2020-11-01T12:59:54.607</time></trkpt><trkpt lat="55.5424070" lon="38.7965220"><time>2020-11-01T13:00:01.597</time></trkpt><trkpt lat="55.5423620" lon="38.7965220"><time>2020-11-01T13:00:06.603</time></trkpt><trkpt lat="55.5423270" lon="38.7966330"><time>2020-11-01T13:00:08.597</time></trkpt><trkpt lat="55.5423370" lon="38.7967420"><time>2020-11-01T13:00:10.600</time></trkpt><trkpt lat="55.5423770" lon="38.7966620"><time>2020-11-01T13:00:19.600</time></trkpt><trkpt lat="55.5423600" lon="38.7967280"><time>2020-11-01T13:00:30.090</time></trkpt><trkpt lat="55.5423570" lon="38.7967370"><time>2020-11-01T13:00:31.557</time></trkpt><trkpt lat="55.5423400" lon="38.7966600"><time>2020-11-01T13:00:36.597</time></trkpt><trkpt lat="55.5422930" lon="38.7967350"><time>2020-11-01T13:00:38.593</time></trkpt><trkpt lat="55.5422380" lon="38.7968230"><time>2020-11-01T13:00:42.610</time></trkpt><trkpt lat="55.5422480" lon="38.7969020"><time>2020-11-01T13:00:46.597</time></trkpt><trkpt lat="55.5422830" lon="38.7969600"><time>2020-11-01T13:00:50.600</time></trkpt><trkpt lat="55.5422630" lon="38.7970770"><time>2020-11-01T13:00:54.640</time></trkpt><trkpt lat="55.5422420" lon="38.7971770"><time>2020-11-01T13:00:56.600</time></trkpt><trkpt lat="55.5422200" lon="38.7972820"><time>2020-11-01T13:00:58.600</time></trkpt><trkpt lat="55.5421820" lon="38.7973850"><time>2020-11-01T13:01:01.603</time></trkpt><trkpt lat="55.5421530" lon="38.7974480"><time>2020-11-01T13:01:03.597</time></trkpt><trkpt lat="55.5421620" lon="38.7975300"><time>2020-11-01T13:01:05.603</time></trkpt><trkpt lat="55.5421500" lon="38.7976600"><time>2020-11-01T13:01:08.603</time></trkpt><trkpt lat="55.5421220" lon="38.7977620"><time>2020-11-01T13:01:12.603</time></trkpt><trkpt lat="55.5421270" lon="38.7978600"><time>2020-11-01T13:01:14.607</time></trkpt><trkpt lat="55.5420950" lon="38.7979470"><time>2020-11-01T13:01:16.597</time></trkpt><trkpt lat="55.5421020" lon="38.7980580"><time>2020-11-01T13:01:18.600</time></trkpt><trkpt lat="55.5421070" lon="38.7981650"><time>2020-11-01T13:01:21.600</time></trkpt><trkpt lat="55.5421000" lon="38.7982500"><time>2020-11-01T13:01:25.603</time></trkpt><trkpt lat="55.5421030" lon="38.7983320"><time>2020-11-01T13:01:28.603</time></trkpt><trkpt lat="55.5421170" lon="38.7984200"><time>2020-11-01T13:01:30.603</time></trkpt><trkpt lat="55.5421280" lon="38.7985080"><time>2020-11-01T13:01:32.603</time></trkpt><trkpt lat="55.5421070" lon="38.7985900"><time>2020-11-01T13:01:35.600</time></trkpt><trkpt lat="55.5420920" lon="38.7986750"><time>2020-11-01T13:01:37.597</time></trkpt><trkpt lat="55.5421000" lon="38.7987680"><time>2020-11-01T13:01:40.600</time></trkpt><trkpt lat="55.5421200" lon="38.7988750"><time>2020-11-01T13:01:42.607</time></trkpt><trkpt lat="55.5420930" lon="38.7989700"><time>2020-11-01T13:01:45.597</time></trkpt><trkpt lat="55.5420980" lon="38.7990820"><time>2020-11-01T13:01:47.600</time></trkpt><trkpt lat="55.5421100" lon="38.7991900"><time>2020-11-01T13:01:50.597</time></trkpt><trkpt lat="55.5420970" lon="38.7994250"><time>2020-11-01T13:02:00.597</time></trkpt><trkpt lat="55.5420930" lon="38.7995150"><time>2020-11-01T13:02:03.603</time></trkpt><trkpt lat="55.5420950" lon="38.7996850"><time>2020-11-01T13:02:10.607</time></trkpt><trkpt lat="55.5421250" lon="38.7997530"><time>2020-11-01T13:02:13.597</time></trkpt><trkpt lat="55.5421870" lon="38.7998970"><time>2020-11-01T13:02:21.603</time></trkpt><trkpt lat="55.5422170" lon="38.7999620"><time>2020-11-01T13:02:24.597</time></trkpt><trkpt lat="55.5422950" lon="38.8000600"><time>2020-11-01T13:02:30.600</time></trkpt><trkpt lat="55.5423450" lon="38.8000930"><time>2020-11-01T13:02:33.603</time></trkpt><trkpt lat="55.5423380" lon="38.8001820"><time>2020-11-01T13:02:35.600</time></trkpt><trkpt lat="55.5423630" lon="38.8003020"><time>2020-11-01T13:02:38.607</time></trkpt><trkpt lat="55.5424200" lon="38.8004370"><time>2020-11-01T13:02:45.607</time></trkpt><trkpt lat="55.5424670" lon="38.8004920"><time>2020-11-01T13:02:47.560</time></trkpt><trkpt lat="55.5425680" lon="38.8005700"><time>2020-11-01T13:02:51.607</time></trkpt><trkpt lat="55.5426320" lon="38.8006250"><time>2020-11-01T13:02:53.603</time></trkpt><trkpt lat="55.5427520" lon="38.8007220"><time>2020-11-01T13:02:59.597</time></trkpt><trkpt lat="55.5427920" lon="38.8007720"><time>2020-11-01T13:03:01.600</time></trkpt><trkpt lat="55.5428900" lon="38.8008870"><time>2020-11-01T13:03:06.597</time></trkpt><trkpt lat="55.5429330" lon="38.8009350"><time>2020-11-01T13:03:08.607</time></trkpt><trkpt lat="55.5430450" lon="38.8010630"><time>2020-11-01T13:03:14.597</time></trkpt><trkpt lat="55.5431030" lon="38.8011250"><time>2020-11-01T13:03:21.603</time></trkpt><trkpt lat="55.5431850" lon="38.8012270"><time>2020-11-01T13:03:23.603</time></trkpt><trkpt lat="55.5432480" lon="38.8013020"><time>2020-11-01T13:03:25.607</time></trkpt><trkpt lat="55.5433180" lon="38.8013720"><time>2020-11-01T13:03:27.603</time></trkpt><trkpt lat="55.5433820" lon="38.8014380"><time>2020-11-01T13:03:29.600</time></trkpt><trkpt lat="55.5434520" lon="38.8014870"><time>2020-11-01T13:03:31.603</time></trkpt><trkpt lat="55.5435320" lon="38.8015420"><time>2020-11-01T13:03:33.603</time></trkpt><trkpt lat="55.5435950" lon="38.8015520"><time>2020-11-01T13:03:34.600</time></trkpt><trkpt lat="55.5436580" lon="38.8015550"><time>2020-11-01T13:03:36.603</time></trkpt><trkpt lat="55.5436750" lon="38.8017030"><time>2020-11-01T13:03:41.600</time></trkpt><trkpt lat="55.5436820" lon="38.8018220"><time>2020-11-01T13:03:45.600</time></trkpt><trkpt lat="55.5437170" lon="38.8018900"><time>2020-11-01T13:03:48.600</time></trkpt><trkpt lat="55.5437500" lon="38.8019870"><time>2020-11-01T13:03:51.600</time></trkpt><trkpt lat="55.5437850" lon="38.8021000"><time>2020-11-01T13:03:53.600</time></trkpt><trkpt lat="55.5438020" lon="38.8022430"><time>2020-11-01T13:03:54.593</time></trkpt><trkpt lat="55.5438070" lon="38.8023880"><time>2020-11-01T13:03:55.600</time></trkpt><trkpt lat="55.5437780" lon="38.8025520"><time>2020-11-01T13:03:56.603</time></trkpt><trkpt lat="55.5437720" lon="38.8026920"><time>2020-11-01T13:03:57.607</time></trkpt><trkpt lat="55.5437330" lon="38.8027650"><time>2020-11-01T13:03:58.617</time></trkpt><trkpt lat="55.5436920" lon="38.8028150"><time>2020-11-01T13:04:01.607</time></trkpt><trkpt lat="55.5436520" lon="38.8029120"><time>2020-11-01T13:04:03.603</time></trkpt><trkpt lat="55.5436330" lon="38.8030050"><time>2020-11-01T13:04:05.600</time></trkpt><trkpt lat="55.5435970" lon="38.8031250"><time>2020-11-01T13:04:07.603</time></trkpt><trkpt lat="55.5435550" lon="38.8032230"><time>2020-11-01T13:04:09.603</time></trkpt><trkpt lat="55.5435300" lon="38.8033130"><time>2020-11-01T13:04:11.593</time></trkpt><trkpt lat="55.5434900" lon="38.8034020"><time>2020-11-01T13:04:13.600</time></trkpt><trkpt lat="55.5434330" lon="38.8033970"><time>2020-11-01T13:04:18.600</time></trkpt><trkpt lat="55.5433730" lon="38.8034300"><time>2020-11-01T13:04:22.600</time></trkpt><trkpt lat="55.5433280" lon="38.8034080"><time>2020-11-01T13:04:24.600</time></trkpt><trkpt lat="55.5432600" lon="38.8033930"><time>2020-11-01T13:04:28.603</time></trkpt><trkpt lat="55.5432150" lon="38.8034700"><time>2020-11-01T13:04:32.597</time></trkpt><trkpt lat="55.5431850" lon="38.8035350"><time>2020-11-01T13:04:34.603</time></trkpt><trkpt lat="55.5431450" lon="38.8035970"><time>2020-11-01T13:04:38.603</time></trkpt><trkpt lat="55.5430920" lon="38.8036430"><time>2020-11-01T13:04:42.600</time></trkpt><trkpt lat="55.5430450" lon="38.8036800"><time>2020-11-01T13:04:44.600</time></trkpt><trkpt lat="55.5430030" lon="38.8037220"><time>2020-11-01T13:04:46.597</time></trkpt><trkpt lat="55.5429550" lon="38.8037780"><time>2020-11-01T13:04:48.597</time></trkpt><trkpt lat="55.5429170" lon="38.8038350"><time>2020-11-01T13:04:52.603</time></trkpt><trkpt lat="55.5428780" lon="38.8039850"><time>2020-11-01T13:05:01.597</time></trkpt><trkpt lat="55.5428400" lon="38.8040620"><time>2020-11-01T13:05:04.597</time></trkpt><trkpt lat="55.5427850" lon="38.8042350"><time>2020-11-01T13:05:10.597</time></trkpt><trkpt lat="55.5427770" lon="38.8043200"><time>2020-11-01T13:05:12.600</time></trkpt><trkpt lat="55.5427570" lon="38.8043970"><time>2020-11-01T13:05:15.600</time></trkpt><trkpt lat="55.5427050" lon="38.8045870"><time>2020-11-01T13:05:22.600</time></trkpt><trkpt lat="55.5426920" lon="38.8046680"><time>2020-11-01T13:05:24.597</time></trkpt><trkpt lat="55.5426550" lon="38.8048270"><time>2020-11-01T13:05:28.600</time></trkpt><trkpt lat="55.5426480" lon="38.8049270"><time>2020-11-01T13:05:31.593</time></trkpt><trkpt lat="55.5426270" lon="38.8050450"><time>2020-11-01T13:05:34.590</time></trkpt><trkpt lat="55.5426220" lon="38.8051300"><time>2020-11-01T13:05:37.600</time></trkpt><trkpt lat="55.5425920" lon="38.8052900"><time>2020-11-01T13:05:45.607</time></trkpt><trkpt lat="55.5425730" lon="38.8053670"><time>2020-11-01T13:05:48.603</time></trkpt><trkpt lat="55.5425420" lon="38.8055250"><time>2020-11-01T13:05:56.603</time></trkpt><trkpt lat="55.5425280" lon="38.8056080"><time>2020-11-01T13:05:59.600</time></trkpt><trkpt lat="55.5425350" lon="38.8057970"><time>2020-11-01T13:06:04.583</time></trkpt><trkpt lat="55.5425400" lon="38.8058980"><time>2020-11-01T13:06:06.600</time></trkpt><trkpt lat="55.5425530" lon="38.8059930"><time>2020-11-01T13:06:07.597</time></trkpt><trkpt lat="55.5425380" lon="38.8060820"><time>2020-11-01T13:06:09.603</time></trkpt><trkpt lat="55.5425420" lon="38.8061750"><time>2020-11-01T13:06:12.600</time></trkpt><trkpt lat="55.5425630" lon="38.8062800"><time>2020-11-01T13:06:15.597</time></trkpt><trkpt lat="55.5425680" lon="38.8063680"><time>2020-11-01T13:06:17.600</time></trkpt><trkpt lat="55.5425920" lon="38.8064430"><time>2020-11-01T13:06:19.563</time></trkpt><trkpt lat="55.5426070" lon="38.8065380"><time>2020-11-01T13:06:21.603</time></trkpt><trkpt lat="55.5426200" lon="38.8066570"><time>2020-11-01T13:06:24.573</time></trkpt><trkpt lat="55.5426400" lon="38.8068770"><time>2020-11-01T13:06:31.603</time></trkpt><trkpt lat="55.5426370" lon="38.8070470"><time>2020-11-01T13:06:36.597</time></trkpt><trkpt lat="55.5426220" lon="38.8071270"><time>2020-11-01T13:06:39.603</time></trkpt><trkpt lat="55.5425930" lon="38.8072820"><time>2020-11-01T13:06:46.600</time></trkpt><trkpt lat="55.5425620" lon="38.8073470"><time>2020-11-01T13:06:49.600</time></trkpt><trkpt lat="55.5425600" lon="38.8074850"><time>2020-11-01T13:06:58.600</time></trkpt><trkpt lat="55.5425330" lon="38.8075530"><time>2020-11-01T13:07:00.603</time></trkpt><trkpt lat="55.5424730" lon="38.8077320"><time>2020-11-01T13:07:07.603</time></trkpt><trkpt lat="55.5424270" lon="38.8079450"><time>2020-11-01T13:07:19.600</time></trkpt><trkpt lat="55.5423850" lon="38.8081870"><time>2020-11-01T13:07:28.597</time></trkpt><trkpt lat="55.5423650" lon="38.8082730"><time>2020-11-01T13:07:31.607</time></trkpt><trkpt lat="55.5423300" lon="38.8084350"><time>2020-11-01T13:07:36.603</time></trkpt><trkpt lat="55.5422950" lon="38.8085320"><time>2020-11-01T13:07:39.603</time></trkpt><trkpt lat="55.5422900" lon="38.8087000"><time>2020-11-01T13:07:46.603</time></trkpt><trkpt lat="55.5422350" lon="38.8088080"><time>2020-11-01T13:07:54.600</time></trkpt><trkpt lat="55.5422070" lon="38.8089000"><time>2020-11-01T13:07:56.600</time></trkpt><trkpt lat="55.5421620" lon="38.8089920"><time>2020-11-01T13:07:58.600</time></trkpt><trkpt lat="55.5420730" lon="38.8091220"><time>2020-11-01T13:08:01.603</time></trkpt><trkpt lat="55.5420400" lon="38.8091800"><time>2020-11-01T13:08:02.600</time></trkpt><trkpt lat="55.5419980" lon="38.8092570"><time>2020-11-01T13:08:03.600</time></trkpt><trkpt lat="55.5419620" lon="38.8093630"><time>2020-11-01T13:08:05.600</time></trkpt><trkpt lat="55.5419100" lon="38.8094780"><time>2020-11-01T13:08:07.600</time></trkpt><trkpt lat="55.5418820" lon="38.8095400"><time>2020-11-01T13:08:08.603</time></trkpt><trkpt lat="55.5418370" lon="38.8096870"><time>2020-11-01T13:08:10.603</time></trkpt><trkpt lat="55.5418130" lon="38.8097550"><time>2020-11-01T13:08:11.593</time></trkpt><trkpt lat="55.5417480" lon="38.8099100"><time>2020-11-01T13:08:13.597</time></trkpt><trkpt lat="55.5417200" lon="38.8100320"><time>2020-11-01T13:08:15.600</time></trkpt><trkpt lat="55.5416880" lon="38.8101270"><time>2020-11-01T13:08:18.603</time></trkpt><trkpt lat="55.5416630" lon="38.8101980"><time>2020-11-01T13:08:20.600</time></trkpt><trkpt lat="55.5416270" lon="38.8102520"><time>2020-11-01T13:08:21.607</time></trkpt><trkpt lat="55.5415530" lon="38.8103800"><time>2020-11-01T13:08:27.607</time></trkpt><trkpt lat="55.5415370" lon="38.8104730"><time>2020-11-01T13:08:30.600</time></trkpt><trkpt lat="55.5415130" lon="38.8106820"><time>2020-11-01T13:08:40.603</time></trkpt><trkpt lat="55.5414980" lon="38.8109030"><time>2020-11-01T13:08:51.603</time></trkpt><trkpt lat="55.5414650" lon="38.8111430"><time>2020-11-01T13:09:03.607</time></trkpt><trkpt lat="55.5414220" lon="38.8113450"><time>2020-11-01T13:09:15.600</time></trkpt><trkpt lat="55.5414020" lon="38.8115650"><time>2020-11-01T13:09:27.600</time></trkpt><trkpt lat="55.5414300" lon="38.8117480"><time>2020-11-01T13:09:38.603</time></trkpt><trkpt lat="55.5414400" lon="38.8119700"><time>2020-11-01T13:09:49.607</time></trkpt><trkpt lat="55.5415020" lon="38.8122100"><time>2020-11-01T13:09:59.603</time></trkpt><trkpt lat="55.5415130" lon="38.8122870"><time>2020-11-01T13:10:02.600</time></trkpt><trkpt lat="55.5415080" lon="38.8124600"><time>2020-11-01T13:10:15.600</time></trkpt><trkpt lat="55.5414930" lon="38.8126770"><time>2020-11-01T13:10:27.600</time></trkpt><trkpt lat="55.5414850" lon="38.8127570"><time>2020-11-01T13:10:29.597</time></trkpt><trkpt lat="55.5414570" lon="38.8129680"><time>2020-11-01T13:10:38.600</time></trkpt><trkpt lat="55.5414800" lon="38.8132030"><time>2020-11-01T13:10:46.597</time></trkpt><trkpt lat="55.5414850" lon="38.8132830"><time>2020-11-01T13:10:49.603</time></trkpt><trkpt lat="55.5414780" lon="38.8134430"><time>2020-11-01T13:10:56.593</time></trkpt><trkpt lat="55.5413950" lon="38.8136550"><time>2020-11-01T13:11:02.603</time></trkpt><trkpt lat="55.5413830" lon="38.8137350"><time>2020-11-01T13:11:05.593</time></trkpt><trkpt lat="55.5413530" lon="38.8139330"><time>2020-11-01T13:11:13.607</time></trkpt><trkpt lat="55.5413830" lon="38.8141170"><time>2020-11-01T13:11:28.603</time></trkpt><trkpt lat="55.5413480" lon="38.8142930"><time>2020-11-01T13:11:54.653</time></trkpt><trkpt lat="55.5413550" lon="38.8144730"><time>2020-11-01T13:12:05.597</time></trkpt><trkpt lat="55.5413720" lon="38.8145750"><time>2020-11-01T13:12:14.610</time></trkpt><trkpt lat="55.5414050" lon="38.8147830"><time>2020-11-01T13:12:37.610</time></trkpt><trkpt lat="55.5414430" lon="38.8149670"><time>2020-11-01T13:12:54.600</time></trkpt><trkpt lat="55.5414550" lon="38.8149980"><time>2020-11-01T13:13:03.330</time></trkpt><trkpt lat="55.5415470" lon="38.8150750"><time>2020-11-01T13:13:03.703</time></trkpt><trkpt lat="55.5415880" lon="38.8151380"><time>2020-11-01T13:13:04.580</time></trkpt><trkpt lat="55.5416800" lon="38.8151830"><time>2020-11-01T13:13:08.577</time></trkpt><trkpt lat="55.5416330" lon="38.8152680"><time>2020-11-01T13:13:09.583</time></trkpt><trkpt lat="55.5415850" lon="38.8152570"><time>2020-11-01T13:13:14.573</time></trkpt><trkpt lat="55.5415320" lon="38.8152120"><time>2020-11-01T13:13:15.570</time></trkpt><trkpt lat="55.5416080" lon="38.8153950"><time>2020-11-01T13:13:19.973</time></trkpt><trkpt lat="55.5415350" lon="38.8153400"><time>2020-11-01T13:13:20.597</time></trkpt><trkpt lat="55.5414850" lon="38.8153020"><time>2020-11-01T13:13:23.593</time></trkpt><trkpt lat="55.5415020" lon="38.8154130"><time>2020-11-01T13:13:26.587</time></trkpt><trkpt lat="55.5414420" lon="38.8153580"><time>2020-11-01T13:13:30.600</time></trkpt><trkpt lat="55.5413530" lon="38.8152550"><time>2020-11-01T13:14:12.597</time></trkpt><trkpt lat="55.5412270" lon="38.8152370"><time>2020-11-01T13:14:29.603</time></trkpt><trkpt lat="55.5411020" lon="38.8151630"><time>2020-11-01T13:14:41.603</time></trkpt><trkpt lat="55.5409930" lon="38.8151520"><time>2020-11-01T13:14:53.600</time></trkpt><trkpt lat="55.5408830" lon="38.8151280"><time>2020-11-01T13:15:07.603</time></trkpt><trkpt lat="55.5408320" lon="38.8149780"><time>2020-11-01T13:15:14.597</time></trkpt><trkpt lat="55.5408150" lon="38.8148820"><time>2020-11-01T13:15:16.587</time></trkpt><trkpt lat="55.5408100" lon="38.8147680"><time>2020-11-01T13:15:18.603</time></trkpt><trkpt lat="55.5408170" lon="38.8146850"><time>2020-11-01T13:15:21.607</time></trkpt><trkpt lat="55.5408270" lon="38.8145980"><time>2020-11-01T13:15:25.610</time></trkpt><trkpt lat="55.5407870" lon="38.8144350"><time>2020-11-01T13:15:38.607</time></trkpt><trkpt lat="55.5408020" lon="38.8142320"><time>2020-11-01T13:15:55.603</time></trkpt><trkpt lat="55.5408220" lon="38.8141230"><time>2020-11-01T13:15:58.603</time></trkpt><trkpt lat="55.5408080" lon="38.8140320"><time>2020-11-01T13:16:01.600</time></trkpt><trkpt lat="55.5407600" lon="38.8138830"><time>2020-11-01T13:16:11.603</time></trkpt><trkpt lat="55.5406880" lon="38.8136880"><time>2020-11-01T13:16:25.603</time></trkpt><trkpt lat="55.5406180" lon="38.8136070"><time>2020-11-01T13:16:31.597</time></trkpt><trkpt lat="55.5405080" lon="38.8134830"><time>2020-11-01T13:16:43.597</time></trkpt><trkpt lat="55.5404100" lon="38.8133500"><time>2020-11-01T13:16:54.600</time></trkpt><trkpt lat="55.5403600" lon="38.8131570"><time>2020-11-01T13:17:08.603</time></trkpt><trkpt lat="55.5402600" lon="38.8130220"><time>2020-11-01T13:17:20.603</time></trkpt><trkpt lat="55.5401570" lon="38.8128700"><time>2020-11-01T13:17:29.603</time></trkpt><trkpt lat="55.5401100" lon="38.8128100"><time>2020-11-01T13:17:31.603</time></trkpt><trkpt lat="55.5400530" lon="38.8127820"><time>2020-11-01T13:17:34.607</time></trkpt><trkpt lat="55.5400080" lon="38.8127500"><time>2020-11-01T13:17:37.600</time></trkpt><trkpt lat="55.5399600" lon="38.8127470"><time>2020-11-01T13:17:40.603</time></trkpt><trkpt lat="55.5398650" lon="38.8126630"><time>2020-11-01T13:17:47.610</time></trkpt><trkpt lat="55.5398150" lon="38.8126170"><time>2020-11-01T13:17:49.603</time></trkpt><trkpt lat="55.5397620" lon="38.8125570"><time>2020-11-01T13:17:52.597</time></trkpt><trkpt lat="55.5397280" lon="38.8124870"><time>2020-11-01T13:17:54.600</time></trkpt><trkpt lat="55.5397030" lon="38.8124200"><time>2020-11-01T13:17:55.597</time></trkpt><trkpt lat="55.5396780" lon="38.8123450"><time>2020-11-01T13:17:57.603</time></trkpt><trkpt lat="55.5396630" lon="38.8122620"><time>2020-11-01T13:18:00.597</time></trkpt><trkpt lat="55.5395920" lon="38.8120470"><time>2020-11-01T13:18:13.597</time></trkpt><trkpt lat="55.5395070" lon="38.8118280"><time>2020-11-01T13:18:24.603</time></trkpt><trkpt lat="55.5394770" lon="38.8117500"><time>2020-11-01T13:18:27.607</time></trkpt><trkpt lat="55.5394170" lon="38.8116020"><time>2020-11-01T13:18:31.600</time></trkpt><trkpt lat="55.5393800" lon="38.8115200"><time>2020-11-01T13:18:34.600</time></trkpt><trkpt lat="55.5393330" lon="38.8113730"><time>2020-11-01T13:18:39.600</time></trkpt><trkpt lat="55.5392980" lon="38.8113030"><time>2020-11-01T13:18:41.597</time></trkpt><trkpt lat="55.5392650" lon="38.8112180"><time>2020-11-01T13:18:43.597</time></trkpt><trkpt lat="55.5392320" lon="38.8111100"><time>2020-11-01T13:18:45.607</time></trkpt><trkpt lat="55.5392180" lon="38.8110020"><time>2020-11-01T13:18:47.603</time></trkpt><trkpt lat="55.5391780" lon="38.8107780"><time>2020-11-01T13:19:02.600</time></trkpt><trkpt lat="55.5392070" lon="38.8106400"><time>2020-11-01T13:19:07.597</time></trkpt><trkpt lat="55.5392270" lon="38.8105420"><time>2020-11-01T13:19:10.603</time></trkpt><trkpt lat="55.5392400" lon="38.8104650"><time>2020-11-01T13:19:13.600</time></trkpt><trkpt lat="55.5392600" lon="38.8102880"><time>2020-11-01T13:19:22.603</time></trkpt><trkpt lat="55.5392920" lon="38.8102080"><time>2020-11-01T13:19:25.610</time></trkpt><trkpt lat="55.5393120" lon="38.8101330"><time>2020-11-01T13:19:27.563</time></trkpt><trkpt lat="55.5393220" lon="38.8100270"><time>2020-11-01T13:19:29.603</time></trkpt><trkpt lat="55.5393450" lon="38.8099520"><time>2020-11-01T13:19:32.607</time></trkpt><trkpt lat="55.5393850" lon="38.8097150"><time>2020-11-01T13:19:42.597</time></trkpt><trkpt lat="55.5393830" lon="38.8096280"><time>2020-11-01T13:19:45.600</time></trkpt><trkpt lat="55.5393200" lon="38.8094730"><time>2020-11-01T13:19:51.607</time></trkpt><trkpt lat="55.5392880" lon="38.8093870"><time>2020-11-01T13:19:54.607</time></trkpt><trkpt lat="55.5392530" lon="38.8093050"><time>2020-11-01T13:19:56.607</time></trkpt><trkpt lat="55.5392220" lon="38.8092370"><time>2020-11-01T13:19:59.603</time></trkpt><trkpt lat="55.5391950" lon="38.8091700"><time>2020-11-01T13:20:03.607</time></trkpt><trkpt lat="55.5391120" lon="38.8092600"><time>2020-11-01T13:20:20.607</time></trkpt><trkpt lat="55.5390750" lon="38.8093170"><time>2020-11-01T13:20:22.607</time></trkpt><trkpt lat="55.5390450" lon="38.8093800"><time>2020-11-01T13:20:24.603</time></trkpt><trkpt lat="55.5389850" lon="38.8094470"><time>2020-11-01T13:20:26.600</time></trkpt><trkpt lat="55.5389270" lon="38.8095220"><time>2020-11-01T13:20:28.603</time></trkpt><trkpt lat="55.5388800" lon="38.8095800"><time>2020-11-01T13:20:30.603</time></trkpt><trkpt lat="55.5388420" lon="38.8096730"><time>2020-11-01T13:20:32.597</time></trkpt><trkpt lat="55.5388070" lon="38.8097630"><time>2020-11-01T13:20:34.597</time></trkpt><trkpt lat="55.5387620" lon="38.8098580"><time>2020-11-01T13:20:36.607</time></trkpt><trkpt lat="55.5387220" lon="38.8099250"><time>2020-11-01T13:20:39.707</time></trkpt><trkpt lat="55.5386970" lon="38.8099920"><time>2020-11-01T13:20:41.597</time></trkpt><trkpt lat="55.5386620" lon="38.8100950"><time>2020-11-01T13:20:43.600</time></trkpt><trkpt lat="55.5386350" lon="38.8101670"><time>2020-11-01T13:20:46.600</time></trkpt><trkpt lat="55.5386180" lon="38.8102470"><time>2020-11-01T13:20:50.597</time></trkpt><trkpt lat="55.5386170" lon="38.8103330"><time>2020-11-01T13:20:52.603</time></trkpt><trkpt lat="55.5385770" lon="38.8104100"><time>2020-11-01T13:20:55.597</time></trkpt><trkpt lat="55.5385480" lon="38.8104980"><time>2020-11-01T13:20:57.603</time></trkpt><trkpt lat="55.5385120" lon="38.8106030"><time>2020-11-01T13:20:59.600</time></trkpt><trkpt lat="55.5384650" lon="38.8106750"><time>2020-11-01T13:21:02.600</time></trkpt><trkpt lat="55.5384300" lon="38.8107370"><time>2020-11-01T13:21:04.593</time></trkpt><trkpt lat="55.5383780" lon="38.8108120"><time>2020-11-01T13:21:07.600</time></trkpt><trkpt lat="55.5383350" lon="38.8108650"><time>2020-11-01T13:21:09.603</time></trkpt><trkpt lat="55.5383070" lon="38.8109320"><time>2020-11-01T13:21:11.603</time></trkpt><trkpt lat="55.5382730" lon="38.8109920"><time>2020-11-01T13:21:13.600</time></trkpt><trkpt lat="55.5382250" lon="38.8110300"><time>2020-11-01T13:21:17.600</time></trkpt><trkpt lat="55.5381700" lon="38.8110900"><time>2020-11-01T13:21:19.603</time></trkpt><trkpt lat="55.5381350" lon="38.8111600"><time>2020-11-01T13:21:22.603</time></trkpt><trkpt lat="55.5380830" lon="38.8112620"><time>2020-11-01T13:21:25.597</time></trkpt><trkpt lat="55.5380350" lon="38.8113300"><time>2020-11-01T13:21:28.597</time></trkpt><trkpt lat="55.5379930" lon="38.8114220"><time>2020-11-01T13:21:31.603</time></trkpt><trkpt lat="55.5379670" lon="38.8115030"><time>2020-11-01T13:21:35.600</time></trkpt><trkpt lat="55.5379280" lon="38.8115930"><time>2020-11-01T13:21:37.597</time></trkpt><trkpt lat="55.5378820" lon="38.8117020"><time>2020-11-01T13:21:40.603</time></trkpt><trkpt lat="55.5378550" lon="38.8117680"><time>2020-11-01T13:21:42.600</time></trkpt><trkpt lat="55.5378350" lon="38.8118900"><time>2020-11-01T13:21:47.607</time></trkpt><trkpt lat="55.5378100" lon="38.8119720"><time>2020-11-01T13:21:49.600</time></trkpt><trkpt lat="55.5377850" lon="38.8120750"><time>2020-11-01T13:21:51.600</time></trkpt><trkpt lat="55.5377630" lon="38.8121600"><time>2020-11-01T13:21:53.597</time></trkpt><trkpt lat="55.5377420" lon="38.8122430"><time>2020-11-01T13:21:56.597</time></trkpt><trkpt lat="55.5377120" lon="38.8123350"><time>2020-11-01T13:21:59.603</time></trkpt><trkpt lat="55.5376850" lon="38.8124070"><time>2020-11-01T13:22:01.597</time></trkpt><trkpt lat="55.5377080" lon="38.8124820"><time>2020-11-01T13:22:05.603</time></trkpt><trkpt lat="55.5376900" lon="38.8125820"><time>2020-11-01T13:22:09.603</time></trkpt><trkpt lat="55.5376520" lon="38.8126550"><time>2020-11-01T13:22:11.593</time></trkpt><trkpt lat="55.5376120" lon="38.8127150"><time>2020-11-01T13:22:15.600</time></trkpt><trkpt lat="55.5375700" lon="38.8127880"><time>2020-11-01T13:22:18.597</time></trkpt><trkpt lat="55.5374920" lon="38.8128700"><time>2020-11-01T13:22:27.607</time></trkpt><trkpt lat="55.5374320" lon="38.8129070"><time>2020-11-01T13:22:31.603</time></trkpt><trkpt lat="55.5373670" lon="38.8129380"><time>2020-11-01T13:22:34.597</time></trkpt><trkpt lat="55.5373220" lon="38.8129620"><time>2020-11-01T13:22:36.603</time></trkpt><trkpt lat="55.5372720" lon="38.8129330"><time>2020-11-01T13:22:38.600</time></trkpt><trkpt lat="55.5372230" lon="38.8129020"><time>2020-11-01T13:22:41.600</time></trkpt><trkpt lat="55.5371670" lon="38.8129400"><time>2020-11-01T13:22:43.597</time></trkpt><trkpt lat="55.5371200" lon="38.8129500"><time>2020-11-01T13:22:45.603</time></trkpt><trkpt lat="55.5370520" lon="38.8129080"><time>2020-11-01T13:22:48.603</time></trkpt><trkpt lat="55.5370050" lon="38.8128930"><time>2020-11-01T13:22:50.600</time></trkpt><trkpt lat="55.5369350" lon="38.8128880"><time>2020-11-01T13:22:53.600</time></trkpt><trkpt lat="55.5368870" lon="38.8128320"><time>2020-11-01T13:22:56.603</time></trkpt><trkpt lat="55.5368150" lon="38.8128050"><time>2020-11-01T13:22:58.600</time></trkpt><trkpt lat="55.5367420" lon="38.8127400"><time>2020-11-01T13:23:00.607</time></trkpt><trkpt lat="55.5366970" lon="38.8127080"><time>2020-11-01T13:23:02.600</time></trkpt><trkpt lat="55.5366450" lon="38.8126780"><time>2020-11-01T13:23:05.600</time></trkpt><trkpt lat="55.5365670" lon="38.8125680"><time>2020-11-01T13:23:12.600</time></trkpt><trkpt lat="55.5365300" lon="38.8124050"><time>2020-11-01T13:23:23.600</time></trkpt><trkpt lat="55.5364000" lon="38.8124120"><time>2020-11-01T13:23:40.597</time></trkpt><trkpt lat="55.5362670" lon="38.8124520"><time>2020-11-01T13:23:50.603</time></trkpt><trkpt lat="55.5361600" lon="38.8125450"><time>2020-11-01T13:24:02.600</time></trkpt><trkpt lat="55.5360530" lon="38.8126080"><time>2020-11-01T13:24:12.597</time></trkpt><trkpt lat="55.5360080" lon="38.8126770"><time>2020-11-01T13:24:15.600</time></trkpt><trkpt lat="55.5359320" lon="38.8128230"><time>2020-11-01T13:24:25.600</time></trkpt><trkpt lat="55.5358430" lon="38.8128900"><time>2020-11-01T13:24:36.600</time></trkpt><trkpt lat="55.5357350" lon="38.8129000"><time>2020-11-01T13:24:55.597</time></trkpt><trkpt lat="55.5356180" lon="38.8128330"><time>2020-11-01T13:25:11.600</time></trkpt><trkpt lat="55.5355250" lon="38.8126930"><time>2020-11-01T13:25:26.597</time></trkpt><trkpt lat="55.5354130" lon="38.8126370"><time>2020-11-01T13:25:47.593</time></trkpt><trkpt lat="55.5353300" lon="38.8126420"><time>2020-11-01T13:25:50.597</time></trkpt><trkpt lat="55.5352830" lon="38.8126880"><time>2020-11-01T13:25:52.600</time></trkpt><trkpt lat="55.5352380" lon="38.8127030"><time>2020-11-01T13:25:53.597</time></trkpt><trkpt lat="55.5351930" lon="38.8127000"><time>2020-11-01T13:25:54.600</time></trkpt><trkpt lat="55.5351350" lon="38.8126800"><time>2020-11-01T13:25:56.600</time></trkpt><trkpt lat="55.5350900" lon="38.8126730"><time>2020-11-01T13:25:57.603</time></trkpt><trkpt lat="55.5350450" lon="38.8126620"><time>2020-11-01T13:25:59.600</time></trkpt><trkpt lat="55.5349850" lon="38.8126570"><time>2020-11-01T13:26:02.600</time></trkpt><trkpt lat="55.5349470" lon="38.8125850"><time>2020-11-01T13:26:06.597</time></trkpt><trkpt lat="55.5348150" lon="38.8125150"><time>2020-11-01T13:26:21.603</time></trkpt><trkpt lat="55.5346950" lon="38.8125530"><time>2020-11-01T13:26:44.597</time></trkpt><trkpt lat="55.5346280" lon="38.8123830"><time>2020-11-01T13:27:05.597</time></trkpt><trkpt lat="55.5346100" lon="38.8121770"><time>2020-11-01T13:27:15.603</time></trkpt><trkpt lat="55.5345930" lon="38.8119930"><time>2020-11-01T13:27:33.597</time></trkpt><trkpt lat="55.5344800" lon="38.8118830"><time>2020-11-01T13:27:44.600</time></trkpt><trkpt lat="55.5344120" lon="38.8120100"><time>2020-11-01T13:28:12.600</time></trkpt><trkpt lat="55.5343550" lon="38.8121750"><time>2020-11-01T13:28:29.597</time></trkpt><trkpt lat="55.5343370" lon="38.8123850"><time>2020-11-01T13:28:46.597</time></trkpt><trkpt lat="55.5342680" lon="38.8125600"><time>2020-11-01T13:29:14.603</time></trkpt><trkpt lat="55.5343470" lon="38.8126330"><time>2020-11-01T13:29:48.600</time></trkpt><trkpt lat="55.5343200" lon="38.8127950"><time>2020-11-01T13:30:00.597</time></trkpt><trkpt lat="55.5342780" lon="38.8129670"><time>2020-11-01T13:30:20.600</time></trkpt><trkpt lat="55.5343330" lon="38.8129670"><time>2020-11-01T13:30:36.600</time></trkpt><trkpt lat="55.5344720" lon="38.8129600"><time>2020-11-01T13:30:52.577</time></trkpt><trkpt lat="55.5345750" lon="38.8130750"><time>2020-11-01T13:31:14.603</time></trkpt><trkpt lat="55.5346770" lon="38.8131300"><time>2020-11-01T13:31:30.600</time></trkpt><trkpt lat="55.5347280" lon="38.8130200"><time>2020-11-01T13:31:47.600</time></trkpt><trkpt lat="55.5347480" lon="38.8127970"><time>2020-11-01T13:31:57.607</time></trkpt><trkpt lat="55.5347470" lon="38.8127000"><time>2020-11-01T13:32:00.600</time></trkpt><trkpt lat="55.5347430" lon="38.8126050"><time>2020-11-01T13:32:02.607</time></trkpt><trkpt lat="55.5347480" lon="38.8125230"><time>2020-11-01T13:32:04.597</time></trkpt><trkpt lat="55.5347670" lon="38.8124500"><time>2020-11-01T13:32:08.600</time></trkpt><trkpt lat="55.5347950" lon="38.8123800"><time>2020-11-01T13:32:12.603</time></trkpt><trkpt lat="55.5347870" lon="38.8122880"><time>2020-11-01T13:32:15.603</time></trkpt><trkpt lat="55.5347230" lon="38.8121070"><time>2020-11-01T13:32:35.600</time></trkpt><trkpt lat="55.5347680" lon="38.8121900"><time>2020-11-01T13:32:55.603</time></trkpt><trkpt lat="55.5348000" lon="38.8122530"><time>2020-11-01T13:32:59.603</time></trkpt><trkpt lat="55.5347980" lon="38.8123480"><time>2020-11-01T13:33:03.600</time></trkpt><trkpt lat="55.5348130" lon="38.8124350"><time>2020-11-01T13:33:07.603</time></trkpt><trkpt lat="55.5348600" lon="38.8125730"><time>2020-11-01T13:33:18.600</time></trkpt><trkpt lat="55.5347980" lon="38.8127780"><time>2020-11-01T13:33:35.603</time></trkpt><trkpt lat="55.5347000" lon="38.8129300"><time>2020-11-01T13:33:59.603</time></trkpt><trkpt lat="55.5346130" lon="38.8130630"><time>2020-11-01T13:34:09.603</time></trkpt><trkpt lat="55.5345630" lon="38.8131050"><time>2020-11-01T13:34:12.600</time></trkpt><trkpt lat="55.5345280" lon="38.8132520"><time>2020-11-01T13:34:35.590</time></trkpt><trkpt lat="55.5344230" lon="38.8132480"><time>2020-11-01T13:34:51.603</time></trkpt><trkpt lat="55.5343220" lon="38.8132020"><time>2020-11-01T13:35:10.600</time></trkpt><trkpt lat="55.5342200" lon="38.8130600"><time>2020-11-01T13:35:22.603</time></trkpt><trkpt lat="55.5341370" lon="38.8128720"><time>2020-11-01T13:35:35.600</time></trkpt><trkpt lat="55.5341070" lon="38.8127200"><time>2020-11-01T13:35:57.607</time></trkpt><trkpt lat="55.5341800" lon="38.8125620"><time>2020-11-01T13:36:17.597</time></trkpt><trkpt lat="55.5342400" lon="38.8124420"><time>2020-11-01T13:36:38.557</time></trkpt><trkpt lat="55.5342350" lon="38.8124450"><time>2020-11-01T13:37:01.407</time></trkpt><trkpt lat="55.5344780" lon="38.8124750"><time>2020-11-01T13:37:09.563</time></trkpt><trkpt lat="55.5343620" lon="38.8125830"><time>2020-11-01T13:37:12.597</time></trkpt><trkpt lat="55.5343000" lon="38.8125780"><time>2020-11-01T13:37:14.600</time></trkpt><trkpt lat="55.5341970" lon="38.8126150"><time>2020-11-01T13:37:15.600</time></trkpt><trkpt lat="55.5342250" lon="38.8124870"><time>2020-11-01T13:37:27.607</time></trkpt><trkpt lat="55.5342650" lon="38.8124250"><time>2020-11-01T13:37:29.600</time></trkpt><trkpt lat="55.5343800" lon="38.8124950"><time>2020-11-01T13:37:37.607</time></trkpt><trkpt lat="55.5344450" lon="38.8125650"><time>2020-11-01T13:37:39.600</time></trkpt><trkpt lat="55.5344920" lon="38.8126170"><time>2020-11-01T13:37:42.603</time></trkpt><trkpt lat="55.5345670" lon="38.8127180"><time>2020-11-01T13:37:50.600</time></trkpt><trkpt lat="55.5346720" lon="38.8127980"><time>2020-11-01T13:38:04.603</time></trkpt><trkpt lat="55.5347220" lon="38.8129230"><time>2020-11-01T13:38:10.600</time></trkpt><trkpt lat="55.5347470" lon="38.8129900"><time>2020-11-01T13:38:13.600</time></trkpt><trkpt lat="55.5347930" lon="38.8131330"><time>2020-11-01T13:38:22.597</time></trkpt><trkpt lat="55.5347900" lon="38.8132420"><time>2020-11-01T13:38:25.600</time></trkpt><trkpt lat="55.5347580" lon="38.8133170"><time>2020-11-01T13:38:27.600</time></trkpt><trkpt lat="55.5347550" lon="38.8134120"><time>2020-11-01T13:38:29.603</time></trkpt><trkpt lat="55.5347470" lon="38.8135070"><time>2020-11-01T13:38:31.603</time></trkpt><trkpt lat="55.5347520" lon="38.8136030"><time>2020-11-01T13:38:34.600</time></trkpt><trkpt lat="55.5347280" lon="38.8138020"><time>2020-11-01T13:38:42.603</time></trkpt><trkpt lat="55.5347120" lon="38.8140020"><time>2020-11-01T13:38:50.603</time></trkpt><trkpt lat="55.5347130" lon="38.8141150"><time>2020-11-01T13:38:52.603</time></trkpt><trkpt lat="55.5347270" lon="38.8142150"><time>2020-11-01T13:38:54.600</time></trkpt><trkpt lat="55.5347550" lon="38.8143250"><time>2020-11-01T13:38:56.607</time></trkpt><trkpt lat="55.5347820" lon="38.8143950"><time>2020-11-01T13:38:58.603</time></trkpt><trkpt lat="55.5348120" lon="38.8144750"><time>2020-11-01T13:39:00.607</time></trkpt><trkpt lat="55.5348430" lon="38.8145450"><time>2020-11-01T13:39:03.607</time></trkpt><trkpt lat="55.5348470" lon="38.8146420"><time>2020-11-01T13:39:08.597</time></trkpt><trkpt lat="55.5348500" lon="38.8147380"><time>2020-11-01T13:39:11.600</time></trkpt><trkpt lat="55.5348650" lon="38.8148220"><time>2020-11-01T13:39:13.603</time></trkpt><trkpt lat="55.5348770" lon="38.8149130"><time>2020-11-01T13:39:15.603</time></trkpt><trkpt lat="55.5348730" lon="38.8150170"><time>2020-11-01T13:39:17.597</time></trkpt><trkpt lat="55.5348800" lon="38.8150980"><time>2020-11-01T13:39:19.610</time></trkpt><trkpt lat="55.5349130" lon="38.8151520"><time>2020-11-01T13:39:22.590</time></trkpt><trkpt lat="55.5349150" lon="38.8153300"><time>2020-11-01T13:39:25.563</time></trkpt><trkpt lat="55.5348880" lon="38.8154400"><time>2020-11-01T13:39:26.603</time></trkpt><trkpt lat="55.5348570" lon="38.8155280"><time>2020-11-01T13:39:28.607</time></trkpt><trkpt lat="55.5348370" lon="38.8156020"><time>2020-11-01T13:39:30.597</time></trkpt><trkpt lat="55.5347830" lon="38.8156600"><time>2020-11-01T13:39:37.600</time></trkpt><trkpt lat="55.5347980" lon="38.8157770"><time>2020-11-01T13:39:40.603</time></trkpt><trkpt lat="55.5348250" lon="38.8158480"><time>2020-11-01T13:39:42.603</time></trkpt><trkpt lat="55.5347920" lon="38.8160480"><time>2020-11-01T13:39:48.603</time></trkpt><trkpt lat="55.5348180" lon="38.8161430"><time>2020-11-01T13:39:58.607</time></trkpt><trkpt lat="55.5348650" lon="38.8161530"><time>2020-11-01T13:40:06.603</time></trkpt><trkpt lat="55.5349880" lon="38.8161350"><time>2020-11-01T13:40:21.600</time></trkpt><trkpt lat="55.5350980" lon="38.8161750"><time>2020-11-01T13:40:28.600</time></trkpt><trkpt lat="55.5351450" lon="38.8161820"><time>2020-11-01T13:40:29.597</time></trkpt><trkpt lat="55.5352150" lon="38.8162070"><time>2020-11-01T13:40:31.603</time></trkpt><trkpt lat="55.5352700" lon="38.8162050"><time>2020-11-01T13:40:33.603</time></trkpt><trkpt lat="55.5353920" lon="38.8162130"><time>2020-11-01T13:40:41.600</time></trkpt><trkpt lat="55.5354480" lon="38.8162200"><time>2020-11-01T13:40:43.603</time></trkpt><trkpt lat="55.5355020" lon="38.8162170"><time>2020-11-01T13:40:45.597</time></trkpt><trkpt lat="55.5355730" lon="38.8162280"><time>2020-11-01T13:40:47.603</time></trkpt><trkpt lat="55.5356480" lon="38.8162730"><time>2020-11-01T13:40:49.607</time></trkpt><trkpt lat="55.5356950" lon="38.8162950"><time>2020-11-01T13:40:50.603</time></trkpt><trkpt lat="55.5357380" lon="38.8163370"><time>2020-11-01T13:40:51.607</time></trkpt><trkpt lat="55.5357950" lon="38.8163400"><time>2020-11-01T13:40:52.603</time></trkpt><trkpt lat="55.5358700" lon="38.8163650"><time>2020-11-01T13:40:53.607</time></trkpt><trkpt lat="55.5359250" lon="38.8163430"><time>2020-11-01T13:40:54.603</time></trkpt><trkpt lat="55.5360000" lon="38.8163130"><time>2020-11-01T13:40:56.607</time></trkpt><trkpt lat="55.5360530" lon="38.8163020"><time>2020-11-01T13:40:58.603</time></trkpt><trkpt lat="55.5361100" lon="38.8163000"><time>2020-11-01T13:41:01.597</time></trkpt><trkpt lat="55.5361820" lon="38.8162720"><time>2020-11-01T13:41:04.607</time></trkpt><trkpt lat="55.5362420" lon="38.8163070"><time>2020-11-01T13:41:06.603</time></trkpt><trkpt lat="55.5363130" lon="38.8163570"><time>2020-11-01T13:41:13.607</time></trkpt><trkpt lat="55.5363830" lon="38.8163970"><time>2020-11-01T13:41:15.603</time></trkpt><trkpt lat="55.5364320" lon="38.8164380"><time>2020-11-01T13:41:17.600</time></trkpt><trkpt lat="55.5364730" lon="38.8164820"><time>2020-11-01T13:41:19.600</time></trkpt><trkpt lat="55.5365030" lon="38.8165620"><time>2020-11-01T13:41:21.607</time></trkpt><trkpt lat="55.5365500" lon="38.8166320"><time>2020-11-01T13:41:24.607</time></trkpt><trkpt lat="55.5365680" lon="38.8167370"><time>2020-11-01T13:41:27.603</time></trkpt><trkpt lat="55.5365630" lon="38.8168320"><time>2020-11-01T13:41:31.607</time></trkpt><trkpt lat="55.5365620" lon="38.8169370"><time>2020-11-01T13:41:35.600</time></trkpt><trkpt lat="55.5365600" lon="38.8170420"><time>2020-11-01T13:41:38.607</time></trkpt><trkpt lat="55.5365780" lon="38.8171150"><time>2020-11-01T13:41:41.600</time></trkpt><trkpt lat="55.5365900" lon="38.8172120"><time>2020-11-01T13:41:45.603</time></trkpt><trkpt lat="55.5366020" lon="38.8173270"><time>2020-11-01T13:41:48.603</time></trkpt><trkpt lat="55.5366100" lon="38.8174130"><time>2020-11-01T13:41:50.603</time></trkpt><trkpt lat="55.5366300" lon="38.8175050"><time>2020-11-01T13:41:52.607</time></trkpt><trkpt lat="55.5366580" lon="38.8175880"><time>2020-11-01T13:41:54.603</time></trkpt><trkpt lat="55.5366850" lon="38.8176930"><time>2020-11-01T13:41:56.587</time></trkpt><trkpt lat="55.5367250" lon="38.8178130"><time>2020-11-01T13:41:58.603</time></trkpt><trkpt lat="55.5367370" lon="38.8179320"><time>2020-11-01T13:42:01.597</time></trkpt><trkpt lat="55.5367620" lon="38.8180470"><time>2020-11-01T13:42:04.603</time></trkpt><trkpt lat="55.5367850" lon="38.8181200"><time>2020-11-01T13:42:06.603</time></trkpt><trkpt lat="55.5367980" lon="38.8181970"><time>2020-11-01T13:42:08.603</time></trkpt><trkpt lat="55.5368030" lon="38.8183020"><time>2020-11-01T13:42:11.603</time></trkpt><trkpt lat="55.5368120" lon="38.8183920"><time>2020-11-01T13:42:14.607</time></trkpt><trkpt lat="55.5368400" lon="38.8184570"><time>2020-11-01T13:42:16.603</time></trkpt><trkpt lat="55.5368480" lon="38.8185670"><time>2020-11-01T13:42:18.603</time></trkpt><trkpt lat="55.5368670" lon="38.8186470"><time>2020-11-01T13:42:20.603</time></trkpt><trkpt lat="55.5368750" lon="38.8187380"><time>2020-11-01T13:42:22.603</time></trkpt><trkpt lat="55.5369000" lon="38.8188370"><time>2020-11-01T13:42:25.603</time></trkpt><trkpt lat="55.5368980" lon="38.8189550"><time>2020-11-01T13:42:29.597</time></trkpt><trkpt lat="55.5369180" lon="38.8190600"><time>2020-11-01T13:42:32.603</time></trkpt><trkpt lat="55.5369620" lon="38.8191720"><time>2020-11-01T13:42:35.603</time></trkpt><trkpt lat="55.5369720" lon="38.8192530"><time>2020-11-01T13:42:37.597</time></trkpt><trkpt lat="55.5369680" lon="38.8193450"><time>2020-11-01T13:42:39.607</time></trkpt><trkpt lat="55.5369550" lon="38.8194550"><time>2020-11-01T13:42:41.603</time></trkpt><trkpt lat="55.5369430" lon="38.8195520"><time>2020-11-01T13:42:42.603</time></trkpt><trkpt lat="55.5369450" lon="38.8196870"><time>2020-11-01T13:42:44.597</time></trkpt><trkpt lat="55.5369320" lon="38.8198400"><time>2020-11-01T13:42:46.600</time></trkpt><trkpt lat="55.5369330" lon="38.8199430"><time>2020-11-01T13:42:48.600</time></trkpt><trkpt lat="55.5369320" lon="38.8200250"><time>2020-11-01T13:42:50.600</time></trkpt><trkpt lat="55.5369370" lon="38.8201270"><time>2020-11-01T13:42:53.603</time></trkpt><trkpt lat="55.5369200" lon="38.8202120"><time>2020-11-01T13:42:56.597</time></trkpt><trkpt lat="55.5369220" lon="38.8203400"><time>2020-11-01T13:43:01.607</time></trkpt><trkpt lat="55.5369100" lon="38.8204470"><time>2020-11-01T13:43:04.603</time></trkpt><trkpt lat="55.5369280" lon="38.8205280"><time>2020-11-01T13:43:08.563</time></trkpt><trkpt lat="55.5369570" lon="38.8206500"><time>2020-11-01T13:43:12.600</time></trkpt><trkpt lat="55.5369900" lon="38.8207100"><time>2020-11-01T13:43:14.597</time></trkpt><trkpt lat="55.5370220" lon="38.8208670"><time>2020-11-01T13:43:20.597</time></trkpt><trkpt lat="55.5370370" lon="38.8209550"><time>2020-11-01T13:43:27.603</time></trkpt><trkpt lat="55.5370730" lon="38.8210130"><time>2020-11-01T13:43:30.600</time></trkpt><trkpt lat="55.5371230" lon="38.8210800"><time>2020-11-01T13:43:33.600</time></trkpt><trkpt lat="55.5371250" lon="38.8211750"><time>2020-11-01T13:43:36.603</time></trkpt><trkpt lat="55.5371280" lon="38.8212770"><time>2020-11-01T13:43:38.603</time></trkpt><trkpt lat="55.5371280" lon="38.8214000"><time>2020-11-01T13:43:40.600</time></trkpt><trkpt lat="55.5371620" lon="38.8214550"><time>2020-11-01T13:43:42.597</time></trkpt><trkpt lat="55.5372050" lon="38.8214950"><time>2020-11-01T13:43:44.603</time></trkpt><trkpt lat="55.5372580" lon="38.8214870"><time>2020-11-01T13:43:47.600</time></trkpt><trkpt lat="55.5372970" lon="38.8215380"><time>2020-11-01T13:43:54.600</time></trkpt><trkpt lat="55.5373150" lon="38.8216270"><time>2020-11-01T13:43:58.603</time></trkpt><trkpt lat="55.5373420" lon="38.8217900"><time>2020-11-01T13:44:07.603</time></trkpt><trkpt lat="55.5374500" lon="38.8219470"><time>2020-11-01T13:44:22.603</time></trkpt><trkpt lat="55.5375900" lon="38.8220280"><time>2020-11-01T13:44:31.603</time></trkpt><trkpt lat="55.5376380" lon="38.8220730"><time>2020-11-01T13:44:33.603</time></trkpt><trkpt lat="55.5377430" lon="38.8221400"><time>2020-11-01T13:44:45.603</time></trkpt><trkpt lat="55.5378070" lon="38.8223000"><time>2020-11-01T13:45:01.597</time></trkpt><trkpt lat="55.5378620" lon="38.8225150"><time>2020-11-01T13:45:13.603</time></trkpt><trkpt lat="55.5379170" lon="38.8227050"><time>2020-11-01T13:45:24.600</time></trkpt><trkpt lat="55.5379520" lon="38.8227930"><time>2020-11-01T13:45:32.607</time></trkpt><trkpt lat="55.5379820" lon="38.8229970"><time>2020-11-01T13:45:54.607</time></trkpt><trkpt lat="55.5379720" lon="38.8232070"><time>2020-11-01T13:46:04.600</time></trkpt><trkpt lat="55.5379430" lon="38.8233950"><time>2020-11-01T13:46:25.603</time></trkpt><trkpt lat="55.5379580" lon="38.8235720"><time>2020-11-01T13:46:36.603</time></trkpt><trkpt lat="55.5379970" lon="38.8236930"><time>2020-11-01T13:46:41.567</time></trkpt><trkpt lat="55.5380270" lon="38.8237780"><time>2020-11-01T13:46:43.560</time></trkpt><trkpt lat="55.5380230" lon="38.8238350"><time>2020-11-01T13:46:50.910</time></trkpt><trkpt lat="55.5382030" lon="38.8239820"><time>2020-11-01T13:46:58.600</time></trkpt><trkpt lat="55.5381470" lon="38.8239230"><time>2020-11-01T13:46:59.603</time></trkpt><trkpt lat="55.5381050" lon="38.8239580"><time>2020-11-01T13:47:01.607</time></trkpt><trkpt lat="55.5380150" lon="38.8237900"><time>2020-11-01T13:47:13.607</time></trkpt><trkpt lat="55.5381370" lon="38.8236920"><time>2020-11-01T13:47:27.847</time></trkpt><trkpt lat="55.5381150" lon="38.8235050"><time>2020-11-01T13:47:42.603</time></trkpt><trkpt lat="55.5382020" lon="38.8233950"><time>2020-11-01T13:47:57.603</time></trkpt><trkpt lat="55.5382470" lon="38.8231970"><time>2020-11-01T13:48:14.600</time></trkpt><trkpt lat="55.5381350" lon="38.8232300"><time>2020-11-01T13:48:40.603</time></trkpt><trkpt lat="55.5382300" lon="38.8231470"><time>2020-11-01T13:48:57.603</time></trkpt><trkpt lat="55.5382750" lon="38.8231330"><time>2020-11-01T13:49:00.600</time></trkpt><trkpt lat="55.5383630" lon="38.8230700"><time>2020-11-01T13:49:14.600</time></trkpt><trkpt lat="55.5384500" lon="38.8229580"><time>2020-11-01T13:49:30.603</time></trkpt><trkpt lat="55.5385300" lon="38.8228300"><time>2020-11-01T13:49:46.600</time></trkpt><trkpt lat="55.5386370" lon="38.8226900"><time>2020-11-01T13:49:59.603</time></trkpt><trkpt lat="55.5387330" lon="38.8225480"><time>2020-11-01T13:50:17.600</time></trkpt><trkpt lat="55.5388650" lon="38.8226000"><time>2020-11-01T13:50:28.600</time></trkpt><trkpt lat="55.5388930" lon="38.8226950"><time>2020-11-01T13:50:31.607</time></trkpt><trkpt lat="55.5389250" lon="38.8227520"><time>2020-11-01T13:50:33.607</time></trkpt><trkpt lat="55.5389650" lon="38.8228170"><time>2020-11-01T13:50:35.600</time></trkpt><trkpt lat="55.5390030" lon="38.8228850"><time>2020-11-01T13:50:37.607</time></trkpt><trkpt lat="55.5390520" lon="38.8229530"><time>2020-11-01T13:50:39.607</time></trkpt><trkpt lat="55.5390870" lon="38.8230070"><time>2020-11-01T13:50:41.603</time></trkpt><trkpt lat="55.5391250" lon="38.8231120"><time>2020-11-01T13:50:44.603</time></trkpt><trkpt lat="55.5391580" lon="38.8231720"><time>2020-11-01T13:50:46.600</time></trkpt><trkpt lat="55.5392080" lon="38.8232280"><time>2020-11-01T13:50:48.597</time></trkpt><trkpt lat="55.5392630" lon="38.8232800"><time>2020-11-01T13:50:51.603</time></trkpt><trkpt lat="55.5393080" lon="38.8233180"><time>2020-11-01T13:50:53.600</time></trkpt><trkpt lat="55.5393600" lon="38.8233520"><time>2020-11-01T13:50:55.607</time></trkpt><trkpt lat="55.5394120" lon="38.8233850"><time>2020-11-01T13:50:57.607</time></trkpt><trkpt lat="55.5394630" lon="38.8234370"><time>2020-11-01T13:51:00.603</time></trkpt><trkpt lat="55.5395080" lon="38.8234820"><time>2020-11-01T13:51:02.607</time></trkpt><trkpt lat="55.5395550" lon="38.8235330"><time>2020-11-01T13:51:05.603</time></trkpt><trkpt lat="55.5396000" lon="38.8236030"><time>2020-11-01T13:51:08.597</time></trkpt><trkpt lat="55.5396420" lon="38.8236520"><time>2020-11-01T13:51:11.603</time></trkpt><trkpt lat="55.5397070" lon="38.8236650"><time>2020-11-01T13:51:14.597</time></trkpt><trkpt lat="55.5397530" lon="38.8237170"><time>2020-11-01T13:51:17.600</time></trkpt><trkpt lat="55.5397980" lon="38.8237650"><time>2020-11-01T13:51:19.607</time></trkpt><trkpt lat="55.5398320" lon="38.8238300"><time>2020-11-01T13:51:22.603</time></trkpt><trkpt lat="55.5398870" lon="38.8238400"><time>2020-11-01T13:51:28.600</time></trkpt><trkpt lat="55.5399480" lon="38.8238400"><time>2020-11-01T13:51:30.603</time></trkpt><trkpt lat="55.5400020" lon="38.8238550"><time>2020-11-01T13:51:32.603</time></trkpt><trkpt lat="55.5400530" lon="38.8238580"><time>2020-11-01T13:51:35.567</time></trkpt><trkpt lat="55.5401520" lon="38.8238300"><time>2020-11-01T13:51:37.607</time></trkpt><trkpt lat="55.5402130" lon="38.8238450"><time>2020-11-01T13:51:38.613</time></trkpt><trkpt lat="55.5402820" lon="38.8238750"><time>2020-11-01T13:51:39.607</time></trkpt><trkpt lat="55.5403470" lon="38.8238920"><time>2020-11-01T13:51:40.603</time></trkpt><trkpt lat="55.5404220" lon="38.8238800"><time>2020-11-01T13:51:42.607</time></trkpt><trkpt lat="55.5404770" lon="38.8239120"><time>2020-11-01T13:51:44.600</time></trkpt><trkpt lat="55.5405170" lon="38.8239730"><time>2020-11-01T13:51:47.603</time></trkpt><trkpt lat="55.5405630" lon="38.8240370"><time>2020-11-01T13:51:50.607</time></trkpt><trkpt lat="55.5406220" lon="38.8240580"><time>2020-11-01T13:51:53.597</time></trkpt><trkpt lat="55.5406580" lon="38.8241220"><time>2020-11-01T13:51:56.607</time></trkpt><trkpt lat="55.5407080" lon="38.8241330"><time>2020-11-01T13:51:58.607</time></trkpt><trkpt lat="55.5407620" lon="38.8241880"><time>2020-11-01T13:52:02.607</time></trkpt><trkpt lat="55.5408120" lon="38.8242030"><time>2020-11-01T13:52:08.603</time></trkpt><trkpt lat="55.5408800" lon="38.8242350"><time>2020-11-01T13:52:10.597</time></trkpt><trkpt lat="55.5409400" lon="38.8242420"><time>2020-11-01T13:52:13.603</time></trkpt><trkpt lat="55.5410030" lon="38.8243020"><time>2020-11-01T13:52:16.600</time></trkpt><trkpt lat="55.5410470" lon="38.8243470"><time>2020-11-01T13:52:17.607</time></trkpt><trkpt lat="55.5410880" lon="38.8243800"><time>2020-11-01T13:52:22.603</time></trkpt><trkpt lat="55.5411320" lon="38.8244030"><time>2020-11-01T13:52:27.607</time></trkpt><trkpt lat="55.5412120" lon="38.8243570"><time>2020-11-01T13:52:31.603</time></trkpt><trkpt lat="55.5412930" lon="38.8243350"><time>2020-11-01T13:52:33.607</time></trkpt><trkpt lat="55.5414500" lon="38.8244250"><time>2020-11-01T13:52:35.607</time></trkpt><trkpt lat="55.5414980" lon="38.8244100"><time>2020-11-01T13:52:36.610</time></trkpt><trkpt lat="55.5415580" lon="38.8244050"><time>2020-11-01T13:52:38.607</time></trkpt><trkpt lat="55.5416270" lon="38.8244200"><time>2020-11-01T13:52:40.590</time></trkpt><trkpt lat="55.5416730" lon="38.8244550"><time>2020-11-01T13:52:44.600</time></trkpt><trkpt lat="55.5417430" lon="38.8244480"><time>2020-11-01T13:52:52.607</time></trkpt><trkpt lat="55.5418450" lon="38.8244730"><time>2020-11-01T13:52:54.603</time></trkpt><trkpt lat="55.5419100" lon="38.8244670"><time>2020-11-01T13:52:56.603</time></trkpt><trkpt lat="55.5419730" lon="38.8244600"><time>2020-11-01T13:52:59.603</time></trkpt><trkpt lat="55.5420270" lon="38.8244120"><time>2020-11-01T13:53:01.603</time></trkpt><trkpt lat="55.5420820" lon="38.8243830"><time>2020-11-01T13:53:03.610</time></trkpt><trkpt lat="55.5421230" lon="38.8243380"><time>2020-11-01T13:53:06.607</time></trkpt><trkpt lat="55.5421780" lon="38.8243230"><time>2020-11-01T13:53:08.603</time></trkpt><trkpt lat="55.5422230" lon="38.8242720"><time>2020-11-01T13:53:09.600</time></trkpt><trkpt lat="55.5422750" lon="38.8242220"><time>2020-11-01T13:53:11.600</time></trkpt><trkpt lat="55.5423150" lon="38.8241800"><time>2020-11-01T13:53:13.607</time></trkpt><trkpt lat="55.5423930" lon="38.8241520"><time>2020-11-01T13:53:15.600</time></trkpt><trkpt lat="55.5424670" lon="38.8241470"><time>2020-11-01T13:53:17.607</time></trkpt><trkpt lat="55.5425530" lon="38.8241850"><time>2020-11-01T13:53:19.603</time></trkpt><trkpt lat="55.5425950" lon="38.8241500"><time>2020-11-01T13:53:22.600</time></trkpt><trkpt lat="55.5426320" lon="38.8240950"><time>2020-11-01T13:53:27.673</time></trkpt><trkpt lat="55.5426730" lon="38.8240580"><time>2020-11-01T13:53:31.603</time></trkpt><trkpt lat="55.5427350" lon="38.8240670"><time>2020-11-01T13:53:37.607</time></trkpt><trkpt lat="55.5427820" lon="38.8240620"><time>2020-11-01T13:53:39.607</time></trkpt><trkpt lat="55.5428380" lon="38.8240430"><time>2020-11-01T13:53:41.600</time></trkpt><trkpt lat="55.5428900" lon="38.8240400"><time>2020-11-01T13:53:43.607</time></trkpt><trkpt lat="55.5429530" lon="38.8240500"><time>2020-11-01T13:53:45.603</time></trkpt><trkpt lat="55.5430050" lon="38.8240530"><time>2020-11-01T13:53:47.600</time></trkpt><trkpt lat="55.5430670" lon="38.8240450"><time>2020-11-01T13:53:50.597</time></trkpt><trkpt lat="55.5431330" lon="38.8240580"><time>2020-11-01T13:53:52.600</time></trkpt><trkpt lat="55.5431820" lon="38.8240430"><time>2020-11-01T13:53:54.603</time></trkpt><trkpt lat="55.5432470" lon="38.8240400"><time>2020-11-01T13:53:56.607</time></trkpt><trkpt lat="55.5433220" lon="38.8240530"><time>2020-11-01T13:53:58.607</time></trkpt><trkpt lat="55.5433830" lon="38.8240470"><time>2020-11-01T13:54:00.607</time></trkpt><trkpt lat="55.5434370" lon="38.8240700"><time>2020-11-01T13:54:03.603</time></trkpt><trkpt lat="55.5434930" lon="38.8241130"><time>2020-11-01T13:54:06.607</time></trkpt><trkpt lat="55.5435470" lon="38.8241380"><time>2020-11-01T13:54:08.607</time></trkpt><trkpt lat="55.5436050" lon="38.8241700"><time>2020-11-01T13:54:10.607</time></trkpt><trkpt lat="55.5436550" lon="38.8241720"><time>2020-11-01T13:54:12.600</time></trkpt><trkpt lat="55.5437270" lon="38.8242930"><time>2020-11-01T13:54:21.613</time></trkpt><trkpt lat="55.5437630" lon="38.8243430"><time>2020-11-01T13:54:24.607</time></trkpt><trkpt lat="55.5438220" lon="38.8244070"><time>2020-11-01T13:54:43.607</time></trkpt><trkpt lat="55.5438120" lon="38.8245000"><time>2020-11-01T13:54:54.607</time></trkpt><trkpt lat="55.5438050" lon="38.8246880"><time>2020-11-01T13:55:03.607</time></trkpt><trkpt lat="55.5437280" lon="38.8248830"><time>2020-11-01T13:55:19.603</time></trkpt><trkpt lat="55.5437200" lon="38.8249720"><time>2020-11-01T13:55:22.603</time></trkpt><trkpt lat="55.5437130" lon="38.8250520"><time>2020-11-01T13:55:23.600</time></trkpt><trkpt lat="55.5437050" lon="38.8251350"><time>2020-11-01T13:55:26.600</time></trkpt><trkpt lat="55.5436950" lon="38.8252150"><time>2020-11-01T13:55:30.607</time></trkpt><trkpt lat="55.5436200" lon="38.8253300"><time>2020-11-01T13:55:47.607</time></trkpt><trkpt lat="55.5435330" lon="38.8253920"><time>2020-11-01T13:55:56.610</time></trkpt><trkpt lat="55.5434880" lon="38.8254380"><time>2020-11-01T13:55:58.607</time></trkpt><trkpt lat="55.5434770" lon="38.8255370"><time>2020-11-01T13:56:11.600</time></trkpt><trkpt lat="55.5434070" lon="38.8256530"><time>2020-11-01T13:56:24.747</time></trkpt><trkpt lat="55.5434980" lon="38.8255920"><time>2020-11-01T13:56:26.567</time></trkpt><trkpt lat="55.5420680" lon="38.8251320"><time>2020-11-01T13:56:40.560</time></trkpt><trkpt lat="55.5426130" lon="38.8250600"><time>2020-11-01T13:56:41.573</time></trkpt><trkpt lat="55.5426870" lon="38.8250220"><time>2020-11-01T13:56:42.563</time></trkpt><trkpt lat="55.5429770" lon="38.8252230"><time>2020-11-01T13:56:45.367</time></trkpt><trkpt lat="55.5430370" lon="38.8252670"><time>2020-11-01T13:56:45.563</time></trkpt><trkpt lat="55.5431280" lon="38.8253550"><time>2020-11-01T13:56:47.563</time></trkpt><trkpt lat="55.5432130" lon="38.8254250"><time>2020-11-01T13:56:49.567</time></trkpt><trkpt lat="55.5433500" lon="38.8255750"><time>2020-11-01T13:56:52.567</time></trkpt><trkpt lat="55.5433970" lon="38.8256100"><time>2020-11-01T13:56:53.637</time></trkpt><trkpt lat="55.5434550" lon="38.8256200"><time>2020-11-01T13:56:55.627</time></trkpt><trkpt lat="55.5434350" lon="38.8255420"><time>2020-11-01T13:56:58.587</time></trkpt><trkpt lat="55.5434600" lon="38.8253550"><time>2020-11-01T13:57:07.567</time></trkpt><trkpt lat="55.5435280" lon="38.8254380"><time>2020-11-01T13:57:10.570</time></trkpt><trkpt lat="55.5435380" lon="38.8255470"><time>2020-11-01T13:57:12.560</time></trkpt><trkpt lat="55.5435900" lon="38.8255430"><time>2020-11-01T13:57:15.567</time></trkpt><trkpt lat="55.5435900" lon="38.8255430"><time>2020-11-01T13:57:23.950</time></trkpt><trkpt lat="55.5438280" lon="38.8256350"><time>2020-11-01T13:57:34.593</time></trkpt><trkpt lat="55.5437800" lon="38.8255870"><time>2020-11-01T13:57:37.603</time></trkpt><trkpt lat="55.5436350" lon="38.8255900"><time>2020-11-01T13:57:38.603</time></trkpt><trkpt lat="55.5435970" lon="38.8254580"><time>2020-11-01T13:57:40.663</time></trkpt><trkpt lat="55.5436320" lon="38.8253870"><time>2020-11-01T13:57:42.563</time></trkpt><trkpt lat="55.5436630" lon="38.8253280"><time>2020-11-01T13:57:43.560</time></trkpt><trkpt lat="55.5439500" lon="38.8252980"><time>2020-11-01T13:58:05.600</time></trkpt><trkpt lat="55.5438680" lon="38.8252000"><time>2020-11-01T13:58:06.603</time></trkpt><trkpt lat="55.5438270" lon="38.8251580"><time>2020-11-01T13:58:08.603</time></trkpt><trkpt lat="55.5437750" lon="38.8252050"><time>2020-11-01T13:58:10.610</time></trkpt><trkpt lat="55.5438180" lon="38.8252280"><time>2020-11-01T13:58:23.607</time></trkpt><trkpt lat="55.5439170" lon="38.8251470"><time>2020-11-01T13:58:33.607</time></trkpt><trkpt lat="55.5440570" lon="38.8250730"><time>2020-11-01T13:58:41.603</time></trkpt><trkpt lat="55.5441020" lon="38.8250630"><time>2020-11-01T13:58:44.607</time></trkpt><trkpt lat="55.5442120" lon="38.8250830"><time>2020-11-01T13:58:52.607</time></trkpt><trkpt lat="55.5442550" lon="38.8252650"><time>2020-11-01T13:59:06.603</time></trkpt><trkpt lat="55.5442550" lon="38.8253570"><time>2020-11-01T13:59:08.603</time></trkpt><trkpt lat="55.5442370" lon="38.8254400"><time>2020-11-01T13:59:11.603</time></trkpt><trkpt lat="55.5442150" lon="38.8255150"><time>2020-11-01T13:59:14.600</time></trkpt><trkpt lat="55.5441920" lon="38.8255930"><time>2020-11-01T13:59:18.610</time></trkpt><trkpt lat="55.5442100" lon="38.8256670"><time>2020-11-01T13:59:20.607</time></trkpt><trkpt lat="55.5442130" lon="38.8257500"><time>2020-11-01T13:59:23.603</time></trkpt><trkpt lat="55.5442480" lon="38.8258350"><time>2020-11-01T13:59:26.603</time></trkpt><trkpt lat="55.5442550" lon="38.8259200"><time>2020-11-01T13:59:29.603</time></trkpt><trkpt lat="55.5442550" lon="38.8260380"><time>2020-11-01T13:59:33.603</time></trkpt><trkpt lat="55.5442680" lon="38.8261550"><time>2020-11-01T13:59:35.600</time></trkpt><trkpt lat="55.5442630" lon="38.8262520"><time>2020-11-01T13:59:37.567</time></trkpt><trkpt lat="55.5442430" lon="38.8263720"><time>2020-11-01T13:59:39.600</time></trkpt><trkpt lat="55.5442380" lon="38.8264830"><time>2020-11-01T13:59:42.603</time></trkpt><trkpt lat="55.5442500" lon="38.8265650"><time>2020-11-01T13:59:44.600</time></trkpt><trkpt lat="55.5442580" lon="38.8266500"><time>2020-11-01T13:59:47.607</time></trkpt><trkpt lat="55.5442620" lon="38.8267480"><time>2020-11-01T13:59:51.607</time></trkpt><trkpt lat="55.5442750" lon="38.8268380"><time>2020-11-01T13:59:53.603</time></trkpt><trkpt lat="55.5443050" lon="38.8269320"><time>2020-11-01T13:59:56.603</time></trkpt><trkpt lat="55.5443350" lon="38.8270070"><time>2020-11-01T13:59:58.600</time></trkpt><trkpt lat="55.5443350" lon="38.8270870"><time>2020-11-01T14:00:00.600</time></trkpt><trkpt lat="55.5443600" lon="38.8271730"><time>2020-11-01T14:00:03.603</time></trkpt><trkpt lat="55.5444150" lon="38.8272250"><time>2020-11-01T14:00:06.607</time></trkpt><trkpt lat="55.5444630" lon="38.8272730"><time>2020-11-01T14:00:09.600</time></trkpt><trkpt lat="55.5445100" lon="38.8273450"><time>2020-11-01T14:00:12.600</time></trkpt><trkpt lat="55.5445630" lon="38.8273770"><time>2020-11-01T14:00:15.607</time></trkpt><trkpt lat="55.5446270" lon="38.8274070"><time>2020-11-01T14:00:18.603</time></trkpt><trkpt lat="55.5446850" lon="38.8274680"><time>2020-11-01T14:00:21.607</time></trkpt><trkpt lat="55.5447220" lon="38.8275170"><time>2020-11-01T14:00:23.603</time></trkpt><trkpt lat="55.5447680" lon="38.8275730"><time>2020-11-01T14:00:25.603</time></trkpt><trkpt lat="55.5448000" lon="38.8276330"><time>2020-11-01T14:00:27.610</time></trkpt><trkpt lat="55.5448620" lon="38.8276850"><time>2020-11-01T14:00:30.600</time></trkpt><trkpt lat="55.5449230" lon="38.8277200"><time>2020-11-01T14:00:32.607</time></trkpt><trkpt lat="55.5449900" lon="38.8277000"><time>2020-11-01T14:00:35.600</time></trkpt><trkpt lat="55.5450420" lon="38.8276570"><time>2020-11-01T14:00:38.607</time></trkpt><trkpt lat="55.5450820" lon="38.8276070"><time>2020-11-01T14:00:41.603</time></trkpt><trkpt lat="55.5451220" lon="38.8275320"><time>2020-11-01T14:00:44.603</time></trkpt><trkpt lat="55.5452100" lon="38.8274380"><time>2020-11-01T14:00:56.610</time></trkpt><trkpt lat="55.5452380" lon="38.8273620"><time>2020-11-01T14:00:57.587</time></trkpt><trkpt lat="55.5452920" lon="38.8273230"><time>2020-11-01T14:00:59.593</time></trkpt><trkpt lat="55.5453130" lon="38.8272330"><time>2020-11-01T14:01:00.607</time></trkpt><trkpt lat="55.5453620" lon="38.8272150"><time>2020-11-01T14:01:01.727</time></trkpt><trkpt lat="55.5454430" lon="38.8271700"><time>2020-11-01T14:01:03.600</time></trkpt><trkpt lat="55.5455050" lon="38.8272100"><time>2020-11-01T14:01:05.607</time></trkpt><trkpt lat="55.5455700" lon="38.8271600"><time>2020-11-01T14:01:07.607</time></trkpt><trkpt lat="55.5456220" lon="38.8271820"><time>2020-11-01T14:01:09.600</time></trkpt><trkpt lat="55.5456700" lon="38.8272480"><time>2020-11-01T14:01:11.603</time></trkpt><trkpt lat="55.5457180" lon="38.8272630"><time>2020-11-01T14:01:14.607</time></trkpt><trkpt lat="55.5457670" lon="38.8272870"><time>2020-11-01T14:01:16.603</time></trkpt><trkpt lat="55.5458200" lon="38.8272700"><time>2020-11-01T14:01:18.610</time></trkpt><trkpt lat="55.5458670" lon="38.8272670"><time>2020-11-01T14:01:26.607</time></trkpt><trkpt lat="55.5459230" lon="38.8272850"><time>2020-11-01T14:01:31.610</time></trkpt><trkpt lat="55.5459730" lon="38.8273050"><time>2020-11-01T14:01:33.603</time></trkpt><trkpt lat="55.5460120" lon="38.8272550"><time>2020-11-01T14:01:35.610</time></trkpt><trkpt lat="55.5460630" lon="38.8272380"><time>2020-11-01T14:01:37.607</time></trkpt><trkpt lat="55.5461080" lon="38.8272000"><time>2020-11-01T14:01:40.607</time></trkpt><trkpt lat="55.5461580" lon="38.8272070"><time>2020-11-01T14:01:43.607</time></trkpt><trkpt lat="55.5462050" lon="38.8272400"><time>2020-11-01T14:01:45.600</time></trkpt><trkpt lat="55.5462670" lon="38.8272820"><time>2020-11-01T14:01:48.603</time></trkpt><trkpt lat="55.5463180" lon="38.8272720"><time>2020-11-01T14:01:50.607</time></trkpt><trkpt lat="55.5463680" lon="38.8272580"><time>2020-11-01T14:01:53.600</time></trkpt><trkpt lat="55.5464130" lon="38.8272800"><time>2020-11-01T14:01:54.610</time></trkpt><trkpt lat="55.5464720" lon="38.8273000"><time>2020-11-01T14:01:56.603</time></trkpt><trkpt lat="55.5465250" lon="38.8273050"><time>2020-11-01T14:01:58.600</time></trkpt><trkpt lat="55.5465700" lon="38.8273130"><time>2020-11-01T14:02:00.600</time></trkpt><trkpt lat="55.5466250" lon="38.8273470"><time>2020-11-01T14:02:02.600</time></trkpt><trkpt lat="55.5466930" lon="38.8273300"><time>2020-11-01T14:02:04.600</time></trkpt><trkpt lat="55.5467400" lon="38.8273150"><time>2020-11-01T14:02:07.603</time></trkpt><trkpt lat="55.5467980" lon="38.8273080"><time>2020-11-01T14:02:11.603</time></trkpt><trkpt lat="55.5468550" lon="38.8273020"><time>2020-11-01T14:02:13.600</time></trkpt><trkpt lat="55.5469320" lon="38.8272630"><time>2020-11-01T14:02:15.607</time></trkpt><trkpt lat="55.5470050" lon="38.8271920"><time>2020-11-01T14:02:17.603</time></trkpt><trkpt lat="55.5470670" lon="38.8271280"><time>2020-11-01T14:02:19.603</time></trkpt><trkpt lat="55.5471070" lon="38.8270900"><time>2020-11-01T14:02:20.607</time></trkpt><trkpt lat="55.5471450" lon="38.8271530"><time>2020-11-01T14:02:22.600</time></trkpt><trkpt lat="55.5472000" lon="38.8272100"><time>2020-11-01T14:02:24.607</time></trkpt><trkpt lat="55.5472430" lon="38.8272320"><time>2020-11-01T14:02:27.610</time></trkpt><trkpt lat="55.5472970" lon="38.8272520"><time>2020-11-01T14:02:29.570</time></trkpt><trkpt lat="55.5473550" lon="38.8272230"><time>2020-11-01T14:02:34.607</time></trkpt><trkpt lat="55.5474030" lon="38.8271970"><time>2020-11-01T14:02:36.600</time></trkpt><trkpt lat="55.5475420" lon="38.8272400"><time>2020-11-01T14:02:43.607</time></trkpt><trkpt lat="55.5476000" lon="38.8272700"><time>2020-11-01T14:02:45.607</time></trkpt><trkpt lat="55.5476500" lon="38.8272920"><time>2020-11-01T14:02:47.603</time></trkpt><trkpt lat="55.5477480" lon="38.8272500"><time>2020-11-01T14:02:52.607</time></trkpt><trkpt lat="55.5478150" lon="38.8272670"><time>2020-11-01T14:02:54.597</time></trkpt><trkpt lat="55.5478800" lon="38.8272620"><time>2020-11-01T14:02:56.607</time></trkpt><trkpt lat="55.5479330" lon="38.8272820"><time>2020-11-01T14:02:58.600</time></trkpt><trkpt lat="55.5479870" lon="38.8272570"><time>2020-11-01T14:03:01.607</time></trkpt><trkpt lat="55.5480450" lon="38.8272630"><time>2020-11-01T14:03:04.607</time></trkpt><trkpt lat="55.5481030" lon="38.8272600"><time>2020-11-01T14:03:07.600</time></trkpt><trkpt lat="55.5481770" lon="38.8272650"><time>2020-11-01T14:03:10.603</time></trkpt><trkpt lat="55.5482500" lon="38.8273600"><time>2020-11-01T14:03:16.597</time></trkpt><trkpt lat="55.5482650" lon="38.8274450"><time>2020-11-01T14:03:18.607</time></trkpt><trkpt lat="55.5482770" lon="38.8275280"><time>2020-11-01T14:03:20.607</time></trkpt><trkpt lat="55.5483170" lon="38.8275770"><time>2020-11-01T14:03:26.603</time></trkpt><trkpt lat="55.5483370" lon="38.8276520"><time>2020-11-01T14:03:29.603</time></trkpt><trkpt lat="55.5483650" lon="38.8277670"><time>2020-11-01T14:03:33.607</time></trkpt><trkpt lat="55.5483750" lon="38.8278850"><time>2020-11-01T14:03:36.600</time></trkpt><trkpt lat="55.5483570" lon="38.8279820"><time>2020-11-01T14:03:39.603</time></trkpt><trkpt lat="55.5483630" lon="38.8280670"><time>2020-11-01T14:03:41.607</time></trkpt><trkpt lat="55.5483570" lon="38.8281570"><time>2020-11-01T14:03:43.600</time></trkpt><trkpt lat="55.5483480" lon="38.8282620"><time>2020-11-01T14:03:45.580</time></trkpt><trkpt lat="55.5483480" lon="38.8283420"><time>2020-11-01T14:03:47.607</time></trkpt><trkpt lat="55.5483270" lon="38.8284320"><time>2020-11-01T14:03:50.607</time></trkpt><trkpt lat="55.5483170" lon="38.8285150"><time>2020-11-01T14:03:53.600</time></trkpt><trkpt lat="55.5483420" lon="38.8286030"><time>2020-11-01T14:03:56.600</time></trkpt><trkpt lat="55.5483720" lon="38.8286880"><time>2020-11-01T14:03:58.607</time></trkpt><trkpt lat="55.5483870" lon="38.8287720"><time>2020-11-01T14:04:00.603</time></trkpt><trkpt lat="55.5483880" lon="38.8288570"><time>2020-11-01T14:04:03.603</time></trkpt><trkpt lat="55.5483880" lon="38.8289470"><time>2020-11-01T14:04:07.607</time></trkpt><trkpt lat="55.5484000" lon="38.8290550"><time>2020-11-01T14:04:11.603</time></trkpt><trkpt lat="55.5483870" lon="38.8291400"><time>2020-11-01T14:04:13.600</time></trkpt><trkpt lat="55.5483730" lon="38.8292330"><time>2020-11-01T14:04:15.597</time></trkpt><trkpt lat="55.5483320" lon="38.8294330"><time>2020-11-01T14:04:28.607</time></trkpt><trkpt lat="55.5483420" lon="38.8295380"><time>2020-11-01T14:04:31.603</time></trkpt><trkpt lat="55.5483300" lon="38.8296170"><time>2020-11-01T14:04:33.607</time></trkpt><trkpt lat="55.5483330" lon="38.8297330"><time>2020-11-01T14:04:35.603</time></trkpt><trkpt lat="55.5483470" lon="38.8298720"><time>2020-11-01T14:04:37.603</time></trkpt><trkpt lat="55.5483550" lon="38.8299650"><time>2020-11-01T14:04:39.603</time></trkpt><trkpt lat="55.5483780" lon="38.8300650"><time>2020-11-01T14:04:42.607</time></trkpt><trkpt lat="55.5484170" lon="38.8301370"><time>2020-11-01T14:04:45.607</time></trkpt><trkpt lat="55.5484530" lon="38.8301920"><time>2020-11-01T14:04:47.603</time></trkpt><trkpt lat="55.5484900" lon="38.8302770"><time>2020-11-01T14:04:49.607</time></trkpt><trkpt lat="55.5485050" lon="38.8303730"><time>2020-11-01T14:04:51.613</time></trkpt><trkpt lat="55.5485130" lon="38.8304680"><time>2020-11-01T14:04:53.607</time></trkpt><trkpt lat="55.5485180" lon="38.8305680"><time>2020-11-01T14:04:56.607</time></trkpt><trkpt lat="55.5484680" lon="38.8307870"><time>2020-11-01T14:05:04.607</time></trkpt><trkpt lat="55.5484700" lon="38.8309020"><time>2020-11-01T14:05:06.607</time></trkpt><trkpt lat="55.5484670" lon="38.8309930"><time>2020-11-01T14:05:09.603</time></trkpt><trkpt lat="55.5484620" lon="38.8311550"><time>2020-11-01T14:05:13.603</time></trkpt><trkpt lat="55.5484530" lon="38.8312680"><time>2020-11-01T14:05:16.603</time></trkpt><trkpt lat="55.5484370" lon="38.8314000"><time>2020-11-01T14:05:19.603</time></trkpt><trkpt lat="55.5484300" lon="38.8315350"><time>2020-11-01T14:05:22.607</time></trkpt><trkpt lat="55.5484370" lon="38.8316470"><time>2020-11-01T14:05:24.603</time></trkpt><trkpt lat="55.5484170" lon="38.8317530"><time>2020-11-01T14:05:27.610</time></trkpt><trkpt lat="55.5484080" lon="38.8318630"><time>2020-11-01T14:05:29.603</time></trkpt><trkpt lat="55.5483720" lon="38.8319550"><time>2020-11-01T14:05:32.610</time></trkpt><trkpt lat="55.5483530" lon="38.8321580"><time>2020-11-01T14:05:38.560</time></trkpt><trkpt lat="55.5483770" lon="38.8322570"><time>2020-11-01T14:05:41.603</time></trkpt><trkpt lat="55.5483450" lon="38.8323700"><time>2020-11-01T14:05:43.610</time></trkpt><trkpt lat="55.5483050" lon="38.8325220"><time>2020-11-01T14:05:45.607</time></trkpt><trkpt lat="55.5482920" lon="38.8326800"><time>2020-11-01T14:05:47.600</time></trkpt><trkpt lat="55.5482850" lon="38.8328350"><time>2020-11-01T14:05:49.603</time></trkpt><trkpt lat="55.5482870" lon="38.8329230"><time>2020-11-01T14:05:51.607</time></trkpt><trkpt lat="55.5483320" lon="38.8330870"><time>2020-11-01T14:05:57.610</time></trkpt><trkpt lat="55.5483520" lon="38.8331700"><time>2020-11-01T14:06:00.593</time></trkpt><trkpt lat="55.5483930" lon="38.8332950"><time>2020-11-01T14:06:04.607</time></trkpt><trkpt lat="55.5484170" lon="38.8333900"><time>2020-11-01T14:06:06.607</time></trkpt><trkpt lat="55.5484370" lon="38.8334670"><time>2020-11-01T14:06:08.603</time></trkpt><trkpt lat="55.5484670" lon="38.8335450"><time>2020-11-01T14:06:11.607</time></trkpt><trkpt lat="55.5484900" lon="38.8336950"><time>2020-11-01T14:06:15.600</time></trkpt><trkpt lat="55.5485100" lon="38.8337700"><time>2020-11-01T14:06:16.603</time></trkpt><trkpt lat="55.5485330" lon="38.8338470"><time>2020-11-01T14:06:18.603</time></trkpt><trkpt lat="55.5485300" lon="38.8339380"><time>2020-11-01T14:06:21.607</time></trkpt><trkpt lat="55.5485050" lon="38.8340220"><time>2020-11-01T14:06:24.603</time></trkpt><trkpt lat="55.5484880" lon="38.8340970"><time>2020-11-01T14:06:26.607</time></trkpt><trkpt lat="55.5484780" lon="38.8342080"><time>2020-11-01T14:06:29.597</time></trkpt><trkpt lat="55.5484320" lon="38.8342930"><time>2020-11-01T14:06:51.603</time></trkpt><trkpt lat="55.5484500" lon="38.8349180"><time>2020-11-01T14:07:09.603</time></trkpt><trkpt lat="55.5483870" lon="38.8349180"><time>2020-11-01T14:07:10.610</time></trkpt><trkpt lat="55.5483370" lon="38.8349500"><time>2020-11-01T14:07:11.600</time></trkpt><trkpt lat="55.5483150" lon="38.8350320"><time>2020-11-01T14:07:12.603</time></trkpt><trkpt lat="55.5482080" lon="38.8354030"><time>2020-11-01T14:07:13.600</time></trkpt><trkpt lat="55.5483180" lon="38.8355430"><time>2020-11-01T14:07:14.603</time></trkpt><trkpt lat="55.5483330" lon="38.8354300"><time>2020-11-01T14:07:21.603</time></trkpt><trkpt lat="55.5482270" lon="38.8354330"><time>2020-11-01T14:07:23.603</time></trkpt><trkpt lat="55.5482870" lon="38.8353570"><time>2020-11-01T14:07:30.607</time></trkpt><trkpt lat="55.5484100" lon="38.8353020"><time>2020-11-01T14:07:37.607</time></trkpt><trkpt lat="55.5484830" lon="38.8353180"><time>2020-11-01T14:07:40.607</time></trkpt><trkpt lat="55.5485300" lon="38.8353200"><time>2020-11-01T14:07:42.603</time></trkpt><trkpt lat="55.5486300" lon="38.8353200"><time>2020-11-01T14:08:00.603</time></trkpt><trkpt lat="55.5487530" lon="38.8353250"><time>2020-11-01T14:08:12.607</time></trkpt><trkpt lat="55.5488030" lon="38.8352820"><time>2020-11-01T14:08:44.540</time></trkpt><trkpt lat="55.5487530" lon="38.8353500"><time>2020-11-01T14:08:50.457</time></trkpt><trkpt lat="55.5487630" lon="38.8354020"><time>2020-11-01T14:08:59.607</time></trkpt><trkpt lat="55.5486950" lon="38.8353120"><time>2020-11-01T14:09:23.607</time></trkpt><trkpt lat="55.5486080" lon="38.8353580"><time>2020-11-01T14:09:25.607</time></trkpt><trkpt lat="55.5484770" lon="38.8353220"><time>2020-11-01T14:09:37.607</time></trkpt><trkpt lat="55.5483570" lon="38.8352070"><time>2020-11-01T14:09:47.607</time></trkpt><trkpt lat="55.5483020" lon="38.8352030"><time>2020-11-01T14:10:01.607</time></trkpt><trkpt lat="55.5482850" lon="38.8352800"><time>2020-11-01T14:10:04.603</time></trkpt><trkpt lat="55.5482670" lon="38.8353980"><time>2020-11-01T14:10:06.603</time></trkpt><trkpt lat="55.5482770" lon="38.8355030"><time>2020-11-01T14:10:10.607</time></trkpt><trkpt lat="55.5483150" lon="38.8355620"><time>2020-11-01T14:10:12.607</time></trkpt><trkpt lat="55.5483530" lon="38.8356330"><time>2020-11-01T14:10:15.607</time></trkpt><trkpt lat="55.5483770" lon="38.8357030"><time>2020-11-01T14:10:17.607</time></trkpt><trkpt lat="55.5484180" lon="38.8358200"><time>2020-11-01T14:10:19.607</time></trkpt><trkpt lat="55.5483780" lon="38.8360400"><time>2020-11-01T14:10:31.607</time></trkpt><trkpt lat="55.5483820" lon="38.8361450"><time>2020-11-01T14:10:33.603</time></trkpt><trkpt lat="55.5483470" lon="38.8362720"><time>2020-11-01T14:10:35.610</time></trkpt><trkpt lat="55.5483300" lon="38.8363570"><time>2020-11-01T14:10:36.600</time></trkpt><trkpt lat="55.5483080" lon="38.8364500"><time>2020-11-01T14:10:37.603</time></trkpt><trkpt lat="55.5482850" lon="38.8365300"><time>2020-11-01T14:10:38.603</time></trkpt><trkpt lat="55.5482550" lon="38.8366130"><time>2020-11-01T14:10:39.607</time></trkpt><trkpt lat="55.5482270" lon="38.8366950"><time>2020-11-01T14:10:40.603</time></trkpt><trkpt lat="55.5481680" lon="38.8367670"><time>2020-11-01T14:10:42.603</time></trkpt><trkpt lat="55.5481270" lon="38.8368500"><time>2020-11-01T14:10:44.607</time></trkpt><trkpt lat="55.5480630" lon="38.8368950"><time>2020-11-01T14:10:46.603</time></trkpt><trkpt lat="55.5480230" lon="38.8369530"><time>2020-11-01T14:10:49.610</time></trkpt><trkpt lat="55.5479820" lon="38.8370430"><time>2020-11-01T14:10:54.587</time></trkpt><trkpt lat="55.5479600" lon="38.8371520"><time>2020-11-01T14:10:56.603</time></trkpt><trkpt lat="55.5479680" lon="38.8372580"><time>2020-11-01T14:10:59.607</time></trkpt><trkpt lat="55.5479930" lon="38.8373350"><time>2020-11-01T14:11:01.607</time></trkpt><trkpt lat="55.5479980" lon="38.8374180"><time>2020-11-01T14:11:03.603</time></trkpt><trkpt lat="55.5480080" lon="38.8375280"><time>2020-11-01T14:11:05.607</time></trkpt><trkpt lat="55.5480370" lon="38.8376570"><time>2020-11-01T14:11:07.610</time></trkpt><trkpt lat="55.5480250" lon="38.8377420"><time>2020-11-01T14:11:09.607</time></trkpt><trkpt lat="55.5480220" lon="38.8378230"><time>2020-11-01T14:11:11.603</time></trkpt><trkpt lat="55.5480020" lon="38.8379070"><time>2020-11-01T14:11:14.607</time></trkpt><trkpt lat="55.5479620" lon="38.8380480"><time>2020-11-01T14:11:21.607</time></trkpt><trkpt lat="55.5479330" lon="38.8381150"><time>2020-11-01T14:11:23.607</time></trkpt><trkpt lat="55.5479000" lon="38.8382030"><time>2020-11-01T14:11:25.603</time></trkpt><trkpt lat="55.5478620" lon="38.8382450"><time>2020-11-01T14:11:27.607</time></trkpt><trkpt lat="55.5478280" lon="38.8383170"><time>2020-11-01T14:11:29.607</time></trkpt><trkpt lat="55.5477970" lon="38.8383750"><time>2020-11-01T14:11:30.603</time></trkpt><trkpt lat="55.5477380" lon="38.8384770"><time>2020-11-01T14:11:32.607</time></trkpt><trkpt lat="55.5476770" lon="38.8385600"><time>2020-11-01T14:11:34.607</time></trkpt><trkpt lat="55.5476200" lon="38.8386080"><time>2020-11-01T14:11:36.610</time></trkpt><trkpt lat="55.5475850" lon="38.8387150"><time>2020-11-01T14:11:39.603</time></trkpt><trkpt lat="55.5475970" lon="38.8388170"><time>2020-11-01T14:11:41.607</time></trkpt><trkpt lat="55.5475700" lon="38.8389100"><time>2020-11-01T14:11:43.607</time></trkpt><trkpt lat="55.5475680" lon="38.8390080"><time>2020-11-01T14:11:45.607</time></trkpt><trkpt lat="55.5475680" lon="38.8391220"><time>2020-11-01T14:11:47.607</time></trkpt><trkpt lat="55.5475780" lon="38.8392080"><time>2020-11-01T14:11:49.600</time></trkpt><trkpt lat="55.5476250" lon="38.8393070"><time>2020-11-01T14:11:52.603</time></trkpt><trkpt lat="55.5476430" lon="38.8394100"><time>2020-11-01T14:11:54.607</time></trkpt><trkpt lat="55.5476080" lon="38.8394600"><time>2020-11-01T14:11:57.610</time></trkpt><trkpt lat="55.5475570" lon="38.8395100"><time>2020-11-01T14:12:00.607</time></trkpt><trkpt lat="55.5474900" lon="38.8395480"><time>2020-11-01T14:12:02.607</time></trkpt><trkpt lat="55.5474320" lon="38.8395750"><time>2020-11-01T14:12:04.607</time></trkpt><trkpt lat="55.5473820" lon="38.8395720"><time>2020-11-01T14:12:06.607</time></trkpt><trkpt lat="55.5473180" lon="38.8395650"><time>2020-11-01T14:12:09.603</time></trkpt><trkpt lat="55.5472680" lon="38.8395430"><time>2020-11-01T14:12:11.607</time></trkpt><trkpt lat="55.5472030" lon="38.8395670"><time>2020-11-01T14:12:15.603</time></trkpt><trkpt lat="55.5471500" lon="38.8395730"><time>2020-11-01T14:12:17.603</time></trkpt><trkpt lat="55.5470920" lon="38.8395700"><time>2020-11-01T14:12:19.607</time></trkpt><trkpt lat="55.5470350" lon="38.8395950"><time>2020-11-01T14:12:21.607</time></trkpt><trkpt lat="55.5469750" lon="38.8396320"><time>2020-11-01T14:12:23.607</time></trkpt><trkpt lat="55.5469300" lon="38.8397050"><time>2020-11-01T14:12:25.607</time></trkpt><trkpt lat="55.5468900" lon="38.8397720"><time>2020-11-01T14:12:27.607</time></trkpt><trkpt lat="55.5468420" lon="38.8398420"><time>2020-11-01T14:12:30.607</time></trkpt><trkpt lat="55.5467820" lon="38.8398730"><time>2020-11-01T14:12:33.607</time></trkpt><trkpt lat="55.5467500" lon="38.8399550"><time>2020-11-01T14:12:36.607</time></trkpt><trkpt lat="55.5467120" lon="38.8400050"><time>2020-11-01T14:12:38.607</time></trkpt><trkpt lat="55.5466700" lon="38.8400880"><time>2020-11-01T14:12:41.603</time></trkpt><trkpt lat="55.5466280" lon="38.8401620"><time>2020-11-01T14:12:43.607</time></trkpt><trkpt lat="55.5465620" lon="38.8402050"><time>2020-11-01T14:12:45.607</time></trkpt><trkpt lat="55.5465070" lon="38.8402350"><time>2020-11-01T14:12:47.607</time></trkpt><trkpt lat="55.5464450" lon="38.8402800"><time>2020-11-01T14:12:49.607</time></trkpt><trkpt lat="55.5463930" lon="38.8403170"><time>2020-11-01T14:12:51.613</time></trkpt><trkpt lat="55.5463350" lon="38.8403300"><time>2020-11-01T14:12:54.603</time></trkpt><trkpt lat="55.5462980" lon="38.8403820"><time>2020-11-01T14:12:57.607</time></trkpt><trkpt lat="55.5462370" lon="38.8403980"><time>2020-11-01T14:13:00.607</time></trkpt><trkpt lat="55.5462070" lon="38.8404630"><time>2020-11-01T14:13:03.603</time></trkpt><trkpt lat="55.5461570" lon="38.8405380"><time>2020-11-01T14:13:06.603</time></trkpt><trkpt lat="55.5461020" lon="38.8405780"><time>2020-11-01T14:13:08.603</time></trkpt><trkpt lat="55.5460650" lon="38.8406480"><time>2020-11-01T14:13:12.607</time></trkpt><trkpt lat="55.5460150" lon="38.8407720"><time>2020-11-01T14:13:16.607</time></trkpt><trkpt lat="55.5459800" lon="38.8408670"><time>2020-11-01T14:13:18.603</time></trkpt><trkpt lat="55.5459330" lon="38.8409150"><time>2020-11-01T14:13:21.613</time></trkpt><trkpt lat="55.5458600" lon="38.8409450"><time>2020-11-01T14:13:29.613</time></trkpt><trkpt lat="55.5458270" lon="38.8410130"><time>2020-11-01T14:13:31.610</time></trkpt><trkpt lat="55.5457880" lon="38.8410770"><time>2020-11-01T14:13:33.567</time></trkpt><trkpt lat="55.5457600" lon="38.8411550"><time>2020-11-01T14:13:35.607</time></trkpt><trkpt lat="55.5457350" lon="38.8412580"><time>2020-11-01T14:13:38.610</time></trkpt><trkpt lat="55.5456920" lon="38.8413020"><time>2020-11-01T14:13:41.567</time></trkpt><trkpt lat="55.5455900" lon="38.8414480"><time>2020-11-01T14:13:47.603</time></trkpt><trkpt lat="55.5455180" lon="38.8415300"><time>2020-11-01T14:13:49.603</time></trkpt><trkpt lat="55.5454820" lon="38.8415770"><time>2020-11-01T14:13:50.607</time></trkpt><trkpt lat="55.5454270" lon="38.8416280"><time>2020-11-01T14:13:52.610</time></trkpt><trkpt lat="55.5454020" lon="38.8417070"><time>2020-11-01T14:13:56.610</time></trkpt><trkpt lat="55.5452920" lon="38.8417520"><time>2020-11-01T14:14:06.607</time></trkpt><trkpt lat="55.5452030" lon="38.8418600"><time>2020-11-01T14:14:11.607</time></trkpt><trkpt lat="55.5451230" lon="38.8419000"><time>2020-11-01T14:14:13.607</time></trkpt><trkpt lat="55.5450770" lon="38.8419050"><time>2020-11-01T14:14:14.610</time></trkpt><trkpt lat="55.5450050" lon="38.8419120"><time>2020-11-01T14:14:16.610</time></trkpt><trkpt lat="55.5448900" lon="38.8419880"><time>2020-11-01T14:14:25.607</time></trkpt><trkpt lat="55.5447630" lon="38.8420000"><time>2020-11-01T14:14:33.607</time></trkpt><trkpt lat="55.5446800" lon="38.8419980"><time>2020-11-01T14:14:35.610</time></trkpt><trkpt lat="55.5446300" lon="38.8420120"><time>2020-11-01T14:14:38.610</time></trkpt><trkpt lat="55.5445800" lon="38.8420500"><time>2020-11-01T14:14:40.607</time></trkpt><trkpt lat="55.5445330" lon="38.8420630"><time>2020-11-01T14:14:42.610</time></trkpt><trkpt lat="55.5444370" lon="38.8420650"><time>2020-11-01T14:14:48.607</time></trkpt><trkpt lat="55.5443200" lon="38.8421400"><time>2020-11-01T14:14:56.610</time></trkpt><trkpt lat="55.5442750" lon="38.8421600"><time>2020-11-01T14:14:59.607</time></trkpt><trkpt lat="55.5441670" lon="38.8421500"><time>2020-11-01T14:15:04.607</time></trkpt><trkpt lat="55.5441200" lon="38.8421300"><time>2020-11-01T14:15:06.607</time></trkpt><trkpt lat="55.5440070" lon="38.8421770"><time>2020-11-01T14:15:15.607</time></trkpt><trkpt lat="55.5439270" lon="38.8421730"><time>2020-11-01T14:15:17.607</time></trkpt><trkpt lat="55.5438800" lon="38.8421520"><time>2020-11-01T14:15:18.607</time></trkpt><trkpt lat="55.5438130" lon="38.8421520"><time>2020-11-01T14:15:20.607</time></trkpt><trkpt lat="55.5437530" lon="38.8420800"><time>2020-11-01T14:15:22.610</time></trkpt><trkpt lat="55.5437000" lon="38.8419820"><time>2020-11-01T14:15:24.607</time></trkpt><trkpt lat="55.5436620" lon="38.8419120"><time>2020-11-01T14:15:26.607</time></trkpt><trkpt lat="55.5436400" lon="38.8418020"><time>2020-11-01T14:15:28.607</time></trkpt><trkpt lat="55.5436170" lon="38.8417220"><time>2020-11-01T14:15:31.607</time></trkpt><trkpt lat="55.5436700" lon="38.8416220"><time>2020-11-01T14:15:51.607</time></trkpt><trkpt lat="55.5436500" lon="38.8415450"><time>2020-11-01T14:15:53.607</time></trkpt><trkpt lat="55.5436280" lon="38.8414450"><time>2020-11-01T14:15:55.607</time></trkpt><trkpt lat="55.5436020" lon="38.8413750"><time>2020-11-01T14:15:58.607</time></trkpt><trkpt lat="55.5435430" lon="38.8412800"><time>2020-11-01T14:16:03.607</time></trkpt><trkpt lat="55.5433950" lon="38.8412770"><time>2020-11-01T14:16:19.607</time></trkpt><trkpt lat="55.5433270" lon="38.8412170"><time>2020-11-01T14:16:21.610</time></trkpt><trkpt lat="55.5432080" lon="38.8411930"><time>2020-11-01T14:16:28.607</time></trkpt><trkpt lat="55.5430920" lon="38.8412000"><time>2020-11-01T14:16:34.607</time></trkpt><trkpt lat="55.5430220" lon="38.8411720"><time>2020-11-01T14:16:36.610</time></trkpt><trkpt lat="55.5429770" lon="38.8411620"><time>2020-11-01T14:16:38.607</time></trkpt><trkpt lat="55.5429070" lon="38.8411420"><time>2020-11-01T14:16:40.607</time></trkpt><trkpt lat="55.5428420" lon="38.8411100"><time>2020-11-01T14:16:42.607</time></trkpt><trkpt lat="55.5427870" lon="38.8411000"><time>2020-11-01T14:16:44.607</time></trkpt><trkpt lat="55.5427420" lon="38.8410900"><time>2020-11-01T14:16:47.607</time></trkpt><trkpt lat="55.5426270" lon="38.8411330"><time>2020-11-01T14:16:57.607</time></trkpt><trkpt lat="55.5425570" lon="38.8411220"><time>2020-11-01T14:16:59.607</time></trkpt><trkpt lat="55.5424220" lon="38.8410750"><time>2020-11-01T14:17:07.607</time></trkpt><trkpt lat="55.5423580" lon="38.8410370"><time>2020-11-01T14:17:09.607</time></trkpt><trkpt lat="55.5423030" lon="38.8410250"><time>2020-11-01T14:17:11.607</time></trkpt><trkpt lat="55.5422550" lon="38.8410050"><time>2020-11-01T14:17:13.610</time></trkpt><trkpt lat="55.5422370" lon="38.8411150"><time>2020-11-01T14:17:16.607</time></trkpt><trkpt lat="55.5421830" lon="38.8411320"><time>2020-11-01T14:17:21.607</time></trkpt><trkpt lat="55.5421100" lon="38.8411150"><time>2020-11-01T14:17:23.610</time></trkpt><trkpt lat="55.5420250" lon="38.8410900"><time>2020-11-01T14:17:25.607</time></trkpt><trkpt lat="55.5419650" lon="38.8410670"><time>2020-11-01T14:17:27.610</time></trkpt><trkpt lat="55.5419030" lon="38.8410700"><time>2020-11-01T14:17:30.607</time></trkpt><trkpt lat="55.5418350" lon="38.8410630"><time>2020-11-01T14:17:32.607</time></trkpt><trkpt lat="55.5417730" lon="38.8410750"><time>2020-11-01T14:17:35.607</time></trkpt><trkpt lat="55.5417180" lon="38.8410520"><time>2020-11-01T14:17:38.610</time></trkpt><trkpt lat="55.5416620" lon="38.8410470"><time>2020-11-01T14:17:41.607</time></trkpt><trkpt lat="55.5416050" lon="38.8410330"><time>2020-11-01T14:17:43.613</time></trkpt><trkpt lat="55.5415420" lon="38.8410150"><time>2020-11-01T14:17:45.610</time></trkpt><trkpt lat="55.5414650" lon="38.8409970"><time>2020-11-01T14:17:47.603</time></trkpt><trkpt lat="55.5414100" lon="38.8409850"><time>2020-11-01T14:17:50.610</time></trkpt><trkpt lat="55.5413580" lon="38.8409680"><time>2020-11-01T14:17:52.610</time></trkpt><trkpt lat="55.5412930" lon="38.8409670"><time>2020-11-01T14:17:54.610</time></trkpt><trkpt lat="55.5412330" lon="38.8409700"><time>2020-11-01T14:17:57.610</time></trkpt><trkpt lat="55.5411850" lon="38.8409580"><time>2020-11-01T14:17:59.607</time></trkpt><trkpt lat="55.5411170" lon="38.8409270"><time>2020-11-01T14:18:02.607</time></trkpt><trkpt lat="55.5410570" lon="38.8409280"><time>2020-11-01T14:18:05.610</time></trkpt><trkpt lat="55.5409870" lon="38.8409170"><time>2020-11-01T14:18:07.607</time></trkpt><trkpt lat="55.5409370" lon="38.8408930"><time>2020-11-01T14:18:09.610</time></trkpt><trkpt lat="55.5408680" lon="38.8409080"><time>2020-11-01T14:18:12.610</time></trkpt><trkpt lat="55.5408200" lon="38.8409400"><time>2020-11-01T14:18:15.610</time></trkpt><trkpt lat="55.5407720" lon="38.8409500"><time>2020-11-01T14:18:18.607</time></trkpt><trkpt lat="55.5407270" lon="38.8410020"><time>2020-11-01T14:18:23.610</time></trkpt><trkpt lat="55.5405970" lon="38.8409380"><time>2020-11-01T14:18:31.607</time></trkpt><trkpt lat="55.5405470" lon="38.8409400"><time>2020-11-01T14:18:33.610</time></trkpt><trkpt lat="55.5404600" lon="38.8408030"><time>2020-11-01T14:18:44.610</time></trkpt><trkpt lat="55.5403980" lon="38.8407200"><time>2020-11-01T14:18:46.607</time></trkpt><trkpt lat="55.5403500" lon="38.8406980"><time>2020-11-01T14:18:47.607</time></trkpt><trkpt lat="55.5403030" lon="38.8406580"><time>2020-11-01T14:18:48.607</time></trkpt><trkpt lat="55.5402630" lon="38.8406050"><time>2020-11-01T14:18:49.607</time></trkpt><trkpt lat="55.5403730" lon="38.8406270"><time>2020-11-01T14:19:07.613</time></trkpt><trkpt lat="55.5404750" lon="38.8405200"><time>2020-11-01T14:19:22.610</time></trkpt><trkpt lat="55.5404380" lon="38.8403800"><time>2020-11-01T14:19:28.610</time></trkpt><trkpt lat="55.5404000" lon="38.8402970"><time>2020-11-01T14:19:30.610</time></trkpt><trkpt lat="55.5403550" lon="38.8402200"><time>2020-11-01T14:19:32.603</time></trkpt><trkpt lat="55.5403220" lon="38.8401280"><time>2020-11-01T14:19:35.613</time></trkpt><trkpt lat="55.5403030" lon="38.8400350"><time>2020-11-01T14:19:38.610</time></trkpt><trkpt lat="55.5403130" lon="38.8399280"><time>2020-11-01T14:19:47.610</time></trkpt><trkpt lat="55.5402720" lon="38.8397970"><time>2020-11-01T14:19:59.607</time></trkpt><trkpt lat="55.5402420" lon="38.8397230"><time>2020-11-01T14:20:02.610</time></trkpt><trkpt lat="55.5402080" lon="38.8396700"><time>2020-11-01T14:20:06.610</time></trkpt><trkpt lat="55.5402400" lon="38.8395830"><time>2020-11-01T14:20:10.610</time></trkpt><trkpt lat="55.5402100" lon="38.8394830"><time>2020-11-01T14:20:17.607</time></trkpt><trkpt lat="55.5401630" lon="38.8394100"><time>2020-11-01T14:20:21.607</time></trkpt><trkpt lat="55.5401100" lon="38.8392430"><time>2020-11-01T14:20:37.613</time></trkpt><trkpt lat="55.5400930" lon="38.8391620"><time>2020-11-01T14:20:40.610</time></trkpt><trkpt lat="55.5399980" lon="38.8390480"><time>2020-11-01T14:20:46.607</time></trkpt><trkpt lat="55.5399620" lon="38.8389950"><time>2020-11-01T14:20:48.610</time></trkpt><trkpt lat="55.5399880" lon="38.8389130"><time>2020-11-01T14:20:58.610</time></trkpt><trkpt lat="55.5400320" lon="38.8388480"><time>2020-11-01T14:21:01.610</time></trkpt><trkpt lat="55.5400650" lon="38.8387900"><time>2020-11-01T14:21:03.610</time></trkpt><trkpt lat="55.5400500" lon="38.8387150"><time>2020-11-01T14:21:04.610</time></trkpt><trkpt lat="55.5400870" lon="38.8386570"><time>2020-11-01T14:21:07.607</time></trkpt><trkpt lat="55.5400780" lon="38.8385020"><time>2020-11-01T14:21:11.607</time></trkpt><trkpt lat="55.5400670" lon="38.8383950"><time>2020-11-01T14:21:13.610</time></trkpt><trkpt lat="55.5400650" lon="38.8383150"><time>2020-11-01T14:21:15.610</time></trkpt><trkpt lat="55.5400670" lon="38.8381220"><time>2020-11-01T14:21:34.610</time></trkpt><trkpt lat="55.5400030" lon="38.8380620"><time>2020-11-01T14:21:35.610</time></trkpt><trkpt lat="55.5399580" lon="38.8380070"><time>2020-11-01T14:21:38.607</time></trkpt><trkpt lat="55.5399730" lon="38.8378670"><time>2020-11-01T14:21:59.603</time></trkpt><trkpt lat="55.5399680" lon="38.8377350"><time>2020-11-01T14:22:02.610</time></trkpt><trkpt lat="55.5399350" lon="38.8378070"><time>2020-11-01T14:22:05.607</time></trkpt><trkpt lat="55.5399230" lon="38.8376320"><time>2020-11-01T14:22:11.607</time></trkpt><trkpt lat="55.5399130" lon="38.8374800"><time>2020-11-01T14:22:12.607</time></trkpt><trkpt lat="55.5399050" lon="38.8373970"><time>2020-11-01T14:22:13.607</time></trkpt><trkpt lat="55.5398720" lon="38.8373280"><time>2020-11-01T14:22:16.607</time></trkpt><trkpt lat="55.5398880" lon="38.8374250"><time>2020-11-01T14:22:19.613</time></trkpt><trkpt lat="55.5397920" lon="38.8373350"><time>2020-11-01T14:22:38.573</time></trkpt><trkpt lat="55.5397630" lon="38.8372650"><time>2020-11-01T14:22:40.610</time></trkpt><trkpt lat="55.5398730" lon="38.8372850"><time>2020-11-01T14:22:58.613</time></trkpt><trkpt lat="55.5399320" lon="38.8372720"><time>2020-11-01T14:23:00.610</time></trkpt><trkpt lat="55.5399670" lon="38.8371920"><time>2020-11-01T14:23:02.613</time></trkpt><trkpt lat="55.5399320" lon="38.8372970"><time>2020-11-01T14:23:10.610</time></trkpt><trkpt lat="55.5399370" lon="38.8373870"><time>2020-11-01T14:23:13.610</time></trkpt><trkpt lat="55.5399950" lon="38.8373630"><time>2020-11-01T14:23:21.610</time></trkpt><trkpt lat="55.5400450" lon="38.8373500"><time>2020-11-01T14:23:28.613</time></trkpt><trkpt lat="55.5400720" lon="38.8372520"><time>2020-11-01T14:23:32.613</time></trkpt><trkpt lat="55.5401620" lon="38.8371950"><time>2020-11-01T14:23:55.610</time></trkpt><trkpt lat="55.5402530" lon="38.8371330"><time>2020-11-01T14:24:03.610</time></trkpt><trkpt lat="55.5403050" lon="38.8371430"><time>2020-11-01T14:24:06.610</time></trkpt><trkpt lat="55.5403430" lon="38.8371870"><time>2020-11-01T14:24:09.610</time></trkpt><trkpt lat="55.5403770" lon="38.8372580"><time>2020-11-01T14:24:11.613</time></trkpt><trkpt lat="55.5404250" lon="38.8373070"><time>2020-11-01T14:24:14.613</time></trkpt><trkpt lat="55.5404700" lon="38.8372780"><time>2020-11-01T14:24:16.613</time></trkpt><trkpt lat="55.5404350" lon="38.8370700"><time>2020-11-01T14:24:27.610</time></trkpt><trkpt lat="55.5403920" lon="38.8369850"><time>2020-11-01T14:24:29.607</time></trkpt><trkpt lat="55.5403420" lon="38.8368650"><time>2020-11-01T14:24:31.613</time></trkpt><trkpt lat="55.5403100" lon="38.8367770"><time>2020-11-01T14:24:34.610</time></trkpt><trkpt lat="55.5402830" lon="38.8366750"><time>2020-11-01T14:24:36.607</time></trkpt><trkpt lat="55.5402680" lon="38.8366000"><time>2020-11-01T14:24:39.613</time></trkpt><trkpt lat="55.5402600" lon="38.8364830"><time>2020-11-01T14:24:53.610</time></trkpt><trkpt lat="55.5402700" lon="38.8362920"><time>2020-11-01T14:25:05.580</time></trkpt><trkpt lat="55.5405200" lon="38.8351520"><time>2020-11-01T14:25:37.603</time></trkpt><trkpt lat="55.5404500" lon="38.8360070"><time>2020-11-01T14:25:38.600</time></trkpt><trkpt lat="55.5405030" lon="38.8360050"><time>2020-11-01T14:25:40.610</time></trkpt><trkpt lat="55.5405180" lon="38.8362180"><time>2020-11-01T14:25:41.610</time></trkpt><trkpt lat="55.5404680" lon="38.8362430"><time>2020-11-01T14:25:46.610</time></trkpt><trkpt lat="55.5403930" lon="38.8361780"><time>2020-11-01T14:25:47.610</time></trkpt><trkpt lat="55.5403720" lon="38.8362620"><time>2020-11-01T14:25:54.613</time></trkpt><trkpt lat="55.5403800" lon="38.8363950"><time>2020-11-01T14:26:05.610</time></trkpt><trkpt lat="55.5403750" lon="38.8364800"><time>2020-11-01T14:26:07.613</time></trkpt><trkpt lat="55.5403700" lon="38.8365730"><time>2020-11-01T14:26:10.613</time></trkpt><trkpt lat="55.5403670" lon="38.8366580"><time>2020-11-01T14:26:13.610</time></trkpt><trkpt lat="55.5403900" lon="38.8368380"><time>2020-11-01T14:26:21.617</time></trkpt><trkpt lat="55.5404070" lon="38.8369330"><time>2020-11-01T14:26:23.610</time></trkpt><trkpt lat="55.5404100" lon="38.8370450"><time>2020-11-01T14:26:26.610</time></trkpt><trkpt lat="55.5404080" lon="38.8371500"><time>2020-11-01T14:26:29.613</time></trkpt><trkpt lat="55.5403330" lon="38.8373400"><time>2020-11-01T14:26:41.607</time></trkpt><trkpt lat="55.5403230" lon="38.8374250"><time>2020-11-01T14:26:48.610</time></trkpt><trkpt lat="55.5402230" lon="38.8373370"><time>2020-11-01T14:27:24.613</time></trkpt><trkpt lat="55.5401780" lon="38.8373270"><time>2020-11-01T14:27:27.613</time></trkpt><trkpt lat="55.5401470" lon="38.8374780"><time>2020-11-01T14:27:38.613</time></trkpt><trkpt lat="55.5400980" lon="38.8377050"><time>2020-11-01T14:27:49.613</time></trkpt><trkpt lat="55.5401420" lon="38.8375980"><time>2020-11-01T14:28:06.613</time></trkpt><trkpt lat="55.5401920" lon="38.8374480"><time>2020-11-01T14:28:27.617</time></trkpt><trkpt lat="55.5402330" lon="38.8373870"><time>2020-11-01T14:28:29.607</time></trkpt><trkpt lat="55.5402600" lon="38.8373080"><time>2020-11-01T14:28:33.610</time></trkpt><trkpt lat="55.5403300" lon="38.8371430"><time>2020-11-01T14:28:52.613</time></trkpt><trkpt lat="55.5403850" lon="38.8370870"><time>2020-11-01T14:28:57.613</time></trkpt><trkpt lat="55.5404300" lon="38.8370530"><time>2020-11-01T14:28:59.613</time></trkpt><trkpt lat="55.5404580" lon="38.8369720"><time>2020-11-01T14:29:02.617</time></trkpt><trkpt lat="55.5405050" lon="38.8368950"><time>2020-11-01T14:29:04.610</time></trkpt><trkpt lat="55.5405520" lon="38.8368370"><time>2020-11-01T14:29:09.617</time></trkpt><trkpt lat="55.5406100" lon="38.8368330"><time>2020-11-01T14:29:13.617</time></trkpt><trkpt lat="55.5406520" lon="38.8367980"><time>2020-11-01T14:29:15.613</time></trkpt><trkpt lat="55.5407130" lon="38.8367600"><time>2020-11-01T14:29:17.617</time></trkpt><trkpt lat="55.5407420" lon="38.8366900"><time>2020-11-01T14:29:19.613</time></trkpt><trkpt lat="55.5407820" lon="38.8366430"><time>2020-11-01T14:29:21.613</time></trkpt><trkpt lat="55.5408150" lon="38.8365900"><time>2020-11-01T14:29:22.613</time></trkpt><trkpt lat="55.5408650" lon="38.8365120"><time>2020-11-01T14:29:24.617</time></trkpt><trkpt lat="55.5409300" lon="38.8364430"><time>2020-11-01T14:29:27.677</time></trkpt><trkpt lat="55.5409830" lon="38.8364120"><time>2020-11-01T14:29:30.617</time></trkpt><trkpt lat="55.5410470" lon="38.8364380"><time>2020-11-01T14:29:32.613</time></trkpt><trkpt lat="55.5411170" lon="38.8364570"><time>2020-11-01T14:29:34.610</time></trkpt><trkpt lat="55.5411830" lon="38.8364700"><time>2020-11-01T14:29:37.610</time></trkpt><trkpt lat="55.5412270" lon="38.8364350"><time>2020-11-01T14:29:40.610</time></trkpt><trkpt lat="55.5412730" lon="38.8363920"><time>2020-11-01T14:29:42.613</time></trkpt><trkpt lat="55.5413370" lon="38.8363620"><time>2020-11-01T14:29:45.610</time></trkpt><trkpt lat="55.5413330" lon="38.8362730"><time>2020-11-01T14:29:48.613</time></trkpt><trkpt lat="55.5413920" lon="38.8362250"><time>2020-11-01T14:29:51.613</time></trkpt><trkpt lat="55.5414500" lon="38.8361820"><time>2020-11-01T14:29:54.617</time></trkpt><trkpt lat="55.5414950" lon="38.8361450"><time>2020-11-01T14:29:56.613</time></trkpt><trkpt lat="55.5415500" lon="38.8361170"><time>2020-11-01T14:29:58.617</time></trkpt><trkpt lat="55.5416030" lon="38.8360900"><time>2020-11-01T14:30:00.617</time></trkpt><trkpt lat="55.5416650" lon="38.8360320"><time>2020-11-01T14:30:03.610</time></trkpt><trkpt lat="55.5417150" lon="38.8360130"><time>2020-11-01T14:30:05.613</time></trkpt><trkpt lat="55.5417670" lon="38.8359950"><time>2020-11-01T14:30:07.610</time></trkpt><trkpt lat="55.5418250" lon="38.8359580"><time>2020-11-01T14:30:11.610</time></trkpt><trkpt lat="55.5418750" lon="38.8359530"><time>2020-11-01T14:30:14.617</time></trkpt><trkpt lat="55.5419720" lon="38.8359000"><time>2020-11-01T14:30:22.610</time></trkpt><trkpt lat="55.5419180" lon="38.8359030"><time>2020-11-01T14:30:39.613</time></trkpt><trkpt lat="55.5419480" lon="38.8358080"><time>2020-11-01T14:30:48.613</time></trkpt><trkpt lat="55.5419600" lon="38.8357120"><time>2020-11-01T14:30:51.617</time></trkpt><trkpt lat="55.5419980" lon="38.8356680"><time>2020-11-01T14:30:53.613</time></trkpt><trkpt lat="55.5420480" lon="38.8356420"><time>2020-11-01T14:30:55.613</time></trkpt><trkpt lat="55.5421150" lon="38.8356100"><time>2020-11-01T14:30:57.613</time></trkpt><trkpt lat="55.5421550" lon="38.8355500"><time>2020-11-01T14:30:59.613</time></trkpt><trkpt lat="55.5421770" lon="38.8354550"><time>2020-11-01T14:31:02.610</time></trkpt><trkpt lat="55.5422080" lon="38.8353780"><time>2020-11-01T14:31:05.610</time></trkpt><trkpt lat="55.5422470" lon="38.8353050"><time>2020-11-01T14:31:08.610</time></trkpt><trkpt lat="55.5422750" lon="38.8352180"><time>2020-11-01T14:31:11.613</time></trkpt><trkpt lat="55.5423080" lon="38.8351330"><time>2020-11-01T14:31:15.613</time></trkpt><trkpt lat="55.5423530" lon="38.8350780"><time>2020-11-01T14:31:18.617</time></trkpt><trkpt lat="55.5424270" lon="38.8348820"><time>2020-11-01T14:31:28.610</time></trkpt><trkpt lat="55.5424570" lon="38.8348170"><time>2020-11-01T14:31:30.610</time></trkpt><trkpt lat="55.5424850" lon="38.8347420"><time>2020-11-01T14:31:32.613</time></trkpt><trkpt lat="55.5424920" lon="38.8346520"><time>2020-11-01T14:31:34.620</time></trkpt><trkpt lat="55.5425030" lon="38.8345720"><time>2020-11-01T14:31:36.617</time></trkpt><trkpt lat="55.5425230" lon="38.8344970"><time>2020-11-01T14:31:38.613</time></trkpt><trkpt lat="55.5425480" lon="38.8344220"><time>2020-11-01T14:31:40.617</time></trkpt><trkpt lat="55.5425750" lon="38.8343470"><time>2020-11-01T14:31:42.607</time></trkpt><trkpt lat="55.5426020" lon="38.8342630"><time>2020-11-01T14:31:45.613</time></trkpt><trkpt lat="55.5427000" lon="38.8342770"><time>2020-11-01T14:31:53.610</time></trkpt><trkpt lat="55.5427400" lon="38.8342100"><time>2020-11-01T14:31:57.613</time></trkpt><trkpt lat="55.5427600" lon="38.8341200"><time>2020-11-01T14:32:00.613</time></trkpt><trkpt lat="55.5427600" lon="38.8340300"><time>2020-11-01T14:32:02.613</time></trkpt><trkpt lat="55.5427600" lon="38.8339430"><time>2020-11-01T14:32:04.610</time></trkpt><trkpt lat="55.5427720" lon="38.8338520"><time>2020-11-01T14:32:06.613</time></trkpt><trkpt lat="55.5427920" lon="38.8337430"><time>2020-11-01T14:32:08.610</time></trkpt><trkpt lat="55.5428080" lon="38.8336480"><time>2020-11-01T14:32:10.613</time></trkpt><trkpt lat="55.5428370" lon="38.8335850"><time>2020-11-01T14:32:12.613</time></trkpt><trkpt lat="55.5428580" lon="38.8334670"><time>2020-11-01T14:32:15.610</time></trkpt><trkpt lat="55.5428650" lon="38.8333730"><time>2020-11-01T14:32:18.613</time></trkpt><trkpt lat="55.5429030" lon="38.8333150"><time>2020-11-01T14:32:20.613</time></trkpt><trkpt lat="55.5429300" lon="38.8332230"><time>2020-11-01T14:32:23.610</time></trkpt><trkpt lat="55.5429780" lon="38.8331550"><time>2020-11-01T14:32:27.617</time></trkpt><trkpt lat="55.5430200" lon="38.8331050"><time>2020-11-01T14:32:29.613</time></trkpt><trkpt lat="55.5430550" lon="38.8330200"><time>2020-11-01T14:32:31.613</time></trkpt><trkpt lat="55.5430770" lon="38.8329350"><time>2020-11-01T14:32:33.613</time></trkpt><trkpt lat="55.5431070" lon="38.8328380"><time>2020-11-01T14:32:35.613</time></trkpt><trkpt lat="55.5431220" lon="38.8327380"><time>2020-11-01T14:32:37.607</time></trkpt><trkpt lat="55.5431400" lon="38.8326380"><time>2020-11-01T14:32:39.613</time></trkpt><trkpt lat="55.5431670" lon="38.8325730"><time>2020-11-01T14:32:41.610</time></trkpt><trkpt lat="55.5431880" lon="38.8325020"><time>2020-11-01T14:32:43.613</time></trkpt><trkpt lat="55.5432480" lon="38.8324370"><time>2020-11-01T14:32:45.610</time></trkpt><trkpt lat="55.5432870" lon="38.8323730"><time>2020-11-01T14:32:47.613</time></trkpt><trkpt lat="55.5433200" lon="38.8323150"><time>2020-11-01T14:32:49.607</time></trkpt><trkpt lat="55.5433450" lon="38.8322370"><time>2020-11-01T14:32:52.617</time></trkpt><trkpt lat="55.5433820" lon="38.8321530"><time>2020-11-01T14:32:55.613</time></trkpt><trkpt lat="55.5434730" lon="38.8320500"><time>2020-11-01T14:33:04.613</time></trkpt><trkpt lat="55.5434630" lon="38.8319300"><time>2020-11-01T14:33:07.617</time></trkpt><trkpt lat="55.5434630" lon="38.8317420"><time>2020-11-01T14:33:11.610</time></trkpt><trkpt lat="55.5434500" lon="38.8315980"><time>2020-11-01T14:33:13.613</time></trkpt><trkpt lat="55.5434570" lon="38.8315070"><time>2020-11-01T14:33:15.610</time></trkpt><trkpt lat="55.5434700" lon="38.8314280"><time>2020-11-01T14:33:17.610</time></trkpt><trkpt lat="55.5434850" lon="38.8313380"><time>2020-11-01T14:33:19.613</time></trkpt><trkpt lat="55.5435100" lon="38.8312630"><time>2020-11-01T14:33:21.613</time></trkpt><trkpt lat="55.5435330" lon="38.8311650"><time>2020-11-01T14:33:23.613</time></trkpt><trkpt lat="55.5435600" lon="38.8310780"><time>2020-11-01T14:33:25.613</time></trkpt><trkpt lat="55.5435530" lon="38.8309870"><time>2020-11-01T14:33:28.610</time></trkpt><trkpt lat="55.5434730" lon="38.8309600"><time>2020-11-01T14:33:40.613</time></trkpt><trkpt lat="55.5434220" lon="38.8309880"><time>2020-11-01T14:33:42.610</time></trkpt><trkpt lat="55.5433700" lon="38.8310400"><time>2020-11-01T14:33:44.613</time></trkpt><trkpt lat="55.5433070" lon="38.8311050"><time>2020-11-01T14:33:46.613</time></trkpt><trkpt lat="55.5432620" lon="38.8311180"><time>2020-11-01T14:33:47.610</time></trkpt><trkpt lat="55.5432000" lon="38.8311580"><time>2020-11-01T14:33:49.617</time></trkpt><trkpt lat="55.5431520" lon="38.8311970"><time>2020-11-01T14:33:51.617</time></trkpt><trkpt lat="55.5430930" lon="38.8312100"><time>2020-11-01T14:33:54.613</time></trkpt><trkpt lat="55.5430400" lon="38.8312130"><time>2020-11-01T14:33:56.617</time></trkpt><trkpt lat="55.5429930" lon="38.8312470"><time>2020-11-01T14:33:59.610</time></trkpt><trkpt lat="55.5429550" lon="38.8312930"><time>2020-11-01T14:34:02.610</time></trkpt><trkpt lat="55.5428950" lon="38.8313530"><time>2020-11-01T14:34:06.613</time></trkpt><trkpt lat="55.5428300" lon="38.8313980"><time>2020-11-01T14:34:08.617</time></trkpt><trkpt lat="55.5427850" lon="38.8314420"><time>2020-11-01T14:34:10.613</time></trkpt><trkpt lat="55.5427520" lon="38.8315000"><time>2020-11-01T14:34:12.610</time></trkpt><trkpt lat="55.5427200" lon="38.8315680"><time>2020-11-01T14:34:14.613</time></trkpt><trkpt lat="55.5426900" lon="38.8316330"><time>2020-11-01T14:34:16.617</time></trkpt><trkpt lat="55.5426700" lon="38.8317200"><time>2020-11-01T14:34:20.617</time></trkpt><trkpt lat="55.5426280" lon="38.8317730"><time>2020-11-01T14:34:22.613</time></trkpt><trkpt lat="55.5425820" lon="38.8318100"><time>2020-11-01T14:34:24.613</time></trkpt><trkpt lat="55.5425320" lon="38.8318450"><time>2020-11-01T14:34:27.613</time></trkpt><trkpt lat="55.5424570" lon="38.8318670"><time>2020-11-01T14:34:29.613</time></trkpt><trkpt lat="55.5424080" lon="38.8319070"><time>2020-11-01T14:34:31.613</time></trkpt><trkpt lat="55.5423530" lon="38.8319330"><time>2020-11-01T14:34:33.613</time></trkpt><trkpt lat="55.5423120" lon="38.8319770"><time>2020-11-01T14:34:35.613</time></trkpt><trkpt lat="55.5423000" lon="38.8320550"><time>2020-11-01T14:34:37.613</time></trkpt><trkpt lat="55.5422830" lon="38.8321470"><time>2020-11-01T14:34:40.613</time></trkpt><trkpt lat="55.5422350" lon="38.8322100"><time>2020-11-01T14:34:41.613</time></trkpt><trkpt lat="55.5421730" lon="38.8322970"><time>2020-11-01T14:34:44.613</time></trkpt><trkpt lat="55.5421400" lon="38.8323520"><time>2020-11-01T14:34:46.613</time></trkpt><trkpt lat="55.5421020" lon="38.8323950"><time>2020-11-01T14:34:49.613</time></trkpt><trkpt lat="55.5420500" lon="38.8324180"><time>2020-11-01T14:34:52.610</time></trkpt><trkpt lat="55.5420100" lon="38.8324680"><time>2020-11-01T14:34:56.613</time></trkpt><trkpt lat="55.5419630" lon="38.8325180"><time>2020-11-01T14:34:58.613</time></trkpt><trkpt lat="55.5419280" lon="38.8325820"><time>2020-11-01T14:35:00.607</time></trkpt><trkpt lat="55.5418950" lon="38.8326400"><time>2020-11-01T14:35:03.610</time></trkpt><trkpt lat="55.5418100" lon="38.8327050"><time>2020-11-01T14:35:07.613</time></trkpt><trkpt lat="55.5417520" lon="38.8327600"><time>2020-11-01T14:35:09.613</time></trkpt><trkpt lat="55.5416920" lon="38.8328180"><time>2020-11-01T14:35:11.610</time></trkpt><trkpt lat="55.5416480" lon="38.8328680"><time>2020-11-01T14:35:13.613</time></trkpt><trkpt lat="55.5415850" lon="38.8329020"><time>2020-11-01T14:35:15.613</time></trkpt><trkpt lat="55.5415270" lon="38.8329470"><time>2020-11-01T14:35:17.613</time></trkpt><trkpt lat="55.5414770" lon="38.8329980"><time>2020-11-01T14:35:20.613</time></trkpt><trkpt lat="55.5414430" lon="38.8330600"><time>2020-11-01T14:35:22.613</time></trkpt><trkpt lat="55.5414050" lon="38.8331270"><time>2020-11-01T14:35:25.617</time></trkpt><trkpt lat="55.5413500" lon="38.8331830"><time>2020-11-01T14:35:27.613</time></trkpt><trkpt lat="55.5413100" lon="38.8332230"><time>2020-11-01T14:35:29.613</time></trkpt><trkpt lat="55.5412670" lon="38.8332670"><time>2020-11-01T14:35:31.613</time></trkpt><trkpt lat="55.5412170" lon="38.8332970"><time>2020-11-01T14:35:35.613</time></trkpt><trkpt lat="55.5411630" lon="38.8333250"><time>2020-11-01T14:35:39.610</time></trkpt><trkpt lat="55.5411050" lon="38.8333780"><time>2020-11-01T14:35:42.613</time></trkpt><trkpt lat="55.5410620" lon="38.8334030"><time>2020-11-01T14:35:44.617</time></trkpt><trkpt lat="55.5410080" lon="38.8334020"><time>2020-11-01T14:35:46.620</time></trkpt><trkpt lat="55.5409480" lon="38.8334000"><time>2020-11-01T14:35:48.613</time></trkpt><trkpt lat="55.5408770" lon="38.8334270"><time>2020-11-01T14:35:51.613</time></trkpt><trkpt lat="55.5408200" lon="38.8334700"><time>2020-11-01T14:35:53.613</time></trkpt><trkpt lat="55.5407730" lon="38.8335330"><time>2020-11-01T14:35:56.613</time></trkpt><trkpt lat="55.5407170" lon="38.8335470"><time>2020-11-01T14:35:58.613</time></trkpt><trkpt lat="55.5406820" lon="38.8336270"><time>2020-11-01T14:36:01.617</time></trkpt><trkpt lat="55.5406530" lon="38.8336950"><time>2020-11-01T14:36:04.613</time></trkpt><trkpt lat="55.5405850" lon="38.8339220"><time>2020-11-01T14:36:14.617</time></trkpt><trkpt lat="55.5405480" lon="38.8339730"><time>2020-11-01T14:36:16.613</time></trkpt><trkpt lat="55.5405070" lon="38.8340320"><time>2020-11-01T14:36:18.613</time></trkpt><trkpt lat="55.5404650" lon="38.8340900"><time>2020-11-01T14:36:20.620</time></trkpt><trkpt lat="55.5403350" lon="38.8341220"><time>2020-11-01T14:36:33.613</time></trkpt><trkpt lat="55.5402580" lon="38.8340650"><time>2020-11-01T14:36:42.613</time></trkpt><trkpt lat="55.5402120" lon="38.8340250"><time>2020-11-01T14:36:44.617</time></trkpt><trkpt lat="55.5401520" lon="38.8340550"><time>2020-11-01T14:36:48.617</time></trkpt><trkpt lat="55.5401020" lon="38.8340950"><time>2020-11-01T14:36:50.610</time></trkpt><trkpt lat="55.5400650" lon="38.8341570"><time>2020-11-01T14:36:52.613</time></trkpt><trkpt lat="55.5400150" lon="38.8341630"><time>2020-11-01T14:36:53.613</time></trkpt><trkpt lat="55.5399630" lon="38.8342050"><time>2020-11-01T14:36:55.610</time></trkpt><trkpt lat="55.5399300" lon="38.8342720"><time>2020-11-01T14:36:57.617</time></trkpt><trkpt lat="55.5398930" lon="38.8343370"><time>2020-11-01T14:37:00.613</time></trkpt><trkpt lat="55.5398600" lon="38.8343970"><time>2020-11-01T14:37:02.617</time></trkpt><trkpt lat="55.5398330" lon="38.8344900"><time>2020-11-01T14:37:04.613</time></trkpt><trkpt lat="55.5397880" lon="38.8345450"><time>2020-11-01T14:37:06.613</time></trkpt><trkpt lat="55.5397580" lon="38.8346320"><time>2020-11-01T14:37:08.610</time></trkpt><trkpt lat="55.5397270" lon="38.8347170"><time>2020-11-01T14:37:10.603</time></trkpt><trkpt lat="55.5397320" lon="38.8348300"><time>2020-11-01T14:37:11.613</time></trkpt><trkpt lat="55.5397330" lon="38.8349550"><time>2020-11-01T14:37:13.617</time></trkpt><trkpt lat="55.5396670" lon="38.8349880"><time>2020-11-01T14:37:16.617</time></trkpt><trkpt lat="55.5396120" lon="38.8350200"><time>2020-11-01T14:37:18.617</time></trkpt><trkpt lat="55.5395730" lon="38.8350800"><time>2020-11-01T14:37:22.617</time></trkpt><trkpt lat="55.5395520" lon="38.8351550"><time>2020-11-01T14:37:27.617</time></trkpt><trkpt lat="55.5395320" lon="38.8352420"><time>2020-11-01T14:37:29.617</time></trkpt><trkpt lat="55.5395120" lon="38.8353200"><time>2020-11-01T14:37:32.617</time></trkpt><trkpt lat="55.5395220" lon="38.8354200"><time>2020-11-01T14:37:35.613</time></trkpt><trkpt lat="55.5395000" lon="38.8355230"><time>2020-11-01T14:37:37.607</time></trkpt><trkpt lat="55.5395000" lon="38.8356170"><time>2020-11-01T14:37:40.620</time></trkpt><trkpt lat="55.5394870" lon="38.8357120"><time>2020-11-01T14:37:43.773</time></trkpt><trkpt lat="55.5395250" lon="38.8357620"><time>2020-11-01T14:37:47.613</time></trkpt><trkpt lat="55.5394970" lon="38.8359620"><time>2020-11-01T14:37:55.620</time></trkpt><trkpt lat="55.5394820" lon="38.8360650"><time>2020-11-01T14:37:58.607</time></trkpt><trkpt lat="55.5394930" lon="38.8361550"><time>2020-11-01T14:38:00.620</time></trkpt><trkpt lat="55.5395020" lon="38.8362370"><time>2020-11-01T14:38:02.617</time></trkpt><trkpt lat="55.5395370" lon="38.8363250"><time>2020-11-01T14:38:05.617</time></trkpt><trkpt lat="55.5395820" lon="38.8363880"><time>2020-11-01T14:38:10.613</time></trkpt><trkpt lat="55.5396720" lon="38.8365170"><time>2020-11-01T14:38:21.617</time></trkpt><trkpt lat="55.5397180" lon="38.8367250"><time>2020-11-01T14:38:46.613</time></trkpt><trkpt lat="55.5398080" lon="38.8368770"><time>2020-11-01T14:39:00.617</time></trkpt><trkpt lat="55.5399150" lon="38.8369600"><time>2020-11-01T14:39:12.617</time></trkpt><trkpt lat="55.5400120" lon="38.8370970"><time>2020-11-01T14:39:39.617</time></trkpt><trkpt lat="55.5399550" lon="38.8371120"><time>2020-11-01T14:40:06.617</time></trkpt><trkpt lat="55.5399070" lon="38.8371400"><time>2020-11-01T14:40:13.617</time></trkpt><trkpt lat="55.5398530" lon="38.8371680"><time>2020-11-01T14:40:19.617</time></trkpt><trkpt lat="55.5397900" lon="38.8373130"><time>2020-11-01T14:40:32.617</time></trkpt><trkpt lat="55.5398070" lon="38.8374320"><time>2020-11-01T14:40:38.613</time></trkpt><trkpt lat="55.5398570" lon="38.8376030"><time>2020-11-01T14:40:56.617</time></trkpt><trkpt lat="55.5398930" lon="38.8378050"><time>2020-11-01T14:41:09.613</time></trkpt><trkpt lat="55.5399730" lon="38.8379070"><time>2020-11-01T14:41:39.610</time></trkpt><trkpt lat="55.5399300" lon="38.8380930"><time>2020-11-01T14:41:52.613</time></trkpt><trkpt lat="55.5398450" lon="38.8382370"><time>2020-11-01T14:42:06.617</time></trkpt><trkpt lat="55.5398530" lon="38.8381550"><time>2020-11-01T14:42:13.447</time></trkpt><trkpt lat="55.5398380" lon="38.8381630"><time>2020-11-01T14:42:22.750</time></trkpt><trkpt lat="55.5396300" lon="38.8371600"><time>2020-11-01T14:42:34.610</time></trkpt><trkpt lat="55.5394880" lon="38.8370320"><time>2020-11-01T14:42:35.613</time></trkpt><trkpt lat="55.5393780" lon="38.8368830"><time>2020-11-01T14:42:36.677</time></trkpt><trkpt lat="55.5392320" lon="38.8367670"><time>2020-11-01T14:42:37.607</time></trkpt><trkpt lat="55.5391700" lon="38.8367800"><time>2020-11-01T14:42:38.607</time></trkpt><trkpt lat="55.5397920" lon="38.8373280"><time>2020-11-01T14:42:42.077</time></trkpt><trkpt lat="55.5398280" lon="38.8375570"><time>2020-11-01T14:42:43.613</time></trkpt><trkpt lat="55.5399370" lon="38.8377000"><time>2020-11-01T14:42:44.613</time></trkpt><trkpt lat="55.5400200" lon="38.8379980"><time>2020-11-01T14:42:45.617</time></trkpt><trkpt lat="55.5401100" lon="38.8381600"><time>2020-11-01T14:42:46.610</time></trkpt><trkpt lat="55.5400520" lon="38.8380580"><time>2020-11-01T14:42:57.620</time></trkpt><trkpt lat="55.5399900" lon="38.8380370"><time>2020-11-01T14:42:59.617</time></trkpt><trkpt lat="55.5400250" lon="38.8378770"><time>2020-11-01T14:43:22.610</time></trkpt><trkpt lat="55.5401250" lon="38.8378280"><time>2020-11-01T14:43:38.613</time></trkpt><trkpt lat="55.5401400" lon="38.8376180"><time>2020-11-01T14:43:48.613</time></trkpt><trkpt lat="55.5401870" lon="38.8375150"><time>2020-11-01T14:43:50.613</time></trkpt><trkpt lat="55.5401300" lon="38.8375480"><time>2020-11-01T14:43:51.623</time></trkpt><trkpt lat="55.5400720" lon="38.8375580"><time>2020-11-01T14:43:53.617</time></trkpt><trkpt lat="55.5400270" lon="38.8375030"><time>2020-11-01T14:44:02.617</time></trkpt><trkpt lat="55.5400700" lon="38.8374400"><time>2020-11-01T14:44:05.617</time></trkpt><trkpt lat="55.5401220" lon="38.8374000"><time>2020-11-01T14:44:06.617</time></trkpt><trkpt lat="55.5401430" lon="38.8373270"><time>2020-11-01T14:44:08.700</time></trkpt><trkpt lat="55.5401380" lon="38.8372400"><time>2020-11-01T14:44:11.617</time></trkpt><trkpt lat="55.5401000" lon="38.8371920"><time>2020-11-01T14:44:16.617</time></trkpt><trkpt lat="55.5400220" lon="38.8370670"><time>2020-11-01T14:44:37.617</time></trkpt><trkpt lat="55.5399180" lon="38.8370070"><time>2020-11-01T14:44:52.840</time></trkpt><trkpt lat="55.5398530" lon="38.8368420"><time>2020-11-01T14:45:15.617</time></trkpt><trkpt lat="55.5397480" lon="38.8367280"><time>2020-11-01T14:45:28.613</time></trkpt><trkpt lat="55.5397050" lon="38.8366580"><time>2020-11-01T14:45:31.617</time></trkpt><trkpt lat="55.5396370" lon="38.8365680"><time>2020-11-01T14:45:34.613</time></trkpt><trkpt lat="55.5396170" lon="38.8364970"><time>2020-11-01T14:45:37.617</time></trkpt><trkpt lat="55.5395920" lon="38.8363450"><time>2020-11-01T14:45:46.620</time></trkpt><trkpt lat="55.5395680" lon="38.8361550"><time>2020-11-01T14:46:04.617</time></trkpt><trkpt lat="55.5395930" lon="38.8359500"><time>2020-11-01T14:46:16.617</time></trkpt><trkpt lat="55.5396420" lon="38.8357820"><time>2020-11-01T14:46:26.617</time></trkpt><trkpt lat="55.5397000" lon="38.8357150"><time>2020-11-01T14:46:28.617</time></trkpt><trkpt lat="55.5397500" lon="38.8356550"><time>2020-11-01T14:46:30.617</time></trkpt><trkpt lat="55.5397880" lon="38.8355880"><time>2020-11-01T14:46:31.617</time></trkpt><trkpt lat="55.5398300" lon="38.8354800"><time>2020-11-01T14:46:33.617</time></trkpt><trkpt lat="55.5397880" lon="38.8354050"><time>2020-11-01T14:46:36.617</time></trkpt><trkpt lat="55.5398130" lon="38.8352500"><time>2020-11-01T14:46:44.610</time></trkpt><trkpt lat="55.5398170" lon="38.8351420"><time>2020-11-01T14:46:47.610</time></trkpt><trkpt lat="55.5398350" lon="38.8350600"><time>2020-11-01T14:46:48.617</time></trkpt><trkpt lat="55.5398520" lon="38.8349680"><time>2020-11-01T14:46:50.617</time></trkpt><trkpt lat="55.5398650" lon="38.8348680"><time>2020-11-01T14:46:52.613</time></trkpt><trkpt lat="55.5398930" lon="38.8347930"><time>2020-11-01T14:46:55.620</time></trkpt><trkpt lat="55.5399030" lon="38.8347030"><time>2020-11-01T14:46:59.617</time></trkpt><trkpt lat="55.5399450" lon="38.8346050"><time>2020-11-01T14:47:02.613</time></trkpt><trkpt lat="55.5399620" lon="38.8345200"><time>2020-11-01T14:47:04.613</time></trkpt><trkpt lat="55.5400020" lon="38.8344050"><time>2020-11-01T14:47:08.617</time></trkpt><trkpt lat="55.5400220" lon="38.8343330"><time>2020-11-01T14:47:11.617</time></trkpt><trkpt lat="55.5399720" lon="38.8341880"><time>2020-11-01T14:47:30.613</time></trkpt><trkpt lat="55.5398870" lon="38.8340120"><time>2020-11-01T14:47:42.613</time></trkpt><trkpt lat="55.5398400" lon="38.8340000"><time>2020-11-01T14:47:44.613</time></trkpt><trkpt lat="55.5397780" lon="38.8339870"><time>2020-11-01T14:47:47.613</time></trkpt><trkpt lat="55.5397120" lon="38.8339830"><time>2020-11-01T14:47:49.613</time></trkpt><trkpt lat="55.5396650" lon="38.8339520"><time>2020-11-01T14:47:51.617</time></trkpt><trkpt lat="55.5396170" lon="38.8339020"><time>2020-11-01T14:47:53.610</time></trkpt><trkpt lat="55.5395770" lon="38.8338630"><time>2020-11-01T14:47:55.617</time></trkpt><trkpt lat="55.5395350" lon="38.8338170"><time>2020-11-01T14:47:57.620</time></trkpt><trkpt lat="55.5394920" lon="38.8337880"><time>2020-11-01T14:47:59.617</time></trkpt><trkpt lat="55.5394420" lon="38.8337580"><time>2020-11-01T14:48:01.623</time></trkpt><trkpt lat="55.5393800" lon="38.8337330"><time>2020-11-01T14:48:03.610</time></trkpt><trkpt lat="55.5393330" lon="38.8337150"><time>2020-11-01T14:48:06.617</time></trkpt><trkpt lat="55.5392170" lon="38.8336920"><time>2020-11-01T14:48:15.617</time></trkpt><trkpt lat="55.5391650" lon="38.8336780"><time>2020-11-01T14:48:17.617</time></trkpt><trkpt lat="55.5391170" lon="38.8336700"><time>2020-11-01T14:48:19.617</time></trkpt><trkpt lat="55.5389970" lon="38.8336830"><time>2020-11-01T14:48:27.617</time></trkpt><trkpt lat="55.5389470" lon="38.8336820"><time>2020-11-01T14:48:29.617</time></trkpt><trkpt lat="55.5388380" lon="38.8337050"><time>2020-11-01T14:48:35.610</time></trkpt><trkpt lat="55.5387870" lon="38.8337070"><time>2020-11-01T14:48:38.613</time></trkpt><trkpt lat="55.5386880" lon="38.8337200"><time>2020-11-01T14:48:49.620</time></trkpt><trkpt lat="55.5386330" lon="38.8337350"><time>2020-11-01T14:48:53.617</time></trkpt><trkpt lat="55.5385620" lon="38.8337320"><time>2020-11-01T14:48:56.620</time></trkpt><trkpt lat="55.5385120" lon="38.8337000"><time>2020-11-01T14:48:59.617</time></trkpt><trkpt lat="55.5384600" lon="38.8336930"><time>2020-11-01T14:49:02.617</time></trkpt><trkpt lat="55.5384120" lon="38.8336970"><time>2020-11-01T14:49:05.617</time></trkpt><trkpt lat="55.5383100" lon="38.8337300"><time>2020-11-01T14:49:13.617</time></trkpt><trkpt lat="55.5382630" lon="38.8337300"><time>2020-11-01T14:49:15.613</time></trkpt><trkpt lat="55.5382080" lon="38.8337070"><time>2020-11-01T14:49:17.620</time></trkpt><trkpt lat="55.5381480" lon="38.8336850"><time>2020-11-01T14:49:20.617</time></trkpt><trkpt lat="55.5380970" lon="38.8336530"><time>2020-11-01T14:49:23.620</time></trkpt><trkpt lat="55.5380450" lon="38.8336400"><time>2020-11-01T14:49:26.617</time></trkpt><trkpt lat="55.5379980" lon="38.8335780"><time>2020-11-01T14:49:27.620</time></trkpt><trkpt lat="55.5379330" lon="38.8335280"><time>2020-11-01T14:49:28.617</time></trkpt><trkpt lat="55.5378730" lon="38.8334380"><time>2020-11-01T14:49:31.613</time></trkpt><trkpt lat="55.5378280" lon="38.8333920"><time>2020-11-01T14:49:32.617</time></trkpt><trkpt lat="55.5377530" lon="38.8333080"><time>2020-11-01T14:49:34.620</time></trkpt><trkpt lat="55.5376230" lon="38.8332100"><time>2020-11-01T14:49:44.617</time></trkpt><trkpt lat="55.5375780" lon="38.8331800"><time>2020-11-01T14:49:46.617</time></trkpt><trkpt lat="55.5374930" lon="38.8330970"><time>2020-11-01T14:49:51.620</time></trkpt><trkpt lat="55.5374480" lon="38.8330480"><time>2020-11-01T14:49:53.617</time></trkpt><trkpt lat="55.5373450" lon="38.8330080"><time>2020-11-01T14:49:59.617</time></trkpt><trkpt lat="55.5372800" lon="38.8329880"><time>2020-11-01T14:50:02.617</time></trkpt><trkpt lat="55.5372350" lon="38.8329470"><time>2020-11-01T14:50:06.613</time></trkpt><trkpt lat="55.5372030" lon="38.8328870"><time>2020-11-01T14:50:09.617</time></trkpt><trkpt lat="55.5371070" lon="38.8327530"><time>2020-11-01T14:50:24.617</time></trkpt><trkpt lat="55.5370470" lon="38.8327130"><time>2020-11-01T14:50:27.623</time></trkpt><trkpt lat="55.5369900" lon="38.8326750"><time>2020-11-01T14:50:30.617</time></trkpt><trkpt lat="55.5368970" lon="38.8326120"><time>2020-11-01T14:50:43.620</time></trkpt><trkpt lat="55.5367570" lon="38.8326050"><time>2020-11-01T14:50:54.617</time></trkpt><trkpt lat="55.5366080" lon="38.8325820"><time>2020-11-01T14:51:06.617</time></trkpt><trkpt lat="55.5365600" lon="38.8325570"><time>2020-11-01T14:51:08.613</time></trkpt><trkpt lat="55.5365000" lon="38.8325480"><time>2020-11-01T14:51:11.617</time></trkpt><trkpt lat="55.5364080" lon="38.8325220"><time>2020-11-01T14:51:17.617</time></trkpt><trkpt lat="55.5363530" lon="38.8325050"><time>2020-11-01T14:51:20.617</time></trkpt><trkpt lat="55.5362500" lon="38.8324270"><time>2020-11-01T14:51:26.617</time></trkpt><trkpt lat="55.5362050" lon="38.8323970"><time>2020-11-01T14:51:28.617</time></trkpt><trkpt lat="55.5361600" lon="38.8323780"><time>2020-11-01T14:51:29.617</time></trkpt><trkpt lat="55.5360900" lon="38.8323530"><time>2020-11-01T14:51:31.617</time></trkpt><trkpt lat="55.5359830" lon="38.8323100"><time>2020-11-01T14:51:39.617</time></trkpt><trkpt lat="55.5359380" lon="38.8323320"><time>2020-11-01T14:51:42.617</time></trkpt><trkpt lat="55.5358480" lon="38.8323530"><time>2020-11-01T14:51:47.613</time></trkpt><trkpt lat="55.5357950" lon="38.8323600"><time>2020-11-01T14:51:50.617</time></trkpt><trkpt lat="55.5357150" lon="38.8322750"><time>2020-11-01T14:51:56.613</time></trkpt><trkpt lat="55.5356600" lon="38.8322520"><time>2020-11-01T14:51:58.623</time></trkpt><trkpt lat="55.5355470" lon="38.8322220"><time>2020-11-01T14:52:04.617</time></trkpt><trkpt lat="55.5354170" lon="38.8321680"><time>2020-11-01T14:52:12.617</time></trkpt><trkpt lat="55.5353670" lon="38.8321670"><time>2020-11-01T14:52:15.610</time></trkpt><trkpt lat="55.5352580" lon="38.8321480"><time>2020-11-01T14:52:21.617</time></trkpt><trkpt lat="55.5351070" lon="38.8322050"><time>2020-11-01T14:52:32.613</time></trkpt><trkpt lat="55.5350320" lon="38.8321520"><time>2020-11-01T14:52:34.613</time></trkpt><trkpt lat="55.5349730" lon="38.8321300"><time>2020-11-01T14:52:36.620</time></trkpt><trkpt lat="55.5348470" lon="38.8321150"><time>2020-11-01T14:52:43.620</time></trkpt><trkpt lat="55.5347700" lon="38.8320670"><time>2020-11-01T14:52:45.613</time></trkpt><trkpt lat="55.5347170" lon="38.8320330"><time>2020-11-01T14:52:47.617</time></trkpt><trkpt lat="55.5346270" lon="38.8320120"><time>2020-11-01T14:52:55.617</time></trkpt><trkpt lat="55.5345750" lon="38.8320280"><time>2020-11-01T14:52:58.620</time></trkpt><trkpt lat="55.5345100" lon="38.8320480"><time>2020-11-01T14:53:03.613</time></trkpt><trkpt lat="55.5343730" lon="38.8319850"><time>2020-11-01T14:53:14.617</time></trkpt><trkpt lat="55.5342570" lon="38.8319980"><time>2020-11-01T14:53:24.617</time></trkpt><trkpt lat="55.5342120" lon="38.8320120"><time>2020-11-01T14:53:27.617</time></trkpt><trkpt lat="55.5341100" lon="38.8320320"><time>2020-11-01T14:53:36.610</time></trkpt><trkpt lat="55.5340620" lon="38.8320180"><time>2020-11-01T14:53:39.610</time></trkpt><trkpt lat="55.5339630" lon="38.8320430"><time>2020-11-01T14:53:49.617</time></trkpt><trkpt lat="55.5338300" lon="38.8320500"><time>2020-11-01T14:54:02.617</time></trkpt><trkpt lat="55.5337170" lon="38.8320150"><time>2020-11-01T14:54:12.617</time></trkpt><trkpt lat="55.5336180" lon="38.8320120"><time>2020-11-01T14:54:20.613</time></trkpt><trkpt lat="55.5335620" lon="38.8319720"><time>2020-11-01T14:54:22.617</time></trkpt><trkpt lat="55.5335070" lon="38.8319180"><time>2020-11-01T14:54:24.617</time></trkpt><trkpt lat="55.5333750" lon="38.8317880"><time>2020-11-01T14:54:31.617</time></trkpt><trkpt lat="55.5333200" lon="38.8318550"><time>2020-11-01T14:54:32.617</time></trkpt><trkpt lat="55.5332880" lon="38.8319400"><time>2020-11-01T14:54:34.617</time></trkpt><trkpt lat="55.5332150" lon="38.8320330"><time>2020-11-01T14:54:46.617</time></trkpt><trkpt lat="55.5331630" lon="38.8320730"><time>2020-11-01T14:54:51.620</time></trkpt><trkpt lat="55.5331470" lon="38.8319100"><time>2020-11-01T14:55:16.617</time></trkpt><trkpt lat="55.5332030" lon="38.8317930"><time>2020-11-01T14:55:52.617</time></trkpt><trkpt lat="55.5332400" lon="38.8318870"><time>2020-11-01T14:56:22.843</time></trkpt><trkpt lat="55.5332420" lon="38.8319000"><time>2020-11-01T14:56:35.633</time></trkpt><trkpt lat="55.5332670" lon="38.8306330"><time>2020-11-01T14:56:54.610</time></trkpt><trkpt lat="55.5331670" lon="38.8308830"><time>2020-11-01T14:56:55.613</time></trkpt><trkpt lat="55.5332020" lon="38.8312720"><time>2020-11-01T14:56:56.613</time></trkpt><trkpt lat="55.5333000" lon="38.8312130"><time>2020-11-01T14:56:57.617</time></trkpt><trkpt lat="55.5333650" lon="38.8311380"><time>2020-11-01T14:57:00.297</time></trkpt><trkpt lat="55.5333850" lon="38.8309330"><time>2020-11-01T14:57:03.617</time></trkpt><trkpt lat="55.5334120" lon="38.8308500"><time>2020-11-01T14:57:04.617</time></trkpt><trkpt lat="55.5334380" lon="38.8307730"><time>2020-11-01T14:57:05.620</time></trkpt><trkpt lat="55.5334420" lon="38.8306720"><time>2020-11-01T14:57:14.617</time></trkpt><trkpt lat="55.5333880" lon="38.8306480"><time>2020-11-01T14:57:19.617</time></trkpt><trkpt lat="55.5333380" lon="38.8305870"><time>2020-11-01T14:57:22.617</time></trkpt><trkpt lat="55.5333320" lon="38.8304950"><time>2020-11-01T14:57:27.617</time></trkpt><trkpt lat="55.5333200" lon="38.8303650"><time>2020-11-01T14:57:34.617</time></trkpt><trkpt lat="55.5333370" lon="38.8301370"><time>2020-11-01T14:57:45.617</time></trkpt><trkpt lat="55.5333530" lon="38.8300530"><time>2020-11-01T14:57:49.617</time></trkpt><trkpt lat="55.5333580" lon="38.8299730"><time>2020-11-01T14:57:51.620</time></trkpt><trkpt lat="55.5333820" lon="38.8299020"><time>2020-11-01T14:57:53.620</time></trkpt><trkpt lat="55.5334220" lon="38.8297870"><time>2020-11-01T14:57:56.613</time></trkpt><trkpt lat="55.5334270" lon="38.8296780"><time>2020-11-01T14:57:59.617</time></trkpt><trkpt lat="55.5334470" lon="38.8296020"><time>2020-11-01T14:58:01.617</time></trkpt><trkpt lat="55.5334950" lon="38.8295880"><time>2020-11-01T14:58:03.613</time></trkpt><trkpt lat="55.5335480" lon="38.8295820"><time>2020-11-01T14:58:06.617</time></trkpt><trkpt lat="55.5336150" lon="38.8296280"><time>2020-11-01T14:58:11.577</time></trkpt><trkpt lat="55.5336800" lon="38.8296900"><time>2020-11-01T14:58:14.617</time></trkpt><trkpt lat="55.5337400" lon="38.8297000"><time>2020-11-01T14:58:16.623</time></trkpt><trkpt lat="55.5337930" lon="38.8297020"><time>2020-11-01T14:58:18.613</time></trkpt><trkpt lat="55.5338480" lon="38.8296920"><time>2020-11-01T14:58:22.620</time></trkpt><trkpt lat="55.5338970" lon="38.8296220"><time>2020-11-01T14:58:25.617</time></trkpt><trkpt lat="55.5339520" lon="38.8296270"><time>2020-11-01T14:58:27.623</time></trkpt><trkpt lat="55.5339970" lon="38.8296420"><time>2020-11-01T14:58:29.617</time></trkpt><trkpt lat="55.5340430" lon="38.8296830"><time>2020-11-01T14:58:31.617</time></trkpt><trkpt lat="55.5340950" lon="38.8297230"><time>2020-11-01T14:58:33.617</time></trkpt><trkpt lat="55.5341450" lon="38.8297530"><time>2020-11-01T14:58:35.617</time></trkpt><trkpt lat="55.5341900" lon="38.8297900"><time>2020-11-01T14:58:37.620</time></trkpt><trkpt lat="55.5342230" lon="38.8298430"><time>2020-11-01T14:58:39.617</time></trkpt><trkpt lat="55.5342670" lon="38.8299020"><time>2020-11-01T14:58:42.617</time></trkpt><trkpt lat="55.5343050" lon="38.8299530"><time>2020-11-01T14:58:45.617</time></trkpt><trkpt lat="55.5343470" lon="38.8300070"><time>2020-11-01T14:58:48.613</time></trkpt><trkpt lat="55.5344000" lon="38.8300520"><time>2020-11-01T14:58:52.617</time></trkpt><trkpt lat="55.5344300" lon="38.8302420"><time>2020-11-01T14:59:11.613</time></trkpt><trkpt lat="55.5344720" lon="38.8304350"><time>2020-11-01T14:59:20.617</time></trkpt><trkpt lat="55.5344980" lon="38.8305120"><time>2020-11-01T14:59:23.613</time></trkpt><trkpt lat="55.5345330" lon="38.8306370"><time>2020-11-01T14:59:26.623</time></trkpt><trkpt lat="55.5345550" lon="38.8307350"><time>2020-11-01T14:59:28.617</time></trkpt><trkpt lat="55.5345630" lon="38.8308300"><time>2020-11-01T14:59:32.617</time></trkpt><trkpt lat="55.5345570" lon="38.8309230"><time>2020-11-01T14:59:35.620</time></trkpt><trkpt lat="55.5345520" lon="38.8310830"><time>2020-11-01T14:59:41.613</time></trkpt><trkpt lat="55.5345620" lon="38.8311770"><time>2020-11-01T14:59:44.590</time></trkpt><trkpt lat="55.5345730" lon="38.8312700"><time>2020-11-01T14:59:46.613</time></trkpt><trkpt lat="55.5345730" lon="38.8313580"><time>2020-11-01T14:59:47.610</time></trkpt><trkpt lat="55.5345600" lon="38.8314470"><time>2020-11-01T14:59:48.620</time></trkpt><trkpt lat="55.5345470" lon="38.8315320"><time>2020-11-01T14:59:49.617</time></trkpt><trkpt lat="55.5345330" lon="38.8316400"><time>2020-11-01T14:59:51.617</time></trkpt><trkpt lat="55.5345280" lon="38.8317420"><time>2020-11-01T14:59:53.617</time></trkpt><trkpt lat="55.5345250" lon="38.8318380"><time>2020-11-01T14:59:55.617</time></trkpt><trkpt lat="55.5345120" lon="38.8319230"><time>2020-11-01T14:59:58.617</time></trkpt><trkpt lat="55.5345180" lon="38.8320670"><time>2020-11-01T15:00:01.617</time></trkpt><trkpt lat="55.5345200" lon="38.8321700"><time>2020-11-01T15:00:03.617</time></trkpt><trkpt lat="55.5345380" lon="38.8322780"><time>2020-11-01T15:00:05.620</time></trkpt><trkpt lat="55.5345530" lon="38.8323700"><time>2020-11-01T15:00:08.620</time></trkpt><trkpt lat="55.5345630" lon="38.8324650"><time>2020-11-01T15:00:10.617</time></trkpt><trkpt lat="55.5345700" lon="38.8325520"><time>2020-11-01T15:00:12.613</time></trkpt><trkpt lat="55.5345680" lon="38.8326380"><time>2020-11-01T15:00:14.617</time></trkpt><trkpt lat="55.5345600" lon="38.8327550"><time>2020-11-01T15:00:16.613</time></trkpt><trkpt lat="55.5345470" lon="38.8328850"><time>2020-11-01T15:00:18.620</time></trkpt><trkpt lat="55.5345480" lon="38.8329830"><time>2020-11-01T15:00:21.623</time></trkpt><trkpt lat="55.5345600" lon="38.8330630"><time>2020-11-01T15:00:23.617</time></trkpt><trkpt lat="55.5345550" lon="38.8331630"><time>2020-11-01T15:00:25.613</time></trkpt><trkpt lat="55.5345470" lon="38.8332700"><time>2020-11-01T15:00:28.617</time></trkpt><trkpt lat="55.5345450" lon="38.8333730"><time>2020-11-01T15:00:31.620</time></trkpt><trkpt lat="55.5345400" lon="38.8334580"><time>2020-11-01T15:00:33.613</time></trkpt><trkpt lat="55.5345170" lon="38.8335700"><time>2020-11-01T15:00:36.617</time></trkpt><trkpt lat="55.5345200" lon="38.8336830"><time>2020-11-01T15:00:39.617</time></trkpt><trkpt lat="55.5345180" lon="38.8337730"><time>2020-11-01T15:00:42.617</time></trkpt><trkpt lat="55.5345180" lon="38.8338550"><time>2020-11-01T15:00:44.617</time></trkpt><trkpt lat="55.5345150" lon="38.8339400"><time>2020-11-01T15:00:47.617</time></trkpt><trkpt lat="55.5345230" lon="38.8340220"><time>2020-11-01T15:00:49.617</time></trkpt><trkpt lat="55.5345180" lon="38.8341100"><time>2020-11-01T15:00:51.617</time></trkpt><trkpt lat="55.5345150" lon="38.8341970"><time>2020-11-01T15:00:53.610</time></trkpt><trkpt lat="55.5345130" lon="38.8342830"><time>2020-11-01T15:00:55.617</time></trkpt><trkpt lat="55.5345030" lon="38.8343680"><time>2020-11-01T15:00:57.617</time></trkpt><trkpt lat="55.5345170" lon="38.8344620"><time>2020-11-01T15:01:01.617</time></trkpt><trkpt lat="55.5345080" lon="38.8345850"><time>2020-11-01T15:01:04.617</time></trkpt><trkpt lat="55.5345070" lon="38.8346650"><time>2020-11-01T15:01:06.617</time></trkpt><trkpt lat="55.5345250" lon="38.8347750"><time>2020-11-01T15:01:09.610</time></trkpt><trkpt lat="55.5345420" lon="38.8348520"><time>2020-11-01T15:01:11.620</time></trkpt><trkpt lat="55.5345550" lon="38.8349300"><time>2020-11-01T15:01:13.617</time></trkpt><trkpt lat="55.5345600" lon="38.8350100"><time>2020-11-01T15:01:15.617</time></trkpt><trkpt lat="55.5345550" lon="38.8351150"><time>2020-11-01T15:01:18.617</time></trkpt><trkpt lat="55.5345470" lon="38.8352280"><time>2020-11-01T15:01:21.620</time></trkpt><trkpt lat="55.5345420" lon="38.8353330"><time>2020-11-01T15:01:24.617</time></trkpt><trkpt lat="55.5345380" lon="38.8354370"><time>2020-11-01T15:01:26.613</time></trkpt><trkpt lat="55.5345350" lon="38.8355450"><time>2020-11-01T15:01:29.617</time></trkpt><trkpt lat="55.5345450" lon="38.8356500"><time>2020-11-01T15:01:32.620</time></trkpt><trkpt lat="55.5345550" lon="38.8357370"><time>2020-11-01T15:01:35.617</time></trkpt><trkpt lat="55.5345520" lon="38.8358700"><time>2020-11-01T15:01:40.617</time></trkpt><trkpt lat="55.5345530" lon="38.8359720"><time>2020-11-01T15:01:44.613</time></trkpt><trkpt lat="55.5345480" lon="38.8360730"><time>2020-11-01T15:01:47.617</time></trkpt><trkpt lat="55.5345450" lon="38.8361770"><time>2020-11-01T15:01:50.620</time></trkpt><trkpt lat="55.5345450" lon="38.8362700"><time>2020-11-01T15:01:53.617</time></trkpt><trkpt lat="55.5345470" lon="38.8363720"><time>2020-11-01T15:01:57.620</time></trkpt><trkpt lat="55.5345400" lon="38.8364730"><time>2020-11-01T15:02:01.617</time></trkpt><trkpt lat="55.5345350" lon="38.8366980"><time>2020-11-01T15:02:10.617</time></trkpt><trkpt lat="55.5345370" lon="38.8367950"><time>2020-11-01T15:02:13.617</time></trkpt><trkpt lat="55.5345330" lon="38.8369000"><time>2020-11-01T15:02:16.617</time></trkpt><trkpt lat="55.5345300" lon="38.8369920"><time>2020-11-01T15:02:19.617</time></trkpt><trkpt lat="55.5345180" lon="38.8370800"><time>2020-11-01T15:02:21.620</time></trkpt><trkpt lat="55.5345300" lon="38.8372050"><time>2020-11-01T15:02:24.613</time></trkpt><trkpt lat="55.5345430" lon="38.8372820"><time>2020-11-01T15:02:26.610</time></trkpt><trkpt lat="55.5345350" lon="38.8374250"><time>2020-11-01T15:02:28.617</time></trkpt><trkpt lat="55.5345370" lon="38.8375680"><time>2020-11-01T15:02:30.617</time></trkpt><trkpt lat="55.5345270" lon="38.8376930"><time>2020-11-01T15:02:32.617</time></trkpt><trkpt lat="55.5345270" lon="38.8378120"><time>2020-11-01T15:02:34.617</time></trkpt><trkpt lat="55.5345230" lon="38.8379380"><time>2020-11-01T15:02:36.617</time></trkpt><trkpt lat="55.5345320" lon="38.8380230"><time>2020-11-01T15:02:38.617</time></trkpt><trkpt lat="55.5345300" lon="38.8381100"><time>2020-11-01T15:02:40.617</time></trkpt><trkpt lat="55.5345320" lon="38.8382220"><time>2020-11-01T15:02:43.617</time></trkpt><trkpt lat="55.5345300" lon="38.8383030"><time>2020-11-01T15:02:45.617</time></trkpt><trkpt lat="55.5345150" lon="38.8383980"><time>2020-11-01T15:02:49.620</time></trkpt><trkpt lat="55.5345080" lon="38.8384930"><time>2020-11-01T15:02:52.620</time></trkpt><trkpt lat="55.5345000" lon="38.8385820"><time>2020-11-01T15:02:54.617</time></trkpt><trkpt lat="55.5345020" lon="38.8386720"><time>2020-11-01T15:02:56.620</time></trkpt><trkpt lat="55.5345120" lon="38.8387570"><time>2020-11-01T15:02:58.620</time></trkpt><trkpt lat="55.5345120" lon="38.8388370"><time>2020-11-01T15:03:00.617</time></trkpt><trkpt lat="55.5345170" lon="38.8390720"><time>2020-11-01T15:03:11.610</time></trkpt><trkpt lat="55.5345230" lon="38.8391630"><time>2020-11-01T15:03:14.617</time></trkpt><trkpt lat="55.5345220" lon="38.8393370"><time>2020-11-01T15:03:20.617</time></trkpt><trkpt lat="55.5345330" lon="38.8394180"><time>2020-11-01T15:03:22.617</time></trkpt><trkpt lat="55.5345420" lon="38.8395020"><time>2020-11-01T15:03:24.613</time></trkpt><trkpt lat="55.5345480" lon="38.8396050"><time>2020-11-01T15:03:26.613</time></trkpt><trkpt lat="55.5345550" lon="38.8397020"><time>2020-11-01T15:03:29.617</time></trkpt><trkpt lat="55.5345430" lon="38.8397930"><time>2020-11-01T15:03:32.617</time></trkpt><trkpt lat="55.5344950" lon="38.8399720"><time>2020-11-01T15:03:40.617</time></trkpt><trkpt lat="55.5344880" lon="38.8400900"><time>2020-11-01T15:03:43.613</time></trkpt><trkpt lat="55.5344870" lon="38.8402100"><time>2020-11-01T15:03:45.617</time></trkpt><trkpt lat="55.5344820" lon="38.8403380"><time>2020-11-01T15:03:47.620</time></trkpt><trkpt lat="55.5344750" lon="38.8404470"><time>2020-11-01T15:03:49.620</time></trkpt><trkpt lat="55.5344730" lon="38.8405480"><time>2020-11-01T15:03:51.623</time></trkpt><trkpt lat="55.5344550" lon="38.8406480"><time>2020-11-01T15:03:53.620</time></trkpt><trkpt lat="55.5344480" lon="38.8407580"><time>2020-11-01T15:03:56.620</time></trkpt><trkpt lat="55.5344550" lon="38.8408480"><time>2020-11-01T15:03:58.617</time></trkpt><trkpt lat="55.5344720" lon="38.8409500"><time>2020-11-01T15:04:01.620</time></trkpt><trkpt lat="55.5344820" lon="38.8410830"><time>2020-11-01T15:04:03.610</time></trkpt><trkpt lat="55.5344750" lon="38.8411720"><time>2020-11-01T15:04:04.620</time></trkpt><trkpt lat="55.5344630" lon="38.8412680"><time>2020-11-01T15:04:06.617</time></trkpt><trkpt lat="55.5344550" lon="38.8413880"><time>2020-11-01T15:04:08.617</time></trkpt><trkpt lat="55.5344570" lon="38.8414970"><time>2020-11-01T15:04:10.617</time></trkpt><trkpt lat="55.5344600" lon="38.8416120"><time>2020-11-01T15:04:12.617</time></trkpt><trkpt lat="55.5344620" lon="38.8417080"><time>2020-11-01T15:04:14.620</time></trkpt><trkpt lat="55.5344730" lon="38.8418120"><time>2020-11-01T15:04:16.617</time></trkpt><trkpt lat="55.5344670" lon="38.8418930"><time>2020-11-01T15:04:18.620</time></trkpt><trkpt lat="55.5344480" lon="38.8419880"><time>2020-11-01T15:04:21.617</time></trkpt><trkpt lat="55.5344380" lon="38.8420770"><time>2020-11-01T15:04:23.617</time></trkpt><trkpt lat="55.5344220" lon="38.8421830"><time>2020-11-01T15:04:25.620</time></trkpt><trkpt lat="55.5344080" lon="38.8423050"><time>2020-11-01T15:04:28.617</time></trkpt><trkpt lat="55.5344270" lon="38.8424070"><time>2020-11-01T15:04:30.613</time></trkpt><trkpt lat="55.5344350" lon="38.8425120"><time>2020-11-01T15:04:33.620</time></trkpt><trkpt lat="55.5344200" lon="38.8425980"><time>2020-11-01T15:04:36.617</time></trkpt><trkpt lat="55.5344220" lon="38.8427200"><time>2020-11-01T15:04:39.620</time></trkpt><trkpt lat="55.5344220" lon="38.8428230"><time>2020-11-01T15:04:42.613</time></trkpt><trkpt lat="55.5344170" lon="38.8429050"><time>2020-11-01T15:04:44.617</time></trkpt><trkpt lat="55.5344000" lon="38.8430050"><time>2020-11-01T15:04:47.620</time></trkpt><trkpt lat="55.5343950" lon="38.8431200"><time>2020-11-01T15:04:50.617</time></trkpt><trkpt lat="55.5343880" lon="38.8432030"><time>2020-11-01T15:04:53.617</time></trkpt><trkpt lat="55.5343650" lon="38.8432750"><time>2020-11-01T15:04:56.617</time></trkpt><trkpt lat="55.5343020" lon="38.8434050"><time>2020-11-01T15:05:06.617</time></trkpt><trkpt lat="55.5342670" lon="38.8434580"><time>2020-11-01T15:05:10.617</time></trkpt><trkpt lat="55.5342220" lon="38.8435020"><time>2020-11-01T15:05:12.617</time></trkpt><trkpt lat="55.5341620" lon="38.8435420"><time>2020-11-01T15:05:14.620</time></trkpt><trkpt lat="55.5341100" lon="38.8435370"><time>2020-11-01T15:05:16.620</time></trkpt><trkpt lat="55.5340750" lon="38.8436070"><time>2020-11-01T15:05:18.617</time></trkpt><trkpt lat="55.5340370" lon="38.8436830"><time>2020-11-01T15:05:20.617</time></trkpt><trkpt lat="55.5339830" lon="38.8437350"><time>2020-11-01T15:05:23.617</time></trkpt><trkpt lat="55.5339520" lon="38.8437930"><time>2020-11-01T15:05:25.613</time></trkpt><trkpt lat="55.5338980" lon="38.8438520"><time>2020-11-01T15:05:28.617</time></trkpt><trkpt lat="55.5338670" lon="38.8439320"><time>2020-11-01T15:05:31.620</time></trkpt><trkpt lat="55.5338220" lon="38.8439980"><time>2020-11-01T15:05:34.617</time></trkpt><trkpt lat="55.5337680" lon="38.8440420"><time>2020-11-01T15:05:37.620</time></trkpt><trkpt lat="55.5337330" lon="38.8441100"><time>2020-11-01T15:05:39.620</time></trkpt><trkpt lat="55.5336920" lon="38.8441530"><time>2020-11-01T15:05:41.617</time></trkpt><trkpt lat="55.5336300" lon="38.8441980"><time>2020-11-01T15:05:43.620</time></trkpt><trkpt lat="55.5335950" lon="38.8442480"><time>2020-11-01T15:05:45.617</time></trkpt><trkpt lat="55.5335600" lon="38.8443080"><time>2020-11-01T15:05:47.613</time></trkpt><trkpt lat="55.5335270" lon="38.8443850"><time>2020-11-01T15:05:50.617</time></trkpt><trkpt lat="55.5334980" lon="38.8444620"><time>2020-11-01T15:05:53.617</time></trkpt><trkpt lat="55.5334480" lon="38.8445080"><time>2020-11-01T15:05:56.617</time></trkpt><trkpt lat="55.5334120" lon="38.8445570"><time>2020-11-01T15:05:58.617</time></trkpt><trkpt lat="55.5333700" lon="38.8446380"><time>2020-11-01T15:06:01.620</time></trkpt><trkpt lat="55.5333220" lon="38.8447200"><time>2020-11-01T15:06:03.620</time></trkpt><trkpt lat="55.5332830" lon="38.8447930"><time>2020-11-01T15:06:05.617</time></trkpt><trkpt lat="55.5332370" lon="38.8448500"><time>2020-11-01T15:06:07.620</time></trkpt><trkpt lat="55.5331980" lon="38.8449180"><time>2020-11-01T15:06:10.617</time></trkpt><trkpt lat="55.5331570" lon="38.8449620"><time>2020-11-01T15:06:13.620</time></trkpt><trkpt lat="55.5331200" lon="38.8450330"><time>2020-11-01T15:06:15.617</time></trkpt><trkpt lat="55.5330900" lon="38.8451070"><time>2020-11-01T15:06:17.620</time></trkpt><trkpt lat="55.5330520" lon="38.8451550"><time>2020-11-01T15:06:19.620</time></trkpt><trkpt lat="55.5330080" lon="38.8452300"><time>2020-11-01T15:06:22.617</time></trkpt><trkpt lat="55.5328850" lon="38.8453230"><time>2020-11-01T15:06:33.617</time></trkpt><trkpt lat="55.5328080" lon="38.8453480"><time>2020-11-01T15:06:39.620</time></trkpt><trkpt lat="55.5327630" lon="38.8453750"><time>2020-11-01T15:06:42.613</time></trkpt><trkpt lat="55.5326950" lon="38.8453900"><time>2020-11-01T15:06:45.613</time></trkpt><trkpt lat="55.5326100" lon="38.8453900"><time>2020-11-01T15:06:47.620</time></trkpt><trkpt lat="55.5325480" lon="38.8454070"><time>2020-11-01T15:06:49.617</time></trkpt><trkpt lat="55.5324720" lon="38.8453980"><time>2020-11-01T15:06:51.620</time></trkpt><trkpt lat="55.5324270" lon="38.8454750"><time>2020-11-01T15:06:55.617</time></trkpt><trkpt lat="55.5323730" lon="38.8454830"><time>2020-11-01T15:06:58.617</time></trkpt><trkpt lat="55.5322420" lon="38.8455100"><time>2020-11-01T15:07:09.620</time></trkpt><trkpt lat="55.5322020" lon="38.8454470"><time>2020-11-01T15:07:11.617</time></trkpt><trkpt lat="55.5321630" lon="38.8453580"><time>2020-11-01T15:07:19.613</time></trkpt><trkpt lat="55.5322230" lon="38.8453380"><time>2020-11-01T15:07:22.620</time></trkpt><trkpt lat="55.5321470" lon="38.8451730"><time>2020-11-01T15:07:43.617</time></trkpt><trkpt lat="55.5320900" lon="38.8450570"><time>2020-11-01T15:07:48.613</time></trkpt><trkpt lat="55.5320630" lon="38.8449680"><time>2020-11-01T15:07:52.617</time></trkpt><trkpt lat="55.5320230" lon="38.8449250"><time>2020-11-01T15:07:55.617</time></trkpt><trkpt lat="55.5320620" lon="38.8448700"><time>2020-11-01T15:08:02.617</time></trkpt><trkpt lat="55.5320900" lon="38.8447900"><time>2020-11-01T15:08:11.530</time></trkpt><trkpt lat="55.5320630" lon="38.8447170"><time>2020-11-01T15:08:13.600</time></trkpt><trkpt lat="55.5320650" lon="38.8447200"><time>2020-11-01T15:08:20.590</time></trkpt><trkpt lat="55.5321180" lon="38.8449230"><time>2020-11-01T15:08:29.620</time></trkpt><trkpt lat="55.5322630" lon="38.8453020"><time>2020-11-01T15:08:30.617</time></trkpt><trkpt lat="55.5321670" lon="38.8451780"><time>2020-11-01T15:08:31.620</time></trkpt><trkpt lat="55.5320370" lon="38.8451780"><time>2020-11-01T15:08:36.620</time></trkpt><trkpt lat="55.5320100" lon="38.8450850"><time>2020-11-01T15:08:38.623</time></trkpt><trkpt lat="55.5320070" lon="38.8452030"><time>2020-11-01T15:08:51.627</time></trkpt><trkpt lat="55.5320780" lon="38.8453050"><time>2020-11-01T15:08:59.620</time></trkpt><trkpt lat="55.5321770" lon="38.8454500"><time>2020-11-01T15:09:15.620</time></trkpt><trkpt lat="55.5323030" lon="38.8455200"><time>2020-11-01T15:09:27.620</time></trkpt><trkpt lat="55.5323520" lon="38.8455300"><time>2020-11-01T15:09:30.620</time></trkpt><trkpt lat="55.5324380" lon="38.8455900"><time>2020-11-01T15:09:39.620</time></trkpt><trkpt lat="55.5325370" lon="38.8455750"><time>2020-11-01T15:09:46.617</time></trkpt><trkpt lat="55.5326050" lon="38.8455780"><time>2020-11-01T15:09:48.620</time></trkpt><trkpt lat="55.5326530" lon="38.8456180"><time>2020-11-01T15:09:51.623</time></trkpt><trkpt lat="55.5326680" lon="38.8457300"><time>2020-11-01T15:09:58.620</time></trkpt><trkpt lat="55.5326430" lon="38.8458600"><time>2020-11-01T15:10:07.620</time></trkpt><trkpt lat="55.5325550" lon="38.8459600"><time>2020-11-01T15:10:17.617</time></trkpt><trkpt lat="55.5324920" lon="38.8459850"><time>2020-11-01T15:10:19.620</time></trkpt><trkpt lat="55.5324580" lon="38.8460450"><time>2020-11-01T15:10:22.617</time></trkpt><trkpt lat="55.5324270" lon="38.8461030"><time>2020-11-01T15:10:27.620</time></trkpt><trkpt lat="55.5323730" lon="38.8461100"><time>2020-11-01T15:10:32.617</time></trkpt><trkpt lat="55.5322980" lon="38.8462250"><time>2020-11-01T15:10:41.617</time></trkpt><trkpt lat="55.5322570" lon="38.8462780"><time>2020-11-01T15:10:44.617</time></trkpt><trkpt lat="55.5322170" lon="38.8463600"><time>2020-11-01T15:10:47.620</time></trkpt><trkpt lat="55.5321770" lon="38.8464180"><time>2020-11-01T15:10:50.620</time></trkpt><trkpt lat="55.5321270" lon="38.8464620"><time>2020-11-01T15:10:53.620</time></trkpt><trkpt lat="55.5320520" lon="38.8465430"><time>2020-11-01T15:10:59.623</time></trkpt><trkpt lat="55.5320000" lon="38.8465830"><time>2020-11-01T15:11:01.620</time></trkpt><trkpt lat="55.5319430" lon="38.8466270"><time>2020-11-01T15:11:03.617</time></trkpt><trkpt lat="55.5318870" lon="38.8466920"><time>2020-11-01T15:11:05.620</time></trkpt><trkpt lat="55.5318530" lon="38.8467520"><time>2020-11-01T15:11:07.620</time></trkpt><trkpt lat="55.5318350" lon="38.8468470"><time>2020-11-01T15:11:10.620</time></trkpt><trkpt lat="55.5317900" lon="38.8468800"><time>2020-11-01T15:11:16.620</time></trkpt><trkpt lat="55.5317680" lon="38.8469500"><time>2020-11-01T15:11:20.617</time></trkpt><trkpt lat="55.5316980" lon="38.8470720"><time>2020-11-01T15:11:29.620</time></trkpt><trkpt lat="55.5316820" lon="38.8471720"><time>2020-11-01T15:11:31.617</time></trkpt><trkpt lat="55.5316600" lon="38.8473030"><time>2020-11-01T15:11:34.620</time></trkpt><trkpt lat="55.5316600" lon="38.8474130"><time>2020-11-01T15:11:37.617</time></trkpt><trkpt lat="55.5316750" lon="38.8474880"><time>2020-11-01T15:11:40.620</time></trkpt><trkpt lat="55.5317030" lon="38.8476600"><time>2020-11-01T15:11:52.620</time></trkpt><trkpt lat="55.5317450" lon="38.8477270"><time>2020-11-01T15:11:56.597</time></trkpt><trkpt lat="55.5317850" lon="38.8478180"><time>2020-11-01T15:11:58.620</time></trkpt><trkpt lat="55.5318520" lon="38.8478600"><time>2020-11-01T15:12:00.620</time></trkpt><trkpt lat="55.5318880" lon="38.8479420"><time>2020-11-01T15:12:02.620</time></trkpt><trkpt lat="55.5319350" lon="38.8480130"><time>2020-11-01T15:12:05.620</time></trkpt><trkpt lat="55.5319750" lon="38.8481520"><time>2020-11-01T15:12:16.620</time></trkpt><trkpt lat="55.5320080" lon="38.8482120"><time>2020-11-01T15:12:18.620</time></trkpt><trkpt lat="55.5320830" lon="38.8482730"><time>2020-11-01T15:12:20.617</time></trkpt><trkpt lat="55.5322200" lon="38.8482580"><time>2020-11-01T15:12:30.617</time></trkpt><trkpt lat="55.5322670" lon="38.8482030"><time>2020-11-01T15:12:32.617</time></trkpt><trkpt lat="55.5324100" lon="38.8481120"><time>2020-11-01T15:12:42.620</time></trkpt><trkpt lat="55.5324720" lon="38.8481020"><time>2020-11-01T15:12:49.617</time></trkpt><trkpt lat="55.5326050" lon="38.8480650"><time>2020-11-01T15:12:56.577</time></trkpt><trkpt lat="55.5326820" lon="38.8480500"><time>2020-11-01T15:12:58.617</time></trkpt><trkpt lat="55.5327220" lon="38.8480120"><time>2020-11-01T15:13:00.620</time></trkpt><trkpt lat="55.5328220" lon="38.8480100"><time>2020-11-01T15:13:04.620</time></trkpt><trkpt lat="55.5328720" lon="38.8480170"><time>2020-11-01T15:13:05.620</time></trkpt><trkpt lat="55.5329970" lon="38.8479020"><time>2020-11-01T15:13:07.620</time></trkpt><trkpt lat="55.5330470" lon="38.8478470"><time>2020-11-01T15:13:08.617</time></trkpt><trkpt lat="55.5331080" lon="38.8478270"><time>2020-11-01T15:13:10.620</time></trkpt><trkpt lat="55.5331580" lon="38.8477680"><time>2020-11-01T15:13:13.587</time></trkpt><trkpt lat="55.5332500" lon="38.8477380"><time>2020-11-01T15:13:15.620</time></trkpt><trkpt lat="55.5333230" lon="38.8477280"><time>2020-11-01T15:13:17.613</time></trkpt><trkpt lat="55.5333920" lon="38.8477370"><time>2020-11-01T15:13:19.617</time></trkpt><trkpt lat="55.5334480" lon="38.8477780"><time>2020-11-01T15:13:21.620</time></trkpt><trkpt lat="55.5335150" lon="38.8478370"><time>2020-11-01T15:13:23.617</time></trkpt><trkpt lat="55.5335930" lon="38.8478800"><time>2020-11-01T15:13:26.613</time></trkpt><trkpt lat="55.5336600" lon="38.8478680"><time>2020-11-01T15:13:28.617</time></trkpt><trkpt lat="55.5337070" lon="38.8478830"><time>2020-11-01T15:13:31.613</time></trkpt><trkpt lat="55.5337530" lon="38.8479150"><time>2020-11-01T15:13:33.620</time></trkpt><trkpt lat="55.5337970" lon="38.8479720"><time>2020-11-01T15:13:35.617</time></trkpt><trkpt lat="55.5338420" lon="38.8480300"><time>2020-11-01T15:13:38.617</time></trkpt><trkpt lat="55.5339070" lon="38.8480900"><time>2020-11-01T15:13:41.613</time></trkpt><trkpt lat="55.5339600" lon="38.8481250"><time>2020-11-01T15:13:43.620</time></trkpt><trkpt lat="55.5340070" lon="38.8481670"><time>2020-11-01T15:13:45.617</time></trkpt><trkpt lat="55.5340620" lon="38.8482400"><time>2020-11-01T15:13:48.617</time></trkpt><trkpt lat="55.5340930" lon="38.8483170"><time>2020-11-01T15:13:50.620</time></trkpt><trkpt lat="55.5341200" lon="38.8483830"><time>2020-11-01T15:13:52.620</time></trkpt><trkpt lat="55.5342380" lon="38.8484720"><time>2020-11-01T15:14:02.617</time></trkpt><trkpt lat="55.5343550" lon="38.8485170"><time>2020-11-01T15:14:19.620</time></trkpt><trkpt lat="55.5344830" lon="38.8484780"><time>2020-11-01T15:14:29.617</time></trkpt><trkpt lat="55.5346230" lon="38.8484620"><time>2020-11-01T15:14:39.617</time></trkpt><trkpt lat="55.5347400" lon="38.8484180"><time>2020-11-01T15:14:51.620</time></trkpt><trkpt lat="55.5348980" lon="38.8483230"><time>2020-11-01T15:15:01.620</time></trkpt><trkpt lat="55.5349330" lon="38.8482430"><time>2020-11-01T15:15:03.617</time></trkpt><trkpt lat="55.5349670" lon="38.8481850"><time>2020-11-01T15:15:05.617</time></trkpt><trkpt lat="55.5351070" lon="38.8481770"><time>2020-11-01T15:15:15.620</time></trkpt><trkpt lat="55.5352380" lon="38.8481650"><time>2020-11-01T15:15:27.623</time></trkpt><trkpt lat="55.5353050" lon="38.8481480"><time>2020-11-01T15:15:30.620</time></trkpt><trkpt lat="55.5353950" lon="38.8481030"><time>2020-11-01T15:15:37.620</time></trkpt><trkpt lat="55.5355170" lon="38.8480530"><time>2020-11-01T15:15:49.627</time></trkpt><trkpt lat="55.5355650" lon="38.8480570"><time>2020-11-01T15:15:52.617</time></trkpt><trkpt lat="55.5356680" lon="38.8480550"><time>2020-11-01T15:15:58.617</time></trkpt><trkpt lat="55.5357450" lon="38.8480570"><time>2020-11-01T15:16:00.617</time></trkpt><trkpt lat="55.5358150" lon="38.8480650"><time>2020-11-01T15:16:02.617</time></trkpt><trkpt lat="55.5358750" lon="38.8480530"><time>2020-11-01T15:16:04.603</time></trkpt><trkpt lat="55.5359300" lon="38.8480130"><time>2020-11-01T15:16:06.600</time></trkpt><trkpt lat="55.5359780" lon="38.8479420"><time>2020-11-01T15:16:07.580</time></trkpt><trkpt lat="55.5360050" lon="38.8478650"><time>2020-11-01T15:16:08.597</time></trkpt><trkpt lat="55.5360280" lon="38.8477480"><time>2020-11-01T15:16:09.597</time></trkpt><trkpt lat="55.5360620" lon="38.8476370"><time>2020-11-01T15:16:10.587</time></trkpt><trkpt lat="55.5361050" lon="38.8476050"><time>2020-11-01T15:16:11.590</time></trkpt><trkpt lat="55.5361000" lon="38.8475220"><time>2020-11-01T15:16:14.623</time></trkpt><trkpt lat="55.5361630" lon="38.8476330"><time>2020-11-01T15:16:15.620</time></trkpt><trkpt lat="55.5362050" lon="38.8476650"><time>2020-11-01T15:16:18.620</time></trkpt><trkpt lat="55.5362470" lon="38.8477120"><time>2020-11-01T15:16:21.620</time></trkpt><trkpt lat="55.5362930" lon="38.8477150"><time>2020-11-01T15:16:24.620</time></trkpt><trkpt lat="55.5363380" lon="38.8477000"><time>2020-11-01T15:16:29.617</time></trkpt><trkpt lat="55.5363850" lon="38.8477400"><time>2020-11-01T15:16:33.620</time></trkpt><trkpt lat="55.5364480" lon="38.8477580"><time>2020-11-01T15:16:36.620</time></trkpt><trkpt lat="55.5364920" lon="38.8477370"><time>2020-11-01T15:16:39.617</time></trkpt><trkpt lat="55.5365580" lon="38.8477230"><time>2020-11-01T15:16:43.623</time></trkpt><trkpt lat="55.5365970" lon="38.8476730"><time>2020-11-01T15:16:46.623</time></trkpt><trkpt lat="55.5366430" lon="38.8476380"><time>2020-11-01T15:16:49.623</time></trkpt><trkpt lat="55.5366900" lon="38.8476250"><time>2020-11-01T15:16:53.620</time></trkpt><trkpt lat="55.5368230" lon="38.8475880"><time>2020-11-01T15:17:06.623</time></trkpt><trkpt lat="55.5368770" lon="38.8475820"><time>2020-11-01T15:17:09.623</time></trkpt><trkpt lat="55.5369280" lon="38.8475780"><time>2020-11-01T15:17:15.620</time></trkpt><trkpt lat="55.5369870" lon="38.8475820"><time>2020-11-01T15:17:17.620</time></trkpt><trkpt lat="55.5371030" lon="38.8476000"><time>2020-11-01T15:17:38.620</time></trkpt><trkpt lat="55.5371450" lon="38.8476480"><time>2020-11-01T15:17:43.620</time></trkpt><trkpt lat="55.5372520" lon="38.8476470"><time>2020-11-01T15:17:55.623</time></trkpt><trkpt lat="55.5373820" lon="38.8477720"><time>2020-11-01T15:18:08.620</time></trkpt><trkpt lat="55.5374820" lon="38.8478120"><time>2020-11-01T15:18:47.620</time></trkpt><trkpt lat="55.5375550" lon="38.8477080"><time>2020-11-01T15:19:14.617</time></trkpt><trkpt lat="55.5376450" lon="38.8475470"><time>2020-11-01T15:19:27.623</time></trkpt><trkpt lat="55.5377300" lon="38.8476870"><time>2020-11-01T15:19:49.617</time></trkpt><trkpt lat="55.5377230" lon="38.8478120"><time>2020-11-01T15:19:53.150</time></trkpt><trkpt lat="55.5376880" lon="38.8483820"><time>2020-11-01T15:19:58.643</time></trkpt><trkpt lat="55.5376880" lon="38.8483820"><time>2020-11-01T15:19:59.537</time></trkpt><trkpt lat="55.5378350" lon="38.8490600"><time>2020-11-01T15:19:59.710</time></trkpt><trkpt lat="55.5384100" lon="38.8492230"><time>2020-11-01T15:20:14.620</time></trkpt><trkpt lat="55.5384130" lon="38.8489470"><time>2020-11-01T15:20:15.617</time></trkpt><trkpt lat="55.5383970" lon="38.8490500"><time>2020-11-01T15:20:17.617</time></trkpt><trkpt lat="55.5383600" lon="38.8491650"><time>2020-11-01T15:20:19.623</time></trkpt><trkpt lat="55.5382920" lon="38.8492530"><time>2020-11-01T15:20:21.623</time></trkpt><trkpt lat="55.5381520" lon="38.8494150"><time>2020-11-01T15:20:23.620</time></trkpt><trkpt lat="55.5381220" lon="38.8494830"><time>2020-11-01T15:20:24.580</time></trkpt><trkpt lat="55.5380730" lon="38.8495330"><time>2020-11-01T15:20:34.627</time></trkpt><trkpt lat="55.5380330" lon="38.8493770"><time>2020-11-01T15:20:44.620</time></trkpt><trkpt lat="55.5379750" lon="38.8493500"><time>2020-11-01T15:20:46.607</time></trkpt><trkpt lat="55.5379870" lon="38.8490770"><time>2020-11-01T15:21:03.620</time></trkpt><trkpt lat="55.5380580" lon="38.8490130"><time>2020-11-01T15:21:08.620</time></trkpt><trkpt lat="55.5381470" lon="38.8489080"><time>2020-11-01T15:21:22.623</time></trkpt><trkpt lat="55.5381770" lon="38.8488480"><time>2020-11-01T15:21:24.620</time></trkpt><trkpt lat="55.5381850" lon="38.8487580"><time>2020-11-01T15:21:27.647</time></trkpt><trkpt lat="55.5382680" lon="38.8486430"><time>2020-11-01T15:21:38.620</time></trkpt><trkpt lat="55.5383330" lon="38.8484650"><time>2020-11-01T15:21:51.623</time></trkpt><trkpt lat="55.5383450" lon="38.8483820"><time>2020-11-01T15:21:54.620</time></trkpt><trkpt lat="55.5384180" lon="38.8482670"><time>2020-11-01T15:22:02.217</time></trkpt><trkpt lat="55.5384550" lon="38.8482050"><time>2020-11-01T15:22:05.617</time></trkpt><trkpt lat="55.5385200" lon="38.8480180"><time>2020-11-01T15:22:14.623</time></trkpt><trkpt lat="55.5386420" lon="38.8479080"><time>2020-11-01T15:22:24.620</time></trkpt><trkpt lat="55.5386780" lon="38.8478480"><time>2020-11-01T15:22:27.627</time></trkpt><trkpt lat="55.5387500" lon="38.8477520"><time>2020-11-01T15:22:30.623</time></trkpt><trkpt lat="55.5387930" lon="38.8477050"><time>2020-11-01T15:22:32.627</time></trkpt><trkpt lat="55.5388330" lon="38.8476430"><time>2020-11-01T15:22:34.623</time></trkpt><trkpt lat="55.5388820" lon="38.8475970"><time>2020-11-01T15:22:37.623</time></trkpt><trkpt lat="55.5389330" lon="38.8475400"><time>2020-11-01T15:22:40.623</time></trkpt><trkpt lat="55.5389980" lon="38.8474650"><time>2020-11-01T15:22:42.623</time></trkpt><trkpt lat="55.5390620" lon="38.8473950"><time>2020-11-01T15:22:44.627</time></trkpt><trkpt lat="55.5391070" lon="38.8473870"><time>2020-11-01T15:22:47.623</time></trkpt><trkpt lat="55.5391480" lon="38.8473570"><time>2020-11-01T15:22:49.627</time></trkpt><trkpt lat="55.5391970" lon="38.8473650"><time>2020-11-01T15:22:54.623</time></trkpt><trkpt lat="55.5392420" lon="38.8473880"><time>2020-11-01T15:22:56.623</time></trkpt><trkpt lat="55.5392900" lon="38.8473830"><time>2020-11-01T15:22:59.627</time></trkpt><trkpt lat="55.5393980" lon="38.8473670"><time>2020-11-01T15:23:11.617</time></trkpt><trkpt lat="55.5394470" lon="38.8473420"><time>2020-11-01T15:23:14.623</time></trkpt><trkpt lat="55.5395320" lon="38.8473850"><time>2020-11-01T15:23:19.623</time></trkpt><trkpt lat="55.5396650" lon="38.8473820"><time>2020-11-01T15:23:30.623</time></trkpt><trkpt lat="55.5398120" lon="38.8473700"><time>2020-11-01T15:23:40.623</time></trkpt><trkpt lat="55.5398650" lon="38.8474120"><time>2020-11-01T15:23:42.623</time></trkpt><trkpt lat="55.5399280" lon="38.8474630"><time>2020-11-01T15:23:44.623</time></trkpt><trkpt lat="55.5400020" lon="38.8475050"><time>2020-11-01T15:23:46.623</time></trkpt><trkpt lat="55.5400400" lon="38.8475650"><time>2020-11-01T15:23:48.623</time></trkpt><trkpt lat="55.5400900" lon="38.8476070"><time>2020-11-01T15:23:50.620</time></trkpt><trkpt lat="55.5401480" lon="38.8476500"><time>2020-11-01T15:23:52.623</time></trkpt><trkpt lat="55.5401920" lon="38.8477200"><time>2020-11-01T15:23:55.623</time></trkpt><trkpt lat="55.5402350" lon="38.8477550"><time>2020-11-01T15:23:58.623</time></trkpt><trkpt lat="55.5402850" lon="38.8477780"><time>2020-11-01T15:24:01.623</time></trkpt><trkpt lat="55.5403430" lon="38.8478180"><time>2020-11-01T15:24:04.623</time></trkpt><trkpt lat="55.5404070" lon="38.8478550"><time>2020-11-01T15:24:07.627</time></trkpt><trkpt lat="55.5404530" lon="38.8478930"><time>2020-11-01T15:24:10.623</time></trkpt><trkpt lat="55.5404980" lon="38.8479130"><time>2020-11-01T15:24:12.623</time></trkpt><trkpt lat="55.5405500" lon="38.8479280"><time>2020-11-01T15:24:14.623</time></trkpt><trkpt lat="55.5406200" lon="38.8479670"><time>2020-11-01T15:24:17.620</time></trkpt><trkpt lat="55.5406630" lon="38.8479970"><time>2020-11-01T15:24:20.620</time></trkpt><trkpt lat="55.5407050" lon="38.8480380"><time>2020-11-01T15:24:22.627</time></trkpt><trkpt lat="55.5407570" lon="38.8480570"><time>2020-11-01T15:24:25.623</time></trkpt><trkpt lat="55.5408250" lon="38.8481470"><time>2020-11-01T15:24:35.627</time></trkpt><trkpt lat="55.5409550" lon="38.8481820"><time>2020-11-01T15:24:52.623</time></trkpt><trkpt lat="55.5410700" lon="38.8482680"><time>2020-11-01T15:25:08.623</time></trkpt><trkpt lat="55.5411870" lon="38.8482100"><time>2020-11-01T15:25:21.633</time></trkpt><trkpt lat="55.5412420" lon="38.8481980"><time>2020-11-01T15:25:25.623</time></trkpt><trkpt lat="55.5412920" lon="38.8482170"><time>2020-11-01T15:25:29.623</time></trkpt><trkpt lat="55.5414020" lon="38.8482550"><time>2020-11-01T15:25:40.627</time></trkpt><trkpt lat="55.5414420" lon="38.8483430"><time>2020-11-01T15:25:43.623</time></trkpt><trkpt lat="55.5414750" lon="38.8484070"><time>2020-11-01T15:25:45.623</time></trkpt><trkpt lat="55.5415080" lon="38.8484680"><time>2020-11-01T15:25:48.623</time></trkpt><trkpt lat="55.5415470" lon="38.8485230"><time>2020-11-01T15:25:52.623</time></trkpt><trkpt lat="55.5415870" lon="38.8485750"><time>2020-11-01T15:25:55.623</time></trkpt><trkpt lat="55.5416330" lon="38.8486070"><time>2020-11-01T15:25:59.623</time></trkpt><trkpt lat="55.5416650" lon="38.8486680"><time>2020-11-01T15:26:03.623</time></trkpt><trkpt lat="55.5417250" lon="38.8486600"><time>2020-11-01T15:26:07.627</time></trkpt><trkpt lat="55.5417720" lon="38.8486770"><time>2020-11-01T15:26:11.620</time></trkpt><trkpt lat="55.5418180" lon="38.8486780"><time>2020-11-01T15:26:14.623</time></trkpt><trkpt lat="55.5418770" lon="38.8486850"><time>2020-11-01T15:26:18.617</time></trkpt><trkpt lat="55.5419270" lon="38.8487270"><time>2020-11-01T15:26:21.623</time></trkpt><trkpt lat="55.5419800" lon="38.8487680"><time>2020-11-01T15:26:24.623</time></trkpt><trkpt lat="55.5420180" lon="38.8488130"><time>2020-11-01T15:26:27.630</time></trkpt><trkpt lat="55.5420630" lon="38.8488700"><time>2020-11-01T15:26:31.627</time></trkpt><trkpt lat="55.5421380" lon="38.8489050"><time>2020-11-01T15:26:35.623</time></trkpt><trkpt lat="55.5421920" lon="38.8489130"><time>2020-11-01T15:26:38.627</time></trkpt><trkpt lat="55.5422400" lon="38.8488970"><time>2020-11-01T15:26:40.623</time></trkpt><trkpt lat="55.5422870" lon="38.8488850"><time>2020-11-01T15:26:42.620</time></trkpt><trkpt lat="55.5423320" lon="38.8488820"><time>2020-11-01T15:26:43.627</time></trkpt><trkpt lat="55.5423900" lon="38.8488980"><time>2020-11-01T15:26:46.623</time></trkpt><trkpt lat="55.5424470" lon="38.8489020"><time>2020-11-01T15:26:48.627</time></trkpt><trkpt lat="55.5425280" lon="38.8489720"><time>2020-11-01T15:27:00.627</time></trkpt><trkpt lat="55.5425830" lon="38.8490630"><time>2020-11-01T15:27:08.620</time></trkpt><trkpt lat="55.5426320" lon="38.8490930"><time>2020-11-01T15:27:13.623</time></trkpt><trkpt lat="55.5426750" lon="38.8490430"><time>2020-11-01T15:27:17.620</time></trkpt><trkpt lat="55.5427050" lon="38.8488870"><time>2020-11-01T15:27:30.627</time></trkpt><trkpt lat="55.5427470" lon="38.8487530"><time>2020-11-01T15:27:38.623</time></trkpt><trkpt lat="55.5427600" lon="38.8486750"><time>2020-11-01T15:27:43.627</time></trkpt><trkpt lat="55.5428370" lon="38.8486080"><time>2020-11-01T15:27:54.627</time></trkpt><trkpt lat="55.5428820" lon="38.8486350"><time>2020-11-01T15:27:58.623</time></trkpt><trkpt lat="55.5429980" lon="38.8485970"><time>2020-11-01T15:28:13.627</time></trkpt><trkpt lat="55.5430430" lon="38.8485930"><time>2020-11-01T15:28:14.627</time></trkpt><trkpt lat="55.5431470" lon="38.8486480"><time>2020-11-01T15:28:28.623</time></trkpt><trkpt lat="55.5431870" lon="38.8487050"><time>2020-11-01T15:28:32.620</time></trkpt><trkpt lat="55.5432280" lon="38.8487600"><time>2020-11-01T15:28:35.620</time></trkpt><trkpt lat="55.5432720" lon="38.8488020"><time>2020-11-01T15:28:38.623</time></trkpt><trkpt lat="55.5433200" lon="38.8488370"><time>2020-11-01T15:28:40.623</time></trkpt><trkpt lat="55.5433600" lon="38.8489050"><time>2020-11-01T15:28:43.623</time></trkpt><trkpt lat="55.5433980" lon="38.8489780"><time>2020-11-01T15:28:46.620</time></trkpt><trkpt lat="55.5434380" lon="38.8490430"><time>2020-11-01T15:28:49.620</time></trkpt><trkpt lat="55.5434750" lon="38.8491020"><time>2020-11-01T15:28:52.627</time></trkpt><trkpt lat="55.5435130" lon="38.8491680"><time>2020-11-01T15:28:55.627</time></trkpt><trkpt lat="55.5435570" lon="38.8492020"><time>2020-11-01T15:28:58.627</time></trkpt><trkpt lat="55.5436000" lon="38.8492420"><time>2020-11-01T15:29:02.627</time></trkpt><trkpt lat="55.5436580" lon="38.8494230"><time>2020-11-01T15:29:11.627</time></trkpt><trkpt lat="55.5437130" lon="38.8494980"><time>2020-11-01T15:29:12.627</time></trkpt><trkpt lat="55.5437380" lon="38.8495670"><time>2020-11-01T15:29:14.623</time></trkpt><trkpt lat="55.5437800" lon="38.8495980"><time>2020-11-01T15:29:19.627</time></trkpt><trkpt lat="55.5437270" lon="38.8495580"><time>2020-11-01T15:29:22.627</time></trkpt><trkpt lat="55.5437180" lon="38.8494430"><time>2020-11-01T15:29:31.620</time></trkpt><trkpt lat="55.5437330" lon="38.8493550"><time>2020-11-01T15:29:34.603</time></trkpt><trkpt lat="55.5443150" lon="38.8497880"><time>2020-11-01T15:29:35.630</time></trkpt><trkpt lat="55.5443230" lon="38.8497020"><time>2020-11-01T15:29:37.630</time></trkpt><trkpt lat="55.5443450" lon="38.8496300"><time>2020-11-01T15:29:41.623</time></trkpt><trkpt lat="55.5443920" lon="38.8495880"><time>2020-11-01T15:29:44.620</time></trkpt><trkpt lat="55.5444770" lon="38.8495030"><time>2020-11-01T15:29:52.627</time></trkpt><trkpt lat="55.5445250" lon="38.8495100"><time>2020-11-01T15:29:57.630</time></trkpt><trkpt lat="55.5445750" lon="38.8494920"><time>2020-11-01T15:30:03.623</time></trkpt><trkpt lat="55.5446550" lon="38.8493780"><time>2020-11-01T15:30:22.623</time></trkpt><trkpt lat="55.5447530" lon="38.8492380"><time>2020-11-01T15:30:32.623</time></trkpt><trkpt lat="55.5448650" lon="38.8491830"><time>2020-11-01T15:30:46.627</time></trkpt><trkpt lat="55.5449870" lon="38.8490630"><time>2020-11-01T15:31:05.620</time></trkpt><trkpt lat="55.5450220" lon="38.8491400"><time>2020-11-01T15:31:09.627</time></trkpt><trkpt lat="55.5450830" lon="38.8491350"><time>2020-11-01T15:31:12.623</time></trkpt><trkpt lat="55.5451620" lon="38.8489950"><time>2020-11-01T15:31:29.627</time></trkpt><trkpt lat="55.5452550" lon="38.8489300"><time>2020-11-01T15:31:42.623</time></trkpt><trkpt lat="55.5453020" lon="38.8489230"><time>2020-11-01T15:31:44.623</time></trkpt><trkpt lat="55.5454230" lon="38.8491430"><time>2020-11-01T15:32:00.623</time></trkpt><trkpt lat="55.5454900" lon="38.8496120"><time>2020-11-01T15:32:01.623</time></trkpt><trkpt lat="55.5456050" lon="38.8499300"><time>2020-11-01T15:32:02.623</time></trkpt><trkpt lat="55.5456480" lon="38.8498530"><time>2020-11-01T15:32:14.617</time></trkpt><trkpt lat="55.5456650" lon="38.8500370"><time>2020-11-01T15:32:31.623</time></trkpt><trkpt lat="55.5457330" lon="38.8499970"><time>2020-11-01T15:32:42.620</time></trkpt><trkpt lat="55.5457870" lon="38.8500550"><time>2020-11-01T15:32:44.620</time></trkpt><trkpt lat="55.5458330" lon="38.8501520"><time>2020-11-01T15:32:46.617</time></trkpt><trkpt lat="55.5458780" lon="38.8502270"><time>2020-11-01T15:32:49.590</time></trkpt><trkpt lat="55.5457980" lon="38.8503380"><time>2020-11-01T15:32:51.583</time></trkpt><trkpt lat="55.5457350" lon="38.8502670"><time>2020-11-01T15:32:54.307</time></trkpt><trkpt lat="55.5457350" lon="38.8502670"><time>2020-11-01T15:32:59.227</time></trkpt><trkpt lat="55.5469380" lon="38.8501630"><time>2020-11-01T15:34:11.573</time></trkpt><trkpt lat="55.5469250" lon="38.8502870"><time>2020-11-01T15:34:18.577</time></trkpt><trkpt lat="55.5469100" lon="38.8503670"><time>2020-11-01T15:34:20.573</time></trkpt><trkpt lat="55.5468800" lon="38.8502850"><time>2020-11-01T15:34:21.577</time></trkpt><trkpt lat="55.5469400" lon="38.8502600"><time>2020-11-01T15:34:24.613</time></trkpt><trkpt lat="55.5469830" lon="38.8501970"><time>2020-11-01T15:34:25.617</time></trkpt><trkpt lat="55.5470000" lon="38.8501180"><time>2020-11-01T15:34:26.613</time></trkpt><trkpt lat="55.5470330" lon="38.8499920"><time>2020-11-01T15:34:28.620</time></trkpt><trkpt lat="55.5470370" lon="38.8497720"><time>2020-11-01T15:34:30.600</time></trkpt><trkpt lat="55.5470830" lon="38.8496550"><time>2020-11-01T15:34:32.620</time></trkpt><trkpt lat="55.5470980" lon="38.8495350"><time>2020-11-01T15:34:34.617</time></trkpt><trkpt lat="55.5470700" lon="38.8493300"><time>2020-11-01T15:34:36.613</time></trkpt><trkpt lat="55.5470580" lon="38.8492470"><time>2020-11-01T15:34:38.617</time></trkpt><trkpt lat="55.5469670" lon="38.8491670"><time>2020-11-01T15:34:46.620</time></trkpt><trkpt lat="55.5469770" lon="38.8493100"><time>2020-11-01T15:34:49.617</time></trkpt><trkpt lat="55.5470250" lon="38.8494170"><time>2020-11-01T15:34:50.617</time></trkpt><trkpt lat="55.5470720" lon="38.8495400"><time>2020-11-01T15:34:51.620</time></trkpt><trkpt lat="55.5471100" lon="38.8496680"><time>2020-11-01T15:34:52.607</time></trkpt><trkpt lat="55.5470530" lon="38.8497320"><time>2020-11-01T15:34:55.620</time></trkpt><trkpt lat="55.5470730" lon="38.8498420"><time>2020-11-01T15:34:57.620</time></trkpt><trkpt lat="55.5470880" lon="38.8499170"><time>2020-11-01T15:35:00.580</time></trkpt><trkpt lat="55.5472080" lon="38.8499380"><time>2020-11-01T15:35:02.620</time></trkpt><trkpt lat="55.5472470" lon="38.8498380"><time>2020-11-01T15:35:04.620</time></trkpt><trkpt lat="55.5472700" lon="38.8497330"><time>2020-11-01T15:35:06.620</time></trkpt><trkpt lat="55.5472620" lon="38.8494420"><time>2020-11-01T15:35:07.617</time></trkpt><trkpt lat="55.5471780" lon="38.8490080"><time>2020-11-01T15:35:08.620</time></trkpt><trkpt lat="55.5471330" lon="38.8485870"><time>2020-11-01T15:35:09.620</time></trkpt><trkpt lat="55.5471320" lon="38.8484280"><time>2020-11-01T15:35:10.620</time></trkpt><trkpt lat="55.5472150" lon="38.8480800"><time>2020-11-01T15:35:11.620</time></trkpt><trkpt lat="55.5472680" lon="38.8479730"><time>2020-11-01T15:35:12.617</time></trkpt><trkpt lat="55.5473430" lon="38.8479430"><time>2020-11-01T15:35:14.617</time></trkpt><trkpt lat="55.5473900" lon="38.8478600"><time>2020-11-01T15:35:15.617</time></trkpt><trkpt lat="55.5474080" lon="38.8477800"><time>2020-11-01T15:35:17.617</time></trkpt><trkpt lat="55.5474550" lon="38.8475200"><time>2020-11-01T15:35:19.620</time></trkpt><trkpt lat="55.5474220" lon="38.8474630"><time>2020-11-01T15:35:21.620</time></trkpt><trkpt lat="55.5474880" lon="38.8474820"><time>2020-11-01T15:35:27.620</time></trkpt><trkpt lat="55.5475250" lon="38.8475650"><time>2020-11-01T15:35:30.620</time></trkpt><trkpt lat="55.5475050" lon="38.8474930"><time>2020-11-01T15:35:33.620</time></trkpt><trkpt lat="55.5474920" lon="38.8474100"><time>2020-11-01T15:35:37.617</time></trkpt><trkpt lat="55.5474800" lon="38.8473270"><time>2020-11-01T15:35:39.617</time></trkpt><trkpt lat="55.5475380" lon="38.8472600"><time>2020-11-01T15:35:42.617</time></trkpt><trkpt lat="55.5475470" lon="38.8470780"><time>2020-11-01T15:35:44.620</time></trkpt><trkpt lat="55.5475500" lon="38.8469430"><time>2020-11-01T15:35:45.623</time></trkpt><trkpt lat="55.5475500" lon="38.8468550"><time>2020-11-01T15:35:46.623</time></trkpt><trkpt lat="55.5476320" lon="38.8467030"><time>2020-11-01T15:35:52.617</time></trkpt><trkpt lat="55.5476700" lon="38.8465720"><time>2020-11-01T15:35:54.617</time></trkpt><trkpt lat="55.5476900" lon="38.8464970"><time>2020-11-01T15:35:55.620</time></trkpt><trkpt lat="55.5477200" lon="38.8464100"><time>2020-11-01T15:35:57.620</time></trkpt><trkpt lat="55.5477430" lon="38.8463100"><time>2020-11-01T15:36:00.617</time></trkpt><trkpt lat="55.5477320" lon="38.8462250"><time>2020-11-01T15:36:02.617</time></trkpt><trkpt lat="55.5476930" lon="38.8461500"><time>2020-11-01T15:36:05.617</time></trkpt><trkpt lat="55.5476670" lon="38.8460770"><time>2020-11-01T15:36:07.620</time></trkpt><trkpt lat="55.5476380" lon="38.8460000"><time>2020-11-01T15:36:09.620</time></trkpt><trkpt lat="55.5476250" lon="38.8458980"><time>2020-11-01T15:36:11.617</time></trkpt><trkpt lat="55.5475970" lon="38.8457830"><time>2020-11-01T15:36:12.620</time></trkpt><trkpt lat="55.5475800" lon="38.8456380"><time>2020-11-01T15:36:15.620</time></trkpt><trkpt lat="55.5475650" lon="38.8455080"><time>2020-11-01T15:36:17.620</time></trkpt><trkpt lat="55.5475550" lon="38.8454130"><time>2020-11-01T15:36:20.623</time></trkpt><trkpt lat="55.5475280" lon="38.8452530"><time>2020-11-01T15:36:27.620</time></trkpt><trkpt lat="55.5475050" lon="38.8451580"><time>2020-11-01T15:36:30.620</time></trkpt><trkpt lat="55.5475000" lon="38.8450000"><time>2020-11-01T15:36:37.620</time></trkpt><trkpt lat="55.5474700" lon="38.8449330"><time>2020-11-01T15:36:41.617</time></trkpt><trkpt lat="55.5474570" lon="38.8448450"><time>2020-11-01T15:36:44.620</time></trkpt><trkpt lat="55.5474480" lon="38.8447650"><time>2020-11-01T15:36:47.617</time></trkpt><trkpt lat="55.5473730" lon="38.8445150"><time>2020-11-01T15:37:01.620</time></trkpt><trkpt lat="55.5473380" lon="38.8444450"><time>2020-11-01T15:37:06.620</time></trkpt><trkpt lat="55.5473230" lon="38.8442850"><time>2020-11-01T15:37:20.623</time></trkpt><trkpt lat="55.5473550" lon="38.8442230"><time>2020-11-01T15:37:22.620</time></trkpt><trkpt lat="55.5473800" lon="38.8441570"><time>2020-11-01T15:37:24.620</time></trkpt><trkpt lat="55.5474050" lon="38.8440630"><time>2020-11-01T15:37:29.620</time></trkpt><trkpt lat="55.5474100" lon="38.8439730"><time>2020-11-01T15:37:32.623</time></trkpt><trkpt lat="55.5474030" lon="38.8438870"><time>2020-11-01T15:37:36.620</time></trkpt><trkpt lat="55.5473850" lon="38.8437870"><time>2020-11-01T15:37:39.620</time></trkpt><trkpt lat="55.5473680" lon="38.8436820"><time>2020-11-01T15:37:42.620</time></trkpt><trkpt lat="55.5473500" lon="38.8436070"><time>2020-11-01T15:37:44.677</time></trkpt><trkpt lat="55.5473420" lon="38.8435150"><time>2020-11-01T15:37:47.620</time></trkpt><trkpt lat="55.5473530" lon="38.8433600"><time>2020-11-01T15:37:55.620</time></trkpt><trkpt lat="55.5473400" lon="38.8432680"><time>2020-11-01T15:37:58.620</time></trkpt><trkpt lat="55.5473270" lon="38.8431920"><time>2020-11-01T15:38:00.620</time></trkpt><trkpt lat="55.5473020" lon="38.8430700"><time>2020-11-01T15:38:08.653</time></trkpt><trkpt lat="55.5472950" lon="38.8429470"><time>2020-11-01T15:38:10.603</time></trkpt><trkpt lat="55.5473100" lon="38.8428680"><time>2020-11-01T15:38:11.597</time></trkpt><trkpt lat="55.5473330" lon="38.8427380"><time>2020-11-01T15:38:12.597</time></trkpt><trkpt lat="55.5473470" lon="38.8425430"><time>2020-11-01T15:38:13.617</time></trkpt><trkpt lat="55.5473480" lon="38.8423100"><time>2020-11-01T15:38:14.613</time></trkpt><trkpt lat="55.5473480" lon="38.8421250"><time>2020-11-01T15:38:15.617</time></trkpt><trkpt lat="55.5473080" lon="38.8422570"><time>2020-11-01T15:38:19.623</time></trkpt><trkpt lat="55.5471750" lon="38.8423880"><time>2020-11-01T15:38:20.620</time></trkpt><trkpt lat="55.5471130" lon="38.8422300"><time>2020-11-01T15:38:40.623</time></trkpt><trkpt lat="55.5469930" lon="38.8423170"><time>2020-11-01T15:38:50.620</time></trkpt><trkpt lat="55.5469380" lon="38.8422830"><time>2020-11-01T15:38:53.617</time></trkpt><trkpt lat="55.5468920" lon="38.8422670"><time>2020-11-01T15:38:55.617</time></trkpt><trkpt lat="55.5468470" lon="38.8422680"><time>2020-11-01T15:38:57.627</time></trkpt><trkpt lat="55.5467870" lon="38.8422250"><time>2020-11-01T15:39:00.620</time></trkpt><trkpt lat="55.5467370" lon="38.8422600"><time>2020-11-01T15:39:03.623</time></trkpt><trkpt lat="55.5466830" lon="38.8422620"><time>2020-11-01T15:39:07.620</time></trkpt><trkpt lat="55.5466350" lon="38.8423280"><time>2020-11-01T15:39:13.620</time></trkpt><trkpt lat="55.5466220" lon="38.8424750"><time>2020-11-01T15:39:21.623</time></trkpt><trkpt lat="55.5465570" lon="38.8423720"><time>2020-11-01T15:39:36.620</time></trkpt><trkpt lat="55.5466400" lon="38.8424030"><time>2020-11-01T15:40:12.620</time></trkpt><trkpt lat="55.5467420" lon="38.8424570"><time>2020-11-01T15:40:29.617</time></trkpt><trkpt lat="55.5468770" lon="38.8424530"><time>2020-11-01T15:40:41.617</time></trkpt><trkpt lat="55.5469380" lon="38.8424350"><time>2020-11-01T15:40:44.623</time></trkpt><trkpt lat="55.5469850" lon="38.8424200"><time>2020-11-01T15:40:46.620</time></trkpt><trkpt lat="55.5470300" lon="38.8424000"><time>2020-11-01T15:40:48.617</time></trkpt><trkpt lat="55.5470750" lon="38.8424050"><time>2020-11-01T15:40:50.620</time></trkpt><trkpt lat="55.5471300" lon="38.8424080"><time>2020-11-01T15:40:53.620</time></trkpt><trkpt lat="55.5471750" lon="38.8423830"><time>2020-11-01T15:40:57.620</time></trkpt><trkpt lat="55.5472370" lon="38.8423030"><time>2020-11-01T15:41:02.620</time></trkpt><trkpt lat="55.5472880" lon="38.8422480"><time>2020-11-01T15:41:06.607</time></trkpt><trkpt lat="55.5473450" lon="38.8422120"><time>2020-11-01T15:41:09.620</time></trkpt><trkpt lat="55.5474020" lon="38.8421970"><time>2020-11-01T15:41:12.620</time></trkpt><trkpt lat="55.5474670" lon="38.8422020"><time>2020-11-01T15:41:15.623</time></trkpt><trkpt lat="55.5475120" lon="38.8421900"><time>2020-11-01T15:41:17.620</time></trkpt><trkpt lat="55.5475800" lon="38.8421330"><time>2020-11-01T15:41:21.627</time></trkpt><trkpt lat="55.5476420" lon="38.8421070"><time>2020-11-01T15:41:24.620</time></trkpt><trkpt lat="55.5476900" lon="38.8420880"><time>2020-11-01T15:41:28.623</time></trkpt><trkpt lat="55.5477530" lon="38.8420320"><time>2020-11-01T15:41:32.620</time></trkpt><trkpt lat="55.5478070" lon="38.8419550"><time>2020-11-01T15:41:34.620</time></trkpt><trkpt lat="55.5478920" lon="38.8418450"><time>2020-11-01T15:41:43.623</time></trkpt><trkpt lat="55.5479420" lon="38.8417870"><time>2020-11-01T15:41:46.623</time></trkpt><trkpt lat="55.5480220" lon="38.8417080"><time>2020-11-01T15:41:53.623</time></trkpt><trkpt lat="55.5480780" lon="38.8416920"><time>2020-11-01T15:41:55.620</time></trkpt><trkpt lat="55.5481270" lon="38.8416600"><time>2020-11-01T15:41:58.620</time></trkpt><trkpt lat="55.5481720" lon="38.8416680"><time>2020-11-01T15:42:01.620</time></trkpt><trkpt lat="55.5482170" lon="38.8416420"><time>2020-11-01T15:42:04.620</time></trkpt><trkpt lat="55.5482780" lon="38.8415730"><time>2020-11-01T15:42:08.623</time></trkpt><trkpt lat="55.5483320" lon="38.8415280"><time>2020-11-01T15:42:10.623</time></trkpt><trkpt lat="55.5483880" lon="38.8414730"><time>2020-11-01T15:42:12.620</time></trkpt><trkpt lat="55.5484430" lon="38.8414230"><time>2020-11-01T15:42:15.623</time></trkpt><trkpt lat="55.5484880" lon="38.8413670"><time>2020-11-01T15:42:17.620</time></trkpt><trkpt lat="55.5485400" lon="38.8413370"><time>2020-11-01T15:42:18.617</time></trkpt><trkpt lat="55.5485880" lon="38.8412980"><time>2020-11-01T15:42:19.620</time></trkpt><trkpt lat="55.5486550" lon="38.8412330"><time>2020-11-01T15:42:21.623</time></trkpt><trkpt lat="55.5487200" lon="38.8411820"><time>2020-11-01T15:42:23.623</time></trkpt><trkpt lat="55.5488230" lon="38.8411120"><time>2020-11-01T15:42:32.620</time></trkpt><trkpt lat="55.5488780" lon="38.8410770"><time>2020-11-01T15:42:35.623</time></trkpt><trkpt lat="55.5489720" lon="38.8410780"><time>2020-11-01T15:42:40.617</time></trkpt><trkpt lat="55.5490130" lon="38.8411080"><time>2020-11-01T15:42:43.620</time></trkpt><trkpt lat="55.5490830" lon="38.8412250"><time>2020-11-01T15:42:58.623</time></trkpt><trkpt lat="55.5491980" lon="38.8412150"><time>2020-11-01T15:43:12.623</time></trkpt><trkpt lat="55.5492850" lon="38.8410670"><time>2020-11-01T15:43:23.620</time></trkpt><trkpt lat="55.5493320" lon="38.8410080"><time>2020-11-01T15:43:27.623</time></trkpt><trkpt lat="55.5493700" lon="38.8410570"><time>2020-11-01T15:43:30.623</time></trkpt><trkpt lat="55.5495170" lon="38.8410170"><time>2020-11-01T15:43:41.623</time></trkpt><trkpt lat="55.5496030" lon="38.8411170"><time>2020-11-01T15:43:46.627</time></trkpt><trkpt lat="55.5496520" lon="38.8411380"><time>2020-11-01T15:43:49.623</time></trkpt><trkpt lat="55.5496670" lon="38.8409720"><time>2020-11-01T15:44:00.620</time></trkpt><trkpt lat="55.5497130" lon="38.8409330"><time>2020-11-01T15:44:03.623</time></trkpt><trkpt lat="55.5498580" lon="38.8409400"><time>2020-11-01T15:44:11.617</time></trkpt><trkpt lat="55.5499280" lon="38.8409600"><time>2020-11-01T15:44:13.627</time></trkpt><trkpt lat="55.5500330" lon="38.8409830"><time>2020-11-01T15:44:18.620</time></trkpt><trkpt lat="55.5500780" lon="38.8409730"><time>2020-11-01T15:44:20.620</time></trkpt><trkpt lat="55.5501450" lon="38.8409420"><time>2020-11-01T15:44:21.623</time></trkpt><trkpt lat="55.5502030" lon="38.8409330"><time>2020-11-01T15:44:23.620</time></trkpt><trkpt lat="55.5502720" lon="38.8408950"><time>2020-11-01T15:44:26.620</time></trkpt><trkpt lat="55.5503250" lon="38.8409000"><time>2020-11-01T15:44:28.623</time></trkpt><trkpt lat="55.5504420" lon="38.8408820"><time>2020-11-01T15:44:30.620</time></trkpt><trkpt lat="55.5504870" lon="38.8408620"><time>2020-11-01T15:44:31.623</time></trkpt><trkpt lat="55.5505600" lon="38.8408300"><time>2020-11-01T15:44:33.620</time></trkpt><trkpt lat="55.5506130" lon="38.8408070"><time>2020-11-01T15:44:35.620</time></trkpt><trkpt lat="55.5506670" lon="38.8408080"><time>2020-11-01T15:44:36.620</time></trkpt><trkpt lat="55.5507370" lon="38.8407950"><time>2020-11-01T15:44:38.620</time></trkpt><trkpt lat="55.5508050" lon="38.8407900"><time>2020-11-01T15:44:40.620</time></trkpt><trkpt lat="55.5508720" lon="38.8407870"><time>2020-11-01T15:44:42.623</time></trkpt><trkpt lat="55.5509450" lon="38.8408300"><time>2020-11-01T15:44:44.623</time></trkpt><trkpt lat="55.5509850" lon="38.8407880"><time>2020-11-01T15:44:46.627</time></trkpt><trkpt lat="55.5510580" lon="38.8407820"><time>2020-11-01T15:44:49.617</time></trkpt><trkpt lat="55.5511100" lon="38.8407670"><time>2020-11-01T15:44:51.627</time></trkpt><trkpt lat="55.5511600" lon="38.8407520"><time>2020-11-01T15:44:53.623</time></trkpt><trkpt lat="55.5512180" lon="38.8407670"><time>2020-11-01T15:44:56.620</time></trkpt><trkpt lat="55.5512870" lon="38.8407730"><time>2020-11-01T15:44:59.623</time></trkpt><trkpt lat="55.5513520" lon="38.8407670"><time>2020-11-01T15:45:02.613</time></trkpt><trkpt lat="55.5514000" lon="38.8407620"><time>2020-11-01T15:45:04.620</time></trkpt><trkpt lat="55.5514770" lon="38.8407530"><time>2020-11-01T15:45:07.627</time></trkpt><trkpt lat="55.5515420" lon="38.8407630"><time>2020-11-01T15:45:09.623</time></trkpt><trkpt lat="55.5516120" lon="38.8407230"><time>2020-11-01T15:45:11.623</time></trkpt><trkpt lat="55.5516570" lon="38.8407250"><time>2020-11-01T15:45:13.623</time></trkpt><trkpt lat="55.5517370" lon="38.8407170"><time>2020-11-01T15:45:17.620</time></trkpt><trkpt lat="55.5517920" lon="38.8407850"><time>2020-11-01T15:45:20.620</time></trkpt><trkpt lat="55.5518370" lon="38.8408000"><time>2020-11-01T15:45:23.620</time></trkpt><trkpt lat="55.5518930" lon="38.8407970"><time>2020-11-01T15:45:26.620</time></trkpt><trkpt lat="55.5519500" lon="38.8408330"><time>2020-11-01T15:45:29.617</time></trkpt><trkpt lat="55.5519900" lon="38.8408980"><time>2020-11-01T15:45:32.617</time></trkpt><trkpt lat="55.5520580" lon="38.8409720"><time>2020-11-01T15:45:35.620</time></trkpt><trkpt lat="55.5521100" lon="38.8410270"><time>2020-11-01T15:45:38.620</time></trkpt><trkpt lat="55.5521450" lon="38.8410830"><time>2020-11-01T15:45:41.620</time></trkpt><trkpt lat="55.5521850" lon="38.8411370"><time>2020-11-01T15:45:43.623</time></trkpt><trkpt lat="55.5522370" lon="38.8411870"><time>2020-11-01T15:45:46.620</time></trkpt><trkpt lat="55.5522950" lon="38.8411970"><time>2020-11-01T15:45:49.620</time></trkpt><trkpt lat="55.5523450" lon="38.8411780"><time>2020-11-01T15:45:52.620</time></trkpt><trkpt lat="55.5524000" lon="38.8411750"><time>2020-11-01T15:45:55.617</time></trkpt><trkpt lat="55.5524570" lon="38.8411470"><time>2020-11-01T15:45:58.623</time></trkpt><trkpt lat="55.5525070" lon="38.8411480"><time>2020-11-01T15:46:00.623</time></trkpt><trkpt lat="55.5525600" lon="38.8411450"><time>2020-11-01T15:46:02.623</time></trkpt><trkpt lat="55.5526430" lon="38.8410950"><time>2020-11-01T15:46:11.620</time></trkpt><trkpt lat="55.5526900" lon="38.8410630"><time>2020-11-01T15:46:15.623</time></trkpt><trkpt lat="55.5527350" lon="38.8410770"><time>2020-11-01T15:46:17.620</time></trkpt><trkpt lat="55.5528030" lon="38.8410870"><time>2020-11-01T15:46:19.623</time></trkpt><trkpt lat="55.5528670" lon="38.8410930"><time>2020-11-01T15:46:21.623</time></trkpt><trkpt lat="55.5529200" lon="38.8410830"><time>2020-11-01T15:46:23.623</time></trkpt><trkpt lat="55.5529700" lon="38.8410780"><time>2020-11-01T15:46:25.623</time></trkpt><trkpt lat="55.5530270" lon="38.8410680"><time>2020-11-01T15:46:27.623</time></trkpt><trkpt lat="55.5530770" lon="38.8410570"><time>2020-11-01T15:46:29.620</time></trkpt><trkpt lat="55.5531370" lon="38.8410530"><time>2020-11-01T15:46:31.623</time></trkpt><trkpt lat="55.5531870" lon="38.8410370"><time>2020-11-01T15:46:33.620</time></trkpt><trkpt lat="55.5532400" lon="38.8409950"><time>2020-11-01T15:46:36.620</time></trkpt><trkpt lat="55.5532970" lon="38.8409880"><time>2020-11-01T15:46:38.623</time></trkpt><trkpt lat="55.5533520" lon="38.8409520"><time>2020-11-01T15:46:40.623</time></trkpt><trkpt lat="55.5534000" lon="38.8409150"><time>2020-11-01T15:46:42.620</time></trkpt><trkpt lat="55.5534650" lon="38.8408830"><time>2020-11-01T15:46:44.627</time></trkpt><trkpt lat="55.5535330" lon="38.8408600"><time>2020-11-01T15:46:46.620</time></trkpt><trkpt lat="55.5536130" lon="38.8408880"><time>2020-11-01T15:46:48.627</time></trkpt><trkpt lat="55.5536950" lon="38.8409070"><time>2020-11-01T15:46:50.623</time></trkpt><trkpt lat="55.5537680" lon="38.8409080"><time>2020-11-01T15:46:52.620</time></trkpt><trkpt lat="55.5538280" lon="38.8408920"><time>2020-11-01T15:46:54.620</time></trkpt><trkpt lat="55.5538880" lon="38.8408650"><time>2020-11-01T15:46:56.620</time></trkpt><trkpt lat="55.5539570" lon="38.8408000"><time>2020-11-01T15:46:58.620</time></trkpt><trkpt lat="55.5540200" lon="38.8407600"><time>2020-11-01T15:47:00.620</time></trkpt><trkpt lat="55.5540830" lon="38.8407550"><time>2020-11-01T15:47:02.623</time></trkpt><trkpt lat="55.5541430" lon="38.8407050"><time>2020-11-01T15:47:04.627</time></trkpt><trkpt lat="55.5542030" lon="38.8406530"><time>2020-11-01T15:47:07.623</time></trkpt><trkpt lat="55.5542480" lon="38.8406820"><time>2020-11-01T15:47:09.623</time></trkpt><trkpt lat="55.5543630" lon="38.8407200"><time>2020-11-01T15:47:17.620</time></trkpt><trkpt lat="55.5544320" lon="38.8407020"><time>2020-11-01T15:47:19.620</time></trkpt><trkpt lat="55.5544880" lon="38.8406270"><time>2020-11-01T15:47:21.623</time></trkpt><trkpt lat="55.5545420" lon="38.8406030"><time>2020-11-01T15:47:23.620</time></trkpt><trkpt lat="55.5545850" lon="38.8405370"><time>2020-11-01T15:47:25.620</time></trkpt><trkpt lat="55.5546230" lon="38.8404900"><time>2020-11-01T15:47:27.623</time></trkpt><trkpt lat="55.5547000" lon="38.8404520"><time>2020-11-01T15:47:33.620</time></trkpt><trkpt lat="55.5547550" lon="38.8404270"><time>2020-11-01T15:47:36.623</time></trkpt><trkpt lat="55.5548780" lon="38.8404120"><time>2020-11-01T15:47:48.620</time></trkpt><trkpt lat="55.5549970" lon="38.8403880"><time>2020-11-01T15:47:56.620</time></trkpt><trkpt lat="55.5550420" lon="38.8403820"><time>2020-11-01T15:47:58.623</time></trkpt><trkpt lat="55.5550970" lon="38.8398970"><time>2020-11-01T15:48:00.620</time></trkpt><trkpt lat="55.5550970" lon="38.8397200"><time>2020-11-01T15:48:01.623</time></trkpt><trkpt lat="55.5551050" lon="38.8396280"><time>2020-11-01T15:48:02.623</time></trkpt><trkpt lat="55.5551300" lon="38.8395530"><time>2020-11-01T15:48:03.627</time></trkpt><trkpt lat="55.5551700" lon="38.8394730"><time>2020-11-01T15:48:05.623</time></trkpt><trkpt lat="55.5552300" lon="38.8394800"><time>2020-11-01T15:48:11.620</time></trkpt><trkpt lat="55.5552770" lon="38.8394780"><time>2020-11-01T15:48:16.623</time></trkpt><trkpt lat="55.5553870" lon="38.8395500"><time>2020-11-01T15:48:29.620</time></trkpt><trkpt lat="55.5553900" lon="38.8397900"><time>2020-11-01T15:48:44.623</time></trkpt><trkpt lat="55.5553670" lon="38.8399770"><time>2020-11-01T15:48:54.623</time></trkpt><trkpt lat="55.5553380" lon="38.8400680"><time>2020-11-01T15:48:57.623</time></trkpt><trkpt lat="55.5553000" lon="38.8401380"><time>2020-11-01T15:49:00.623</time></trkpt><trkpt lat="55.5552770" lon="38.8402150"><time>2020-11-01T15:49:03.620</time></trkpt><trkpt lat="55.5552570" lon="38.8402870"><time>2020-11-01T15:49:07.627</time></trkpt><trkpt lat="55.5552630" lon="38.8404870"><time>2020-11-01T15:49:17.620</time></trkpt><trkpt lat="55.5553300" lon="38.8406620"><time>2020-11-01T15:49:37.623</time></trkpt><trkpt lat="55.5553670" lon="38.8408420"><time>2020-11-01T15:49:53.583</time></trkpt><trkpt lat="55.5553430" lon="38.8410250"><time>2020-11-01T15:50:01.623</time></trkpt><trkpt lat="55.5553570" lon="38.8411320"><time>2020-11-01T15:50:04.623</time></trkpt><trkpt lat="55.5553600" lon="38.8412350"><time>2020-11-01T15:50:07.627</time></trkpt><trkpt lat="55.5553620" lon="38.8413380"><time>2020-11-01T15:50:11.623</time></trkpt><trkpt lat="55.5553600" lon="38.8414180"><time>2020-11-01T15:50:14.623</time></trkpt><trkpt lat="55.5553650" lon="38.8415000"><time>2020-11-01T15:50:18.623</time></trkpt><trkpt lat="55.5553730" lon="38.8415880"><time>2020-11-01T15:50:21.627</time></trkpt><trkpt lat="55.5555430" lon="38.8421480"><time>2020-11-01T15:50:22.627</time></trkpt><trkpt lat="55.5556570" lon="38.8424330"><time>2020-11-01T15:50:23.623</time></trkpt><trkpt lat="55.5557630" lon="38.8427280"><time>2020-11-01T15:50:25.620</time></trkpt><trkpt lat="55.5557870" lon="38.8428400"><time>2020-11-01T15:50:27.620</time></trkpt><trkpt lat="55.5558750" lon="38.8431070"><time>2020-11-01T15:50:34.620</time></trkpt><trkpt lat="55.5558850" lon="38.8432070"><time>2020-11-01T15:50:38.620</time></trkpt><trkpt lat="55.5558980" lon="38.8433130"><time>2020-11-01T15:50:43.620</time></trkpt><trkpt lat="55.5559100" lon="38.8435000"><time>2020-11-01T15:50:46.620</time></trkpt><trkpt lat="55.5559470" lon="38.8436230"><time>2020-11-01T15:50:56.620</time></trkpt><trkpt lat="55.5558800" lon="38.8439020"><time>2020-11-01T15:51:00.627</time></trkpt><trkpt lat="55.5558950" lon="38.8440130"><time>2020-11-01T15:51:09.623</time></trkpt><trkpt lat="55.5558930" lon="38.8440970"><time>2020-11-01T15:51:12.623</time></trkpt><trkpt lat="55.5559520" lon="38.8442350"><time>2020-11-01T15:51:13.627</time></trkpt><trkpt lat="55.5559600" lon="38.8443350"><time>2020-11-01T15:51:17.620</time></trkpt><trkpt lat="55.5559720" lon="38.8444220"><time>2020-11-01T15:51:21.627</time></trkpt><trkpt lat="55.5558620" lon="38.8448200"><time>2020-11-01T15:51:35.620</time></trkpt><trkpt lat="55.5558770" lon="38.8450230"><time>2020-11-01T15:51:50.627</time></trkpt><trkpt lat="55.5558870" lon="38.8451080"><time>2020-11-01T15:51:54.627</time></trkpt><trkpt lat="55.5557930" lon="38.8455230"><time>2020-11-01T15:51:56.623</time></trkpt><trkpt lat="55.5558030" lon="38.8457500"><time>2020-11-01T15:52:16.623</time></trkpt><trkpt lat="55.5557500" lon="38.8460200"><time>2020-11-01T15:52:20.623</time></trkpt><trkpt lat="55.5558970" lon="38.8461720"><time>2020-11-01T15:52:23.623</time></trkpt><trkpt lat="55.5559200" lon="38.8462530"><time>2020-11-01T15:52:28.623</time></trkpt><trkpt lat="55.5559020" lon="38.8464120"><time>2020-11-01T15:52:37.627</time></trkpt><trkpt lat="55.5559070" lon="38.8464950"><time>2020-11-01T15:52:41.623</time></trkpt><trkpt lat="55.5561850" lon="38.8466970"><time>2020-11-01T15:53:23.620</time></trkpt><trkpt lat="55.5561700" lon="38.8470080"><time>2020-11-01T15:53:29.623</time></trkpt><trkpt lat="55.5561900" lon="38.8468080"><time>2020-11-01T15:53:46.623</time></trkpt><trkpt lat="55.5561680" lon="38.8467250"><time>2020-11-01T15:53:49.623</time></trkpt><trkpt lat="55.5561420" lon="38.8466420"><time>2020-11-01T15:53:52.623</time></trkpt><trkpt lat="55.5561230" lon="38.8465650"><time>2020-11-01T15:53:55.627</time></trkpt><trkpt lat="55.5561070" lon="38.8464250"><time>2020-11-01T15:54:04.620</time></trkpt><trkpt lat="55.5559320" lon="38.8467370"><time>2020-11-01T15:54:18.623</time></trkpt><trkpt lat="55.5558270" lon="38.8470000"><time>2020-11-01T15:54:19.623</time></trkpt><trkpt lat="55.5557580" lon="38.8472020"><time>2020-11-01T15:54:20.627</time></trkpt><trkpt lat="55.5556630" lon="38.8474370"><time>2020-11-01T15:54:21.623</time></trkpt><trkpt lat="55.5557570" lon="38.8474330"><time>2020-11-01T15:55:03.627</time></trkpt><trkpt lat="55.5556430" lon="38.8474800"><time>2020-11-01T15:55:12.623</time></trkpt><trkpt lat="55.5556230" lon="38.8476500"><time>2020-11-01T15:55:53.620</time></trkpt><trkpt lat="55.5555980" lon="38.8477420"><time>2020-11-01T15:55:54.620</time></trkpt><trkpt lat="55.5556580" lon="38.8479350"><time>2020-11-01T15:55:55.623</time></trkpt><trkpt lat="55.5557350" lon="38.8480020"><time>2020-11-01T15:55:56.623</time></trkpt><trkpt lat="55.5558120" lon="38.8481720"><time>2020-11-01T15:55:57.623</time></trkpt><trkpt lat="55.5559070" lon="38.8482600"><time>2020-11-01T15:55:59.623</time></trkpt><trkpt lat="55.5558470" lon="38.8484480"><time>2020-11-01T15:56:06.583</time></trkpt><trkpt lat="55.5557530" lon="38.8488130"><time>2020-11-01T15:56:13.637</time></trkpt><trkpt lat="55.5558000" lon="38.8488120"><time>2020-11-01T15:56:15.167</time></trkpt></trkseg></trk></gpx>